<?xml version="1.0" encoding="UTF-8" standalone="no" ?>
<gpx xmlns="http://www.topografix.com/GPX/1/1" xmlns:xsi="http://www.w3.org/2001/XMLSchema-instance" xsi:schemaLocation="http://www.topografix.com/GPX/1/1 http://www.topografix.com/GPX/1/1/gpx.xsd" version="1.1" creator="VisuGPX - https://www.visugpx.com">
  <metadata>
    <name>bpf 18 03</name>
  </metadata>
  <wpt lat="46.90688" lon="3.04808">
    <ele>174.9</ele>
    <name><![CDATA[Apremont sur Allier BPF 18]]></name>
    <desc><![CDATA[]]></desc>
  </wpt>
  <wpt lat="47.33043" lon="2.83788">
    <ele>294.7</ele>
    <name><![CDATA[Sancerre BPF 18]]></name>
    <desc><![CDATA[]]></desc>
  </wpt>
  <wpt lat="47.1454" lon="2.21904">
    <ele>120.9</ele>
    <name><![CDATA[Mehun sur Yevre BPF 18]]></name>
    <desc><![CDATA[]]></desc>
  </wpt>
  <wpt lat="46.78011" lon="2.50503">
    <ele>180.6</ele>
    <name><![CDATA[Meillant BPF 18]]></name>
    <desc><![CDATA[]]></desc>
  </wpt>
  <wpt lat="46.54634" lon="2.35053">
    <ele>256.8</ele>
    <name><![CDATA[Culan BPF 18]]></name>
    <desc><![CDATA[]]></desc>
  </wpt>
  <wpt lat="46.65917" lon="2.69004">
    <ele>226.8</ele>
    <name><![CDATA[Saint-Bonnais-Tronçais BPF 03]]></name>
    <desc><![CDATA[]]></desc>
  </wpt>
  <wpt lat="46.50934" lon="2.71169">
    <ele>203.3</ele>
    <name><![CDATA[Herisson BPF 03]]></name>
    <desc><![CDATA[]]></desc>
  </wpt>
  <wpt lat="46.37376" lon="2.47641">
    <ele>328.5</ele>
    <name><![CDATA[Huriel BPF 03]]></name>
    <desc><![CDATA[]]></desc>
  </wpt>
  <wpt lat="46.1135" lon="3.68254">
    <ele>516.8</ele>
    <name><![CDATA[Chatel Montagne BPF 03]]></name>
    <desc><![CDATA[]]></desc>
  </wpt>
  <wpt lat="46.47567" lon="3.63658">
    <ele>248.7</ele>
    <name><![CDATA[St Pourçain sur Besbre BPF 03]]></name>
    <desc><![CDATA[]]></desc>
  </wpt>
  <trk>
    <name><![CDATA[14266484-bpf 18 03]]></name>
    <trkseg>
      <trkpt lat="46.57652" lon="5.7471">
        <ele>536</ele>
        <time>2022-02-14T14:34:04Z</time>
      </trkpt>
      <trkpt lat="46.57654" lon="5.74706">
        <ele>537</ele>
        <time>2022-02-14T14:34:05Z</time>
      </trkpt>
      <trkpt lat="46.57694" lon="5.74671">
        <ele>540</ele>
        <time>2022-02-14T14:34:13Z</time>
      </trkpt>
      <trkpt lat="46.57707" lon="5.74653">
        <ele>540</ele>
        <time>2022-02-14T14:34:16Z</time>
      </trkpt>
      <trkpt lat="46.577" lon="5.74633">
        <ele>540</ele>
        <time>2022-02-14T14:34:19Z</time>
      </trkpt>
      <trkpt lat="46.57678" lon="5.74596">
        <ele>541</ele>
        <time>2022-02-14T14:34:25Z</time>
      </trkpt>
      <trkpt lat="46.57663" lon="5.74578">
        <ele>542</ele>
        <time>2022-02-14T14:34:29Z</time>
      </trkpt>
      <trkpt lat="46.57635" lon="5.74552">
        <ele>543</ele>
        <time>2022-02-14T14:34:35Z</time>
      </trkpt>
      <trkpt lat="46.576" lon="5.74513">
        <ele>544</ele>
        <time>2022-02-14T14:34:42Z</time>
      </trkpt>
      <trkpt lat="46.57578" lon="5.74495">
        <ele>544</ele>
        <time>2022-02-14T14:34:47Z</time>
      </trkpt>
      <trkpt lat="46.57549" lon="5.74476">
        <ele>544</ele>
        <time>2022-02-14T14:34:53Z</time>
      </trkpt>
      <trkpt lat="46.57574" lon="5.7444">
        <ele>543</ele>
        <time>2022-02-14T14:34:59Z</time>
      </trkpt>
      <trkpt lat="46.57583" lon="5.7441">
        <ele>543</ele>
        <time>2022-02-14T14:35:03Z</time>
      </trkpt>
      <trkpt lat="46.57593" lon="5.74361">
        <ele>543</ele>
        <time>2022-02-14T14:35:09Z</time>
      </trkpt>
      <trkpt lat="46.57608" lon="5.74267">
        <ele>548</ele>
        <time>2022-02-14T14:35:21Z</time>
      </trkpt>
      <trkpt lat="46.57609" lon="5.74229">
        <ele>551</ele>
        <time>2022-02-14T14:35:26Z</time>
      </trkpt>
      <trkpt lat="46.57608" lon="5.74209">
        <ele>553</ele>
        <time>2022-02-14T14:35:28Z</time>
      </trkpt>
      <trkpt lat="46.57606" lon="5.74188">
        <ele>554</ele>
        <time>2022-02-14T14:35:31Z</time>
      </trkpt>
      <trkpt lat="46.57599" lon="5.74154">
        <ele>557</ele>
        <time>2022-02-14T14:35:35Z</time>
      </trkpt>
      <trkpt lat="46.57595" lon="5.74125">
        <ele>560</ele>
        <time>2022-02-14T14:35:39Z</time>
      </trkpt>
      <trkpt lat="46.57597" lon="5.74104">
        <ele>563</ele>
        <time>2022-02-14T14:35:41Z</time>
      </trkpt>
      <trkpt lat="46.57605" lon="5.74078">
        <ele>566</ele>
        <time>2022-02-14T14:35:45Z</time>
      </trkpt>
      <trkpt lat="46.57604" lon="5.74062">
        <ele>566</ele>
        <time>2022-02-14T14:35:47Z</time>
      </trkpt>
      <trkpt lat="46.57598" lon="5.7405">
        <ele>566</ele>
        <time>2022-02-14T14:35:48Z</time>
      </trkpt>
      <trkpt lat="46.57586" lon="5.7404">
        <ele>566</ele>
        <time>2022-02-14T14:35:51Z</time>
      </trkpt>
      <trkpt lat="46.57548" lon="5.74019">
        <ele>566</ele>
        <time>2022-02-14T14:35:58Z</time>
      </trkpt>
      <trkpt lat="46.57539" lon="5.74019">
        <ele>565</ele>
        <time>2022-02-14T14:36:00Z</time>
      </trkpt>
      <trkpt lat="46.57527" lon="5.73998">
        <ele>565</ele>
        <time>2022-02-14T14:36:03Z</time>
      </trkpt>
      <trkpt lat="46.57644" lon="5.73846">
        <ele>555</ele>
        <time>2022-02-14T14:36:31Z</time>
      </trkpt>
      <trkpt lat="46.57671" lon="5.73817">
        <ele>554</ele>
        <time>2022-02-14T14:36:37Z</time>
      </trkpt>
      <trkpt lat="46.57727" lon="5.73768">
        <ele>552</ele>
        <time>2022-02-14T14:36:49Z</time>
      </trkpt>
      <trkpt lat="46.57742" lon="5.73747">
        <ele>551</ele>
        <time>2022-02-14T14:36:52Z</time>
      </trkpt>
      <trkpt lat="46.57757" lon="5.73715">
        <ele>549</ele>
        <time>2022-02-14T14:36:57Z</time>
      </trkpt>
      <trkpt lat="46.57775" lon="5.73659">
        <ele>545</ele>
        <time>2022-02-14T14:37:05Z</time>
      </trkpt>
      <trkpt lat="46.57809" lon="5.7357">
        <ele>538</ele>
        <time>2022-02-14T14:37:17Z</time>
      </trkpt>
      <trkpt lat="46.57819" lon="5.73549">
        <ele>536</ele>
        <time>2022-02-14T14:37:20Z</time>
      </trkpt>
      <trkpt lat="46.57904" lon="5.73399">
        <ele>524</ele>
        <time>2022-02-14T14:37:44Z</time>
      </trkpt>
      <trkpt lat="46.57963" lon="5.73291">
        <ele>517</ele>
        <time>2022-02-14T14:38:01Z</time>
      </trkpt>
      <trkpt lat="46.57989" lon="5.73237">
        <ele>514</ele>
        <time>2022-02-14T14:38:09Z</time>
      </trkpt>
      <trkpt lat="46.5801" lon="5.73182">
        <ele>510</ele>
        <time>2022-02-14T14:38:17Z</time>
      </trkpt>
      <trkpt lat="46.58048" lon="5.73072">
        <ele>504</ele>
        <time>2022-02-14T14:38:32Z</time>
      </trkpt>
      <trkpt lat="46.58101" lon="5.72832">
        <ele>495</ele>
        <time>2022-02-14T14:39:02Z</time>
      </trkpt>
      <trkpt lat="46.58211" lon="5.72379">
        <ele>488</ele>
        <time>2022-02-14T14:40:01Z</time>
      </trkpt>
      <trkpt lat="46.58463" lon="5.71308">
        <ele>472</ele>
        <time>2022-02-14T14:42:20Z</time>
      </trkpt>
      <trkpt lat="46.58595" lon="5.70707">
        <ele>464</ele>
        <time>2022-02-14T14:43:37Z</time>
      </trkpt>
      <trkpt lat="46.58612" lon="5.70621">
        <ele>463</ele>
        <time>2022-02-14T14:43:48Z</time>
      </trkpt>
      <trkpt lat="46.5862" lon="5.70548">
        <ele>462</ele>
        <time>2022-02-14T14:43:57Z</time>
      </trkpt>
      <trkpt lat="46.58616" lon="5.70481">
        <ele>461</ele>
        <time>2022-02-14T14:44:05Z</time>
      </trkpt>
      <trkpt lat="46.58605" lon="5.70439">
        <ele>460</ele>
        <time>2022-02-14T14:44:10Z</time>
      </trkpt>
      <trkpt lat="46.58567" lon="5.70357">
        <ele>456</ele>
        <time>2022-02-14T14:44:23Z</time>
      </trkpt>
      <trkpt lat="46.58553" lon="5.70319">
        <ele>454</ele>
        <time>2022-02-14T14:44:28Z</time>
      </trkpt>
      <trkpt lat="46.58535" lon="5.7023">
        <ele>448</ele>
        <time>2022-02-14T14:44:39Z</time>
      </trkpt>
      <trkpt lat="46.58525" lon="5.70192">
        <ele>445</ele>
        <time>2022-02-14T14:44:44Z</time>
      </trkpt>
      <trkpt lat="46.58524" lon="5.70181">
        <ele>444</ele>
        <time>2022-02-14T14:44:46Z</time>
      </trkpt>
      <trkpt lat="46.58527" lon="5.70174">
        <ele>443</ele>
        <time>2022-02-14T14:44:47Z</time>
      </trkpt>
      <trkpt lat="46.58519" lon="5.7016">
        <ele>442</ele>
        <time>2022-02-14T14:44:49Z</time>
      </trkpt>
      <trkpt lat="46.58515" lon="5.70147">
        <ele>441</ele>
        <time>2022-02-14T14:44:50Z</time>
      </trkpt>
      <trkpt lat="46.58509" lon="5.70111">
        <ele>440</ele>
        <time>2022-02-14T14:44:55Z</time>
      </trkpt>
      <trkpt lat="46.585" lon="5.70016">
        <ele>437</ele>
        <time>2022-02-14T14:45:07Z</time>
      </trkpt>
      <trkpt lat="46.58496" lon="5.69952">
        <ele>438</ele>
        <time>2022-02-14T14:45:15Z</time>
      </trkpt>
      <trkpt lat="46.58497" lon="5.6994">
        <ele>438</ele>
        <time>2022-02-14T14:45:16Z</time>
      </trkpt>
      <trkpt lat="46.58674" lon="5.69346">
        <ele>441</ele>
        <time>2022-02-14T14:46:35Z</time>
      </trkpt>
      <trkpt lat="46.58762" lon="5.69056">
        <ele>441</ele>
        <time>2022-02-14T14:47:14Z</time>
      </trkpt>
      <trkpt lat="46.58848" lon="5.68777">
        <ele>443</ele>
        <time>2022-02-14T14:47:51Z</time>
      </trkpt>
      <trkpt lat="46.58932" lon="5.68516">
        <ele>446</ele>
        <time>2022-02-14T14:48:27Z</time>
      </trkpt>
      <trkpt lat="46.5897" lon="5.68409">
        <ele>451</ele>
        <time>2022-02-14T14:48:41Z</time>
      </trkpt>
      <trkpt lat="46.59085" lon="5.68105">
        <ele>462</ele>
        <time>2022-02-14T14:49:24Z</time>
      </trkpt>
      <trkpt lat="46.59109" lon="5.68039">
        <ele>461</ele>
        <time>2022-02-14T14:49:33Z</time>
      </trkpt>
      <trkpt lat="46.59135" lon="5.67989">
        <ele>459</ele>
        <time>2022-02-14T14:49:41Z</time>
      </trkpt>
      <trkpt lat="46.59208" lon="5.67878">
        <ele>461</ele>
        <time>2022-02-14T14:49:59Z</time>
      </trkpt>
      <trkpt lat="46.59234" lon="5.67824">
        <ele>461</ele>
        <time>2022-02-14T14:50:07Z</time>
      </trkpt>
      <trkpt lat="46.59247" lon="5.67778">
        <ele>461</ele>
        <time>2022-02-14T14:50:14Z</time>
      </trkpt>
      <trkpt lat="46.59292" lon="5.67594">
        <ele>465</ele>
        <time>2022-02-14T14:50:37Z</time>
      </trkpt>
      <trkpt lat="46.59307" lon="5.67473">
        <ele>467</ele>
        <time>2022-02-14T14:50:52Z</time>
      </trkpt>
      <trkpt lat="46.5932" lon="5.67407">
        <ele>467</ele>
        <time>2022-02-14T14:51:01Z</time>
      </trkpt>
      <trkpt lat="46.5936" lon="5.67283">
        <ele>465</ele>
        <time>2022-02-14T14:51:18Z</time>
      </trkpt>
      <trkpt lat="46.5937" lon="5.67245">
        <ele>464</ele>
        <time>2022-02-14T14:51:23Z</time>
      </trkpt>
      <trkpt lat="46.59374" lon="5.67211">
        <ele>464</ele>
        <time>2022-02-14T14:51:27Z</time>
      </trkpt>
      <trkpt lat="46.59376" lon="5.67178">
        <ele>464</ele>
        <time>2022-02-14T14:51:31Z</time>
      </trkpt>
      <trkpt lat="46.59372" lon="5.66958">
        <ele>468</ele>
        <time>2022-02-14T14:51:58Z</time>
      </trkpt>
      <trkpt lat="46.59373" lon="5.66938">
        <ele>469</ele>
        <time>2022-02-14T14:52:00Z</time>
      </trkpt>
      <trkpt lat="46.59375" lon="5.66919">
        <ele>469</ele>
        <time>2022-02-14T14:52:03Z</time>
      </trkpt>
      <trkpt lat="46.59381" lon="5.66898">
        <ele>470</ele>
        <time>2022-02-14T14:52:05Z</time>
      </trkpt>
      <trkpt lat="46.59393" lon="5.6687">
        <ele>471</ele>
        <time>2022-02-14T14:52:09Z</time>
      </trkpt>
      <trkpt lat="46.59445" lon="5.66785">
        <ele>479</ele>
        <time>2022-02-14T14:52:23Z</time>
      </trkpt>
      <trkpt lat="46.59471" lon="5.66753">
        <ele>483</ele>
        <time>2022-02-14T14:52:29Z</time>
      </trkpt>
      <trkpt lat="46.59494" lon="5.66735">
        <ele>487</ele>
        <time>2022-02-14T14:52:34Z</time>
      </trkpt>
      <trkpt lat="46.59669" lon="5.66632">
        <ele>501</ele>
        <time>2022-02-14T14:53:08Z</time>
      </trkpt>
      <trkpt lat="46.59753" lon="5.6658">
        <ele>502</ele>
        <time>2022-02-14T14:53:24Z</time>
      </trkpt>
      <trkpt lat="46.59766" lon="5.6657">
        <ele>503</ele>
        <time>2022-02-14T14:53:26Z</time>
      </trkpt>
      <trkpt lat="46.59784" lon="5.6655">
        <ele>505</ele>
        <time>2022-02-14T14:53:30Z</time>
      </trkpt>
      <trkpt lat="46.5981" lon="5.66514">
        <ele>505</ele>
        <time>2022-02-14T14:53:37Z</time>
      </trkpt>
      <trkpt lat="46.59854" lon="5.66429">
        <ele>509</ele>
        <time>2022-02-14T14:53:50Z</time>
      </trkpt>
      <trkpt lat="46.5986" lon="5.66412">
        <ele>509</ele>
        <time>2022-02-14T14:53:52Z</time>
      </trkpt>
      <trkpt lat="46.59867" lon="5.6638">
        <ele>508</ele>
        <time>2022-02-14T14:53:56Z</time>
      </trkpt>
      <trkpt lat="46.59869" lon="5.66362">
        <ele>507</ele>
        <time>2022-02-14T14:53:59Z</time>
      </trkpt>
      <trkpt lat="46.59877" lon="5.66255">
        <ele>504</ele>
        <time>2022-02-14T14:54:12Z</time>
      </trkpt>
      <trkpt lat="46.59886" lon="5.66212">
        <ele>505</ele>
        <time>2022-02-14T14:54:17Z</time>
      </trkpt>
      <trkpt lat="46.59898" lon="5.66171">
        <ele>506</ele>
        <time>2022-02-14T14:54:23Z</time>
      </trkpt>
      <trkpt lat="46.59912" lon="5.66134">
        <ele>510</ele>
        <time>2022-02-14T14:54:28Z</time>
      </trkpt>
      <trkpt lat="46.59933" lon="5.66087">
        <ele>516</ele>
        <time>2022-02-14T14:54:35Z</time>
      </trkpt>
      <trkpt lat="46.59948" lon="5.66048">
        <ele>519</ele>
        <time>2022-02-14T14:54:40Z</time>
      </trkpt>
      <trkpt lat="46.59979" lon="5.6593">
        <ele>523</ele>
        <time>2022-02-14T14:54:56Z</time>
      </trkpt>
      <trkpt lat="46.59988" lon="5.65875">
        <ele>525</ele>
        <time>2022-02-14T14:55:02Z</time>
      </trkpt>
      <trkpt lat="46.59992" lon="5.65834">
        <ele>527</ele>
        <time>2022-02-14T14:55:08Z</time>
      </trkpt>
      <trkpt lat="46.60017" lon="5.65401">
        <ele>534</ele>
        <time>2022-02-14T14:56:01Z</time>
      </trkpt>
      <trkpt lat="46.60021" lon="5.65327">
        <ele>538</ele>
        <time>2022-02-14T14:56:10Z</time>
      </trkpt>
      <trkpt lat="46.60019" lon="5.65294">
        <ele>539</ele>
        <time>2022-02-14T14:56:14Z</time>
      </trkpt>
      <trkpt lat="46.60015" lon="5.65264">
        <ele>540</ele>
        <time>2022-02-14T14:56:18Z</time>
      </trkpt>
      <trkpt lat="46.6001" lon="5.65238">
        <ele>540</ele>
        <time>2022-02-14T14:56:21Z</time>
      </trkpt>
      <trkpt lat="46.60002" lon="5.65213">
        <ele>541</ele>
        <time>2022-02-14T14:56:24Z</time>
      </trkpt>
      <trkpt lat="46.5987" lon="5.64898">
        <ele>549</ele>
        <time>2022-02-14T14:57:09Z</time>
      </trkpt>
      <trkpt lat="46.5985" lon="5.64853">
        <ele>552</ele>
        <time>2022-02-14T14:57:16Z</time>
      </trkpt>
      <trkpt lat="46.59836" lon="5.64827">
        <ele>553</ele>
        <time>2022-02-14T14:57:20Z</time>
      </trkpt>
      <trkpt lat="46.59759" lon="5.64708">
        <ele>559</ele>
        <time>2022-02-14T14:57:40Z</time>
      </trkpt>
      <trkpt lat="46.59744" lon="5.64677">
        <ele>560</ele>
        <time>2022-02-14T14:57:45Z</time>
      </trkpt>
      <trkpt lat="46.59735" lon="5.64646">
        <ele>561</ele>
        <time>2022-02-14T14:57:49Z</time>
      </trkpt>
      <trkpt lat="46.59731" lon="5.64618">
        <ele>562</ele>
        <time>2022-02-14T14:57:52Z</time>
      </trkpt>
      <trkpt lat="46.5973" lon="5.64604">
        <ele>562</ele>
        <time>2022-02-14T14:57:54Z</time>
      </trkpt>
      <trkpt lat="46.59731" lon="5.64565">
        <ele>563</ele>
        <time>2022-02-14T14:57:59Z</time>
      </trkpt>
      <trkpt lat="46.59736" lon="5.6454">
        <ele>563</ele>
        <time>2022-02-14T14:58:02Z</time>
      </trkpt>
      <trkpt lat="46.59745" lon="5.64511">
        <ele>562</ele>
        <time>2022-02-14T14:58:06Z</time>
      </trkpt>
      <trkpt lat="46.59757" lon="5.64482">
        <ele>561</ele>
        <time>2022-02-14T14:58:10Z</time>
      </trkpt>
      <trkpt lat="46.60056" lon="5.63899">
        <ele>549</ele>
        <time>2022-02-14T14:59:39Z</time>
      </trkpt>
      <trkpt lat="46.60303" lon="5.63423">
        <ele>548</ele>
        <time>2022-02-14T15:00:52Z</time>
      </trkpt>
      <trkpt lat="46.60852" lon="5.62406">
        <ele>533</ele>
        <time>2022-02-14T15:03:30Z</time>
      </trkpt>
      <trkpt lat="46.61283" lon="5.61594">
        <ele>529</ele>
        <time>2022-02-14T15:05:35Z</time>
      </trkpt>
      <trkpt lat="46.6171" lon="5.60794">
        <ele>535</ele>
        <time>2022-02-14T15:07:39Z</time>
      </trkpt>
      <trkpt lat="46.61859" lon="5.60515">
        <ele>542</ele>
        <time>2022-02-14T15:08:22Z</time>
      </trkpt>
      <trkpt lat="46.61885" lon="5.60476">
        <ele>543</ele>
        <time>2022-02-14T15:08:29Z</time>
      </trkpt>
      <trkpt lat="46.61912" lon="5.60443">
        <ele>544</ele>
        <time>2022-02-14T15:08:35Z</time>
      </trkpt>
      <trkpt lat="46.61947" lon="5.60411">
        <ele>544</ele>
        <time>2022-02-14T15:08:42Z</time>
      </trkpt>
      <trkpt lat="46.62102" lon="5.60282">
        <ele>547</ele>
        <time>2022-02-14T15:09:14Z</time>
      </trkpt>
      <trkpt lat="46.62142" lon="5.60244">
        <ele>551</ele>
        <time>2022-02-14T15:09:23Z</time>
      </trkpt>
      <trkpt lat="46.62169" lon="5.60211">
        <ele>553</ele>
        <time>2022-02-14T15:09:29Z</time>
      </trkpt>
      <trkpt lat="46.62229" lon="5.60127">
        <ele>551</ele>
        <time>2022-02-14T15:09:44Z</time>
      </trkpt>
      <trkpt lat="46.6226" lon="5.60094">
        <ele>550</ele>
        <time>2022-02-14T15:09:51Z</time>
      </trkpt>
      <trkpt lat="46.62297" lon="5.60063">
        <ele>551</ele>
        <time>2022-02-14T15:09:58Z</time>
      </trkpt>
      <trkpt lat="46.62357" lon="5.60017">
        <ele>551</ele>
        <time>2022-02-14T15:10:10Z</time>
      </trkpt>
      <trkpt lat="46.62454" lon="5.59927">
        <ele>552</ele>
        <time>2022-02-14T15:10:31Z</time>
      </trkpt>
      <trkpt lat="46.62488" lon="5.59892">
        <ele>550</ele>
        <time>2022-02-14T15:10:38Z</time>
      </trkpt>
      <trkpt lat="46.62514" lon="5.59861">
        <ele>549</ele>
        <time>2022-02-14T15:10:44Z</time>
      </trkpt>
      <trkpt lat="46.62623" lon="5.59709">
        <ele>541</ele>
        <time>2022-02-14T15:11:11Z</time>
      </trkpt>
      <trkpt lat="46.62642" lon="5.59687">
        <ele>540</ele>
        <time>2022-02-14T15:11:15Z</time>
      </trkpt>
      <trkpt lat="46.62652" lon="5.59682">
        <ele>540</ele>
        <time>2022-02-14T15:11:17Z</time>
      </trkpt>
      <trkpt lat="46.6266" lon="5.59686">
        <ele>541</ele>
        <time>2022-02-14T15:11:19Z</time>
      </trkpt>
      <trkpt lat="46.62664" lon="5.59687">
        <ele>541</ele>
        <time>2022-02-14T15:11:19Z</time>
      </trkpt>
      <trkpt lat="46.62672" lon="5.59683">
        <ele>541</ele>
        <time>2022-02-14T15:11:21Z</time>
      </trkpt>
      <trkpt lat="46.62679" lon="5.5967">
        <ele>540</ele>
        <time>2022-02-14T15:11:23Z</time>
      </trkpt>
      <trkpt lat="46.6268" lon="5.59654">
        <ele>539</ele>
        <time>2022-02-14T15:11:25Z</time>
      </trkpt>
      <trkpt lat="46.6268" lon="5.59637">
        <ele>537</ele>
        <time>2022-02-14T15:11:27Z</time>
      </trkpt>
      <trkpt lat="46.62686" lon="5.59621">
        <ele>536</ele>
        <time>2022-02-14T15:11:29Z</time>
      </trkpt>
      <trkpt lat="46.62934" lon="5.59297">
        <ele>533</ele>
        <time>2022-02-14T15:12:29Z</time>
      </trkpt>
      <trkpt lat="46.62979" lon="5.59247">
        <ele>534</ele>
        <time>2022-02-14T15:12:39Z</time>
      </trkpt>
      <trkpt lat="46.63042" lon="5.59185">
        <ele>533</ele>
        <time>2022-02-14T15:12:52Z</time>
      </trkpt>
      <trkpt lat="46.63132" lon="5.59108">
        <ele>534</ele>
        <time>2022-02-14T15:13:11Z</time>
      </trkpt>
      <trkpt lat="46.63681" lon="5.58627">
        <ele>526</ele>
        <time>2022-02-14T15:15:05Z</time>
      </trkpt>
      <trkpt lat="46.63708" lon="5.58606">
        <ele>525</ele>
        <time>2022-02-14T15:15:10Z</time>
      </trkpt>
      <trkpt lat="46.63737" lon="5.58586">
        <ele>525</ele>
        <time>2022-02-14T15:15:16Z</time>
      </trkpt>
      <trkpt lat="46.63765" lon="5.58572">
        <ele>523</ele>
        <time>2022-02-14T15:15:21Z</time>
      </trkpt>
      <trkpt lat="46.63797" lon="5.58559">
        <ele>522</ele>
        <time>2022-02-14T15:15:27Z</time>
      </trkpt>
      <trkpt lat="46.64374" lon="5.58388">
        <ele>489</ele>
        <time>2022-02-14T15:17:12Z</time>
      </trkpt>
      <trkpt lat="46.64426" lon="5.58371">
        <ele>489</ele>
        <time>2022-02-14T15:17:21Z</time>
      </trkpt>
      <trkpt lat="46.64468" lon="5.58349">
        <ele>489</ele>
        <time>2022-02-14T15:17:29Z</time>
      </trkpt>
      <trkpt lat="46.64499" lon="5.58327">
        <ele>487</ele>
        <time>2022-02-14T15:17:35Z</time>
      </trkpt>
      <trkpt lat="46.64559" lon="5.58273">
        <ele>484</ele>
        <time>2022-02-14T15:17:48Z</time>
      </trkpt>
      <trkpt lat="46.64638" lon="5.58193">
        <ele>482</ele>
        <time>2022-02-14T15:18:05Z</time>
      </trkpt>
      <trkpt lat="46.64705" lon="5.58109">
        <ele>480</ele>
        <time>2022-02-14T15:18:21Z</time>
      </trkpt>
      <trkpt lat="46.64741" lon="5.58055">
        <ele>478</ele>
        <time>2022-02-14T15:18:30Z</time>
      </trkpt>
      <trkpt lat="46.64965" lon="5.57675">
        <ele>471</ele>
        <time>2022-02-14T15:19:31Z</time>
      </trkpt>
      <trkpt lat="46.65008" lon="5.57608">
        <ele>471</ele>
        <time>2022-02-14T15:19:42Z</time>
      </trkpt>
      <trkpt lat="46.6504" lon="5.57567">
        <ele>471</ele>
        <time>2022-02-14T15:19:50Z</time>
      </trkpt>
      <trkpt lat="46.65068" lon="5.57535">
        <ele>469</ele>
        <time>2022-02-14T15:19:56Z</time>
      </trkpt>
      <trkpt lat="46.65099" lon="5.57508">
        <ele>467</ele>
        <time>2022-02-14T15:20:03Z</time>
      </trkpt>
      <trkpt lat="46.65124" lon="5.5749">
        <ele>466</ele>
        <time>2022-02-14T15:20:08Z</time>
      </trkpt>
      <trkpt lat="46.65146" lon="5.57478">
        <ele>465</ele>
        <time>2022-02-14T15:20:12Z</time>
      </trkpt>
      <trkpt lat="46.65192" lon="5.57458">
        <ele>463</ele>
        <time>2022-02-14T15:20:20Z</time>
      </trkpt>
      <trkpt lat="46.65255" lon="5.57442">
        <ele>459</ele>
        <time>2022-02-14T15:20:32Z</time>
      </trkpt>
      <trkpt lat="46.65352" lon="5.57428">
        <ele>454</ele>
        <time>2022-02-14T15:20:49Z</time>
      </trkpt>
      <trkpt lat="46.65371" lon="5.57433">
        <ele>453</ele>
        <time>2022-02-14T15:20:53Z</time>
      </trkpt>
      <trkpt lat="46.65439" lon="5.57423">
        <ele>446</ele>
        <time>2022-02-14T15:21:05Z</time>
      </trkpt>
      <trkpt lat="46.65518" lon="5.57405">
        <ele>443</ele>
        <time>2022-02-14T15:21:19Z</time>
      </trkpt>
      <trkpt lat="46.65532" lon="5.57397">
        <ele>442</ele>
        <time>2022-02-14T15:21:22Z</time>
      </trkpt>
      <trkpt lat="46.65554" lon="5.57375">
        <ele>440</ele>
        <time>2022-02-14T15:21:26Z</time>
      </trkpt>
      <trkpt lat="46.65586" lon="5.57325">
        <ele>434</ele>
        <time>2022-02-14T15:21:35Z</time>
      </trkpt>
      <trkpt lat="46.65593" lon="5.57317">
        <ele>432</ele>
        <time>2022-02-14T15:21:36Z</time>
      </trkpt>
      <trkpt lat="46.65604" lon="5.57309">
        <ele>431</ele>
        <time>2022-02-14T15:21:38Z</time>
      </trkpt>
      <trkpt lat="46.65617" lon="5.57304">
        <ele>430</ele>
        <time>2022-02-14T15:21:41Z</time>
      </trkpt>
      <trkpt lat="46.65636" lon="5.57299">
        <ele>429</ele>
        <time>2022-02-14T15:21:44Z</time>
      </trkpt>
      <trkpt lat="46.65655" lon="5.57292">
        <ele>428</ele>
        <time>2022-02-14T15:21:48Z</time>
      </trkpt>
      <trkpt lat="46.65667" lon="5.5728">
        <ele>427</ele>
        <time>2022-02-14T15:21:50Z</time>
      </trkpt>
      <trkpt lat="46.65675" lon="5.57263">
        <ele>424</ele>
        <time>2022-02-14T15:21:53Z</time>
      </trkpt>
      <trkpt lat="46.65677" lon="5.57247">
        <ele>423</ele>
        <time>2022-02-14T15:21:55Z</time>
      </trkpt>
      <trkpt lat="46.6568" lon="5.57199">
        <ele>423</ele>
        <time>2022-02-14T15:22:01Z</time>
      </trkpt>
      <trkpt lat="46.65682" lon="5.57181">
        <ele>423</ele>
        <time>2022-02-14T15:22:03Z</time>
      </trkpt>
      <trkpt lat="46.65681" lon="5.57163">
        <ele>424</ele>
        <time>2022-02-14T15:22:05Z</time>
      </trkpt>
      <trkpt lat="46.65676" lon="5.57146">
        <ele>424</ele>
        <time>2022-02-14T15:22:07Z</time>
      </trkpt>
      <trkpt lat="46.65671" lon="5.5714">
        <ele>424</ele>
        <time>2022-02-14T15:22:09Z</time>
      </trkpt>
      <trkpt lat="46.65741" lon="5.5699">
        <ele>428</ele>
        <time>2022-02-14T15:22:31Z</time>
      </trkpt>
      <trkpt lat="46.65772" lon="5.56925">
        <ele>427</ele>
        <time>2022-02-14T15:22:40Z</time>
      </trkpt>
      <trkpt lat="46.65802" lon="5.5687">
        <ele>425</ele>
        <time>2022-02-14T15:22:49Z</time>
      </trkpt>
      <trkpt lat="46.65869" lon="5.56789">
        <ele>422</ele>
        <time>2022-02-14T15:23:04Z</time>
      </trkpt>
      <trkpt lat="46.65882" lon="5.56763">
        <ele>422</ele>
        <time>2022-02-14T15:23:08Z</time>
      </trkpt>
      <trkpt lat="46.65909" lon="5.56682">
        <ele>423</ele>
        <time>2022-02-14T15:23:19Z</time>
      </trkpt>
      <trkpt lat="46.65929" lon="5.56655">
        <ele>421</ele>
        <time>2022-02-14T15:23:24Z</time>
      </trkpt>
      <trkpt lat="46.65968" lon="5.56569">
        <ele>417</ele>
        <time>2022-02-14T15:23:37Z</time>
      </trkpt>
      <trkpt lat="46.65993" lon="5.56527">
        <ele>418</ele>
        <time>2022-02-14T15:23:44Z</time>
      </trkpt>
      <trkpt lat="46.66005" lon="5.56491">
        <ele>418</ele>
        <time>2022-02-14T15:23:49Z</time>
      </trkpt>
      <trkpt lat="46.66008" lon="5.56473">
        <ele>417</ele>
        <time>2022-02-14T15:23:51Z</time>
      </trkpt>
      <trkpt lat="46.66011" lon="5.56417">
        <ele>416</ele>
        <time>2022-02-14T15:23:58Z</time>
      </trkpt>
      <trkpt lat="46.66016" lon="5.56395">
        <ele>413</ele>
        <time>2022-02-14T15:24:00Z</time>
      </trkpt>
      <trkpt lat="46.66041" lon="5.56309">
        <ele>406</ele>
        <time>2022-02-14T15:24:12Z</time>
      </trkpt>
      <trkpt lat="46.66057" lon="5.56265">
        <ele>402</ele>
        <time>2022-02-14T15:24:18Z</time>
      </trkpt>
      <trkpt lat="46.66067" lon="5.56245">
        <ele>400</ele>
        <time>2022-02-14T15:24:21Z</time>
      </trkpt>
      <trkpt lat="46.66118" lon="5.56165">
        <ele>395</ele>
        <time>2022-02-14T15:24:34Z</time>
      </trkpt>
      <trkpt lat="46.66152" lon="5.56106">
        <ele>389</ele>
        <time>2022-02-14T15:24:44Z</time>
      </trkpt>
      <trkpt lat="46.66156" lon="5.56091">
        <ele>389</ele>
        <time>2022-02-14T15:24:46Z</time>
      </trkpt>
      <trkpt lat="46.66157" lon="5.56074">
        <ele>389</ele>
        <time>2022-02-14T15:24:48Z</time>
      </trkpt>
      <trkpt lat="46.66148" lon="5.56019">
        <ele>386</ele>
        <time>2022-02-14T15:24:55Z</time>
      </trkpt>
      <trkpt lat="46.66134" lon="5.55947">
        <ele>382</ele>
        <time>2022-02-14T15:25:04Z</time>
      </trkpt>
      <trkpt lat="46.66131" lon="5.55906">
        <ele>380</ele>
        <time>2022-02-14T15:25:09Z</time>
      </trkpt>
      <trkpt lat="46.6613" lon="5.55876">
        <ele>380</ele>
        <time>2022-02-14T15:25:13Z</time>
      </trkpt>
      <trkpt lat="46.66133" lon="5.55859">
        <ele>379</ele>
        <time>2022-02-14T15:25:15Z</time>
      </trkpt>
      <trkpt lat="46.66139" lon="5.55842">
        <ele>378</ele>
        <time>2022-02-14T15:25:17Z</time>
      </trkpt>
      <trkpt lat="46.66146" lon="5.55834">
        <ele>377</ele>
        <time>2022-02-14T15:25:19Z</time>
      </trkpt>
      <trkpt lat="46.66151" lon="5.5583">
        <ele>377</ele>
        <time>2022-02-14T15:25:20Z</time>
      </trkpt>
      <trkpt lat="46.66201" lon="5.55817">
        <ele>366</ele>
        <time>2022-02-14T15:25:29Z</time>
      </trkpt>
      <trkpt lat="46.66211" lon="5.55806">
        <ele>364</ele>
        <time>2022-02-14T15:25:31Z</time>
      </trkpt>
      <trkpt lat="46.6624" lon="5.55758">
        <ele>360</ele>
        <time>2022-02-14T15:25:39Z</time>
      </trkpt>
      <trkpt lat="46.66256" lon="5.55734">
        <ele>359</ele>
        <time>2022-02-14T15:25:43Z</time>
      </trkpt>
      <trkpt lat="46.66283" lon="5.55704">
        <ele>355</ele>
        <time>2022-02-14T15:25:49Z</time>
      </trkpt>
      <trkpt lat="46.66306" lon="5.55685">
        <ele>352</ele>
        <time>2022-02-14T15:25:54Z</time>
      </trkpt>
      <trkpt lat="46.66327" lon="5.55672">
        <ele>348</ele>
        <time>2022-02-14T15:25:58Z</time>
      </trkpt>
      <trkpt lat="46.66338" lon="5.55664">
        <ele>346</ele>
        <time>2022-02-14T15:26:00Z</time>
      </trkpt>
      <trkpt lat="46.66356" lon="5.55634">
        <ele>343</ele>
        <time>2022-02-14T15:26:05Z</time>
      </trkpt>
      <trkpt lat="46.66386" lon="5.55571">
        <ele>336</ele>
        <time>2022-02-14T15:26:14Z</time>
      </trkpt>
      <trkpt lat="46.66391" lon="5.55564">
        <ele>335</ele>
        <time>2022-02-14T15:26:15Z</time>
      </trkpt>
      <trkpt lat="46.66397" lon="5.5556">
        <ele>333</ele>
        <time>2022-02-14T15:26:16Z</time>
      </trkpt>
      <trkpt lat="46.66404" lon="5.55561">
        <ele>332</ele>
        <time>2022-02-14T15:26:18Z</time>
      </trkpt>
      <trkpt lat="46.66415" lon="5.55567">
        <ele>331</ele>
        <time>2022-02-14T15:26:20Z</time>
      </trkpt>
      <trkpt lat="46.66481" lon="5.55648">
        <ele>323</ele>
        <time>2022-02-14T15:26:35Z</time>
      </trkpt>
      <trkpt lat="46.66488" lon="5.55653">
        <ele>322</ele>
        <time>2022-02-14T15:26:36Z</time>
      </trkpt>
      <trkpt lat="46.66495" lon="5.55655">
        <ele>321</ele>
        <time>2022-02-14T15:26:38Z</time>
      </trkpt>
      <trkpt lat="46.66505" lon="5.55652">
        <ele>319</ele>
        <time>2022-02-14T15:26:40Z</time>
      </trkpt>
      <trkpt lat="46.66518" lon="5.55633">
        <ele>318</ele>
        <time>2022-02-14T15:26:43Z</time>
      </trkpt>
      <trkpt lat="46.66543" lon="5.55568">
        <ele>314</ele>
        <time>2022-02-14T15:26:52Z</time>
      </trkpt>
      <trkpt lat="46.66556" lon="5.55542">
        <ele>312</ele>
        <time>2022-02-14T15:26:56Z</time>
      </trkpt>
      <trkpt lat="46.66561" lon="5.55538">
        <ele>311</ele>
        <time>2022-02-14T15:26:57Z</time>
      </trkpt>
      <trkpt lat="46.6657" lon="5.55536">
        <ele>311</ele>
        <time>2022-02-14T15:26:58Z</time>
      </trkpt>
      <trkpt lat="46.66577" lon="5.55539">
        <ele>310</ele>
        <time>2022-02-14T15:27:00Z</time>
      </trkpt>
      <trkpt lat="46.66604" lon="5.55561">
        <ele>308</ele>
        <time>2022-02-14T15:27:05Z</time>
      </trkpt>
      <trkpt lat="46.66634" lon="5.55574">
        <ele>305</ele>
        <time>2022-02-14T15:27:11Z</time>
      </trkpt>
      <trkpt lat="46.66644" lon="5.55574">
        <ele>304</ele>
        <time>2022-02-14T15:27:13Z</time>
      </trkpt>
      <trkpt lat="46.66654" lon="5.5557">
        <ele>303</ele>
        <time>2022-02-14T15:27:14Z</time>
      </trkpt>
      <trkpt lat="46.66662" lon="5.55558">
        <ele>301</ele>
        <time>2022-02-14T15:27:17Z</time>
      </trkpt>
      <trkpt lat="46.66717" lon="5.55454">
        <ele>287</ele>
        <time>2022-02-14T15:27:33Z</time>
      </trkpt>
      <trkpt lat="46.66732" lon="5.55433">
        <ele>285</ele>
        <time>2022-02-14T15:27:36Z</time>
      </trkpt>
      <trkpt lat="46.66746" lon="5.55417">
        <ele>282</ele>
        <time>2022-02-14T15:27:39Z</time>
      </trkpt>
      <trkpt lat="46.66757" lon="5.55407">
        <ele>280</ele>
        <time>2022-02-14T15:27:42Z</time>
      </trkpt>
      <trkpt lat="46.66781" lon="5.55392">
        <ele>278</ele>
        <time>2022-02-14T15:27:46Z</time>
      </trkpt>
      <trkpt lat="46.6679" lon="5.5539">
        <ele>277</ele>
        <time>2022-02-14T15:27:48Z</time>
      </trkpt>
      <trkpt lat="46.66824" lon="5.55393">
        <ele>273</ele>
        <time>2022-02-14T15:27:54Z</time>
      </trkpt>
      <trkpt lat="46.66824" lon="5.55383">
        <ele>273</ele>
        <time>2022-02-14T15:27:55Z</time>
      </trkpt>
      <trkpt lat="46.6682" lon="5.5536">
        <ele>272</ele>
        <time>2022-02-14T15:27:58Z</time>
      </trkpt>
      <trkpt lat="46.66795" lon="5.55266">
        <ele>271</ele>
        <time>2022-02-14T15:28:10Z</time>
      </trkpt>
      <trkpt lat="46.66776" lon="5.55202">
        <ele>272</ele>
        <time>2022-02-14T15:28:19Z</time>
      </trkpt>
      <trkpt lat="46.66765" lon="5.55153">
        <ele>272</ele>
        <time>2022-02-14T15:28:25Z</time>
      </trkpt>
      <trkpt lat="46.66761" lon="5.55123">
        <ele>272</ele>
        <time>2022-02-14T15:28:29Z</time>
      </trkpt>
      <trkpt lat="46.66762" lon="5.55115">
        <ele>272</ele>
        <time>2022-02-14T15:28:30Z</time>
      </trkpt>
      <trkpt lat="46.6676" lon="5.55108">
        <ele>272</ele>
        <time>2022-02-14T15:28:31Z</time>
      </trkpt>
      <trkpt lat="46.66754" lon="5.55103">
        <ele>273</ele>
        <time>2022-02-14T15:28:32Z</time>
      </trkpt>
      <trkpt lat="46.66753" lon="5.55081">
        <ele>273</ele>
        <time>2022-02-14T15:28:35Z</time>
      </trkpt>
      <trkpt lat="46.66759" lon="5.54975">
        <ele>273</ele>
        <time>2022-02-14T15:28:48Z</time>
      </trkpt>
      <trkpt lat="46.66766" lon="5.54936">
        <ele>273</ele>
        <time>2022-02-14T15:28:53Z</time>
      </trkpt>
      <trkpt lat="46.66833" lon="5.54743">
        <ele>267</ele>
        <time>2022-02-14T15:29:19Z</time>
      </trkpt>
      <trkpt lat="46.66838" lon="5.54736">
        <ele>267</ele>
        <time>2022-02-14T15:29:20Z</time>
      </trkpt>
      <trkpt lat="46.66844" lon="5.5472">
        <ele>267</ele>
        <time>2022-02-14T15:29:23Z</time>
      </trkpt>
      <trkpt lat="46.66846" lon="5.54706">
        <ele>267</ele>
        <time>2022-02-14T15:29:24Z</time>
      </trkpt>
      <trkpt lat="46.66855" lon="5.54701">
        <ele>267</ele>
        <time>2022-02-14T15:29:26Z</time>
      </trkpt>
      <trkpt lat="46.66881" lon="5.54697">
        <ele>266</ele>
        <time>2022-02-14T15:29:31Z</time>
      </trkpt>
      <trkpt lat="46.66911" lon="5.54711">
        <ele>264</ele>
        <time>2022-02-14T15:29:36Z</time>
      </trkpt>
      <trkpt lat="46.6693" lon="5.54725">
        <ele>264</ele>
        <time>2022-02-14T15:29:40Z</time>
      </trkpt>
      <trkpt lat="46.67032" lon="5.54576">
        <ele>260</ele>
        <time>2022-02-14T15:30:06Z</time>
      </trkpt>
      <trkpt lat="46.67229" lon="5.54302">
        <ele>254</ele>
        <time>2022-02-14T15:30:54Z</time>
      </trkpt>
      <trkpt lat="46.6725" lon="5.54281">
        <ele>253</ele>
        <time>2022-02-14T15:30:59Z</time>
      </trkpt>
      <trkpt lat="46.67255" lon="5.54286">
        <ele>253</ele>
        <time>2022-02-14T15:31:00Z</time>
      </trkpt>
      <trkpt lat="46.67264" lon="5.54273">
        <ele>253</ele>
        <time>2022-02-14T15:31:02Z</time>
      </trkpt>
      <trkpt lat="46.67262" lon="5.54263">
        <ele>253</ele>
        <time>2022-02-14T15:31:03Z</time>
      </trkpt>
      <trkpt lat="46.67266" lon="5.54253">
        <ele>253</ele>
        <time>2022-02-14T15:31:05Z</time>
      </trkpt>
      <trkpt lat="46.6727" lon="5.54231">
        <ele>253</ele>
        <time>2022-02-14T15:31:08Z</time>
      </trkpt>
      <trkpt lat="46.67323" lon="5.53866">
        <ele>249</ele>
        <time>2022-02-14T15:31:53Z</time>
      </trkpt>
      <trkpt lat="46.67323" lon="5.53686">
        <ele>249</ele>
        <time>2022-02-14T15:32:15Z</time>
      </trkpt>
      <trkpt lat="46.6733" lon="5.53648">
        <ele>248</ele>
        <time>2022-02-14T15:32:20Z</time>
      </trkpt>
      <trkpt lat="46.67342" lon="5.53605">
        <ele>247</ele>
        <time>2022-02-14T15:32:26Z</time>
      </trkpt>
      <trkpt lat="46.67349" lon="5.53585">
        <ele>246</ele>
        <time>2022-02-14T15:32:28Z</time>
      </trkpt>
      <trkpt lat="46.67452" lon="5.53302">
        <ele>242</ele>
        <time>2022-02-14T15:33:07Z</time>
      </trkpt>
      <trkpt lat="46.67545" lon="5.53039">
        <ele>241</ele>
        <time>2022-02-14T15:33:44Z</time>
      </trkpt>
      <trkpt lat="46.67597" lon="5.53054">
        <ele>239</ele>
        <time>2022-02-14T15:33:53Z</time>
      </trkpt>
      <trkpt lat="46.6766" lon="5.53068">
        <ele>237</ele>
        <time>2022-02-14T15:34:04Z</time>
      </trkpt>
      <trkpt lat="46.67677" lon="5.53071">
        <ele>237</ele>
        <time>2022-02-14T15:34:07Z</time>
      </trkpt>
      <trkpt lat="46.67685" lon="5.53072">
        <ele>238</ele>
        <time>2022-02-14T15:34:09Z</time>
      </trkpt>
      <trkpt lat="46.67698" lon="5.53064">
        <ele>238</ele>
        <time>2022-02-14T15:34:11Z</time>
      </trkpt>
      <trkpt lat="46.67704" lon="5.53051">
        <ele>238</ele>
        <time>2022-02-14T15:34:13Z</time>
      </trkpt>
      <trkpt lat="46.67716" lon="5.53013">
        <ele>239</ele>
        <time>2022-02-14T15:34:18Z</time>
      </trkpt>
      <trkpt lat="46.67723" lon="5.52996">
        <ele>239</ele>
        <time>2022-02-14T15:34:21Z</time>
      </trkpt>
      <trkpt lat="46.6773" lon="5.52987">
        <ele>240</ele>
        <time>2022-02-14T15:34:22Z</time>
      </trkpt>
      <trkpt lat="46.67756" lon="5.5297">
        <ele>242</ele>
        <time>2022-02-14T15:34:28Z</time>
      </trkpt>
      <trkpt lat="46.67768" lon="5.52959">
        <ele>245</ele>
        <time>2022-02-14T15:34:30Z</time>
      </trkpt>
      <trkpt lat="46.6777" lon="5.52945">
        <ele>246</ele>
        <time>2022-02-14T15:34:32Z</time>
      </trkpt>
      <trkpt lat="46.6777" lon="5.52908">
        <ele>246</ele>
        <time>2022-02-14T15:34:36Z</time>
      </trkpt>
      <trkpt lat="46.67769" lon="5.52883">
        <ele>246</ele>
        <time>2022-02-14T15:34:39Z</time>
      </trkpt>
      <trkpt lat="46.67762" lon="5.52828">
        <ele>243</ele>
        <time>2022-02-14T15:34:46Z</time>
      </trkpt>
      <trkpt lat="46.6776" lon="5.52774">
        <ele>242</ele>
        <time>2022-02-14T15:34:53Z</time>
      </trkpt>
      <trkpt lat="46.67767" lon="5.52715">
        <ele>243</ele>
        <time>2022-02-14T15:35:00Z</time>
      </trkpt>
      <trkpt lat="46.67786" lon="5.52645">
        <ele>244</ele>
        <time>2022-02-14T15:35:09Z</time>
      </trkpt>
      <trkpt lat="46.67805" lon="5.52523">
        <ele>244</ele>
        <time>2022-02-14T15:35:25Z</time>
      </trkpt>
      <trkpt lat="46.67805" lon="5.52414">
        <ele>241</ele>
        <time>2022-02-14T15:35:38Z</time>
      </trkpt>
      <trkpt lat="46.67809" lon="5.52379">
        <ele>239</ele>
        <time>2022-02-14T15:35:42Z</time>
      </trkpt>
      <trkpt lat="46.67816" lon="5.52354">
        <ele>239</ele>
        <time>2022-02-14T15:35:46Z</time>
      </trkpt>
      <trkpt lat="46.67851" lon="5.52287">
        <ele>238</ele>
        <time>2022-02-14T15:35:56Z</time>
      </trkpt>
      <trkpt lat="46.67861" lon="5.52226">
        <ele>239</ele>
        <time>2022-02-14T15:36:03Z</time>
      </trkpt>
      <trkpt lat="46.67869" lon="5.52195">
        <ele>240</ele>
        <time>2022-02-14T15:36:07Z</time>
      </trkpt>
      <trkpt lat="46.67875" lon="5.52174">
        <ele>242</ele>
        <time>2022-02-14T15:36:10Z</time>
      </trkpt>
      <trkpt lat="46.67891" lon="5.52137">
        <ele>244</ele>
        <time>2022-02-14T15:36:16Z</time>
      </trkpt>
      <trkpt lat="46.67895" lon="5.52124">
        <ele>245</ele>
        <time>2022-02-14T15:36:17Z</time>
      </trkpt>
      <trkpt lat="46.67929" lon="5.51917">
        <ele>253</ele>
        <time>2022-02-14T15:36:43Z</time>
      </trkpt>
      <trkpt lat="46.67934" lon="5.51888">
        <ele>254</ele>
        <time>2022-02-14T15:36:47Z</time>
      </trkpt>
      <trkpt lat="46.67957" lon="5.51825">
        <ele>255</ele>
        <time>2022-02-14T15:36:56Z</time>
      </trkpt>
      <trkpt lat="46.68022" lon="5.51728">
        <ele>256</ele>
        <time>2022-02-14T15:37:12Z</time>
      </trkpt>
      <trkpt lat="46.68057" lon="5.51617">
        <ele>259</ele>
        <time>2022-02-14T15:37:27Z</time>
      </trkpt>
      <trkpt lat="46.68076" lon="5.51553">
        <ele>261</ele>
        <time>2022-02-14T15:37:36Z</time>
      </trkpt>
      <trkpt lat="46.68079" lon="5.51534">
        <ele>262</ele>
        <time>2022-02-14T15:37:38Z</time>
      </trkpt>
      <trkpt lat="46.68089" lon="5.51508">
        <ele>262</ele>
        <time>2022-02-14T15:37:42Z</time>
      </trkpt>
      <trkpt lat="46.68147" lon="5.51435">
        <ele>256</ele>
        <time>2022-02-14T15:37:55Z</time>
      </trkpt>
      <trkpt lat="46.68197" lon="5.51382">
        <ele>252</ele>
        <time>2022-02-14T15:38:06Z</time>
      </trkpt>
      <trkpt lat="46.6823" lon="5.51361">
        <ele>251</ele>
        <time>2022-02-14T15:38:13Z</time>
      </trkpt>
      <trkpt lat="46.68251" lon="5.51351">
        <ele>251</ele>
        <time>2022-02-14T15:38:17Z</time>
      </trkpt>
      <trkpt lat="46.68256" lon="5.51354">
        <ele>251</ele>
        <time>2022-02-14T15:38:18Z</time>
      </trkpt>
      <trkpt lat="46.68265" lon="5.51356">
        <ele>251</ele>
        <time>2022-02-14T15:38:19Z</time>
      </trkpt>
      <trkpt lat="46.68275" lon="5.51348">
        <ele>251</ele>
        <time>2022-02-14T15:38:21Z</time>
      </trkpt>
      <trkpt lat="46.6828" lon="5.51334">
        <ele>252</ele>
        <time>2022-02-14T15:38:23Z</time>
      </trkpt>
      <trkpt lat="46.6828" lon="5.51327">
        <ele>252</ele>
        <time>2022-02-14T15:38:24Z</time>
      </trkpt>
      <trkpt lat="46.68275" lon="5.51313">
        <ele>252</ele>
        <time>2022-02-14T15:38:26Z</time>
      </trkpt>
      <trkpt lat="46.68276" lon="5.51291">
        <ele>252</ele>
        <time>2022-02-14T15:38:29Z</time>
      </trkpt>
      <trkpt lat="46.68284" lon="5.51248">
        <ele>252</ele>
        <time>2022-02-14T15:38:34Z</time>
      </trkpt>
      <trkpt lat="46.68292" lon="5.51216">
        <ele>253</ele>
        <time>2022-02-14T15:38:38Z</time>
      </trkpt>
      <trkpt lat="46.68327" lon="5.51114">
        <ele>259</ele>
        <time>2022-02-14T15:38:52Z</time>
      </trkpt>
      <trkpt lat="46.68351" lon="5.51056">
        <ele>262</ele>
        <time>2022-02-14T15:39:00Z</time>
      </trkpt>
      <trkpt lat="46.68383" lon="5.50986">
        <ele>264</ele>
        <time>2022-02-14T15:39:11Z</time>
      </trkpt>
      <trkpt lat="46.68437" lon="5.50893">
        <ele>268</ele>
        <time>2022-02-14T15:39:26Z</time>
      </trkpt>
      <trkpt lat="46.68486" lon="5.50819">
        <ele>271</ele>
        <time>2022-02-14T15:39:38Z</time>
      </trkpt>
      <trkpt lat="46.68533" lon="5.50758">
        <ele>272</ele>
        <time>2022-02-14T15:39:49Z</time>
      </trkpt>
      <trkpt lat="46.68638" lon="5.50618">
        <ele>274</ele>
        <time>2022-02-14T15:40:15Z</time>
      </trkpt>
      <trkpt lat="46.68712" lon="5.50515">
        <ele>274</ele>
        <time>2022-02-14T15:40:33Z</time>
      </trkpt>
      <trkpt lat="46.688" lon="5.50386">
        <ele>270</ele>
        <time>2022-02-14T15:40:55Z</time>
      </trkpt>
      <trkpt lat="46.69017" lon="5.50084">
        <ele>267</ele>
        <time>2022-02-14T15:41:48Z</time>
      </trkpt>
      <trkpt lat="46.69713" lon="5.49085">
        <ele>239</ele>
        <time>2022-02-14T15:44:42Z</time>
      </trkpt>
      <trkpt lat="46.70077" lon="5.4857">
        <ele>237</ele>
        <time>2022-02-14T15:46:12Z</time>
      </trkpt>
      <trkpt lat="46.70115" lon="5.48529">
        <ele>237</ele>
        <time>2022-02-14T15:46:21Z</time>
      </trkpt>
      <trkpt lat="46.70148" lon="5.48502">
        <ele>237</ele>
        <time>2022-02-14T15:46:28Z</time>
      </trkpt>
      <trkpt lat="46.70495" lon="5.48305">
        <ele>234</ele>
        <time>2022-02-14T15:47:34Z</time>
      </trkpt>
      <trkpt lat="46.70583" lon="5.48258">
        <ele>231</ele>
        <time>2022-02-14T15:47:51Z</time>
      </trkpt>
      <trkpt lat="46.70709" lon="5.48183">
        <ele>222</ele>
        <time>2022-02-14T15:48:15Z</time>
      </trkpt>
      <trkpt lat="46.70874" lon="5.48082">
        <ele>216</ele>
        <time>2022-02-14T15:48:47Z</time>
      </trkpt>
      <trkpt lat="46.70971" lon="5.48024">
        <ele>213</ele>
        <time>2022-02-14T15:49:05Z</time>
      </trkpt>
      <trkpt lat="46.71092" lon="5.47948">
        <ele>212</ele>
        <time>2022-02-14T15:49:29Z</time>
      </trkpt>
      <trkpt lat="46.71254" lon="5.47835">
        <ele>209</ele>
        <time>2022-02-14T15:50:01Z</time>
      </trkpt>
      <trkpt lat="46.713" lon="5.47797">
        <ele>209</ele>
        <time>2022-02-14T15:50:10Z</time>
      </trkpt>
      <trkpt lat="46.71337" lon="5.47758">
        <ele>210</ele>
        <time>2022-02-14T15:50:18Z</time>
      </trkpt>
      <trkpt lat="46.7136" lon="5.47728">
        <ele>210</ele>
        <time>2022-02-14T15:50:24Z</time>
      </trkpt>
      <trkpt lat="46.71411" lon="5.47645">
        <ele>210</ele>
        <time>2022-02-14T15:50:37Z</time>
      </trkpt>
      <trkpt lat="46.71443" lon="5.47599">
        <ele>210</ele>
        <time>2022-02-14T15:50:45Z</time>
      </trkpt>
      <trkpt lat="46.71474" lon="5.4756">
        <ele>209</ele>
        <time>2022-02-14T15:50:53Z</time>
      </trkpt>
      <trkpt lat="46.71503" lon="5.47528">
        <ele>209</ele>
        <time>2022-02-14T15:50:59Z</time>
      </trkpt>
      <trkpt lat="46.71532" lon="5.47502">
        <ele>209</ele>
        <time>2022-02-14T15:51:05Z</time>
      </trkpt>
      <trkpt lat="46.71604" lon="5.47449">
        <ele>209</ele>
        <time>2022-02-14T15:51:19Z</time>
      </trkpt>
      <trkpt lat="46.71662" lon="5.4742">
        <ele>209</ele>
        <time>2022-02-14T15:51:30Z</time>
      </trkpt>
      <trkpt lat="46.7169" lon="5.47409">
        <ele>209</ele>
        <time>2022-02-14T15:51:35Z</time>
      </trkpt>
      <trkpt lat="46.71735" lon="5.47397">
        <ele>208</ele>
        <time>2022-02-14T15:51:44Z</time>
      </trkpt>
      <trkpt lat="46.71837" lon="5.47382">
        <ele>206</ele>
        <time>2022-02-14T15:52:02Z</time>
      </trkpt>
      <trkpt lat="46.71853" lon="5.4738">
        <ele>205</ele>
        <time>2022-02-14T15:52:05Z</time>
      </trkpt>
      <trkpt lat="46.72248" lon="5.47322">
        <ele>203</ele>
        <time>2022-02-14T15:53:15Z</time>
      </trkpt>
      <trkpt lat="46.72334" lon="5.47307">
        <ele>201</ele>
        <time>2022-02-14T15:53:31Z</time>
      </trkpt>
      <trkpt lat="46.72344" lon="5.47305">
        <ele>201</ele>
        <time>2022-02-14T15:53:33Z</time>
      </trkpt>
      <trkpt lat="46.72629" lon="5.47256">
        <ele>202</ele>
        <time>2022-02-14T15:54:24Z</time>
      </trkpt>
      <trkpt lat="46.7271" lon="5.47237">
        <ele>201</ele>
        <time>2022-02-14T15:54:38Z</time>
      </trkpt>
      <trkpt lat="46.72792" lon="5.47213">
        <ele>201</ele>
        <time>2022-02-14T15:54:53Z</time>
      </trkpt>
      <trkpt lat="46.72839" lon="5.47198">
        <ele>202</ele>
        <time>2022-02-14T15:55:02Z</time>
      </trkpt>
      <trkpt lat="46.72882" lon="5.47179">
        <ele>202</ele>
        <time>2022-02-14T15:55:10Z</time>
      </trkpt>
      <trkpt lat="46.72895" lon="5.47171">
        <ele>203</ele>
        <time>2022-02-14T15:55:12Z</time>
      </trkpt>
      <trkpt lat="46.72922" lon="5.4715">
        <ele>203</ele>
        <time>2022-02-14T15:55:18Z</time>
      </trkpt>
      <trkpt lat="46.72967" lon="5.47107">
        <ele>201</ele>
        <time>2022-02-14T15:55:27Z</time>
      </trkpt>
      <trkpt lat="46.7309" lon="5.46961">
        <ele>200</ele>
        <time>2022-02-14T15:55:55Z</time>
      </trkpt>
      <trkpt lat="46.73108" lon="5.46944">
        <ele>200</ele>
        <time>2022-02-14T15:55:59Z</time>
      </trkpt>
      <trkpt lat="46.73121" lon="5.46934">
        <ele>200</ele>
        <time>2022-02-14T15:56:02Z</time>
      </trkpt>
      <trkpt lat="46.7315" lon="5.46923">
        <ele>199</ele>
        <time>2022-02-14T15:56:07Z</time>
      </trkpt>
      <trkpt lat="46.73176" lon="5.46921">
        <ele>199</ele>
        <time>2022-02-14T15:56:12Z</time>
      </trkpt>
      <trkpt lat="46.73204" lon="5.46925">
        <ele>200</ele>
        <time>2022-02-14T15:56:17Z</time>
      </trkpt>
      <trkpt lat="46.73358" lon="5.46965">
        <ele>201</ele>
        <time>2022-02-14T15:56:45Z</time>
      </trkpt>
      <trkpt lat="46.734" lon="5.46969">
        <ele>201</ele>
        <time>2022-02-14T15:56:52Z</time>
      </trkpt>
      <trkpt lat="46.73562" lon="5.46962">
        <ele>201</ele>
        <time>2022-02-14T15:57:21Z</time>
      </trkpt>
      <trkpt lat="46.73656" lon="5.46961">
        <ele>202</ele>
        <time>2022-02-14T15:57:38Z</time>
      </trkpt>
      <trkpt lat="46.73673" lon="5.46954">
        <ele>202</ele>
        <time>2022-02-14T15:57:41Z</time>
      </trkpt>
      <trkpt lat="46.73683" lon="5.46941">
        <ele>202</ele>
        <time>2022-02-14T15:57:43Z</time>
      </trkpt>
      <trkpt lat="46.73687" lon="5.46933">
        <ele>202</ele>
        <time>2022-02-14T15:57:44Z</time>
      </trkpt>
      <trkpt lat="46.73691" lon="5.46911">
        <ele>202</ele>
        <time>2022-02-14T15:57:47Z</time>
      </trkpt>
      <trkpt lat="46.73691" lon="5.46888">
        <ele>202</ele>
        <time>2022-02-14T15:57:50Z</time>
      </trkpt>
      <trkpt lat="46.73687" lon="5.46608">
        <ele>202</ele>
        <time>2022-02-14T15:58:24Z</time>
      </trkpt>
      <trkpt lat="46.73671" lon="5.46514">
        <ele>202</ele>
        <time>2022-02-14T15:58:36Z</time>
      </trkpt>
      <trkpt lat="46.73671" lon="5.46494">
        <ele>202</ele>
        <time>2022-02-14T15:58:38Z</time>
      </trkpt>
      <trkpt lat="46.73673" lon="5.46477">
        <ele>202</ele>
        <time>2022-02-14T15:58:41Z</time>
      </trkpt>
      <trkpt lat="46.73682" lon="5.46446">
        <ele>202</ele>
        <time>2022-02-14T15:58:45Z</time>
      </trkpt>
      <trkpt lat="46.73694" lon="5.46424">
        <ele>203</ele>
        <time>2022-02-14T15:58:48Z</time>
      </trkpt>
      <trkpt lat="46.73718" lon="5.46391">
        <ele>202</ele>
        <time>2022-02-14T15:58:54Z</time>
      </trkpt>
      <trkpt lat="46.73756" lon="5.46348">
        <ele>201</ele>
        <time>2022-02-14T15:59:02Z</time>
      </trkpt>
      <trkpt lat="46.73765" lon="5.46342">
        <ele>201</ele>
        <time>2022-02-14T15:59:04Z</time>
      </trkpt>
      <trkpt lat="46.73811" lon="5.46327">
        <ele>202</ele>
        <time>2022-02-14T15:59:13Z</time>
      </trkpt>
      <trkpt lat="46.73839" lon="5.46314">
        <ele>202</ele>
        <time>2022-02-14T15:59:18Z</time>
      </trkpt>
      <trkpt lat="46.73849" lon="5.46306">
        <ele>202</ele>
        <time>2022-02-14T15:59:20Z</time>
      </trkpt>
      <trkpt lat="46.73857" lon="5.46296">
        <ele>202</ele>
        <time>2022-02-14T15:59:22Z</time>
      </trkpt>
      <trkpt lat="46.73886" lon="5.4624">
        <ele>201</ele>
        <time>2022-02-14T15:59:30Z</time>
      </trkpt>
      <trkpt lat="46.7391" lon="5.46201">
        <ele>200</ele>
        <time>2022-02-14T15:59:37Z</time>
      </trkpt>
      <trkpt lat="46.73924" lon="5.46182">
        <ele>200</ele>
        <time>2022-02-14T15:59:40Z</time>
      </trkpt>
      <trkpt lat="46.73961" lon="5.46143">
        <ele>200</ele>
        <time>2022-02-14T15:59:48Z</time>
      </trkpt>
      <trkpt lat="46.74006" lon="5.46099">
        <ele>200</ele>
        <time>2022-02-14T15:59:58Z</time>
      </trkpt>
      <trkpt lat="46.74039" lon="5.46079">
        <ele>200</ele>
        <time>2022-02-14T16:00:04Z</time>
      </trkpt>
      <trkpt lat="46.74079" lon="5.46064">
        <ele>199</ele>
        <time>2022-02-14T16:00:12Z</time>
      </trkpt>
      <trkpt lat="46.74097" lon="5.46058">
        <ele>199</ele>
        <time>2022-02-14T16:00:15Z</time>
      </trkpt>
      <trkpt lat="46.74217" lon="5.46021">
        <ele>199</ele>
        <time>2022-02-14T16:00:37Z</time>
      </trkpt>
      <trkpt lat="46.74279" lon="5.4599">
        <ele>199</ele>
        <time>2022-02-14T16:00:48Z</time>
      </trkpt>
      <trkpt lat="46.74313" lon="5.45968">
        <ele>199</ele>
        <time>2022-02-14T16:00:55Z</time>
      </trkpt>
      <trkpt lat="46.74368" lon="5.45922">
        <ele>199</ele>
        <time>2022-02-14T16:01:06Z</time>
      </trkpt>
      <trkpt lat="46.74454" lon="5.45844">
        <ele>199</ele>
        <time>2022-02-14T16:01:24Z</time>
      </trkpt>
      <trkpt lat="46.74467" lon="5.45832">
        <ele>200</ele>
        <time>2022-02-14T16:01:27Z</time>
      </trkpt>
      <trkpt lat="46.74599" lon="5.4572">
        <ele>201</ele>
        <time>2022-02-14T16:01:54Z</time>
      </trkpt>
      <trkpt lat="46.74643" lon="5.45688">
        <ele>202</ele>
        <time>2022-02-14T16:02:03Z</time>
      </trkpt>
      <trkpt lat="46.7467" lon="5.45683">
        <ele>203</ele>
        <time>2022-02-14T16:02:08Z</time>
      </trkpt>
      <trkpt lat="46.74681" lon="5.45685">
        <ele>203</ele>
        <time>2022-02-14T16:02:10Z</time>
      </trkpt>
      <trkpt lat="46.74687" lon="5.45678">
        <ele>203</ele>
        <time>2022-02-14T16:02:11Z</time>
      </trkpt>
      <trkpt lat="46.74689" lon="5.45668">
        <ele>203</ele>
        <time>2022-02-14T16:02:12Z</time>
      </trkpt>
      <trkpt lat="46.74687" lon="5.45656">
        <ele>203</ele>
        <time>2022-02-14T16:02:14Z</time>
      </trkpt>
      <trkpt lat="46.7468" lon="5.45649">
        <ele>203</ele>
        <time>2022-02-14T16:02:15Z</time>
      </trkpt>
      <trkpt lat="46.74677" lon="5.45648">
        <ele>203</ele>
        <time>2022-02-14T16:02:16Z</time>
      </trkpt>
      <trkpt lat="46.7466" lon="5.45621">
        <ele>203</ele>
        <time>2022-02-14T16:02:20Z</time>
      </trkpt>
      <trkpt lat="46.74549" lon="5.4512">
        <ele>200</ele>
        <time>2022-02-14T16:03:25Z</time>
      </trkpt>
      <trkpt lat="46.74546" lon="5.45105">
        <ele>200</ele>
        <time>2022-02-14T16:03:26Z</time>
      </trkpt>
      <trkpt lat="46.7454" lon="5.45073">
        <ele>199</ele>
        <time>2022-02-14T16:03:31Z</time>
      </trkpt>
      <trkpt lat="46.74543" lon="5.44873">
        <ele>199</ele>
        <time>2022-02-14T16:03:55Z</time>
      </trkpt>
      <trkpt lat="46.74543" lon="5.44855">
        <ele>198</ele>
        <time>2022-02-14T16:03:57Z</time>
      </trkpt>
      <trkpt lat="46.74546" lon="5.44693">
        <ele>199</ele>
        <time>2022-02-14T16:04:17Z</time>
      </trkpt>
      <trkpt lat="46.74546" lon="5.44553">
        <ele>199</ele>
        <time>2022-02-14T16:04:34Z</time>
      </trkpt>
      <trkpt lat="46.74548" lon="5.44439">
        <ele>201</ele>
        <time>2022-02-14T16:04:48Z</time>
      </trkpt>
      <trkpt lat="46.74545" lon="5.44291">
        <ele>203</ele>
        <time>2022-02-14T16:05:06Z</time>
      </trkpt>
      <trkpt lat="46.74538" lon="5.44133">
        <ele>208</ele>
        <time>2022-02-14T16:05:25Z</time>
      </trkpt>
      <trkpt lat="46.74497" lon="5.43449">
        <ele>212</ele>
        <time>2022-02-14T16:06:49Z</time>
      </trkpt>
      <trkpt lat="46.74425" lon="5.42335">
        <ele>208</ele>
        <time>2022-02-14T16:09:05Z</time>
      </trkpt>
      <trkpt lat="46.74414" lon="5.42159">
        <ele>203</ele>
        <time>2022-02-14T16:09:27Z</time>
      </trkpt>
      <trkpt lat="46.74413" lon="5.42124">
        <ele>202</ele>
        <time>2022-02-14T16:09:31Z</time>
      </trkpt>
      <trkpt lat="46.74434" lon="5.41269">
        <ele>207</ele>
        <time>2022-02-14T16:11:15Z</time>
      </trkpt>
      <trkpt lat="46.74464" lon="5.40149">
        <ele>193</ele>
        <time>2022-02-14T16:13:32Z</time>
      </trkpt>
      <trkpt lat="46.74464" lon="5.40132">
        <ele>194</ele>
        <time>2022-02-14T16:13:34Z</time>
      </trkpt>
      <trkpt lat="46.74472" lon="5.3983">
        <ele>200</ele>
        <time>2022-02-14T16:14:11Z</time>
      </trkpt>
      <trkpt lat="46.74493" lon="5.39242">
        <ele>195</ele>
        <time>2022-02-14T16:15:23Z</time>
      </trkpt>
      <trkpt lat="46.74494" lon="5.39156">
        <ele>193</ele>
        <time>2022-02-14T16:15:33Z</time>
      </trkpt>
      <trkpt lat="46.74488" lon="5.3908">
        <ele>193</ele>
        <time>2022-02-14T16:15:43Z</time>
      </trkpt>
      <trkpt lat="46.74474" lon="5.38996">
        <ele>200</ele>
        <time>2022-02-14T16:15:53Z</time>
      </trkpt>
      <trkpt lat="46.74437" lon="5.38833">
        <ele>203</ele>
        <time>2022-02-14T16:16:14Z</time>
      </trkpt>
      <trkpt lat="46.74425" lon="5.38767">
        <ele>202</ele>
        <time>2022-02-14T16:16:22Z</time>
      </trkpt>
      <trkpt lat="46.7442" lon="5.38732">
        <ele>202</ele>
        <time>2022-02-14T16:16:27Z</time>
      </trkpt>
      <trkpt lat="46.74316" lon="5.37558">
        <ele>207</ele>
        <time>2022-02-14T16:18:51Z</time>
      </trkpt>
      <trkpt lat="46.74284" lon="5.3721">
        <ele>208</ele>
        <time>2022-02-14T16:19:34Z</time>
      </trkpt>
      <trkpt lat="46.74273" lon="5.37147">
        <ele>209</ele>
        <time>2022-02-14T16:19:42Z</time>
      </trkpt>
      <trkpt lat="46.74269" lon="5.37133">
        <ele>208</ele>
        <time>2022-02-14T16:19:44Z</time>
      </trkpt>
      <trkpt lat="46.74261" lon="5.37097">
        <ele>208</ele>
        <time>2022-02-14T16:19:48Z</time>
      </trkpt>
      <trkpt lat="46.74261" lon="5.37083">
        <ele>208</ele>
        <time>2022-02-14T16:19:50Z</time>
      </trkpt>
      <trkpt lat="46.74263" lon="5.37038">
        <ele>208</ele>
        <time>2022-02-14T16:19:56Z</time>
      </trkpt>
      <trkpt lat="46.74321" lon="5.36402">
        <ele>203</ele>
        <time>2022-02-14T16:21:14Z</time>
      </trkpt>
      <trkpt lat="46.74398" lon="5.35548">
        <ele>207</ele>
        <time>2022-02-14T16:22:59Z</time>
      </trkpt>
      <trkpt lat="46.74636" lon="5.32931">
        <ele>205</ele>
        <time>2022-02-14T16:28:21Z</time>
      </trkpt>
      <trkpt lat="46.74642" lon="5.32883">
        <ele>205</ele>
        <time>2022-02-14T16:28:27Z</time>
      </trkpt>
      <trkpt lat="46.74652" lon="5.32837">
        <ele>205</ele>
        <time>2022-02-14T16:28:33Z</time>
      </trkpt>
      <trkpt lat="46.74699" lon="5.32647">
        <ele>207</ele>
        <time>2022-02-14T16:28:57Z</time>
      </trkpt>
      <trkpt lat="46.74712" lon="5.32592">
        <ele>206</ele>
        <time>2022-02-14T16:29:04Z</time>
      </trkpt>
      <trkpt lat="46.74715" lon="5.32567">
        <ele>206</ele>
        <time>2022-02-14T16:29:07Z</time>
      </trkpt>
      <trkpt lat="46.74713" lon="5.32531">
        <ele>206</ele>
        <time>2022-02-14T16:29:12Z</time>
      </trkpt>
      <trkpt lat="46.74568" lon="5.31946">
        <ele>202</ele>
        <time>2022-02-14T16:30:28Z</time>
      </trkpt>
      <trkpt lat="46.74548" lon="5.31878">
        <ele>201</ele>
        <time>2022-02-14T16:30:37Z</time>
      </trkpt>
      <trkpt lat="46.74503" lon="5.3176">
        <ele>198</ele>
        <time>2022-02-14T16:30:53Z</time>
      </trkpt>
      <trkpt lat="46.74484" lon="5.31707">
        <ele>196</ele>
        <time>2022-02-14T16:31:00Z</time>
      </trkpt>
      <trkpt lat="46.74457" lon="5.31623">
        <ele>195</ele>
        <time>2022-02-14T16:31:12Z</time>
      </trkpt>
      <trkpt lat="46.74443" lon="5.31574">
        <ele>195</ele>
        <time>2022-02-14T16:31:18Z</time>
      </trkpt>
      <trkpt lat="46.74443" lon="5.31538">
        <ele>195</ele>
        <time>2022-02-14T16:31:23Z</time>
      </trkpt>
      <trkpt lat="46.74448" lon="5.31499">
        <ele>195</ele>
        <time>2022-02-14T16:31:27Z</time>
      </trkpt>
      <trkpt lat="46.74476" lon="5.31386">
        <ele>194</ele>
        <time>2022-02-14T16:31:42Z</time>
      </trkpt>
      <trkpt lat="46.74882" lon="5.29738">
        <ele>181</ele>
        <time>2022-02-14T16:35:16Z</time>
      </trkpt>
      <trkpt lat="46.74887" lon="5.29713">
        <ele>181</ele>
        <time>2022-02-14T16:35:19Z</time>
      </trkpt>
      <trkpt lat="46.74891" lon="5.29681">
        <ele>181</ele>
        <time>2022-02-14T16:35:23Z</time>
      </trkpt>
      <trkpt lat="46.74901" lon="5.29475">
        <ele>181</ele>
        <time>2022-02-14T16:35:48Z</time>
      </trkpt>
      <trkpt lat="46.74902" lon="5.29254">
        <ele>180</ele>
        <time>2022-02-14T16:36:15Z</time>
      </trkpt>
      <trkpt lat="46.74902" lon="5.29172">
        <ele>180</ele>
        <time>2022-02-14T16:36:25Z</time>
      </trkpt>
      <trkpt lat="46.74903" lon="5.2915">
        <ele>180</ele>
        <time>2022-02-14T16:36:28Z</time>
      </trkpt>
      <trkpt lat="46.74909" lon="5.29115">
        <ele>180</ele>
        <time>2022-02-14T16:36:32Z</time>
      </trkpt>
      <trkpt lat="46.75045" lon="5.28698">
        <ele>197</ele>
        <time>2022-02-14T16:37:28Z</time>
      </trkpt>
      <trkpt lat="46.75051" lon="5.28655">
        <ele>198</ele>
        <time>2022-02-14T16:37:34Z</time>
      </trkpt>
      <trkpt lat="46.75091" lon="5.27803">
        <ele>201</ele>
        <time>2022-02-14T16:39:18Z</time>
      </trkpt>
      <trkpt lat="46.75157" lon="5.26518">
        <ele>204</ele>
        <time>2022-02-14T16:41:55Z</time>
      </trkpt>
      <trkpt lat="46.75214" lon="5.25334">
        <ele>209</ele>
        <time>2022-02-14T16:44:19Z</time>
      </trkpt>
      <trkpt lat="46.75218" lon="5.25218">
        <ele>209</ele>
        <time>2022-02-14T16:44:34Z</time>
      </trkpt>
      <trkpt lat="46.75243" lon="5.24691">
        <ele>210</ele>
        <time>2022-02-14T16:45:38Z</time>
      </trkpt>
      <trkpt lat="46.75262" lon="5.24319">
        <ele>209</ele>
        <time>2022-02-14T16:46:23Z</time>
      </trkpt>
      <trkpt lat="46.75316" lon="5.24085">
        <ele>206</ele>
        <time>2022-02-14T16:46:54Z</time>
      </trkpt>
      <trkpt lat="46.75314" lon="5.24031">
        <ele>206</ele>
        <time>2022-02-14T16:47:00Z</time>
      </trkpt>
      <trkpt lat="46.75311" lon="5.24006">
        <ele>205</ele>
        <time>2022-02-14T16:47:03Z</time>
      </trkpt>
      <trkpt lat="46.75133" lon="5.23161">
        <ele>191</ele>
        <time>2022-02-14T16:48:51Z</time>
      </trkpt>
      <trkpt lat="46.7513" lon="5.23145">
        <ele>191</ele>
        <time>2022-02-14T16:48:53Z</time>
      </trkpt>
      <trkpt lat="46.75046" lon="5.22756">
        <ele>199</ele>
        <time>2022-02-14T16:49:43Z</time>
      </trkpt>
      <trkpt lat="46.74975" lon="5.22413">
        <ele>205</ele>
        <time>2022-02-14T16:50:26Z</time>
      </trkpt>
      <trkpt lat="46.74796" lon="5.21578">
        <ele>208</ele>
        <time>2022-02-14T16:52:13Z</time>
      </trkpt>
      <trkpt lat="46.74758" lon="5.21382">
        <ele>209</ele>
        <time>2022-02-14T16:52:38Z</time>
      </trkpt>
      <trkpt lat="46.74757" lon="5.21329">
        <ele>209</ele>
        <time>2022-02-14T16:52:44Z</time>
      </trkpt>
      <trkpt lat="46.74841" lon="5.20108">
        <ele>209</ele>
        <time>2022-02-14T16:55:14Z</time>
      </trkpt>
      <trkpt lat="46.7488" lon="5.19631">
        <ele>204</ele>
        <time>2022-02-14T16:56:13Z</time>
      </trkpt>
      <trkpt lat="46.74902" lon="5.19482">
        <ele>203</ele>
        <time>2022-02-14T16:56:31Z</time>
      </trkpt>
      <trkpt lat="46.74899" lon="5.19347">
        <ele>204</ele>
        <time>2022-02-14T16:56:48Z</time>
      </trkpt>
      <trkpt lat="46.74859" lon="5.19148">
        <ele>205</ele>
        <time>2022-02-14T16:57:13Z</time>
      </trkpt>
      <trkpt lat="46.7485" lon="5.19097">
        <ele>205</ele>
        <time>2022-02-14T16:57:19Z</time>
      </trkpt>
      <trkpt lat="46.74845" lon="5.19049">
        <ele>205</ele>
        <time>2022-02-14T16:57:25Z</time>
      </trkpt>
      <trkpt lat="46.74843" lon="5.19001">
        <ele>204</ele>
        <time>2022-02-14T16:57:31Z</time>
      </trkpt>
      <trkpt lat="46.74844" lon="5.18937">
        <ele>203</ele>
        <time>2022-02-14T16:57:39Z</time>
      </trkpt>
      <trkpt lat="46.74851" lon="5.1888">
        <ele>202</ele>
        <time>2022-02-14T16:57:46Z</time>
      </trkpt>
      <trkpt lat="46.74953" lon="5.1829">
        <ele>193</ele>
        <time>2022-02-14T16:59:00Z</time>
      </trkpt>
      <trkpt lat="46.74957" lon="5.18166">
        <ele>190</ele>
        <time>2022-02-14T16:59:15Z</time>
      </trkpt>
      <trkpt lat="46.74956" lon="5.18154">
        <ele>191</ele>
        <time>2022-02-14T16:59:17Z</time>
      </trkpt>
      <trkpt lat="46.74949" lon="5.18002">
        <ele>193</ele>
        <time>2022-02-14T16:59:35Z</time>
      </trkpt>
      <trkpt lat="46.74941" lon="5.17953">
        <ele>195</ele>
        <time>2022-02-14T16:59:42Z</time>
      </trkpt>
      <trkpt lat="46.7491" lon="5.1781">
        <ele>205</ele>
        <time>2022-02-14T17:00:00Z</time>
      </trkpt>
      <trkpt lat="46.749" lon="5.17722">
        <ele>205</ele>
        <time>2022-02-14T17:00:11Z</time>
      </trkpt>
      <trkpt lat="46.74791" lon="5.16405">
        <ele>195</ele>
        <time>2022-02-14T17:02:52Z</time>
      </trkpt>
      <trkpt lat="46.74733" lon="5.15762">
        <ele>202</ele>
        <time>2022-02-14T17:04:11Z</time>
      </trkpt>
      <trkpt lat="46.74675" lon="5.15281">
        <ele>205</ele>
        <time>2022-02-14T17:05:11Z</time>
      </trkpt>
      <trkpt lat="46.7448" lon="5.13756">
        <ele>209</ele>
        <time>2022-02-14T17:08:20Z</time>
      </trkpt>
      <trkpt lat="46.74346" lon="5.12748">
        <ele>209</ele>
        <time>2022-02-14T17:10:25Z</time>
      </trkpt>
      <trkpt lat="46.74341" lon="5.12704">
        <ele>208</ele>
        <time>2022-02-14T17:10:31Z</time>
      </trkpt>
      <trkpt lat="46.74338" lon="5.12655">
        <ele>208</ele>
        <time>2022-02-14T17:10:37Z</time>
      </trkpt>
      <trkpt lat="46.74333" lon="5.1229">
        <ele>209</ele>
        <time>2022-02-14T17:11:21Z</time>
      </trkpt>
      <trkpt lat="46.74331" lon="5.12277">
        <ele>209</ele>
        <time>2022-02-14T17:11:23Z</time>
      </trkpt>
      <trkpt lat="46.74326" lon="5.12266">
        <ele>209</ele>
        <time>2022-02-14T17:11:25Z</time>
      </trkpt>
      <trkpt lat="46.7431" lon="5.12233">
        <ele>209</ele>
        <time>2022-02-14T17:11:29Z</time>
      </trkpt>
      <trkpt lat="46.74322" lon="5.1217">
        <ele>209</ele>
        <time>2022-02-14T17:11:37Z</time>
      </trkpt>
      <trkpt lat="46.74327" lon="5.12141">
        <ele>209</ele>
        <time>2022-02-14T17:11:41Z</time>
      </trkpt>
      <trkpt lat="46.7433" lon="5.12088">
        <ele>210</ele>
        <time>2022-02-14T17:11:48Z</time>
      </trkpt>
      <trkpt lat="46.74329" lon="5.12057">
        <ele>210</ele>
        <time>2022-02-14T17:11:51Z</time>
      </trkpt>
      <trkpt lat="46.74327" lon="5.11909">
        <ele>206</ele>
        <time>2022-02-14T17:12:09Z</time>
      </trkpt>
      <trkpt lat="46.74308" lon="5.10796">
        <ele>207</ele>
        <time>2022-02-14T17:14:25Z</time>
      </trkpt>
      <trkpt lat="46.743" lon="5.10727">
        <ele>205</ele>
        <time>2022-02-14T17:14:34Z</time>
      </trkpt>
      <trkpt lat="46.74202" lon="5.10134">
        <ele>195</ele>
        <time>2022-02-14T17:15:48Z</time>
      </trkpt>
      <trkpt lat="46.74084" lon="5.09421">
        <ele>210</ele>
        <time>2022-02-14T17:17:18Z</time>
      </trkpt>
      <trkpt lat="46.74085" lon="5.09312">
        <ele>209</ele>
        <time>2022-02-14T17:17:31Z</time>
      </trkpt>
      <trkpt lat="46.74091" lon="5.09189">
        <ele>209</ele>
        <time>2022-02-14T17:17:46Z</time>
      </trkpt>
      <trkpt lat="46.74099" lon="5.0908">
        <ele>210</ele>
        <time>2022-02-14T17:17:59Z</time>
      </trkpt>
      <trkpt lat="46.74107" lon="5.09016">
        <ele>209</ele>
        <time>2022-02-14T17:18:07Z</time>
      </trkpt>
      <trkpt lat="46.74139" lon="5.08735">
        <ele>208</ele>
        <time>2022-02-14T17:18:42Z</time>
      </trkpt>
      <trkpt lat="46.74177" lon="5.08411">
        <ele>208</ele>
        <time>2022-02-14T17:19:22Z</time>
      </trkpt>
      <trkpt lat="46.74246" lon="5.07772">
        <ele>210</ele>
        <time>2022-02-14T17:20:41Z</time>
      </trkpt>
      <trkpt lat="46.74325" lon="5.07081">
        <ele>207</ele>
        <time>2022-02-14T17:22:06Z</time>
      </trkpt>
      <trkpt lat="46.74425" lon="5.06586">
        <ele>209</ele>
        <time>2022-02-14T17:23:09Z</time>
      </trkpt>
      <trkpt lat="46.74582" lon="5.05828">
        <ele>208</ele>
        <time>2022-02-14T17:24:46Z</time>
      </trkpt>
      <trkpt lat="46.74781" lon="5.04877">
        <ele>205</ele>
        <time>2022-02-14T17:26:47Z</time>
      </trkpt>
      <trkpt lat="46.74876" lon="5.04459">
        <ele>193</ele>
        <time>2022-02-14T17:27:41Z</time>
      </trkpt>
      <trkpt lat="46.75041" lon="5.03701">
        <ele>206</ele>
        <time>2022-02-14T17:29:18Z</time>
      </trkpt>
      <trkpt lat="46.75205" lon="5.0292">
        <ele>198</ele>
        <time>2022-02-14T17:30:57Z</time>
      </trkpt>
      <trkpt lat="46.75242" lon="5.02733">
        <ele>206</ele>
        <time>2022-02-14T17:31:21Z</time>
      </trkpt>
      <trkpt lat="46.75325" lon="5.0233">
        <ele>208</ele>
        <time>2022-02-14T17:32:12Z</time>
      </trkpt>
      <trkpt lat="46.75531" lon="5.01348">
        <ele>206</ele>
        <time>2022-02-14T17:34:17Z</time>
      </trkpt>
      <trkpt lat="46.75635" lon="5.00843">
        <ele>196</ele>
        <time>2022-02-14T17:35:22Z</time>
      </trkpt>
      <trkpt lat="46.75434" lon="5.00681">
        <ele>192</ele>
        <time>2022-02-14T17:36:03Z</time>
      </trkpt>
      <trkpt lat="46.75392" lon="5.00652">
        <ele>194</ele>
        <time>2022-02-14T17:36:11Z</time>
      </trkpt>
      <trkpt lat="46.75366" lon="5.00642">
        <ele>195</ele>
        <time>2022-02-14T17:36:16Z</time>
      </trkpt>
      <trkpt lat="46.75353" lon="5.00612">
        <ele>195</ele>
        <time>2022-02-14T17:36:20Z</time>
      </trkpt>
      <trkpt lat="46.75352" lon="5.00593">
        <ele>195</ele>
        <time>2022-02-14T17:36:22Z</time>
      </trkpt>
      <trkpt lat="46.75393" lon="5.00557">
        <ele>193</ele>
        <time>2022-02-14T17:36:31Z</time>
      </trkpt>
      <trkpt lat="46.7541" lon="5.00532">
        <ele>193</ele>
        <time>2022-02-14T17:36:35Z</time>
      </trkpt>
      <trkpt lat="46.75429" lon="5.00497">
        <ele>194</ele>
        <time>2022-02-14T17:36:41Z</time>
      </trkpt>
      <trkpt lat="46.75441" lon="5.00479">
        <ele>195</ele>
        <time>2022-02-14T17:36:44Z</time>
      </trkpt>
      <trkpt lat="46.75446" lon="5.00452">
        <ele>196</ele>
        <time>2022-02-14T17:36:47Z</time>
      </trkpt>
      <trkpt lat="46.7545" lon="5.00411">
        <ele>198</ele>
        <time>2022-02-14T17:36:52Z</time>
      </trkpt>
      <trkpt lat="46.75456" lon="5.00396">
        <ele>198</ele>
        <time>2022-02-14T17:36:54Z</time>
      </trkpt>
      <trkpt lat="46.75476" lon="5.00368">
        <ele>199</ele>
        <time>2022-02-14T17:36:59Z</time>
      </trkpt>
      <trkpt lat="46.7534" lon="5.00178">
        <ele>193</ele>
        <time>2022-02-14T17:37:33Z</time>
      </trkpt>
      <trkpt lat="46.75339" lon="5.0016">
        <ele>193</ele>
        <time>2022-02-14T17:37:35Z</time>
      </trkpt>
      <trkpt lat="46.75332" lon="5.00145">
        <ele>193</ele>
        <time>2022-02-14T17:37:37Z</time>
      </trkpt>
      <trkpt lat="46.75307" lon="5.00118">
        <ele>192</ele>
        <time>2022-02-14T17:37:43Z</time>
      </trkpt>
      <trkpt lat="46.75284" lon="5.0006">
        <ele>191</ele>
        <time>2022-02-14T17:37:51Z</time>
      </trkpt>
      <trkpt lat="46.75265" lon="4.99997">
        <ele>192</ele>
        <time>2022-02-14T17:37:59Z</time>
      </trkpt>
      <trkpt lat="46.7526" lon="4.99956">
        <ele>193</ele>
        <time>2022-02-14T17:38:04Z</time>
      </trkpt>
      <trkpt lat="46.75261" lon="4.99911">
        <ele>193</ele>
        <time>2022-02-14T17:38:10Z</time>
      </trkpt>
      <trkpt lat="46.75266" lon="4.99865">
        <ele>193</ele>
        <time>2022-02-14T17:38:15Z</time>
      </trkpt>
      <trkpt lat="46.75267" lon="4.99828">
        <ele>194</ele>
        <time>2022-02-14T17:38:20Z</time>
      </trkpt>
      <trkpt lat="46.75253" lon="4.99627">
        <ele>192</ele>
        <time>2022-02-14T17:38:44Z</time>
      </trkpt>
      <trkpt lat="46.75248" lon="4.99601">
        <ele>192</ele>
        <time>2022-02-14T17:38:48Z</time>
      </trkpt>
      <trkpt lat="46.7524" lon="4.9958">
        <ele>192</ele>
        <time>2022-02-14T17:38:51Z</time>
      </trkpt>
      <trkpt lat="46.75221" lon="4.99556">
        <ele>192</ele>
        <time>2022-02-14T17:38:55Z</time>
      </trkpt>
      <trkpt lat="46.7516" lon="4.9951">
        <ele>191</ele>
        <time>2022-02-14T17:39:07Z</time>
      </trkpt>
      <trkpt lat="46.75153" lon="4.99498">
        <ele>191</ele>
        <time>2022-02-14T17:39:09Z</time>
      </trkpt>
      <trkpt lat="46.75155" lon="4.99473">
        <ele>191</ele>
        <time>2022-02-14T17:39:12Z</time>
      </trkpt>
      <trkpt lat="46.75185" lon="4.99264">
        <ele>189</ele>
        <time>2022-02-14T17:39:38Z</time>
      </trkpt>
      <trkpt lat="46.75208" lon="4.99162">
        <ele>189</ele>
        <time>2022-02-14T17:39:51Z</time>
      </trkpt>
      <trkpt lat="46.75217" lon="4.99116">
        <ele>189</ele>
        <time>2022-02-14T17:39:57Z</time>
      </trkpt>
      <trkpt lat="46.75224" lon="4.99065">
        <ele>188</ele>
        <time>2022-02-14T17:40:04Z</time>
      </trkpt>
      <trkpt lat="46.75236" lon="4.98957">
        <ele>188</ele>
        <time>2022-02-14T17:40:17Z</time>
      </trkpt>
      <trkpt lat="46.75236" lon="4.98939">
        <ele>188</ele>
        <time>2022-02-14T17:40:19Z</time>
      </trkpt>
      <trkpt lat="46.75232" lon="4.98917">
        <ele>188</ele>
        <time>2022-02-14T17:40:22Z</time>
      </trkpt>
      <trkpt lat="46.7522" lon="4.98899">
        <ele>188</ele>
        <time>2022-02-14T17:40:25Z</time>
      </trkpt>
      <trkpt lat="46.75205" lon="4.98889">
        <ele>188</ele>
        <time>2022-02-14T17:40:28Z</time>
      </trkpt>
      <trkpt lat="46.75199" lon="4.98882">
        <ele>188</ele>
        <time>2022-02-14T17:40:29Z</time>
      </trkpt>
      <trkpt lat="46.75188" lon="4.9886">
        <ele>188</ele>
        <time>2022-02-14T17:40:33Z</time>
      </trkpt>
      <trkpt lat="46.75185" lon="4.98825">
        <ele>188</ele>
        <time>2022-02-14T17:40:37Z</time>
      </trkpt>
      <trkpt lat="46.75185" lon="4.98785">
        <ele>189</ele>
        <time>2022-02-14T17:40:42Z</time>
      </trkpt>
      <trkpt lat="46.7519" lon="4.98756">
        <ele>190</ele>
        <time>2022-02-14T17:40:45Z</time>
      </trkpt>
      <trkpt lat="46.75219" lon="4.98651">
        <ele>190</ele>
        <time>2022-02-14T17:40:59Z</time>
      </trkpt>
      <trkpt lat="46.75244" lon="4.98523">
        <ele>190</ele>
        <time>2022-02-14T17:41:16Z</time>
      </trkpt>
      <trkpt lat="46.7525" lon="4.98483">
        <ele>190</ele>
        <time>2022-02-14T17:41:20Z</time>
      </trkpt>
      <trkpt lat="46.75255" lon="4.98425">
        <ele>188</ele>
        <time>2022-02-14T17:41:28Z</time>
      </trkpt>
      <trkpt lat="46.75256" lon="4.98383">
        <ele>188</ele>
        <time>2022-02-14T17:41:33Z</time>
      </trkpt>
      <trkpt lat="46.75256" lon="4.98256">
        <ele>188</ele>
        <time>2022-02-14T17:41:48Z</time>
      </trkpt>
      <trkpt lat="46.75252" lon="4.98152">
        <ele>193</ele>
        <time>2022-02-14T17:42:01Z</time>
      </trkpt>
      <trkpt lat="46.75172" lon="4.97135">
        <ele>191</ele>
        <time>2022-02-14T17:44:06Z</time>
      </trkpt>
      <trkpt lat="46.75166" lon="4.9709">
        <ele>190</ele>
        <time>2022-02-14T17:44:11Z</time>
      </trkpt>
      <trkpt lat="46.75141" lon="4.96969">
        <ele>187</ele>
        <time>2022-02-14T17:44:27Z</time>
      </trkpt>
      <trkpt lat="46.75093" lon="4.96805">
        <ele>184</ele>
        <time>2022-02-14T17:44:48Z</time>
      </trkpt>
      <trkpt lat="46.75085" lon="4.96762">
        <ele>183</ele>
        <time>2022-02-14T17:44:54Z</time>
      </trkpt>
      <trkpt lat="46.75066" lon="4.96577">
        <ele>186</ele>
        <time>2022-02-14T17:45:17Z</time>
      </trkpt>
      <trkpt lat="46.75061" lon="4.96503">
        <ele>187</ele>
        <time>2022-02-14T17:45:26Z</time>
      </trkpt>
      <trkpt lat="46.75058" lon="4.96343">
        <ele>187</ele>
        <time>2022-02-14T17:45:45Z</time>
      </trkpt>
      <trkpt lat="46.75059" lon="4.96278">
        <ele>188</ele>
        <time>2022-02-14T17:45:53Z</time>
      </trkpt>
      <trkpt lat="46.75068" lon="4.96209">
        <ele>191</ele>
        <time>2022-02-14T17:46:02Z</time>
      </trkpt>
      <trkpt lat="46.75083" lon="4.96156">
        <ele>193</ele>
        <time>2022-02-14T17:46:09Z</time>
      </trkpt>
      <trkpt lat="46.75098" lon="4.9612">
        <ele>193</ele>
        <time>2022-02-14T17:46:14Z</time>
      </trkpt>
      <trkpt lat="46.75119" lon="4.96077">
        <ele>194</ele>
        <time>2022-02-14T17:46:20Z</time>
      </trkpt>
      <trkpt lat="46.75144" lon="4.96043">
        <ele>193</ele>
        <time>2022-02-14T17:46:26Z</time>
      </trkpt>
      <trkpt lat="46.75165" lon="4.96022">
        <ele>193</ele>
        <time>2022-02-14T17:46:31Z</time>
      </trkpt>
      <trkpt lat="46.75206" lon="4.95986">
        <ele>192</ele>
        <time>2022-02-14T17:46:39Z</time>
      </trkpt>
      <trkpt lat="46.75402" lon="4.95821">
        <ele>193</ele>
        <time>2022-02-14T17:47:20Z</time>
      </trkpt>
      <trkpt lat="46.75417" lon="4.9581">
        <ele>193</ele>
        <time>2022-02-14T17:47:23Z</time>
      </trkpt>
      <trkpt lat="46.75505" lon="4.95726">
        <ele>195</ele>
        <time>2022-02-14T17:47:41Z</time>
      </trkpt>
      <trkpt lat="46.75545" lon="4.95671">
        <ele>194</ele>
        <time>2022-02-14T17:47:51Z</time>
      </trkpt>
      <trkpt lat="46.75578" lon="4.95612">
        <ele>193</ele>
        <time>2022-02-14T17:48:00Z</time>
      </trkpt>
      <trkpt lat="46.75597" lon="4.9556">
        <ele>193</ele>
        <time>2022-02-14T17:48:08Z</time>
      </trkpt>
      <trkpt lat="46.75615" lon="4.95472">
        <ele>193</ele>
        <time>2022-02-14T17:48:19Z</time>
      </trkpt>
      <trkpt lat="46.75676" lon="4.95298">
        <ele>196</ele>
        <time>2022-02-14T17:48:43Z</time>
      </trkpt>
      <trkpt lat="46.75898" lon="4.94587">
        <ele>196</ele>
        <time>2022-02-14T17:50:18Z</time>
      </trkpt>
      <trkpt lat="46.76242" lon="4.93919">
        <ele>197</ele>
        <time>2022-02-14T17:52:00Z</time>
      </trkpt>
      <trkpt lat="46.76252" lon="4.93885">
        <ele>196</ele>
        <time>2022-02-14T17:52:04Z</time>
      </trkpt>
      <trkpt lat="46.76254" lon="4.93855">
        <ele>195</ele>
        <time>2022-02-14T17:52:08Z</time>
      </trkpt>
      <trkpt lat="46.76234" lon="4.93493">
        <ele>189</ele>
        <time>2022-02-14T17:52:52Z</time>
      </trkpt>
      <trkpt lat="46.76233" lon="4.93423">
        <ele>188</ele>
        <time>2022-02-14T17:53:01Z</time>
      </trkpt>
      <trkpt lat="46.76256" lon="4.93128">
        <ele>187</ele>
        <time>2022-02-14T17:53:37Z</time>
      </trkpt>
      <trkpt lat="46.76262" lon="4.93079">
        <ele>188</ele>
        <time>2022-02-14T17:53:43Z</time>
      </trkpt>
      <trkpt lat="46.76271" lon="4.93052">
        <ele>188</ele>
        <time>2022-02-14T17:53:47Z</time>
      </trkpt>
      <trkpt lat="46.76287" lon="4.93026">
        <ele>188</ele>
        <time>2022-02-14T17:53:51Z</time>
      </trkpt>
      <trkpt lat="46.76389" lon="4.92931">
        <ele>187</ele>
        <time>2022-02-14T17:54:12Z</time>
      </trkpt>
      <trkpt lat="46.76441" lon="4.92894">
        <ele>188</ele>
        <time>2022-02-14T17:54:23Z</time>
      </trkpt>
      <trkpt lat="46.76529" lon="4.92838">
        <ele>186</ele>
        <time>2022-02-14T17:54:40Z</time>
      </trkpt>
      <trkpt lat="46.76555" lon="4.92812">
        <ele>186</ele>
        <time>2022-02-14T17:54:45Z</time>
      </trkpt>
      <trkpt lat="46.7677" lon="4.92565">
        <ele>187</ele>
        <time>2022-02-14T17:55:34Z</time>
      </trkpt>
      <trkpt lat="46.76837" lon="4.92462">
        <ele>185</ele>
        <time>2022-02-14T17:55:51Z</time>
      </trkpt>
      <trkpt lat="46.76846" lon="4.92439">
        <ele>185</ele>
        <time>2022-02-14T17:55:55Z</time>
      </trkpt>
      <trkpt lat="46.76852" lon="4.92409">
        <ele>185</ele>
        <time>2022-02-14T17:55:58Z</time>
      </trkpt>
      <trkpt lat="46.76857" lon="4.92297">
        <ele>183</ele>
        <time>2022-02-14T17:56:12Z</time>
      </trkpt>
      <trkpt lat="46.76863" lon="4.92272">
        <ele>183</ele>
        <time>2022-02-14T17:56:15Z</time>
      </trkpt>
      <trkpt lat="46.76881" lon="4.92228">
        <ele>182</ele>
        <time>2022-02-14T17:56:22Z</time>
      </trkpt>
      <trkpt lat="46.7689" lon="4.92203">
        <ele>182</ele>
        <time>2022-02-14T17:56:25Z</time>
      </trkpt>
      <trkpt lat="46.76905" lon="4.92147">
        <ele>181</ele>
        <time>2022-02-14T17:56:32Z</time>
      </trkpt>
      <trkpt lat="46.76937" lon="4.92064">
        <ele>180</ele>
        <time>2022-02-14T17:56:44Z</time>
      </trkpt>
      <trkpt lat="46.77005" lon="4.91857">
        <ele>180</ele>
        <time>2022-02-14T17:57:12Z</time>
      </trkpt>
      <trkpt lat="46.77039" lon="4.91761">
        <ele>179</ele>
        <time>2022-02-14T17:57:25Z</time>
      </trkpt>
      <trkpt lat="46.77051" lon="4.9172">
        <ele>180</ele>
        <time>2022-02-14T17:57:31Z</time>
      </trkpt>
      <trkpt lat="46.77058" lon="4.91688">
        <ele>180</ele>
        <time>2022-02-14T17:57:35Z</time>
      </trkpt>
      <trkpt lat="46.77065" lon="4.91624">
        <ele>180</ele>
        <time>2022-02-14T17:57:43Z</time>
      </trkpt>
      <trkpt lat="46.77067" lon="4.91596">
        <ele>179</ele>
        <time>2022-02-14T17:57:46Z</time>
      </trkpt>
      <trkpt lat="46.7706" lon="4.91516">
        <ele>179</ele>
        <time>2022-02-14T17:57:56Z</time>
      </trkpt>
      <trkpt lat="46.7706" lon="4.91494">
        <ele>179</ele>
        <time>2022-02-14T17:57:59Z</time>
      </trkpt>
      <trkpt lat="46.77072" lon="4.91244">
        <ele>179</ele>
        <time>2022-02-14T17:58:29Z</time>
      </trkpt>
      <trkpt lat="46.77081" lon="4.91147">
        <ele>178</ele>
        <time>2022-02-14T17:58:41Z</time>
      </trkpt>
      <trkpt lat="46.77099" lon="4.90963">
        <ele>175</ele>
        <time>2022-02-14T17:59:04Z</time>
      </trkpt>
      <trkpt lat="46.77103" lon="4.90936">
        <ele>175</ele>
        <time>2022-02-14T17:59:07Z</time>
      </trkpt>
      <trkpt lat="46.77112" lon="4.90903">
        <ele>176</ele>
        <time>2022-02-14T17:59:11Z</time>
      </trkpt>
      <trkpt lat="46.77247" lon="4.90542">
        <ele>182</ele>
        <time>2022-02-14T18:00:01Z</time>
      </trkpt>
      <trkpt lat="46.77254" lon="4.90519">
        <ele>183</ele>
        <time>2022-02-14T18:00:05Z</time>
      </trkpt>
      <trkpt lat="46.77284" lon="4.90336">
        <ele>182</ele>
        <time>2022-02-14T18:00:27Z</time>
      </trkpt>
      <trkpt lat="46.77329" lon="4.90189">
        <ele>181</ele>
        <time>2022-02-14T18:00:47Z</time>
      </trkpt>
      <trkpt lat="46.77332" lon="4.90171">
        <ele>181</ele>
        <time>2022-02-14T18:00:49Z</time>
      </trkpt>
      <trkpt lat="46.77338" lon="4.90072">
        <ele>179</ele>
        <time>2022-02-14T18:01:01Z</time>
      </trkpt>
      <trkpt lat="46.77342" lon="4.90047">
        <ele>180</ele>
        <time>2022-02-14T18:01:05Z</time>
      </trkpt>
      <trkpt lat="46.77394" lon="4.89843">
        <ele>181</ele>
        <time>2022-02-14T18:01:31Z</time>
      </trkpt>
      <trkpt lat="46.77451" lon="4.89631">
        <ele>181</ele>
        <time>2022-02-14T18:01:59Z</time>
      </trkpt>
      <trkpt lat="46.77458" lon="4.8958">
        <ele>181</ele>
        <time>2022-02-14T18:02:05Z</time>
      </trkpt>
      <trkpt lat="46.77465" lon="4.8944">
        <ele>180</ele>
        <time>2022-02-14T18:02:22Z</time>
      </trkpt>
      <trkpt lat="46.77467" lon="4.89424">
        <ele>180</ele>
        <time>2022-02-14T18:02:24Z</time>
      </trkpt>
      <trkpt lat="46.7747" lon="4.89411">
        <ele>180</ele>
        <time>2022-02-14T18:02:26Z</time>
      </trkpt>
      <trkpt lat="46.77481" lon="4.89383">
        <ele>180</ele>
        <time>2022-02-14T18:02:30Z</time>
      </trkpt>
      <trkpt lat="46.77489" lon="4.89371">
        <ele>180</ele>
        <time>2022-02-14T18:02:32Z</time>
      </trkpt>
      <trkpt lat="46.775" lon="4.89358">
        <ele>180</ele>
        <time>2022-02-14T18:02:34Z</time>
      </trkpt>
      <trkpt lat="46.77456" lon="4.89281">
        <ele>180</ele>
        <time>2022-02-14T18:02:47Z</time>
      </trkpt>
      <trkpt lat="46.77449" lon="4.8926">
        <ele>180</ele>
        <time>2022-02-14T18:02:50Z</time>
      </trkpt>
      <trkpt lat="46.77446" lon="4.89241">
        <ele>180</ele>
        <time>2022-02-14T18:02:52Z</time>
      </trkpt>
      <trkpt lat="46.77446" lon="4.89232">
        <ele>180</ele>
        <time>2022-02-14T18:02:53Z</time>
      </trkpt>
      <trkpt lat="46.77452" lon="4.89207">
        <ele>180</ele>
        <time>2022-02-14T18:02:56Z</time>
      </trkpt>
      <trkpt lat="46.77504" lon="4.89145">
        <ele>179</ele>
        <time>2022-02-14T18:03:08Z</time>
      </trkpt>
      <trkpt lat="46.77521" lon="4.89116">
        <ele>180</ele>
        <time>2022-02-14T18:03:13Z</time>
      </trkpt>
      <trkpt lat="46.77539" lon="4.89075">
        <ele>180</ele>
        <time>2022-02-14T18:03:19Z</time>
      </trkpt>
      <trkpt lat="46.77551" lon="4.89031">
        <ele>180</ele>
        <time>2022-02-14T18:03:25Z</time>
      </trkpt>
      <trkpt lat="46.77593" lon="4.88863">
        <ele>181</ele>
        <time>2022-02-14T18:03:46Z</time>
      </trkpt>
      <trkpt lat="46.77615" lon="4.88697">
        <ele>176</ele>
        <time>2022-02-14T18:04:07Z</time>
      </trkpt>
      <trkpt lat="46.77624" lon="4.88616">
        <ele>175</ele>
        <time>2022-02-14T18:04:17Z</time>
      </trkpt>
      <trkpt lat="46.77627" lon="4.88602">
        <ele>175</ele>
        <time>2022-02-14T18:04:19Z</time>
      </trkpt>
      <trkpt lat="46.77633" lon="4.88598">
        <ele>174</ele>
        <time>2022-02-14T18:04:20Z</time>
      </trkpt>
      <trkpt lat="46.77632" lon="4.88592">
        <ele>174</ele>
        <time>2022-02-14T18:04:21Z</time>
      </trkpt>
      <trkpt lat="46.77628" lon="4.8859">
        <ele>174</ele>
        <time>2022-02-14T18:04:21Z</time>
      </trkpt>
      <trkpt lat="46.77632" lon="4.88547">
        <ele>174</ele>
        <time>2022-02-14T18:04:27Z</time>
      </trkpt>
      <trkpt lat="46.77662" lon="4.88306">
        <ele>174</ele>
        <time>2022-02-14T18:04:57Z</time>
      </trkpt>
      <trkpt lat="46.77704" lon="4.88052">
        <ele>172</ele>
        <time>2022-02-14T18:05:28Z</time>
      </trkpt>
      <trkpt lat="46.77724" lon="4.87893">
        <ele>173</ele>
        <time>2022-02-14T18:05:48Z</time>
      </trkpt>
      <trkpt lat="46.77728" lon="4.87861">
        <ele>174</ele>
        <time>2022-02-14T18:05:52Z</time>
      </trkpt>
      <trkpt lat="46.77729" lon="4.87848">
        <ele>174</ele>
        <time>2022-02-14T18:05:54Z</time>
      </trkpt>
      <trkpt lat="46.77745" lon="4.87807">
        <ele>174</ele>
        <time>2022-02-14T18:05:59Z</time>
      </trkpt>
      <trkpt lat="46.7776" lon="4.87798">
        <ele>174</ele>
        <time>2022-02-14T18:06:02Z</time>
      </trkpt>
      <trkpt lat="46.77772" lon="4.87785">
        <ele>174</ele>
        <time>2022-02-14T18:06:05Z</time>
      </trkpt>
      <trkpt lat="46.77781" lon="4.8776">
        <ele>175</ele>
        <time>2022-02-14T18:06:08Z</time>
      </trkpt>
      <trkpt lat="46.77782" lon="4.87742">
        <ele>174</ele>
        <time>2022-02-14T18:06:11Z</time>
      </trkpt>
      <trkpt lat="46.77778" lon="4.87721">
        <ele>174</ele>
        <time>2022-02-14T18:06:13Z</time>
      </trkpt>
      <trkpt lat="46.77775" lon="4.87714">
        <ele>174</ele>
        <time>2022-02-14T18:06:14Z</time>
      </trkpt>
      <trkpt lat="46.77766" lon="4.87707">
        <ele>174</ele>
        <time>2022-02-14T18:06:16Z</time>
      </trkpt>
      <trkpt lat="46.7776" lon="4.87695">
        <ele>174</ele>
        <time>2022-02-14T18:06:18Z</time>
      </trkpt>
      <trkpt lat="46.77755" lon="4.8768">
        <ele>174</ele>
        <time>2022-02-14T18:06:20Z</time>
      </trkpt>
      <trkpt lat="46.77754" lon="4.87659">
        <ele>174</ele>
        <time>2022-02-14T18:06:22Z</time>
      </trkpt>
      <trkpt lat="46.7776" lon="4.87571">
        <ele>173</ele>
        <time>2022-02-14T18:06:33Z</time>
      </trkpt>
      <trkpt lat="46.77783" lon="4.87378">
        <ele>173</ele>
        <time>2022-02-14T18:06:57Z</time>
      </trkpt>
      <trkpt lat="46.7781" lon="4.87175">
        <ele>175</ele>
        <time>2022-02-14T18:07:22Z</time>
      </trkpt>
      <trkpt lat="46.77804" lon="4.87174">
        <ele>175</ele>
        <time>2022-02-14T18:07:23Z</time>
      </trkpt>
      <trkpt lat="46.77803" lon="4.87172">
        <ele>175</ele>
        <time>2022-02-14T18:07:24Z</time>
      </trkpt>
      <trkpt lat="46.778" lon="4.87171">
        <ele>175</ele>
        <time>2022-02-14T18:07:24Z</time>
      </trkpt>
      <trkpt lat="46.77792" lon="4.87174">
        <ele>175</ele>
        <time>2022-02-14T18:07:26Z</time>
      </trkpt>
      <trkpt lat="46.77784" lon="4.87173">
        <ele>175</ele>
        <time>2022-02-14T18:07:27Z</time>
      </trkpt>
      <trkpt lat="46.77773" lon="4.87167">
        <ele>175</ele>
        <time>2022-02-14T18:07:29Z</time>
      </trkpt>
      <trkpt lat="46.77765" lon="4.87155">
        <ele>174</ele>
        <time>2022-02-14T18:07:31Z</time>
      </trkpt>
      <trkpt lat="46.77757" lon="4.87131">
        <ele>174</ele>
        <time>2022-02-14T18:07:34Z</time>
      </trkpt>
      <trkpt lat="46.77687" lon="4.86874">
        <ele>176</ele>
        <time>2022-02-14T18:08:08Z</time>
      </trkpt>
      <trkpt lat="46.77664" lon="4.86768">
        <ele>177</ele>
        <time>2022-02-14T18:08:22Z</time>
      </trkpt>
      <trkpt lat="46.77652" lon="4.86689">
        <ele>177</ele>
        <time>2022-02-14T18:08:32Z</time>
      </trkpt>
      <trkpt lat="46.77643" lon="4.86598">
        <ele>176</ele>
        <time>2022-02-14T18:08:43Z</time>
      </trkpt>
      <trkpt lat="46.77639" lon="4.86463">
        <ele>177</ele>
        <time>2022-02-14T18:08:59Z</time>
      </trkpt>
      <trkpt lat="46.77641" lon="4.86442">
        <ele>177</ele>
        <time>2022-02-14T18:09:02Z</time>
      </trkpt>
      <trkpt lat="46.77647" lon="4.86431">
        <ele>177</ele>
        <time>2022-02-14T18:09:04Z</time>
      </trkpt>
      <trkpt lat="46.77652" lon="4.86401">
        <ele>176</ele>
        <time>2022-02-14T18:09:07Z</time>
      </trkpt>
      <trkpt lat="46.77647" lon="4.86384">
        <ele>176</ele>
        <time>2022-02-14T18:09:10Z</time>
      </trkpt>
      <trkpt lat="46.77644" lon="4.86356">
        <ele>175</ele>
        <time>2022-02-14T18:09:13Z</time>
      </trkpt>
      <trkpt lat="46.7764" lon="4.86298">
        <ele>174</ele>
        <time>2022-02-14T18:09:20Z</time>
      </trkpt>
      <trkpt lat="46.7764" lon="4.86275">
        <ele>173</ele>
        <time>2022-02-14T18:09:23Z</time>
      </trkpt>
      <trkpt lat="46.77654" lon="4.8597">
        <ele>178</ele>
        <time>2022-02-14T18:10:00Z</time>
      </trkpt>
      <trkpt lat="46.77656" lon="4.8581">
        <ele>179</ele>
        <time>2022-02-14T18:10:20Z</time>
      </trkpt>
      <trkpt lat="46.77653" lon="4.85811">
        <ele>179</ele>
        <time>2022-02-14T18:10:20Z</time>
      </trkpt>
      <trkpt lat="46.77653" lon="4.85799">
        <ele>179</ele>
        <time>2022-02-14T18:10:22Z</time>
      </trkpt>
      <trkpt lat="46.77663" lon="4.8579">
        <ele>179</ele>
        <time>2022-02-14T18:10:24Z</time>
      </trkpt>
      <trkpt lat="46.77668" lon="4.85775">
        <ele>179</ele>
        <time>2022-02-14T18:10:26Z</time>
      </trkpt>
      <trkpt lat="46.77669" lon="4.85767">
        <ele>179</ele>
        <time>2022-02-14T18:10:27Z</time>
      </trkpt>
      <trkpt lat="46.77668" lon="4.85758">
        <ele>179</ele>
        <time>2022-02-14T18:10:28Z</time>
      </trkpt>
      <trkpt lat="46.77665" lon="4.85748">
        <ele>179</ele>
        <time>2022-02-14T18:10:29Z</time>
      </trkpt>
      <trkpt lat="46.7766" lon="4.8574">
        <ele>179</ele>
        <time>2022-02-14T18:10:31Z</time>
      </trkpt>
      <trkpt lat="46.77657" lon="4.8572">
        <ele>179</ele>
        <time>2022-02-14T18:10:33Z</time>
      </trkpt>
      <trkpt lat="46.7766" lon="4.8572">
        <ele>179</ele>
        <time>2022-02-14T18:10:34Z</time>
      </trkpt>
      <trkpt lat="46.77674" lon="4.855">
        <ele>178</ele>
        <time>2022-02-14T18:11:01Z</time>
      </trkpt>
      <trkpt lat="46.77696" lon="4.85413">
        <ele>177</ele>
        <time>2022-02-14T18:11:12Z</time>
      </trkpt>
      <trkpt lat="46.77723" lon="4.85344">
        <ele>175</ele>
        <time>2022-02-14T18:11:22Z</time>
      </trkpt>
      <trkpt lat="46.77812" lon="4.85126">
        <ele>176</ele>
        <time>2022-02-14T18:11:52Z</time>
      </trkpt>
      <trkpt lat="46.77809" lon="4.8512">
        <ele>176</ele>
        <time>2022-02-14T18:11:53Z</time>
      </trkpt>
      <trkpt lat="46.77824" lon="4.85083">
        <ele>179</ele>
        <time>2022-02-14T18:11:59Z</time>
      </trkpt>
      <trkpt lat="46.77837" lon="4.85075">
        <ele>180</ele>
        <time>2022-02-14T18:12:01Z</time>
      </trkpt>
      <trkpt lat="46.7785" lon="4.85061">
        <ele>180</ele>
        <time>2022-02-14T18:12:04Z</time>
      </trkpt>
      <trkpt lat="46.77866" lon="4.85042">
        <ele>180</ele>
        <time>2022-02-14T18:12:08Z</time>
      </trkpt>
      <trkpt lat="46.77909" lon="4.85007">
        <ele>182</ele>
        <time>2022-02-14T18:12:16Z</time>
      </trkpt>
      <trkpt lat="46.77911" lon="4.85014">
        <ele>182</ele>
        <time>2022-02-14T18:12:17Z</time>
      </trkpt>
      <trkpt lat="46.77916" lon="4.85028">
        <ele>182</ele>
        <time>2022-02-14T18:12:19Z</time>
      </trkpt>
      <trkpt lat="46.7817" lon="4.84831">
        <ele>179</ele>
        <time>2022-02-14T18:13:10Z</time>
      </trkpt>
      <trkpt lat="46.78317" lon="4.84717">
        <ele>180</ele>
        <time>2022-02-14T18:13:40Z</time>
      </trkpt>
      <trkpt lat="46.7838" lon="4.84682">
        <ele>182</ele>
        <time>2022-02-14T18:13:52Z</time>
      </trkpt>
      <trkpt lat="46.78404" lon="4.84607">
        <ele>183</ele>
        <time>2022-02-14T18:14:02Z</time>
      </trkpt>
      <trkpt lat="46.78408" lon="4.84592">
        <ele>183</ele>
        <time>2022-02-14T18:14:04Z</time>
      </trkpt>
      <trkpt lat="46.7842" lon="4.84568">
        <ele>183</ele>
        <time>2022-02-14T18:14:08Z</time>
      </trkpt>
      <trkpt lat="46.78454" lon="4.84476">
        <ele>187</ele>
        <time>2022-02-14T18:14:20Z</time>
      </trkpt>
      <trkpt lat="46.78485" lon="4.84371">
        <ele>192</ele>
        <time>2022-02-14T18:14:34Z</time>
      </trkpt>
      <trkpt lat="46.78507" lon="4.84292">
        <ele>191</ele>
        <time>2022-02-14T18:14:45Z</time>
      </trkpt>
      <trkpt lat="46.78518" lon="4.84258">
        <ele>189</ele>
        <time>2022-02-14T18:14:49Z</time>
      </trkpt>
      <trkpt lat="46.78547" lon="4.84182">
        <ele>188</ele>
        <time>2022-02-14T18:15:00Z</time>
      </trkpt>
      <trkpt lat="46.78556" lon="4.84168">
        <ele>188</ele>
        <time>2022-02-14T18:15:02Z</time>
      </trkpt>
      <trkpt lat="46.78591" lon="4.84118">
        <ele>188</ele>
        <time>2022-02-14T18:15:11Z</time>
      </trkpt>
      <trkpt lat="46.78663" lon="4.84029">
        <ele>187</ele>
        <time>2022-02-14T18:15:28Z</time>
      </trkpt>
      <trkpt lat="46.78706" lon="4.83966">
        <ele>187</ele>
        <time>2022-02-14T18:15:39Z</time>
      </trkpt>
      <trkpt lat="46.78783" lon="4.83837">
        <ele>188</ele>
        <time>2022-02-14T18:15:59Z</time>
      </trkpt>
      <trkpt lat="46.78825" lon="4.83754">
        <ele>187</ele>
        <time>2022-02-14T18:16:12Z</time>
      </trkpt>
      <trkpt lat="46.78829" lon="4.83751">
        <ele>187</ele>
        <time>2022-02-14T18:16:13Z</time>
      </trkpt>
      <trkpt lat="46.78834" lon="4.83739">
        <ele>187</ele>
        <time>2022-02-14T18:16:15Z</time>
      </trkpt>
      <trkpt lat="46.78859" lon="4.8368">
        <ele>188</ele>
        <time>2022-02-14T18:16:23Z</time>
      </trkpt>
      <trkpt lat="46.78887" lon="4.83598">
        <ele>188</ele>
        <time>2022-02-14T18:16:34Z</time>
      </trkpt>
      <trkpt lat="46.78885" lon="4.83594">
        <ele>188</ele>
        <time>2022-02-14T18:16:35Z</time>
      </trkpt>
      <trkpt lat="46.78965" lon="4.83354">
        <ele>184</ele>
        <time>2022-02-14T18:17:07Z</time>
      </trkpt>
      <trkpt lat="46.78975" lon="4.8333">
        <ele>183</ele>
        <time>2022-02-14T18:17:11Z</time>
      </trkpt>
      <trkpt lat="46.79016" lon="4.83246">
        <ele>180</ele>
        <time>2022-02-14T18:17:23Z</time>
      </trkpt>
      <trkpt lat="46.79021" lon="4.8325">
        <ele>180</ele>
        <time>2022-02-14T18:17:24Z</time>
      </trkpt>
      <trkpt lat="46.79065" lon="4.8317">
        <ele>177</ele>
        <time>2022-02-14T18:17:37Z</time>
      </trkpt>
      <trkpt lat="46.79121" lon="4.83078">
        <ele>176</ele>
        <time>2022-02-14T18:17:52Z</time>
      </trkpt>
      <trkpt lat="46.79175" lon="4.82972">
        <ele>176</ele>
        <time>2022-02-14T18:18:08Z</time>
      </trkpt>
      <trkpt lat="46.79187" lon="4.82951">
        <ele>176</ele>
        <time>2022-02-14T18:18:11Z</time>
      </trkpt>
      <trkpt lat="46.79188" lon="4.82948">
        <ele>176</ele>
        <time>2022-02-14T18:18:12Z</time>
      </trkpt>
      <trkpt lat="46.79179" lon="4.82938">
        <ele>176</ele>
        <time>2022-02-14T18:18:14Z</time>
      </trkpt>
      <trkpt lat="46.79192" lon="4.82915">
        <ele>176</ele>
        <time>2022-02-14T18:18:17Z</time>
      </trkpt>
      <trkpt lat="46.79269" lon="4.8281">
        <ele>177</ele>
        <time>2022-02-14T18:18:36Z</time>
      </trkpt>
      <trkpt lat="46.79287" lon="4.82766">
        <ele>178</ele>
        <time>2022-02-14T18:18:42Z</time>
      </trkpt>
      <trkpt lat="46.79291" lon="4.82747">
        <ele>179</ele>
        <time>2022-02-14T18:18:45Z</time>
      </trkpt>
      <trkpt lat="46.79291" lon="4.82715">
        <ele>179</ele>
        <time>2022-02-14T18:18:49Z</time>
      </trkpt>
      <trkpt lat="46.7929" lon="4.827">
        <ele>179</ele>
        <time>2022-02-14T18:18:50Z</time>
      </trkpt>
      <trkpt lat="46.79284" lon="4.82682">
        <ele>179</ele>
        <time>2022-02-14T18:18:53Z</time>
      </trkpt>
      <trkpt lat="46.79302" lon="4.82578">
        <ele>180</ele>
        <time>2022-02-14T18:19:06Z</time>
      </trkpt>
      <trkpt lat="46.79335" lon="4.82403">
        <ele>183</ele>
        <time>2022-02-14T18:19:28Z</time>
      </trkpt>
      <trkpt lat="46.79336" lon="4.82393">
        <ele>183</ele>
        <time>2022-02-14T18:19:29Z</time>
      </trkpt>
      <trkpt lat="46.79335" lon="4.82388">
        <ele>183</ele>
        <time>2022-02-14T18:19:30Z</time>
      </trkpt>
      <trkpt lat="46.79375" lon="4.82192">
        <ele>189</ele>
        <time>2022-02-14T18:19:55Z</time>
      </trkpt>
      <trkpt lat="46.79376" lon="4.82175">
        <ele>189</ele>
        <time>2022-02-14T18:19:57Z</time>
      </trkpt>
      <trkpt lat="46.79382" lon="4.82146">
        <ele>190</ele>
        <time>2022-02-14T18:20:01Z</time>
      </trkpt>
      <trkpt lat="46.79387" lon="4.82158">
        <ele>190</ele>
        <time>2022-02-14T18:20:02Z</time>
      </trkpt>
      <trkpt lat="46.79392" lon="4.82163">
        <ele>190</ele>
        <time>2022-02-14T18:20:03Z</time>
      </trkpt>
      <trkpt lat="46.79406" lon="4.82113">
        <ele>190</ele>
        <time>2022-02-14T18:20:10Z</time>
      </trkpt>
      <trkpt lat="46.79421" lon="4.82051">
        <ele>188</ele>
        <time>2022-02-14T18:20:18Z</time>
      </trkpt>
      <trkpt lat="46.79484" lon="4.8173">
        <ele>190</ele>
        <time>2022-02-14T18:20:59Z</time>
      </trkpt>
      <trkpt lat="46.7954" lon="4.81464">
        <ele>191</ele>
        <time>2022-02-14T18:21:33Z</time>
      </trkpt>
      <trkpt lat="46.7953" lon="4.8146">
        <ele>191</ele>
        <time>2022-02-14T18:21:34Z</time>
      </trkpt>
      <trkpt lat="46.7968" lon="4.80723">
        <ele>203</ele>
        <time>2022-02-14T18:23:08Z</time>
      </trkpt>
      <trkpt lat="46.79694" lon="4.80671">
        <ele>204</ele>
        <time>2022-02-14T18:23:15Z</time>
      </trkpt>
      <trkpt lat="46.79706" lon="4.80615">
        <ele>204</ele>
        <time>2022-02-14T18:23:22Z</time>
      </trkpt>
      <trkpt lat="46.79704" lon="4.80606">
        <ele>204</ele>
        <time>2022-02-14T18:23:23Z</time>
      </trkpt>
      <trkpt lat="46.79703" lon="4.80592">
        <ele>204</ele>
        <time>2022-02-14T18:23:25Z</time>
      </trkpt>
      <trkpt lat="46.79701" lon="4.80591">
        <ele>204</ele>
        <time>2022-02-14T18:23:25Z</time>
      </trkpt>
      <trkpt lat="46.79702" lon="4.80583">
        <ele>204</ele>
        <time>2022-02-14T18:23:26Z</time>
      </trkpt>
      <trkpt lat="46.79712" lon="4.80562">
        <ele>204</ele>
        <time>2022-02-14T18:23:29Z</time>
      </trkpt>
      <trkpt lat="46.79715" lon="4.8055">
        <ele>204</ele>
        <time>2022-02-14T18:23:31Z</time>
      </trkpt>
      <trkpt lat="46.79717" lon="4.80514">
        <ele>203</ele>
        <time>2022-02-14T18:23:35Z</time>
      </trkpt>
      <trkpt lat="46.7974" lon="4.80414">
        <ele>203</ele>
        <time>2022-02-14T18:23:48Z</time>
      </trkpt>
      <trkpt lat="46.79756" lon="4.80422">
        <ele>203</ele>
        <time>2022-02-14T18:23:51Z</time>
      </trkpt>
      <trkpt lat="46.79768" lon="4.80374">
        <ele>203</ele>
        <time>2022-02-14T18:23:57Z</time>
      </trkpt>
      <trkpt lat="46.79829" lon="4.80078">
        <ele>203</ele>
        <time>2022-02-14T18:24:35Z</time>
      </trkpt>
      <trkpt lat="46.79833" lon="4.80074">
        <ele>203</ele>
        <time>2022-02-14T18:24:36Z</time>
      </trkpt>
      <trkpt lat="46.79839" lon="4.80059">
        <ele>202</ele>
        <time>2022-02-14T18:24:38Z</time>
      </trkpt>
      <trkpt lat="46.79849" lon="4.80047">
        <ele>202</ele>
        <time>2022-02-14T18:24:40Z</time>
      </trkpt>
      <trkpt lat="46.79853" lon="4.80036">
        <ele>201</ele>
        <time>2022-02-14T18:24:42Z</time>
      </trkpt>
      <trkpt lat="46.79853" lon="4.80026">
        <ele>201</ele>
        <time>2022-02-14T18:24:43Z</time>
      </trkpt>
      <trkpt lat="46.7985" lon="4.80008">
        <ele>201</ele>
        <time>2022-02-14T18:24:45Z</time>
      </trkpt>
      <trkpt lat="46.79852" lon="4.79993">
        <ele>201</ele>
        <time>2022-02-14T18:24:47Z</time>
      </trkpt>
      <trkpt lat="46.79908" lon="4.79729">
        <ele>204</ele>
        <time>2022-02-14T18:25:21Z</time>
      </trkpt>
      <trkpt lat="46.79924" lon="4.79649">
        <ele>203</ele>
        <time>2022-02-14T18:25:31Z</time>
      </trkpt>
      <trkpt lat="46.79918" lon="4.79643">
        <ele>203</ele>
        <time>2022-02-14T18:25:32Z</time>
      </trkpt>
      <trkpt lat="46.7996" lon="4.79425">
        <ele>201</ele>
        <time>2022-02-14T18:26:00Z</time>
      </trkpt>
      <trkpt lat="46.79984" lon="4.79327">
        <ele>203</ele>
        <time>2022-02-14T18:26:13Z</time>
      </trkpt>
      <trkpt lat="46.80027" lon="4.79118">
        <ele>202</ele>
        <time>2022-02-14T18:26:39Z</time>
      </trkpt>
      <trkpt lat="46.80178" lon="4.78404">
        <ele>203</ele>
        <time>2022-02-14T18:28:10Z</time>
      </trkpt>
      <trkpt lat="46.80269" lon="4.77984">
        <ele>197</ele>
        <time>2022-02-14T18:29:04Z</time>
      </trkpt>
      <trkpt lat="46.80354" lon="4.77553">
        <ele>200</ele>
        <time>2022-02-14T18:29:58Z</time>
      </trkpt>
      <trkpt lat="46.80377" lon="4.77473">
        <ele>202</ele>
        <time>2022-02-14T18:30:09Z</time>
      </trkpt>
      <trkpt lat="46.80427" lon="4.77317">
        <ele>208</ele>
        <time>2022-02-14T18:30:30Z</time>
      </trkpt>
      <trkpt lat="46.8046" lon="4.77196">
        <ele>211</ele>
        <time>2022-02-14T18:30:46Z</time>
      </trkpt>
      <trkpt lat="46.80483" lon="4.77127">
        <ele>213</ele>
        <time>2022-02-14T18:30:55Z</time>
      </trkpt>
      <trkpt lat="46.80498" lon="4.7709">
        <ele>215</ele>
        <time>2022-02-14T18:31:00Z</time>
      </trkpt>
      <trkpt lat="46.80511" lon="4.77063">
        <ele>216</ele>
        <time>2022-02-14T18:31:04Z</time>
      </trkpt>
      <trkpt lat="46.80557" lon="4.76979">
        <ele>218</ele>
        <time>2022-02-14T18:31:18Z</time>
      </trkpt>
      <trkpt lat="46.80943" lon="4.76336">
        <ele>202</ele>
        <time>2022-02-14T18:33:02Z</time>
      </trkpt>
      <trkpt lat="46.80949" lon="4.76327">
        <ele>202</ele>
        <time>2022-02-14T18:33:03Z</time>
      </trkpt>
      <trkpt lat="46.81285" lon="4.7577">
        <ele>209</ele>
        <time>2022-02-14T18:34:34Z</time>
      </trkpt>
      <trkpt lat="46.8132" lon="4.75718">
        <ele>210</ele>
        <time>2022-02-14T18:34:43Z</time>
      </trkpt>
      <trkpt lat="46.81372" lon="4.75651">
        <ele>210</ele>
        <time>2022-02-14T18:34:55Z</time>
      </trkpt>
      <trkpt lat="46.81447" lon="4.75549">
        <ele>209</ele>
        <time>2022-02-14T18:35:13Z</time>
      </trkpt>
      <trkpt lat="46.81577" lon="4.75296">
        <ele>207</ele>
        <time>2022-02-14T18:35:52Z</time>
      </trkpt>
      <trkpt lat="46.81616" lon="4.75239">
        <ele>207</ele>
        <time>2022-02-14T18:36:01Z</time>
      </trkpt>
      <trkpt lat="46.81623" lon="4.75237">
        <ele>207</ele>
        <time>2022-02-14T18:36:03Z</time>
      </trkpt>
      <trkpt lat="46.81629" lon="4.75231">
        <ele>207</ele>
        <time>2022-02-14T18:36:04Z</time>
      </trkpt>
      <trkpt lat="46.81634" lon="4.75223">
        <ele>207</ele>
        <time>2022-02-14T18:36:05Z</time>
      </trkpt>
      <trkpt lat="46.81636" lon="4.75209">
        <ele>206</ele>
        <time>2022-02-14T18:36:07Z</time>
      </trkpt>
      <trkpt lat="46.81633" lon="4.75193">
        <ele>206</ele>
        <time>2022-02-14T18:36:09Z</time>
      </trkpt>
      <trkpt lat="46.8163" lon="4.75187">
        <ele>205</ele>
        <time>2022-02-14T18:36:10Z</time>
      </trkpt>
      <trkpt lat="46.81624" lon="4.75181">
        <ele>205</ele>
        <time>2022-02-14T18:36:11Z</time>
      </trkpt>
      <trkpt lat="46.81617" lon="4.75178">
        <ele>205</ele>
        <time>2022-02-14T18:36:13Z</time>
      </trkpt>
      <trkpt lat="46.8161" lon="4.7518">
        <ele>205</ele>
        <time>2022-02-14T18:36:14Z</time>
      </trkpt>
      <trkpt lat="46.81603" lon="4.75185">
        <ele>205</ele>
        <time>2022-02-14T18:36:15Z</time>
      </trkpt>
      <trkpt lat="46.81597" lon="4.75181">
        <ele>205</ele>
        <time>2022-02-14T18:36:16Z</time>
      </trkpt>
      <trkpt lat="46.81578" lon="4.75178">
        <ele>204</ele>
        <time>2022-02-14T18:36:20Z</time>
      </trkpt>
      <trkpt lat="46.81567" lon="4.75182">
        <ele>204</ele>
        <time>2022-02-14T18:36:22Z</time>
      </trkpt>
      <trkpt lat="46.81535" lon="4.75205">
        <ele>205</ele>
        <time>2022-02-14T18:36:28Z</time>
      </trkpt>
      <trkpt lat="46.81485" lon="4.75219">
        <ele>205</ele>
        <time>2022-02-14T18:36:37Z</time>
      </trkpt>
      <trkpt lat="46.81475" lon="4.75198">
        <ele>205</ele>
        <time>2022-02-14T18:36:40Z</time>
      </trkpt>
      <trkpt lat="46.81478" lon="4.75152">
        <ele>204</ele>
        <time>2022-02-14T18:36:46Z</time>
      </trkpt>
      <trkpt lat="46.81479" lon="4.75068">
        <ele>202</ele>
        <time>2022-02-14T18:36:56Z</time>
      </trkpt>
      <trkpt lat="46.81479" lon="4.75053">
        <ele>203</ele>
        <time>2022-02-14T18:36:58Z</time>
      </trkpt>
      <trkpt lat="46.81481" lon="4.74978">
        <ele>204</ele>
        <time>2022-02-14T18:37:07Z</time>
      </trkpt>
      <trkpt lat="46.81484" lon="4.7496">
        <ele>204</ele>
        <time>2022-02-14T18:37:09Z</time>
      </trkpt>
      <trkpt lat="46.81524" lon="4.74841">
        <ele>205</ele>
        <time>2022-02-14T18:37:26Z</time>
      </trkpt>
      <trkpt lat="46.81559" lon="4.74699">
        <ele>205</ele>
        <time>2022-02-14T18:37:44Z</time>
      </trkpt>
      <trkpt lat="46.81617" lon="4.74445">
        <ele>207</ele>
        <time>2022-02-14T18:38:17Z</time>
      </trkpt>
      <trkpt lat="46.81631" lon="4.74356">
        <ele>209</ele>
        <time>2022-02-14T18:38:28Z</time>
      </trkpt>
      <trkpt lat="46.81655" lon="4.7415">
        <ele>216</ele>
        <time>2022-02-14T18:38:53Z</time>
      </trkpt>
      <trkpt lat="46.81655" lon="4.74098">
        <ele>217</ele>
        <time>2022-02-14T18:38:59Z</time>
      </trkpt>
      <trkpt lat="46.81642" lon="4.74004">
        <ele>218</ele>
        <time>2022-02-14T18:39:11Z</time>
      </trkpt>
      <trkpt lat="46.8162" lon="4.73865">
        <ele>218</ele>
        <time>2022-02-14T18:39:28Z</time>
      </trkpt>
      <trkpt lat="46.81597" lon="4.73794">
        <ele>216</ele>
        <time>2022-02-14T18:39:38Z</time>
      </trkpt>
      <trkpt lat="46.81573" lon="4.7373">
        <ele>214</ele>
        <time>2022-02-14T18:39:47Z</time>
      </trkpt>
      <trkpt lat="46.81549" lon="4.73682">
        <ele>212</ele>
        <time>2022-02-14T18:39:54Z</time>
      </trkpt>
      <trkpt lat="46.81519" lon="4.73638">
        <ele>209</ele>
        <time>2022-02-14T18:40:02Z</time>
      </trkpt>
      <trkpt lat="46.81459" lon="4.73576">
        <ele>207</ele>
        <time>2022-02-14T18:40:15Z</time>
      </trkpt>
      <trkpt lat="46.81378" lon="4.73497">
        <ele>206</ele>
        <time>2022-02-14T18:40:32Z</time>
      </trkpt>
      <trkpt lat="46.8137" lon="4.73488">
        <ele>206</ele>
        <time>2022-02-14T18:40:34Z</time>
      </trkpt>
      <trkpt lat="46.8135" lon="4.73468">
        <ele>207</ele>
        <time>2022-02-14T18:40:38Z</time>
      </trkpt>
      <trkpt lat="46.8132" lon="4.73429">
        <ele>208</ele>
        <time>2022-02-14T18:40:45Z</time>
      </trkpt>
      <trkpt lat="46.81302" lon="4.73401">
        <ele>210</ele>
        <time>2022-02-14T18:40:50Z</time>
      </trkpt>
      <trkpt lat="46.81294" lon="4.73384">
        <ele>211</ele>
        <time>2022-02-14T18:40:53Z</time>
      </trkpt>
      <trkpt lat="46.81289" lon="4.73371">
        <ele>211</ele>
        <time>2022-02-14T18:40:54Z</time>
      </trkpt>
      <trkpt lat="46.81276" lon="4.73319">
        <ele>214</ele>
        <time>2022-02-14T18:41:01Z</time>
      </trkpt>
      <trkpt lat="46.81196" lon="4.73114">
        <ele>215</ele>
        <time>2022-02-14T18:41:30Z</time>
      </trkpt>
      <trkpt lat="46.81187" lon="4.73084">
        <ele>215</ele>
        <time>2022-02-14T18:41:34Z</time>
      </trkpt>
      <trkpt lat="46.81176" lon="4.73004">
        <ele>215</ele>
        <time>2022-02-14T18:41:44Z</time>
      </trkpt>
      <trkpt lat="46.8116" lon="4.72873">
        <ele>213</ele>
        <time>2022-02-14T18:42:00Z</time>
      </trkpt>
      <trkpt lat="46.81156" lon="4.72858">
        <ele>213</ele>
        <time>2022-02-14T18:42:02Z</time>
      </trkpt>
      <trkpt lat="46.8115" lon="4.72844">
        <ele>213</ele>
        <time>2022-02-14T18:42:04Z</time>
      </trkpt>
      <trkpt lat="46.81143" lon="4.72834">
        <ele>213</ele>
        <time>2022-02-14T18:42:06Z</time>
      </trkpt>
      <trkpt lat="46.81086" lon="4.72781">
        <ele>213</ele>
        <time>2022-02-14T18:42:18Z</time>
      </trkpt>
      <trkpt lat="46.81075" lon="4.72767">
        <ele>214</ele>
        <time>2022-02-14T18:42:20Z</time>
      </trkpt>
      <trkpt lat="46.81071" lon="4.72754">
        <ele>214</ele>
        <time>2022-02-14T18:42:22Z</time>
      </trkpt>
      <trkpt lat="46.81067" lon="4.72718">
        <ele>214</ele>
        <time>2022-02-14T18:42:26Z</time>
      </trkpt>
      <trkpt lat="46.81067" lon="4.7259">
        <ele>214</ele>
        <time>2022-02-14T18:42:42Z</time>
      </trkpt>
      <trkpt lat="46.81063" lon="4.72415">
        <ele>216</ele>
        <time>2022-02-14T18:43:03Z</time>
      </trkpt>
      <trkpt lat="46.81069" lon="4.72383">
        <ele>216</ele>
        <time>2022-02-14T18:43:07Z</time>
      </trkpt>
      <trkpt lat="46.81093" lon="4.72288">
        <ele>218</ele>
        <time>2022-02-14T18:43:20Z</time>
      </trkpt>
      <trkpt lat="46.811" lon="4.72254">
        <ele>219</ele>
        <time>2022-02-14T18:43:24Z</time>
      </trkpt>
      <trkpt lat="46.81103" lon="4.72224">
        <ele>219</ele>
        <time>2022-02-14T18:43:28Z</time>
      </trkpt>
      <trkpt lat="46.81104" lon="4.72183">
        <ele>219</ele>
        <time>2022-02-14T18:43:33Z</time>
      </trkpt>
      <trkpt lat="46.81099" lon="4.72052">
        <ele>219</ele>
        <time>2022-02-14T18:43:49Z</time>
      </trkpt>
      <trkpt lat="46.81093" lon="4.71982">
        <ele>218</ele>
        <time>2022-02-14T18:43:57Z</time>
      </trkpt>
      <trkpt lat="46.81047" lon="4.71696">
        <ele>225</ele>
        <time>2022-02-14T18:44:33Z</time>
      </trkpt>
      <trkpt lat="46.81027" lon="4.7162">
        <ele>226</ele>
        <time>2022-02-14T18:44:43Z</time>
      </trkpt>
      <trkpt lat="46.81021" lon="4.71592">
        <ele>226</ele>
        <time>2022-02-14T18:44:47Z</time>
      </trkpt>
      <trkpt lat="46.81003" lon="4.71437">
        <ele>223</ele>
        <time>2022-02-14T18:45:06Z</time>
      </trkpt>
      <trkpt lat="46.80987" lon="4.714">
        <ele>224</ele>
        <time>2022-02-14T18:45:11Z</time>
      </trkpt>
      <trkpt lat="46.80936" lon="4.71325">
        <ele>222</ele>
        <time>2022-02-14T18:45:24Z</time>
      </trkpt>
      <trkpt lat="46.80887" lon="4.71265">
        <ele>225</ele>
        <time>2022-02-14T18:45:35Z</time>
      </trkpt>
      <trkpt lat="46.80892" lon="4.71248">
        <ele>225</ele>
        <time>2022-02-14T18:45:38Z</time>
      </trkpt>
      <trkpt lat="46.80894" lon="4.71227">
        <ele>225</ele>
        <time>2022-02-14T18:45:40Z</time>
      </trkpt>
      <trkpt lat="46.80883" lon="4.71172">
        <ele>223</ele>
        <time>2022-02-14T18:45:47Z</time>
      </trkpt>
      <trkpt lat="46.80882" lon="4.71157">
        <ele>223</ele>
        <time>2022-02-14T18:45:49Z</time>
      </trkpt>
      <trkpt lat="46.80873" lon="4.70991">
        <ele>223</ele>
        <time>2022-02-14T18:46:09Z</time>
      </trkpt>
      <trkpt lat="46.80875" lon="4.70954">
        <ele>225</ele>
        <time>2022-02-14T18:46:14Z</time>
      </trkpt>
      <trkpt lat="46.80884" lon="4.70905">
        <ele>227</ele>
        <time>2022-02-14T18:46:20Z</time>
      </trkpt>
      <trkpt lat="46.80902" lon="4.70826">
        <ele>229</ele>
        <time>2022-02-14T18:46:30Z</time>
      </trkpt>
      <trkpt lat="46.80922" lon="4.70762">
        <ele>229</ele>
        <time>2022-02-14T18:46:39Z</time>
      </trkpt>
      <trkpt lat="46.80925" lon="4.70744">
        <ele>229</ele>
        <time>2022-02-14T18:46:41Z</time>
      </trkpt>
      <trkpt lat="46.80923" lon="4.70617">
        <ele>230</ele>
        <time>2022-02-14T18:46:56Z</time>
      </trkpt>
      <trkpt lat="46.80925" lon="4.70601">
        <ele>230</ele>
        <time>2022-02-14T18:46:58Z</time>
      </trkpt>
      <trkpt lat="46.8093" lon="4.70584">
        <ele>230</ele>
        <time>2022-02-14T18:47:01Z</time>
      </trkpt>
      <trkpt lat="46.80969" lon="4.7048">
        <ele>232</ele>
        <time>2022-02-14T18:47:15Z</time>
      </trkpt>
      <trkpt lat="46.80972" lon="4.70469">
        <ele>232</ele>
        <time>2022-02-14T18:47:17Z</time>
      </trkpt>
      <trkpt lat="46.80972" lon="4.70462">
        <ele>232</ele>
        <time>2022-02-14T18:47:17Z</time>
      </trkpt>
      <trkpt lat="46.80968" lon="4.70444">
        <ele>232</ele>
        <time>2022-02-14T18:47:20Z</time>
      </trkpt>
      <trkpt lat="46.80955" lon="4.70401">
        <ele>232</ele>
        <time>2022-02-14T18:47:25Z</time>
      </trkpt>
      <trkpt lat="46.80949" lon="4.7037">
        <ele>232</ele>
        <time>2022-02-14T18:47:29Z</time>
      </trkpt>
      <trkpt lat="46.80948" lon="4.70335">
        <ele>232</ele>
        <time>2022-02-14T18:47:34Z</time>
      </trkpt>
      <trkpt lat="46.80961" lon="4.70249">
        <ele>234</ele>
        <time>2022-02-14T18:47:44Z</time>
      </trkpt>
      <trkpt lat="46.80988" lon="4.70123">
        <ele>236</ele>
        <time>2022-02-14T18:48:00Z</time>
      </trkpt>
      <trkpt lat="46.80989" lon="4.70113">
        <ele>236</ele>
        <time>2022-02-14T18:48:02Z</time>
      </trkpt>
      <trkpt lat="46.80988" lon="4.70105">
        <ele>236</ele>
        <time>2022-02-14T18:48:03Z</time>
      </trkpt>
      <trkpt lat="46.80983" lon="4.70099">
        <ele>236</ele>
        <time>2022-02-14T18:48:04Z</time>
      </trkpt>
      <trkpt lat="46.80957" lon="4.70077">
        <ele>237</ele>
        <time>2022-02-14T18:48:09Z</time>
      </trkpt>
      <trkpt lat="46.80931" lon="4.70058">
        <ele>237</ele>
        <time>2022-02-14T18:48:14Z</time>
      </trkpt>
      <trkpt lat="46.80925" lon="4.70051">
        <ele>238</ele>
        <time>2022-02-14T18:48:16Z</time>
      </trkpt>
      <trkpt lat="46.80916" lon="4.70017">
        <ele>239</ele>
        <time>2022-02-14T18:48:20Z</time>
      </trkpt>
      <trkpt lat="46.80911" lon="4.69979">
        <ele>239</ele>
        <time>2022-02-14T18:48:25Z</time>
      </trkpt>
      <trkpt lat="46.80881" lon="4.69814">
        <ele>244</ele>
        <time>2022-02-14T18:48:46Z</time>
      </trkpt>
      <trkpt lat="46.80885" lon="4.6981">
        <ele>244</ele>
        <time>2022-02-14T18:48:46Z</time>
      </trkpt>
      <trkpt lat="46.80887" lon="4.69796">
        <ele>245</ele>
        <time>2022-02-14T18:48:48Z</time>
      </trkpt>
      <trkpt lat="46.80888" lon="4.69752">
        <ele>246</ele>
        <time>2022-02-14T18:48:54Z</time>
      </trkpt>
      <trkpt lat="46.8092" lon="4.69693">
        <ele>247</ele>
        <time>2022-02-14T18:49:03Z</time>
      </trkpt>
      <trkpt lat="46.80939" lon="4.69649">
        <ele>249</ele>
        <time>2022-02-14T18:49:09Z</time>
      </trkpt>
      <trkpt lat="46.80953" lon="4.69633">
        <ele>250</ele>
        <time>2022-02-14T18:49:12Z</time>
      </trkpt>
      <trkpt lat="46.81056" lon="4.69583">
        <ele>255</ele>
        <time>2022-02-14T18:49:32Z</time>
      </trkpt>
      <trkpt lat="46.81125" lon="4.69545">
        <ele>261</ele>
        <time>2022-02-14T18:49:45Z</time>
      </trkpt>
      <trkpt lat="46.81138" lon="4.69529">
        <ele>262</ele>
        <time>2022-02-14T18:49:48Z</time>
      </trkpt>
      <trkpt lat="46.81144" lon="4.69517">
        <ele>264</ele>
        <time>2022-02-14T18:49:49Z</time>
      </trkpt>
      <trkpt lat="46.81144" lon="4.69495">
        <ele>265</ele>
        <time>2022-02-14T18:49:52Z</time>
      </trkpt>
      <trkpt lat="46.81139" lon="4.69469">
        <ele>266</ele>
        <time>2022-02-14T18:49:55Z</time>
      </trkpt>
      <trkpt lat="46.81072" lon="4.69269">
        <ele>275</ele>
        <time>2022-02-14T18:50:23Z</time>
      </trkpt>
      <trkpt lat="46.8106" lon="4.69239">
        <ele>277</ele>
        <time>2022-02-14T18:50:27Z</time>
      </trkpt>
      <trkpt lat="46.80948" lon="4.69074">
        <ele>289</ele>
        <time>2022-02-14T18:50:55Z</time>
      </trkpt>
      <trkpt lat="46.80941" lon="4.69057">
        <ele>290</ele>
        <time>2022-02-14T18:50:58Z</time>
      </trkpt>
      <trkpt lat="46.8094" lon="4.69045">
        <ele>290</ele>
        <time>2022-02-14T18:50:59Z</time>
      </trkpt>
      <trkpt lat="46.80941" lon="4.69031">
        <ele>291</ele>
        <time>2022-02-14T18:51:01Z</time>
      </trkpt>
      <trkpt lat="46.80948" lon="4.69018">
        <ele>293</ele>
        <time>2022-02-14T18:51:03Z</time>
      </trkpt>
      <trkpt lat="46.80995" lon="4.68985">
        <ele>294</ele>
        <time>2022-02-14T18:51:12Z</time>
      </trkpt>
      <trkpt lat="46.81009" lon="4.68978">
        <ele>294</ele>
        <time>2022-02-14T18:51:15Z</time>
      </trkpt>
      <trkpt lat="46.81053" lon="4.68969">
        <ele>299</ele>
        <time>2022-02-14T18:51:23Z</time>
      </trkpt>
      <trkpt lat="46.81064" lon="4.68963">
        <ele>301</ele>
        <time>2022-02-14T18:51:25Z</time>
      </trkpt>
      <trkpt lat="46.81076" lon="4.68953">
        <ele>302</ele>
        <time>2022-02-14T18:51:27Z</time>
      </trkpt>
      <trkpt lat="46.81088" lon="4.68937">
        <ele>302</ele>
        <time>2022-02-14T18:51:30Z</time>
      </trkpt>
      <trkpt lat="46.81095" lon="4.68923">
        <ele>303</ele>
        <time>2022-02-14T18:51:32Z</time>
      </trkpt>
      <trkpt lat="46.811" lon="4.68905">
        <ele>302</ele>
        <time>2022-02-14T18:51:34Z</time>
      </trkpt>
      <trkpt lat="46.81107" lon="4.68859">
        <ele>300</ele>
        <time>2022-02-14T18:51:40Z</time>
      </trkpt>
      <trkpt lat="46.81111" lon="4.68841">
        <ele>300</ele>
        <time>2022-02-14T18:51:42Z</time>
      </trkpt>
      <trkpt lat="46.81118" lon="4.68825">
        <ele>300</ele>
        <time>2022-02-14T18:51:45Z</time>
      </trkpt>
      <trkpt lat="46.81125" lon="4.68816">
        <ele>300</ele>
        <time>2022-02-14T18:51:46Z</time>
      </trkpt>
      <trkpt lat="46.81135" lon="4.68809">
        <ele>302</ele>
        <time>2022-02-14T18:51:48Z</time>
      </trkpt>
      <trkpt lat="46.81174" lon="4.68792">
        <ele>307</ele>
        <time>2022-02-14T18:51:56Z</time>
      </trkpt>
      <trkpt lat="46.81198" lon="4.68775">
        <ele>310</ele>
        <time>2022-02-14T18:52:00Z</time>
      </trkpt>
      <trkpt lat="46.81249" lon="4.68724">
        <ele>314</ele>
        <time>2022-02-14T18:52:11Z</time>
      </trkpt>
      <trkpt lat="46.81264" lon="4.68706">
        <ele>315</ele>
        <time>2022-02-14T18:52:15Z</time>
      </trkpt>
      <trkpt lat="46.81274" lon="4.68687">
        <ele>314</ele>
        <time>2022-02-14T18:52:18Z</time>
      </trkpt>
      <trkpt lat="46.81283" lon="4.68665">
        <ele>314</ele>
        <time>2022-02-14T18:52:21Z</time>
      </trkpt>
      <trkpt lat="46.81287" lon="4.68645">
        <ele>315</ele>
        <time>2022-02-14T18:52:23Z</time>
      </trkpt>
      <trkpt lat="46.81289" lon="4.68627">
        <ele>316</ele>
        <time>2022-02-14T18:52:26Z</time>
      </trkpt>
      <trkpt lat="46.81289" lon="4.68606">
        <ele>317</ele>
        <time>2022-02-14T18:52:28Z</time>
      </trkpt>
      <trkpt lat="46.81287" lon="4.68586">
        <ele>318</ele>
        <time>2022-02-14T18:52:31Z</time>
      </trkpt>
      <trkpt lat="46.81281" lon="4.68564">
        <ele>318</ele>
        <time>2022-02-14T18:52:34Z</time>
      </trkpt>
      <trkpt lat="46.81273" lon="4.6849">
        <ele>321</ele>
        <time>2022-02-14T18:52:43Z</time>
      </trkpt>
      <trkpt lat="46.81259" lon="4.68407">
        <ele>323</ele>
        <time>2022-02-14T18:52:53Z</time>
      </trkpt>
      <trkpt lat="46.81258" lon="4.68388">
        <ele>323</ele>
        <time>2022-02-14T18:52:55Z</time>
      </trkpt>
      <trkpt lat="46.81265" lon="4.68325">
        <ele>325</ele>
        <time>2022-02-14T18:53:03Z</time>
      </trkpt>
      <trkpt lat="46.81268" lon="4.68289">
        <ele>328</ele>
        <time>2022-02-14T18:53:08Z</time>
      </trkpt>
      <trkpt lat="46.81268" lon="4.68263">
        <ele>330</ele>
        <time>2022-02-14T18:53:11Z</time>
      </trkpt>
      <trkpt lat="46.81258" lon="4.6824">
        <ele>332</ele>
        <time>2022-02-14T18:53:14Z</time>
      </trkpt>
      <trkpt lat="46.81243" lon="4.68216">
        <ele>334</ele>
        <time>2022-02-14T18:53:18Z</time>
      </trkpt>
      <trkpt lat="46.81222" lon="4.68192">
        <ele>334</ele>
        <time>2022-02-14T18:53:23Z</time>
      </trkpt>
      <trkpt lat="46.81195" lon="4.68152">
        <ele>336</ele>
        <time>2022-02-14T18:53:30Z</time>
      </trkpt>
      <trkpt lat="46.81108" lon="4.67988">
        <ele>348</ele>
        <time>2022-02-14T18:53:55Z</time>
      </trkpt>
      <trkpt lat="46.81079" lon="4.67929">
        <ele>352</ele>
        <time>2022-02-14T18:54:04Z</time>
      </trkpt>
      <trkpt lat="46.81068" lon="4.67914">
        <ele>352</ele>
        <time>2022-02-14T18:54:06Z</time>
      </trkpt>
      <trkpt lat="46.81037" lon="4.67881">
        <ele>348</ele>
        <time>2022-02-14T18:54:13Z</time>
      </trkpt>
      <trkpt lat="46.81029" lon="4.67865">
        <ele>348</ele>
        <time>2022-02-14T18:54:16Z</time>
      </trkpt>
      <trkpt lat="46.81023" lon="4.67842">
        <ele>351</ele>
        <time>2022-02-14T18:54:19Z</time>
      </trkpt>
      <trkpt lat="46.8102" lon="4.67822">
        <ele>352</ele>
        <time>2022-02-14T18:54:21Z</time>
      </trkpt>
      <trkpt lat="46.81017" lon="4.67781">
        <ele>352</ele>
        <time>2022-02-14T18:54:26Z</time>
      </trkpt>
      <trkpt lat="46.81018" lon="4.67764">
        <ele>353</ele>
        <time>2022-02-14T18:54:28Z</time>
      </trkpt>
      <trkpt lat="46.81022" lon="4.67739">
        <ele>354</ele>
        <time>2022-02-14T18:54:31Z</time>
      </trkpt>
      <trkpt lat="46.81029" lon="4.67716">
        <ele>355</ele>
        <time>2022-02-14T18:54:34Z</time>
      </trkpt>
      <trkpt lat="46.81098" lon="4.67534">
        <ele>364</ele>
        <time>2022-02-14T18:55:00Z</time>
      </trkpt>
      <trkpt lat="46.81118" lon="4.67484">
        <ele>367</ele>
        <time>2022-02-14T18:55:07Z</time>
      </trkpt>
      <trkpt lat="46.81131" lon="4.67456">
        <ele>368</ele>
        <time>2022-02-14T18:55:11Z</time>
      </trkpt>
      <trkpt lat="46.8118" lon="4.67373">
        <ele>373</ele>
        <time>2022-02-14T18:55:24Z</time>
      </trkpt>
      <trkpt lat="46.81206" lon="4.6734">
        <ele>375</ele>
        <time>2022-02-14T18:55:30Z</time>
      </trkpt>
      <trkpt lat="46.81284" lon="4.67255">
        <ele>383</ele>
        <time>2022-02-14T18:55:48Z</time>
      </trkpt>
      <trkpt lat="46.81304" lon="4.67221">
        <ele>383</ele>
        <time>2022-02-14T18:55:53Z</time>
      </trkpt>
      <trkpt lat="46.81332" lon="4.67181">
        <ele>384</ele>
        <time>2022-02-14T18:56:00Z</time>
      </trkpt>
      <trkpt lat="46.81345" lon="4.67166">
        <ele>384</ele>
        <time>2022-02-14T18:56:03Z</time>
      </trkpt>
      <trkpt lat="46.8136" lon="4.67155">
        <ele>384</ele>
        <time>2022-02-14T18:56:06Z</time>
      </trkpt>
      <trkpt lat="46.81392" lon="4.67145">
        <ele>387</ele>
        <time>2022-02-14T18:56:12Z</time>
      </trkpt>
      <trkpt lat="46.81455" lon="4.67147">
        <ele>393</ele>
        <time>2022-02-14T18:56:23Z</time>
      </trkpt>
      <trkpt lat="46.81497" lon="4.67156">
        <ele>395</ele>
        <time>2022-02-14T18:56:31Z</time>
      </trkpt>
      <trkpt lat="46.81522" lon="4.67163">
        <ele>396</ele>
        <time>2022-02-14T18:56:35Z</time>
      </trkpt>
      <trkpt lat="46.81623" lon="4.67239">
        <ele>404</ele>
        <time>2022-02-14T18:56:55Z</time>
      </trkpt>
      <trkpt lat="46.81649" lon="4.67235">
        <ele>404</ele>
        <time>2022-02-14T18:57:00Z</time>
      </trkpt>
      <trkpt lat="46.81727" lon="4.67195">
        <ele>409</ele>
        <time>2022-02-14T18:57:15Z</time>
      </trkpt>
      <trkpt lat="46.81769" lon="4.67167">
        <ele>410</ele>
        <time>2022-02-14T18:57:23Z</time>
      </trkpt>
      <trkpt lat="46.81803" lon="4.6714">
        <ele>410</ele>
        <time>2022-02-14T18:57:30Z</time>
      </trkpt>
      <trkpt lat="46.8182" lon="4.67119">
        <ele>410</ele>
        <time>2022-02-14T18:57:34Z</time>
      </trkpt>
      <trkpt lat="46.81825" lon="4.67099">
        <ele>411</ele>
        <time>2022-02-14T18:57:36Z</time>
      </trkpt>
      <trkpt lat="46.81824" lon="4.67077">
        <ele>412</ele>
        <time>2022-02-14T18:57:39Z</time>
      </trkpt>
      <trkpt lat="46.81814" lon="4.67048">
        <ele>415</ele>
        <time>2022-02-14T18:57:43Z</time>
      </trkpt>
      <trkpt lat="46.81736" lon="4.66906">
        <ele>425</ele>
        <time>2022-02-14T18:58:05Z</time>
      </trkpt>
      <trkpt lat="46.81717" lon="4.66868">
        <ele>427</ele>
        <time>2022-02-14T18:58:11Z</time>
      </trkpt>
      <trkpt lat="46.81708" lon="4.66832">
        <ele>430</ele>
        <time>2022-02-14T18:58:16Z</time>
      </trkpt>
      <trkpt lat="46.81696" lon="4.66734">
        <ele>434</ele>
        <time>2022-02-14T18:58:28Z</time>
      </trkpt>
      <trkpt lat="46.81697" lon="4.66688">
        <ele>435</ele>
        <time>2022-02-14T18:58:33Z</time>
      </trkpt>
      <trkpt lat="46.81704" lon="4.66644">
        <ele>437</ele>
        <time>2022-02-14T18:58:39Z</time>
      </trkpt>
      <trkpt lat="46.81711" lon="4.6662">
        <ele>439</ele>
        <time>2022-02-14T18:58:42Z</time>
      </trkpt>
      <trkpt lat="46.81717" lon="4.66608">
        <ele>440</ele>
        <time>2022-02-14T18:58:44Z</time>
      </trkpt>
      <trkpt lat="46.81726" lon="4.66596">
        <ele>440</ele>
        <time>2022-02-14T18:58:46Z</time>
      </trkpt>
      <trkpt lat="46.81737" lon="4.66587">
        <ele>441</ele>
        <time>2022-02-14T18:58:48Z</time>
      </trkpt>
      <trkpt lat="46.81769" lon="4.6657">
        <ele>443</ele>
        <time>2022-02-14T18:58:54Z</time>
      </trkpt>
      <trkpt lat="46.81804" lon="4.66556">
        <ele>445</ele>
        <time>2022-02-14T18:59:01Z</time>
      </trkpt>
      <trkpt lat="46.81864" lon="4.66527">
        <ele>447</ele>
        <time>2022-02-14T18:59:12Z</time>
      </trkpt>
      <trkpt lat="46.82002" lon="4.66439">
        <ele>453</ele>
        <time>2022-02-14T18:59:39Z</time>
      </trkpt>
      <trkpt lat="46.82037" lon="4.66412">
        <ele>455</ele>
        <time>2022-02-14T18:59:46Z</time>
      </trkpt>
      <trkpt lat="46.82051" lon="4.66404">
        <ele>455</ele>
        <time>2022-02-14T18:59:49Z</time>
      </trkpt>
      <trkpt lat="46.82066" lon="4.66401">
        <ele>455</ele>
        <time>2022-02-14T18:59:51Z</time>
      </trkpt>
      <trkpt lat="46.82097" lon="4.66401">
        <ele>453</ele>
        <time>2022-02-14T18:59:57Z</time>
      </trkpt>
      <trkpt lat="46.82119" lon="4.66398">
        <ele>452</ele>
        <time>2022-02-14T19:00:01Z</time>
      </trkpt>
      <trkpt lat="46.82134" lon="4.6639">
        <ele>452</ele>
        <time>2022-02-14T19:00:04Z</time>
      </trkpt>
      <trkpt lat="46.82162" lon="4.66369">
        <ele>454</ele>
        <time>2022-02-14T19:00:09Z</time>
      </trkpt>
      <trkpt lat="46.82177" lon="4.66352">
        <ele>456</ele>
        <time>2022-02-14T19:00:13Z</time>
      </trkpt>
      <trkpt lat="46.82185" lon="4.66337">
        <ele>457</ele>
        <time>2022-02-14T19:00:15Z</time>
      </trkpt>
      <trkpt lat="46.8219" lon="4.66326">
        <ele>457</ele>
        <time>2022-02-14T19:00:16Z</time>
      </trkpt>
      <trkpt lat="46.82192" lon="4.66309">
        <ele>457</ele>
        <time>2022-02-14T19:00:19Z</time>
      </trkpt>
      <trkpt lat="46.8219" lon="4.66289">
        <ele>457</ele>
        <time>2022-02-14T19:00:21Z</time>
      </trkpt>
      <trkpt lat="46.82178" lon="4.66249">
        <ele>459</ele>
        <time>2022-02-14T19:00:26Z</time>
      </trkpt>
      <trkpt lat="46.82028" lon="4.65853">
        <ele>450</ele>
        <time>2022-02-14T19:01:21Z</time>
      </trkpt>
      <trkpt lat="46.82015" lon="4.65811">
        <ele>450</ele>
        <time>2022-02-14T19:01:27Z</time>
      </trkpt>
      <trkpt lat="46.82013" lon="4.65796">
        <ele>450</ele>
        <time>2022-02-14T19:01:29Z</time>
      </trkpt>
      <trkpt lat="46.82015" lon="4.6576">
        <ele>450</ele>
        <time>2022-02-14T19:01:33Z</time>
      </trkpt>
      <trkpt lat="46.82038" lon="4.65527">
        <ele>447</ele>
        <time>2022-02-14T19:02:02Z</time>
      </trkpt>
      <trkpt lat="46.8204" lon="4.65501">
        <ele>447</ele>
        <time>2022-02-14T19:02:05Z</time>
      </trkpt>
      <trkpt lat="46.8204" lon="4.6548">
        <ele>447</ele>
        <time>2022-02-14T19:02:08Z</time>
      </trkpt>
      <trkpt lat="46.82033" lon="4.65438">
        <ele>447</ele>
        <time>2022-02-14T19:02:13Z</time>
      </trkpt>
      <trkpt lat="46.81972" lon="4.65207">
        <ele>444</ele>
        <time>2022-02-14T19:02:43Z</time>
      </trkpt>
      <trkpt lat="46.81968" lon="4.65182">
        <ele>443</ele>
        <time>2022-02-14T19:02:46Z</time>
      </trkpt>
      <trkpt lat="46.81961" lon="4.65067">
        <ele>439</ele>
        <time>2022-02-14T19:03:00Z</time>
      </trkpt>
      <trkpt lat="46.81959" lon="4.64986">
        <ele>436</ele>
        <time>2022-02-14T19:03:10Z</time>
      </trkpt>
      <trkpt lat="46.81959" lon="4.64951">
        <ele>434</ele>
        <time>2022-02-14T19:03:14Z</time>
      </trkpt>
      <trkpt lat="46.81964" lon="4.64916">
        <ele>433</ele>
        <time>2022-02-14T19:03:19Z</time>
      </trkpt>
      <trkpt lat="46.81982" lon="4.64845">
        <ele>432</ele>
        <time>2022-02-14T19:03:28Z</time>
      </trkpt>
      <trkpt lat="46.81983" lon="4.6483">
        <ele>431</ele>
        <time>2022-02-14T19:03:30Z</time>
      </trkpt>
      <trkpt lat="46.81981" lon="4.64812">
        <ele>430</ele>
        <time>2022-02-14T19:03:32Z</time>
      </trkpt>
      <trkpt lat="46.8197" lon="4.64767">
        <ele>427</ele>
        <time>2022-02-14T19:03:38Z</time>
      </trkpt>
      <trkpt lat="46.81967" lon="4.64748">
        <ele>426</ele>
        <time>2022-02-14T19:03:40Z</time>
      </trkpt>
      <trkpt lat="46.81967" lon="4.64699">
        <ele>424</ele>
        <time>2022-02-14T19:03:46Z</time>
      </trkpt>
      <trkpt lat="46.81973" lon="4.64649">
        <ele>422</ele>
        <time>2022-02-14T19:03:52Z</time>
      </trkpt>
      <trkpt lat="46.81979" lon="4.64623">
        <ele>421</ele>
        <time>2022-02-14T19:03:56Z</time>
      </trkpt>
      <trkpt lat="46.8199" lon="4.64596">
        <ele>421</ele>
        <time>2022-02-14T19:04:00Z</time>
      </trkpt>
      <trkpt lat="46.82065" lon="4.64483">
        <ele>418</ele>
        <time>2022-02-14T19:04:19Z</time>
      </trkpt>
      <trkpt lat="46.8208" lon="4.64452">
        <ele>419</ele>
        <time>2022-02-14T19:04:23Z</time>
      </trkpt>
      <trkpt lat="46.82081" lon="4.64439">
        <ele>418</ele>
        <time>2022-02-14T19:04:25Z</time>
      </trkpt>
      <trkpt lat="46.8208" lon="4.64426">
        <ele>418</ele>
        <time>2022-02-14T19:04:27Z</time>
      </trkpt>
      <trkpt lat="46.82078" lon="4.64413">
        <ele>417</ele>
        <time>2022-02-14T19:04:28Z</time>
      </trkpt>
      <trkpt lat="46.82062" lon="4.64365">
        <ele>413</ele>
        <time>2022-02-14T19:04:35Z</time>
      </trkpt>
      <trkpt lat="46.82058" lon="4.64343">
        <ele>411</ele>
        <time>2022-02-14T19:04:37Z</time>
      </trkpt>
      <trkpt lat="46.8205" lon="4.64287">
        <ele>408</ele>
        <time>2022-02-14T19:04:44Z</time>
      </trkpt>
      <trkpt lat="46.82045" lon="4.64229">
        <ele>406</ele>
        <time>2022-02-14T19:04:52Z</time>
      </trkpt>
      <trkpt lat="46.82044" lon="4.64028">
        <ele>399</ele>
        <time>2022-02-14T19:05:16Z</time>
      </trkpt>
      <trkpt lat="46.82041" lon="4.6396">
        <ele>395</ele>
        <time>2022-02-14T19:05:24Z</time>
      </trkpt>
      <trkpt lat="46.82037" lon="4.63903">
        <ele>392</ele>
        <time>2022-02-14T19:05:31Z</time>
      </trkpt>
      <trkpt lat="46.82019" lon="4.63737">
        <ele>390</ele>
        <time>2022-02-14T19:05:52Z</time>
      </trkpt>
      <trkpt lat="46.82019" lon="4.63719">
        <ele>391</ele>
        <time>2022-02-14T19:05:54Z</time>
      </trkpt>
      <trkpt lat="46.82021" lon="4.63699">
        <ele>391</ele>
        <time>2022-02-14T19:05:56Z</time>
      </trkpt>
      <trkpt lat="46.82026" lon="4.63689">
        <ele>391</ele>
        <time>2022-02-14T19:05:58Z</time>
      </trkpt>
      <trkpt lat="46.82032" lon="4.63683">
        <ele>391</ele>
        <time>2022-02-14T19:05:59Z</time>
      </trkpt>
      <trkpt lat="46.82039" lon="4.63678">
        <ele>390</ele>
        <time>2022-02-14T19:06:01Z</time>
      </trkpt>
      <trkpt lat="46.82047" lon="4.63679">
        <ele>389</ele>
        <time>2022-02-14T19:06:02Z</time>
      </trkpt>
      <trkpt lat="46.82054" lon="4.63682">
        <ele>389</ele>
        <time>2022-02-14T19:06:03Z</time>
      </trkpt>
      <trkpt lat="46.82067" lon="4.63697">
        <ele>388</ele>
        <time>2022-02-14T19:06:06Z</time>
      </trkpt>
      <trkpt lat="46.82098" lon="4.63752">
        <ele>388</ele>
        <time>2022-02-14T19:06:15Z</time>
      </trkpt>
      <trkpt lat="46.82141" lon="4.63808">
        <ele>387</ele>
        <time>2022-02-14T19:06:25Z</time>
      </trkpt>
      <trkpt lat="46.82167" lon="4.63838">
        <ele>386</ele>
        <time>2022-02-14T19:06:31Z</time>
      </trkpt>
      <trkpt lat="46.82178" lon="4.63844">
        <ele>386</ele>
        <time>2022-02-14T19:06:33Z</time>
      </trkpt>
      <trkpt lat="46.82189" lon="4.63847">
        <ele>385</ele>
        <time>2022-02-14T19:06:35Z</time>
      </trkpt>
      <trkpt lat="46.8223" lon="4.63836">
        <ele>379</ele>
        <time>2022-02-14T19:06:43Z</time>
      </trkpt>
      <trkpt lat="46.82242" lon="4.63829">
        <ele>378</ele>
        <time>2022-02-14T19:06:45Z</time>
      </trkpt>
      <trkpt lat="46.82253" lon="4.63816">
        <ele>376</ele>
        <time>2022-02-14T19:06:47Z</time>
      </trkpt>
      <trkpt lat="46.8231" lon="4.63711">
        <ele>373</ele>
        <time>2022-02-14T19:07:04Z</time>
      </trkpt>
      <trkpt lat="46.82324" lon="4.63678">
        <ele>374</ele>
        <time>2022-02-14T19:07:08Z</time>
      </trkpt>
      <trkpt lat="46.82329" lon="4.63651">
        <ele>374</ele>
        <time>2022-02-14T19:07:12Z</time>
      </trkpt>
      <trkpt lat="46.82328" lon="4.63624">
        <ele>374</ele>
        <time>2022-02-14T19:07:15Z</time>
      </trkpt>
      <trkpt lat="46.82323" lon="4.63602">
        <ele>374</ele>
        <time>2022-02-14T19:07:18Z</time>
      </trkpt>
      <trkpt lat="46.823" lon="4.63546">
        <ele>373</ele>
        <time>2022-02-14T19:07:26Z</time>
      </trkpt>
      <trkpt lat="46.8227" lon="4.63436">
        <ele>369</ele>
        <time>2022-02-14T19:07:40Z</time>
      </trkpt>
      <trkpt lat="46.82261" lon="4.63406">
        <ele>368</ele>
        <time>2022-02-14T19:07:44Z</time>
      </trkpt>
      <trkpt lat="46.82249" lon="4.63374">
        <ele>366</ele>
        <time>2022-02-14T19:07:49Z</time>
      </trkpt>
      <trkpt lat="46.82235" lon="4.63344">
        <ele>365</ele>
        <time>2022-02-14T19:07:53Z</time>
      </trkpt>
      <trkpt lat="46.82205" lon="4.63288">
        <ele>361</ele>
        <time>2022-02-14T19:08:02Z</time>
      </trkpt>
      <trkpt lat="46.82195" lon="4.63266">
        <ele>360</ele>
        <time>2022-02-14T19:08:05Z</time>
      </trkpt>
      <trkpt lat="46.82183" lon="4.63223">
        <ele>358</ele>
        <time>2022-02-14T19:08:11Z</time>
      </trkpt>
      <trkpt lat="46.82162" lon="4.63125">
        <ele>354</ele>
        <time>2022-02-14T19:08:23Z</time>
      </trkpt>
      <trkpt lat="46.82152" lon="4.63098">
        <ele>352</ele>
        <time>2022-02-14T19:08:27Z</time>
      </trkpt>
      <trkpt lat="46.8214" lon="4.63081">
        <ele>350</ele>
        <time>2022-02-14T19:08:30Z</time>
      </trkpt>
      <trkpt lat="46.82067" lon="4.63002">
        <ele>341</ele>
        <time>2022-02-14T19:08:46Z</time>
      </trkpt>
      <trkpt lat="46.8206" lon="4.62986">
        <ele>340</ele>
        <time>2022-02-14T19:08:48Z</time>
      </trkpt>
      <trkpt lat="46.82042" lon="4.62932">
        <ele>339</ele>
        <time>2022-02-14T19:08:56Z</time>
      </trkpt>
      <trkpt lat="46.82028" lon="4.62882">
        <ele>337</ele>
        <time>2022-02-14T19:09:02Z</time>
      </trkpt>
      <trkpt lat="46.82022" lon="4.62856">
        <ele>337</ele>
        <time>2022-02-14T19:09:06Z</time>
      </trkpt>
      <trkpt lat="46.8202" lon="4.62818">
        <ele>337</ele>
        <time>2022-02-14T19:09:10Z</time>
      </trkpt>
      <trkpt lat="46.82024" lon="4.6263">
        <ele>332</ele>
        <time>2022-02-14T19:09:33Z</time>
      </trkpt>
      <trkpt lat="46.82028" lon="4.62589">
        <ele>331</ele>
        <time>2022-02-14T19:09:38Z</time>
      </trkpt>
      <trkpt lat="46.82034" lon="4.62571">
        <ele>331</ele>
        <time>2022-02-14T19:09:41Z</time>
      </trkpt>
      <trkpt lat="46.8204" lon="4.62564">
        <ele>332</ele>
        <time>2022-02-14T19:09:42Z</time>
      </trkpt>
      <trkpt lat="46.82048" lon="4.6256">
        <ele>333</ele>
        <time>2022-02-14T19:09:43Z</time>
      </trkpt>
      <trkpt lat="46.82068" lon="4.62557">
        <ele>336</ele>
        <time>2022-02-14T19:09:47Z</time>
      </trkpt>
      <trkpt lat="46.82082" lon="4.62548">
        <ele>337</ele>
        <time>2022-02-14T19:09:50Z</time>
      </trkpt>
      <trkpt lat="46.82105" lon="4.6252">
        <ele>340</ele>
        <time>2022-02-14T19:09:55Z</time>
      </trkpt>
      <trkpt lat="46.8211" lon="4.6251">
        <ele>340</ele>
        <time>2022-02-14T19:09:57Z</time>
      </trkpt>
      <trkpt lat="46.82116" lon="4.62486">
        <ele>340</ele>
        <time>2022-02-14T19:10:00Z</time>
      </trkpt>
      <trkpt lat="46.82132" lon="4.62353">
        <ele>332</ele>
        <time>2022-02-14T19:10:16Z</time>
      </trkpt>
      <trkpt lat="46.82135" lon="4.62312">
        <ele>330</ele>
        <time>2022-02-14T19:10:21Z</time>
      </trkpt>
      <trkpt lat="46.82135" lon="4.6226">
        <ele>327</ele>
        <time>2022-02-14T19:10:28Z</time>
      </trkpt>
      <trkpt lat="46.82129" lon="4.62155">
        <ele>322</ele>
        <time>2022-02-14T19:10:40Z</time>
      </trkpt>
      <trkpt lat="46.82114" lon="4.61976">
        <ele>315</ele>
        <time>2022-02-14T19:11:02Z</time>
      </trkpt>
      <trkpt lat="46.82089" lon="4.61726">
        <ele>309</ele>
        <time>2022-02-14T19:11:33Z</time>
      </trkpt>
      <trkpt lat="46.82077" lon="4.61663">
        <ele>308</ele>
        <time>2022-02-14T19:11:41Z</time>
      </trkpt>
      <trkpt lat="46.82033" lon="4.61495">
        <ele>300</ele>
        <time>2022-02-14T19:12:03Z</time>
      </trkpt>
      <trkpt lat="46.82006" lon="4.61341">
        <ele>291</ele>
        <time>2022-02-14T19:12:22Z</time>
      </trkpt>
      <trkpt lat="46.82002" lon="4.61306">
        <ele>289</ele>
        <time>2022-02-14T19:12:27Z</time>
      </trkpt>
      <trkpt lat="46.82002" lon="4.61277">
        <ele>288</ele>
        <time>2022-02-14T19:12:30Z</time>
      </trkpt>
      <trkpt lat="46.82005" lon="4.61249">
        <ele>287</ele>
        <time>2022-02-14T19:12:34Z</time>
      </trkpt>
      <trkpt lat="46.82017" lon="4.61193">
        <ele>285</ele>
        <time>2022-02-14T19:12:41Z</time>
      </trkpt>
      <trkpt lat="46.82018" lon="4.61177">
        <ele>284</ele>
        <time>2022-02-14T19:12:43Z</time>
      </trkpt>
      <trkpt lat="46.82014" lon="4.61155">
        <ele>283</ele>
        <time>2022-02-14T19:12:45Z</time>
      </trkpt>
      <trkpt lat="46.82003" lon="4.61135">
        <ele>283</ele>
        <time>2022-02-14T19:12:49Z</time>
      </trkpt>
      <trkpt lat="46.81994" lon="4.61121">
        <ele>282</ele>
        <time>2022-02-14T19:12:51Z</time>
      </trkpt>
      <trkpt lat="46.81988" lon="4.61102">
        <ele>281</ele>
        <time>2022-02-14T19:12:53Z</time>
      </trkpt>
      <trkpt lat="46.81974" lon="4.61015">
        <ele>276</ele>
        <time>2022-02-14T19:13:04Z</time>
      </trkpt>
      <trkpt lat="46.81961" lon="4.60921">
        <ele>271</ele>
        <time>2022-02-14T19:13:16Z</time>
      </trkpt>
      <trkpt lat="46.81962" lon="4.60889">
        <ele>270</ele>
        <time>2022-02-14T19:13:20Z</time>
      </trkpt>
      <trkpt lat="46.81966" lon="4.60867">
        <ele>270</ele>
        <time>2022-02-14T19:13:23Z</time>
      </trkpt>
      <trkpt lat="46.82008" lon="4.607">
        <ele>265</ele>
        <time>2022-02-14T19:13:44Z</time>
      </trkpt>
      <trkpt lat="46.82013" lon="4.60682">
        <ele>264</ele>
        <time>2022-02-14T19:13:47Z</time>
      </trkpt>
      <trkpt lat="46.8202" lon="4.60668">
        <ele>263</ele>
        <time>2022-02-14T19:13:49Z</time>
      </trkpt>
      <trkpt lat="46.82029" lon="4.60652">
        <ele>262</ele>
        <time>2022-02-14T19:13:51Z</time>
      </trkpt>
      <trkpt lat="46.82086" lon="4.60586">
        <ele>260</ele>
        <time>2022-02-14T19:14:04Z</time>
      </trkpt>
      <trkpt lat="46.82101" lon="4.60576">
        <ele>259</ele>
        <time>2022-02-14T19:14:07Z</time>
      </trkpt>
      <trkpt lat="46.82113" lon="4.6057">
        <ele>259</ele>
        <time>2022-02-14T19:14:10Z</time>
      </trkpt>
      <trkpt lat="46.82225" lon="4.60552">
        <ele>255</ele>
        <time>2022-02-14T19:14:30Z</time>
      </trkpt>
      <trkpt lat="46.82246" lon="4.60543">
        <ele>254</ele>
        <time>2022-02-14T19:14:33Z</time>
      </trkpt>
      <trkpt lat="46.82319" lon="4.60494">
        <ele>250</ele>
        <time>2022-02-14T19:14:48Z</time>
      </trkpt>
      <trkpt lat="46.82332" lon="4.60476">
        <ele>249</ele>
        <time>2022-02-14T19:14:51Z</time>
      </trkpt>
      <trkpt lat="46.82356" lon="4.60425">
        <ele>246</ele>
        <time>2022-02-14T19:14:58Z</time>
      </trkpt>
      <trkpt lat="46.82365" lon="4.60397">
        <ele>245</ele>
        <time>2022-02-14T19:15:02Z</time>
      </trkpt>
      <trkpt lat="46.82368" lon="4.60369">
        <ele>245</ele>
        <time>2022-02-14T19:15:06Z</time>
      </trkpt>
      <trkpt lat="46.82367" lon="4.60349">
        <ele>245</ele>
        <time>2022-02-14T19:15:08Z</time>
      </trkpt>
      <trkpt lat="46.8236" lon="4.60295">
        <ele>245</ele>
        <time>2022-02-14T19:15:15Z</time>
      </trkpt>
      <trkpt lat="46.82358" lon="4.6028">
        <ele>245</ele>
        <time>2022-02-14T19:15:17Z</time>
      </trkpt>
      <trkpt lat="46.82345" lon="4.60206">
        <ele>246</ele>
        <time>2022-02-14T19:15:26Z</time>
      </trkpt>
      <trkpt lat="46.82345" lon="4.60194">
        <ele>246</ele>
        <time>2022-02-14T19:15:27Z</time>
      </trkpt>
      <trkpt lat="46.82348" lon="4.60185">
        <ele>246</ele>
        <time>2022-02-14T19:15:29Z</time>
      </trkpt>
      <trkpt lat="46.82386" lon="4.60111">
        <ele>245</ele>
        <time>2022-02-14T19:15:40Z</time>
      </trkpt>
      <trkpt lat="46.82459" lon="4.60016">
        <ele>243</ele>
        <time>2022-02-14T19:15:57Z</time>
      </trkpt>
      <trkpt lat="46.82465" lon="4.59999">
        <ele>243</ele>
        <time>2022-02-14T19:16:00Z</time>
      </trkpt>
      <trkpt lat="46.8247" lon="4.5997">
        <ele>242</ele>
        <time>2022-02-14T19:16:03Z</time>
      </trkpt>
      <trkpt lat="46.8247" lon="4.59947">
        <ele>241</ele>
        <time>2022-02-14T19:16:06Z</time>
      </trkpt>
      <trkpt lat="46.8247" lon="4.59944">
        <ele>241</ele>
        <time>2022-02-14T19:16:06Z</time>
      </trkpt>
      <trkpt lat="46.82489" lon="4.59943">
        <ele>240</ele>
        <time>2022-02-14T19:16:10Z</time>
      </trkpt>
      <trkpt lat="46.82528" lon="4.59948">
        <ele>241</ele>
        <time>2022-02-14T19:16:17Z</time>
      </trkpt>
      <trkpt lat="46.82531" lon="4.59943">
        <ele>241</ele>
        <time>2022-02-14T19:16:18Z</time>
      </trkpt>
      <trkpt lat="46.82532" lon="4.59936">
        <ele>241</ele>
        <time>2022-02-14T19:16:18Z</time>
      </trkpt>
      <trkpt lat="46.82532" lon="4.59921">
        <ele>240</ele>
        <time>2022-02-14T19:16:20Z</time>
      </trkpt>
      <trkpt lat="46.82532" lon="4.59917">
        <ele>240</ele>
        <time>2022-02-14T19:16:21Z</time>
      </trkpt>
      <trkpt lat="46.82276" lon="4.59892">
        <ele>242</ele>
        <time>2022-02-14T19:17:06Z</time>
      </trkpt>
      <trkpt lat="46.82165" lon="4.59834">
        <ele>241</ele>
        <time>2022-02-14T19:17:27Z</time>
      </trkpt>
      <trkpt lat="46.82085" lon="4.5981">
        <ele>239</ele>
        <time>2022-02-14T19:17:42Z</time>
      </trkpt>
      <trkpt lat="46.8205" lon="4.59793">
        <ele>239</ele>
        <time>2022-02-14T19:17:49Z</time>
      </trkpt>
      <trkpt lat="46.81945" lon="4.59714">
        <ele>240</ele>
        <time>2022-02-14T19:18:10Z</time>
      </trkpt>
      <trkpt lat="46.81892" lon="4.59668">
        <ele>241</ele>
        <time>2022-02-14T19:18:20Z</time>
      </trkpt>
      <trkpt lat="46.8186" lon="4.59627">
        <ele>240</ele>
        <time>2022-02-14T19:18:28Z</time>
      </trkpt>
      <trkpt lat="46.81852" lon="4.5962">
        <ele>240</ele>
        <time>2022-02-14T19:18:30Z</time>
      </trkpt>
      <trkpt lat="46.81845" lon="4.59611">
        <ele>240</ele>
        <time>2022-02-14T19:18:31Z</time>
      </trkpt>
      <trkpt lat="46.818" lon="4.59531">
        <ele>240</ele>
        <time>2022-02-14T19:18:44Z</time>
      </trkpt>
      <trkpt lat="46.81628" lon="4.59303">
        <ele>244</ele>
        <time>2022-02-14T19:19:25Z</time>
      </trkpt>
      <trkpt lat="46.81613" lon="4.5927">
        <ele>244</ele>
        <time>2022-02-14T19:19:30Z</time>
      </trkpt>
      <trkpt lat="46.81603" lon="4.5924">
        <ele>244</ele>
        <time>2022-02-14T19:19:34Z</time>
      </trkpt>
      <trkpt lat="46.81598" lon="4.59191">
        <ele>243</ele>
        <time>2022-02-14T19:19:40Z</time>
      </trkpt>
      <trkpt lat="46.81603" lon="4.59118">
        <ele>243</ele>
        <time>2022-02-14T19:19:49Z</time>
      </trkpt>
      <trkpt lat="46.81602" lon="4.59092">
        <ele>243</ele>
        <time>2022-02-14T19:19:52Z</time>
      </trkpt>
      <trkpt lat="46.81591" lon="4.59027">
        <ele>243</ele>
        <time>2022-02-14T19:20:00Z</time>
      </trkpt>
      <trkpt lat="46.81574" lon="4.5895">
        <ele>244</ele>
        <time>2022-02-14T19:20:10Z</time>
      </trkpt>
      <trkpt lat="46.81548" lon="4.58846">
        <ele>244</ele>
        <time>2022-02-14T19:20:24Z</time>
      </trkpt>
      <trkpt lat="46.81538" lon="4.58815">
        <ele>244</ele>
        <time>2022-02-14T19:20:28Z</time>
      </trkpt>
      <trkpt lat="46.81526" lon="4.58788">
        <ele>244</ele>
        <time>2022-02-14T19:20:32Z</time>
      </trkpt>
      <trkpt lat="46.81514" lon="4.58767">
        <ele>244</ele>
        <time>2022-02-14T19:20:35Z</time>
      </trkpt>
      <trkpt lat="46.81457" lon="4.58699">
        <ele>243</ele>
        <time>2022-02-14T19:20:48Z</time>
      </trkpt>
      <trkpt lat="46.81343" lon="4.58597">
        <ele>242</ele>
        <time>2022-02-14T19:21:12Z</time>
      </trkpt>
      <trkpt lat="46.81239" lon="4.58462">
        <ele>245</ele>
        <time>2022-02-14T19:21:37Z</time>
      </trkpt>
      <trkpt lat="46.81125" lon="4.58252">
        <ele>245</ele>
        <time>2022-02-14T19:22:10Z</time>
      </trkpt>
      <trkpt lat="46.81095" lon="4.58217">
        <ele>245</ele>
        <time>2022-02-14T19:22:16Z</time>
      </trkpt>
      <trkpt lat="46.80941" lon="4.58132">
        <ele>247</ele>
        <time>2022-02-14T19:22:46Z</time>
      </trkpt>
      <trkpt lat="46.80921" lon="4.58124">
        <ele>248</ele>
        <time>2022-02-14T19:22:49Z</time>
      </trkpt>
      <trkpt lat="46.80888" lon="4.58087">
        <ele>249</ele>
        <time>2022-02-14T19:22:57Z</time>
      </trkpt>
      <trkpt lat="46.80866" lon="4.5806">
        <ele>249</ele>
        <time>2022-02-14T19:23:02Z</time>
      </trkpt>
      <trkpt lat="46.8084" lon="4.58056">
        <ele>249</ele>
        <time>2022-02-14T19:23:06Z</time>
      </trkpt>
      <trkpt lat="46.80823" lon="4.58039">
        <ele>250</ele>
        <time>2022-02-14T19:23:10Z</time>
      </trkpt>
      <trkpt lat="46.80745" lon="4.5792">
        <ele>251</ele>
        <time>2022-02-14T19:23:30Z</time>
      </trkpt>
      <trkpt lat="46.8074" lon="4.57903">
        <ele>251</ele>
        <time>2022-02-14T19:23:32Z</time>
      </trkpt>
      <trkpt lat="46.80772" lon="4.57852">
        <ele>248</ele>
        <time>2022-02-14T19:23:41Z</time>
      </trkpt>
      <trkpt lat="46.80785" lon="4.57831">
        <ele>247</ele>
        <time>2022-02-14T19:23:44Z</time>
      </trkpt>
      <trkpt lat="46.80789" lon="4.57825">
        <ele>246</ele>
        <time>2022-02-14T19:23:45Z</time>
      </trkpt>
      <trkpt lat="46.80867" lon="4.57697">
        <ele>246</ele>
        <time>2022-02-14T19:24:06Z</time>
      </trkpt>
      <trkpt lat="46.80883" lon="4.57668">
        <ele>246</ele>
        <time>2022-02-14T19:24:11Z</time>
      </trkpt>
      <trkpt lat="46.80908" lon="4.57612">
        <ele>245</ele>
        <time>2022-02-14T19:24:19Z</time>
      </trkpt>
      <trkpt lat="46.80926" lon="4.57556">
        <ele>246</ele>
        <time>2022-02-14T19:24:26Z</time>
      </trkpt>
      <trkpt lat="46.81013" lon="4.57206">
        <ele>255</ele>
        <time>2022-02-14T19:25:12Z</time>
      </trkpt>
      <trkpt lat="46.81061" lon="4.5703">
        <ele>254</ele>
        <time>2022-02-14T19:25:35Z</time>
      </trkpt>
      <trkpt lat="46.8108" lon="4.56975">
        <ele>252</ele>
        <time>2022-02-14T19:25:42Z</time>
      </trkpt>
      <trkpt lat="46.81094" lon="4.56944">
        <ele>252</ele>
        <time>2022-02-14T19:25:47Z</time>
      </trkpt>
      <trkpt lat="46.81112" lon="4.56912">
        <ele>252</ele>
        <time>2022-02-14T19:25:52Z</time>
      </trkpt>
      <trkpt lat="46.81146" lon="4.56865">
        <ele>250</ele>
        <time>2022-02-14T19:26:00Z</time>
      </trkpt>
      <trkpt lat="46.81172" lon="4.56838">
        <ele>249</ele>
        <time>2022-02-14T19:26:06Z</time>
      </trkpt>
      <trkpt lat="46.81196" lon="4.56805">
        <ele>250</ele>
        <time>2022-02-14T19:26:12Z</time>
      </trkpt>
      <trkpt lat="46.81226" lon="4.56756">
        <ele>251</ele>
        <time>2022-02-14T19:26:20Z</time>
      </trkpt>
      <trkpt lat="46.81236" lon="4.56732">
        <ele>252</ele>
        <time>2022-02-14T19:26:23Z</time>
      </trkpt>
      <trkpt lat="46.81246" lon="4.56701">
        <ele>254</ele>
        <time>2022-02-14T19:26:27Z</time>
      </trkpt>
      <trkpt lat="46.81583" lon="4.55452">
        <ele>257</ele>
        <time>2022-02-14T19:29:11Z</time>
      </trkpt>
      <trkpt lat="46.81714" lon="4.54877">
        <ele>259</ele>
        <time>2022-02-14T19:30:25Z</time>
      </trkpt>
      <trkpt lat="46.81765" lon="4.54644">
        <ele>264</ele>
        <time>2022-02-14T19:30:54Z</time>
      </trkpt>
      <trkpt lat="46.81787" lon="4.54558">
        <ele>264</ele>
        <time>2022-02-14T19:31:06Z</time>
      </trkpt>
      <trkpt lat="46.81796" lon="4.54529">
        <ele>263</ele>
        <time>2022-02-14T19:31:10Z</time>
      </trkpt>
      <trkpt lat="46.81839" lon="4.54425">
        <ele>262</ele>
        <time>2022-02-14T19:31:24Z</time>
      </trkpt>
      <trkpt lat="46.81975" lon="4.54098">
        <ele>264</ele>
        <time>2022-02-14T19:32:11Z</time>
      </trkpt>
      <trkpt lat="46.81987" lon="4.54051">
        <ele>265</ele>
        <time>2022-02-14T19:32:17Z</time>
      </trkpt>
      <trkpt lat="46.81992" lon="4.54008">
        <ele>265</ele>
        <time>2022-02-14T19:32:22Z</time>
      </trkpt>
      <trkpt lat="46.81992" lon="4.53986">
        <ele>266</ele>
        <time>2022-02-14T19:32:25Z</time>
      </trkpt>
      <trkpt lat="46.81988" lon="4.53953">
        <ele>266</ele>
        <time>2022-02-14T19:32:29Z</time>
      </trkpt>
      <trkpt lat="46.81908" lon="4.53489">
        <ele>270</ele>
        <time>2022-02-14T19:33:27Z</time>
      </trkpt>
      <trkpt lat="46.81884" lon="4.53329">
        <ele>273</ele>
        <time>2022-02-14T19:33:47Z</time>
      </trkpt>
      <trkpt lat="46.81848" lon="4.53067">
        <ele>275</ele>
        <time>2022-02-14T19:34:20Z</time>
      </trkpt>
      <trkpt lat="46.81832" lon="4.52981">
        <ele>277</ele>
        <time>2022-02-14T19:34:31Z</time>
      </trkpt>
      <trkpt lat="46.81798" lon="4.52834">
        <ele>275</ele>
        <time>2022-02-14T19:34:50Z</time>
      </trkpt>
      <trkpt lat="46.81791" lon="4.52795">
        <ele>274</ele>
        <time>2022-02-14T19:34:54Z</time>
      </trkpt>
      <trkpt lat="46.81786" lon="4.52746">
        <ele>274</ele>
        <time>2022-02-14T19:35:01Z</time>
      </trkpt>
      <trkpt lat="46.81787" lon="4.52701">
        <ele>274</ele>
        <time>2022-02-14T19:35:06Z</time>
      </trkpt>
      <trkpt lat="46.8179" lon="4.52662">
        <ele>275</ele>
        <time>2022-02-14T19:35:11Z</time>
      </trkpt>
      <trkpt lat="46.81798" lon="4.52584">
        <ele>276</ele>
        <time>2022-02-14T19:35:20Z</time>
      </trkpt>
      <trkpt lat="46.81813" lon="4.52507">
        <ele>276</ele>
        <time>2022-02-14T19:35:30Z</time>
      </trkpt>
      <trkpt lat="46.81883" lon="4.52273">
        <ele>277</ele>
        <time>2022-02-14T19:36:01Z</time>
      </trkpt>
      <trkpt lat="46.819" lon="4.52204">
        <ele>278</ele>
        <time>2022-02-14T19:36:10Z</time>
      </trkpt>
      <trkpt lat="46.81905" lon="4.52168">
        <ele>279</ele>
        <time>2022-02-14T19:36:15Z</time>
      </trkpt>
      <trkpt lat="46.81909" lon="4.52051">
        <ele>282</ele>
        <time>2022-02-14T19:36:29Z</time>
      </trkpt>
      <trkpt lat="46.81913" lon="4.52004">
        <ele>284</ele>
        <time>2022-02-14T19:36:35Z</time>
      </trkpt>
      <trkpt lat="46.81938" lon="4.51908">
        <ele>287</ele>
        <time>2022-02-14T19:36:47Z</time>
      </trkpt>
      <trkpt lat="46.8194" lon="4.51895">
        <ele>288</ele>
        <time>2022-02-14T19:36:49Z</time>
      </trkpt>
      <trkpt lat="46.81943" lon="4.51863">
        <ele>289</ele>
        <time>2022-02-14T19:36:53Z</time>
      </trkpt>
      <trkpt lat="46.81941" lon="4.51827">
        <ele>290</ele>
        <time>2022-02-14T19:36:57Z</time>
      </trkpt>
      <trkpt lat="46.81923" lon="4.51728">
        <ele>295</ele>
        <time>2022-02-14T19:37:10Z</time>
      </trkpt>
      <trkpt lat="46.81918" lon="4.51683">
        <ele>296</ele>
        <time>2022-02-14T19:37:15Z</time>
      </trkpt>
      <trkpt lat="46.81917" lon="4.51657">
        <ele>297</ele>
        <time>2022-02-14T19:37:18Z</time>
      </trkpt>
      <trkpt lat="46.81918" lon="4.51632">
        <ele>299</ele>
        <time>2022-02-14T19:37:21Z</time>
      </trkpt>
      <trkpt lat="46.81926" lon="4.5157">
        <ele>302</ele>
        <time>2022-02-14T19:37:29Z</time>
      </trkpt>
      <trkpt lat="46.81938" lon="4.51496">
        <ele>308</ele>
        <time>2022-02-14T19:37:38Z</time>
      </trkpt>
      <trkpt lat="46.81938" lon="4.51456">
        <ele>310</ele>
        <time>2022-02-14T19:37:43Z</time>
      </trkpt>
      <trkpt lat="46.81931" lon="4.51415">
        <ele>312</ele>
        <time>2022-02-14T19:37:48Z</time>
      </trkpt>
      <trkpt lat="46.81924" lon="4.51396">
        <ele>313</ele>
        <time>2022-02-14T19:37:51Z</time>
      </trkpt>
      <trkpt lat="46.8187" lon="4.51301">
        <ele>317</ele>
        <time>2022-02-14T19:38:06Z</time>
      </trkpt>
      <trkpt lat="46.8186" lon="4.51277">
        <ele>317</ele>
        <time>2022-02-14T19:38:09Z</time>
      </trkpt>
      <trkpt lat="46.8184" lon="4.512">
        <ele>320</ele>
        <time>2022-02-14T19:38:19Z</time>
      </trkpt>
      <trkpt lat="46.81816" lon="4.51159">
        <ele>321</ele>
        <time>2022-02-14T19:38:26Z</time>
      </trkpt>
      <trkpt lat="46.81752" lon="4.51087">
        <ele>323</ele>
        <time>2022-02-14T19:38:40Z</time>
      </trkpt>
      <trkpt lat="46.81738" lon="4.51054">
        <ele>324</ele>
        <time>2022-02-14T19:38:45Z</time>
      </trkpt>
      <trkpt lat="46.81723" lon="4.51013">
        <ele>327</ele>
        <time>2022-02-14T19:38:51Z</time>
      </trkpt>
      <trkpt lat="46.81703" lon="4.50944">
        <ele>329</ele>
        <time>2022-02-14T19:39:00Z</time>
      </trkpt>
      <trkpt lat="46.81681" lon="4.50858">
        <ele>331</ele>
        <time>2022-02-14T19:39:11Z</time>
      </trkpt>
      <trkpt lat="46.81679" lon="4.50803">
        <ele>333</ele>
        <time>2022-02-14T19:39:18Z</time>
      </trkpt>
      <trkpt lat="46.81684" lon="4.5076">
        <ele>336</ele>
        <time>2022-02-14T19:39:23Z</time>
      </trkpt>
      <trkpt lat="46.81679" lon="4.50713">
        <ele>339</ele>
        <time>2022-02-14T19:39:29Z</time>
      </trkpt>
      <trkpt lat="46.81668" lon="4.50672">
        <ele>339</ele>
        <time>2022-02-14T19:39:34Z</time>
      </trkpt>
      <trkpt lat="46.81649" lon="4.50629">
        <ele>340</ele>
        <time>2022-02-14T19:39:40Z</time>
      </trkpt>
      <trkpt lat="46.81619" lon="4.50579">
        <ele>340</ele>
        <time>2022-02-14T19:39:49Z</time>
      </trkpt>
      <trkpt lat="46.81613" lon="4.50566">
        <ele>339</ele>
        <time>2022-02-14T19:39:50Z</time>
      </trkpt>
      <trkpt lat="46.81607" lon="4.50548">
        <ele>339</ele>
        <time>2022-02-14T19:39:53Z</time>
      </trkpt>
      <trkpt lat="46.816" lon="4.50514">
        <ele>340</ele>
        <time>2022-02-14T19:39:57Z</time>
      </trkpt>
      <trkpt lat="46.81567" lon="4.50339">
        <ele>344</ele>
        <time>2022-02-14T19:40:19Z</time>
      </trkpt>
      <trkpt lat="46.81535" lon="4.50252">
        <ele>345</ele>
        <time>2022-02-14T19:40:31Z</time>
      </trkpt>
      <trkpt lat="46.81528" lon="4.50229">
        <ele>345</ele>
        <time>2022-02-14T19:40:34Z</time>
      </trkpt>
      <trkpt lat="46.81526" lon="4.5021">
        <ele>346</ele>
        <time>2022-02-14T19:40:37Z</time>
      </trkpt>
      <trkpt lat="46.81525" lon="4.50189">
        <ele>348</ele>
        <time>2022-02-14T19:40:39Z</time>
      </trkpt>
      <trkpt lat="46.81528" lon="4.50166">
        <ele>350</ele>
        <time>2022-02-14T19:40:42Z</time>
      </trkpt>
      <trkpt lat="46.81537" lon="4.50121">
        <ele>353</ele>
        <time>2022-02-14T19:40:48Z</time>
      </trkpt>
      <trkpt lat="46.81539" lon="4.50094">
        <ele>354</ele>
        <time>2022-02-14T19:40:51Z</time>
      </trkpt>
      <trkpt lat="46.81537" lon="4.50055">
        <ele>356</ele>
        <time>2022-02-14T19:40:56Z</time>
      </trkpt>
      <trkpt lat="46.81533" lon="4.50034">
        <ele>358</ele>
        <time>2022-02-14T19:40:59Z</time>
      </trkpt>
      <trkpt lat="46.81526" lon="4.50015">
        <ele>358</ele>
        <time>2022-02-14T19:41:01Z</time>
      </trkpt>
      <trkpt lat="46.81515" lon="4.49999">
        <ele>357</ele>
        <time>2022-02-14T19:41:04Z</time>
      </trkpt>
      <trkpt lat="46.81498" lon="4.49985">
        <ele>356</ele>
        <time>2022-02-14T19:41:07Z</time>
      </trkpt>
      <trkpt lat="46.81473" lon="4.4997">
        <ele>356</ele>
        <time>2022-02-14T19:41:12Z</time>
      </trkpt>
      <trkpt lat="46.81461" lon="4.49955">
        <ele>357</ele>
        <time>2022-02-14T19:41:15Z</time>
      </trkpt>
      <trkpt lat="46.81452" lon="4.49935">
        <ele>357</ele>
        <time>2022-02-14T19:41:18Z</time>
      </trkpt>
      <trkpt lat="46.8144" lon="4.49882">
        <ele>360</ele>
        <time>2022-02-14T19:41:25Z</time>
      </trkpt>
      <trkpt lat="46.8143" lon="4.49855">
        <ele>361</ele>
        <time>2022-02-14T19:41:29Z</time>
      </trkpt>
      <trkpt lat="46.81368" lon="4.49723">
        <ele>365</ele>
        <time>2022-02-14T19:41:48Z</time>
      </trkpt>
      <trkpt lat="46.81356" lon="4.49694">
        <ele>365</ele>
        <time>2022-02-14T19:41:52Z</time>
      </trkpt>
      <trkpt lat="46.81349" lon="4.49673">
        <ele>366</ele>
        <time>2022-02-14T19:41:55Z</time>
      </trkpt>
      <trkpt lat="46.81338" lon="4.49626">
        <ele>366</ele>
        <time>2022-02-14T19:42:01Z</time>
      </trkpt>
      <trkpt lat="46.81336" lon="4.49603">
        <ele>367</ele>
        <time>2022-02-14T19:42:04Z</time>
      </trkpt>
      <trkpt lat="46.81335" lon="4.49581">
        <ele>367</ele>
        <time>2022-02-14T19:42:07Z</time>
      </trkpt>
      <trkpt lat="46.81342" lon="4.49427">
        <ele>366</ele>
        <time>2022-02-14T19:42:25Z</time>
      </trkpt>
      <trkpt lat="46.81343" lon="4.49401">
        <ele>365</ele>
        <time>2022-02-14T19:42:29Z</time>
      </trkpt>
      <trkpt lat="46.81358" lon="4.49027">
        <ele>357</ele>
        <time>2022-02-14T19:43:14Z</time>
      </trkpt>
      <trkpt lat="46.8136" lon="4.48882">
        <ele>358</ele>
        <time>2022-02-14T19:43:32Z</time>
      </trkpt>
      <trkpt lat="46.81366" lon="4.48873">
        <ele>358</ele>
        <time>2022-02-14T19:43:33Z</time>
      </trkpt>
      <trkpt lat="46.81367" lon="4.48867">
        <ele>358</ele>
        <time>2022-02-14T19:43:34Z</time>
      </trkpt>
      <trkpt lat="46.81367" lon="4.48855">
        <ele>359</ele>
        <time>2022-02-14T19:43:36Z</time>
      </trkpt>
      <trkpt lat="46.81363" lon="4.48845">
        <ele>359</ele>
        <time>2022-02-14T19:43:37Z</time>
      </trkpt>
      <trkpt lat="46.81355" lon="4.4884">
        <ele>358</ele>
        <time>2022-02-14T19:43:39Z</time>
      </trkpt>
      <trkpt lat="46.81343" lon="4.48818">
        <ele>358</ele>
        <time>2022-02-14T19:43:42Z</time>
      </trkpt>
      <trkpt lat="46.81298" lon="4.48662">
        <ele>358</ele>
        <time>2022-02-14T19:44:03Z</time>
      </trkpt>
      <trkpt lat="46.81345" lon="4.48632">
        <ele>361</ele>
        <time>2022-02-14T19:44:12Z</time>
      </trkpt>
      <trkpt lat="46.81393" lon="4.48595">
        <ele>364</ele>
        <time>2022-02-14T19:44:21Z</time>
      </trkpt>
      <trkpt lat="46.81407" lon="4.48573">
        <ele>365</ele>
        <time>2022-02-14T19:44:25Z</time>
      </trkpt>
      <trkpt lat="46.81418" lon="4.48548">
        <ele>366</ele>
        <time>2022-02-14T19:44:29Z</time>
      </trkpt>
      <trkpt lat="46.81435" lon="4.48501">
        <ele>366</ele>
        <time>2022-02-14T19:44:35Z</time>
      </trkpt>
      <trkpt lat="46.81452" lon="4.48465">
        <ele>366</ele>
        <time>2022-02-14T19:44:40Z</time>
      </trkpt>
      <trkpt lat="46.81457" lon="4.48457">
        <ele>366</ele>
        <time>2022-02-14T19:44:42Z</time>
      </trkpt>
      <trkpt lat="46.81482" lon="4.4842">
        <ele>365</ele>
        <time>2022-02-14T19:44:48Z</time>
      </trkpt>
      <trkpt lat="46.81591" lon="4.48323">
        <ele>367</ele>
        <time>2022-02-14T19:45:11Z</time>
      </trkpt>
      <trkpt lat="46.81604" lon="4.48301">
        <ele>367</ele>
        <time>2022-02-14T19:45:14Z</time>
      </trkpt>
      <trkpt lat="46.81617" lon="4.48269">
        <ele>366</ele>
        <time>2022-02-14T19:45:19Z</time>
      </trkpt>
      <trkpt lat="46.8196" lon="4.47197">
        <ele>346</ele>
        <time>2022-02-14T19:47:43Z</time>
      </trkpt>
      <trkpt lat="46.81966" lon="4.47166">
        <ele>345</ele>
        <time>2022-02-14T19:47:47Z</time>
      </trkpt>
      <trkpt lat="46.81966" lon="4.47135">
        <ele>344</ele>
        <time>2022-02-14T19:47:51Z</time>
      </trkpt>
      <trkpt lat="46.81945" lon="4.46865">
        <ele>347</ele>
        <time>2022-02-14T19:48:24Z</time>
      </trkpt>
      <trkpt lat="46.81944" lon="4.46823">
        <ele>346</ele>
        <time>2022-02-14T19:48:29Z</time>
      </trkpt>
      <trkpt lat="46.81945" lon="4.46797">
        <ele>346</ele>
        <time>2022-02-14T19:48:32Z</time>
      </trkpt>
      <trkpt lat="46.8196" lon="4.46587">
        <ele>341</ele>
        <time>2022-02-14T19:48:58Z</time>
      </trkpt>
      <trkpt lat="46.81964" lon="4.46547">
        <ele>341</ele>
        <time>2022-02-14T19:49:03Z</time>
      </trkpt>
      <trkpt lat="46.81968" lon="4.46522">
        <ele>342</ele>
        <time>2022-02-14T19:49:06Z</time>
      </trkpt>
      <trkpt lat="46.81987" lon="4.46468">
        <ele>341</ele>
        <time>2022-02-14T19:49:13Z</time>
      </trkpt>
      <trkpt lat="46.82004" lon="4.46411">
        <ele>340</ele>
        <time>2022-02-14T19:49:21Z</time>
      </trkpt>
      <trkpt lat="46.8201" lon="4.46385">
        <ele>341</ele>
        <time>2022-02-14T19:49:24Z</time>
      </trkpt>
      <trkpt lat="46.82049" lon="4.46149">
        <ele>342</ele>
        <time>2022-02-14T19:49:54Z</time>
      </trkpt>
      <trkpt lat="46.82054" lon="4.46099">
        <ele>342</ele>
        <time>2022-02-14T19:50:00Z</time>
      </trkpt>
      <trkpt lat="46.82061" lon="4.46006">
        <ele>340</ele>
        <time>2022-02-14T19:50:11Z</time>
      </trkpt>
      <trkpt lat="46.82067" lon="4.45959">
        <ele>341</ele>
        <time>2022-02-14T19:50:17Z</time>
      </trkpt>
      <trkpt lat="46.82112" lon="4.45724">
        <ele>347</ele>
        <time>2022-02-14T19:50:47Z</time>
      </trkpt>
      <trkpt lat="46.82122" lon="4.45681">
        <ele>349</ele>
        <time>2022-02-14T19:50:52Z</time>
      </trkpt>
      <trkpt lat="46.82128" lon="4.45659">
        <ele>349</ele>
        <time>2022-02-14T19:50:55Z</time>
      </trkpt>
      <trkpt lat="46.82141" lon="4.45628">
        <ele>346</ele>
        <time>2022-02-14T19:51:00Z</time>
      </trkpt>
      <trkpt lat="46.82157" lon="4.45599">
        <ele>343</ele>
        <time>2022-02-14T19:51:04Z</time>
      </trkpt>
      <trkpt lat="46.82168" lon="4.45585">
        <ele>341</ele>
        <time>2022-02-14T19:51:07Z</time>
      </trkpt>
      <trkpt lat="46.82192" lon="4.45564">
        <ele>341</ele>
        <time>2022-02-14T19:51:12Z</time>
      </trkpt>
      <trkpt lat="46.8233" lon="4.45478">
        <ele>342</ele>
        <time>2022-02-14T19:51:38Z</time>
      </trkpt>
      <trkpt lat="46.82348" lon="4.45462">
        <ele>342</ele>
        <time>2022-02-14T19:51:42Z</time>
      </trkpt>
      <trkpt lat="46.82363" lon="4.45447">
        <ele>343</ele>
        <time>2022-02-14T19:51:45Z</time>
      </trkpt>
      <trkpt lat="46.82383" lon="4.45415">
        <ele>343</ele>
        <time>2022-02-14T19:51:51Z</time>
      </trkpt>
      <trkpt lat="46.82392" lon="4.4539">
        <ele>344</ele>
        <time>2022-02-14T19:51:54Z</time>
      </trkpt>
      <trkpt lat="46.82425" lon="4.45281">
        <ele>346</ele>
        <time>2022-02-14T19:52:09Z</time>
      </trkpt>
      <trkpt lat="46.82439" lon="4.45224">
        <ele>347</ele>
        <time>2022-02-14T19:52:16Z</time>
      </trkpt>
      <trkpt lat="46.82449" lon="4.45166">
        <ele>350</ele>
        <time>2022-02-14T19:52:23Z</time>
      </trkpt>
      <trkpt lat="46.82459" lon="4.45094">
        <ele>351</ele>
        <time>2022-02-14T19:52:32Z</time>
      </trkpt>
      <trkpt lat="46.8247" lon="4.45042">
        <ele>353</ele>
        <time>2022-02-14T19:52:39Z</time>
      </trkpt>
      <trkpt lat="46.82491" lon="4.44986">
        <ele>353</ele>
        <time>2022-02-14T19:52:47Z</time>
      </trkpt>
      <trkpt lat="46.82527" lon="4.44909">
        <ele>352</ele>
        <time>2022-02-14T19:52:58Z</time>
      </trkpt>
      <trkpt lat="46.82537" lon="4.44876">
        <ele>352</ele>
        <time>2022-02-14T19:53:02Z</time>
      </trkpt>
      <trkpt lat="46.82541" lon="4.44838">
        <ele>353</ele>
        <time>2022-02-14T19:53:07Z</time>
      </trkpt>
      <trkpt lat="46.8254" lon="4.44715">
        <ele>354</ele>
        <time>2022-02-14T19:53:22Z</time>
      </trkpt>
      <trkpt lat="46.82543" lon="4.44653">
        <ele>353</ele>
        <time>2022-02-14T19:53:30Z</time>
      </trkpt>
      <trkpt lat="46.82548" lon="4.44601">
        <ele>350</ele>
        <time>2022-02-14T19:53:36Z</time>
      </trkpt>
      <trkpt lat="46.8255" lon="4.44569">
        <ele>349</ele>
        <time>2022-02-14T19:53:40Z</time>
      </trkpt>
      <trkpt lat="46.82552" lon="4.44349">
        <ele>349</ele>
        <time>2022-02-14T19:54:07Z</time>
      </trkpt>
      <trkpt lat="46.82561" lon="4.4431">
        <ele>348</ele>
        <time>2022-02-14T19:54:12Z</time>
      </trkpt>
      <trkpt lat="46.82589" lon="4.44231">
        <ele>344</ele>
        <time>2022-02-14T19:54:22Z</time>
      </trkpt>
      <trkpt lat="46.82593" lon="4.44215">
        <ele>344</ele>
        <time>2022-02-14T19:54:25Z</time>
      </trkpt>
      <trkpt lat="46.82595" lon="4.44187">
        <ele>343</ele>
        <time>2022-02-14T19:54:28Z</time>
      </trkpt>
      <trkpt lat="46.82593" lon="4.44171">
        <ele>343</ele>
        <time>2022-02-14T19:54:30Z</time>
      </trkpt>
      <trkpt lat="46.82564" lon="4.44052">
        <ele>345</ele>
        <time>2022-02-14T19:54:45Z</time>
      </trkpt>
      <trkpt lat="46.82558" lon="4.44017">
        <ele>346</ele>
        <time>2022-02-14T19:54:50Z</time>
      </trkpt>
      <trkpt lat="46.82554" lon="4.43967">
        <ele>346</ele>
        <time>2022-02-14T19:54:56Z</time>
      </trkpt>
      <trkpt lat="46.82541" lon="4.43759">
        <ele>345</ele>
        <time>2022-02-14T19:55:21Z</time>
      </trkpt>
      <trkpt lat="46.82538" lon="4.43731">
        <ele>344</ele>
        <time>2022-02-14T19:55:25Z</time>
      </trkpt>
      <trkpt lat="46.82517" lon="4.43632">
        <ele>343</ele>
        <time>2022-02-14T19:55:37Z</time>
      </trkpt>
      <trkpt lat="46.82508" lon="4.43581">
        <ele>343</ele>
        <time>2022-02-14T19:55:44Z</time>
      </trkpt>
      <trkpt lat="46.82497" lon="4.43511">
        <ele>342</ele>
        <time>2022-02-14T19:55:52Z</time>
      </trkpt>
      <trkpt lat="46.82486" lon="4.43424">
        <ele>340</ele>
        <time>2022-02-14T19:56:03Z</time>
      </trkpt>
      <trkpt lat="46.8247" lon="4.4336">
        <ele>339</ele>
        <time>2022-02-14T19:56:12Z</time>
      </trkpt>
      <trkpt lat="46.8245" lon="4.43304">
        <ele>338</ele>
        <time>2022-02-14T19:56:19Z</time>
      </trkpt>
      <trkpt lat="46.82406" lon="4.43237">
        <ele>338</ele>
        <time>2022-02-14T19:56:31Z</time>
      </trkpt>
      <trkpt lat="46.82334" lon="4.43143">
        <ele>337</ele>
        <time>2022-02-14T19:56:48Z</time>
      </trkpt>
      <trkpt lat="46.82313" lon="4.43102">
        <ele>335</ele>
        <time>2022-02-14T19:56:54Z</time>
      </trkpt>
      <trkpt lat="46.82295" lon="4.43017">
        <ele>331</ele>
        <time>2022-02-14T19:57:05Z</time>
      </trkpt>
      <trkpt lat="46.82291" lon="4.42985">
        <ele>330</ele>
        <time>2022-02-14T19:57:09Z</time>
      </trkpt>
      <trkpt lat="46.8229" lon="4.42954">
        <ele>330</ele>
        <time>2022-02-14T19:57:13Z</time>
      </trkpt>
      <trkpt lat="46.82292" lon="4.42923">
        <ele>330</ele>
        <time>2022-02-14T19:57:16Z</time>
      </trkpt>
      <trkpt lat="46.82299" lon="4.42892">
        <ele>330</ele>
        <time>2022-02-14T19:57:20Z</time>
      </trkpt>
      <trkpt lat="46.82304" lon="4.42878">
        <ele>329</ele>
        <time>2022-02-14T19:57:22Z</time>
      </trkpt>
      <trkpt lat="46.82315" lon="4.42818">
        <ele>329</ele>
        <time>2022-02-14T19:57:30Z</time>
      </trkpt>
      <trkpt lat="46.82319" lon="4.42769">
        <ele>330</ele>
        <time>2022-02-14T19:57:36Z</time>
      </trkpt>
      <trkpt lat="46.8232" lon="4.42748">
        <ele>331</ele>
        <time>2022-02-14T19:57:38Z</time>
      </trkpt>
      <trkpt lat="46.82317" lon="4.42707">
        <ele>331</ele>
        <time>2022-02-14T19:57:43Z</time>
      </trkpt>
      <trkpt lat="46.82307" lon="4.42643">
        <ele>330</ele>
        <time>2022-02-14T19:57:51Z</time>
      </trkpt>
      <trkpt lat="46.82241" lon="4.42436">
        <ele>331</ele>
        <time>2022-02-14T19:58:19Z</time>
      </trkpt>
      <trkpt lat="46.82237" lon="4.42408">
        <ele>331</ele>
        <time>2022-02-14T19:58:23Z</time>
      </trkpt>
      <trkpt lat="46.82239" lon="4.42377">
        <ele>331</ele>
        <time>2022-02-14T19:58:26Z</time>
      </trkpt>
      <trkpt lat="46.82332" lon="4.4198">
        <ele>335</ele>
        <time>2022-02-14T19:59:18Z</time>
      </trkpt>
      <trkpt lat="46.82346" lon="4.41929">
        <ele>334</ele>
        <time>2022-02-14T19:59:24Z</time>
      </trkpt>
      <trkpt lat="46.82356" lon="4.41899">
        <ele>334</ele>
        <time>2022-02-14T19:59:28Z</time>
      </trkpt>
      <trkpt lat="46.82417" lon="4.41737">
        <ele>329</ele>
        <time>2022-02-14T19:59:51Z</time>
      </trkpt>
      <trkpt lat="46.82442" lon="4.41686">
        <ele>330</ele>
        <time>2022-02-14T19:59:58Z</time>
      </trkpt>
      <trkpt lat="46.82463" lon="4.41634">
        <ele>332</ele>
        <time>2022-02-14T20:00:06Z</time>
      </trkpt>
      <trkpt lat="46.82474" lon="4.41578">
        <ele>333</ele>
        <time>2022-02-14T20:00:13Z</time>
      </trkpt>
      <trkpt lat="46.82498" lon="4.41424">
        <ele>338</ele>
        <time>2022-02-14T20:00:32Z</time>
      </trkpt>
      <trkpt lat="46.82505" lon="4.41373">
        <ele>339</ele>
        <time>2022-02-14T20:00:38Z</time>
      </trkpt>
      <trkpt lat="46.82513" lon="4.41225">
        <ele>343</ele>
        <time>2022-02-14T20:00:57Z</time>
      </trkpt>
      <trkpt lat="46.82512" lon="4.41152">
        <ele>344</ele>
        <time>2022-02-14T20:01:05Z</time>
      </trkpt>
      <trkpt lat="46.82513" lon="4.41102">
        <ele>343</ele>
        <time>2022-02-14T20:01:11Z</time>
      </trkpt>
      <trkpt lat="46.82531" lon="4.40775">
        <ele>340</ele>
        <time>2022-02-14T20:01:51Z</time>
      </trkpt>
      <trkpt lat="46.8254" lon="4.40739">
        <ele>339</ele>
        <time>2022-02-14T20:01:56Z</time>
      </trkpt>
      <trkpt lat="46.82578" lon="4.40645">
        <ele>338</ele>
        <time>2022-02-14T20:02:09Z</time>
      </trkpt>
      <trkpt lat="46.82586" lon="4.40615">
        <ele>339</ele>
        <time>2022-02-14T20:02:13Z</time>
      </trkpt>
      <trkpt lat="46.82591" lon="4.40585">
        <ele>339</ele>
        <time>2022-02-14T20:02:17Z</time>
      </trkpt>
      <trkpt lat="46.82597" lon="4.40516">
        <ele>340</ele>
        <time>2022-02-14T20:02:26Z</time>
      </trkpt>
      <trkpt lat="46.82607" lon="4.40467">
        <ele>343</ele>
        <time>2022-02-14T20:02:32Z</time>
      </trkpt>
      <trkpt lat="46.82672" lon="4.40269">
        <ele>354</ele>
        <time>2022-02-14T20:02:58Z</time>
      </trkpt>
      <trkpt lat="46.82686" lon="4.40233">
        <ele>354</ele>
        <time>2022-02-14T20:03:04Z</time>
      </trkpt>
      <trkpt lat="46.827" lon="4.40209">
        <ele>354</ele>
        <time>2022-02-14T20:03:07Z</time>
      </trkpt>
      <trkpt lat="46.8273" lon="4.40167">
        <ele>354</ele>
        <time>2022-02-14T20:03:15Z</time>
      </trkpt>
      <trkpt lat="46.82756" lon="4.40121">
        <ele>356</ele>
        <time>2022-02-14T20:03:22Z</time>
      </trkpt>
      <trkpt lat="46.82776" lon="4.40057">
        <ele>357</ele>
        <time>2022-02-14T20:03:31Z</time>
      </trkpt>
      <trkpt lat="46.82797" lon="4.39974">
        <ele>357</ele>
        <time>2022-02-14T20:03:41Z</time>
      </trkpt>
      <trkpt lat="46.82811" lon="4.39907">
        <ele>356</ele>
        <time>2022-02-14T20:03:50Z</time>
      </trkpt>
      <trkpt lat="46.82818" lon="4.39836">
        <ele>354</ele>
        <time>2022-02-14T20:03:59Z</time>
      </trkpt>
      <trkpt lat="46.82836" lon="4.39529">
        <ele>351</ele>
        <time>2022-02-14T20:04:36Z</time>
      </trkpt>
      <trkpt lat="46.8285" lon="4.39373">
        <ele>349</ele>
        <time>2022-02-14T20:04:55Z</time>
      </trkpt>
      <trkpt lat="46.82863" lon="4.39266">
        <ele>347</ele>
        <time>2022-02-14T20:05:09Z</time>
      </trkpt>
      <trkpt lat="46.82868" lon="4.39247">
        <ele>348</ele>
        <time>2022-02-14T20:05:11Z</time>
      </trkpt>
      <trkpt lat="46.82876" lon="4.39228">
        <ele>348</ele>
        <time>2022-02-14T20:05:14Z</time>
      </trkpt>
      <trkpt lat="46.82904" lon="4.39171">
        <ele>350</ele>
        <time>2022-02-14T20:05:22Z</time>
      </trkpt>
      <trkpt lat="46.8291" lon="4.39155">
        <ele>351</ele>
        <time>2022-02-14T20:05:24Z</time>
      </trkpt>
      <trkpt lat="46.82917" lon="4.39127">
        <ele>351</ele>
        <time>2022-02-14T20:05:28Z</time>
      </trkpt>
      <trkpt lat="46.82945" lon="4.38913">
        <ele>345</ele>
        <time>2022-02-14T20:05:55Z</time>
      </trkpt>
      <trkpt lat="46.82954" lon="4.38877">
        <ele>343</ele>
        <time>2022-02-14T20:05:59Z</time>
      </trkpt>
      <trkpt lat="46.82966" lon="4.38849">
        <ele>342</ele>
        <time>2022-02-14T20:06:03Z</time>
      </trkpt>
      <trkpt lat="46.82984" lon="4.3882">
        <ele>342</ele>
        <time>2022-02-14T20:06:08Z</time>
      </trkpt>
      <trkpt lat="46.83017" lon="4.38779">
        <ele>341</ele>
        <time>2022-02-14T20:06:16Z</time>
      </trkpt>
      <trkpt lat="46.83027" lon="4.38762">
        <ele>340</ele>
        <time>2022-02-14T20:06:19Z</time>
      </trkpt>
      <trkpt lat="46.83036" lon="4.38741">
        <ele>340</ele>
        <time>2022-02-14T20:06:22Z</time>
      </trkpt>
      <trkpt lat="46.83041" lon="4.38711">
        <ele>342</ele>
        <time>2022-02-14T20:06:25Z</time>
      </trkpt>
      <trkpt lat="46.83052" lon="4.38612">
        <ele>345</ele>
        <time>2022-02-14T20:06:38Z</time>
      </trkpt>
      <trkpt lat="46.83066" lon="4.38445">
        <ele>339</ele>
        <time>2022-02-14T20:06:58Z</time>
      </trkpt>
      <trkpt lat="46.83125" lon="4.38063">
        <ele>331</ele>
        <time>2022-02-14T20:07:46Z</time>
      </trkpt>
      <trkpt lat="46.83126" lon="4.38041">
        <ele>331</ele>
        <time>2022-02-14T20:07:48Z</time>
      </trkpt>
      <trkpt lat="46.83124" lon="4.3799">
        <ele>330</ele>
        <time>2022-02-14T20:07:55Z</time>
      </trkpt>
      <trkpt lat="46.83119" lon="4.37913">
        <ele>329</ele>
        <time>2022-02-14T20:08:04Z</time>
      </trkpt>
      <trkpt lat="46.83106" lon="4.37784">
        <ele>329</ele>
        <time>2022-02-14T20:08:20Z</time>
      </trkpt>
      <trkpt lat="46.83104" lon="4.37734">
        <ele>329</ele>
        <time>2022-02-14T20:08:26Z</time>
      </trkpt>
      <trkpt lat="46.83113" lon="4.37593">
        <ele>330</ele>
        <time>2022-02-14T20:08:43Z</time>
      </trkpt>
      <trkpt lat="46.83121" lon="4.37549">
        <ele>328</ele>
        <time>2022-02-14T20:08:49Z</time>
      </trkpt>
      <trkpt lat="46.83137" lon="4.37493">
        <ele>326</ele>
        <time>2022-02-14T20:08:56Z</time>
      </trkpt>
      <trkpt lat="46.83144" lon="4.37448">
        <ele>327</ele>
        <time>2022-02-14T20:09:02Z</time>
      </trkpt>
      <trkpt lat="46.83156" lon="4.37353">
        <ele>328</ele>
        <time>2022-02-14T20:09:13Z</time>
      </trkpt>
      <trkpt lat="46.83177" lon="4.37227">
        <ele>328</ele>
        <time>2022-02-14T20:09:29Z</time>
      </trkpt>
      <trkpt lat="46.83191" lon="4.37173">
        <ele>327</ele>
        <time>2022-02-14T20:09:36Z</time>
      </trkpt>
      <trkpt lat="46.832" lon="4.37156">
        <ele>327</ele>
        <time>2022-02-14T20:09:39Z</time>
      </trkpt>
      <trkpt lat="46.83225" lon="4.37124">
        <ele>327</ele>
        <time>2022-02-14T20:09:45Z</time>
      </trkpt>
      <trkpt lat="46.83258" lon="4.37096">
        <ele>327</ele>
        <time>2022-02-14T20:09:52Z</time>
      </trkpt>
      <trkpt lat="46.83277" lon="4.37064">
        <ele>326</ele>
        <time>2022-02-14T20:09:57Z</time>
      </trkpt>
      <trkpt lat="46.83293" lon="4.37026">
        <ele>325</ele>
        <time>2022-02-14T20:10:02Z</time>
      </trkpt>
      <trkpt lat="46.83309" lon="4.36979">
        <ele>326</ele>
        <time>2022-02-14T20:10:09Z</time>
      </trkpt>
      <trkpt lat="46.83314" lon="4.36956">
        <ele>326</ele>
        <time>2022-02-14T20:10:12Z</time>
      </trkpt>
      <trkpt lat="46.83324" lon="4.36901">
        <ele>327</ele>
        <time>2022-02-14T20:10:18Z</time>
      </trkpt>
      <trkpt lat="46.83332" lon="4.36818">
        <ele>326</ele>
        <time>2022-02-14T20:10:29Z</time>
      </trkpt>
      <trkpt lat="46.83358" lon="4.36682">
        <ele>326</ele>
        <time>2022-02-14T20:10:46Z</time>
      </trkpt>
      <trkpt lat="46.83373" lon="4.36618">
        <ele>325</ele>
        <time>2022-02-14T20:10:54Z</time>
      </trkpt>
      <trkpt lat="46.83451" lon="4.3642">
        <ele>321</ele>
        <time>2022-02-14T20:11:22Z</time>
      </trkpt>
      <trkpt lat="46.83463" lon="4.36385">
        <ele>321</ele>
        <time>2022-02-14T20:11:27Z</time>
      </trkpt>
      <trkpt lat="46.83468" lon="4.36362">
        <ele>321</ele>
        <time>2022-02-14T20:11:30Z</time>
      </trkpt>
      <trkpt lat="46.83471" lon="4.36332">
        <ele>319</ele>
        <time>2022-02-14T20:11:33Z</time>
      </trkpt>
      <trkpt lat="46.83479" lon="4.36296">
        <ele>320</ele>
        <time>2022-02-14T20:11:38Z</time>
      </trkpt>
      <trkpt lat="46.83498" lon="4.36245">
        <ele>321</ele>
        <time>2022-02-14T20:11:45Z</time>
      </trkpt>
      <trkpt lat="46.83534" lon="4.36163">
        <ele>322</ele>
        <time>2022-02-14T20:11:57Z</time>
      </trkpt>
      <trkpt lat="46.83558" lon="4.36115">
        <ele>322</ele>
        <time>2022-02-14T20:12:04Z</time>
      </trkpt>
      <trkpt lat="46.83572" lon="4.36092">
        <ele>322</ele>
        <time>2022-02-14T20:12:08Z</time>
      </trkpt>
      <trkpt lat="46.83605" lon="4.36047">
        <ele>320</ele>
        <time>2022-02-14T20:12:16Z</time>
      </trkpt>
      <trkpt lat="46.83638" lon="4.35997">
        <ele>318</ele>
        <time>2022-02-14T20:12:24Z</time>
      </trkpt>
      <trkpt lat="46.83658" lon="4.35955">
        <ele>317</ele>
        <time>2022-02-14T20:12:31Z</time>
      </trkpt>
      <trkpt lat="46.83668" lon="4.35918">
        <ele>317</ele>
        <time>2022-02-14T20:12:35Z</time>
      </trkpt>
      <trkpt lat="46.83671" lon="4.35903">
        <ele>317</ele>
        <time>2022-02-14T20:12:37Z</time>
      </trkpt>
      <trkpt lat="46.83714" lon="4.3566">
        <ele>319</ele>
        <time>2022-02-14T20:13:08Z</time>
      </trkpt>
      <trkpt lat="46.83748" lon="4.35519">
        <ele>317</ele>
        <time>2022-02-14T20:13:26Z</time>
      </trkpt>
      <trkpt lat="46.8376" lon="4.35461">
        <ele>317</ele>
        <time>2022-02-14T20:13:33Z</time>
      </trkpt>
      <trkpt lat="46.83777" lon="4.35366">
        <ele>316</ele>
        <time>2022-02-14T20:13:45Z</time>
      </trkpt>
      <trkpt lat="46.83788" lon="4.35328">
        <ele>315</ele>
        <time>2022-02-14T20:13:50Z</time>
      </trkpt>
      <trkpt lat="46.83804" lon="4.35294">
        <ele>315</ele>
        <time>2022-02-14T20:13:55Z</time>
      </trkpt>
      <trkpt lat="46.8386" lon="4.35192">
        <ele>312</ele>
        <time>2022-02-14T20:14:11Z</time>
      </trkpt>
      <trkpt lat="46.83909" lon="4.35094">
        <ele>311</ele>
        <time>2022-02-14T20:14:26Z</time>
      </trkpt>
      <trkpt lat="46.84116" lon="4.34658">
        <ele>306</ele>
        <time>2022-02-14T20:15:31Z</time>
      </trkpt>
      <trkpt lat="46.8414" lon="4.34614">
        <ele>307</ele>
        <time>2022-02-14T20:15:38Z</time>
      </trkpt>
      <trkpt lat="46.84164" lon="4.34578">
        <ele>307</ele>
        <time>2022-02-14T20:15:44Z</time>
      </trkpt>
      <trkpt lat="46.84261" lon="4.3445">
        <ele>307</ele>
        <time>2022-02-14T20:16:07Z</time>
      </trkpt>
      <trkpt lat="46.84282" lon="4.34421">
        <ele>307</ele>
        <time>2022-02-14T20:16:12Z</time>
      </trkpt>
      <trkpt lat="46.84292" lon="4.34401">
        <ele>307</ele>
        <time>2022-02-14T20:16:15Z</time>
      </trkpt>
      <trkpt lat="46.843" lon="4.34379">
        <ele>307</ele>
        <time>2022-02-14T20:16:18Z</time>
      </trkpt>
      <trkpt lat="46.84315" lon="4.34327">
        <ele>308</ele>
        <time>2022-02-14T20:16:25Z</time>
      </trkpt>
      <trkpt lat="46.84348" lon="4.34207">
        <ele>307</ele>
        <time>2022-02-14T20:16:41Z</time>
      </trkpt>
      <trkpt lat="46.84364" lon="4.34166">
        <ele>307</ele>
        <time>2022-02-14T20:16:46Z</time>
      </trkpt>
      <trkpt lat="46.84417" lon="4.34056">
        <ele>308</ele>
        <time>2022-02-14T20:17:03Z</time>
      </trkpt>
      <trkpt lat="46.84439" lon="4.33998">
        <ele>309</ele>
        <time>2022-02-14T20:17:11Z</time>
      </trkpt>
      <trkpt lat="46.84464" lon="4.3392">
        <ele>309</ele>
        <time>2022-02-14T20:17:21Z</time>
      </trkpt>
      <trkpt lat="46.84477" lon="4.3389">
        <ele>309</ele>
        <time>2022-02-14T20:17:26Z</time>
      </trkpt>
      <trkpt lat="46.84488" lon="4.33871">
        <ele>309</ele>
        <time>2022-02-14T20:17:29Z</time>
      </trkpt>
      <trkpt lat="46.84504" lon="4.33855">
        <ele>310</ele>
        <time>2022-02-14T20:17:32Z</time>
      </trkpt>
      <trkpt lat="46.8453" lon="4.33837">
        <ele>311</ele>
        <time>2022-02-14T20:17:37Z</time>
      </trkpt>
      <trkpt lat="46.84604" lon="4.33796">
        <ele>312</ele>
        <time>2022-02-14T20:17:51Z</time>
      </trkpt>
      <trkpt lat="46.84617" lon="4.33786">
        <ele>312</ele>
        <time>2022-02-14T20:17:54Z</time>
      </trkpt>
      <trkpt lat="46.84629" lon="4.33774">
        <ele>312</ele>
        <time>2022-02-14T20:17:57Z</time>
      </trkpt>
      <trkpt lat="46.84651" lon="4.33747">
        <ele>311</ele>
        <time>2022-02-14T20:18:02Z</time>
      </trkpt>
      <trkpt lat="46.84828" lon="4.33499">
        <ele>316</ele>
        <time>2022-02-14T20:18:45Z</time>
      </trkpt>
      <trkpt lat="46.84881" lon="4.33435">
        <ele>316</ele>
        <time>2022-02-14T20:18:58Z</time>
      </trkpt>
      <trkpt lat="46.84909" lon="4.33398">
        <ele>316</ele>
        <time>2022-02-14T20:19:04Z</time>
      </trkpt>
      <trkpt lat="46.84921" lon="4.3338">
        <ele>317</ele>
        <time>2022-02-14T20:19:07Z</time>
      </trkpt>
      <trkpt lat="46.84941" lon="4.33335">
        <ele>317</ele>
        <time>2022-02-14T20:19:14Z</time>
      </trkpt>
      <trkpt lat="46.85029" lon="4.33116">
        <ele>315</ele>
        <time>2022-02-14T20:19:45Z</time>
      </trkpt>
      <trkpt lat="46.85055" lon="4.33044">
        <ele>316</ele>
        <time>2022-02-14T20:19:55Z</time>
      </trkpt>
      <trkpt lat="46.85075" lon="4.32978">
        <ele>315</ele>
        <time>2022-02-14T20:20:03Z</time>
      </trkpt>
      <trkpt lat="46.85106" lon="4.329">
        <ele>316</ele>
        <time>2022-02-14T20:20:14Z</time>
      </trkpt>
      <trkpt lat="46.85119" lon="4.32865">
        <ele>316</ele>
        <time>2022-02-14T20:20:19Z</time>
      </trkpt>
      <trkpt lat="46.85129" lon="4.32822">
        <ele>317</ele>
        <time>2022-02-14T20:20:25Z</time>
      </trkpt>
      <trkpt lat="46.85143" lon="4.32714">
        <ele>314</ele>
        <time>2022-02-14T20:20:38Z</time>
      </trkpt>
      <trkpt lat="46.85192" lon="4.32458">
        <ele>310</ele>
        <time>2022-02-14T20:21:11Z</time>
      </trkpt>
      <trkpt lat="46.85214" lon="4.32371">
        <ele>308</ele>
        <time>2022-02-14T20:21:22Z</time>
      </trkpt>
      <trkpt lat="46.85221" lon="4.3235">
        <ele>307</ele>
        <time>2022-02-14T20:21:25Z</time>
      </trkpt>
      <trkpt lat="46.85248" lon="4.32292">
        <ele>306</ele>
        <time>2022-02-14T20:21:33Z</time>
      </trkpt>
      <trkpt lat="46.85291" lon="4.32204">
        <ele>308</ele>
        <time>2022-02-14T20:21:46Z</time>
      </trkpt>
      <trkpt lat="46.8532" lon="4.32151">
        <ele>309</ele>
        <time>2022-02-14T20:21:55Z</time>
      </trkpt>
      <trkpt lat="46.85359" lon="4.32091">
        <ele>307</ele>
        <time>2022-02-14T20:22:05Z</time>
      </trkpt>
      <trkpt lat="46.85385" lon="4.32047">
        <ele>306</ele>
        <time>2022-02-14T20:22:12Z</time>
      </trkpt>
      <trkpt lat="46.854" lon="4.3201">
        <ele>306</ele>
        <time>2022-02-14T20:22:17Z</time>
      </trkpt>
      <trkpt lat="46.85434" lon="4.31897">
        <ele>306</ele>
        <time>2022-02-14T20:22:32Z</time>
      </trkpt>
      <trkpt lat="46.85456" lon="4.31837">
        <ele>305</ele>
        <time>2022-02-14T20:22:40Z</time>
      </trkpt>
      <trkpt lat="46.85538" lon="4.3168">
        <ele>304</ele>
        <time>2022-02-14T20:23:04Z</time>
      </trkpt>
      <trkpt lat="46.85586" lon="4.31564">
        <ele>304</ele>
        <time>2022-02-14T20:23:21Z</time>
      </trkpt>
      <trkpt lat="46.85673" lon="4.31296">
        <ele>297</ele>
        <time>2022-02-14T20:23:57Z</time>
      </trkpt>
      <trkpt lat="46.85689" lon="4.31253">
        <ele>295</ele>
        <time>2022-02-14T20:24:03Z</time>
      </trkpt>
      <trkpt lat="46.85726" lon="4.31198">
        <ele>294</ele>
        <time>2022-02-14T20:24:12Z</time>
      </trkpt>
      <trkpt lat="46.8579" lon="4.31128">
        <ele>295</ele>
        <time>2022-02-14T20:24:26Z</time>
      </trkpt>
      <trkpt lat="46.85814" lon="4.31099">
        <ele>297</ele>
        <time>2022-02-14T20:24:32Z</time>
      </trkpt>
      <trkpt lat="46.85831" lon="4.31073">
        <ele>298</ele>
        <time>2022-02-14T20:24:36Z</time>
      </trkpt>
      <trkpt lat="46.85893" lon="4.30952">
        <ele>298</ele>
        <time>2022-02-14T20:24:55Z</time>
      </trkpt>
      <trkpt lat="46.8594" lon="4.30864">
        <ele>297</ele>
        <time>2022-02-14T20:25:08Z</time>
      </trkpt>
      <trkpt lat="46.85971" lon="4.30793">
        <ele>298</ele>
        <time>2022-02-14T20:25:19Z</time>
      </trkpt>
      <trkpt lat="46.85988" lon="4.30749">
        <ele>299</ele>
        <time>2022-02-14T20:25:25Z</time>
      </trkpt>
      <trkpt lat="46.8605" lon="4.30575">
        <ele>299</ele>
        <time>2022-02-14T20:25:49Z</time>
      </trkpt>
      <trkpt lat="46.86064" lon="4.30541">
        <ele>299</ele>
        <time>2022-02-14T20:25:53Z</time>
      </trkpt>
      <trkpt lat="46.86083" lon="4.30502">
        <ele>299</ele>
        <time>2022-02-14T20:25:59Z</time>
      </trkpt>
      <trkpt lat="46.86144" lon="4.30397">
        <ele>297</ele>
        <time>2022-02-14T20:26:16Z</time>
      </trkpt>
      <trkpt lat="46.86163" lon="4.3036">
        <ele>297</ele>
        <time>2022-02-14T20:26:22Z</time>
      </trkpt>
      <trkpt lat="46.86218" lon="4.30225">
        <ele>296</ele>
        <time>2022-02-14T20:26:41Z</time>
      </trkpt>
      <trkpt lat="46.86247" lon="4.30177">
        <ele>296</ele>
        <time>2022-02-14T20:26:49Z</time>
      </trkpt>
      <trkpt lat="46.86264" lon="4.30143">
        <ele>296</ele>
        <time>2022-02-14T20:26:54Z</time>
      </trkpt>
      <trkpt lat="46.86285" lon="4.30089">
        <ele>297</ele>
        <time>2022-02-14T20:27:01Z</time>
      </trkpt>
      <trkpt lat="46.86301" lon="4.30038">
        <ele>298</ele>
        <time>2022-02-14T20:27:08Z</time>
      </trkpt>
      <trkpt lat="46.86311" lon="4.29995">
        <ele>299</ele>
        <time>2022-02-14T20:27:14Z</time>
      </trkpt>
      <trkpt lat="46.8632" lon="4.29947">
        <ele>299</ele>
        <time>2022-02-14T20:27:20Z</time>
      </trkpt>
      <trkpt lat="46.86347" lon="4.29702">
        <ele>302</ele>
        <time>2022-02-14T20:27:50Z</time>
      </trkpt>
      <trkpt lat="46.86359" lon="4.2962">
        <ele>301</ele>
        <time>2022-02-14T20:28:00Z</time>
      </trkpt>
      <trkpt lat="46.86366" lon="4.29587">
        <ele>300</ele>
        <time>2022-02-14T20:28:04Z</time>
      </trkpt>
      <trkpt lat="46.86378" lon="4.29547">
        <ele>300</ele>
        <time>2022-02-14T20:28:10Z</time>
      </trkpt>
      <trkpt lat="46.86397" lon="4.29496">
        <ele>299</ele>
        <time>2022-02-14T20:28:17Z</time>
      </trkpt>
      <trkpt lat="46.86439" lon="4.29415">
        <ele>298</ele>
        <time>2022-02-14T20:28:29Z</time>
      </trkpt>
      <trkpt lat="46.86456" lon="4.29391">
        <ele>296</ele>
        <time>2022-02-14T20:28:33Z</time>
      </trkpt>
      <trkpt lat="46.86522" lon="4.29321">
        <ele>293</ele>
        <time>2022-02-14T20:28:48Z</time>
      </trkpt>
      <trkpt lat="46.86546" lon="4.29288">
        <ele>291</ele>
        <time>2022-02-14T20:28:54Z</time>
      </trkpt>
      <trkpt lat="46.86565" lon="4.29251">
        <ele>290</ele>
        <time>2022-02-14T20:28:59Z</time>
      </trkpt>
      <trkpt lat="46.86578" lon="4.29209">
        <ele>290</ele>
        <time>2022-02-14T20:29:05Z</time>
      </trkpt>
      <trkpt lat="46.86584" lon="4.2918">
        <ele>290</ele>
        <time>2022-02-14T20:29:09Z</time>
      </trkpt>
      <trkpt lat="46.86585" lon="4.29159">
        <ele>290</ele>
        <time>2022-02-14T20:29:11Z</time>
      </trkpt>
      <trkpt lat="46.86585" lon="4.29139">
        <ele>290</ele>
        <time>2022-02-14T20:29:14Z</time>
      </trkpt>
      <trkpt lat="46.86584" lon="4.29082">
        <ele>291</ele>
        <time>2022-02-14T20:29:20Z</time>
      </trkpt>
      <trkpt lat="46.86567" lon="4.2889">
        <ele>295</ele>
        <time>2022-02-14T20:29:44Z</time>
      </trkpt>
      <trkpt lat="46.86566" lon="4.28826">
        <ele>296</ele>
        <time>2022-02-14T20:29:52Z</time>
      </trkpt>
      <trkpt lat="46.86571" lon="4.28767">
        <ele>297</ele>
        <time>2022-02-14T20:29:59Z</time>
      </trkpt>
      <trkpt lat="46.86581" lon="4.28688">
        <ele>298</ele>
        <time>2022-02-14T20:30:09Z</time>
      </trkpt>
      <trkpt lat="46.8659" lon="4.28635">
        <ele>298</ele>
        <time>2022-02-14T20:30:15Z</time>
      </trkpt>
      <trkpt lat="46.86601" lon="4.28584">
        <ele>298</ele>
        <time>2022-02-14T20:30:22Z</time>
      </trkpt>
      <trkpt lat="46.86657" lon="4.28337">
        <ele>299</ele>
        <time>2022-02-14T20:30:54Z</time>
      </trkpt>
      <trkpt lat="46.86725" lon="4.28088">
        <ele>296</ele>
        <time>2022-02-14T20:31:26Z</time>
      </trkpt>
      <trkpt lat="46.8675" lon="4.2802">
        <ele>295</ele>
        <time>2022-02-14T20:31:36Z</time>
      </trkpt>
      <trkpt lat="46.86794" lon="4.27918">
        <ele>296</ele>
        <time>2022-02-14T20:31:50Z</time>
      </trkpt>
      <trkpt lat="46.8681" lon="4.2786">
        <ele>295</ele>
        <time>2022-02-14T20:31:58Z</time>
      </trkpt>
      <trkpt lat="46.86832" lon="4.27772">
        <ele>292</ele>
        <time>2022-02-14T20:32:09Z</time>
      </trkpt>
      <trkpt lat="46.86848" lon="4.27692">
        <ele>293</ele>
        <time>2022-02-14T20:32:19Z</time>
      </trkpt>
      <trkpt lat="46.86871" lon="4.27477">
        <ele>294</ele>
        <time>2022-02-14T20:32:46Z</time>
      </trkpt>
      <trkpt lat="46.86873" lon="4.27437">
        <ele>293</ele>
        <time>2022-02-14T20:32:51Z</time>
      </trkpt>
      <trkpt lat="46.86867" lon="4.27378">
        <ele>291</ele>
        <time>2022-02-14T20:32:58Z</time>
      </trkpt>
      <trkpt lat="46.86829" lon="4.27126">
        <ele>290</ele>
        <time>2022-02-14T20:33:29Z</time>
      </trkpt>
      <trkpt lat="46.86825" lon="4.27097">
        <ele>289</ele>
        <time>2022-02-14T20:33:33Z</time>
      </trkpt>
      <trkpt lat="46.86822" lon="4.26986">
        <ele>289</ele>
        <time>2022-02-14T20:33:47Z</time>
      </trkpt>
      <trkpt lat="46.86818" lon="4.26932">
        <ele>289</ele>
        <time>2022-02-14T20:33:53Z</time>
      </trkpt>
      <trkpt lat="46.86812" lon="4.26874">
        <ele>289</ele>
        <time>2022-02-14T20:34:00Z</time>
      </trkpt>
      <trkpt lat="46.86803" lon="4.26802">
        <ele>290</ele>
        <time>2022-02-14T20:34:09Z</time>
      </trkpt>
      <trkpt lat="46.86796" lon="4.26765">
        <ele>291</ele>
        <time>2022-02-14T20:34:14Z</time>
      </trkpt>
      <trkpt lat="46.86786" lon="4.26725">
        <ele>291</ele>
        <time>2022-02-14T20:34:19Z</time>
      </trkpt>
      <trkpt lat="46.86715" lon="4.26487">
        <ele>288</ele>
        <time>2022-02-14T20:34:51Z</time>
      </trkpt>
      <trkpt lat="46.86706" lon="4.26451">
        <ele>286</ele>
        <time>2022-02-14T20:34:55Z</time>
      </trkpt>
      <trkpt lat="46.86695" lon="4.26394">
        <ele>285</ele>
        <time>2022-02-14T20:35:03Z</time>
      </trkpt>
      <trkpt lat="46.86693" lon="4.26357">
        <ele>285</ele>
        <time>2022-02-14T20:35:07Z</time>
      </trkpt>
      <trkpt lat="46.86694" lon="4.26315">
        <ele>286</ele>
        <time>2022-02-14T20:35:12Z</time>
      </trkpt>
      <trkpt lat="46.867" lon="4.26279">
        <ele>287</ele>
        <time>2022-02-14T20:35:17Z</time>
      </trkpt>
      <trkpt lat="46.86762" lon="4.25995">
        <ele>292</ele>
        <time>2022-02-14T20:35:53Z</time>
      </trkpt>
      <trkpt lat="46.86764" lon="4.25972">
        <ele>292</ele>
        <time>2022-02-14T20:35:56Z</time>
      </trkpt>
      <trkpt lat="46.86763" lon="4.25945">
        <ele>292</ele>
        <time>2022-02-14T20:35:59Z</time>
      </trkpt>
      <trkpt lat="46.86759" lon="4.25911">
        <ele>292</ele>
        <time>2022-02-14T20:36:03Z</time>
      </trkpt>
      <trkpt lat="46.86748" lon="4.25856">
        <ele>293</ele>
        <time>2022-02-14T20:36:10Z</time>
      </trkpt>
      <trkpt lat="46.86694" lon="4.25614">
        <ele>292</ele>
        <time>2022-02-14T20:36:41Z</time>
      </trkpt>
      <trkpt lat="46.86679" lon="4.25565">
        <ele>291</ele>
        <time>2022-02-14T20:36:48Z</time>
      </trkpt>
      <trkpt lat="46.86633" lon="4.25443">
        <ele>290</ele>
        <time>2022-02-14T20:37:05Z</time>
      </trkpt>
      <trkpt lat="46.86588" lon="4.2529">
        <ele>291</ele>
        <time>2022-02-14T20:37:25Z</time>
      </trkpt>
      <trkpt lat="46.86573" lon="4.25244">
        <ele>289</ele>
        <time>2022-02-14T20:37:31Z</time>
      </trkpt>
      <trkpt lat="46.86528" lon="4.25139">
        <ele>288</ele>
        <time>2022-02-14T20:37:46Z</time>
      </trkpt>
      <trkpt lat="46.86421" lon="4.24873">
        <ele>287</ele>
        <time>2022-02-14T20:38:24Z</time>
      </trkpt>
      <trkpt lat="46.8635" lon="4.24717">
        <ele>288</ele>
        <time>2022-02-14T20:38:47Z</time>
      </trkpt>
      <trkpt lat="46.86305" lon="4.24627">
        <ele>287</ele>
        <time>2022-02-14T20:39:00Z</time>
      </trkpt>
      <trkpt lat="46.86293" lon="4.2461">
        <ele>287</ele>
        <time>2022-02-14T20:39:03Z</time>
      </trkpt>
      <trkpt lat="46.86273" lon="4.24576">
        <ele>287</ele>
        <time>2022-02-14T20:39:09Z</time>
      </trkpt>
      <trkpt lat="46.86246" lon="4.24525">
        <ele>287</ele>
        <time>2022-02-14T20:39:16Z</time>
      </trkpt>
      <trkpt lat="46.86208" lon="4.24472">
        <ele>286</ele>
        <time>2022-02-14T20:39:26Z</time>
      </trkpt>
      <trkpt lat="46.86145" lon="4.24402">
        <ele>285</ele>
        <time>2022-02-14T20:39:40Z</time>
      </trkpt>
      <trkpt lat="46.86137" lon="4.24387">
        <ele>285</ele>
        <time>2022-02-14T20:39:42Z</time>
      </trkpt>
      <trkpt lat="46.86134" lon="4.24373">
        <ele>285</ele>
        <time>2022-02-14T20:39:44Z</time>
      </trkpt>
      <trkpt lat="46.86132" lon="4.24348">
        <ele>284</ele>
        <time>2022-02-14T20:39:47Z</time>
      </trkpt>
      <trkpt lat="46.86135" lon="4.24308">
        <ele>284</ele>
        <time>2022-02-14T20:39:52Z</time>
      </trkpt>
      <trkpt lat="46.8615" lon="4.24266">
        <ele>284</ele>
        <time>2022-02-14T20:39:58Z</time>
      </trkpt>
      <trkpt lat="46.86177" lon="4.24209">
        <ele>284</ele>
        <time>2022-02-14T20:40:06Z</time>
      </trkpt>
      <trkpt lat="46.86272" lon="4.24052">
        <ele>284</ele>
        <time>2022-02-14T20:40:32Z</time>
      </trkpt>
      <trkpt lat="46.86301" lon="4.24014">
        <ele>285</ele>
        <time>2022-02-14T20:40:38Z</time>
      </trkpt>
      <trkpt lat="46.86323" lon="4.24002">
        <ele>286</ele>
        <time>2022-02-14T20:40:43Z</time>
      </trkpt>
      <trkpt lat="46.86351" lon="4.24001">
        <ele>286</ele>
        <time>2022-02-14T20:40:48Z</time>
      </trkpt>
      <trkpt lat="46.86395" lon="4.24006">
        <ele>287</ele>
        <time>2022-02-14T20:40:55Z</time>
      </trkpt>
      <trkpt lat="46.86406" lon="4.24004">
        <ele>287</ele>
        <time>2022-02-14T20:40:57Z</time>
      </trkpt>
      <trkpt lat="46.86419" lon="4.23998">
        <ele>287</ele>
        <time>2022-02-14T20:41:00Z</time>
      </trkpt>
      <trkpt lat="46.86441" lon="4.23977">
        <ele>288</ele>
        <time>2022-02-14T20:41:05Z</time>
      </trkpt>
      <trkpt lat="46.86495" lon="4.23914">
        <ele>289</ele>
        <time>2022-02-14T20:41:17Z</time>
      </trkpt>
      <trkpt lat="46.86505" lon="4.23897">
        <ele>289</ele>
        <time>2022-02-14T20:41:20Z</time>
      </trkpt>
      <trkpt lat="46.86514" lon="4.2388">
        <ele>289</ele>
        <time>2022-02-14T20:41:22Z</time>
      </trkpt>
      <trkpt lat="46.86584" lon="4.23685">
        <ele>284</ele>
        <time>2022-02-14T20:41:49Z</time>
      </trkpt>
      <trkpt lat="46.86683" lon="4.23418">
        <ele>287</ele>
        <time>2022-02-14T20:42:26Z</time>
      </trkpt>
      <trkpt lat="46.8676" lon="4.2325">
        <ele>286</ele>
        <time>2022-02-14T20:42:51Z</time>
      </trkpt>
      <trkpt lat="46.86792" lon="4.2317">
        <ele>285</ele>
        <time>2022-02-14T20:43:02Z</time>
      </trkpt>
      <trkpt lat="46.86804" lon="4.23113">
        <ele>285</ele>
        <time>2022-02-14T20:43:09Z</time>
      </trkpt>
      <trkpt lat="46.86807" lon="4.2307">
        <ele>285</ele>
        <time>2022-02-14T20:43:14Z</time>
      </trkpt>
      <trkpt lat="46.86806" lon="4.22995">
        <ele>285</ele>
        <time>2022-02-14T20:43:23Z</time>
      </trkpt>
      <trkpt lat="46.86793" lon="4.22789">
        <ele>284</ele>
        <time>2022-02-14T20:43:49Z</time>
      </trkpt>
      <trkpt lat="46.86788" lon="4.22756">
        <ele>284</ele>
        <time>2022-02-14T20:43:53Z</time>
      </trkpt>
      <trkpt lat="46.86781" lon="4.2273">
        <ele>284</ele>
        <time>2022-02-14T20:43:56Z</time>
      </trkpt>
      <trkpt lat="46.86766" lon="4.2269">
        <ele>283</ele>
        <time>2022-02-14T20:44:02Z</time>
      </trkpt>
      <trkpt lat="46.86729" lon="4.22611">
        <ele>282</ele>
        <time>2022-02-14T20:44:13Z</time>
      </trkpt>
      <trkpt lat="46.86712" lon="4.22561">
        <ele>282</ele>
        <time>2022-02-14T20:44:20Z</time>
      </trkpt>
      <trkpt lat="46.86696" lon="4.22474">
        <ele>283</ele>
        <time>2022-02-14T20:44:31Z</time>
      </trkpt>
      <trkpt lat="46.86693" lon="4.22419">
        <ele>284</ele>
        <time>2022-02-14T20:44:38Z</time>
      </trkpt>
      <trkpt lat="46.86698" lon="4.22359">
        <ele>285</ele>
        <time>2022-02-14T20:44:45Z</time>
      </trkpt>
      <trkpt lat="46.86716" lon="4.22258">
        <ele>285</ele>
        <time>2022-02-14T20:44:58Z</time>
      </trkpt>
      <trkpt lat="46.8672" lon="4.22216">
        <ele>284</ele>
        <time>2022-02-14T20:45:03Z</time>
      </trkpt>
      <trkpt lat="46.86725" lon="4.22109">
        <ele>284</ele>
        <time>2022-02-14T20:45:16Z</time>
      </trkpt>
      <trkpt lat="46.86738" lon="4.21923">
        <ele>287</ele>
        <time>2022-02-14T20:45:39Z</time>
      </trkpt>
      <trkpt lat="46.86778" lon="4.21394">
        <ele>288</ele>
        <time>2022-02-14T20:46:44Z</time>
      </trkpt>
      <trkpt lat="46.86792" lon="4.2118">
        <ele>285</ele>
        <time>2022-02-14T20:47:10Z</time>
      </trkpt>
      <trkpt lat="46.86793" lon="4.21141">
        <ele>285</ele>
        <time>2022-02-14T20:47:14Z</time>
      </trkpt>
      <trkpt lat="46.86791" lon="4.21109">
        <ele>284</ele>
        <time>2022-02-14T20:47:18Z</time>
      </trkpt>
      <trkpt lat="46.86787" lon="4.21077">
        <ele>284</ele>
        <time>2022-02-14T20:47:22Z</time>
      </trkpt>
      <trkpt lat="46.86744" lon="4.20883">
        <ele>286</ele>
        <time>2022-02-14T20:47:47Z</time>
      </trkpt>
      <trkpt lat="46.8674" lon="4.20851">
        <ele>286</ele>
        <time>2022-02-14T20:47:51Z</time>
      </trkpt>
      <trkpt lat="46.86737" lon="4.20751">
        <ele>286</ele>
        <time>2022-02-14T20:48:03Z</time>
      </trkpt>
      <trkpt lat="46.86737" lon="4.20468">
        <ele>283</ele>
        <time>2022-02-14T20:48:38Z</time>
      </trkpt>
      <trkpt lat="46.86744" lon="4.20394">
        <ele>283</ele>
        <time>2022-02-14T20:48:47Z</time>
      </trkpt>
      <trkpt lat="46.86756" lon="4.20293">
        <ele>284</ele>
        <time>2022-02-14T20:48:59Z</time>
      </trkpt>
      <trkpt lat="46.86757" lon="4.20267">
        <ele>284</ele>
        <time>2022-02-14T20:49:02Z</time>
      </trkpt>
      <trkpt lat="46.86756" lon="4.20229">
        <ele>286</ele>
        <time>2022-02-14T20:49:07Z</time>
      </trkpt>
      <trkpt lat="46.86751" lon="4.20201">
        <ele>287</ele>
        <time>2022-02-14T20:49:11Z</time>
      </trkpt>
      <trkpt lat="46.86702" lon="4.2003">
        <ele>287</ele>
        <time>2022-02-14T20:49:33Z</time>
      </trkpt>
      <trkpt lat="46.86666" lon="4.19917">
        <ele>284</ele>
        <time>2022-02-14T20:49:48Z</time>
      </trkpt>
      <trkpt lat="46.86672" lon="4.19909">
        <ele>284</ele>
        <time>2022-02-14T20:49:50Z</time>
      </trkpt>
      <trkpt lat="46.86673" lon="4.19902">
        <ele>284</ele>
        <time>2022-02-14T20:49:51Z</time>
      </trkpt>
      <trkpt lat="46.86671" lon="4.19894">
        <ele>283</ele>
        <time>2022-02-14T20:49:52Z</time>
      </trkpt>
      <trkpt lat="46.86664" lon="4.19887">
        <ele>283</ele>
        <time>2022-02-14T20:49:53Z</time>
      </trkpt>
      <trkpt lat="46.86655" lon="4.19889">
        <ele>282</ele>
        <time>2022-02-14T20:49:55Z</time>
      </trkpt>
      <trkpt lat="46.86644" lon="4.19839">
        <ele>280</ele>
        <time>2022-02-14T20:50:01Z</time>
      </trkpt>
      <trkpt lat="46.86614" lon="4.19748">
        <ele>277</ele>
        <time>2022-02-14T20:50:13Z</time>
      </trkpt>
      <trkpt lat="46.86608" lon="4.1973">
        <ele>277</ele>
        <time>2022-02-14T20:50:16Z</time>
      </trkpt>
      <trkpt lat="46.86598" lon="4.1969">
        <ele>276</ele>
        <time>2022-02-14T20:50:21Z</time>
      </trkpt>
      <trkpt lat="46.86597" lon="4.19658">
        <ele>276</ele>
        <time>2022-02-14T20:50:25Z</time>
      </trkpt>
      <trkpt lat="46.86602" lon="4.19622">
        <ele>275</ele>
        <time>2022-02-14T20:50:29Z</time>
      </trkpt>
      <trkpt lat="46.86648" lon="4.19482">
        <ele>272</ele>
        <time>2022-02-14T20:50:48Z</time>
      </trkpt>
      <trkpt lat="46.86657" lon="4.19446">
        <ele>272</ele>
        <time>2022-02-14T20:50:53Z</time>
      </trkpt>
      <trkpt lat="46.86689" lon="4.19267">
        <ele>270</ele>
        <time>2022-02-14T20:51:15Z</time>
      </trkpt>
      <trkpt lat="46.867" lon="4.19179">
        <ele>271</ele>
        <time>2022-02-14T20:51:26Z</time>
      </trkpt>
      <trkpt lat="46.86703" lon="4.19092">
        <ele>272</ele>
        <time>2022-02-14T20:51:37Z</time>
      </trkpt>
      <trkpt lat="46.86702" lon="4.19068">
        <ele>272</ele>
        <time>2022-02-14T20:51:40Z</time>
      </trkpt>
      <trkpt lat="46.86698" lon="4.19028">
        <ele>272</ele>
        <time>2022-02-14T20:51:45Z</time>
      </trkpt>
      <trkpt lat="46.86658" lon="4.18852">
        <ele>272</ele>
        <time>2022-02-14T20:52:07Z</time>
      </trkpt>
      <trkpt lat="46.86669" lon="4.18841">
        <ele>271</ele>
        <time>2022-02-14T20:52:10Z</time>
      </trkpt>
      <trkpt lat="46.86687" lon="4.18808">
        <ele>271</ele>
        <time>2022-02-14T20:52:15Z</time>
      </trkpt>
      <trkpt lat="46.86696" lon="4.18781">
        <ele>271</ele>
        <time>2022-02-14T20:52:19Z</time>
      </trkpt>
      <trkpt lat="46.867" lon="4.18765">
        <ele>271</ele>
        <time>2022-02-14T20:52:21Z</time>
      </trkpt>
      <trkpt lat="46.86703" lon="4.18729">
        <ele>270</ele>
        <time>2022-02-14T20:52:25Z</time>
      </trkpt>
      <trkpt lat="46.867" lon="4.18697">
        <ele>271</ele>
        <time>2022-02-14T20:52:29Z</time>
      </trkpt>
      <trkpt lat="46.86696" lon="4.18679">
        <ele>271</ele>
        <time>2022-02-14T20:52:31Z</time>
      </trkpt>
      <trkpt lat="46.86677" lon="4.18573">
        <ele>272</ele>
        <time>2022-02-14T20:52:45Z</time>
      </trkpt>
      <trkpt lat="46.86669" lon="4.18528">
        <ele>273</ele>
        <time>2022-02-14T20:52:50Z</time>
      </trkpt>
      <trkpt lat="46.86665" lon="4.18476">
        <ele>273</ele>
        <time>2022-02-14T20:52:57Z</time>
      </trkpt>
      <trkpt lat="46.86669" lon="4.18429">
        <ele>274</ele>
        <time>2022-02-14T20:53:02Z</time>
      </trkpt>
      <trkpt lat="46.86675" lon="4.18404">
        <ele>274</ele>
        <time>2022-02-14T20:53:06Z</time>
      </trkpt>
      <trkpt lat="46.8669" lon="4.1836">
        <ele>274</ele>
        <time>2022-02-14T20:53:12Z</time>
      </trkpt>
      <trkpt lat="46.86709" lon="4.18314">
        <ele>274</ele>
        <time>2022-02-14T20:53:18Z</time>
      </trkpt>
      <trkpt lat="46.86733" lon="4.18249">
        <ele>274</ele>
        <time>2022-02-14T20:53:27Z</time>
      </trkpt>
      <trkpt lat="46.86753" lon="4.18153">
        <ele>273</ele>
        <time>2022-02-14T20:53:39Z</time>
      </trkpt>
      <trkpt lat="46.86769" lon="4.18095">
        <ele>274</ele>
        <time>2022-02-14T20:53:47Z</time>
      </trkpt>
      <trkpt lat="46.86774" lon="4.1807">
        <ele>274</ele>
        <time>2022-02-14T20:53:50Z</time>
      </trkpt>
      <trkpt lat="46.86785" lon="4.17998">
        <ele>273</ele>
        <time>2022-02-14T20:53:59Z</time>
      </trkpt>
      <trkpt lat="46.86792" lon="4.1794">
        <ele>274</ele>
        <time>2022-02-14T20:54:06Z</time>
      </trkpt>
      <trkpt lat="46.86795" lon="4.17896">
        <ele>274</ele>
        <time>2022-02-14T20:54:12Z</time>
      </trkpt>
      <trkpt lat="46.86797" lon="4.17809">
        <ele>277</ele>
        <time>2022-02-14T20:54:22Z</time>
      </trkpt>
      <trkpt lat="46.86792" lon="4.17693">
        <ele>278</ele>
        <time>2022-02-14T20:54:36Z</time>
      </trkpt>
      <trkpt lat="46.86794" lon="4.17655">
        <ele>279</ele>
        <time>2022-02-14T20:54:41Z</time>
      </trkpt>
      <trkpt lat="46.86797" lon="4.1764">
        <ele>279</ele>
        <time>2022-02-14T20:54:43Z</time>
      </trkpt>
      <trkpt lat="46.86803" lon="4.17624">
        <ele>279</ele>
        <time>2022-02-14T20:54:45Z</time>
      </trkpt>
      <trkpt lat="46.86812" lon="4.1761">
        <ele>279</ele>
        <time>2022-02-14T20:54:47Z</time>
      </trkpt>
      <trkpt lat="46.86823" lon="4.17597">
        <ele>279</ele>
        <time>2022-02-14T20:54:50Z</time>
      </trkpt>
      <trkpt lat="46.86839" lon="4.17586">
        <ele>279</ele>
        <time>2022-02-14T20:54:53Z</time>
      </trkpt>
      <trkpt lat="46.86859" lon="4.17578">
        <ele>279</ele>
        <time>2022-02-14T20:54:57Z</time>
      </trkpt>
      <trkpt lat="46.86877" lon="4.17573">
        <ele>279</ele>
        <time>2022-02-14T20:55:00Z</time>
      </trkpt>
      <trkpt lat="46.86892" lon="4.17569">
        <ele>279</ele>
        <time>2022-02-14T20:55:03Z</time>
      </trkpt>
      <trkpt lat="46.86955" lon="4.17556">
        <ele>277</ele>
        <time>2022-02-14T20:55:14Z</time>
      </trkpt>
      <trkpt lat="46.86998" lon="4.17553">
        <ele>274</ele>
        <time>2022-02-14T20:55:22Z</time>
      </trkpt>
      <trkpt lat="46.87022" lon="4.17553">
        <ele>273</ele>
        <time>2022-02-14T20:55:26Z</time>
      </trkpt>
      <trkpt lat="46.87072" lon="4.17561">
        <ele>272</ele>
        <time>2022-02-14T20:55:35Z</time>
      </trkpt>
      <trkpt lat="46.87113" lon="4.17576">
        <ele>273</ele>
        <time>2022-02-14T20:55:42Z</time>
      </trkpt>
      <trkpt lat="46.87229" lon="4.17642">
        <ele>277</ele>
        <time>2022-02-14T20:56:05Z</time>
      </trkpt>
      <trkpt lat="46.87247" lon="4.176">
        <ele>279</ele>
        <time>2022-02-14T20:56:11Z</time>
      </trkpt>
      <trkpt lat="46.87294" lon="4.17526">
        <ele>281</ele>
        <time>2022-02-14T20:56:23Z</time>
      </trkpt>
      <trkpt lat="46.87316" lon="4.17485">
        <ele>283</ele>
        <time>2022-02-14T20:56:29Z</time>
      </trkpt>
      <trkpt lat="46.87328" lon="4.17458">
        <ele>283</ele>
        <time>2022-02-14T20:56:33Z</time>
      </trkpt>
      <trkpt lat="46.8734" lon="4.17424">
        <ele>285</ele>
        <time>2022-02-14T20:56:38Z</time>
      </trkpt>
      <trkpt lat="46.87357" lon="4.1735">
        <ele>285</ele>
        <time>2022-02-14T20:56:47Z</time>
      </trkpt>
      <trkpt lat="46.8737" lon="4.17309">
        <ele>286</ele>
        <time>2022-02-14T20:56:53Z</time>
      </trkpt>
      <trkpt lat="46.8737" lon="4.1729">
        <ele>286</ele>
        <time>2022-02-14T20:56:55Z</time>
      </trkpt>
      <trkpt lat="46.87375" lon="4.17239">
        <ele>287</ele>
        <time>2022-02-14T20:57:01Z</time>
      </trkpt>
      <trkpt lat="46.87376" lon="4.17207">
        <ele>288</ele>
        <time>2022-02-14T20:57:05Z</time>
      </trkpt>
      <trkpt lat="46.87371" lon="4.17079">
        <ele>292</ele>
        <time>2022-02-14T20:57:21Z</time>
      </trkpt>
      <trkpt lat="46.87372" lon="4.17057">
        <ele>292</ele>
        <time>2022-02-14T20:57:24Z</time>
      </trkpt>
      <trkpt lat="46.87382" lon="4.16982">
        <ele>293</ele>
        <time>2022-02-14T20:57:33Z</time>
      </trkpt>
      <trkpt lat="46.87385" lon="4.16942">
        <ele>294</ele>
        <time>2022-02-14T20:57:38Z</time>
      </trkpt>
      <trkpt lat="46.87385" lon="4.1692">
        <ele>294</ele>
        <time>2022-02-14T20:57:40Z</time>
      </trkpt>
      <trkpt lat="46.87373" lon="4.16675">
        <ele>293</ele>
        <time>2022-02-14T20:58:10Z</time>
      </trkpt>
      <trkpt lat="46.87372" lon="4.16644">
        <ele>293</ele>
        <time>2022-02-14T20:58:14Z</time>
      </trkpt>
      <trkpt lat="46.87374" lon="4.16599">
        <ele>292</ele>
        <time>2022-02-14T20:58:20Z</time>
      </trkpt>
      <trkpt lat="46.87426" lon="4.16076">
        <ele>294</ele>
        <time>2022-02-14T20:59:24Z</time>
      </trkpt>
      <trkpt lat="46.87435" lon="4.15996">
        <ele>296</ele>
        <time>2022-02-14T20:59:34Z</time>
      </trkpt>
      <trkpt lat="46.87441" lon="4.15958">
        <ele>297</ele>
        <time>2022-02-14T20:59:38Z</time>
      </trkpt>
      <trkpt lat="46.87462" lon="4.15881">
        <ele>298</ele>
        <time>2022-02-14T20:59:49Z</time>
      </trkpt>
      <trkpt lat="46.87529" lon="4.15653">
        <ele>298</ele>
        <time>2022-02-14T21:00:19Z</time>
      </trkpt>
      <trkpt lat="46.87546" lon="4.15606">
        <ele>299</ele>
        <time>2022-02-14T21:00:25Z</time>
      </trkpt>
      <trkpt lat="46.8762" lon="4.15424">
        <ele>299</ele>
        <time>2022-02-14T21:00:51Z</time>
      </trkpt>
      <trkpt lat="46.87641" lon="4.15388">
        <ele>300</ele>
        <time>2022-02-14T21:00:57Z</time>
      </trkpt>
      <trkpt lat="46.87679" lon="4.15343">
        <ele>301</ele>
        <time>2022-02-14T21:01:05Z</time>
      </trkpt>
      <trkpt lat="46.88279" lon="4.14857">
        <ele>302</ele>
        <time>2022-02-14T21:03:07Z</time>
      </trkpt>
      <trkpt lat="46.88307" lon="4.14813">
        <ele>301</ele>
        <time>2022-02-14T21:03:15Z</time>
      </trkpt>
      <trkpt lat="46.88273" lon="4.14766">
        <ele>301</ele>
        <time>2022-02-14T21:03:23Z</time>
      </trkpt>
      <trkpt lat="46.88242" lon="4.14716">
        <ele>299</ele>
        <time>2022-02-14T21:03:31Z</time>
      </trkpt>
      <trkpt lat="46.8812" lon="4.14507">
        <ele>295</ele>
        <time>2022-02-14T21:04:05Z</time>
      </trkpt>
      <trkpt lat="46.8809" lon="4.14451">
        <ele>296</ele>
        <time>2022-02-14T21:04:13Z</time>
      </trkpt>
      <trkpt lat="46.8806" lon="4.14379">
        <ele>297</ele>
        <time>2022-02-14T21:04:24Z</time>
      </trkpt>
      <trkpt lat="46.88007" lon="4.14217">
        <ele>300</ele>
        <time>2022-02-14T21:04:45Z</time>
      </trkpt>
      <trkpt lat="46.87989" lon="4.14173">
        <ele>299</ele>
        <time>2022-02-14T21:04:52Z</time>
      </trkpt>
      <trkpt lat="46.87971" lon="4.14136">
        <ele>299</ele>
        <time>2022-02-14T21:04:57Z</time>
      </trkpt>
      <trkpt lat="46.87941" lon="4.14086">
        <ele>298</ele>
        <time>2022-02-14T21:05:05Z</time>
      </trkpt>
      <trkpt lat="46.87893" lon="4.14023">
        <ele>299</ele>
        <time>2022-02-14T21:05:17Z</time>
      </trkpt>
      <trkpt lat="46.8784" lon="4.13959">
        <ele>293</ele>
        <time>2022-02-14T21:05:29Z</time>
      </trkpt>
      <trkpt lat="46.87789" lon="4.13891">
        <ele>292</ele>
        <time>2022-02-14T21:05:41Z</time>
      </trkpt>
      <trkpt lat="46.87752" lon="4.13821">
        <ele>293</ele>
        <time>2022-02-14T21:05:52Z</time>
      </trkpt>
      <trkpt lat="46.87646" lon="4.13606">
        <ele>293</ele>
        <time>2022-02-14T21:06:24Z</time>
      </trkpt>
      <trkpt lat="46.87624" lon="4.13566">
        <ele>294</ele>
        <time>2022-02-14T21:06:31Z</time>
      </trkpt>
      <trkpt lat="46.87597" lon="4.13532">
        <ele>295</ele>
        <time>2022-02-14T21:06:37Z</time>
      </trkpt>
      <trkpt lat="46.87551" lon="4.13478">
        <ele>293</ele>
        <time>2022-02-14T21:06:47Z</time>
      </trkpt>
      <trkpt lat="46.87413" lon="4.13352">
        <ele>289</ele>
        <time>2022-02-14T21:07:16Z</time>
      </trkpt>
      <trkpt lat="46.87377" lon="4.13315">
        <ele>291</ele>
        <time>2022-02-14T21:07:24Z</time>
      </trkpt>
      <trkpt lat="46.87345" lon="4.13279">
        <ele>292</ele>
        <time>2022-02-14T21:07:31Z</time>
      </trkpt>
      <trkpt lat="46.8725" lon="4.13153">
        <ele>295</ele>
        <time>2022-02-14T21:07:54Z</time>
      </trkpt>
      <trkpt lat="46.87183" lon="4.13056">
        <ele>298</ele>
        <time>2022-02-14T21:08:11Z</time>
      </trkpt>
      <trkpt lat="46.87103" lon="4.12896">
        <ele>301</ele>
        <time>2022-02-14T21:08:35Z</time>
      </trkpt>
      <trkpt lat="46.87073" lon="4.12844">
        <ele>302</ele>
        <time>2022-02-14T21:08:43Z</time>
      </trkpt>
      <trkpt lat="46.86803" lon="4.12481">
        <ele>299</ele>
        <time>2022-02-14T21:09:49Z</time>
      </trkpt>
      <trkpt lat="46.86767" lon="4.12422">
        <ele>302</ele>
        <time>2022-02-14T21:09:58Z</time>
      </trkpt>
      <trkpt lat="46.86738" lon="4.12365">
        <ele>304</ele>
        <time>2022-02-14T21:10:07Z</time>
      </trkpt>
      <trkpt lat="46.86689" lon="4.12235">
        <ele>304</ele>
        <time>2022-02-14T21:10:25Z</time>
      </trkpt>
      <trkpt lat="46.86672" lon="4.12195">
        <ele>303</ele>
        <time>2022-02-14T21:10:31Z</time>
      </trkpt>
      <trkpt lat="46.86605" lon="4.12068">
        <ele>299</ele>
        <time>2022-02-14T21:10:50Z</time>
      </trkpt>
      <trkpt lat="46.86567" lon="4.11974">
        <ele>296</ele>
        <time>2022-02-14T21:11:03Z</time>
      </trkpt>
      <trkpt lat="46.86394" lon="4.11376">
        <ele>296</ele>
        <time>2022-02-14T21:12:22Z</time>
      </trkpt>
      <trkpt lat="46.86377" lon="4.11325">
        <ele>297</ele>
        <time>2022-02-14T21:12:29Z</time>
      </trkpt>
      <trkpt lat="46.86341" lon="4.11236">
        <ele>299</ele>
        <time>2022-02-14T21:12:42Z</time>
      </trkpt>
      <trkpt lat="46.86318" lon="4.11166">
        <ele>299</ele>
        <time>2022-02-14T21:12:51Z</time>
      </trkpt>
      <trkpt lat="46.86299" lon="4.11084">
        <ele>301</ele>
        <time>2022-02-14T21:13:02Z</time>
      </trkpt>
      <trkpt lat="46.86292" lon="4.11035">
        <ele>303</ele>
        <time>2022-02-14T21:13:08Z</time>
      </trkpt>
      <trkpt lat="46.86287" lon="4.10974">
        <ele>305</ele>
        <time>2022-02-14T21:13:15Z</time>
      </trkpt>
      <trkpt lat="46.86283" lon="4.10824">
        <ele>307</ele>
        <time>2022-02-14T21:13:34Z</time>
      </trkpt>
      <trkpt lat="46.8628" lon="4.1079">
        <ele>306</ele>
        <time>2022-02-14T21:13:38Z</time>
      </trkpt>
      <trkpt lat="46.86274" lon="4.10755">
        <ele>306</ele>
        <time>2022-02-14T21:13:42Z</time>
      </trkpt>
      <trkpt lat="46.86266" lon="4.10718">
        <ele>306</ele>
        <time>2022-02-14T21:13:47Z</time>
      </trkpt>
      <trkpt lat="46.86255" lon="4.10688">
        <ele>306</ele>
        <time>2022-02-14T21:13:51Z</time>
      </trkpt>
      <trkpt lat="46.86241" lon="4.10658">
        <ele>305</ele>
        <time>2022-02-14T21:13:56Z</time>
      </trkpt>
      <trkpt lat="46.86187" lon="4.10567">
        <ele>304</ele>
        <time>2022-02-14T21:14:10Z</time>
      </trkpt>
      <trkpt lat="46.8596" lon="4.10207">
        <ele>294</ele>
        <time>2022-02-14T21:15:10Z</time>
      </trkpt>
      <trkpt lat="46.8594" lon="4.10167">
        <ele>294</ele>
        <time>2022-02-14T21:15:16Z</time>
      </trkpt>
      <trkpt lat="46.85926" lon="4.10124">
        <ele>293</ele>
        <time>2022-02-14T21:15:22Z</time>
      </trkpt>
      <trkpt lat="46.8592" lon="4.10103">
        <ele>293</ele>
        <time>2022-02-14T21:15:24Z</time>
      </trkpt>
      <trkpt lat="46.8591" lon="4.10046">
        <ele>294</ele>
        <time>2022-02-14T21:15:32Z</time>
      </trkpt>
      <trkpt lat="46.85902" lon="4.09983">
        <ele>294</ele>
        <time>2022-02-14T21:15:39Z</time>
      </trkpt>
      <trkpt lat="46.85927" lon="4.09968">
        <ele>294</ele>
        <time>2022-02-14T21:15:44Z</time>
      </trkpt>
      <trkpt lat="46.85942" lon="4.09966">
        <ele>295</ele>
        <time>2022-02-14T21:15:47Z</time>
      </trkpt>
      <trkpt lat="46.85966" lon="4.09976">
        <ele>295</ele>
        <time>2022-02-14T21:15:51Z</time>
      </trkpt>
      <trkpt lat="46.85984" lon="4.09982">
        <ele>295</ele>
        <time>2022-02-14T21:15:55Z</time>
      </trkpt>
      <trkpt lat="46.86038" lon="4.09989">
        <ele>296</ele>
        <time>2022-02-14T21:16:04Z</time>
      </trkpt>
      <trkpt lat="46.86056" lon="4.09988">
        <ele>297</ele>
        <time>2022-02-14T21:16:07Z</time>
      </trkpt>
      <trkpt lat="46.8608" lon="4.09982">
        <ele>298</ele>
        <time>2022-02-14T21:16:12Z</time>
      </trkpt>
      <trkpt lat="46.86116" lon="4.09963">
        <ele>298</ele>
        <time>2022-02-14T21:16:19Z</time>
      </trkpt>
      <trkpt lat="46.86155" lon="4.09933">
        <ele>298</ele>
        <time>2022-02-14T21:16:26Z</time>
      </trkpt>
      <trkpt lat="46.86181" lon="4.09908">
        <ele>298</ele>
        <time>2022-02-14T21:16:32Z</time>
      </trkpt>
      <trkpt lat="46.864" lon="4.09655">
        <ele>306</ele>
        <time>2022-02-14T21:17:22Z</time>
      </trkpt>
      <trkpt lat="46.86423" lon="4.09611">
        <ele>308</ele>
        <time>2022-02-14T21:17:28Z</time>
      </trkpt>
      <trkpt lat="46.86451" lon="4.0954">
        <ele>309</ele>
        <time>2022-02-14T21:17:38Z</time>
      </trkpt>
      <trkpt lat="46.8647" lon="4.09501">
        <ele>309</ele>
        <time>2022-02-14T21:17:44Z</time>
      </trkpt>
      <trkpt lat="46.86488" lon="4.09459">
        <ele>308</ele>
        <time>2022-02-14T21:17:50Z</time>
      </trkpt>
      <trkpt lat="46.86498" lon="4.09428">
        <ele>307</ele>
        <time>2022-02-14T21:17:54Z</time>
      </trkpt>
      <trkpt lat="46.86503" lon="4.094">
        <ele>307</ele>
        <time>2022-02-14T21:17:58Z</time>
      </trkpt>
      <trkpt lat="46.86507" lon="4.09361">
        <ele>306</ele>
        <time>2022-02-14T21:18:03Z</time>
      </trkpt>
      <trkpt lat="46.86505" lon="4.09292">
        <ele>305</ele>
        <time>2022-02-14T21:18:11Z</time>
      </trkpt>
      <trkpt lat="46.86506" lon="4.09231">
        <ele>305</ele>
        <time>2022-02-14T21:18:18Z</time>
      </trkpt>
      <trkpt lat="46.86517" lon="4.09208">
        <ele>305</ele>
        <time>2022-02-14T21:18:22Z</time>
      </trkpt>
      <trkpt lat="46.86563" lon="4.09163">
        <ele>308</ele>
        <time>2022-02-14T21:18:32Z</time>
      </trkpt>
      <trkpt lat="46.86574" lon="4.0915">
        <ele>309</ele>
        <time>2022-02-14T21:18:34Z</time>
      </trkpt>
      <trkpt lat="46.86636" lon="4.08902">
        <ele>315</ele>
        <time>2022-02-14T21:19:06Z</time>
      </trkpt>
      <trkpt lat="46.86641" lon="4.08857">
        <ele>315</ele>
        <time>2022-02-14T21:19:12Z</time>
      </trkpt>
      <trkpt lat="46.86658" lon="4.08779">
        <ele>317</ele>
        <time>2022-02-14T21:19:22Z</time>
      </trkpt>
      <trkpt lat="46.86658" lon="4.08734">
        <ele>317</ele>
        <time>2022-02-14T21:19:27Z</time>
      </trkpt>
      <trkpt lat="46.86662" lon="4.08693">
        <ele>317</ele>
        <time>2022-02-14T21:19:32Z</time>
      </trkpt>
      <trkpt lat="46.86665" lon="4.08619">
        <ele>315</ele>
        <time>2022-02-14T21:19:41Z</time>
      </trkpt>
      <trkpt lat="46.8665" lon="4.08471">
        <ele>308</ele>
        <time>2022-02-14T21:20:00Z</time>
      </trkpt>
      <trkpt lat="46.8665" lon="4.08451">
        <ele>307</ele>
        <time>2022-02-14T21:20:02Z</time>
      </trkpt>
      <trkpt lat="46.86652" lon="4.08439">
        <ele>307</ele>
        <time>2022-02-14T21:20:03Z</time>
      </trkpt>
      <trkpt lat="46.86665" lon="4.08392">
        <ele>306</ele>
        <time>2022-02-14T21:20:10Z</time>
      </trkpt>
      <trkpt lat="46.86704" lon="4.08275">
        <ele>310</ele>
        <time>2022-02-14T21:20:25Z</time>
      </trkpt>
      <trkpt lat="46.86709" lon="4.08213">
        <ele>312</ele>
        <time>2022-02-14T21:20:33Z</time>
      </trkpt>
      <trkpt lat="46.86709" lon="4.08172">
        <ele>313</ele>
        <time>2022-02-14T21:20:38Z</time>
      </trkpt>
      <trkpt lat="46.86714" lon="4.08086">
        <ele>314</ele>
        <time>2022-02-14T21:20:49Z</time>
      </trkpt>
      <trkpt lat="46.86725" lon="4.08029">
        <ele>315</ele>
        <time>2022-02-14T21:20:56Z</time>
      </trkpt>
      <trkpt lat="46.86724" lon="4.08">
        <ele>316</ele>
        <time>2022-02-14T21:20:59Z</time>
      </trkpt>
      <trkpt lat="46.86718" lon="4.07961">
        <ele>315</ele>
        <time>2022-02-14T21:21:04Z</time>
      </trkpt>
      <trkpt lat="46.86707" lon="4.0791">
        <ele>315</ele>
        <time>2022-02-14T21:21:11Z</time>
      </trkpt>
      <trkpt lat="46.86696" lon="4.07876">
        <ele>316</ele>
        <time>2022-02-14T21:21:15Z</time>
      </trkpt>
      <trkpt lat="46.86665" lon="4.07819">
        <ele>318</ele>
        <time>2022-02-14T21:21:24Z</time>
      </trkpt>
      <trkpt lat="46.86654" lon="4.07792">
        <ele>318</ele>
        <time>2022-02-14T21:21:28Z</time>
      </trkpt>
      <trkpt lat="46.86649" lon="4.07765">
        <ele>319</ele>
        <time>2022-02-14T21:21:31Z</time>
      </trkpt>
      <trkpt lat="46.86648" lon="4.07487">
        <ele>325</ele>
        <time>2022-02-14T21:22:05Z</time>
      </trkpt>
      <trkpt lat="46.8665" lon="4.0747">
        <ele>325</ele>
        <time>2022-02-14T21:22:07Z</time>
      </trkpt>
      <trkpt lat="46.86658" lon="4.07451">
        <ele>326</ele>
        <time>2022-02-14T21:22:10Z</time>
      </trkpt>
      <trkpt lat="46.86716" lon="4.07381">
        <ele>330</ele>
        <time>2022-02-14T21:22:23Z</time>
      </trkpt>
      <trkpt lat="46.86754" lon="4.07282">
        <ele>331</ele>
        <time>2022-02-14T21:22:37Z</time>
      </trkpt>
      <trkpt lat="46.8679" lon="4.07245">
        <ele>333</ele>
        <time>2022-02-14T21:22:45Z</time>
      </trkpt>
      <trkpt lat="46.86799" lon="4.07226">
        <ele>334</ele>
        <time>2022-02-14T21:22:48Z</time>
      </trkpt>
      <trkpt lat="46.86804" lon="4.07193">
        <ele>334</ele>
        <time>2022-02-14T21:22:52Z</time>
      </trkpt>
      <trkpt lat="46.86803" lon="4.07096">
        <ele>335</ele>
        <time>2022-02-14T21:23:04Z</time>
      </trkpt>
      <trkpt lat="46.86805" lon="4.07063">
        <ele>336</ele>
        <time>2022-02-14T21:23:08Z</time>
      </trkpt>
      <trkpt lat="46.8681" lon="4.07025">
        <ele>337</ele>
        <time>2022-02-14T21:23:12Z</time>
      </trkpt>
      <trkpt lat="46.86834" lon="4.06924">
        <ele>341</ele>
        <time>2022-02-14T21:23:25Z</time>
      </trkpt>
      <trkpt lat="46.86851" lon="4.06874">
        <ele>340</ele>
        <time>2022-02-14T21:23:32Z</time>
      </trkpt>
      <trkpt lat="46.86871" lon="4.06846">
        <ele>339</ele>
        <time>2022-02-14T21:23:37Z</time>
      </trkpt>
      <trkpt lat="46.86903" lon="4.06819">
        <ele>339</ele>
        <time>2022-02-14T21:23:44Z</time>
      </trkpt>
      <trkpt lat="46.86926" lon="4.06793">
        <ele>339</ele>
        <time>2022-02-14T21:23:49Z</time>
      </trkpt>
      <trkpt lat="46.86939" lon="4.06755">
        <ele>340</ele>
        <time>2022-02-14T21:23:54Z</time>
      </trkpt>
      <trkpt lat="46.86947" lon="4.06705">
        <ele>342</ele>
        <time>2022-02-14T21:24:00Z</time>
      </trkpt>
      <trkpt lat="46.86951" lon="4.06616">
        <ele>345</ele>
        <time>2022-02-14T21:24:11Z</time>
      </trkpt>
      <trkpt lat="46.86956" lon="4.06557">
        <ele>345</ele>
        <time>2022-02-14T21:24:18Z</time>
      </trkpt>
      <trkpt lat="46.87038" lon="4.06349">
        <ele>348</ele>
        <time>2022-02-14T21:24:48Z</time>
      </trkpt>
      <trkpt lat="46.87058" lon="4.06302">
        <ele>349</ele>
        <time>2022-02-14T21:24:54Z</time>
      </trkpt>
      <trkpt lat="46.87078" lon="4.06244">
        <ele>351</ele>
        <time>2022-02-14T21:25:02Z</time>
      </trkpt>
      <trkpt lat="46.87082" lon="4.06208">
        <ele>352</ele>
        <time>2022-02-14T21:25:07Z</time>
      </trkpt>
      <trkpt lat="46.87075" lon="4.06004">
        <ele>357</ele>
        <time>2022-02-14T21:25:32Z</time>
      </trkpt>
      <trkpt lat="46.87066" lon="4.05847">
        <ele>357</ele>
        <time>2022-02-14T21:25:51Z</time>
      </trkpt>
      <trkpt lat="46.87066" lon="4.05798">
        <ele>357</ele>
        <time>2022-02-14T21:25:57Z</time>
      </trkpt>
      <trkpt lat="46.87072" lon="4.05721">
        <ele>357</ele>
        <time>2022-02-14T21:26:06Z</time>
      </trkpt>
      <trkpt lat="46.87082" lon="4.05631">
        <ele>358</ele>
        <time>2022-02-14T21:26:17Z</time>
      </trkpt>
      <trkpt lat="46.87089" lon="4.05531">
        <ele>353</ele>
        <time>2022-02-14T21:26:29Z</time>
      </trkpt>
      <trkpt lat="46.87104" lon="4.05355">
        <ele>356</ele>
        <time>2022-02-14T21:26:51Z</time>
      </trkpt>
      <trkpt lat="46.87115" lon="4.05253">
        <ele>364</ele>
        <time>2022-02-14T21:27:04Z</time>
      </trkpt>
      <trkpt lat="46.87125" lon="4.05213">
        <ele>364</ele>
        <time>2022-02-14T21:27:09Z</time>
      </trkpt>
      <trkpt lat="46.87139" lon="4.05189">
        <ele>365</ele>
        <time>2022-02-14T21:27:13Z</time>
      </trkpt>
      <trkpt lat="46.87162" lon="4.05175">
        <ele>368</ele>
        <time>2022-02-14T21:27:17Z</time>
      </trkpt>
      <trkpt lat="46.87184" lon="4.05156">
        <ele>372</ele>
        <time>2022-02-14T21:27:22Z</time>
      </trkpt>
      <trkpt lat="46.87205" lon="4.05126">
        <ele>378</ele>
        <time>2022-02-14T21:27:27Z</time>
      </trkpt>
      <trkpt lat="46.87235" lon="4.0502">
        <ele>387</ele>
        <time>2022-02-14T21:27:41Z</time>
      </trkpt>
      <trkpt lat="46.87267" lon="4.04977">
        <ele>389</ele>
        <time>2022-02-14T21:27:48Z</time>
      </trkpt>
      <trkpt lat="46.87273" lon="4.04955">
        <ele>389</ele>
        <time>2022-02-14T21:27:51Z</time>
      </trkpt>
      <trkpt lat="46.87293" lon="4.04848">
        <ele>389</ele>
        <time>2022-02-14T21:28:05Z</time>
      </trkpt>
      <trkpt lat="46.87303" lon="4.04821">
        <ele>390</ele>
        <time>2022-02-14T21:28:09Z</time>
      </trkpt>
      <trkpt lat="46.87333" lon="4.04781">
        <ele>391</ele>
        <time>2022-02-14T21:28:16Z</time>
      </trkpt>
      <trkpt lat="46.87398" lon="4.04721">
        <ele>392</ele>
        <time>2022-02-14T21:28:29Z</time>
      </trkpt>
      <trkpt lat="46.87437" lon="4.0468">
        <ele>395</ele>
        <time>2022-02-14T21:28:38Z</time>
      </trkpt>
      <trkpt lat="46.87486" lon="4.04644">
        <ele>399</ele>
        <time>2022-02-14T21:28:48Z</time>
      </trkpt>
      <trkpt lat="46.87513" lon="4.04644">
        <ele>400</ele>
        <time>2022-02-14T21:28:53Z</time>
      </trkpt>
      <trkpt lat="46.87535" lon="4.04638">
        <ele>402</ele>
        <time>2022-02-14T21:28:57Z</time>
      </trkpt>
      <trkpt lat="46.87588" lon="4.046">
        <ele>409</ele>
        <time>2022-02-14T21:29:07Z</time>
      </trkpt>
      <trkpt lat="46.87609" lon="4.0459">
        <ele>411</ele>
        <time>2022-02-14T21:29:11Z</time>
      </trkpt>
      <trkpt lat="46.87632" lon="4.04585">
        <ele>413</ele>
        <time>2022-02-14T21:29:15Z</time>
      </trkpt>
      <trkpt lat="46.87666" lon="4.04572">
        <ele>417</ele>
        <time>2022-02-14T21:29:21Z</time>
      </trkpt>
      <trkpt lat="46.87692" lon="4.04551">
        <ele>419</ele>
        <time>2022-02-14T21:29:27Z</time>
      </trkpt>
      <trkpt lat="46.87707" lon="4.04514">
        <ele>421</ele>
        <time>2022-02-14T21:29:32Z</time>
      </trkpt>
      <trkpt lat="46.87711" lon="4.04482">
        <ele>422</ele>
        <time>2022-02-14T21:29:36Z</time>
      </trkpt>
      <trkpt lat="46.87711" lon="4.04435">
        <ele>423</ele>
        <time>2022-02-14T21:29:42Z</time>
      </trkpt>
      <trkpt lat="46.87702" lon="4.04385">
        <ele>426</ele>
        <time>2022-02-14T21:29:48Z</time>
      </trkpt>
      <trkpt lat="46.87696" lon="4.04362">
        <ele>428</ele>
        <time>2022-02-14T21:29:51Z</time>
      </trkpt>
      <trkpt lat="46.87699" lon="4.04325">
        <ele>430</ele>
        <time>2022-02-14T21:29:55Z</time>
      </trkpt>
      <trkpt lat="46.87714" lon="4.04295">
        <ele>432</ele>
        <time>2022-02-14T21:30:00Z</time>
      </trkpt>
      <trkpt lat="46.8774" lon="4.04293">
        <ele>431</ele>
        <time>2022-02-14T21:30:05Z</time>
      </trkpt>
      <trkpt lat="46.87765" lon="4.04276">
        <ele>432</ele>
        <time>2022-02-14T21:30:09Z</time>
      </trkpt>
      <trkpt lat="46.87787" lon="4.04244">
        <ele>435</ele>
        <time>2022-02-14T21:30:15Z</time>
      </trkpt>
      <trkpt lat="46.87812" lon="4.04227">
        <ele>437</ele>
        <time>2022-02-14T21:30:20Z</time>
      </trkpt>
      <trkpt lat="46.87847" lon="4.04224">
        <ele>436</ele>
        <time>2022-02-14T21:30:26Z</time>
      </trkpt>
      <trkpt lat="46.87874" lon="4.04214">
        <ele>436</ele>
        <time>2022-02-14T21:30:31Z</time>
      </trkpt>
      <trkpt lat="46.87925" lon="4.0422">
        <ele>434</ele>
        <time>2022-02-14T21:30:40Z</time>
      </trkpt>
      <trkpt lat="46.87936" lon="4.04211">
        <ele>434</ele>
        <time>2022-02-14T21:30:42Z</time>
      </trkpt>
      <trkpt lat="46.87896" lon="4.04076">
        <ele>435</ele>
        <time>2022-02-14T21:31:00Z</time>
      </trkpt>
      <trkpt lat="46.87878" lon="4.04025">
        <ele>434</ele>
        <time>2022-02-14T21:31:07Z</time>
      </trkpt>
      <trkpt lat="46.87838" lon="4.03934">
        <ele>429</ele>
        <time>2022-02-14T21:31:20Z</time>
      </trkpt>
      <trkpt lat="46.87796" lon="4.03847">
        <ele>427</ele>
        <time>2022-02-14T21:31:33Z</time>
      </trkpt>
      <trkpt lat="46.87763" lon="4.03793">
        <ele>424</ele>
        <time>2022-02-14T21:31:42Z</time>
      </trkpt>
      <trkpt lat="46.87743" lon="4.03766">
        <ele>424</ele>
        <time>2022-02-14T21:31:47Z</time>
      </trkpt>
      <trkpt lat="46.87677" lon="4.03691">
        <ele>421</ele>
        <time>2022-02-14T21:32:02Z</time>
      </trkpt>
      <trkpt lat="46.87653" lon="4.03666">
        <ele>419</ele>
        <time>2022-02-14T21:32:07Z</time>
      </trkpt>
      <trkpt lat="46.87635" lon="4.03651">
        <ele>419</ele>
        <time>2022-02-14T21:32:11Z</time>
      </trkpt>
      <trkpt lat="46.87612" lon="4.03634">
        <ele>418</ele>
        <time>2022-02-14T21:32:15Z</time>
      </trkpt>
      <trkpt lat="46.87543" lon="4.03592">
        <ele>415</ele>
        <time>2022-02-14T21:32:29Z</time>
      </trkpt>
      <trkpt lat="46.87524" lon="4.03576">
        <ele>414</ele>
        <time>2022-02-14T21:32:33Z</time>
      </trkpt>
      <trkpt lat="46.87475" lon="4.03528">
        <ele>413</ele>
        <time>2022-02-14T21:32:43Z</time>
      </trkpt>
      <trkpt lat="46.87409" lon="4.03445">
        <ele>411</ele>
        <time>2022-02-14T21:32:59Z</time>
      </trkpt>
      <trkpt lat="46.87383" lon="4.03398">
        <ele>408</ele>
        <time>2022-02-14T21:33:06Z</time>
      </trkpt>
      <trkpt lat="46.87366" lon="4.03358">
        <ele>407</ele>
        <time>2022-02-14T21:33:12Z</time>
      </trkpt>
      <trkpt lat="46.8735" lon="4.03327">
        <ele>406</ele>
        <time>2022-02-14T21:33:16Z</time>
      </trkpt>
      <trkpt lat="46.87335" lon="4.03305">
        <ele>406</ele>
        <time>2022-02-14T21:33:20Z</time>
      </trkpt>
      <trkpt lat="46.87324" lon="4.03293">
        <ele>405</ele>
        <time>2022-02-14T21:33:23Z</time>
      </trkpt>
      <trkpt lat="46.87311" lon="4.03285">
        <ele>405</ele>
        <time>2022-02-14T21:33:25Z</time>
      </trkpt>
      <trkpt lat="46.87294" lon="4.03279">
        <ele>404</ele>
        <time>2022-02-14T21:33:28Z</time>
      </trkpt>
      <trkpt lat="46.87263" lon="4.03274">
        <ele>404</ele>
        <time>2022-02-14T21:33:34Z</time>
      </trkpt>
      <trkpt lat="46.8724" lon="4.03272">
        <ele>404</ele>
        <time>2022-02-14T21:33:38Z</time>
      </trkpt>
      <trkpt lat="46.87185" lon="4.0328">
        <ele>409</ele>
        <time>2022-02-14T21:33:48Z</time>
      </trkpt>
      <trkpt lat="46.87166" lon="4.03277">
        <ele>410</ele>
        <time>2022-02-14T21:33:51Z</time>
      </trkpt>
      <trkpt lat="46.87157" lon="4.03272">
        <ele>411</ele>
        <time>2022-02-14T21:33:53Z</time>
      </trkpt>
      <trkpt lat="46.87147" lon="4.03262">
        <ele>411</ele>
        <time>2022-02-14T21:33:55Z</time>
      </trkpt>
      <trkpt lat="46.87135" lon="4.03232">
        <ele>411</ele>
        <time>2022-02-14T21:33:59Z</time>
      </trkpt>
      <trkpt lat="46.87133" lon="4.03213">
        <ele>410</ele>
        <time>2022-02-14T21:34:02Z</time>
      </trkpt>
      <trkpt lat="46.87134" lon="4.03198">
        <ele>410</ele>
        <time>2022-02-14T21:34:03Z</time>
      </trkpt>
      <trkpt lat="46.87142" lon="4.03166">
        <ele>410</ele>
        <time>2022-02-14T21:34:08Z</time>
      </trkpt>
      <trkpt lat="46.87159" lon="4.03125">
        <ele>410</ele>
        <time>2022-02-14T21:34:13Z</time>
      </trkpt>
      <trkpt lat="46.87174" lon="4.03081">
        <ele>410</ele>
        <time>2022-02-14T21:34:19Z</time>
      </trkpt>
      <trkpt lat="46.87183" lon="4.03049">
        <ele>408</ele>
        <time>2022-02-14T21:34:24Z</time>
      </trkpt>
      <trkpt lat="46.87183" lon="4.03041">
        <ele>408</ele>
        <time>2022-02-14T21:34:25Z</time>
      </trkpt>
      <trkpt lat="46.87179" lon="4.03036">
        <ele>408</ele>
        <time>2022-02-14T21:34:25Z</time>
      </trkpt>
      <trkpt lat="46.87173" lon="4.03034">
        <ele>408</ele>
        <time>2022-02-14T21:34:27Z</time>
      </trkpt>
      <trkpt lat="46.87082" lon="4.03037">
        <ele>405</ele>
        <time>2022-02-14T21:34:43Z</time>
      </trkpt>
      <trkpt lat="46.87041" lon="4.03018">
        <ele>405</ele>
        <time>2022-02-14T21:34:50Z</time>
      </trkpt>
      <trkpt lat="46.86999" lon="4.02989">
        <ele>408</ele>
        <time>2022-02-14T21:34:59Z</time>
      </trkpt>
      <trkpt lat="46.87036" lon="4.02888">
        <ele>407</ele>
        <time>2022-02-14T21:35:13Z</time>
      </trkpt>
      <trkpt lat="46.87039" lon="4.02857">
        <ele>408</ele>
        <time>2022-02-14T21:35:16Z</time>
      </trkpt>
      <trkpt lat="46.87033" lon="4.02713">
        <ele>411</ele>
        <time>2022-02-14T21:35:34Z</time>
      </trkpt>
      <trkpt lat="46.87035" lon="4.02666">
        <ele>411</ele>
        <time>2022-02-14T21:35:40Z</time>
      </trkpt>
      <trkpt lat="46.87065" lon="4.02494">
        <ele>413</ele>
        <time>2022-02-14T21:36:01Z</time>
      </trkpt>
      <trkpt lat="46.87138" lon="4.02295">
        <ele>420</ele>
        <time>2022-02-14T21:36:29Z</time>
      </trkpt>
      <trkpt lat="46.87171" lon="4.02185">
        <ele>409</ele>
        <time>2022-02-14T21:36:43Z</time>
      </trkpt>
      <trkpt lat="46.87181" lon="4.02134">
        <ele>403</ele>
        <time>2022-02-14T21:36:50Z</time>
      </trkpt>
      <trkpt lat="46.87185" lon="4.02097">
        <ele>400</ele>
        <time>2022-02-14T21:36:54Z</time>
      </trkpt>
      <trkpt lat="46.87184" lon="4.02058">
        <ele>397</ele>
        <time>2022-02-14T21:36:59Z</time>
      </trkpt>
      <trkpt lat="46.87172" lon="4.01932">
        <ele>388</ele>
        <time>2022-02-14T21:37:15Z</time>
      </trkpt>
      <trkpt lat="46.87174" lon="4.01891">
        <ele>385</ele>
        <time>2022-02-14T21:37:20Z</time>
      </trkpt>
      <trkpt lat="46.87186" lon="4.01842">
        <ele>382</ele>
        <time>2022-02-14T21:37:26Z</time>
      </trkpt>
      <trkpt lat="46.87223" lon="4.01748">
        <ele>375</ele>
        <time>2022-02-14T21:37:39Z</time>
      </trkpt>
      <trkpt lat="46.87266" lon="4.01652">
        <ele>378</ele>
        <time>2022-02-14T21:37:53Z</time>
      </trkpt>
      <trkpt lat="46.87312" lon="4.01539">
        <ele>379</ele>
        <time>2022-02-14T21:38:09Z</time>
      </trkpt>
      <trkpt lat="46.87354" lon="4.01452">
        <ele>377</ele>
        <time>2022-02-14T21:38:22Z</time>
      </trkpt>
      <trkpt lat="46.87363" lon="4.01412">
        <ele>377</ele>
        <time>2022-02-14T21:38:27Z</time>
      </trkpt>
      <trkpt lat="46.87366" lon="4.0136">
        <ele>377</ele>
        <time>2022-02-14T21:38:34Z</time>
      </trkpt>
      <trkpt lat="46.87363" lon="4.01322">
        <ele>377</ele>
        <time>2022-02-14T21:38:38Z</time>
      </trkpt>
      <trkpt lat="46.87366" lon="4.01291">
        <ele>375</ele>
        <time>2022-02-14T21:38:42Z</time>
      </trkpt>
      <trkpt lat="46.87377" lon="4.01259">
        <ele>372</ele>
        <time>2022-02-14T21:38:46Z</time>
      </trkpt>
      <trkpt lat="46.87395" lon="4.01232">
        <ele>372</ele>
        <time>2022-02-14T21:38:51Z</time>
      </trkpt>
      <trkpt lat="46.87431" lon="4.01212">
        <ele>372</ele>
        <time>2022-02-14T21:38:58Z</time>
      </trkpt>
      <trkpt lat="46.87479" lon="4.01181">
        <ele>372</ele>
        <time>2022-02-14T21:39:07Z</time>
      </trkpt>
      <trkpt lat="46.87519" lon="4.01161">
        <ele>370</ele>
        <time>2022-02-14T21:39:15Z</time>
      </trkpt>
      <trkpt lat="46.87535" lon="4.01139">
        <ele>369</ele>
        <time>2022-02-14T21:39:19Z</time>
      </trkpt>
      <trkpt lat="46.87544" lon="4.01108">
        <ele>368</ele>
        <time>2022-02-14T21:39:23Z</time>
      </trkpt>
      <trkpt lat="46.87557" lon="4.01005">
        <ele>370</ele>
        <time>2022-02-14T21:39:35Z</time>
      </trkpt>
      <trkpt lat="46.87569" lon="4.00975">
        <ele>372</ele>
        <time>2022-02-14T21:39:40Z</time>
      </trkpt>
      <trkpt lat="46.87587" lon="4.00955">
        <ele>372</ele>
        <time>2022-02-14T21:39:44Z</time>
      </trkpt>
      <trkpt lat="46.87617" lon="4.00937">
        <ele>372</ele>
        <time>2022-02-14T21:39:49Z</time>
      </trkpt>
      <trkpt lat="46.87652" lon="4.00922">
        <ele>372</ele>
        <time>2022-02-14T21:39:56Z</time>
      </trkpt>
      <trkpt lat="46.87676" lon="4.00909">
        <ele>371</ele>
        <time>2022-02-14T21:40:00Z</time>
      </trkpt>
      <trkpt lat="46.87696" lon="4.00886">
        <ele>372</ele>
        <time>2022-02-14T21:40:05Z</time>
      </trkpt>
      <trkpt lat="46.8772" lon="4.00826">
        <ele>376</ele>
        <time>2022-02-14T21:40:13Z</time>
      </trkpt>
      <trkpt lat="46.87742" lon="4.00777">
        <ele>375</ele>
        <time>2022-02-14T21:40:21Z</time>
      </trkpt>
      <trkpt lat="46.8775" lon="4.00727">
        <ele>380</ele>
        <time>2022-02-14T21:40:27Z</time>
      </trkpt>
      <trkpt lat="46.87759" lon="4.00695">
        <ele>384</ele>
        <time>2022-02-14T21:40:31Z</time>
      </trkpt>
      <trkpt lat="46.87776" lon="4.00666">
        <ele>384</ele>
        <time>2022-02-14T21:40:36Z</time>
      </trkpt>
      <trkpt lat="46.87793" lon="4.00632">
        <ele>382</ele>
        <time>2022-02-14T21:40:41Z</time>
      </trkpt>
      <trkpt lat="46.87803" lon="4.00601">
        <ele>382</ele>
        <time>2022-02-14T21:40:45Z</time>
      </trkpt>
      <trkpt lat="46.87808" lon="4.00564">
        <ele>381</ele>
        <time>2022-02-14T21:40:50Z</time>
      </trkpt>
      <trkpt lat="46.87808" lon="4.00553">
        <ele>381</ele>
        <time>2022-02-14T21:40:51Z</time>
      </trkpt>
      <trkpt lat="46.87803" lon="4.00525">
        <ele>381</ele>
        <time>2022-02-14T21:40:54Z</time>
      </trkpt>
      <trkpt lat="46.87817" lon="4.00411">
        <ele>373</ele>
        <time>2022-02-14T21:41:08Z</time>
      </trkpt>
      <trkpt lat="46.87823" lon="4.00379">
        <ele>374</ele>
        <time>2022-02-14T21:41:13Z</time>
      </trkpt>
      <trkpt lat="46.87831" lon="4.00359">
        <ele>374</ele>
        <time>2022-02-14T21:41:15Z</time>
      </trkpt>
      <trkpt lat="46.87837" lon="4.0035">
        <ele>374</ele>
        <time>2022-02-14T21:41:17Z</time>
      </trkpt>
      <trkpt lat="46.87871" lon="4.00316">
        <ele>371</ele>
        <time>2022-02-14T21:41:24Z</time>
      </trkpt>
      <trkpt lat="46.87912" lon="4.00287">
        <ele>369</ele>
        <time>2022-02-14T21:41:32Z</time>
      </trkpt>
      <trkpt lat="46.87957" lon="4.0027">
        <ele>362</ele>
        <time>2022-02-14T21:41:41Z</time>
      </trkpt>
      <trkpt lat="46.87973" lon="4.00239">
        <ele>360</ele>
        <time>2022-02-14T21:41:45Z</time>
      </trkpt>
      <trkpt lat="46.87989" lon="4.00172">
        <ele>360</ele>
        <time>2022-02-14T21:41:54Z</time>
      </trkpt>
      <trkpt lat="46.88002" lon="4.00043">
        <ele>355</ele>
        <time>2022-02-14T21:42:10Z</time>
      </trkpt>
      <trkpt lat="46.88003" lon="3.99994">
        <ele>353</ele>
        <time>2022-02-14T21:42:16Z</time>
      </trkpt>
      <trkpt lat="46.8801" lon="3.99957">
        <ele>345</ele>
        <time>2022-02-14T21:42:20Z</time>
      </trkpt>
      <trkpt lat="46.88022" lon="3.99947">
        <ele>341</ele>
        <time>2022-02-14T21:42:23Z</time>
      </trkpt>
      <trkpt lat="46.88038" lon="3.99948">
        <ele>336</ele>
        <time>2022-02-14T21:42:26Z</time>
      </trkpt>
      <trkpt lat="46.88064" lon="3.99961">
        <ele>330</ele>
        <time>2022-02-14T21:42:31Z</time>
      </trkpt>
      <trkpt lat="46.88099" lon="3.9995">
        <ele>324</ele>
        <time>2022-02-14T21:42:37Z</time>
      </trkpt>
      <trkpt lat="46.88146" lon="3.99923">
        <ele>323</ele>
        <time>2022-02-14T21:42:46Z</time>
      </trkpt>
      <trkpt lat="46.8815" lon="3.99923">
        <ele>323</ele>
        <time>2022-02-14T21:42:47Z</time>
      </trkpt>
      <trkpt lat="46.88165" lon="3.99891">
        <ele>323</ele>
        <time>2022-02-14T21:42:51Z</time>
      </trkpt>
      <trkpt lat="46.88169" lon="3.99875">
        <ele>323</ele>
        <time>2022-02-14T21:42:53Z</time>
      </trkpt>
      <trkpt lat="46.88188" lon="3.99808">
        <ele>326</ele>
        <time>2022-02-14T21:43:02Z</time>
      </trkpt>
      <trkpt lat="46.88227" lon="3.99807">
        <ele>328</ele>
        <time>2022-02-14T21:43:09Z</time>
      </trkpt>
      <trkpt lat="46.88276" lon="3.99787">
        <ele>331</ele>
        <time>2022-02-14T21:43:18Z</time>
      </trkpt>
      <trkpt lat="46.88335" lon="3.99743">
        <ele>334</ele>
        <time>2022-02-14T21:43:30Z</time>
      </trkpt>
      <trkpt lat="46.88395" lon="3.99688">
        <ele>339</ele>
        <time>2022-02-14T21:43:43Z</time>
      </trkpt>
      <trkpt lat="46.88423" lon="3.99633">
        <ele>348</ele>
        <time>2022-02-14T21:43:51Z</time>
      </trkpt>
      <trkpt lat="46.88452" lon="3.99614">
        <ele>354</ele>
        <time>2022-02-14T21:43:57Z</time>
      </trkpt>
      <trkpt lat="46.8849" lon="3.9962">
        <ele>355</ele>
        <time>2022-02-14T21:44:03Z</time>
      </trkpt>
      <trkpt lat="46.88526" lon="3.99611">
        <ele>357</ele>
        <time>2022-02-14T21:44:10Z</time>
      </trkpt>
      <trkpt lat="46.88543" lon="3.99619">
        <ele>356</ele>
        <time>2022-02-14T21:44:13Z</time>
      </trkpt>
      <trkpt lat="46.88552" lon="3.9963">
        <ele>355</ele>
        <time>2022-02-14T21:44:15Z</time>
      </trkpt>
      <trkpt lat="46.88554" lon="3.99651">
        <ele>352</ele>
        <time>2022-02-14T21:44:18Z</time>
      </trkpt>
      <trkpt lat="46.88547" lon="3.99708">
        <ele>350</ele>
        <time>2022-02-14T21:44:25Z</time>
      </trkpt>
      <trkpt lat="46.88549" lon="3.99735">
        <ele>351</ele>
        <time>2022-02-14T21:44:28Z</time>
      </trkpt>
      <trkpt lat="46.88553" lon="3.99736">
        <ele>351</ele>
        <time>2022-02-14T21:44:29Z</time>
      </trkpt>
      <trkpt lat="46.88557" lon="3.99734">
        <ele>352</ele>
        <time>2022-02-14T21:44:30Z</time>
      </trkpt>
      <trkpt lat="46.88577" lon="3.99706">
        <ele>354</ele>
        <time>2022-02-14T21:44:35Z</time>
      </trkpt>
      <trkpt lat="46.88608" lon="3.99677">
        <ele>358</ele>
        <time>2022-02-14T21:44:41Z</time>
      </trkpt>
      <trkpt lat="46.88647" lon="3.99648">
        <ele>364</ele>
        <time>2022-02-14T21:44:49Z</time>
      </trkpt>
      <trkpt lat="46.88667" lon="3.99625">
        <ele>367</ele>
        <time>2022-02-14T21:44:53Z</time>
      </trkpt>
      <trkpt lat="46.88684" lon="3.99594">
        <ele>371</ele>
        <time>2022-02-14T21:44:58Z</time>
      </trkpt>
      <trkpt lat="46.88753" lon="3.99442">
        <ele>394</ele>
        <time>2022-02-14T21:45:20Z</time>
      </trkpt>
      <trkpt lat="46.88771" lon="3.9939">
        <ele>403</ele>
        <time>2022-02-14T21:45:28Z</time>
      </trkpt>
      <trkpt lat="46.88777" lon="3.99357">
        <ele>406</ele>
        <time>2022-02-14T21:45:32Z</time>
      </trkpt>
      <trkpt lat="46.8878" lon="3.99319">
        <ele>409</ele>
        <time>2022-02-14T21:45:36Z</time>
      </trkpt>
      <trkpt lat="46.88791" lon="3.99235">
        <ele>413</ele>
        <time>2022-02-14T21:45:47Z</time>
      </trkpt>
      <trkpt lat="46.88807" lon="3.99139">
        <ele>415</ele>
        <time>2022-02-14T21:45:59Z</time>
      </trkpt>
      <trkpt lat="46.8881" lon="3.99107">
        <ele>416</ele>
        <time>2022-02-14T21:46:03Z</time>
      </trkpt>
      <trkpt lat="46.88812" lon="3.99058">
        <ele>416</ele>
        <time>2022-02-14T21:46:09Z</time>
      </trkpt>
      <trkpt lat="46.88811" lon="3.99012">
        <ele>414</ele>
        <time>2022-02-14T21:46:14Z</time>
      </trkpt>
      <trkpt lat="46.88806" lon="3.98964">
        <ele>417</ele>
        <time>2022-02-14T21:46:20Z</time>
      </trkpt>
      <trkpt lat="46.88798" lon="3.98936">
        <ele>418</ele>
        <time>2022-02-14T21:46:24Z</time>
      </trkpt>
      <trkpt lat="46.88784" lon="3.9891">
        <ele>418</ele>
        <time>2022-02-14T21:46:28Z</time>
      </trkpt>
      <trkpt lat="46.88771" lon="3.98891">
        <ele>417</ele>
        <time>2022-02-14T21:46:31Z</time>
      </trkpt>
      <trkpt lat="46.8876" lon="3.98865">
        <ele>416</ele>
        <time>2022-02-14T21:46:35Z</time>
      </trkpt>
      <trkpt lat="46.88752" lon="3.98825">
        <ele>416</ele>
        <time>2022-02-14T21:46:40Z</time>
      </trkpt>
      <trkpt lat="46.88747" lon="3.98741">
        <ele>420</ele>
        <time>2022-02-14T21:46:50Z</time>
      </trkpt>
      <trkpt lat="46.8875" lon="3.98669">
        <ele>426</ele>
        <time>2022-02-14T21:46:59Z</time>
      </trkpt>
      <trkpt lat="46.88755" lon="3.98623">
        <ele>429</ele>
        <time>2022-02-14T21:47:05Z</time>
      </trkpt>
      <trkpt lat="46.88768" lon="3.98562">
        <ele>433</ele>
        <time>2022-02-14T21:47:12Z</time>
      </trkpt>
      <trkpt lat="46.88799" lon="3.98477">
        <ele>435</ele>
        <time>2022-02-14T21:47:24Z</time>
      </trkpt>
      <trkpt lat="46.88804" lon="3.98453">
        <ele>435</ele>
        <time>2022-02-14T21:47:27Z</time>
      </trkpt>
      <trkpt lat="46.88805" lon="3.98406">
        <ele>436</ele>
        <time>2022-02-14T21:47:33Z</time>
      </trkpt>
      <trkpt lat="46.88808" lon="3.98367">
        <ele>438</ele>
        <time>2022-02-14T21:47:38Z</time>
      </trkpt>
      <trkpt lat="46.88837" lon="3.98259">
        <ele>444</ele>
        <time>2022-02-14T21:47:52Z</time>
      </trkpt>
      <trkpt lat="46.88876" lon="3.98134">
        <ele>454</ele>
        <time>2022-02-14T21:48:08Z</time>
      </trkpt>
      <trkpt lat="46.88909" lon="3.98083">
        <ele>454</ele>
        <time>2022-02-14T21:48:17Z</time>
      </trkpt>
      <trkpt lat="46.88943" lon="3.98021">
        <ele>456</ele>
        <time>2022-02-14T21:48:27Z</time>
      </trkpt>
      <trkpt lat="46.88958" lon="3.97985">
        <ele>456</ele>
        <time>2022-02-14T21:48:32Z</time>
      </trkpt>
      <trkpt lat="46.8896" lon="3.97951">
        <ele>457</ele>
        <time>2022-02-14T21:48:36Z</time>
      </trkpt>
      <trkpt lat="46.88927" lon="3.97638">
        <ele>466</ele>
        <time>2022-02-14T21:49:14Z</time>
      </trkpt>
      <trkpt lat="46.88928" lon="3.97616">
        <ele>464</ele>
        <time>2022-02-14T21:49:17Z</time>
      </trkpt>
      <trkpt lat="46.88932" lon="3.97597">
        <ele>463</ele>
        <time>2022-02-14T21:49:20Z</time>
      </trkpt>
      <trkpt lat="46.8894" lon="3.97577">
        <ele>461</ele>
        <time>2022-02-14T21:49:22Z</time>
      </trkpt>
      <trkpt lat="46.8896" lon="3.97541">
        <ele>460</ele>
        <time>2022-02-14T21:49:28Z</time>
      </trkpt>
      <trkpt lat="46.89061" lon="3.97365">
        <ele>456</ele>
        <time>2022-02-14T21:49:56Z</time>
      </trkpt>
      <trkpt lat="46.89074" lon="3.97331">
        <ele>454</ele>
        <time>2022-02-14T21:50:01Z</time>
      </trkpt>
      <trkpt lat="46.8913" lon="3.97111">
        <ele>447</ele>
        <time>2022-02-14T21:50:29Z</time>
      </trkpt>
      <trkpt lat="46.89137" lon="3.97092">
        <ele>446</ele>
        <time>2022-02-14T21:50:32Z</time>
      </trkpt>
      <trkpt lat="46.89155" lon="3.97074">
        <ele>446</ele>
        <time>2022-02-14T21:50:36Z</time>
      </trkpt>
      <trkpt lat="46.89175" lon="3.97071">
        <ele>445</ele>
        <time>2022-02-14T21:50:39Z</time>
      </trkpt>
      <trkpt lat="46.892" lon="3.97073">
        <ele>443</ele>
        <time>2022-02-14T21:50:44Z</time>
      </trkpt>
      <trkpt lat="46.89221" lon="3.97083">
        <ele>442</ele>
        <time>2022-02-14T21:50:48Z</time>
      </trkpt>
      <trkpt lat="46.89243" lon="3.971">
        <ele>442</ele>
        <time>2022-02-14T21:50:52Z</time>
      </trkpt>
      <trkpt lat="46.89253" lon="3.97121">
        <ele>442</ele>
        <time>2022-02-14T21:50:55Z</time>
      </trkpt>
      <trkpt lat="46.89259" lon="3.97143">
        <ele>443</ele>
        <time>2022-02-14T21:50:58Z</time>
      </trkpt>
      <trkpt lat="46.89265" lon="3.97191">
        <ele>445</ele>
        <time>2022-02-14T21:51:04Z</time>
      </trkpt>
      <trkpt lat="46.8927" lon="3.97203">
        <ele>446</ele>
        <time>2022-02-14T21:51:06Z</time>
      </trkpt>
      <trkpt lat="46.89277" lon="3.97209">
        <ele>446</ele>
        <time>2022-02-14T21:51:07Z</time>
      </trkpt>
      <trkpt lat="46.89289" lon="3.9721">
        <ele>446</ele>
        <time>2022-02-14T21:51:09Z</time>
      </trkpt>
      <trkpt lat="46.89313" lon="3.97197">
        <ele>444</ele>
        <time>2022-02-14T21:51:14Z</time>
      </trkpt>
      <trkpt lat="46.8934" lon="3.97179">
        <ele>440</ele>
        <time>2022-02-14T21:51:19Z</time>
      </trkpt>
      <trkpt lat="46.89411" lon="3.97157">
        <ele>433</ele>
        <time>2022-02-14T21:51:32Z</time>
      </trkpt>
      <trkpt lat="46.89435" lon="3.97155">
        <ele>431</ele>
        <time>2022-02-14T21:51:36Z</time>
      </trkpt>
      <trkpt lat="46.89456" lon="3.97157">
        <ele>429</ele>
        <time>2022-02-14T21:51:40Z</time>
      </trkpt>
      <trkpt lat="46.89499" lon="3.9717">
        <ele>426</ele>
        <time>2022-02-14T21:51:48Z</time>
      </trkpt>
      <trkpt lat="46.89567" lon="3.97173">
        <ele>420</ele>
        <time>2022-02-14T21:52:00Z</time>
      </trkpt>
      <trkpt lat="46.89579" lon="3.97176">
        <ele>419</ele>
        <time>2022-02-14T21:52:02Z</time>
      </trkpt>
      <trkpt lat="46.89591" lon="3.97184">
        <ele>419</ele>
        <time>2022-02-14T21:52:05Z</time>
      </trkpt>
      <trkpt lat="46.89621" lon="3.97198">
        <ele>417</ele>
        <time>2022-02-14T21:52:10Z</time>
      </trkpt>
      <trkpt lat="46.8963" lon="3.97199">
        <ele>416</ele>
        <time>2022-02-14T21:52:12Z</time>
      </trkpt>
      <trkpt lat="46.89638" lon="3.97207">
        <ele>416</ele>
        <time>2022-02-14T21:52:13Z</time>
      </trkpt>
      <trkpt lat="46.89654" lon="3.97214">
        <ele>415</ele>
        <time>2022-02-14T21:52:16Z</time>
      </trkpt>
      <trkpt lat="46.89673" lon="3.9723">
        <ele>415</ele>
        <time>2022-02-14T21:52:20Z</time>
      </trkpt>
      <trkpt lat="46.89693" lon="3.97241">
        <ele>414</ele>
        <time>2022-02-14T21:52:24Z</time>
      </trkpt>
      <trkpt lat="46.89708" lon="3.97242">
        <ele>412</ele>
        <time>2022-02-14T21:52:27Z</time>
      </trkpt>
      <trkpt lat="46.89714" lon="3.97238">
        <ele>410</ele>
        <time>2022-02-14T21:52:28Z</time>
      </trkpt>
      <trkpt lat="46.89714" lon="3.97228">
        <ele>409</ele>
        <time>2022-02-14T21:52:29Z</time>
      </trkpt>
      <trkpt lat="46.89708" lon="3.97211">
        <ele>409</ele>
        <time>2022-02-14T21:52:32Z</time>
      </trkpt>
      <trkpt lat="46.89691" lon="3.97188">
        <ele>408</ele>
        <time>2022-02-14T21:52:36Z</time>
      </trkpt>
      <trkpt lat="46.89676" lon="3.97155">
        <ele>405</ele>
        <time>2022-02-14T21:52:40Z</time>
      </trkpt>
      <trkpt lat="46.89646" lon="3.97059">
        <ele>394</ele>
        <time>2022-02-14T21:52:53Z</time>
      </trkpt>
      <trkpt lat="46.89632" lon="3.97025">
        <ele>390</ele>
        <time>2022-02-14T21:52:58Z</time>
      </trkpt>
      <trkpt lat="46.89524" lon="3.96856">
        <ele>377</ele>
        <time>2022-02-14T21:53:26Z</time>
      </trkpt>
      <trkpt lat="46.89505" lon="3.96805">
        <ele>373</ele>
        <time>2022-02-14T21:53:33Z</time>
      </trkpt>
      <trkpt lat="46.89473" lon="3.9675">
        <ele>372</ele>
        <time>2022-02-14T21:53:42Z</time>
      </trkpt>
      <trkpt lat="46.89466" lon="3.96731">
        <ele>371</ele>
        <time>2022-02-14T21:53:45Z</time>
      </trkpt>
      <trkpt lat="46.89465" lon="3.96713">
        <ele>371</ele>
        <time>2022-02-14T21:53:47Z</time>
      </trkpt>
      <trkpt lat="46.89475" lon="3.96651">
        <ele>366</ele>
        <time>2022-02-14T21:53:55Z</time>
      </trkpt>
      <trkpt lat="46.89475" lon="3.96624">
        <ele>364</ele>
        <time>2022-02-14T21:53:58Z</time>
      </trkpt>
      <trkpt lat="46.8947" lon="3.96594">
        <ele>362</ele>
        <time>2022-02-14T21:54:02Z</time>
      </trkpt>
      <trkpt lat="46.8946" lon="3.9655">
        <ele>361</ele>
        <time>2022-02-14T21:54:07Z</time>
      </trkpt>
      <trkpt lat="46.89459" lon="3.96521">
        <ele>360</ele>
        <time>2022-02-14T21:54:11Z</time>
      </trkpt>
      <trkpt lat="46.8946" lon="3.96489">
        <ele>359</ele>
        <time>2022-02-14T21:54:15Z</time>
      </trkpt>
      <trkpt lat="46.89465" lon="3.96464">
        <ele>357</ele>
        <time>2022-02-14T21:54:18Z</time>
      </trkpt>
      <trkpt lat="46.89472" lon="3.96442">
        <ele>356</ele>
        <time>2022-02-14T21:54:21Z</time>
      </trkpt>
      <trkpt lat="46.89489" lon="3.96395">
        <ele>352</ele>
        <time>2022-02-14T21:54:27Z</time>
      </trkpt>
      <trkpt lat="46.89522" lon="3.96344">
        <ele>349</ele>
        <time>2022-02-14T21:54:36Z</time>
      </trkpt>
      <trkpt lat="46.89533" lon="3.96319">
        <ele>348</ele>
        <time>2022-02-14T21:54:39Z</time>
      </trkpt>
      <trkpt lat="46.89537" lon="3.96298">
        <ele>347</ele>
        <time>2022-02-14T21:54:42Z</time>
      </trkpt>
      <trkpt lat="46.89536" lon="3.9627">
        <ele>346</ele>
        <time>2022-02-14T21:54:46Z</time>
      </trkpt>
      <trkpt lat="46.8953" lon="3.96186">
        <ele>344</ele>
        <time>2022-02-14T21:54:56Z</time>
      </trkpt>
      <trkpt lat="46.89531" lon="3.96161">
        <ele>343</ele>
        <time>2022-02-14T21:54:59Z</time>
      </trkpt>
      <trkpt lat="46.89534" lon="3.96142">
        <ele>342</ele>
        <time>2022-02-14T21:55:01Z</time>
      </trkpt>
      <trkpt lat="46.89541" lon="3.96118">
        <ele>342</ele>
        <time>2022-02-14T21:55:04Z</time>
      </trkpt>
      <trkpt lat="46.89582" lon="3.9602">
        <ele>340</ele>
        <time>2022-02-14T21:55:18Z</time>
      </trkpt>
      <trkpt lat="46.89591" lon="3.95993">
        <ele>339</ele>
        <time>2022-02-14T21:55:22Z</time>
      </trkpt>
      <trkpt lat="46.89592" lon="3.95968">
        <ele>339</ele>
        <time>2022-02-14T21:55:25Z</time>
      </trkpt>
      <trkpt lat="46.89588" lon="3.95943">
        <ele>339</ele>
        <time>2022-02-14T21:55:28Z</time>
      </trkpt>
      <trkpt lat="46.89524" lon="3.95733">
        <ele>333</ele>
        <time>2022-02-14T21:55:56Z</time>
      </trkpt>
      <trkpt lat="46.89516" lon="3.95692">
        <ele>331</ele>
        <time>2022-02-14T21:56:01Z</time>
      </trkpt>
      <trkpt lat="46.89515" lon="3.9567">
        <ele>330</ele>
        <time>2022-02-14T21:56:04Z</time>
      </trkpt>
      <trkpt lat="46.89518" lon="3.95646">
        <ele>330</ele>
        <time>2022-02-14T21:56:07Z</time>
      </trkpt>
      <trkpt lat="46.89523" lon="3.95626">
        <ele>330</ele>
        <time>2022-02-14T21:56:10Z</time>
      </trkpt>
      <trkpt lat="46.89534" lon="3.95599">
        <ele>330</ele>
        <time>2022-02-14T21:56:13Z</time>
      </trkpt>
      <trkpt lat="46.8969" lon="3.95334">
        <ele>342</ele>
        <time>2022-02-14T21:56:56Z</time>
      </trkpt>
      <trkpt lat="46.89704" lon="3.95307">
        <ele>344</ele>
        <time>2022-02-14T21:57:00Z</time>
      </trkpt>
      <trkpt lat="46.89712" lon="3.95277">
        <ele>347</ele>
        <time>2022-02-14T21:57:04Z</time>
      </trkpt>
      <trkpt lat="46.89716" lon="3.95244">
        <ele>350</ele>
        <time>2022-02-14T21:57:08Z</time>
      </trkpt>
      <trkpt lat="46.89715" lon="3.95205">
        <ele>352</ele>
        <time>2022-02-14T21:57:13Z</time>
      </trkpt>
      <trkpt lat="46.89717" lon="3.95177">
        <ele>354</ele>
        <time>2022-02-14T21:57:16Z</time>
      </trkpt>
      <trkpt lat="46.89762" lon="3.9493">
        <ele>364</ele>
        <time>2022-02-14T21:57:47Z</time>
      </trkpt>
      <trkpt lat="46.89768" lon="3.94908">
        <ele>365</ele>
        <time>2022-02-14T21:57:50Z</time>
      </trkpt>
      <trkpt lat="46.89776" lon="3.94891">
        <ele>366</ele>
        <time>2022-02-14T21:57:53Z</time>
      </trkpt>
      <trkpt lat="46.89791" lon="3.94872">
        <ele>367</ele>
        <time>2022-02-14T21:57:56Z</time>
      </trkpt>
      <trkpt lat="46.89854" lon="3.94826">
        <ele>370</ele>
        <time>2022-02-14T21:58:09Z</time>
      </trkpt>
      <trkpt lat="46.89887" lon="3.94775">
        <ele>371</ele>
        <time>2022-02-14T21:58:17Z</time>
      </trkpt>
      <trkpt lat="46.90041" lon="3.94471">
        <ele>390</ele>
        <time>2022-02-14T21:59:03Z</time>
      </trkpt>
      <trkpt lat="46.90081" lon="3.94411">
        <ele>397</ele>
        <time>2022-02-14T21:59:13Z</time>
      </trkpt>
      <trkpt lat="46.90127" lon="3.94349">
        <ele>402</ele>
        <time>2022-02-14T21:59:25Z</time>
      </trkpt>
      <trkpt lat="46.90143" lon="3.94292">
        <ele>406</ele>
        <time>2022-02-14T21:59:32Z</time>
      </trkpt>
      <trkpt lat="46.90159" lon="3.94206">
        <ele>412</ele>
        <time>2022-02-14T21:59:43Z</time>
      </trkpt>
      <trkpt lat="46.90165" lon="3.94153">
        <ele>416</ele>
        <time>2022-02-14T21:59:49Z</time>
      </trkpt>
      <trkpt lat="46.90177" lon="3.94118">
        <ele>418</ele>
        <time>2022-02-14T21:59:54Z</time>
      </trkpt>
      <trkpt lat="46.90199" lon="3.94092">
        <ele>421</ele>
        <time>2022-02-14T21:59:59Z</time>
      </trkpt>
      <trkpt lat="46.90223" lon="3.94073">
        <ele>425</ele>
        <time>2022-02-14T22:00:04Z</time>
      </trkpt>
      <trkpt lat="46.90246" lon="3.94036">
        <ele>429</ele>
        <time>2022-02-14T22:00:10Z</time>
      </trkpt>
      <trkpt lat="46.90257" lon="3.93992">
        <ele>433</ele>
        <time>2022-02-14T22:00:16Z</time>
      </trkpt>
      <trkpt lat="46.90262" lon="3.93948">
        <ele>433</ele>
        <time>2022-02-14T22:00:21Z</time>
      </trkpt>
      <trkpt lat="46.90303" lon="3.93832">
        <ele>438</ele>
        <time>2022-02-14T22:00:37Z</time>
      </trkpt>
      <trkpt lat="46.90367" lon="3.93667">
        <ele>446</ele>
        <time>2022-02-14T22:01:00Z</time>
      </trkpt>
      <trkpt lat="46.90377" lon="3.93637">
        <ele>448</ele>
        <time>2022-02-14T22:01:04Z</time>
      </trkpt>
      <trkpt lat="46.90387" lon="3.93598">
        <ele>450</ele>
        <time>2022-02-14T22:01:09Z</time>
      </trkpt>
      <trkpt lat="46.90417" lon="3.93455">
        <ele>459</ele>
        <time>2022-02-14T22:01:28Z</time>
      </trkpt>
      <trkpt lat="46.90422" lon="3.9344">
        <ele>460</ele>
        <time>2022-02-14T22:01:30Z</time>
      </trkpt>
      <trkpt lat="46.90427" lon="3.93434">
        <ele>461</ele>
        <time>2022-02-14T22:01:31Z</time>
      </trkpt>
      <trkpt lat="46.90433" lon="3.93431">
        <ele>462</ele>
        <time>2022-02-14T22:01:32Z</time>
      </trkpt>
      <trkpt lat="46.90443" lon="3.93434">
        <ele>463</ele>
        <time>2022-02-14T22:01:34Z</time>
      </trkpt>
      <trkpt lat="46.90452" lon="3.93446">
        <ele>464</ele>
        <time>2022-02-14T22:01:36Z</time>
      </trkpt>
      <trkpt lat="46.90483" lon="3.93503">
        <ele>466</ele>
        <time>2022-02-14T22:01:45Z</time>
      </trkpt>
      <trkpt lat="46.90495" lon="3.9352">
        <ele>466</ele>
        <time>2022-02-14T22:01:48Z</time>
      </trkpt>
      <trkpt lat="46.9052" lon="3.93543">
        <ele>467</ele>
        <time>2022-02-14T22:01:53Z</time>
      </trkpt>
      <trkpt lat="46.90549" lon="3.93559">
        <ele>468</ele>
        <time>2022-02-14T22:01:58Z</time>
      </trkpt>
      <trkpt lat="46.90586" lon="3.93566">
        <ele>470</ele>
        <time>2022-02-14T22:02:05Z</time>
      </trkpt>
      <trkpt lat="46.90615" lon="3.93563">
        <ele>472</ele>
        <time>2022-02-14T22:02:10Z</time>
      </trkpt>
      <trkpt lat="46.9066" lon="3.93553">
        <ele>476</ele>
        <time>2022-02-14T22:02:18Z</time>
      </trkpt>
      <trkpt lat="46.90682" lon="3.93552">
        <ele>479</ele>
        <time>2022-02-14T22:02:22Z</time>
      </trkpt>
      <trkpt lat="46.90702" lon="3.93558">
        <ele>482</ele>
        <time>2022-02-14T22:02:26Z</time>
      </trkpt>
      <trkpt lat="46.90741" lon="3.93584">
        <ele>484</ele>
        <time>2022-02-14T22:02:34Z</time>
      </trkpt>
      <trkpt lat="46.90773" lon="3.93613">
        <ele>488</ele>
        <time>2022-02-14T22:02:40Z</time>
      </trkpt>
      <trkpt lat="46.90798" lon="3.93626">
        <ele>492</ele>
        <time>2022-02-14T22:02:45Z</time>
      </trkpt>
      <trkpt lat="46.90848" lon="3.93667">
        <ele>497</ele>
        <time>2022-02-14T22:02:55Z</time>
      </trkpt>
      <trkpt lat="46.90878" lon="3.93682">
        <ele>499</ele>
        <time>2022-02-14T22:03:01Z</time>
      </trkpt>
      <trkpt lat="46.90976" lon="3.93684">
        <ele>508</ele>
        <time>2022-02-14T22:03:18Z</time>
      </trkpt>
      <trkpt lat="46.91176" lon="3.93733">
        <ele>509</ele>
        <time>2022-02-14T22:03:54Z</time>
      </trkpt>
      <trkpt lat="46.91276" lon="3.9376">
        <ele>512</ele>
        <time>2022-02-14T22:04:12Z</time>
      </trkpt>
      <trkpt lat="46.91332" lon="3.9379">
        <ele>513</ele>
        <time>2022-02-14T22:04:23Z</time>
      </trkpt>
      <trkpt lat="46.91372" lon="3.93804">
        <ele>512</ele>
        <time>2022-02-14T22:04:30Z</time>
      </trkpt>
      <trkpt lat="46.91395" lon="3.93803">
        <ele>512</ele>
        <time>2022-02-14T22:04:34Z</time>
      </trkpt>
      <trkpt lat="46.91421" lon="3.93798">
        <ele>511</ele>
        <time>2022-02-14T22:04:39Z</time>
      </trkpt>
      <trkpt lat="46.91449" lon="3.93786">
        <ele>510</ele>
        <time>2022-02-14T22:04:44Z</time>
      </trkpt>
      <trkpt lat="46.91466" lon="3.93785">
        <ele>509</ele>
        <time>2022-02-14T22:04:47Z</time>
      </trkpt>
      <trkpt lat="46.91515" lon="3.93792">
        <ele>507</ele>
        <time>2022-02-14T22:04:56Z</time>
      </trkpt>
      <trkpt lat="46.91537" lon="3.93792">
        <ele>507</ele>
        <time>2022-02-14T22:05:00Z</time>
      </trkpt>
      <trkpt lat="46.91558" lon="3.93784">
        <ele>506</ele>
        <time>2022-02-14T22:05:04Z</time>
      </trkpt>
      <trkpt lat="46.91574" lon="3.93769">
        <ele>504</ele>
        <time>2022-02-14T22:05:07Z</time>
      </trkpt>
      <trkpt lat="46.91734" lon="3.93597">
        <ele>495</ele>
        <time>2022-02-14T22:05:43Z</time>
      </trkpt>
      <trkpt lat="46.91749" lon="3.93577">
        <ele>496</ele>
        <time>2022-02-14T22:05:46Z</time>
      </trkpt>
      <trkpt lat="46.91761" lon="3.93551">
        <ele>497</ele>
        <time>2022-02-14T22:05:50Z</time>
      </trkpt>
      <trkpt lat="46.91773" lon="3.93502">
        <ele>499</ele>
        <time>2022-02-14T22:05:56Z</time>
      </trkpt>
      <trkpt lat="46.91841" lon="3.93188">
        <ele>506</ele>
        <time>2022-02-14T22:06:36Z</time>
      </trkpt>
      <trkpt lat="46.91853" lon="3.93149">
        <ele>505</ele>
        <time>2022-02-14T22:06:42Z</time>
      </trkpt>
      <trkpt lat="46.91884" lon="3.93076">
        <ele>505</ele>
        <time>2022-02-14T22:06:52Z</time>
      </trkpt>
      <trkpt lat="46.91917" lon="3.93024">
        <ele>510</ele>
        <time>2022-02-14T22:07:01Z</time>
      </trkpt>
      <trkpt lat="46.91927" lon="3.93005">
        <ele>509</ele>
        <time>2022-02-14T22:07:03Z</time>
      </trkpt>
      <trkpt lat="46.91936" lon="3.92979">
        <ele>509</ele>
        <time>2022-02-14T22:07:07Z</time>
      </trkpt>
      <trkpt lat="46.91958" lon="3.92891">
        <ele>509</ele>
        <time>2022-02-14T22:07:18Z</time>
      </trkpt>
      <trkpt lat="46.91965" lon="3.92837">
        <ele>510</ele>
        <time>2022-02-14T22:07:25Z</time>
      </trkpt>
      <trkpt lat="46.9197" lon="3.92812">
        <ele>510</ele>
        <time>2022-02-14T22:07:28Z</time>
      </trkpt>
      <trkpt lat="46.9199" lon="3.92735">
        <ele>512</ele>
        <time>2022-02-14T22:07:38Z</time>
      </trkpt>
      <trkpt lat="46.91993" lon="3.92719">
        <ele>512</ele>
        <time>2022-02-14T22:07:40Z</time>
      </trkpt>
      <trkpt lat="46.91999" lon="3.92522">
        <ele>516</ele>
        <time>2022-02-14T22:08:04Z</time>
      </trkpt>
      <trkpt lat="46.91998" lon="3.92507">
        <ele>517</ele>
        <time>2022-02-14T22:08:06Z</time>
      </trkpt>
      <trkpt lat="46.91995" lon="3.92491">
        <ele>517</ele>
        <time>2022-02-14T22:08:08Z</time>
      </trkpt>
      <trkpt lat="46.91989" lon="3.92474">
        <ele>518</ele>
        <time>2022-02-14T22:08:10Z</time>
      </trkpt>
      <trkpt lat="46.91968" lon="3.92434">
        <ele>518</ele>
        <time>2022-02-14T22:08:17Z</time>
      </trkpt>
      <trkpt lat="46.91927" lon="3.92378">
        <ele>518</ele>
        <time>2022-02-14T22:08:27Z</time>
      </trkpt>
      <trkpt lat="46.91773" lon="3.921">
        <ele>517</ele>
        <time>2022-02-14T22:09:10Z</time>
      </trkpt>
      <trkpt lat="46.91749" lon="3.92068">
        <ele>517</ele>
        <time>2022-02-14T22:09:16Z</time>
      </trkpt>
      <trkpt lat="46.91721" lon="3.92058">
        <ele>516</ele>
        <time>2022-02-14T22:09:21Z</time>
      </trkpt>
      <trkpt lat="46.91686" lon="3.92057">
        <ele>511</ele>
        <time>2022-02-14T22:09:27Z</time>
      </trkpt>
      <trkpt lat="46.91654" lon="3.92041">
        <ele>509</ele>
        <time>2022-02-14T22:09:33Z</time>
      </trkpt>
      <trkpt lat="46.91627" lon="3.92012">
        <ele>509</ele>
        <time>2022-02-14T22:09:39Z</time>
      </trkpt>
      <trkpt lat="46.9161" lon="3.91967">
        <ele>508</ele>
        <time>2022-02-14T22:09:45Z</time>
      </trkpt>
      <trkpt lat="46.91604" lon="3.91912">
        <ele>508</ele>
        <time>2022-02-14T22:09:52Z</time>
      </trkpt>
      <trkpt lat="46.91608" lon="3.91848">
        <ele>508</ele>
        <time>2022-02-14T22:10:00Z</time>
      </trkpt>
      <trkpt lat="46.91614" lon="3.91811">
        <ele>512</ele>
        <time>2022-02-14T22:10:05Z</time>
      </trkpt>
      <trkpt lat="46.91608" lon="3.91776">
        <ele>513</ele>
        <time>2022-02-14T22:10:09Z</time>
      </trkpt>
      <trkpt lat="46.91583" lon="3.91747">
        <ele>511</ele>
        <time>2022-02-14T22:10:15Z</time>
      </trkpt>
      <trkpt lat="46.91436" lon="3.91592">
        <ele>513</ele>
        <time>2022-02-14T22:10:47Z</time>
      </trkpt>
      <trkpt lat="46.91409" lon="3.9155">
        <ele>513</ele>
        <time>2022-02-14T22:10:54Z</time>
      </trkpt>
      <trkpt lat="46.91382" lon="3.91487">
        <ele>514</ele>
        <time>2022-02-14T22:11:03Z</time>
      </trkpt>
      <trkpt lat="46.91359" lon="3.91375">
        <ele>513</ele>
        <time>2022-02-14T22:11:17Z</time>
      </trkpt>
      <trkpt lat="46.91354" lon="3.91303">
        <ele>513</ele>
        <time>2022-02-14T22:11:26Z</time>
      </trkpt>
      <trkpt lat="46.91345" lon="3.91254">
        <ele>513</ele>
        <time>2022-02-14T22:11:32Z</time>
      </trkpt>
      <trkpt lat="46.91328" lon="3.91218">
        <ele>513</ele>
        <time>2022-02-14T22:11:37Z</time>
      </trkpt>
      <trkpt lat="46.91306" lon="3.91185">
        <ele>514</ele>
        <time>2022-02-14T22:11:43Z</time>
      </trkpt>
      <trkpt lat="46.91273" lon="3.91158">
        <ele>516</ele>
        <time>2022-02-14T22:11:50Z</time>
      </trkpt>
      <trkpt lat="46.91214" lon="3.9112">
        <ele>521</ele>
        <time>2022-02-14T22:12:01Z</time>
      </trkpt>
      <trkpt lat="46.91183" lon="3.91114">
        <ele>519</ele>
        <time>2022-02-14T22:12:07Z</time>
      </trkpt>
      <trkpt lat="46.91125" lon="3.91081">
        <ele>522</ele>
        <time>2022-02-14T22:12:18Z</time>
      </trkpt>
      <trkpt lat="46.91078" lon="3.9108">
        <ele>516</ele>
        <time>2022-02-14T22:12:26Z</time>
      </trkpt>
      <trkpt lat="46.91059" lon="3.91075">
        <ele>514</ele>
        <time>2022-02-14T22:12:30Z</time>
      </trkpt>
      <trkpt lat="46.91043" lon="3.91068">
        <ele>512</ele>
        <time>2022-02-14T22:12:33Z</time>
      </trkpt>
      <trkpt lat="46.91024" lon="3.91054">
        <ele>511</ele>
        <time>2022-02-14T22:12:36Z</time>
      </trkpt>
      <trkpt lat="46.91006" lon="3.9103">
        <ele>512</ele>
        <time>2022-02-14T22:12:41Z</time>
      </trkpt>
      <trkpt lat="46.90984" lon="3.90981">
        <ele>511</ele>
        <time>2022-02-14T22:12:48Z</time>
      </trkpt>
      <trkpt lat="46.90942" lon="3.90845">
        <ele>506</ele>
        <time>2022-02-14T22:13:06Z</time>
      </trkpt>
      <trkpt lat="46.90921" lon="3.90786">
        <ele>503</ele>
        <time>2022-02-14T22:13:14Z</time>
      </trkpt>
      <trkpt lat="46.90911" lon="3.90743">
        <ele>502</ele>
        <time>2022-02-14T22:13:20Z</time>
      </trkpt>
      <trkpt lat="46.90895" lon="3.90624">
        <ele>495</ele>
        <time>2022-02-14T22:13:34Z</time>
      </trkpt>
      <trkpt lat="46.90873" lon="3.90484">
        <ele>490</ele>
        <time>2022-02-14T22:13:52Z</time>
      </trkpt>
      <trkpt lat="46.90942" lon="3.90453">
        <ele>486</ele>
        <time>2022-02-14T22:14:05Z</time>
      </trkpt>
      <trkpt lat="46.90965" lon="3.90446">
        <ele>485</ele>
        <time>2022-02-14T22:14:09Z</time>
      </trkpt>
      <trkpt lat="46.90992" lon="3.90441">
        <ele>483</ele>
        <time>2022-02-14T22:14:14Z</time>
      </trkpt>
      <trkpt lat="46.9106" lon="3.90446">
        <ele>482</ele>
        <time>2022-02-14T22:14:26Z</time>
      </trkpt>
      <trkpt lat="46.91132" lon="3.90439">
        <ele>483</ele>
        <time>2022-02-14T22:14:39Z</time>
      </trkpt>
      <trkpt lat="46.91445" lon="3.90264">
        <ele>460</ele>
        <time>2022-02-14T22:15:38Z</time>
      </trkpt>
      <trkpt lat="46.91523" lon="3.90222">
        <ele>446</ele>
        <time>2022-02-14T22:15:53Z</time>
      </trkpt>
      <trkpt lat="46.91577" lon="3.90204">
        <ele>440</ele>
        <time>2022-02-14T22:16:03Z</time>
      </trkpt>
      <trkpt lat="46.91591" lon="3.90195">
        <ele>440</ele>
        <time>2022-02-14T22:16:06Z</time>
      </trkpt>
      <trkpt lat="46.9161" lon="3.90174">
        <ele>438</ele>
        <time>2022-02-14T22:16:10Z</time>
      </trkpt>
      <trkpt lat="46.91617" lon="3.90161">
        <ele>437</ele>
        <time>2022-02-14T22:16:12Z</time>
      </trkpt>
      <trkpt lat="46.91625" lon="3.90134">
        <ele>436</ele>
        <time>2022-02-14T22:16:15Z</time>
      </trkpt>
      <trkpt lat="46.9163" lon="3.90102">
        <ele>433</ele>
        <time>2022-02-14T22:16:19Z</time>
      </trkpt>
      <trkpt lat="46.91628" lon="3.90002">
        <ele>425</ele>
        <time>2022-02-14T22:16:32Z</time>
      </trkpt>
      <trkpt lat="46.91632" lon="3.89983">
        <ele>424</ele>
        <time>2022-02-14T22:16:34Z</time>
      </trkpt>
      <trkpt lat="46.91638" lon="3.89966">
        <ele>423</ele>
        <time>2022-02-14T22:16:36Z</time>
      </trkpt>
      <trkpt lat="46.91649" lon="3.89952">
        <ele>422</ele>
        <time>2022-02-14T22:16:39Z</time>
      </trkpt>
      <trkpt lat="46.91679" lon="3.89937">
        <ele>422</ele>
        <time>2022-02-14T22:16:45Z</time>
      </trkpt>
      <trkpt lat="46.91693" lon="3.89926">
        <ele>422</ele>
        <time>2022-02-14T22:16:47Z</time>
      </trkpt>
      <trkpt lat="46.91705" lon="3.8991">
        <ele>421</ele>
        <time>2022-02-14T22:16:50Z</time>
      </trkpt>
      <trkpt lat="46.91749" lon="3.89824">
        <ele>416</ele>
        <time>2022-02-14T22:17:03Z</time>
      </trkpt>
      <trkpt lat="46.91755" lon="3.89799">
        <ele>417</ele>
        <time>2022-02-14T22:17:07Z</time>
      </trkpt>
      <trkpt lat="46.91756" lon="3.89786">
        <ele>417</ele>
        <time>2022-02-14T22:17:08Z</time>
      </trkpt>
      <trkpt lat="46.91755" lon="3.89773">
        <ele>417</ele>
        <time>2022-02-14T22:17:10Z</time>
      </trkpt>
      <trkpt lat="46.91744" lon="3.89738">
        <ele>416</ele>
        <time>2022-02-14T22:17:14Z</time>
      </trkpt>
      <trkpt lat="46.91679" lon="3.89621">
        <ele>412</ele>
        <time>2022-02-14T22:17:33Z</time>
      </trkpt>
      <trkpt lat="46.91642" lon="3.8962">
        <ele>408</ele>
        <time>2022-02-14T22:17:39Z</time>
      </trkpt>
      <trkpt lat="46.91594" lon="3.89634">
        <ele>403</ele>
        <time>2022-02-14T22:17:48Z</time>
      </trkpt>
      <trkpt lat="46.91557" lon="3.89621">
        <ele>401</ele>
        <time>2022-02-14T22:17:55Z</time>
      </trkpt>
      <trkpt lat="46.91518" lon="3.89565">
        <ele>401</ele>
        <time>2022-02-14T22:18:05Z</time>
      </trkpt>
      <trkpt lat="46.91424" lon="3.89545">
        <ele>394</ele>
        <time>2022-02-14T22:18:21Z</time>
      </trkpt>
      <trkpt lat="46.914" lon="3.89519">
        <ele>393</ele>
        <time>2022-02-14T22:18:27Z</time>
      </trkpt>
      <trkpt lat="46.91375" lon="3.89455">
        <ele>391</ele>
        <time>2022-02-14T22:18:36Z</time>
      </trkpt>
      <trkpt lat="46.91366" lon="3.894">
        <ele>389</ele>
        <time>2022-02-14T22:18:43Z</time>
      </trkpt>
      <trkpt lat="46.91314" lon="3.89228">
        <ele>381</ele>
        <time>2022-02-14T22:19:05Z</time>
      </trkpt>
      <trkpt lat="46.91305" lon="3.8915">
        <ele>383</ele>
        <time>2022-02-14T22:19:15Z</time>
      </trkpt>
      <trkpt lat="46.91301" lon="3.89051">
        <ele>378</ele>
        <time>2022-02-14T22:19:27Z</time>
      </trkpt>
      <trkpt lat="46.91286" lon="3.88934">
        <ele>366</ele>
        <time>2022-02-14T22:19:42Z</time>
      </trkpt>
      <trkpt lat="46.91274" lon="3.88828">
        <ele>359</ele>
        <time>2022-02-14T22:19:55Z</time>
      </trkpt>
      <trkpt lat="46.91271" lon="3.88785">
        <ele>360</ele>
        <time>2022-02-14T22:20:00Z</time>
      </trkpt>
      <trkpt lat="46.9127" lon="3.88683">
        <ele>365</ele>
        <time>2022-02-14T22:20:12Z</time>
      </trkpt>
      <trkpt lat="46.91272" lon="3.88643">
        <ele>367</ele>
        <time>2022-02-14T22:20:17Z</time>
      </trkpt>
      <trkpt lat="46.91283" lon="3.88568">
        <ele>372</ele>
        <time>2022-02-14T22:20:27Z</time>
      </trkpt>
      <trkpt lat="46.91284" lon="3.88545">
        <ele>373</ele>
        <time>2022-02-14T22:20:29Z</time>
      </trkpt>
      <trkpt lat="46.91283" lon="3.88522">
        <ele>374</ele>
        <time>2022-02-14T22:20:32Z</time>
      </trkpt>
      <trkpt lat="46.91268" lon="3.88422">
        <ele>374</ele>
        <time>2022-02-14T22:20:45Z</time>
      </trkpt>
      <trkpt lat="46.91267" lon="3.884">
        <ele>374</ele>
        <time>2022-02-14T22:20:47Z</time>
      </trkpt>
      <trkpt lat="46.91269" lon="3.88383">
        <ele>373</ele>
        <time>2022-02-14T22:20:49Z</time>
      </trkpt>
      <trkpt lat="46.91309" lon="3.8832">
        <ele>372</ele>
        <time>2022-02-14T22:21:00Z</time>
      </trkpt>
      <trkpt lat="46.9132" lon="3.88287">
        <ele>371</ele>
        <time>2022-02-14T22:21:04Z</time>
      </trkpt>
      <trkpt lat="46.91323" lon="3.88268">
        <ele>370</ele>
        <time>2022-02-14T22:21:07Z</time>
      </trkpt>
      <trkpt lat="46.91321" lon="3.88121">
        <ele>365</ele>
        <time>2022-02-14T22:21:25Z</time>
      </trkpt>
      <trkpt lat="46.91323" lon="3.88103">
        <ele>365</ele>
        <time>2022-02-14T22:21:27Z</time>
      </trkpt>
      <trkpt lat="46.91326" lon="3.88089">
        <ele>365</ele>
        <time>2022-02-14T22:21:29Z</time>
      </trkpt>
      <trkpt lat="46.91336" lon="3.88057">
        <ele>365</ele>
        <time>2022-02-14T22:21:33Z</time>
      </trkpt>
      <trkpt lat="46.91384" lon="3.8796">
        <ele>358</ele>
        <time>2022-02-14T22:21:47Z</time>
      </trkpt>
      <trkpt lat="46.91389" lon="3.87938">
        <ele>356</ele>
        <time>2022-02-14T22:21:50Z</time>
      </trkpt>
      <trkpt lat="46.91389" lon="3.87919">
        <ele>355</ele>
        <time>2022-02-14T22:21:52Z</time>
      </trkpt>
      <trkpt lat="46.91384" lon="3.87882">
        <ele>353</ele>
        <time>2022-02-14T22:21:57Z</time>
      </trkpt>
      <trkpt lat="46.91377" lon="3.87862">
        <ele>352</ele>
        <time>2022-02-14T22:22:00Z</time>
      </trkpt>
      <trkpt lat="46.91298" lon="3.87725">
        <ele>346</ele>
        <time>2022-02-14T22:22:22Z</time>
      </trkpt>
      <trkpt lat="46.91268" lon="3.87659">
        <ele>342</ele>
        <time>2022-02-14T22:22:31Z</time>
      </trkpt>
      <trkpt lat="46.91261" lon="3.87626">
        <ele>340</ele>
        <time>2022-02-14T22:22:35Z</time>
      </trkpt>
      <trkpt lat="46.91256" lon="3.87593">
        <ele>338</ele>
        <time>2022-02-14T22:22:40Z</time>
      </trkpt>
      <trkpt lat="46.91259" lon="3.87519">
        <ele>336</ele>
        <time>2022-02-14T22:22:49Z</time>
      </trkpt>
      <trkpt lat="46.91241" lon="3.8749">
        <ele>337</ele>
        <time>2022-02-14T22:22:53Z</time>
      </trkpt>
      <trkpt lat="46.91217" lon="3.87467">
        <ele>338</ele>
        <time>2022-02-14T22:22:58Z</time>
      </trkpt>
      <trkpt lat="46.9117" lon="3.87442">
        <ele>341</ele>
        <time>2022-02-14T22:23:07Z</time>
      </trkpt>
      <trkpt lat="46.91132" lon="3.87404">
        <ele>341</ele>
        <time>2022-02-14T22:23:15Z</time>
      </trkpt>
      <trkpt lat="46.91084" lon="3.87344">
        <ele>338</ele>
        <time>2022-02-14T22:23:27Z</time>
      </trkpt>
      <trkpt lat="46.91048" lon="3.87283">
        <ele>337</ele>
        <time>2022-02-14T22:23:37Z</time>
      </trkpt>
      <trkpt lat="46.91012" lon="3.87165">
        <ele>335</ele>
        <time>2022-02-14T22:23:52Z</time>
      </trkpt>
      <trkpt lat="46.90966" lon="3.87029">
        <ele>331</ele>
        <time>2022-02-14T22:24:11Z</time>
      </trkpt>
      <trkpt lat="46.90953" lon="3.87001">
        <ele>330</ele>
        <time>2022-02-14T22:24:15Z</time>
      </trkpt>
      <trkpt lat="46.90927" lon="3.86957">
        <ele>329</ele>
        <time>2022-02-14T22:24:22Z</time>
      </trkpt>
      <trkpt lat="46.90917" lon="3.86929">
        <ele>329</ele>
        <time>2022-02-14T22:24:26Z</time>
      </trkpt>
      <trkpt lat="46.90912" lon="3.86904">
        <ele>329</ele>
        <time>2022-02-14T22:24:29Z</time>
      </trkpt>
      <trkpt lat="46.90907" lon="3.86868">
        <ele>327</ele>
        <time>2022-02-14T22:24:33Z</time>
      </trkpt>
      <trkpt lat="46.90903" lon="3.86849">
        <ele>327</ele>
        <time>2022-02-14T22:24:36Z</time>
      </trkpt>
      <trkpt lat="46.90893" lon="3.86827">
        <ele>326</ele>
        <time>2022-02-14T22:24:39Z</time>
      </trkpt>
      <trkpt lat="46.90879" lon="3.86808">
        <ele>326</ele>
        <time>2022-02-14T22:24:42Z</time>
      </trkpt>
      <trkpt lat="46.90847" lon="3.86779">
        <ele>325</ele>
        <time>2022-02-14T22:24:49Z</time>
      </trkpt>
      <trkpt lat="46.90774" lon="3.867">
        <ele>321</ele>
        <time>2022-02-14T22:25:05Z</time>
      </trkpt>
      <trkpt lat="46.90737" lon="3.86652">
        <ele>319</ele>
        <time>2022-02-14T22:25:14Z</time>
      </trkpt>
      <trkpt lat="46.90728" lon="3.86636">
        <ele>318</ele>
        <time>2022-02-14T22:25:17Z</time>
      </trkpt>
      <trkpt lat="46.90725" lon="3.86624">
        <ele>317</ele>
        <time>2022-02-14T22:25:18Z</time>
      </trkpt>
      <trkpt lat="46.90726" lon="3.86606">
        <ele>317</ele>
        <time>2022-02-14T22:25:20Z</time>
      </trkpt>
      <trkpt lat="46.90756" lon="3.86445">
        <ele>309</ele>
        <time>2022-02-14T22:25:41Z</time>
      </trkpt>
      <trkpt lat="46.90757" lon="3.86424">
        <ele>309</ele>
        <time>2022-02-14T22:25:43Z</time>
      </trkpt>
      <trkpt lat="46.90755" lon="3.86398">
        <ele>310</ele>
        <time>2022-02-14T22:25:46Z</time>
      </trkpt>
      <trkpt lat="46.90752" lon="3.86382">
        <ele>312</ele>
        <time>2022-02-14T22:25:48Z</time>
      </trkpt>
      <trkpt lat="46.90736" lon="3.86331">
        <ele>315</ele>
        <time>2022-02-14T22:25:55Z</time>
      </trkpt>
      <trkpt lat="46.90724" lon="3.86302">
        <ele>316</ele>
        <time>2022-02-14T22:25:59Z</time>
      </trkpt>
      <trkpt lat="46.90707" lon="3.86271">
        <ele>318</ele>
        <time>2022-02-14T22:26:04Z</time>
      </trkpt>
      <trkpt lat="46.90681" lon="3.86228">
        <ele>318</ele>
        <time>2022-02-14T22:26:11Z</time>
      </trkpt>
      <trkpt lat="46.90646" lon="3.86176">
        <ele>317</ele>
        <time>2022-02-14T22:26:20Z</time>
      </trkpt>
      <trkpt lat="46.90635" lon="3.86164">
        <ele>316</ele>
        <time>2022-02-14T22:26:22Z</time>
      </trkpt>
      <trkpt lat="46.90621" lon="3.86152">
        <ele>316</ele>
        <time>2022-02-14T22:26:25Z</time>
      </trkpt>
      <trkpt lat="46.90608" lon="3.86147">
        <ele>315</ele>
        <time>2022-02-14T22:26:28Z</time>
      </trkpt>
      <trkpt lat="46.90598" lon="3.86144">
        <ele>315</ele>
        <time>2022-02-14T22:26:29Z</time>
      </trkpt>
      <trkpt lat="46.90564" lon="3.86143">
        <ele>315</ele>
        <time>2022-02-14T22:26:36Z</time>
      </trkpt>
      <trkpt lat="46.90551" lon="3.86138">
        <ele>315</ele>
        <time>2022-02-14T22:26:38Z</time>
      </trkpt>
      <trkpt lat="46.9054" lon="3.86129">
        <ele>315</ele>
        <time>2022-02-14T22:26:40Z</time>
      </trkpt>
      <trkpt lat="46.90532" lon="3.86117">
        <ele>315</ele>
        <time>2022-02-14T22:26:42Z</time>
      </trkpt>
      <trkpt lat="46.90526" lon="3.86101">
        <ele>315</ele>
        <time>2022-02-14T22:26:44Z</time>
      </trkpt>
      <trkpt lat="46.90515" lon="3.85967">
        <ele>308</ele>
        <time>2022-02-14T22:27:01Z</time>
      </trkpt>
      <trkpt lat="46.905" lon="3.85827">
        <ele>300</ele>
        <time>2022-02-14T22:27:18Z</time>
      </trkpt>
      <trkpt lat="46.90471" lon="3.85634">
        <ele>294</ele>
        <time>2022-02-14T22:27:42Z</time>
      </trkpt>
      <trkpt lat="46.90471" lon="3.85619">
        <ele>293</ele>
        <time>2022-02-14T22:27:44Z</time>
      </trkpt>
      <trkpt lat="46.90474" lon="3.856">
        <ele>292</ele>
        <time>2022-02-14T22:27:46Z</time>
      </trkpt>
      <trkpt lat="46.90482" lon="3.85587">
        <ele>292</ele>
        <time>2022-02-14T22:27:48Z</time>
      </trkpt>
      <trkpt lat="46.90533" lon="3.85533">
        <ele>289</ele>
        <time>2022-02-14T22:28:00Z</time>
      </trkpt>
      <trkpt lat="46.90544" lon="3.85507">
        <ele>288</ele>
        <time>2022-02-14T22:28:03Z</time>
      </trkpt>
      <trkpt lat="46.90558" lon="3.85438">
        <ele>287</ele>
        <time>2022-02-14T22:28:12Z</time>
      </trkpt>
      <trkpt lat="46.90564" lon="3.85424">
        <ele>286</ele>
        <time>2022-02-14T22:28:14Z</time>
      </trkpt>
      <trkpt lat="46.90617" lon="3.85346">
        <ele>287</ele>
        <time>2022-02-14T22:28:27Z</time>
      </trkpt>
      <trkpt lat="46.90625" lon="3.8533">
        <ele>287</ele>
        <time>2022-02-14T22:28:30Z</time>
      </trkpt>
      <trkpt lat="46.90627" lon="3.85316">
        <ele>287</ele>
        <time>2022-02-14T22:28:32Z</time>
      </trkpt>
      <trkpt lat="46.90626" lon="3.85304">
        <ele>287</ele>
        <time>2022-02-14T22:28:33Z</time>
      </trkpt>
      <trkpt lat="46.90609" lon="3.85241">
        <ele>286</ele>
        <time>2022-02-14T22:28:41Z</time>
      </trkpt>
      <trkpt lat="46.90599" lon="3.85219">
        <ele>286</ele>
        <time>2022-02-14T22:28:44Z</time>
      </trkpt>
      <trkpt lat="46.90526" lon="3.85112">
        <ele>286</ele>
        <time>2022-02-14T22:29:03Z</time>
      </trkpt>
      <trkpt lat="46.90516" lon="3.85087">
        <ele>286</ele>
        <time>2022-02-14T22:29:06Z</time>
      </trkpt>
      <trkpt lat="46.90514" lon="3.8507">
        <ele>286</ele>
        <time>2022-02-14T22:29:08Z</time>
      </trkpt>
      <trkpt lat="46.90515" lon="3.85052">
        <ele>287</ele>
        <time>2022-02-14T22:29:11Z</time>
      </trkpt>
      <trkpt lat="46.90519" lon="3.85026">
        <ele>288</ele>
        <time>2022-02-14T22:29:14Z</time>
      </trkpt>
      <trkpt lat="46.90549" lon="3.84889">
        <ele>291</ele>
        <time>2022-02-14T22:29:31Z</time>
      </trkpt>
      <trkpt lat="46.9055" lon="3.84877">
        <ele>291</ele>
        <time>2022-02-14T22:29:33Z</time>
      </trkpt>
      <trkpt lat="46.90549" lon="3.84854">
        <ele>291</ele>
        <time>2022-02-14T22:29:36Z</time>
      </trkpt>
      <trkpt lat="46.90545" lon="3.84839">
        <ele>291</ele>
        <time>2022-02-14T22:29:38Z</time>
      </trkpt>
      <trkpt lat="46.90488" lon="3.84682">
        <ele>294</ele>
        <time>2022-02-14T22:29:59Z</time>
      </trkpt>
      <trkpt lat="46.90453" lon="3.84609">
        <ele>294</ele>
        <time>2022-02-14T22:30:10Z</time>
      </trkpt>
      <trkpt lat="46.90446" lon="3.84589">
        <ele>294</ele>
        <time>2022-02-14T22:30:13Z</time>
      </trkpt>
      <trkpt lat="46.90443" lon="3.84565">
        <ele>293</ele>
        <time>2022-02-14T22:30:16Z</time>
      </trkpt>
      <trkpt lat="46.90444" lon="3.84548">
        <ele>292</ele>
        <time>2022-02-14T22:30:18Z</time>
      </trkpt>
      <trkpt lat="46.90484" lon="3.84437">
        <ele>290</ele>
        <time>2022-02-14T22:30:33Z</time>
      </trkpt>
      <trkpt lat="46.90492" lon="3.8441">
        <ele>289</ele>
        <time>2022-02-14T22:30:37Z</time>
      </trkpt>
      <trkpt lat="46.9051" lon="3.84326">
        <ele>288</ele>
        <time>2022-02-14T22:30:47Z</time>
      </trkpt>
      <trkpt lat="46.90521" lon="3.84323">
        <ele>288</ele>
        <time>2022-02-14T22:30:49Z</time>
      </trkpt>
      <trkpt lat="46.90562" lon="3.84291">
        <ele>287</ele>
        <time>2022-02-14T22:30:58Z</time>
      </trkpt>
      <trkpt lat="46.90572" lon="3.84277">
        <ele>287</ele>
        <time>2022-02-14T22:31:00Z</time>
      </trkpt>
      <trkpt lat="46.90581" lon="3.84255">
        <ele>287</ele>
        <time>2022-02-14T22:31:03Z</time>
      </trkpt>
      <trkpt lat="46.90588" lon="3.84243">
        <ele>286</ele>
        <time>2022-02-14T22:31:05Z</time>
      </trkpt>
      <trkpt lat="46.90654" lon="3.84194">
        <ele>282</ele>
        <time>2022-02-14T22:31:18Z</time>
      </trkpt>
      <trkpt lat="46.90663" lon="3.84184">
        <ele>282</ele>
        <time>2022-02-14T22:31:20Z</time>
      </trkpt>
      <trkpt lat="46.9067" lon="3.84175">
        <ele>281</ele>
        <time>2022-02-14T22:31:22Z</time>
      </trkpt>
      <trkpt lat="46.90675" lon="3.84157">
        <ele>280</ele>
        <time>2022-02-14T22:31:24Z</time>
      </trkpt>
      <trkpt lat="46.90677" lon="3.84118">
        <ele>278</ele>
        <time>2022-02-14T22:31:29Z</time>
      </trkpt>
      <trkpt lat="46.90681" lon="3.84101">
        <ele>277</ele>
        <time>2022-02-14T22:31:31Z</time>
      </trkpt>
      <trkpt lat="46.90686" lon="3.84092">
        <ele>276</ele>
        <time>2022-02-14T22:31:33Z</time>
      </trkpt>
      <trkpt lat="46.90754" lon="3.84047">
        <ele>269</ele>
        <time>2022-02-14T22:31:46Z</time>
      </trkpt>
      <trkpt lat="46.90749" lon="3.84041">
        <ele>269</ele>
        <time>2022-02-14T22:31:47Z</time>
      </trkpt>
      <trkpt lat="46.90772" lon="3.8394">
        <ele>263</ele>
        <time>2022-02-14T22:32:00Z</time>
      </trkpt>
      <trkpt lat="46.90778" lon="3.83876">
        <ele>260</ele>
        <time>2022-02-14T22:32:08Z</time>
      </trkpt>
      <trkpt lat="46.90769" lon="3.83824">
        <ele>259</ele>
        <time>2022-02-14T22:32:14Z</time>
      </trkpt>
      <trkpt lat="46.90727" lon="3.83711">
        <ele>253</ele>
        <time>2022-02-14T22:32:30Z</time>
      </trkpt>
      <trkpt lat="46.90721" lon="3.8369">
        <ele>252</ele>
        <time>2022-02-14T22:32:33Z</time>
      </trkpt>
      <trkpt lat="46.90719" lon="3.83668">
        <ele>251</ele>
        <time>2022-02-14T22:32:36Z</time>
      </trkpt>
      <trkpt lat="46.90737" lon="3.83582">
        <ele>248</ele>
        <time>2022-02-14T22:32:46Z</time>
      </trkpt>
      <trkpt lat="46.90738" lon="3.83568">
        <ele>248</ele>
        <time>2022-02-14T22:32:48Z</time>
      </trkpt>
      <trkpt lat="46.90734" lon="3.83551">
        <ele>248</ele>
        <time>2022-02-14T22:32:50Z</time>
      </trkpt>
      <trkpt lat="46.90722" lon="3.83517">
        <ele>250</ele>
        <time>2022-02-14T22:32:55Z</time>
      </trkpt>
      <trkpt lat="46.90667" lon="3.83358">
        <ele>246</ele>
        <time>2022-02-14T22:33:17Z</time>
      </trkpt>
      <trkpt lat="46.90656" lon="3.83329">
        <ele>247</ele>
        <time>2022-02-14T22:33:21Z</time>
      </trkpt>
      <trkpt lat="46.9065" lon="3.83294">
        <ele>247</ele>
        <time>2022-02-14T22:33:25Z</time>
      </trkpt>
      <trkpt lat="46.9066" lon="3.83186">
        <ele>246</ele>
        <time>2022-02-14T22:33:38Z</time>
      </trkpt>
      <trkpt lat="46.90671" lon="3.83046">
        <ele>241</ele>
        <time>2022-02-14T22:33:56Z</time>
      </trkpt>
      <trkpt lat="46.90679" lon="3.82978">
        <ele>239</ele>
        <time>2022-02-14T22:34:04Z</time>
      </trkpt>
      <trkpt lat="46.90695" lon="3.82874">
        <ele>237</ele>
        <time>2022-02-14T22:34:17Z</time>
      </trkpt>
      <trkpt lat="46.907" lon="3.82811">
        <ele>237</ele>
        <time>2022-02-14T22:34:25Z</time>
      </trkpt>
      <trkpt lat="46.9069" lon="3.82696">
        <ele>237</ele>
        <time>2022-02-14T22:34:39Z</time>
      </trkpt>
      <trkpt lat="46.9069" lon="3.826">
        <ele>236</ele>
        <time>2022-02-14T22:34:50Z</time>
      </trkpt>
      <trkpt lat="46.90695" lon="3.82536">
        <ele>236</ele>
        <time>2022-02-14T22:34:58Z</time>
      </trkpt>
      <trkpt lat="46.90699" lon="3.82502">
        <ele>236</ele>
        <time>2022-02-14T22:35:02Z</time>
      </trkpt>
      <trkpt lat="46.90724" lon="3.8236">
        <ele>236</ele>
        <time>2022-02-14T22:35:20Z</time>
      </trkpt>
      <trkpt lat="46.90727" lon="3.82324">
        <ele>235</ele>
        <time>2022-02-14T22:35:25Z</time>
      </trkpt>
      <trkpt lat="46.90681" lon="3.81842">
        <ele>229</ele>
        <time>2022-02-14T22:36:24Z</time>
      </trkpt>
      <trkpt lat="46.9068" lon="3.81792">
        <ele>229</ele>
        <time>2022-02-14T22:36:30Z</time>
      </trkpt>
      <trkpt lat="46.90692" lon="3.81557">
        <ele>235</ele>
        <time>2022-02-14T22:36:58Z</time>
      </trkpt>
      <trkpt lat="46.90691" lon="3.81535">
        <ele>235</ele>
        <time>2022-02-14T22:37:01Z</time>
      </trkpt>
      <trkpt lat="46.90673" lon="3.81371">
        <ele>236</ele>
        <time>2022-02-14T22:37:21Z</time>
      </trkpt>
      <trkpt lat="46.90664" lon="3.81303">
        <ele>236</ele>
        <time>2022-02-14T22:37:30Z</time>
      </trkpt>
      <trkpt lat="46.90641" lon="3.8119">
        <ele>239</ele>
        <time>2022-02-14T22:37:44Z</time>
      </trkpt>
      <trkpt lat="46.90635" lon="3.81135">
        <ele>241</ele>
        <time>2022-02-14T22:37:51Z</time>
      </trkpt>
      <trkpt lat="46.90638" lon="3.80969">
        <ele>245</ele>
        <time>2022-02-14T22:38:11Z</time>
      </trkpt>
      <trkpt lat="46.9067" lon="3.80493">
        <ele>234</ele>
        <time>2022-02-14T22:39:09Z</time>
      </trkpt>
      <trkpt lat="46.90731" lon="3.8015">
        <ele>236</ele>
        <time>2022-02-14T22:39:52Z</time>
      </trkpt>
      <trkpt lat="46.90744" lon="3.80043">
        <ele>238</ele>
        <time>2022-02-14T22:40:05Z</time>
      </trkpt>
      <trkpt lat="46.90765" lon="3.79914">
        <ele>238</ele>
        <time>2022-02-14T22:40:22Z</time>
      </trkpt>
      <trkpt lat="46.9077" lon="3.79846">
        <ele>237</ele>
        <time>2022-02-14T22:40:30Z</time>
      </trkpt>
      <trkpt lat="46.90764" lon="3.79367">
        <ele>237</ele>
        <time>2022-02-14T22:41:28Z</time>
      </trkpt>
      <trkpt lat="46.90718" lon="3.78794">
        <ele>245</ele>
        <time>2022-02-14T22:42:38Z</time>
      </trkpt>
      <trkpt lat="46.90712" lon="3.78687">
        <ele>249</ele>
        <time>2022-02-14T22:42:51Z</time>
      </trkpt>
      <trkpt lat="46.90708" lon="3.78417">
        <ele>254</ele>
        <time>2022-02-14T22:43:24Z</time>
      </trkpt>
      <trkpt lat="46.90728" lon="3.78234">
        <ele>254</ele>
        <time>2022-02-14T22:43:47Z</time>
      </trkpt>
      <trkpt lat="46.90787" lon="3.77887">
        <ele>242</ele>
        <time>2022-02-14T22:44:30Z</time>
      </trkpt>
      <trkpt lat="46.90805" lon="3.77842">
        <ele>238</ele>
        <time>2022-02-14T22:44:36Z</time>
      </trkpt>
      <trkpt lat="46.90892" lon="3.77687">
        <ele>234</ele>
        <time>2022-02-14T22:45:01Z</time>
      </trkpt>
      <trkpt lat="46.90906" lon="3.77658">
        <ele>234</ele>
        <time>2022-02-14T22:45:05Z</time>
      </trkpt>
      <trkpt lat="46.90916" lon="3.77624">
        <ele>234</ele>
        <time>2022-02-14T22:45:10Z</time>
      </trkpt>
      <trkpt lat="46.90926" lon="3.77577">
        <ele>233</ele>
        <time>2022-02-14T22:45:16Z</time>
      </trkpt>
      <trkpt lat="46.90929" lon="3.77544">
        <ele>231</ele>
        <time>2022-02-14T22:45:20Z</time>
      </trkpt>
      <trkpt lat="46.90928" lon="3.77389">
        <ele>228</ele>
        <time>2022-02-14T22:45:39Z</time>
      </trkpt>
      <trkpt lat="46.90933" lon="3.77353">
        <ele>228</ele>
        <time>2022-02-14T22:45:43Z</time>
      </trkpt>
      <trkpt lat="46.91011" lon="3.77154">
        <ele>226</ele>
        <time>2022-02-14T22:46:11Z</time>
      </trkpt>
      <trkpt lat="46.91069" lon="3.77032">
        <ele>226</ele>
        <time>2022-02-14T22:46:29Z</time>
      </trkpt>
      <trkpt lat="46.91063" lon="3.76963">
        <ele>225</ele>
        <time>2022-02-14T22:46:37Z</time>
      </trkpt>
      <trkpt lat="46.91019" lon="3.76813">
        <ele>223</ele>
        <time>2022-02-14T22:46:57Z</time>
      </trkpt>
      <trkpt lat="46.91015" lon="3.76753">
        <ele>222</ele>
        <time>2022-02-14T22:47:05Z</time>
      </trkpt>
      <trkpt lat="46.91071" lon="3.76427">
        <ele>212</ele>
        <time>2022-02-14T22:47:45Z</time>
      </trkpt>
      <trkpt lat="46.91082" lon="3.76391">
        <ele>212</ele>
        <time>2022-02-14T22:47:50Z</time>
      </trkpt>
      <trkpt lat="46.91094" lon="3.76359">
        <ele>212</ele>
        <time>2022-02-14T22:47:55Z</time>
      </trkpt>
      <trkpt lat="46.91152" lon="3.76221">
        <ele>216</ele>
        <time>2022-02-14T22:48:14Z</time>
      </trkpt>
      <trkpt lat="46.91169" lon="3.76177">
        <ele>217</ele>
        <time>2022-02-14T22:48:21Z</time>
      </trkpt>
      <trkpt lat="46.91186" lon="3.76147">
        <ele>217</ele>
        <time>2022-02-14T22:48:25Z</time>
      </trkpt>
      <trkpt lat="46.91205" lon="3.76128">
        <ele>218</ele>
        <time>2022-02-14T22:48:29Z</time>
      </trkpt>
      <trkpt lat="46.91219" lon="3.7612">
        <ele>219</ele>
        <time>2022-02-14T22:48:32Z</time>
      </trkpt>
      <trkpt lat="46.91258" lon="3.76109">
        <ele>220</ele>
        <time>2022-02-14T22:48:39Z</time>
      </trkpt>
      <trkpt lat="46.91272" lon="3.76103">
        <ele>221</ele>
        <time>2022-02-14T22:48:42Z</time>
      </trkpt>
      <trkpt lat="46.91292" lon="3.7609">
        <ele>221</ele>
        <time>2022-02-14T22:48:46Z</time>
      </trkpt>
      <trkpt lat="46.91283" lon="3.76074">
        <ele>220</ele>
        <time>2022-02-14T22:48:48Z</time>
      </trkpt>
      <trkpt lat="46.91273" lon="3.76051">
        <ele>220</ele>
        <time>2022-02-14T22:48:51Z</time>
      </trkpt>
      <trkpt lat="46.91248" lon="3.75964">
        <ele>220</ele>
        <time>2022-02-14T22:49:03Z</time>
      </trkpt>
      <trkpt lat="46.91153" lon="3.75661">
        <ele>216</ele>
        <time>2022-02-14T22:49:43Z</time>
      </trkpt>
      <trkpt lat="46.91141" lon="3.75615">
        <ele>214</ele>
        <time>2022-02-14T22:49:49Z</time>
      </trkpt>
      <trkpt lat="46.91099" lon="3.75407">
        <ele>207</ele>
        <time>2022-02-14T22:50:16Z</time>
      </trkpt>
      <trkpt lat="46.91096" lon="3.75398">
        <ele>207</ele>
        <time>2022-02-14T22:50:17Z</time>
      </trkpt>
      <trkpt lat="46.91093" lon="3.75374">
        <ele>207</ele>
        <time>2022-02-14T22:50:20Z</time>
      </trkpt>
      <trkpt lat="46.9109" lon="3.75362">
        <ele>208</ele>
        <time>2022-02-14T22:50:22Z</time>
      </trkpt>
      <trkpt lat="46.91081" lon="3.75311">
        <ele>209</ele>
        <time>2022-02-14T22:50:28Z</time>
      </trkpt>
      <trkpt lat="46.91067" lon="3.75155">
        <ele>213</ele>
        <time>2022-02-14T22:50:47Z</time>
      </trkpt>
      <trkpt lat="46.91058" lon="3.75012">
        <ele>213</ele>
        <time>2022-02-14T22:51:04Z</time>
      </trkpt>
      <trkpt lat="46.91049" lon="3.74938">
        <ele>216</ele>
        <time>2022-02-14T22:51:14Z</time>
      </trkpt>
      <trkpt lat="46.90946" lon="3.74548">
        <ele>221</ele>
        <time>2022-02-14T22:52:04Z</time>
      </trkpt>
      <trkpt lat="46.90839" lon="3.74231">
        <ele>226</ele>
        <time>2022-02-14T22:52:47Z</time>
      </trkpt>
      <trkpt lat="46.90724" lon="3.7384">
        <ele>217</ele>
        <time>2022-02-14T22:53:39Z</time>
      </trkpt>
      <trkpt lat="46.90699" lon="3.73786">
        <ele>215</ele>
        <time>2022-02-14T22:53:47Z</time>
      </trkpt>
      <trkpt lat="46.90515" lon="3.73526">
        <ele>206</ele>
        <time>2022-02-14T22:54:33Z</time>
      </trkpt>
      <trkpt lat="46.90525" lon="3.73509">
        <ele>205</ele>
        <time>2022-02-14T22:54:35Z</time>
      </trkpt>
      <trkpt lat="46.90571" lon="3.73318">
        <ele>203</ele>
        <time>2022-02-14T22:55:00Z</time>
      </trkpt>
      <trkpt lat="46.9058" lon="3.73085">
        <ele>201</ele>
        <time>2022-02-14T22:55:28Z</time>
      </trkpt>
      <trkpt lat="46.90576" lon="3.73041">
        <ele>202</ele>
        <time>2022-02-14T22:55:34Z</time>
      </trkpt>
      <trkpt lat="46.90505" lon="3.72867">
        <ele>203</ele>
        <time>2022-02-14T22:55:58Z</time>
      </trkpt>
      <trkpt lat="46.90489" lon="3.72827">
        <ele>203</ele>
        <time>2022-02-14T22:56:04Z</time>
      </trkpt>
      <trkpt lat="46.90484" lon="3.72799">
        <ele>203</ele>
        <time>2022-02-14T22:56:08Z</time>
      </trkpt>
      <trkpt lat="46.90488" lon="3.72777">
        <ele>203</ele>
        <time>2022-02-14T22:56:10Z</time>
      </trkpt>
      <trkpt lat="46.905" lon="3.72758">
        <ele>204</ele>
        <time>2022-02-14T22:56:13Z</time>
      </trkpt>
      <trkpt lat="46.90537" lon="3.72736">
        <ele>204</ele>
        <time>2022-02-14T22:56:21Z</time>
      </trkpt>
      <trkpt lat="46.90583" lon="3.72714">
        <ele>205</ele>
        <time>2022-02-14T22:56:29Z</time>
      </trkpt>
      <trkpt lat="46.9066" lon="3.72672">
        <ele>204</ele>
        <time>2022-02-14T22:56:44Z</time>
      </trkpt>
      <trkpt lat="46.90677" lon="3.72658">
        <ele>204</ele>
        <time>2022-02-14T22:56:47Z</time>
      </trkpt>
      <trkpt lat="46.90698" lon="3.72626">
        <ele>204</ele>
        <time>2022-02-14T22:56:53Z</time>
      </trkpt>
      <trkpt lat="46.90707" lon="3.72612">
        <ele>204</ele>
        <time>2022-02-14T22:56:55Z</time>
      </trkpt>
      <trkpt lat="46.90711" lon="3.72605">
        <ele>204</ele>
        <time>2022-02-14T22:56:56Z</time>
      </trkpt>
      <trkpt lat="46.90656" lon="3.72538">
        <ele>204</ele>
        <time>2022-02-14T22:57:09Z</time>
      </trkpt>
      <trkpt lat="46.90626" lon="3.72495">
        <ele>204</ele>
        <time>2022-02-14T22:57:16Z</time>
      </trkpt>
      <trkpt lat="46.90584" lon="3.72424">
        <ele>202</ele>
        <time>2022-02-14T22:57:28Z</time>
      </trkpt>
      <trkpt lat="46.90555" lon="3.7237">
        <ele>202</ele>
        <time>2022-02-14T22:57:36Z</time>
      </trkpt>
      <trkpt lat="46.90293" lon="3.71811">
        <ele>203</ele>
        <time>2022-02-14T22:58:58Z</time>
      </trkpt>
      <trkpt lat="46.90238" lon="3.71689">
        <ele>203</ele>
        <time>2022-02-14T22:59:16Z</time>
      </trkpt>
      <trkpt lat="46.90035" lon="3.71262">
        <ele>205</ele>
        <time>2022-02-14T23:00:19Z</time>
      </trkpt>
      <trkpt lat="46.89709" lon="3.70567">
        <ele>201</ele>
        <time>2022-02-14T23:02:02Z</time>
      </trkpt>
      <trkpt lat="46.89697" lon="3.70544">
        <ele>201</ele>
        <time>2022-02-14T23:02:05Z</time>
      </trkpt>
      <trkpt lat="46.89686" lon="3.70516">
        <ele>201</ele>
        <time>2022-02-14T23:02:09Z</time>
      </trkpt>
      <trkpt lat="46.89683" lon="3.70503">
        <ele>201</ele>
        <time>2022-02-14T23:02:11Z</time>
      </trkpt>
      <trkpt lat="46.89647" lon="3.70432">
        <ele>200</ele>
        <time>2022-02-14T23:02:22Z</time>
      </trkpt>
      <trkpt lat="46.89542" lon="3.70209">
        <ele>200</ele>
        <time>2022-02-14T23:02:55Z</time>
      </trkpt>
      <trkpt lat="46.895" lon="3.70108">
        <ele>201</ele>
        <time>2022-02-14T23:03:09Z</time>
      </trkpt>
      <trkpt lat="46.89449" lon="3.69974">
        <ele>203</ele>
        <time>2022-02-14T23:03:28Z</time>
      </trkpt>
      <trkpt lat="46.89036" lon="3.68738">
        <ele>200</ele>
        <time>2022-02-14T23:06:15Z</time>
      </trkpt>
      <trkpt lat="46.89017" lon="3.68676">
        <ele>203</ele>
        <time>2022-02-14T23:06:23Z</time>
      </trkpt>
      <trkpt lat="46.89013" lon="3.6866">
        <ele>203</ele>
        <time>2022-02-14T23:06:25Z</time>
      </trkpt>
      <trkpt lat="46.88947" lon="3.68509">
        <ele>200</ele>
        <time>2022-02-14T23:06:47Z</time>
      </trkpt>
      <trkpt lat="46.88915" lon="3.68447">
        <ele>199</ele>
        <time>2022-02-14T23:06:57Z</time>
      </trkpt>
      <trkpt lat="46.88878" lon="3.68387">
        <ele>199</ele>
        <time>2022-02-14T23:07:06Z</time>
      </trkpt>
      <trkpt lat="46.88555" lon="3.67907">
        <ele>202</ele>
        <time>2022-02-14T23:08:28Z</time>
      </trkpt>
      <trkpt lat="46.88173" lon="3.67344">
        <ele>201</ele>
        <time>2022-02-14T23:10:05Z</time>
      </trkpt>
      <trkpt lat="46.88158" lon="3.67325">
        <ele>201</ele>
        <time>2022-02-14T23:10:08Z</time>
      </trkpt>
      <trkpt lat="46.8814" lon="3.67289">
        <ele>202</ele>
        <time>2022-02-14T23:10:14Z</time>
      </trkpt>
      <trkpt lat="46.8798" lon="3.67055">
        <ele>199</ele>
        <time>2022-02-14T23:10:54Z</time>
      </trkpt>
      <trkpt lat="46.87909" lon="3.66945">
        <ele>199</ele>
        <time>2022-02-14T23:11:12Z</time>
      </trkpt>
      <trkpt lat="46.87843" lon="3.66835">
        <ele>199</ele>
        <time>2022-02-14T23:11:30Z</time>
      </trkpt>
      <trkpt lat="46.87791" lon="3.66738">
        <ele>199</ele>
        <time>2022-02-14T23:11:45Z</time>
      </trkpt>
      <trkpt lat="46.87785" lon="3.66724">
        <ele>199</ele>
        <time>2022-02-14T23:11:47Z</time>
      </trkpt>
      <trkpt lat="46.87559" lon="3.66313">
        <ele>204</ele>
        <time>2022-02-14T23:12:51Z</time>
      </trkpt>
      <trkpt lat="46.87538" lon="3.6628">
        <ele>207</ele>
        <time>2022-02-14T23:12:57Z</time>
      </trkpt>
      <trkpt lat="46.87519" lon="3.66258">
        <ele>208</ele>
        <time>2022-02-14T23:13:01Z</time>
      </trkpt>
      <trkpt lat="46.87484" lon="3.6622">
        <ele>209</ele>
        <time>2022-02-14T23:13:09Z</time>
      </trkpt>
      <trkpt lat="46.87449" lon="3.6619">
        <ele>209</ele>
        <time>2022-02-14T23:13:16Z</time>
      </trkpt>
      <trkpt lat="46.87315" lon="3.66103">
        <ele>209</ele>
        <time>2022-02-14T23:13:42Z</time>
      </trkpt>
      <trkpt lat="46.87202" lon="3.66034">
        <ele>206</ele>
        <time>2022-02-14T23:14:04Z</time>
      </trkpt>
      <trkpt lat="46.87153" lon="3.65993">
        <ele>203</ele>
        <time>2022-02-14T23:14:14Z</time>
      </trkpt>
      <trkpt lat="46.87128" lon="3.65977">
        <ele>202</ele>
        <time>2022-02-14T23:14:19Z</time>
      </trkpt>
      <trkpt lat="46.87111" lon="3.65963">
        <ele>201</ele>
        <time>2022-02-14T23:14:22Z</time>
      </trkpt>
      <trkpt lat="46.8708" lon="3.65925">
        <ele>200</ele>
        <time>2022-02-14T23:14:30Z</time>
      </trkpt>
      <trkpt lat="46.87068" lon="3.65905">
        <ele>200</ele>
        <time>2022-02-14T23:14:33Z</time>
      </trkpt>
      <trkpt lat="46.87046" lon="3.6586">
        <ele>199</ele>
        <time>2022-02-14T23:14:40Z</time>
      </trkpt>
      <trkpt lat="46.87037" lon="3.65838">
        <ele>199</ele>
        <time>2022-02-14T23:14:43Z</time>
      </trkpt>
      <trkpt lat="46.87028" lon="3.65806">
        <ele>199</ele>
        <time>2022-02-14T23:14:47Z</time>
      </trkpt>
      <trkpt lat="46.87011" lon="3.6572">
        <ele>199</ele>
        <time>2022-02-14T23:14:58Z</time>
      </trkpt>
      <trkpt lat="46.86897" lon="3.65015">
        <ele>199</ele>
        <time>2022-02-14T23:16:26Z</time>
      </trkpt>
      <trkpt lat="46.86896" lon="3.65003">
        <ele>199</ele>
        <time>2022-02-14T23:16:27Z</time>
      </trkpt>
      <trkpt lat="46.86897" lon="3.64989">
        <ele>199</ele>
        <time>2022-02-14T23:16:29Z</time>
      </trkpt>
      <trkpt lat="46.86908" lon="3.64944">
        <ele>200</ele>
        <time>2022-02-14T23:16:35Z</time>
      </trkpt>
      <trkpt lat="46.86907" lon="3.64929">
        <ele>201</ele>
        <time>2022-02-14T23:16:37Z</time>
      </trkpt>
      <trkpt lat="46.86905" lon="3.64914">
        <ele>201</ele>
        <time>2022-02-14T23:16:39Z</time>
      </trkpt>
      <trkpt lat="46.86869" lon="3.64689">
        <ele>204</ele>
        <time>2022-02-14T23:17:07Z</time>
      </trkpt>
      <trkpt lat="46.86865" lon="3.64679">
        <ele>203</ele>
        <time>2022-02-14T23:17:08Z</time>
      </trkpt>
      <trkpt lat="46.86842" lon="3.64643">
        <ele>201</ele>
        <time>2022-02-14T23:17:14Z</time>
      </trkpt>
      <trkpt lat="46.86835" lon="3.64624">
        <ele>200</ele>
        <time>2022-02-14T23:17:17Z</time>
      </trkpt>
      <trkpt lat="46.86817" lon="3.64526">
        <ele>201</ele>
        <time>2022-02-14T23:17:29Z</time>
      </trkpt>
      <trkpt lat="46.86813" lon="3.64491">
        <ele>201</ele>
        <time>2022-02-14T23:17:33Z</time>
      </trkpt>
      <trkpt lat="46.86814" lon="3.64488">
        <ele>201</ele>
        <time>2022-02-14T23:17:34Z</time>
      </trkpt>
      <trkpt lat="46.86815" lon="3.6448">
        <ele>201</ele>
        <time>2022-02-14T23:17:35Z</time>
      </trkpt>
      <trkpt lat="46.86796" lon="3.64355">
        <ele>203</ele>
        <time>2022-02-14T23:17:50Z</time>
      </trkpt>
      <trkpt lat="46.86795" lon="3.64339">
        <ele>203</ele>
        <time>2022-02-14T23:17:52Z</time>
      </trkpt>
      <trkpt lat="46.86798" lon="3.64273">
        <ele>203</ele>
        <time>2022-02-14T23:18:00Z</time>
      </trkpt>
      <trkpt lat="46.86784" lon="3.64269">
        <ele>202</ele>
        <time>2022-02-14T23:18:03Z</time>
      </trkpt>
      <trkpt lat="46.86772" lon="3.64247">
        <ele>202</ele>
        <time>2022-02-14T23:18:06Z</time>
      </trkpt>
      <trkpt lat="46.86756" lon="3.64208">
        <ele>200</ele>
        <time>2022-02-14T23:18:12Z</time>
      </trkpt>
      <trkpt lat="46.86721" lon="3.64103">
        <ele>197</ele>
        <time>2022-02-14T23:18:26Z</time>
      </trkpt>
      <trkpt lat="46.86714" lon="3.64076">
        <ele>197</ele>
        <time>2022-02-14T23:18:30Z</time>
      </trkpt>
      <trkpt lat="46.86711" lon="3.64052">
        <ele>197</ele>
        <time>2022-02-14T23:18:33Z</time>
      </trkpt>
      <trkpt lat="46.86711" lon="3.64022">
        <ele>197</ele>
        <time>2022-02-14T23:18:36Z</time>
      </trkpt>
      <trkpt lat="46.86711" lon="3.64013">
        <ele>197</ele>
        <time>2022-02-14T23:18:37Z</time>
      </trkpt>
      <trkpt lat="46.86711" lon="3.63951">
        <ele>197</ele>
        <time>2022-02-14T23:18:45Z</time>
      </trkpt>
      <trkpt lat="46.86715" lon="3.63907">
        <ele>196</ele>
        <time>2022-02-14T23:18:50Z</time>
      </trkpt>
      <trkpt lat="46.86713" lon="3.63899">
        <ele>196</ele>
        <time>2022-02-14T23:18:51Z</time>
      </trkpt>
      <trkpt lat="46.86707" lon="3.63896">
        <ele>196</ele>
        <time>2022-02-14T23:18:52Z</time>
      </trkpt>
      <trkpt lat="46.86692" lon="3.63896">
        <ele>196</ele>
        <time>2022-02-14T23:18:55Z</time>
      </trkpt>
      <trkpt lat="46.86685" lon="3.63892">
        <ele>196</ele>
        <time>2022-02-14T23:18:56Z</time>
      </trkpt>
      <trkpt lat="46.86683" lon="3.63883">
        <ele>196</ele>
        <time>2022-02-14T23:18:58Z</time>
      </trkpt>
      <trkpt lat="46.86688" lon="3.63846">
        <ele>196</ele>
        <time>2022-02-14T23:19:02Z</time>
      </trkpt>
      <trkpt lat="46.86687" lon="3.63304">
        <ele>196</ele>
        <time>2022-02-14T23:20:08Z</time>
      </trkpt>
      <trkpt lat="46.86691" lon="3.61712">
        <ele>196</ele>
        <time>2022-02-14T23:23:22Z</time>
      </trkpt>
      <trkpt lat="46.86687" lon="3.61616">
        <ele>197</ele>
        <time>2022-02-14T23:23:33Z</time>
      </trkpt>
      <trkpt lat="46.86692" lon="3.61436">
        <ele>196</ele>
        <time>2022-02-14T23:23:55Z</time>
      </trkpt>
      <trkpt lat="46.86691" lon="3.61354">
        <ele>197</ele>
        <time>2022-02-14T23:24:05Z</time>
      </trkpt>
      <trkpt lat="46.8669" lon="3.61322">
        <ele>197</ele>
        <time>2022-02-14T23:24:09Z</time>
      </trkpt>
      <trkpt lat="46.86684" lon="3.61274">
        <ele>197</ele>
        <time>2022-02-14T23:24:15Z</time>
      </trkpt>
      <trkpt lat="46.86668" lon="3.61195">
        <ele>196</ele>
        <time>2022-02-14T23:24:25Z</time>
      </trkpt>
      <trkpt lat="46.86653" lon="3.61142">
        <ele>196</ele>
        <time>2022-02-14T23:24:32Z</time>
      </trkpt>
      <trkpt lat="46.86637" lon="3.61091">
        <ele>197</ele>
        <time>2022-02-14T23:24:39Z</time>
      </trkpt>
      <trkpt lat="46.8662" lon="3.61051">
        <ele>198</ele>
        <time>2022-02-14T23:24:45Z</time>
      </trkpt>
      <trkpt lat="46.86357" lon="3.60459">
        <ele>197</ele>
        <time>2022-02-14T23:26:11Z</time>
      </trkpt>
      <trkpt lat="46.86303" lon="3.60346">
        <ele>198</ele>
        <time>2022-02-14T23:26:27Z</time>
      </trkpt>
      <trkpt lat="46.86303" lon="3.60334">
        <ele>198</ele>
        <time>2022-02-14T23:26:29Z</time>
      </trkpt>
      <trkpt lat="46.86307" lon="3.6033">
        <ele>198</ele>
        <time>2022-02-14T23:26:30Z</time>
      </trkpt>
      <trkpt lat="46.86315" lon="3.60323">
        <ele>198</ele>
        <time>2022-02-14T23:26:31Z</time>
      </trkpt>
      <trkpt lat="46.86324" lon="3.60314">
        <ele>198</ele>
        <time>2022-02-14T23:26:33Z</time>
      </trkpt>
      <trkpt lat="46.86323" lon="3.6031">
        <ele>198</ele>
        <time>2022-02-14T23:26:34Z</time>
      </trkpt>
      <trkpt lat="46.86315" lon="3.60297">
        <ele>198</ele>
        <time>2022-02-14T23:26:36Z</time>
      </trkpt>
      <trkpt lat="46.86299" lon="3.60265">
        <ele>198</ele>
        <time>2022-02-14T23:26:41Z</time>
      </trkpt>
      <trkpt lat="46.86283" lon="3.60231">
        <ele>197</ele>
        <time>2022-02-14T23:26:46Z</time>
      </trkpt>
      <trkpt lat="46.86229" lon="3.60108">
        <ele>197</ele>
        <time>2022-02-14T23:27:04Z</time>
      </trkpt>
      <trkpt lat="46.86218" lon="3.60079">
        <ele>197</ele>
        <time>2022-02-14T23:27:08Z</time>
      </trkpt>
      <trkpt lat="46.86202" lon="3.60032">
        <ele>197</ele>
        <time>2022-02-14T23:27:14Z</time>
      </trkpt>
      <trkpt lat="46.86187" lon="3.5998">
        <ele>197</ele>
        <time>2022-02-14T23:27:21Z</time>
      </trkpt>
      <trkpt lat="46.8617" lon="3.59911">
        <ele>196</ele>
        <time>2022-02-14T23:27:30Z</time>
      </trkpt>
      <trkpt lat="46.8616" lon="3.59859">
        <ele>198</ele>
        <time>2022-02-14T23:27:36Z</time>
      </trkpt>
      <trkpt lat="46.86105" lon="3.59386">
        <ele>203</ele>
        <time>2022-02-14T23:28:35Z</time>
      </trkpt>
      <trkpt lat="46.86099" lon="3.59331">
        <ele>204</ele>
        <time>2022-02-14T23:28:42Z</time>
      </trkpt>
      <trkpt lat="46.86098" lon="3.593">
        <ele>202</ele>
        <time>2022-02-14T23:28:45Z</time>
      </trkpt>
      <trkpt lat="46.861" lon="3.59244">
        <ele>201</ele>
        <time>2022-02-14T23:28:52Z</time>
      </trkpt>
      <trkpt lat="46.86108" lon="3.59176">
        <ele>201</ele>
        <time>2022-02-14T23:29:01Z</time>
      </trkpt>
      <trkpt lat="46.86149" lon="3.58998">
        <ele>198</ele>
        <time>2022-02-14T23:29:23Z</time>
      </trkpt>
      <trkpt lat="46.86155" lon="3.58933">
        <ele>196</ele>
        <time>2022-02-14T23:29:31Z</time>
      </trkpt>
      <trkpt lat="46.86156" lon="3.58881">
        <ele>195</ele>
        <time>2022-02-14T23:29:38Z</time>
      </trkpt>
      <trkpt lat="46.86154" lon="3.58856">
        <ele>195</ele>
        <time>2022-02-14T23:29:41Z</time>
      </trkpt>
      <trkpt lat="46.86148" lon="3.58826">
        <ele>194</ele>
        <time>2022-02-14T23:29:45Z</time>
      </trkpt>
      <trkpt lat="46.86134" lon="3.58769">
        <ele>195</ele>
        <time>2022-02-14T23:29:52Z</time>
      </trkpt>
      <trkpt lat="46.8611" lon="3.58705">
        <ele>197</ele>
        <time>2022-02-14T23:30:01Z</time>
      </trkpt>
      <trkpt lat="46.86" lon="3.58517">
        <ele>202</ele>
        <time>2022-02-14T23:30:31Z</time>
      </trkpt>
      <trkpt lat="46.85941" lon="3.58401">
        <ele>202</ele>
        <time>2022-02-14T23:30:48Z</time>
      </trkpt>
      <trkpt lat="46.85917" lon="3.58345">
        <ele>201</ele>
        <time>2022-02-14T23:30:57Z</time>
      </trkpt>
      <trkpt lat="46.8589" lon="3.58275">
        <ele>201</ele>
        <time>2022-02-14T23:31:06Z</time>
      </trkpt>
      <trkpt lat="46.85771" lon="3.57901">
        <ele>200</ele>
        <time>2022-02-14T23:31:57Z</time>
      </trkpt>
      <trkpt lat="46.85752" lon="3.57835">
        <ele>200</ele>
        <time>2022-02-14T23:32:05Z</time>
      </trkpt>
      <trkpt lat="46.85735" lon="3.57795">
        <ele>202</ele>
        <time>2022-02-14T23:32:11Z</time>
      </trkpt>
      <trkpt lat="46.85688" lon="3.57722">
        <ele>203</ele>
        <time>2022-02-14T23:32:23Z</time>
      </trkpt>
      <trkpt lat="46.85583" lon="3.57592">
        <ele>201</ele>
        <time>2022-02-14T23:32:48Z</time>
      </trkpt>
      <trkpt lat="46.85528" lon="3.57533">
        <ele>203</ele>
        <time>2022-02-14T23:33:00Z</time>
      </trkpt>
      <trkpt lat="46.85453" lon="3.57467">
        <ele>201</ele>
        <time>2022-02-14T23:33:15Z</time>
      </trkpt>
      <trkpt lat="46.85446" lon="3.5746">
        <ele>200</ele>
        <time>2022-02-14T23:33:17Z</time>
      </trkpt>
      <trkpt lat="46.85415" lon="3.57403">
        <ele>199</ele>
        <time>2022-02-14T23:33:26Z</time>
      </trkpt>
      <trkpt lat="46.85381" lon="3.57331">
        <ele>201</ele>
        <time>2022-02-14T23:33:36Z</time>
      </trkpt>
      <trkpt lat="46.85379" lon="3.57329">
        <ele>201</ele>
        <time>2022-02-14T23:33:37Z</time>
      </trkpt>
      <trkpt lat="46.85347" lon="3.57272">
        <ele>200</ele>
        <time>2022-02-14T23:33:46Z</time>
      </trkpt>
      <trkpt lat="46.85111" lon="3.56829">
        <ele>200</ele>
        <time>2022-02-14T23:34:54Z</time>
      </trkpt>
      <trkpt lat="46.85093" lon="3.56793">
        <ele>199</ele>
        <time>2022-02-14T23:35:00Z</time>
      </trkpt>
      <trkpt lat="46.85067" lon="3.56723">
        <ele>199</ele>
        <time>2022-02-14T23:35:09Z</time>
      </trkpt>
      <trkpt lat="46.85039" lon="3.56641">
        <ele>200</ele>
        <time>2022-02-14T23:35:20Z</time>
      </trkpt>
      <trkpt lat="46.84937" lon="3.56251">
        <ele>203</ele>
        <time>2022-02-14T23:36:11Z</time>
      </trkpt>
      <trkpt lat="46.84822" lon="3.55803">
        <ele>196</ele>
        <time>2022-02-14T23:37:09Z</time>
      </trkpt>
      <trkpt lat="46.84818" lon="3.55764">
        <ele>196</ele>
        <time>2022-02-14T23:37:14Z</time>
      </trkpt>
      <trkpt lat="46.84816" lon="3.55729">
        <ele>195</ele>
        <time>2022-02-14T23:37:18Z</time>
      </trkpt>
      <trkpt lat="46.84816" lon="3.55653">
        <ele>194</ele>
        <time>2022-02-14T23:37:28Z</time>
      </trkpt>
      <trkpt lat="46.84826" lon="3.5539">
        <ele>193</ele>
        <time>2022-02-14T23:38:00Z</time>
      </trkpt>
      <trkpt lat="46.84826" lon="3.55372">
        <ele>192</ele>
        <time>2022-02-14T23:38:02Z</time>
      </trkpt>
      <trkpt lat="46.84822" lon="3.55363">
        <ele>192</ele>
        <time>2022-02-14T23:38:03Z</time>
      </trkpt>
      <trkpt lat="46.84822" lon="3.55341">
        <ele>192</ele>
        <time>2022-02-14T23:38:06Z</time>
      </trkpt>
      <trkpt lat="46.84829" lon="3.55311">
        <ele>192</ele>
        <time>2022-02-14T23:38:10Z</time>
      </trkpt>
      <trkpt lat="46.84833" lon="3.55231">
        <ele>193</ele>
        <time>2022-02-14T23:38:20Z</time>
      </trkpt>
      <trkpt lat="46.84835" lon="3.55161">
        <ele>192</ele>
        <time>2022-02-14T23:38:28Z</time>
      </trkpt>
      <trkpt lat="46.84832" lon="3.55081">
        <ele>193</ele>
        <time>2022-02-14T23:38:38Z</time>
      </trkpt>
      <trkpt lat="46.84828" lon="3.55036">
        <ele>193</ele>
        <time>2022-02-14T23:38:43Z</time>
      </trkpt>
      <trkpt lat="46.84815" lon="3.54945">
        <ele>193</ele>
        <time>2022-02-14T23:38:55Z</time>
      </trkpt>
      <trkpt lat="46.84796" lon="3.54864">
        <ele>193</ele>
        <time>2022-02-14T23:39:05Z</time>
      </trkpt>
      <trkpt lat="46.84669" lon="3.54444">
        <ele>193</ele>
        <time>2022-02-14T23:40:01Z</time>
      </trkpt>
      <trkpt lat="46.84667" lon="3.5443">
        <ele>193</ele>
        <time>2022-02-14T23:40:03Z</time>
      </trkpt>
      <trkpt lat="46.84648" lon="3.54358">
        <ele>193</ele>
        <time>2022-02-14T23:40:12Z</time>
      </trkpt>
      <trkpt lat="46.8462" lon="3.54275">
        <ele>192</ele>
        <time>2022-02-14T23:40:23Z</time>
      </trkpt>
      <trkpt lat="46.84335" lon="3.53331">
        <ele>192</ele>
        <time>2022-02-14T23:42:29Z</time>
      </trkpt>
      <trkpt lat="46.8425" lon="3.53042">
        <ele>193</ele>
        <time>2022-02-14T23:43:07Z</time>
      </trkpt>
      <trkpt lat="46.84222" lon="3.5293">
        <ele>195</ele>
        <time>2022-02-14T23:43:22Z</time>
      </trkpt>
      <trkpt lat="46.84194" lon="3.52786">
        <ele>193</ele>
        <time>2022-02-14T23:43:40Z</time>
      </trkpt>
      <trkpt lat="46.84186" lon="3.52743">
        <ele>193</ele>
        <time>2022-02-14T23:43:45Z</time>
      </trkpt>
      <trkpt lat="46.84137" lon="3.52402">
        <ele>191</ele>
        <time>2022-02-14T23:44:28Z</time>
      </trkpt>
      <trkpt lat="46.83969" lon="3.5128">
        <ele>191</ele>
        <time>2022-02-14T23:46:48Z</time>
      </trkpt>
      <trkpt lat="46.83966" lon="3.51268">
        <ele>191</ele>
        <time>2022-02-14T23:46:49Z</time>
      </trkpt>
      <trkpt lat="46.83958" lon="3.51208">
        <ele>192</ele>
        <time>2022-02-14T23:46:57Z</time>
      </trkpt>
      <trkpt lat="46.83954" lon="3.51209">
        <ele>192</ele>
        <time>2022-02-14T23:46:57Z</time>
      </trkpt>
      <trkpt lat="46.83945" lon="3.51212">
        <ele>192</ele>
        <time>2022-02-14T23:46:59Z</time>
      </trkpt>
      <trkpt lat="46.83939" lon="3.51221">
        <ele>192</ele>
        <time>2022-02-14T23:47:00Z</time>
      </trkpt>
      <trkpt lat="46.83881" lon="3.50816">
        <ele>192</ele>
        <time>2022-02-14T23:47:51Z</time>
      </trkpt>
      <trkpt lat="46.83875" lon="3.50747">
        <ele>192</ele>
        <time>2022-02-14T23:47:59Z</time>
      </trkpt>
      <trkpt lat="46.83875" lon="3.50694">
        <ele>192</ele>
        <time>2022-02-14T23:48:06Z</time>
      </trkpt>
      <trkpt lat="46.83879" lon="3.50645">
        <ele>192</ele>
        <time>2022-02-14T23:48:12Z</time>
      </trkpt>
      <trkpt lat="46.83893" lon="3.50559">
        <ele>191</ele>
        <time>2022-02-14T23:48:23Z</time>
      </trkpt>
      <trkpt lat="46.83906" lon="3.50508">
        <ele>190</ele>
        <time>2022-02-14T23:48:29Z</time>
      </trkpt>
      <trkpt lat="46.8395" lon="3.50377">
        <ele>191</ele>
        <time>2022-02-14T23:48:47Z</time>
      </trkpt>
      <trkpt lat="46.83962" lon="3.50329">
        <ele>190</ele>
        <time>2022-02-14T23:48:53Z</time>
      </trkpt>
      <trkpt lat="46.83971" lon="3.50265">
        <ele>189</ele>
        <time>2022-02-14T23:49:01Z</time>
      </trkpt>
      <trkpt lat="46.83976" lon="3.50195">
        <ele>190</ele>
        <time>2022-02-14T23:49:10Z</time>
      </trkpt>
      <trkpt lat="46.83975" lon="3.50139">
        <ele>190</ele>
        <time>2022-02-14T23:49:16Z</time>
      </trkpt>
      <trkpt lat="46.83973" lon="3.50107">
        <ele>190</ele>
        <time>2022-02-14T23:49:20Z</time>
      </trkpt>
      <trkpt lat="46.83963" lon="3.50023">
        <ele>191</ele>
        <time>2022-02-14T23:49:31Z</time>
      </trkpt>
      <trkpt lat="46.83957" lon="3.49958">
        <ele>191</ele>
        <time>2022-02-14T23:49:39Z</time>
      </trkpt>
      <trkpt lat="46.83955" lon="3.49896">
        <ele>192</ele>
        <time>2022-02-14T23:49:46Z</time>
      </trkpt>
      <trkpt lat="46.83955" lon="3.49849">
        <ele>192</ele>
        <time>2022-02-14T23:49:52Z</time>
      </trkpt>
      <trkpt lat="46.83957" lon="3.49808">
        <ele>192</ele>
        <time>2022-02-14T23:49:57Z</time>
      </trkpt>
      <trkpt lat="46.83964" lon="3.4975">
        <ele>192</ele>
        <time>2022-02-14T23:50:04Z</time>
      </trkpt>
      <trkpt lat="46.83979" lon="3.49648">
        <ele>193</ele>
        <time>2022-02-14T23:50:17Z</time>
      </trkpt>
      <trkpt lat="46.8399" lon="3.49602">
        <ele>191</ele>
        <time>2022-02-14T23:50:23Z</time>
      </trkpt>
      <trkpt lat="46.84008" lon="3.49542">
        <ele>191</ele>
        <time>2022-02-14T23:50:31Z</time>
      </trkpt>
      <trkpt lat="46.84015" lon="3.49509">
        <ele>191</ele>
        <time>2022-02-14T23:50:35Z</time>
      </trkpt>
      <trkpt lat="46.84022" lon="3.49475">
        <ele>192</ele>
        <time>2022-02-14T23:50:39Z</time>
      </trkpt>
      <trkpt lat="46.84031" lon="3.49409">
        <ele>191</ele>
        <time>2022-02-14T23:50:48Z</time>
      </trkpt>
      <trkpt lat="46.84036" lon="3.49364">
        <ele>191</ele>
        <time>2022-02-14T23:50:53Z</time>
      </trkpt>
      <trkpt lat="46.8404" lon="3.49302">
        <ele>191</ele>
        <time>2022-02-14T23:51:01Z</time>
      </trkpt>
      <trkpt lat="46.84041" lon="3.49217">
        <ele>191</ele>
        <time>2022-02-14T23:51:11Z</time>
      </trkpt>
      <trkpt lat="46.84036" lon="3.49144">
        <ele>191</ele>
        <time>2022-02-14T23:51:20Z</time>
      </trkpt>
      <trkpt lat="46.84026" lon="3.49064">
        <ele>191</ele>
        <time>2022-02-14T23:51:30Z</time>
      </trkpt>
      <trkpt lat="46.83972" lon="3.48755">
        <ele>190</ele>
        <time>2022-02-14T23:52:09Z</time>
      </trkpt>
      <trkpt lat="46.83972" lon="3.48725">
        <ele>191</ele>
        <time>2022-02-14T23:52:12Z</time>
      </trkpt>
      <trkpt lat="46.83956" lon="3.48627">
        <ele>191</ele>
        <time>2022-02-14T23:52:25Z</time>
      </trkpt>
      <trkpt lat="46.83954" lon="3.48609">
        <ele>191</ele>
        <time>2022-02-14T23:52:27Z</time>
      </trkpt>
      <trkpt lat="46.83943" lon="3.48584">
        <ele>191</ele>
        <time>2022-02-14T23:52:30Z</time>
      </trkpt>
      <trkpt lat="46.83936" lon="3.48542">
        <ele>191</ele>
        <time>2022-02-14T23:52:36Z</time>
      </trkpt>
      <trkpt lat="46.83857" lon="3.48087">
        <ele>192</ele>
        <time>2022-02-14T23:53:33Z</time>
      </trkpt>
      <trkpt lat="46.8375" lon="3.47447">
        <ele>191</ele>
        <time>2022-02-14T23:54:53Z</time>
      </trkpt>
      <trkpt lat="46.83739" lon="3.4739">
        <ele>191</ele>
        <time>2022-02-14T23:55:00Z</time>
      </trkpt>
      <trkpt lat="46.83736" lon="3.47382">
        <ele>191</ele>
        <time>2022-02-14T23:55:01Z</time>
      </trkpt>
      <trkpt lat="46.83716" lon="3.47306">
        <ele>189</ele>
        <time>2022-02-14T23:55:11Z</time>
      </trkpt>
      <trkpt lat="46.83712" lon="3.47281">
        <ele>189</ele>
        <time>2022-02-14T23:55:14Z</time>
      </trkpt>
      <trkpt lat="46.83604" lon="3.46654">
        <ele>191</ele>
        <time>2022-02-14T23:56:33Z</time>
      </trkpt>
      <trkpt lat="46.83553" lon="3.46667">
        <ele>191</ele>
        <time>2022-02-14T23:56:42Z</time>
      </trkpt>
      <trkpt lat="46.83534" lon="3.46668">
        <ele>192</ele>
        <time>2022-02-14T23:56:46Z</time>
      </trkpt>
      <trkpt lat="46.83503" lon="3.46662">
        <ele>192</ele>
        <time>2022-02-14T23:56:51Z</time>
      </trkpt>
      <trkpt lat="46.83488" lon="3.46655">
        <ele>192</ele>
        <time>2022-02-14T23:56:54Z</time>
      </trkpt>
      <trkpt lat="46.8346" lon="3.46635">
        <ele>191</ele>
        <time>2022-02-14T23:57:00Z</time>
      </trkpt>
      <trkpt lat="46.83386" lon="3.4657">
        <ele>189</ele>
        <time>2022-02-14T23:57:15Z</time>
      </trkpt>
      <trkpt lat="46.83374" lon="3.4656">
        <ele>189</ele>
        <time>2022-02-14T23:57:17Z</time>
      </trkpt>
      <trkpt lat="46.83338" lon="3.46536">
        <ele>190</ele>
        <time>2022-02-14T23:57:24Z</time>
      </trkpt>
      <trkpt lat="46.83307" lon="3.46527">
        <ele>190</ele>
        <time>2022-02-14T23:57:30Z</time>
      </trkpt>
      <trkpt lat="46.83276" lon="3.46527">
        <ele>191</ele>
        <time>2022-02-14T23:57:36Z</time>
      </trkpt>
      <trkpt lat="46.83214" lon="3.46546">
        <ele>191</ele>
        <time>2022-02-14T23:57:47Z</time>
      </trkpt>
      <trkpt lat="46.83138" lon="3.46571">
        <ele>191</ele>
        <time>2022-02-14T23:58:01Z</time>
      </trkpt>
      <trkpt lat="46.83116" lon="3.46585">
        <ele>191</ele>
        <time>2022-02-14T23:58:05Z</time>
      </trkpt>
      <trkpt lat="46.83097" lon="3.46603">
        <ele>191</ele>
        <time>2022-02-14T23:58:09Z</time>
      </trkpt>
      <trkpt lat="46.83039" lon="3.46667">
        <ele>191</ele>
        <time>2022-02-14T23:58:22Z</time>
      </trkpt>
      <trkpt lat="46.82921" lon="3.46412">
        <ele>195</ele>
        <time>2022-02-14T23:58:59Z</time>
      </trkpt>
      <trkpt lat="46.82921" lon="3.46406">
        <ele>195</ele>
        <time>2022-02-14T23:59:00Z</time>
      </trkpt>
      <trkpt lat="46.82926" lon="3.46397">
        <ele>195</ele>
        <time>2022-02-14T23:59:02Z</time>
      </trkpt>
      <trkpt lat="46.82957" lon="3.46368">
        <ele>194</ele>
        <time>2022-02-14T23:59:08Z</time>
      </trkpt>
      <trkpt lat="46.82972" lon="3.46347">
        <ele>194</ele>
        <time>2022-02-14T23:59:12Z</time>
      </trkpt>
      <trkpt lat="46.82983" lon="3.46327">
        <ele>194</ele>
        <time>2022-02-14T23:59:15Z</time>
      </trkpt>
      <trkpt lat="46.83002" lon="3.46303">
        <ele>193</ele>
        <time>2022-02-14T23:59:19Z</time>
      </trkpt>
      <trkpt lat="46.83006" lon="3.46302">
        <ele>193</ele>
        <time>2022-02-14T23:59:20Z</time>
      </trkpt>
      <trkpt lat="46.83009" lon="3.46294">
        <ele>193</ele>
        <time>2022-02-14T23:59:21Z</time>
      </trkpt>
      <trkpt lat="46.83007" lon="3.46285">
        <ele>193</ele>
        <time>2022-02-14T23:59:22Z</time>
      </trkpt>
      <trkpt lat="46.83005" lon="3.46251">
        <ele>194</ele>
        <time>2022-02-14T23:59:26Z</time>
      </trkpt>
      <trkpt lat="46.83032" lon="3.4617">
        <ele>193</ele>
        <time>2022-02-14T23:59:37Z</time>
      </trkpt>
      <trkpt lat="46.83035" lon="3.46155">
        <ele>193</ele>
        <time>2022-02-14T23:59:39Z</time>
      </trkpt>
      <trkpt lat="46.83036" lon="3.46141">
        <ele>193</ele>
        <time>2022-02-14T23:59:41Z</time>
      </trkpt>
      <trkpt lat="46.83027" lon="3.46014">
        <ele>194</ele>
        <time>2022-02-14T23:59:57Z</time>
      </trkpt>
      <trkpt lat="46.83023" lon="3.45994">
        <ele>194</ele>
        <time>2022-02-14T23:59:59Z</time>
      </trkpt>
      <trkpt lat="46.83009" lon="3.4594">
        <ele>193</ele>
        <time>2022-02-15T00:00:06Z</time>
      </trkpt>
      <trkpt lat="46.83" lon="3.45919">
        <ele>193</ele>
        <time>2022-02-15T00:00:09Z</time>
      </trkpt>
      <trkpt lat="46.82979" lon="3.4589">
        <ele>192</ele>
        <time>2022-02-15T00:00:14Z</time>
      </trkpt>
      <trkpt lat="46.82959" lon="3.45871">
        <ele>192</ele>
        <time>2022-02-15T00:00:19Z</time>
      </trkpt>
      <trkpt lat="46.82941" lon="3.4586">
        <ele>192</ele>
        <time>2022-02-15T00:00:22Z</time>
      </trkpt>
      <trkpt lat="46.82922" lon="3.45851">
        <ele>192</ele>
        <time>2022-02-15T00:00:26Z</time>
      </trkpt>
      <trkpt lat="46.82908" lon="3.4585">
        <ele>192</ele>
        <time>2022-02-15T00:00:28Z</time>
      </trkpt>
      <trkpt lat="46.82897" lon="3.45851">
        <ele>192</ele>
        <time>2022-02-15T00:00:30Z</time>
      </trkpt>
      <trkpt lat="46.82851" lon="3.45867">
        <ele>193</ele>
        <time>2022-02-15T00:00:38Z</time>
      </trkpt>
      <trkpt lat="46.82831" lon="3.45875">
        <ele>193</ele>
        <time>2022-02-15T00:00:42Z</time>
      </trkpt>
      <trkpt lat="46.82817" lon="3.45876">
        <ele>193</ele>
        <time>2022-02-15T00:00:45Z</time>
      </trkpt>
      <trkpt lat="46.82814" lon="3.45874">
        <ele>192</ele>
        <time>2022-02-15T00:00:45Z</time>
      </trkpt>
      <trkpt lat="46.82809" lon="3.45863">
        <ele>192</ele>
        <time>2022-02-15T00:00:47Z</time>
      </trkpt>
      <trkpt lat="46.82773" lon="3.45704">
        <ele>192</ele>
        <time>2022-02-15T00:01:07Z</time>
      </trkpt>
      <trkpt lat="46.8272" lon="3.45543">
        <ele>191</ele>
        <time>2022-02-15T00:01:29Z</time>
      </trkpt>
      <trkpt lat="46.82709" lon="3.4555">
        <ele>191</ele>
        <time>2022-02-15T00:01:31Z</time>
      </trkpt>
      <trkpt lat="46.82702" lon="3.45547">
        <ele>191</ele>
        <time>2022-02-15T00:01:32Z</time>
      </trkpt>
      <trkpt lat="46.82676" lon="3.45516">
        <ele>191</ele>
        <time>2022-02-15T00:01:38Z</time>
      </trkpt>
      <trkpt lat="46.8265" lon="3.45479">
        <ele>191</ele>
        <time>2022-02-15T00:01:45Z</time>
      </trkpt>
      <trkpt lat="46.82616" lon="3.45438">
        <ele>191</ele>
        <time>2022-02-15T00:01:53Z</time>
      </trkpt>
      <trkpt lat="46.82597" lon="3.4542">
        <ele>192</ele>
        <time>2022-02-15T00:01:57Z</time>
      </trkpt>
      <trkpt lat="46.82518" lon="3.45363">
        <ele>192</ele>
        <time>2022-02-15T00:02:12Z</time>
      </trkpt>
      <trkpt lat="46.82476" lon="3.45326">
        <ele>192</ele>
        <time>2022-02-15T00:02:21Z</time>
      </trkpt>
      <trkpt lat="46.82459" lon="3.45305">
        <ele>192</ele>
        <time>2022-02-15T00:02:25Z</time>
      </trkpt>
      <trkpt lat="46.82444" lon="3.45283">
        <ele>192</ele>
        <time>2022-02-15T00:02:29Z</time>
      </trkpt>
      <trkpt lat="46.82441" lon="3.45276">
        <ele>193</ele>
        <time>2022-02-15T00:02:30Z</time>
      </trkpt>
      <trkpt lat="46.82439" lon="3.45268">
        <ele>193</ele>
        <time>2022-02-15T00:02:31Z</time>
      </trkpt>
      <trkpt lat="46.82046" lon="3.45139">
        <ele>191</ele>
        <time>2022-02-15T00:03:43Z</time>
      </trkpt>
      <trkpt lat="46.82044" lon="3.45125">
        <ele>191</ele>
        <time>2022-02-15T00:03:44Z</time>
      </trkpt>
      <trkpt lat="46.82041" lon="3.45119">
        <ele>191</ele>
        <time>2022-02-15T00:03:45Z</time>
      </trkpt>
      <trkpt lat="46.81945" lon="3.45084">
        <ele>191</ele>
        <time>2022-02-15T00:04:03Z</time>
      </trkpt>
      <trkpt lat="46.8194" lon="3.45076">
        <ele>191</ele>
        <time>2022-02-15T00:04:04Z</time>
      </trkpt>
      <trkpt lat="46.81939" lon="3.45069">
        <ele>191</ele>
        <time>2022-02-15T00:04:05Z</time>
      </trkpt>
      <trkpt lat="46.8194" lon="3.45029">
        <ele>191</ele>
        <time>2022-02-15T00:04:10Z</time>
      </trkpt>
      <trkpt lat="46.81937" lon="3.4502">
        <ele>191</ele>
        <time>2022-02-15T00:04:11Z</time>
      </trkpt>
      <trkpt lat="46.81929" lon="3.45012">
        <ele>191</ele>
        <time>2022-02-15T00:04:13Z</time>
      </trkpt>
      <trkpt lat="46.81965" lon="3.44758">
        <ele>192</ele>
        <time>2022-02-15T00:04:44Z</time>
      </trkpt>
      <trkpt lat="46.81971" lon="3.44665">
        <ele>191</ele>
        <time>2022-02-15T00:04:56Z</time>
      </trkpt>
      <trkpt lat="46.81967" lon="3.44592">
        <ele>193</ele>
        <time>2022-02-15T00:05:05Z</time>
      </trkpt>
      <trkpt lat="46.81957" lon="3.44517">
        <ele>192</ele>
        <time>2022-02-15T00:05:14Z</time>
      </trkpt>
      <trkpt lat="46.81772" lon="3.43515">
        <ele>194</ele>
        <time>2022-02-15T00:07:20Z</time>
      </trkpt>
      <trkpt lat="46.81776" lon="3.43501">
        <ele>194</ele>
        <time>2022-02-15T00:07:22Z</time>
      </trkpt>
      <trkpt lat="46.81764" lon="3.43426">
        <ele>193</ele>
        <time>2022-02-15T00:07:32Z</time>
      </trkpt>
      <trkpt lat="46.81759" lon="3.43414">
        <ele>193</ele>
        <time>2022-02-15T00:07:33Z</time>
      </trkpt>
      <trkpt lat="46.81761" lon="3.43395">
        <ele>193</ele>
        <time>2022-02-15T00:07:36Z</time>
      </trkpt>
      <trkpt lat="46.81752" lon="3.43316">
        <ele>190</ele>
        <time>2022-02-15T00:07:45Z</time>
      </trkpt>
      <trkpt lat="46.81755" lon="3.43271">
        <ele>191</ele>
        <time>2022-02-15T00:07:51Z</time>
      </trkpt>
      <trkpt lat="46.81816" lon="3.42823">
        <ele>192</ele>
        <time>2022-02-15T00:08:47Z</time>
      </trkpt>
      <trkpt lat="46.81827" lon="3.4276">
        <ele>191</ele>
        <time>2022-02-15T00:08:54Z</time>
      </trkpt>
      <trkpt lat="46.81841" lon="3.42702">
        <ele>191</ele>
        <time>2022-02-15T00:09:02Z</time>
      </trkpt>
      <trkpt lat="46.81855" lon="3.42656">
        <ele>191</ele>
        <time>2022-02-15T00:09:08Z</time>
      </trkpt>
      <trkpt lat="46.81871" lon="3.42617">
        <ele>191</ele>
        <time>2022-02-15T00:09:14Z</time>
      </trkpt>
      <trkpt lat="46.81911" lon="3.42545">
        <ele>192</ele>
        <time>2022-02-15T00:09:25Z</time>
      </trkpt>
      <trkpt lat="46.81968" lon="3.42463">
        <ele>192</ele>
        <time>2022-02-15T00:09:39Z</time>
      </trkpt>
      <trkpt lat="46.81997" lon="3.424">
        <ele>192</ele>
        <time>2022-02-15T00:09:48Z</time>
      </trkpt>
      <trkpt lat="46.82008" lon="3.42357">
        <ele>192</ele>
        <time>2022-02-15T00:09:54Z</time>
      </trkpt>
      <trkpt lat="46.82011" lon="3.4229">
        <ele>191</ele>
        <time>2022-02-15T00:10:02Z</time>
      </trkpt>
      <trkpt lat="46.8201" lon="3.42249">
        <ele>191</ele>
        <time>2022-02-15T00:10:07Z</time>
      </trkpt>
      <trkpt lat="46.82003" lon="3.42195">
        <ele>191</ele>
        <time>2022-02-15T00:10:14Z</time>
      </trkpt>
      <trkpt lat="46.81971" lon="3.42047">
        <ele>191</ele>
        <time>2022-02-15T00:10:33Z</time>
      </trkpt>
      <trkpt lat="46.81959" lon="3.41986">
        <ele>191</ele>
        <time>2022-02-15T00:10:40Z</time>
      </trkpt>
      <trkpt lat="46.81955" lon="3.41924">
        <ele>192</ele>
        <time>2022-02-15T00:10:48Z</time>
      </trkpt>
      <trkpt lat="46.81953" lon="3.4183">
        <ele>192</ele>
        <time>2022-02-15T00:10:59Z</time>
      </trkpt>
      <trkpt lat="46.8196" lon="3.41774">
        <ele>192</ele>
        <time>2022-02-15T00:11:06Z</time>
      </trkpt>
      <trkpt lat="46.81971" lon="3.41719">
        <ele>192</ele>
        <time>2022-02-15T00:11:13Z</time>
      </trkpt>
      <trkpt lat="46.81998" lon="3.41617">
        <ele>191</ele>
        <time>2022-02-15T00:11:27Z</time>
      </trkpt>
      <trkpt lat="46.82009" lon="3.41559">
        <ele>191</ele>
        <time>2022-02-15T00:11:34Z</time>
      </trkpt>
      <trkpt lat="46.82014" lon="3.41518">
        <ele>191</ele>
        <time>2022-02-15T00:11:39Z</time>
      </trkpt>
      <trkpt lat="46.82031" lon="3.41348">
        <ele>193</ele>
        <time>2022-02-15T00:12:00Z</time>
      </trkpt>
      <trkpt lat="46.82077" lon="3.40816">
        <ele>192</ele>
        <time>2022-02-15T00:13:05Z</time>
      </trkpt>
      <trkpt lat="46.82079" lon="3.40778">
        <ele>192</ele>
        <time>2022-02-15T00:13:10Z</time>
      </trkpt>
      <trkpt lat="46.82079" lon="3.40739">
        <ele>192</ele>
        <time>2022-02-15T00:13:15Z</time>
      </trkpt>
      <trkpt lat="46.82076" lon="3.407">
        <ele>191</ele>
        <time>2022-02-15T00:13:19Z</time>
      </trkpt>
      <trkpt lat="46.82069" lon="3.40662">
        <ele>191</ele>
        <time>2022-02-15T00:13:24Z</time>
      </trkpt>
      <trkpt lat="46.82056" lon="3.40607">
        <ele>191</ele>
        <time>2022-02-15T00:13:31Z</time>
      </trkpt>
      <trkpt lat="46.82038" lon="3.40551">
        <ele>192</ele>
        <time>2022-02-15T00:13:39Z</time>
      </trkpt>
      <trkpt lat="46.82021" lon="3.40516">
        <ele>193</ele>
        <time>2022-02-15T00:13:44Z</time>
      </trkpt>
      <trkpt lat="46.82003" lon="3.40486">
        <ele>192</ele>
        <time>2022-02-15T00:13:49Z</time>
      </trkpt>
      <trkpt lat="46.81977" lon="3.40449">
        <ele>192</ele>
        <time>2022-02-15T00:13:55Z</time>
      </trkpt>
      <trkpt lat="46.81948" lon="3.40417">
        <ele>193</ele>
        <time>2022-02-15T00:14:02Z</time>
      </trkpt>
      <trkpt lat="46.8181" lon="3.40301">
        <ele>192</ele>
        <time>2022-02-15T00:14:30Z</time>
      </trkpt>
      <trkpt lat="46.81764" lon="3.40259">
        <ele>193</ele>
        <time>2022-02-15T00:14:40Z</time>
      </trkpt>
      <trkpt lat="46.81746" lon="3.40238">
        <ele>193</ele>
        <time>2022-02-15T00:14:44Z</time>
      </trkpt>
      <trkpt lat="46.81711" lon="3.40185">
        <ele>193</ele>
        <time>2022-02-15T00:14:53Z</time>
      </trkpt>
      <trkpt lat="46.81692" lon="3.40152">
        <ele>192</ele>
        <time>2022-02-15T00:14:58Z</time>
      </trkpt>
      <trkpt lat="46.81676" lon="3.40118">
        <ele>192</ele>
        <time>2022-02-15T00:15:03Z</time>
      </trkpt>
      <trkpt lat="46.81649" lon="3.40036">
        <ele>194</ele>
        <time>2022-02-15T00:15:14Z</time>
      </trkpt>
      <trkpt lat="46.81637" lon="3.39986">
        <ele>194</ele>
        <time>2022-02-15T00:15:21Z</time>
      </trkpt>
      <trkpt lat="46.81631" lon="3.39946">
        <ele>194</ele>
        <time>2022-02-15T00:15:26Z</time>
      </trkpt>
      <trkpt lat="46.81609" lon="3.39713">
        <ele>191</ele>
        <time>2022-02-15T00:15:54Z</time>
      </trkpt>
      <trkpt lat="46.81594" lon="3.3953">
        <ele>191</ele>
        <time>2022-02-15T00:16:17Z</time>
      </trkpt>
      <trkpt lat="46.81593" lon="3.39492">
        <ele>191</ele>
        <time>2022-02-15T00:16:21Z</time>
      </trkpt>
      <trkpt lat="46.81589" lon="3.39438">
        <ele>192</ele>
        <time>2022-02-15T00:16:28Z</time>
      </trkpt>
      <trkpt lat="46.81583" lon="3.39381">
        <ele>191</ele>
        <time>2022-02-15T00:16:35Z</time>
      </trkpt>
      <trkpt lat="46.81574" lon="3.39314">
        <ele>191</ele>
        <time>2022-02-15T00:16:43Z</time>
      </trkpt>
      <trkpt lat="46.81555" lon="3.39106">
        <ele>190</ele>
        <time>2022-02-15T00:17:09Z</time>
      </trkpt>
      <trkpt lat="46.81555" lon="3.39095">
        <ele>190</ele>
        <time>2022-02-15T00:17:10Z</time>
      </trkpt>
      <trkpt lat="46.81538" lon="3.38897">
        <ele>190</ele>
        <time>2022-02-15T00:17:35Z</time>
      </trkpt>
      <trkpt lat="46.81533" lon="3.38858">
        <ele>190</ele>
        <time>2022-02-15T00:17:39Z</time>
      </trkpt>
      <trkpt lat="46.81516" lon="3.38765">
        <ele>190</ele>
        <time>2022-02-15T00:17:51Z</time>
      </trkpt>
      <trkpt lat="46.81507" lon="3.38724">
        <ele>190</ele>
        <time>2022-02-15T00:17:56Z</time>
      </trkpt>
      <trkpt lat="46.81413" lon="3.38486">
        <ele>190</ele>
        <time>2022-02-15T00:18:30Z</time>
      </trkpt>
      <trkpt lat="46.81378" lon="3.38381">
        <ele>192</ele>
        <time>2022-02-15T00:18:44Z</time>
      </trkpt>
      <trkpt lat="46.8137" lon="3.38352">
        <ele>192</ele>
        <time>2022-02-15T00:18:48Z</time>
      </trkpt>
      <trkpt lat="46.81328" lon="3.38122">
        <ele>191</ele>
        <time>2022-02-15T00:19:17Z</time>
      </trkpt>
      <trkpt lat="46.81309" lon="3.38037">
        <ele>192</ele>
        <time>2022-02-15T00:19:28Z</time>
      </trkpt>
      <trkpt lat="46.8128" lon="3.37967">
        <ele>192</ele>
        <time>2022-02-15T00:19:38Z</time>
      </trkpt>
      <trkpt lat="46.81253" lon="3.37912">
        <ele>191</ele>
        <time>2022-02-15T00:19:46Z</time>
      </trkpt>
      <trkpt lat="46.81185" lon="3.37814">
        <ele>191</ele>
        <time>2022-02-15T00:20:03Z</time>
      </trkpt>
      <trkpt lat="46.81125" lon="3.37736">
        <ele>190</ele>
        <time>2022-02-15T00:20:17Z</time>
      </trkpt>
      <trkpt lat="46.81106" lon="3.37724">
        <ele>189</ele>
        <time>2022-02-15T00:20:21Z</time>
      </trkpt>
      <trkpt lat="46.81085" lon="3.37696">
        <ele>189</ele>
        <time>2022-02-15T00:20:26Z</time>
      </trkpt>
      <trkpt lat="46.81016" lon="3.37587">
        <ele>192</ele>
        <time>2022-02-15T00:20:44Z</time>
      </trkpt>
      <trkpt lat="46.80997" lon="3.3755">
        <ele>192</ele>
        <time>2022-02-15T00:20:50Z</time>
      </trkpt>
      <trkpt lat="46.80985" lon="3.37519">
        <ele>193</ele>
        <time>2022-02-15T00:20:54Z</time>
      </trkpt>
      <trkpt lat="46.80982" lon="3.37495">
        <ele>193</ele>
        <time>2022-02-15T00:20:57Z</time>
      </trkpt>
      <trkpt lat="46.80981" lon="3.3747">
        <ele>193</ele>
        <time>2022-02-15T00:21:00Z</time>
      </trkpt>
      <trkpt lat="46.80988" lon="3.37429">
        <ele>192</ele>
        <time>2022-02-15T00:21:05Z</time>
      </trkpt>
      <trkpt lat="46.80996" lon="3.37405">
        <ele>191</ele>
        <time>2022-02-15T00:21:08Z</time>
      </trkpt>
      <trkpt lat="46.81028" lon="3.37341">
        <ele>191</ele>
        <time>2022-02-15T00:21:18Z</time>
      </trkpt>
      <trkpt lat="46.81207" lon="3.37013">
        <ele>188</ele>
        <time>2022-02-15T00:22:09Z</time>
      </trkpt>
      <trkpt lat="46.81219" lon="3.36997">
        <ele>188</ele>
        <time>2022-02-15T00:22:12Z</time>
      </trkpt>
      <trkpt lat="46.8123" lon="3.36988">
        <ele>188</ele>
        <time>2022-02-15T00:22:14Z</time>
      </trkpt>
      <trkpt lat="46.81245" lon="3.36963">
        <ele>188</ele>
        <time>2022-02-15T00:22:18Z</time>
      </trkpt>
      <trkpt lat="46.81246" lon="3.36952">
        <ele>188</ele>
        <time>2022-02-15T00:22:20Z</time>
      </trkpt>
      <trkpt lat="46.81251" lon="3.36946">
        <ele>189</ele>
        <time>2022-02-15T00:22:21Z</time>
      </trkpt>
      <trkpt lat="46.81258" lon="3.36932">
        <ele>188</ele>
        <time>2022-02-15T00:22:23Z</time>
      </trkpt>
      <trkpt lat="46.81284" lon="3.36874">
        <ele>188</ele>
        <time>2022-02-15T00:22:31Z</time>
      </trkpt>
      <trkpt lat="46.81424" lon="3.36614">
        <ele>187</ele>
        <time>2022-02-15T00:23:12Z</time>
      </trkpt>
      <trkpt lat="46.8143" lon="3.36584">
        <ele>187</ele>
        <time>2022-02-15T00:23:15Z</time>
      </trkpt>
      <trkpt lat="46.81445" lon="3.36557">
        <ele>186</ele>
        <time>2022-02-15T00:23:20Z</time>
      </trkpt>
      <trkpt lat="46.81459" lon="3.36539">
        <ele>186</ele>
        <time>2022-02-15T00:23:23Z</time>
      </trkpt>
      <trkpt lat="46.81473" lon="3.36515">
        <ele>185</ele>
        <time>2022-02-15T00:23:27Z</time>
      </trkpt>
      <trkpt lat="46.81494" lon="3.36485">
        <ele>185</ele>
        <time>2022-02-15T00:23:32Z</time>
      </trkpt>
      <trkpt lat="46.81832" lon="3.35863">
        <ele>185</ele>
        <time>2022-02-15T00:25:09Z</time>
      </trkpt>
      <trkpt lat="46.81836" lon="3.35854">
        <ele>185</ele>
        <time>2022-02-15T00:25:10Z</time>
      </trkpt>
      <trkpt lat="46.8188" lon="3.35776">
        <ele>186</ele>
        <time>2022-02-15T00:25:22Z</time>
      </trkpt>
      <trkpt lat="46.81918" lon="3.35713">
        <ele>186</ele>
        <time>2022-02-15T00:25:33Z</time>
      </trkpt>
      <trkpt lat="46.81924" lon="3.35706">
        <ele>186</ele>
        <time>2022-02-15T00:25:34Z</time>
      </trkpt>
      <trkpt lat="46.81948" lon="3.3565">
        <ele>185</ele>
        <time>2022-02-15T00:25:42Z</time>
      </trkpt>
      <trkpt lat="46.81965" lon="3.35618">
        <ele>185</ele>
        <time>2022-02-15T00:25:47Z</time>
      </trkpt>
      <trkpt lat="46.82028" lon="3.35503">
        <ele>185</ele>
        <time>2022-02-15T00:26:05Z</time>
      </trkpt>
      <trkpt lat="46.82053" lon="3.35435">
        <ele>185</ele>
        <time>2022-02-15T00:26:14Z</time>
      </trkpt>
      <trkpt lat="46.82061" lon="3.35404">
        <ele>185</ele>
        <time>2022-02-15T00:26:18Z</time>
      </trkpt>
      <trkpt lat="46.82065" lon="3.35371">
        <ele>185</ele>
        <time>2022-02-15T00:26:22Z</time>
      </trkpt>
      <trkpt lat="46.82066" lon="3.35329">
        <ele>185</ele>
        <time>2022-02-15T00:26:28Z</time>
      </trkpt>
      <trkpt lat="46.82063" lon="3.35284">
        <ele>185</ele>
        <time>2022-02-15T00:26:33Z</time>
      </trkpt>
      <trkpt lat="46.82052" lon="3.35222">
        <ele>185</ele>
        <time>2022-02-15T00:26:41Z</time>
      </trkpt>
      <trkpt lat="46.82046" lon="3.35201">
        <ele>185</ele>
        <time>2022-02-15T00:26:44Z</time>
      </trkpt>
      <trkpt lat="46.81957" lon="3.34981">
        <ele>185</ele>
        <time>2022-02-15T00:27:15Z</time>
      </trkpt>
      <trkpt lat="46.8195" lon="3.34961">
        <ele>185</ele>
        <time>2022-02-15T00:27:18Z</time>
      </trkpt>
      <trkpt lat="46.81937" lon="3.34908">
        <ele>185</ele>
        <time>2022-02-15T00:27:24Z</time>
      </trkpt>
      <trkpt lat="46.81935" lon="3.34871">
        <ele>185</ele>
        <time>2022-02-15T00:27:29Z</time>
      </trkpt>
      <trkpt lat="46.81935" lon="3.34835">
        <ele>185</ele>
        <time>2022-02-15T00:27:33Z</time>
      </trkpt>
      <trkpt lat="46.81939" lon="3.34801">
        <ele>185</ele>
        <time>2022-02-15T00:27:37Z</time>
      </trkpt>
      <trkpt lat="46.81951" lon="3.34757">
        <ele>185</ele>
        <time>2022-02-15T00:27:43Z</time>
      </trkpt>
      <trkpt lat="46.81993" lon="3.34667">
        <ele>186</ele>
        <time>2022-02-15T00:27:56Z</time>
      </trkpt>
      <trkpt lat="46.82013" lon="3.34618">
        <ele>186</ele>
        <time>2022-02-15T00:28:03Z</time>
      </trkpt>
      <trkpt lat="46.82034" lon="3.34573">
        <ele>185</ele>
        <time>2022-02-15T00:28:10Z</time>
      </trkpt>
      <trkpt lat="46.82077" lon="3.34492">
        <ele>184</ele>
        <time>2022-02-15T00:28:23Z</time>
      </trkpt>
      <trkpt lat="46.82108" lon="3.34446">
        <ele>185</ele>
        <time>2022-02-15T00:28:30Z</time>
      </trkpt>
      <trkpt lat="46.82142" lon="3.34404">
        <ele>185</ele>
        <time>2022-02-15T00:28:38Z</time>
      </trkpt>
      <trkpt lat="46.82215" lon="3.34329">
        <ele>185</ele>
        <time>2022-02-15T00:28:54Z</time>
      </trkpt>
      <trkpt lat="46.82224" lon="3.34321">
        <ele>185</ele>
        <time>2022-02-15T00:28:56Z</time>
      </trkpt>
      <trkpt lat="46.8228" lon="3.34269">
        <ele>185</ele>
        <time>2022-02-15T00:29:08Z</time>
      </trkpt>
      <trkpt lat="46.82654" lon="3.33903">
        <ele>185</ele>
        <time>2022-02-15T00:30:28Z</time>
      </trkpt>
      <trkpt lat="46.82715" lon="3.33846">
        <ele>186</ele>
        <time>2022-02-15T00:30:41Z</time>
      </trkpt>
      <trkpt lat="46.82778" lon="3.33795">
        <ele>187</ele>
        <time>2022-02-15T00:30:54Z</time>
      </trkpt>
      <trkpt lat="46.828" lon="3.33786">
        <ele>186</ele>
        <time>2022-02-15T00:30:58Z</time>
      </trkpt>
      <trkpt lat="46.82847" lon="3.33749">
        <ele>186</ele>
        <time>2022-02-15T00:31:07Z</time>
      </trkpt>
      <trkpt lat="46.82861" lon="3.33747">
        <ele>186</ele>
        <time>2022-02-15T00:31:10Z</time>
      </trkpt>
      <trkpt lat="46.82894" lon="3.33722">
        <ele>186</ele>
        <time>2022-02-15T00:31:16Z</time>
      </trkpt>
      <trkpt lat="46.82944" lon="3.33673">
        <ele>185</ele>
        <time>2022-02-15T00:31:27Z</time>
      </trkpt>
      <trkpt lat="46.82964" lon="3.33644">
        <ele>185</ele>
        <time>2022-02-15T00:31:32Z</time>
      </trkpt>
      <trkpt lat="46.82977" lon="3.3362">
        <ele>185</ele>
        <time>2022-02-15T00:31:36Z</time>
      </trkpt>
      <trkpt lat="46.82987" lon="3.33598">
        <ele>185</ele>
        <time>2022-02-15T00:31:39Z</time>
      </trkpt>
      <trkpt lat="46.83012" lon="3.33523">
        <ele>185</ele>
        <time>2022-02-15T00:31:49Z</time>
      </trkpt>
      <trkpt lat="46.83028" lon="3.33469">
        <ele>185</ele>
        <time>2022-02-15T00:31:56Z</time>
      </trkpt>
      <trkpt lat="46.83037" lon="3.33423">
        <ele>185</ele>
        <time>2022-02-15T00:32:02Z</time>
      </trkpt>
      <trkpt lat="46.8305" lon="3.33298">
        <ele>185</ele>
        <time>2022-02-15T00:32:18Z</time>
      </trkpt>
      <trkpt lat="46.83061" lon="3.3322">
        <ele>186</ele>
        <time>2022-02-15T00:32:27Z</time>
      </trkpt>
      <trkpt lat="46.83073" lon="3.3317">
        <ele>186</ele>
        <time>2022-02-15T00:32:34Z</time>
      </trkpt>
      <trkpt lat="46.83087" lon="3.33126">
        <ele>185</ele>
        <time>2022-02-15T00:32:40Z</time>
      </trkpt>
      <trkpt lat="46.83114" lon="3.33062">
        <ele>186</ele>
        <time>2022-02-15T00:32:49Z</time>
      </trkpt>
      <trkpt lat="46.83265" lon="3.32744">
        <ele>186</ele>
        <time>2022-02-15T00:33:36Z</time>
      </trkpt>
      <trkpt lat="46.83325" lon="3.32543">
        <ele>185</ele>
        <time>2022-02-15T00:34:03Z</time>
      </trkpt>
      <trkpt lat="46.83352" lon="3.32478">
        <ele>185</ele>
        <time>2022-02-15T00:34:12Z</time>
      </trkpt>
      <trkpt lat="46.8338" lon="3.32429">
        <ele>187</ele>
        <time>2022-02-15T00:34:20Z</time>
      </trkpt>
      <trkpt lat="46.83411" lon="3.32385">
        <ele>187</ele>
        <time>2022-02-15T00:34:27Z</time>
      </trkpt>
      <trkpt lat="46.83462" lon="3.32327">
        <ele>186</ele>
        <time>2022-02-15T00:34:39Z</time>
      </trkpt>
      <trkpt lat="46.83496" lon="3.32298">
        <ele>186</ele>
        <time>2022-02-15T00:34:46Z</time>
      </trkpt>
      <trkpt lat="46.83536" lon="3.32274">
        <ele>186</ele>
        <time>2022-02-15T00:34:53Z</time>
      </trkpt>
      <trkpt lat="46.83568" lon="3.32261">
        <ele>186</ele>
        <time>2022-02-15T00:34:59Z</time>
      </trkpt>
      <trkpt lat="46.83606" lon="3.32255">
        <ele>187</ele>
        <time>2022-02-15T00:35:06Z</time>
      </trkpt>
      <trkpt lat="46.83736" lon="3.3225">
        <ele>185</ele>
        <time>2022-02-15T00:35:29Z</time>
      </trkpt>
      <trkpt lat="46.83799" lon="3.32239">
        <ele>184</ele>
        <time>2022-02-15T00:35:41Z</time>
      </trkpt>
      <trkpt lat="46.83838" lon="3.32222">
        <ele>184</ele>
        <time>2022-02-15T00:35:48Z</time>
      </trkpt>
      <trkpt lat="46.83922" lon="3.32167">
        <ele>183</ele>
        <time>2022-02-15T00:36:04Z</time>
      </trkpt>
      <trkpt lat="46.83994" lon="3.32127">
        <ele>184</ele>
        <time>2022-02-15T00:36:18Z</time>
      </trkpt>
      <trkpt lat="46.84098" lon="3.32046">
        <ele>184</ele>
        <time>2022-02-15T00:36:39Z</time>
      </trkpt>
      <trkpt lat="46.84255" lon="3.31932">
        <ele>183</ele>
        <time>2022-02-15T00:37:10Z</time>
      </trkpt>
      <trkpt lat="46.84292" lon="3.31894">
        <ele>184</ele>
        <time>2022-02-15T00:37:18Z</time>
      </trkpt>
      <trkpt lat="46.84366" lon="3.31794">
        <ele>186</ele>
        <time>2022-02-15T00:37:36Z</time>
      </trkpt>
      <trkpt lat="46.84404" lon="3.31733">
        <ele>185</ele>
        <time>2022-02-15T00:37:46Z</time>
      </trkpt>
      <trkpt lat="46.84706" lon="3.31187">
        <ele>185</ele>
        <time>2022-02-15T00:39:12Z</time>
      </trkpt>
      <trkpt lat="46.84718" lon="3.31137">
        <ele>185</ele>
        <time>2022-02-15T00:39:18Z</time>
      </trkpt>
      <trkpt lat="46.84721" lon="3.31129">
        <ele>185</ele>
        <time>2022-02-15T00:39:19Z</time>
      </trkpt>
      <trkpt lat="46.84736" lon="3.3111">
        <ele>184</ele>
        <time>2022-02-15T00:39:23Z</time>
      </trkpt>
      <trkpt lat="46.84748" lon="3.31091">
        <ele>184</ele>
        <time>2022-02-15T00:39:26Z</time>
      </trkpt>
      <trkpt lat="46.84798" lon="3.30976">
        <ele>183</ele>
        <time>2022-02-15T00:39:42Z</time>
      </trkpt>
      <trkpt lat="46.85013" lon="3.30367">
        <ele>184</ele>
        <time>2022-02-15T00:41:06Z</time>
      </trkpt>
      <trkpt lat="46.85202" lon="3.29858">
        <ele>183</ele>
        <time>2022-02-15T00:42:16Z</time>
      </trkpt>
      <trkpt lat="46.85229" lon="3.29802">
        <ele>183</ele>
        <time>2022-02-15T00:42:25Z</time>
      </trkpt>
      <trkpt lat="46.85257" lon="3.2976">
        <ele>184</ele>
        <time>2022-02-15T00:42:32Z</time>
      </trkpt>
      <trkpt lat="46.85425" lon="3.29525">
        <ele>184</ele>
        <time>2022-02-15T00:43:13Z</time>
      </trkpt>
      <trkpt lat="46.85662" lon="3.29208">
        <ele>182</ele>
        <time>2022-02-15T00:44:10Z</time>
      </trkpt>
      <trkpt lat="46.85702" lon="3.2917">
        <ele>182</ele>
        <time>2022-02-15T00:44:19Z</time>
      </trkpt>
      <trkpt lat="46.85741" lon="3.29141">
        <ele>183</ele>
        <time>2022-02-15T00:44:27Z</time>
      </trkpt>
      <trkpt lat="46.85751" lon="3.2913">
        <ele>183</ele>
        <time>2022-02-15T00:44:29Z</time>
      </trkpt>
      <trkpt lat="46.8584" lon="3.29102">
        <ele>181</ele>
        <time>2022-02-15T00:44:45Z</time>
      </trkpt>
      <trkpt lat="46.85892" lon="3.2908">
        <ele>182</ele>
        <time>2022-02-15T00:44:55Z</time>
      </trkpt>
      <trkpt lat="46.85947" lon="3.29046">
        <ele>183</ele>
        <time>2022-02-15T00:45:05Z</time>
      </trkpt>
      <trkpt lat="46.86006" lon="3.28992">
        <ele>183</ele>
        <time>2022-02-15T00:45:18Z</time>
      </trkpt>
      <trkpt lat="46.86096" lon="3.28918">
        <ele>183</ele>
        <time>2022-02-15T00:45:36Z</time>
      </trkpt>
      <trkpt lat="46.86225" lon="3.288">
        <ele>183</ele>
        <time>2022-02-15T00:46:03Z</time>
      </trkpt>
      <trkpt lat="46.86278" lon="3.28758">
        <ele>184</ele>
        <time>2022-02-15T00:46:14Z</time>
      </trkpt>
      <trkpt lat="46.86391" lon="3.28613">
        <ele>184</ele>
        <time>2022-02-15T00:46:41Z</time>
      </trkpt>
      <trkpt lat="46.86433" lon="3.28562">
        <ele>183</ele>
        <time>2022-02-15T00:46:50Z</time>
      </trkpt>
      <trkpt lat="46.86467" lon="3.28511">
        <ele>183</ele>
        <time>2022-02-15T00:46:59Z</time>
      </trkpt>
      <trkpt lat="46.86496" lon="3.28459">
        <ele>183</ele>
        <time>2022-02-15T00:47:07Z</time>
      </trkpt>
      <trkpt lat="46.86527" lon="3.28364">
        <ele>183</ele>
        <time>2022-02-15T00:47:20Z</time>
      </trkpt>
      <trkpt lat="46.86544" lon="3.283">
        <ele>182</ele>
        <time>2022-02-15T00:47:28Z</time>
      </trkpt>
      <trkpt lat="46.86562" lon="3.28237">
        <ele>183</ele>
        <time>2022-02-15T00:47:37Z</time>
      </trkpt>
      <trkpt lat="46.86599" lon="3.28134">
        <ele>183</ele>
        <time>2022-02-15T00:47:51Z</time>
      </trkpt>
      <trkpt lat="46.86635" lon="3.28068">
        <ele>182</ele>
        <time>2022-02-15T00:48:01Z</time>
      </trkpt>
      <trkpt lat="46.8665" lon="3.28031">
        <ele>182</ele>
        <time>2022-02-15T00:48:06Z</time>
      </trkpt>
      <trkpt lat="46.86659" lon="3.28018">
        <ele>182</ele>
        <time>2022-02-15T00:48:08Z</time>
      </trkpt>
      <trkpt lat="46.86705" lon="3.27914">
        <ele>183</ele>
        <time>2022-02-15T00:48:23Z</time>
      </trkpt>
      <trkpt lat="46.86756" lon="3.27792">
        <ele>183</ele>
        <time>2022-02-15T00:48:41Z</time>
      </trkpt>
      <trkpt lat="46.86811" lon="3.2767">
        <ele>183</ele>
        <time>2022-02-15T00:48:59Z</time>
      </trkpt>
      <trkpt lat="46.86866" lon="3.27579">
        <ele>183</ele>
        <time>2022-02-15T00:49:13Z</time>
      </trkpt>
      <trkpt lat="46.86894" lon="3.27546">
        <ele>183</ele>
        <time>2022-02-15T00:49:20Z</time>
      </trkpt>
      <trkpt lat="46.86924" lon="3.27519">
        <ele>182</ele>
        <time>2022-02-15T00:49:26Z</time>
      </trkpt>
      <trkpt lat="46.87009" lon="3.27461">
        <ele>180</ele>
        <time>2022-02-15T00:49:43Z</time>
      </trkpt>
      <trkpt lat="46.8707" lon="3.27423">
        <ele>181</ele>
        <time>2022-02-15T00:49:55Z</time>
      </trkpt>
      <trkpt lat="46.87141" lon="3.27344">
        <ele>181</ele>
        <time>2022-02-15T00:50:10Z</time>
      </trkpt>
      <trkpt lat="46.87245" lon="3.27183">
        <ele>179</ele>
        <time>2022-02-15T00:50:37Z</time>
      </trkpt>
      <trkpt lat="46.87281" lon="3.2713">
        <ele>180</ele>
        <time>2022-02-15T00:50:46Z</time>
      </trkpt>
      <trkpt lat="46.87297" lon="3.27086">
        <ele>180</ele>
        <time>2022-02-15T00:50:53Z</time>
      </trkpt>
      <trkpt lat="46.87305" lon="3.27072">
        <ele>180</ele>
        <time>2022-02-15T00:50:55Z</time>
      </trkpt>
      <trkpt lat="46.8734" lon="3.27039">
        <ele>180</ele>
        <time>2022-02-15T00:51:02Z</time>
      </trkpt>
      <trkpt lat="46.87923" lon="3.26117">
        <ele>182</ele>
        <time>2022-02-15T00:53:35Z</time>
      </trkpt>
      <trkpt lat="46.8806" lon="3.25912">
        <ele>182</ele>
        <time>2022-02-15T00:54:10Z</time>
      </trkpt>
      <trkpt lat="46.88248" lon="3.25662">
        <ele>181</ele>
        <time>2022-02-15T00:54:55Z</time>
      </trkpt>
      <trkpt lat="46.88364" lon="3.25517">
        <ele>183</ele>
        <time>2022-02-15T00:55:22Z</time>
      </trkpt>
      <trkpt lat="46.88437" lon="3.25431">
        <ele>183</ele>
        <time>2022-02-15T00:55:39Z</time>
      </trkpt>
      <trkpt lat="46.88497" lon="3.25385">
        <ele>183</ele>
        <time>2022-02-15T00:55:51Z</time>
      </trkpt>
      <trkpt lat="46.88688" lon="3.25225">
        <ele>181</ele>
        <time>2022-02-15T00:56:30Z</time>
      </trkpt>
      <trkpt lat="46.88716" lon="3.25193">
        <ele>181</ele>
        <time>2022-02-15T00:56:36Z</time>
      </trkpt>
      <trkpt lat="46.88731" lon="3.25172">
        <ele>181</ele>
        <time>2022-02-15T00:56:40Z</time>
      </trkpt>
      <trkpt lat="46.88747" lon="3.25138">
        <ele>180</ele>
        <time>2022-02-15T00:56:45Z</time>
      </trkpt>
      <trkpt lat="46.88774" lon="3.25094">
        <ele>180</ele>
        <time>2022-02-15T00:56:52Z</time>
      </trkpt>
      <trkpt lat="46.8875" lon="3.25152">
        <ele>180</ele>
        <time>2022-02-15T00:57:01Z</time>
      </trkpt>
      <trkpt lat="46.88744" lon="3.25145">
        <ele>180</ele>
        <time>2022-02-15T00:57:02Z</time>
      </trkpt>
      <trkpt lat="46.88726" lon="3.25121">
        <ele>181</ele>
        <time>2022-02-15T00:57:06Z</time>
      </trkpt>
      <trkpt lat="46.88711" lon="3.25095">
        <ele>181</ele>
        <time>2022-02-15T00:57:10Z</time>
      </trkpt>
      <trkpt lat="46.88742" lon="3.25066">
        <ele>180</ele>
        <time>2022-02-15T00:57:17Z</time>
      </trkpt>
      <trkpt lat="46.88755" lon="3.25046">
        <ele>180</ele>
        <time>2022-02-15T00:57:20Z</time>
      </trkpt>
      <trkpt lat="46.88767" lon="3.25023">
        <ele>180</ele>
        <time>2022-02-15T00:57:24Z</time>
      </trkpt>
      <trkpt lat="46.88777" lon="3.24999">
        <ele>180</ele>
        <time>2022-02-15T00:57:27Z</time>
      </trkpt>
      <trkpt lat="46.8879" lon="3.24962">
        <ele>180</ele>
        <time>2022-02-15T00:57:32Z</time>
      </trkpt>
      <trkpt lat="46.88808" lon="3.24897">
        <ele>179</ele>
        <time>2022-02-15T00:57:41Z</time>
      </trkpt>
      <trkpt lat="46.88824" lon="3.24821">
        <ele>178</ele>
        <time>2022-02-15T00:57:50Z</time>
      </trkpt>
      <trkpt lat="46.88837" lon="3.24754">
        <ele>179</ele>
        <time>2022-02-15T00:57:59Z</time>
      </trkpt>
      <trkpt lat="46.88845" lon="3.2471">
        <ele>180</ele>
        <time>2022-02-15T00:58:04Z</time>
      </trkpt>
      <trkpt lat="46.8885" lon="3.24689">
        <ele>180</ele>
        <time>2022-02-15T00:58:07Z</time>
      </trkpt>
      <trkpt lat="46.88858" lon="3.24668">
        <ele>180</ele>
        <time>2022-02-15T00:58:10Z</time>
      </trkpt>
      <trkpt lat="46.88886" lon="3.24624">
        <ele>181</ele>
        <time>2022-02-15T00:58:17Z</time>
      </trkpt>
      <trkpt lat="46.88904" lon="3.24602">
        <ele>182</ele>
        <time>2022-02-15T00:58:22Z</time>
      </trkpt>
      <trkpt lat="46.88932" lon="3.24577">
        <ele>183</ele>
        <time>2022-02-15T00:58:27Z</time>
      </trkpt>
      <trkpt lat="46.88967" lon="3.24555">
        <ele>182</ele>
        <time>2022-02-15T00:58:34Z</time>
      </trkpt>
      <trkpt lat="46.89056" lon="3.2452">
        <ele>180</ele>
        <time>2022-02-15T00:58:51Z</time>
      </trkpt>
      <trkpt lat="46.89093" lon="3.24511">
        <ele>180</ele>
        <time>2022-02-15T00:58:57Z</time>
      </trkpt>
      <trkpt lat="46.89296" lon="3.24508">
        <ele>181</ele>
        <time>2022-02-15T00:59:33Z</time>
      </trkpt>
      <trkpt lat="46.89316" lon="3.24507">
        <ele>181</ele>
        <time>2022-02-15T00:59:37Z</time>
      </trkpt>
      <trkpt lat="46.89349" lon="3.24499">
        <ele>181</ele>
        <time>2022-02-15T00:59:43Z</time>
      </trkpt>
      <trkpt lat="46.89375" lon="3.24488">
        <ele>181</ele>
        <time>2022-02-15T00:59:48Z</time>
      </trkpt>
      <trkpt lat="46.89782" lon="3.24279">
        <ele>191</ele>
        <time>2022-02-15T01:01:04Z</time>
      </trkpt>
      <trkpt lat="46.89805" lon="3.24272">
        <ele>192</ele>
        <time>2022-02-15T01:01:09Z</time>
      </trkpt>
      <trkpt lat="46.90131" lon="3.24238">
        <ele>198</ele>
        <time>2022-02-15T01:02:07Z</time>
      </trkpt>
      <trkpt lat="46.90185" lon="3.24239">
        <ele>198</ele>
        <time>2022-02-15T01:02:16Z</time>
      </trkpt>
      <trkpt lat="46.90286" lon="3.24253">
        <ele>199</ele>
        <time>2022-02-15T01:02:34Z</time>
      </trkpt>
      <trkpt lat="46.90378" lon="3.24269">
        <ele>200</ele>
        <time>2022-02-15T01:02:51Z</time>
      </trkpt>
      <trkpt lat="46.90409" lon="3.24272">
        <ele>200</ele>
        <time>2022-02-15T01:02:56Z</time>
      </trkpt>
      <trkpt lat="46.91334" lon="3.24176">
        <ele>192</ele>
        <time>2022-02-15T01:05:41Z</time>
      </trkpt>
      <trkpt lat="46.91413" lon="3.24165">
        <ele>192</ele>
        <time>2022-02-15T01:05:56Z</time>
      </trkpt>
      <trkpt lat="46.91851" lon="3.23987">
        <ele>184</ele>
        <time>2022-02-15T01:07:16Z</time>
      </trkpt>
      <trkpt lat="46.91876" lon="3.23968">
        <ele>184</ele>
        <time>2022-02-15T01:07:21Z</time>
      </trkpt>
      <trkpt lat="46.91888" lon="3.23952">
        <ele>184</ele>
        <time>2022-02-15T01:07:24Z</time>
      </trkpt>
      <trkpt lat="46.91926" lon="3.23883">
        <ele>183</ele>
        <time>2022-02-15T01:07:35Z</time>
      </trkpt>
      <trkpt lat="46.92286" lon="3.23165">
        <ele>185</ele>
        <time>2022-02-15T01:09:23Z</time>
      </trkpt>
      <trkpt lat="46.92303" lon="3.23137">
        <ele>184</ele>
        <time>2022-02-15T01:09:28Z</time>
      </trkpt>
      <trkpt lat="46.92312" lon="3.23128">
        <ele>184</ele>
        <time>2022-02-15T01:09:30Z</time>
      </trkpt>
      <trkpt lat="46.92321" lon="3.23123">
        <ele>184</ele>
        <time>2022-02-15T01:09:32Z</time>
      </trkpt>
      <trkpt lat="46.92324" lon="3.23116">
        <ele>184</ele>
        <time>2022-02-15T01:09:33Z</time>
      </trkpt>
      <trkpt lat="46.92325" lon="3.23106">
        <ele>184</ele>
        <time>2022-02-15T01:09:34Z</time>
      </trkpt>
      <trkpt lat="46.92323" lon="3.23098">
        <ele>184</ele>
        <time>2022-02-15T01:09:35Z</time>
      </trkpt>
      <trkpt lat="46.92415" lon="3.22925">
        <ele>187</ele>
        <time>2022-02-15T01:10:01Z</time>
      </trkpt>
      <trkpt lat="46.9249" lon="3.22766">
        <ele>187</ele>
        <time>2022-02-15T01:10:25Z</time>
      </trkpt>
      <trkpt lat="46.92635" lon="3.22484">
        <ele>190</ele>
        <time>2022-02-15T01:11:08Z</time>
      </trkpt>
      <trkpt lat="46.92658" lon="3.22456">
        <ele>190</ele>
        <time>2022-02-15T01:11:13Z</time>
      </trkpt>
      <trkpt lat="46.92681" lon="3.22434">
        <ele>190</ele>
        <time>2022-02-15T01:11:18Z</time>
      </trkpt>
      <trkpt lat="46.92708" lon="3.22418">
        <ele>190</ele>
        <time>2022-02-15T01:11:23Z</time>
      </trkpt>
      <trkpt lat="46.92754" lon="3.22401">
        <ele>189</ele>
        <time>2022-02-15T01:11:32Z</time>
      </trkpt>
      <trkpt lat="46.92795" lon="3.2239">
        <ele>189</ele>
        <time>2022-02-15T01:11:39Z</time>
      </trkpt>
      <trkpt lat="46.93054" lon="3.22381">
        <ele>181</ele>
        <time>2022-02-15T01:12:25Z</time>
      </trkpt>
      <trkpt lat="46.93075" lon="3.22377">
        <ele>180</ele>
        <time>2022-02-15T01:12:29Z</time>
      </trkpt>
      <trkpt lat="46.93096" lon="3.22368">
        <ele>180</ele>
        <time>2022-02-15T01:12:33Z</time>
      </trkpt>
      <trkpt lat="46.93146" lon="3.22325">
        <ele>180</ele>
        <time>2022-02-15T01:12:43Z</time>
      </trkpt>
      <trkpt lat="46.93175" lon="3.22286">
        <ele>181</ele>
        <time>2022-02-15T01:12:50Z</time>
      </trkpt>
      <trkpt lat="46.93193" lon="3.22256">
        <ele>181</ele>
        <time>2022-02-15T01:12:55Z</time>
      </trkpt>
      <trkpt lat="46.93214" lon="3.22215">
        <ele>181</ele>
        <time>2022-02-15T01:13:01Z</time>
      </trkpt>
      <trkpt lat="46.93274" lon="3.22067">
        <ele>178</ele>
        <time>2022-02-15T01:13:22Z</time>
      </trkpt>
      <trkpt lat="46.93313" lon="3.21963">
        <ele>177</ele>
        <time>2022-02-15T01:13:37Z</time>
      </trkpt>
      <trkpt lat="46.93341" lon="3.21874">
        <ele>177</ele>
        <time>2022-02-15T01:13:49Z</time>
      </trkpt>
      <trkpt lat="46.93346" lon="3.21867">
        <ele>177</ele>
        <time>2022-02-15T01:13:50Z</time>
      </trkpt>
      <trkpt lat="46.93349" lon="3.21866">
        <ele>177</ele>
        <time>2022-02-15T01:13:50Z</time>
      </trkpt>
      <trkpt lat="46.93357" lon="3.21868">
        <ele>177</ele>
        <time>2022-02-15T01:13:52Z</time>
      </trkpt>
      <trkpt lat="46.93378" lon="3.21882">
        <ele>177</ele>
        <time>2022-02-15T01:13:56Z</time>
      </trkpt>
      <trkpt lat="46.93382" lon="3.21883">
        <ele>177</ele>
        <time>2022-02-15T01:13:57Z</time>
      </trkpt>
      <trkpt lat="46.93387" lon="3.21879">
        <ele>177</ele>
        <time>2022-02-15T01:13:58Z</time>
      </trkpt>
      <trkpt lat="46.93394" lon="3.21863">
        <ele>177</ele>
        <time>2022-02-15T01:14:00Z</time>
      </trkpt>
      <trkpt lat="46.93421" lon="3.2175">
        <ele>177</ele>
        <time>2022-02-15T01:14:14Z</time>
      </trkpt>
      <trkpt lat="46.93433" lon="3.21721">
        <ele>177</ele>
        <time>2022-02-15T01:14:19Z</time>
      </trkpt>
      <trkpt lat="46.93455" lon="3.2169">
        <ele>177</ele>
        <time>2022-02-15T01:14:24Z</time>
      </trkpt>
      <trkpt lat="46.9351" lon="3.21631">
        <ele>176</ele>
        <time>2022-02-15T01:14:36Z</time>
      </trkpt>
      <trkpt lat="46.9364" lon="3.2152">
        <ele>175</ele>
        <time>2022-02-15T01:15:03Z</time>
      </trkpt>
      <trkpt lat="46.93717" lon="3.2146">
        <ele>174</ele>
        <time>2022-02-15T01:15:18Z</time>
      </trkpt>
      <trkpt lat="46.93736" lon="3.2144">
        <ele>174</ele>
        <time>2022-02-15T01:15:23Z</time>
      </trkpt>
      <trkpt lat="46.93746" lon="3.21427">
        <ele>174</ele>
        <time>2022-02-15T01:15:25Z</time>
      </trkpt>
      <trkpt lat="46.93756" lon="3.21402">
        <ele>174</ele>
        <time>2022-02-15T01:15:28Z</time>
      </trkpt>
      <trkpt lat="46.93802" lon="3.21259">
        <ele>174</ele>
        <time>2022-02-15T01:15:48Z</time>
      </trkpt>
      <trkpt lat="46.93832" lon="3.21175">
        <ele>175</ele>
        <time>2022-02-15T01:15:59Z</time>
      </trkpt>
      <trkpt lat="46.93842" lon="3.21156">
        <ele>175</ele>
        <time>2022-02-15T01:16:02Z</time>
      </trkpt>
      <trkpt lat="46.93857" lon="3.21135">
        <ele>175</ele>
        <time>2022-02-15T01:16:06Z</time>
      </trkpt>
      <trkpt lat="46.93905" lon="3.21098">
        <ele>176</ele>
        <time>2022-02-15T01:16:15Z</time>
      </trkpt>
      <trkpt lat="46.93969" lon="3.21035">
        <ele>174</ele>
        <time>2022-02-15T01:16:29Z</time>
      </trkpt>
      <trkpt lat="46.94045" lon="3.20929">
        <ele>173</ele>
        <time>2022-02-15T01:16:48Z</time>
      </trkpt>
      <trkpt lat="46.94102" lon="3.20861">
        <ele>175</ele>
        <time>2022-02-15T01:17:01Z</time>
      </trkpt>
      <trkpt lat="46.94155" lon="3.20801">
        <ele>176</ele>
        <time>2022-02-15T01:17:13Z</time>
      </trkpt>
      <trkpt lat="46.94193" lon="3.20767">
        <ele>174</ele>
        <time>2022-02-15T01:17:21Z</time>
      </trkpt>
      <trkpt lat="46.94374" lon="3.20643">
        <ele>173</ele>
        <time>2022-02-15T01:17:56Z</time>
      </trkpt>
      <trkpt lat="46.94391" lon="3.20633">
        <ele>173</ele>
        <time>2022-02-15T01:18:00Z</time>
      </trkpt>
      <trkpt lat="46.94414" lon="3.20624">
        <ele>173</ele>
        <time>2022-02-15T01:18:04Z</time>
      </trkpt>
      <trkpt lat="46.94439" lon="3.20618">
        <ele>173</ele>
        <time>2022-02-15T01:18:08Z</time>
      </trkpt>
      <trkpt lat="46.94526" lon="3.20606">
        <ele>174</ele>
        <time>2022-02-15T01:18:24Z</time>
      </trkpt>
      <trkpt lat="46.94545" lon="3.20601">
        <ele>175</ele>
        <time>2022-02-15T01:18:27Z</time>
      </trkpt>
      <trkpt lat="46.94559" lon="3.20594">
        <ele>175</ele>
        <time>2022-02-15T01:18:30Z</time>
      </trkpt>
      <trkpt lat="46.94569" lon="3.20584">
        <ele>175</ele>
        <time>2022-02-15T01:18:32Z</time>
      </trkpt>
      <trkpt lat="46.9458" lon="3.20566">
        <ele>175</ele>
        <time>2022-02-15T01:18:35Z</time>
      </trkpt>
      <trkpt lat="46.94602" lon="3.2051">
        <ele>173</ele>
        <time>2022-02-15T01:18:43Z</time>
      </trkpt>
      <trkpt lat="46.94631" lon="3.20429">
        <ele>173</ele>
        <time>2022-02-15T01:18:54Z</time>
      </trkpt>
      <trkpt lat="46.94666" lon="3.20316">
        <ele>177</ele>
        <time>2022-02-15T01:19:09Z</time>
      </trkpt>
      <trkpt lat="46.94677" lon="3.20267">
        <ele>178</ele>
        <time>2022-02-15T01:19:15Z</time>
      </trkpt>
      <trkpt lat="46.94679" lon="3.20231">
        <ele>180</ele>
        <time>2022-02-15T01:19:20Z</time>
      </trkpt>
      <trkpt lat="46.9468" lon="3.20186">
        <ele>183</ele>
        <time>2022-02-15T01:19:25Z</time>
      </trkpt>
      <trkpt lat="46.94682" lon="3.20166">
        <ele>184</ele>
        <time>2022-02-15T01:19:28Z</time>
      </trkpt>
      <trkpt lat="46.94688" lon="3.20151">
        <ele>185</ele>
        <time>2022-02-15T01:19:30Z</time>
      </trkpt>
      <trkpt lat="46.94697" lon="3.20139">
        <ele>186</ele>
        <time>2022-02-15T01:19:32Z</time>
      </trkpt>
      <trkpt lat="46.94707" lon="3.20128">
        <ele>187</ele>
        <time>2022-02-15T01:19:34Z</time>
      </trkpt>
      <trkpt lat="46.94734" lon="3.20106">
        <ele>187</ele>
        <time>2022-02-15T01:19:40Z</time>
      </trkpt>
      <trkpt lat="46.94855" lon="3.19992">
        <ele>193</ele>
        <time>2022-02-15T01:20:05Z</time>
      </trkpt>
      <trkpt lat="46.94945" lon="3.19931">
        <ele>197</ele>
        <time>2022-02-15T01:20:23Z</time>
      </trkpt>
      <trkpt lat="46.94957" lon="3.1992">
        <ele>198</ele>
        <time>2022-02-15T01:20:25Z</time>
      </trkpt>
      <trkpt lat="46.94965" lon="3.19908">
        <ele>198</ele>
        <time>2022-02-15T01:20:27Z</time>
      </trkpt>
      <trkpt lat="46.94987" lon="3.19862">
        <ele>203</ele>
        <time>2022-02-15T01:20:34Z</time>
      </trkpt>
      <trkpt lat="46.94998" lon="3.19842">
        <ele>205</ele>
        <time>2022-02-15T01:20:37Z</time>
      </trkpt>
      <trkpt lat="46.95009" lon="3.19833">
        <ele>206</ele>
        <time>2022-02-15T01:20:40Z</time>
      </trkpt>
      <trkpt lat="46.95019" lon="3.1983">
        <ele>205</ele>
        <time>2022-02-15T01:20:41Z</time>
      </trkpt>
      <trkpt lat="46.95029" lon="3.19832">
        <ele>205</ele>
        <time>2022-02-15T01:20:43Z</time>
      </trkpt>
      <trkpt lat="46.95057" lon="3.19849">
        <ele>202</ele>
        <time>2022-02-15T01:20:49Z</time>
      </trkpt>
      <trkpt lat="46.9508" lon="3.19857">
        <ele>200</ele>
        <time>2022-02-15T01:20:53Z</time>
      </trkpt>
      <trkpt lat="46.95089" lon="3.19856">
        <ele>200</ele>
        <time>2022-02-15T01:20:54Z</time>
      </trkpt>
      <trkpt lat="46.95256" lon="3.19791">
        <ele>206</ele>
        <time>2022-02-15T01:21:25Z</time>
      </trkpt>
      <trkpt lat="46.95268" lon="3.19781">
        <ele>206</ele>
        <time>2022-02-15T01:21:28Z</time>
      </trkpt>
      <trkpt lat="46.95277" lon="3.19767">
        <ele>207</ele>
        <time>2022-02-15T01:21:30Z</time>
      </trkpt>
      <trkpt lat="46.95284" lon="3.19747">
        <ele>209</ele>
        <time>2022-02-15T01:21:33Z</time>
      </trkpt>
      <trkpt lat="46.95287" lon="3.19723">
        <ele>209</ele>
        <time>2022-02-15T01:21:36Z</time>
      </trkpt>
      <trkpt lat="46.95288" lon="3.19689">
        <ele>209</ele>
        <time>2022-02-15T01:21:40Z</time>
      </trkpt>
      <trkpt lat="46.95288" lon="3.19642">
        <ele>208</ele>
        <time>2022-02-15T01:21:45Z</time>
      </trkpt>
      <trkpt lat="46.95284" lon="3.19587">
        <ele>208</ele>
        <time>2022-02-15T01:21:52Z</time>
      </trkpt>
      <trkpt lat="46.95228" lon="3.1909">
        <ele>202</ele>
        <time>2022-02-15T01:22:53Z</time>
      </trkpt>
      <trkpt lat="46.95227" lon="3.19035">
        <ele>201</ele>
        <time>2022-02-15T01:23:00Z</time>
      </trkpt>
      <trkpt lat="46.95234" lon="3.18972">
        <ele>201</ele>
        <time>2022-02-15T01:23:08Z</time>
      </trkpt>
      <trkpt lat="46.95233" lon="3.18948">
        <ele>201</ele>
        <time>2022-02-15T01:23:11Z</time>
      </trkpt>
      <trkpt lat="46.95227" lon="3.18897">
        <ele>201</ele>
        <time>2022-02-15T01:23:17Z</time>
      </trkpt>
      <trkpt lat="46.95227" lon="3.18886">
        <ele>200</ele>
        <time>2022-02-15T01:23:18Z</time>
      </trkpt>
      <trkpt lat="46.95229" lon="3.18876">
        <ele>200</ele>
        <time>2022-02-15T01:23:20Z</time>
      </trkpt>
      <trkpt lat="46.95238" lon="3.18857">
        <ele>199</ele>
        <time>2022-02-15T01:23:22Z</time>
      </trkpt>
      <trkpt lat="46.9523" lon="3.18855">
        <ele>199</ele>
        <time>2022-02-15T01:23:24Z</time>
      </trkpt>
      <trkpt lat="46.95224" lon="3.18851">
        <ele>199</ele>
        <time>2022-02-15T01:23:25Z</time>
      </trkpt>
      <trkpt lat="46.95217" lon="3.18837">
        <ele>198</ele>
        <time>2022-02-15T01:23:27Z</time>
      </trkpt>
      <trkpt lat="46.95184" lon="3.18669">
        <ele>194</ele>
        <time>2022-02-15T01:23:48Z</time>
      </trkpt>
      <trkpt lat="46.95176" lon="3.18576">
        <ele>193</ele>
        <time>2022-02-15T01:24:00Z</time>
      </trkpt>
      <trkpt lat="46.9517" lon="3.18481">
        <ele>192</ele>
        <time>2022-02-15T01:24:11Z</time>
      </trkpt>
      <trkpt lat="46.95171" lon="3.1845">
        <ele>190</ele>
        <time>2022-02-15T01:24:15Z</time>
      </trkpt>
      <trkpt lat="46.95183" lon="3.18369">
        <ele>186</ele>
        <time>2022-02-15T01:24:25Z</time>
      </trkpt>
      <trkpt lat="46.95234" lon="3.18087">
        <ele>179</ele>
        <time>2022-02-15T01:25:01Z</time>
      </trkpt>
      <trkpt lat="46.95309" lon="3.17655">
        <ele>178</ele>
        <time>2022-02-15T01:25:55Z</time>
      </trkpt>
      <trkpt lat="46.9532" lon="3.1758">
        <ele>177</ele>
        <time>2022-02-15T01:26:04Z</time>
      </trkpt>
      <trkpt lat="46.95318" lon="3.17552">
        <ele>177</ele>
        <time>2022-02-15T01:26:08Z</time>
      </trkpt>
      <trkpt lat="46.95312" lon="3.17516">
        <ele>176</ele>
        <time>2022-02-15T01:26:12Z</time>
      </trkpt>
      <trkpt lat="46.95293" lon="3.1742">
        <ele>177</ele>
        <time>2022-02-15T01:26:24Z</time>
      </trkpt>
      <trkpt lat="46.95265" lon="3.17256">
        <ele>178</ele>
        <time>2022-02-15T01:26:45Z</time>
      </trkpt>
      <trkpt lat="46.95284" lon="3.17248">
        <ele>178</ele>
        <time>2022-02-15T01:26:48Z</time>
      </trkpt>
      <trkpt lat="46.95295" lon="3.17244">
        <ele>178</ele>
        <time>2022-02-15T01:26:50Z</time>
      </trkpt>
      <trkpt lat="46.95306" lon="3.1724">
        <ele>178</ele>
        <time>2022-02-15T01:26:52Z</time>
      </trkpt>
      <trkpt lat="46.95261" lon="3.17021">
        <ele>178</ele>
        <time>2022-02-15T01:27:20Z</time>
      </trkpt>
      <trkpt lat="46.95238" lon="3.16865">
        <ele>178</ele>
        <time>2022-02-15T01:27:39Z</time>
      </trkpt>
      <trkpt lat="46.95227" lon="3.16771">
        <ele>177</ele>
        <time>2022-02-15T01:27:51Z</time>
      </trkpt>
      <trkpt lat="46.95223" lon="3.16674">
        <ele>176</ele>
        <time>2022-02-15T01:28:03Z</time>
      </trkpt>
      <trkpt lat="46.95222" lon="3.16515">
        <ele>177</ele>
        <time>2022-02-15T01:28:22Z</time>
      </trkpt>
      <trkpt lat="46.95204" lon="3.15791">
        <ele>177</ele>
        <time>2022-02-15T01:29:50Z</time>
      </trkpt>
      <trkpt lat="46.95197" lon="3.15782">
        <ele>178</ele>
        <time>2022-02-15T01:29:52Z</time>
      </trkpt>
      <trkpt lat="46.95197" lon="3.15765">
        <ele>178</ele>
        <time>2022-02-15T01:29:54Z</time>
      </trkpt>
      <trkpt lat="46.95203" lon="3.15756">
        <ele>178</ele>
        <time>2022-02-15T01:29:55Z</time>
      </trkpt>
      <trkpt lat="46.95206" lon="3.15719">
        <ele>178</ele>
        <time>2022-02-15T01:30:00Z</time>
      </trkpt>
      <trkpt lat="46.95206" lon="3.15672">
        <ele>179</ele>
        <time>2022-02-15T01:30:06Z</time>
      </trkpt>
      <trkpt lat="46.95209" lon="3.15651">
        <ele>179</ele>
        <time>2022-02-15T01:30:08Z</time>
      </trkpt>
      <trkpt lat="46.95212" lon="3.15631">
        <ele>180</ele>
        <time>2022-02-15T01:30:11Z</time>
      </trkpt>
      <trkpt lat="46.95226" lon="3.15576">
        <ele>180</ele>
        <time>2022-02-15T01:30:18Z</time>
      </trkpt>
      <trkpt lat="46.95241" lon="3.15541">
        <ele>179</ele>
        <time>2022-02-15T01:30:23Z</time>
      </trkpt>
      <trkpt lat="46.95342" lon="3.15363">
        <ele>178</ele>
        <time>2022-02-15T01:30:51Z</time>
      </trkpt>
      <trkpt lat="46.95357" lon="3.15327">
        <ele>178</ele>
        <time>2022-02-15T01:30:56Z</time>
      </trkpt>
      <trkpt lat="46.95371" lon="3.15285">
        <ele>179</ele>
        <time>2022-02-15T01:31:02Z</time>
      </trkpt>
      <trkpt lat="46.95386" lon="3.15223">
        <ele>179</ele>
        <time>2022-02-15T01:31:10Z</time>
      </trkpt>
      <trkpt lat="46.95394" lon="3.1516">
        <ele>178</ele>
        <time>2022-02-15T01:31:18Z</time>
      </trkpt>
      <trkpt lat="46.9542" lon="3.14885">
        <ele>176</ele>
        <time>2022-02-15T01:31:51Z</time>
      </trkpt>
      <trkpt lat="46.95432" lon="3.14795">
        <ele>176</ele>
        <time>2022-02-15T01:32:02Z</time>
      </trkpt>
      <trkpt lat="46.95441" lon="3.1475">
        <ele>176</ele>
        <time>2022-02-15T01:32:08Z</time>
      </trkpt>
      <trkpt lat="46.95439" lon="3.14741">
        <ele>176</ele>
        <time>2022-02-15T01:32:09Z</time>
      </trkpt>
      <trkpt lat="46.9544" lon="3.14677">
        <ele>178</ele>
        <time>2022-02-15T01:32:17Z</time>
      </trkpt>
      <trkpt lat="46.95443" lon="3.14642">
        <ele>178</ele>
        <time>2022-02-15T01:32:21Z</time>
      </trkpt>
      <trkpt lat="46.9544" lon="3.14625">
        <ele>178</ele>
        <time>2022-02-15T01:32:23Z</time>
      </trkpt>
      <trkpt lat="46.95441" lon="3.14602">
        <ele>178</ele>
        <time>2022-02-15T01:32:26Z</time>
      </trkpt>
      <trkpt lat="46.95448" lon="3.14592">
        <ele>178</ele>
        <time>2022-02-15T01:32:28Z</time>
      </trkpt>
      <trkpt lat="46.95453" lon="3.14507">
        <ele>177</ele>
        <time>2022-02-15T01:32:38Z</time>
      </trkpt>
      <trkpt lat="46.95454" lon="3.14477">
        <ele>177</ele>
        <time>2022-02-15T01:32:42Z</time>
      </trkpt>
      <trkpt lat="46.95451" lon="3.1444">
        <ele>176</ele>
        <time>2022-02-15T01:32:46Z</time>
      </trkpt>
      <trkpt lat="46.95446" lon="3.14405">
        <ele>177</ele>
        <time>2022-02-15T01:32:51Z</time>
      </trkpt>
      <trkpt lat="46.95438" lon="3.14368">
        <ele>177</ele>
        <time>2022-02-15T01:32:56Z</time>
      </trkpt>
      <trkpt lat="46.95429" lon="3.14339">
        <ele>177</ele>
        <time>2022-02-15T01:32:59Z</time>
      </trkpt>
      <trkpt lat="46.95417" lon="3.14308">
        <ele>177</ele>
        <time>2022-02-15T01:33:04Z</time>
      </trkpt>
      <trkpt lat="46.95403" lon="3.14278">
        <ele>177</ele>
        <time>2022-02-15T01:33:08Z</time>
      </trkpt>
      <trkpt lat="46.95314" lon="3.1412">
        <ele>176</ele>
        <time>2022-02-15T01:33:33Z</time>
      </trkpt>
      <trkpt lat="46.95292" lon="3.14059">
        <ele>177</ele>
        <time>2022-02-15T01:33:41Z</time>
      </trkpt>
      <trkpt lat="46.95284" lon="3.14028">
        <ele>177</ele>
        <time>2022-02-15T01:33:45Z</time>
      </trkpt>
      <trkpt lat="46.95277" lon="3.13995">
        <ele>177</ele>
        <time>2022-02-15T01:33:50Z</time>
      </trkpt>
      <trkpt lat="46.95273" lon="3.13953">
        <ele>177</ele>
        <time>2022-02-15T01:33:55Z</time>
      </trkpt>
      <trkpt lat="46.9527" lon="3.13914">
        <ele>177</ele>
        <time>2022-02-15T01:34:00Z</time>
      </trkpt>
      <trkpt lat="46.95265" lon="3.13791">
        <ele>178</ele>
        <time>2022-02-15T01:34:15Z</time>
      </trkpt>
      <trkpt lat="46.95264" lon="3.13775">
        <ele>179</ele>
        <time>2022-02-15T01:34:16Z</time>
      </trkpt>
      <trkpt lat="46.95259" lon="3.13754">
        <ele>179</ele>
        <time>2022-02-15T01:34:19Z</time>
      </trkpt>
      <trkpt lat="46.9526" lon="3.13745">
        <ele>179</ele>
        <time>2022-02-15T01:34:20Z</time>
      </trkpt>
      <trkpt lat="46.95259" lon="3.13696">
        <ele>179</ele>
        <time>2022-02-15T01:34:26Z</time>
      </trkpt>
      <trkpt lat="46.95254" lon="3.13673">
        <ele>179</ele>
        <time>2022-02-15T01:34:29Z</time>
      </trkpt>
      <trkpt lat="46.95255" lon="3.13643">
        <ele>178</ele>
        <time>2022-02-15T01:34:33Z</time>
      </trkpt>
      <trkpt lat="46.95253" lon="3.13616">
        <ele>178</ele>
        <time>2022-02-15T01:34:36Z</time>
      </trkpt>
      <trkpt lat="46.95246" lon="3.13576">
        <ele>177</ele>
        <time>2022-02-15T01:34:41Z</time>
      </trkpt>
      <trkpt lat="46.9522" lon="3.1349">
        <ele>178</ele>
        <time>2022-02-15T01:34:53Z</time>
      </trkpt>
      <trkpt lat="46.95187" lon="3.13419">
        <ele>179</ele>
        <time>2022-02-15T01:35:03Z</time>
      </trkpt>
      <trkpt lat="46.95158" lon="3.1336">
        <ele>178</ele>
        <time>2022-02-15T01:35:12Z</time>
      </trkpt>
      <trkpt lat="46.9514" lon="3.13334">
        <ele>178</ele>
        <time>2022-02-15T01:35:16Z</time>
      </trkpt>
      <trkpt lat="46.95118" lon="3.1331">
        <ele>178</ele>
        <time>2022-02-15T01:35:21Z</time>
      </trkpt>
      <trkpt lat="46.94977" lon="3.13176">
        <ele>177</ele>
        <time>2022-02-15T01:35:51Z</time>
      </trkpt>
      <trkpt lat="46.94909" lon="3.13107">
        <ele>177</ele>
        <time>2022-02-15T01:36:06Z</time>
      </trkpt>
      <trkpt lat="46.94811" lon="3.12994">
        <ele>177</ele>
        <time>2022-02-15T01:36:28Z</time>
      </trkpt>
      <trkpt lat="46.94772" lon="3.12926">
        <ele>179</ele>
        <time>2022-02-15T01:36:39Z</time>
      </trkpt>
      <trkpt lat="46.94758" lon="3.12895">
        <ele>180</ele>
        <time>2022-02-15T01:36:43Z</time>
      </trkpt>
      <trkpt lat="46.94734" lon="3.12826">
        <ele>182</ele>
        <time>2022-02-15T01:36:53Z</time>
      </trkpt>
      <trkpt lat="46.94632" lon="3.12331">
        <ele>181</ele>
        <time>2022-02-15T01:37:56Z</time>
      </trkpt>
      <trkpt lat="46.94589" lon="3.12093">
        <ele>181</ele>
        <time>2022-02-15T01:38:25Z</time>
      </trkpt>
      <trkpt lat="46.94587" lon="3.12072">
        <ele>181</ele>
        <time>2022-02-15T01:38:28Z</time>
      </trkpt>
      <trkpt lat="46.94591" lon="3.12021">
        <ele>180</ele>
        <time>2022-02-15T01:38:34Z</time>
      </trkpt>
      <trkpt lat="46.94595" lon="3.11994">
        <ele>179</ele>
        <time>2022-02-15T01:38:38Z</time>
      </trkpt>
      <trkpt lat="46.94608" lon="3.11943">
        <ele>178</ele>
        <time>2022-02-15T01:38:44Z</time>
      </trkpt>
      <trkpt lat="46.94618" lon="3.1192">
        <ele>178</ele>
        <time>2022-02-15T01:38:47Z</time>
      </trkpt>
      <trkpt lat="46.94656" lon="3.11857">
        <ele>179</ele>
        <time>2022-02-15T01:38:58Z</time>
      </trkpt>
      <trkpt lat="46.94686" lon="3.11827">
        <ele>179</ele>
        <time>2022-02-15T01:39:04Z</time>
      </trkpt>
      <trkpt lat="46.94743" lon="3.11793">
        <ele>178</ele>
        <time>2022-02-15T01:39:15Z</time>
      </trkpt>
      <trkpt lat="46.94779" lon="3.11761">
        <ele>178</ele>
        <time>2022-02-15T01:39:23Z</time>
      </trkpt>
      <trkpt lat="46.94806" lon="3.11725">
        <ele>178</ele>
        <time>2022-02-15T01:39:29Z</time>
      </trkpt>
      <trkpt lat="46.94831" lon="3.11681">
        <ele>179</ele>
        <time>2022-02-15T01:39:36Z</time>
      </trkpt>
      <trkpt lat="46.94845" lon="3.11621">
        <ele>180</ele>
        <time>2022-02-15T01:39:44Z</time>
      </trkpt>
      <trkpt lat="46.9485" lon="3.11585">
        <ele>180</ele>
        <time>2022-02-15T01:39:48Z</time>
      </trkpt>
      <trkpt lat="46.94854" lon="3.11548">
        <ele>180</ele>
        <time>2022-02-15T01:39:53Z</time>
      </trkpt>
      <trkpt lat="46.94854" lon="3.11508">
        <ele>180</ele>
        <time>2022-02-15T01:39:58Z</time>
      </trkpt>
      <trkpt lat="46.94851" lon="3.11466">
        <ele>180</ele>
        <time>2022-02-15T01:40:03Z</time>
      </trkpt>
      <trkpt lat="46.94844" lon="3.11398">
        <ele>180</ele>
        <time>2022-02-15T01:40:11Z</time>
      </trkpt>
      <trkpt lat="46.94822" lon="3.11332">
        <ele>180</ele>
        <time>2022-02-15T01:40:20Z</time>
      </trkpt>
      <trkpt lat="46.94793" lon="3.11274">
        <ele>179</ele>
        <time>2022-02-15T01:40:29Z</time>
      </trkpt>
      <trkpt lat="46.94597" lon="3.11">
        <ele>180</ele>
        <time>2022-02-15T01:41:17Z</time>
      </trkpt>
      <trkpt lat="46.94588" lon="3.10985">
        <ele>180</ele>
        <time>2022-02-15T01:41:19Z</time>
      </trkpt>
      <trkpt lat="46.94559" lon="3.10927">
        <ele>181</ele>
        <time>2022-02-15T01:41:28Z</time>
      </trkpt>
      <trkpt lat="46.94544" lon="3.10892">
        <ele>180</ele>
        <time>2022-02-15T01:41:33Z</time>
      </trkpt>
      <trkpt lat="46.94535" lon="3.10855">
        <ele>180</ele>
        <time>2022-02-15T01:41:38Z</time>
      </trkpt>
      <trkpt lat="46.94518" lon="3.10781">
        <ele>179</ele>
        <time>2022-02-15T01:41:47Z</time>
      </trkpt>
      <trkpt lat="46.94512" lon="3.10723">
        <ele>180</ele>
        <time>2022-02-15T01:41:55Z</time>
      </trkpt>
      <trkpt lat="46.94509" lon="3.10662">
        <ele>180</ele>
        <time>2022-02-15T01:42:02Z</time>
      </trkpt>
      <trkpt lat="46.94513" lon="3.1059">
        <ele>179</ele>
        <time>2022-02-15T01:42:11Z</time>
      </trkpt>
      <trkpt lat="46.94517" lon="3.10553">
        <ele>179</ele>
        <time>2022-02-15T01:42:15Z</time>
      </trkpt>
      <trkpt lat="46.94524" lon="3.10517">
        <ele>179</ele>
        <time>2022-02-15T01:42:20Z</time>
      </trkpt>
      <trkpt lat="46.94532" lon="3.1048">
        <ele>179</ele>
        <time>2022-02-15T01:42:25Z</time>
      </trkpt>
      <trkpt lat="46.94544" lon="3.10444">
        <ele>178</ele>
        <time>2022-02-15T01:42:29Z</time>
      </trkpt>
      <trkpt lat="46.94662" lon="3.10139">
        <ele>179</ele>
        <time>2022-02-15T01:43:12Z</time>
      </trkpt>
      <trkpt lat="46.94675" lon="3.10078">
        <ele>179</ele>
        <time>2022-02-15T01:43:20Z</time>
      </trkpt>
      <trkpt lat="46.9468" lon="3.1">
        <ele>179</ele>
        <time>2022-02-15T01:43:29Z</time>
      </trkpt>
      <trkpt lat="46.94678" lon="3.09975">
        <ele>179</ele>
        <time>2022-02-15T01:43:32Z</time>
      </trkpt>
      <trkpt lat="46.94669" lon="3.09909">
        <ele>179</ele>
        <time>2022-02-15T01:43:41Z</time>
      </trkpt>
      <trkpt lat="46.94652" lon="3.09854">
        <ele>178</ele>
        <time>2022-02-15T01:43:48Z</time>
      </trkpt>
      <trkpt lat="46.94631" lon="3.09809">
        <ele>180</ele>
        <time>2022-02-15T01:43:54Z</time>
      </trkpt>
      <trkpt lat="46.94587" lon="3.09738">
        <ele>182</ele>
        <time>2022-02-15T01:44:06Z</time>
      </trkpt>
      <trkpt lat="46.94555" lon="3.09703">
        <ele>182</ele>
        <time>2022-02-15T01:44:13Z</time>
      </trkpt>
      <trkpt lat="46.9457" lon="3.09544">
        <ele>184</ele>
        <time>2022-02-15T01:44:33Z</time>
      </trkpt>
      <trkpt lat="46.94602" lon="3.09282">
        <ele>183</ele>
        <time>2022-02-15T01:45:05Z</time>
      </trkpt>
      <trkpt lat="46.94656" lon="3.08991">
        <ele>182</ele>
        <time>2022-02-15T01:45:42Z</time>
      </trkpt>
      <trkpt lat="46.94665" lon="3.08917">
        <ele>181</ele>
        <time>2022-02-15T01:45:51Z</time>
      </trkpt>
      <trkpt lat="46.94665" lon="3.08858">
        <ele>180</ele>
        <time>2022-02-15T01:45:58Z</time>
      </trkpt>
      <trkpt lat="46.94662" lon="3.08793">
        <ele>180</ele>
        <time>2022-02-15T01:46:06Z</time>
      </trkpt>
      <trkpt lat="46.94654" lon="3.08731">
        <ele>179</ele>
        <time>2022-02-15T01:46:14Z</time>
      </trkpt>
      <trkpt lat="46.94557" lon="3.08348">
        <ele>175</ele>
        <time>2022-02-15T01:47:03Z</time>
      </trkpt>
      <trkpt lat="46.94534" lon="3.08261">
        <ele>173</ele>
        <time>2022-02-15T01:47:15Z</time>
      </trkpt>
      <trkpt lat="46.94522" lon="3.08209">
        <ele>172</ele>
        <time>2022-02-15T01:47:21Z</time>
      </trkpt>
      <trkpt lat="46.94514" lon="3.08158">
        <ele>171</ele>
        <time>2022-02-15T01:47:28Z</time>
      </trkpt>
      <trkpt lat="46.94509" lon="3.08088">
        <ele>172</ele>
        <time>2022-02-15T01:47:36Z</time>
      </trkpt>
      <trkpt lat="46.94509" lon="3.08015">
        <ele>173</ele>
        <time>2022-02-15T01:47:45Z</time>
      </trkpt>
      <trkpt lat="46.94511" lon="3.07976">
        <ele>173</ele>
        <time>2022-02-15T01:47:50Z</time>
      </trkpt>
      <trkpt lat="46.94516" lon="3.07938">
        <ele>172</ele>
        <time>2022-02-15T01:47:54Z</time>
      </trkpt>
      <trkpt lat="46.94529" lon="3.07864">
        <ele>171</ele>
        <time>2022-02-15T01:48:04Z</time>
      </trkpt>
      <trkpt lat="46.94543" lon="3.07809">
        <ele>170</ele>
        <time>2022-02-15T01:48:11Z</time>
      </trkpt>
      <trkpt lat="46.94562" lon="3.07755">
        <ele>170</ele>
        <time>2022-02-15T01:48:18Z</time>
      </trkpt>
      <trkpt lat="46.94584" lon="3.07705">
        <ele>171</ele>
        <time>2022-02-15T01:48:25Z</time>
      </trkpt>
      <trkpt lat="46.94636" lon="3.076">
        <ele>169</ele>
        <time>2022-02-15T01:48:41Z</time>
      </trkpt>
      <trkpt lat="46.9481" lon="3.07249">
        <ele>168</ele>
        <time>2022-02-15T01:49:34Z</time>
      </trkpt>
      <trkpt lat="46.94823" lon="3.07221">
        <ele>170</ele>
        <time>2022-02-15T01:49:38Z</time>
      </trkpt>
      <trkpt lat="46.94844" lon="3.07195">
        <ele>172</ele>
        <time>2022-02-15T01:49:43Z</time>
      </trkpt>
      <trkpt lat="46.94853" lon="3.07195">
        <ele>172</ele>
        <time>2022-02-15T01:49:44Z</time>
      </trkpt>
      <trkpt lat="46.94858" lon="3.07192">
        <ele>172</ele>
        <time>2022-02-15T01:49:45Z</time>
      </trkpt>
      <trkpt lat="46.94865" lon="3.0718">
        <ele>172</ele>
        <time>2022-02-15T01:49:47Z</time>
      </trkpt>
      <trkpt lat="46.94866" lon="3.07165">
        <ele>173</ele>
        <time>2022-02-15T01:49:49Z</time>
      </trkpt>
      <trkpt lat="46.94864" lon="3.07156">
        <ele>173</ele>
        <time>2022-02-15T01:49:50Z</time>
      </trkpt>
      <trkpt lat="46.9486" lon="3.0715">
        <ele>173</ele>
        <time>2022-02-15T01:49:51Z</time>
      </trkpt>
      <trkpt lat="46.94871" lon="3.07139">
        <ele>173</ele>
        <time>2022-02-15T01:49:54Z</time>
      </trkpt>
      <trkpt lat="46.94862" lon="3.0713">
        <ele>173</ele>
        <time>2022-02-15T01:49:56Z</time>
      </trkpt>
      <trkpt lat="46.94772" lon="3.07021">
        <ele>172</ele>
        <time>2022-02-15T01:50:16Z</time>
      </trkpt>
      <trkpt lat="46.94705" lon="3.0695">
        <ele>171</ele>
        <time>2022-02-15T01:50:31Z</time>
      </trkpt>
      <trkpt lat="46.94699" lon="3.06944">
        <ele>171</ele>
        <time>2022-02-15T01:50:32Z</time>
      </trkpt>
      <trkpt lat="46.94695" lon="3.06948">
        <ele>172</ele>
        <time>2022-02-15T01:50:33Z</time>
      </trkpt>
      <trkpt lat="46.94678" lon="3.06927">
        <ele>172</ele>
        <time>2022-02-15T01:50:37Z</time>
      </trkpt>
      <trkpt lat="46.94665" lon="3.06909">
        <ele>172</ele>
        <time>2022-02-15T01:50:40Z</time>
      </trkpt>
      <trkpt lat="46.94654" lon="3.06887">
        <ele>172</ele>
        <time>2022-02-15T01:50:44Z</time>
      </trkpt>
      <trkpt lat="46.9464" lon="3.06851">
        <ele>171</ele>
        <time>2022-02-15T01:50:49Z</time>
      </trkpt>
      <trkpt lat="46.94633" lon="3.0681">
        <ele>171</ele>
        <time>2022-02-15T01:50:54Z</time>
      </trkpt>
      <trkpt lat="46.94631" lon="3.06754">
        <ele>172</ele>
        <time>2022-02-15T01:51:01Z</time>
      </trkpt>
      <trkpt lat="46.94638" lon="3.06689">
        <ele>171</ele>
        <time>2022-02-15T01:51:09Z</time>
      </trkpt>
      <trkpt lat="46.9464" lon="3.06641">
        <ele>171</ele>
        <time>2022-02-15T01:51:15Z</time>
      </trkpt>
      <trkpt lat="46.94612" lon="3.06174">
        <ele>171</ele>
        <time>2022-02-15T01:52:12Z</time>
      </trkpt>
      <trkpt lat="46.946" lon="3.05986">
        <ele>171</ele>
        <time>2022-02-15T01:52:34Z</time>
      </trkpt>
      <trkpt lat="46.94494" lon="3.05991">
        <ele>170</ele>
        <time>2022-02-15T01:52:53Z</time>
      </trkpt>
      <trkpt lat="46.94462" lon="3.06002">
        <ele>170</ele>
        <time>2022-02-15T01:52:59Z</time>
      </trkpt>
      <trkpt lat="46.93955" lon="3.06023">
        <ele>172</ele>
        <time>2022-02-15T01:54:29Z</time>
      </trkpt>
      <trkpt lat="46.93946" lon="3.06012">
        <ele>172</ele>
        <time>2022-02-15T01:54:32Z</time>
      </trkpt>
      <trkpt lat="46.93703" lon="3.06013">
        <ele>174</ele>
        <time>2022-02-15T01:55:15Z</time>
      </trkpt>
      <trkpt lat="46.93692" lon="3.06012">
        <ele>174</ele>
        <time>2022-02-15T01:55:17Z</time>
      </trkpt>
      <trkpt lat="46.93683" lon="3.06008">
        <ele>174</ele>
        <time>2022-02-15T01:55:18Z</time>
      </trkpt>
      <trkpt lat="46.93676" lon="3.06007">
        <ele>174</ele>
        <time>2022-02-15T01:55:20Z</time>
      </trkpt>
      <trkpt lat="46.9366" lon="3.06008">
        <ele>174</ele>
        <time>2022-02-15T01:55:22Z</time>
      </trkpt>
      <trkpt lat="46.93649" lon="3.06019">
        <ele>173</ele>
        <time>2022-02-15T01:55:25Z</time>
      </trkpt>
      <trkpt lat="46.9363" lon="3.06024">
        <ele>172</ele>
        <time>2022-02-15T01:55:28Z</time>
      </trkpt>
      <trkpt lat="46.93464" lon="3.06031">
        <ele>171</ele>
        <time>2022-02-15T01:55:58Z</time>
      </trkpt>
      <trkpt lat="46.93442" lon="3.06035">
        <ele>172</ele>
        <time>2022-02-15T01:56:02Z</time>
      </trkpt>
      <trkpt lat="46.93441" lon="3.06015">
        <ele>172</ele>
        <time>2022-02-15T01:56:04Z</time>
      </trkpt>
      <trkpt lat="46.93441" lon="3.05979">
        <ele>173</ele>
        <time>2022-02-15T01:56:09Z</time>
      </trkpt>
      <trkpt lat="46.93442" lon="3.05966">
        <ele>173</ele>
        <time>2022-02-15T01:56:10Z</time>
      </trkpt>
      <trkpt lat="46.93334" lon="3.05967">
        <ele>172</ele>
        <time>2022-02-15T01:56:29Z</time>
      </trkpt>
      <trkpt lat="46.92964" lon="3.05903">
        <ele>176</ele>
        <time>2022-02-15T01:57:36Z</time>
      </trkpt>
      <trkpt lat="46.92885" lon="3.05885">
        <ele>176</ele>
        <time>2022-02-15T01:57:50Z</time>
      </trkpt>
      <trkpt lat="46.92809" lon="3.05846">
        <ele>174</ele>
        <time>2022-02-15T01:58:04Z</time>
      </trkpt>
      <trkpt lat="46.92767" lon="3.0582">
        <ele>174</ele>
        <time>2022-02-15T01:58:12Z</time>
      </trkpt>
      <trkpt lat="46.92695" lon="3.0577">
        <ele>176</ele>
        <time>2022-02-15T01:58:27Z</time>
      </trkpt>
      <trkpt lat="46.92439" lon="3.05642">
        <ele>177</ele>
        <time>2022-02-15T01:59:15Z</time>
      </trkpt>
      <trkpt lat="46.92424" lon="3.05633">
        <ele>177</ele>
        <time>2022-02-15T01:59:18Z</time>
      </trkpt>
      <trkpt lat="46.9241" lon="3.0564">
        <ele>176</ele>
        <time>2022-02-15T01:59:20Z</time>
      </trkpt>
      <trkpt lat="46.92382" lon="3.05633">
        <ele>176</ele>
        <time>2022-02-15T01:59:25Z</time>
      </trkpt>
      <trkpt lat="46.92273" lon="3.05571">
        <ele>174</ele>
        <time>2022-02-15T01:59:46Z</time>
      </trkpt>
      <trkpt lat="46.92254" lon="3.05556">
        <ele>174</ele>
        <time>2022-02-15T01:59:50Z</time>
      </trkpt>
      <trkpt lat="46.92234" lon="3.05537">
        <ele>176</ele>
        <time>2022-02-15T01:59:54Z</time>
      </trkpt>
      <trkpt lat="46.92158" lon="3.05515">
        <ele>180</ele>
        <time>2022-02-15T02:00:08Z</time>
      </trkpt>
      <trkpt lat="46.92116" lon="3.05513">
        <ele>179</ele>
        <time>2022-02-15T02:00:15Z</time>
      </trkpt>
      <trkpt lat="46.92016" lon="3.05467">
        <ele>178</ele>
        <time>2022-02-15T02:00:34Z</time>
      </trkpt>
      <trkpt lat="46.91987" lon="3.05445">
        <ele>179</ele>
        <time>2022-02-15T02:00:40Z</time>
      </trkpt>
      <trkpt lat="46.91936" lon="3.0539">
        <ele>179</ele>
        <time>2022-02-15T02:00:51Z</time>
      </trkpt>
      <trkpt lat="46.91791" lon="3.05191">
        <ele>187</ele>
        <time>2022-02-15T02:01:26Z</time>
      </trkpt>
      <trkpt lat="46.91744" lon="3.05149">
        <ele>187</ele>
        <time>2022-02-15T02:01:36Z</time>
      </trkpt>
      <trkpt lat="46.9168" lon="3.05106">
        <ele>189</ele>
        <time>2022-02-15T02:01:49Z</time>
      </trkpt>
      <trkpt lat="46.91397" lon="3.04975">
        <ele>187</ele>
        <time>2022-02-15T02:02:42Z</time>
      </trkpt>
      <trkpt lat="46.91271" lon="3.04931">
        <ele>185</ele>
        <time>2022-02-15T02:03:05Z</time>
      </trkpt>
      <trkpt lat="46.90993" lon="3.04819">
        <ele>179</ele>
        <time>2022-02-15T02:03:56Z</time>
      </trkpt>
      <trkpt lat="46.9093" lon="3.04815">
        <ele>176</ele>
        <time>2022-02-15T02:04:07Z</time>
      </trkpt>
      <trkpt lat="46.90895" lon="3.04822">
        <ele>174</ele>
        <time>2022-02-15T02:04:13Z</time>
      </trkpt>
      <trkpt lat="46.90846" lon="3.04822">
        <ele>173</ele>
        <time>2022-02-15T02:04:22Z</time>
      </trkpt>
      <trkpt lat="46.90773" lon="3.0479">
        <ele>177</ele>
        <time>2022-02-15T02:04:36Z</time>
      </trkpt>
      <trkpt lat="46.90696" lon="3.04766">
        <ele>178</ele>
        <time>2022-02-15T02:04:50Z</time>
      </trkpt>
      <trkpt lat="46.90679" lon="3.04769">
        <ele>177</ele>
        <time>2022-02-15T02:04:53Z</time>
      </trkpt>
      <trkpt lat="46.90696" lon="3.04766">
        <ele>178</ele>
        <time>2022-02-15T02:04:56Z</time>
      </trkpt>
      <trkpt lat="46.90696" lon="3.04748">
        <ele>180</ele>
        <time>2022-02-15T02:04:58Z</time>
      </trkpt>
      <trkpt lat="46.90704" lon="3.04702">
        <ele>183</ele>
        <time>2022-02-15T02:05:04Z</time>
      </trkpt>
      <trkpt lat="46.90711" lon="3.04672">
        <ele>185</ele>
        <time>2022-02-15T02:05:08Z</time>
      </trkpt>
      <trkpt lat="46.90724" lon="3.0464">
        <ele>187</ele>
        <time>2022-02-15T02:05:12Z</time>
      </trkpt>
      <trkpt lat="46.90914" lon="3.04393">
        <ele>196</ele>
        <time>2022-02-15T02:05:57Z</time>
      </trkpt>
      <trkpt lat="46.90936" lon="3.04349">
        <ele>197</ele>
        <time>2022-02-15T02:06:04Z</time>
      </trkpt>
      <trkpt lat="46.90954" lon="3.04283">
        <ele>198</ele>
        <time>2022-02-15T02:06:13Z</time>
      </trkpt>
      <trkpt lat="46.90963" lon="3.04193">
        <ele>200</ele>
        <time>2022-02-15T02:06:24Z</time>
      </trkpt>
      <trkpt lat="46.90975" lon="3.04023">
        <ele>206</ele>
        <time>2022-02-15T02:06:44Z</time>
      </trkpt>
      <trkpt lat="46.91008" lon="3.03542">
        <ele>212</ele>
        <time>2022-02-15T02:07:43Z</time>
      </trkpt>
      <trkpt lat="46.91049" lon="3.0297">
        <ele>211</ele>
        <time>2022-02-15T02:08:53Z</time>
      </trkpt>
      <trkpt lat="46.91085" lon="3.02415">
        <ele>210</ele>
        <time>2022-02-15T02:10:01Z</time>
      </trkpt>
      <trkpt lat="46.91093" lon="3.02364">
        <ele>205</ele>
        <time>2022-02-15T02:10:07Z</time>
      </trkpt>
      <trkpt lat="46.9111" lon="3.02318">
        <ele>202</ele>
        <time>2022-02-15T02:10:14Z</time>
      </trkpt>
      <trkpt lat="46.9118" lon="3.02195">
        <ele>194</ele>
        <time>2022-02-15T02:10:33Z</time>
      </trkpt>
      <trkpt lat="46.91257" lon="3.02056">
        <ele>189</ele>
        <time>2022-02-15T02:10:55Z</time>
      </trkpt>
      <trkpt lat="46.91276" lon="3.02004">
        <ele>188</ele>
        <time>2022-02-15T02:11:02Z</time>
      </trkpt>
      <trkpt lat="46.91284" lon="3.01934">
        <ele>186</ele>
        <time>2022-02-15T02:11:11Z</time>
      </trkpt>
      <trkpt lat="46.91281" lon="3.01873">
        <ele>185</ele>
        <time>2022-02-15T02:11:18Z</time>
      </trkpt>
      <trkpt lat="46.91275" lon="3.01851">
        <ele>184</ele>
        <time>2022-02-15T02:11:21Z</time>
      </trkpt>
      <trkpt lat="46.91271" lon="3.01838">
        <ele>184</ele>
        <time>2022-02-15T02:11:23Z</time>
      </trkpt>
      <trkpt lat="46.91164" lon="3.01465">
        <ele>189</ele>
        <time>2022-02-15T02:12:12Z</time>
      </trkpt>
      <trkpt lat="46.9115" lon="3.01412">
        <ele>189</ele>
        <time>2022-02-15T02:12:19Z</time>
      </trkpt>
      <trkpt lat="46.91147" lon="3.01367">
        <ele>190</ele>
        <time>2022-02-15T02:12:24Z</time>
      </trkpt>
      <trkpt lat="46.91152" lon="3.01319">
        <ele>190</ele>
        <time>2022-02-15T02:12:30Z</time>
      </trkpt>
      <trkpt lat="46.91168" lon="3.0124">
        <ele>191</ele>
        <time>2022-02-15T02:12:40Z</time>
      </trkpt>
      <trkpt lat="46.91195" lon="3.01095">
        <ele>191</ele>
        <time>2022-02-15T02:12:58Z</time>
      </trkpt>
      <trkpt lat="46.91358" lon="3.0113">
        <ele>200</ele>
        <time>2022-02-15T02:13:28Z</time>
      </trkpt>
      <trkpt lat="46.91453" lon="3.01147">
        <ele>201</ele>
        <time>2022-02-15T02:13:45Z</time>
      </trkpt>
      <trkpt lat="46.91497" lon="3.01152">
        <ele>202</ele>
        <time>2022-02-15T02:13:53Z</time>
      </trkpt>
      <trkpt lat="46.91528" lon="3.01147">
        <ele>204</ele>
        <time>2022-02-15T02:13:58Z</time>
      </trkpt>
      <trkpt lat="46.91551" lon="3.01139">
        <ele>206</ele>
        <time>2022-02-15T02:14:02Z</time>
      </trkpt>
      <trkpt lat="46.91578" lon="3.01124">
        <ele>209</ele>
        <time>2022-02-15T02:14:08Z</time>
      </trkpt>
      <trkpt lat="46.91599" lon="3.01106">
        <ele>210</ele>
        <time>2022-02-15T02:14:12Z</time>
      </trkpt>
      <trkpt lat="46.91642" lon="3.01064">
        <ele>211</ele>
        <time>2022-02-15T02:14:21Z</time>
      </trkpt>
      <trkpt lat="46.9286" lon="2.99931">
        <ele>208</ele>
        <time>2022-02-15T02:18:38Z</time>
      </trkpt>
      <trkpt lat="46.93125" lon="2.99675">
        <ele>196</ele>
        <time>2022-02-15T02:19:34Z</time>
      </trkpt>
      <trkpt lat="46.93416" lon="2.99387">
        <ele>199</ele>
        <time>2022-02-15T02:20:37Z</time>
      </trkpt>
      <trkpt lat="46.93429" lon="2.99372">
        <ele>199</ele>
        <time>2022-02-15T02:20:40Z</time>
      </trkpt>
      <trkpt lat="46.93441" lon="2.99353">
        <ele>199</ele>
        <time>2022-02-15T02:20:43Z</time>
      </trkpt>
      <trkpt lat="46.93453" lon="2.99325">
        <ele>200</ele>
        <time>2022-02-15T02:20:47Z</time>
      </trkpt>
      <trkpt lat="46.93701" lon="2.98525">
        <ele>211</ele>
        <time>2022-02-15T02:22:34Z</time>
      </trkpt>
      <trkpt lat="46.93777" lon="2.98297">
        <ele>217</ele>
        <time>2022-02-15T02:23:04Z</time>
      </trkpt>
      <trkpt lat="46.93818" lon="2.9818">
        <ele>219</ele>
        <time>2022-02-15T02:23:20Z</time>
      </trkpt>
      <trkpt lat="46.93848" lon="2.98126">
        <ele>220</ele>
        <time>2022-02-15T02:23:29Z</time>
      </trkpt>
      <trkpt lat="46.93963" lon="2.97954">
        <ele>222</ele>
        <time>2022-02-15T02:23:58Z</time>
      </trkpt>
      <trkpt lat="46.94255" lon="2.9751">
        <ele>217</ele>
        <time>2022-02-15T02:25:13Z</time>
      </trkpt>
      <trkpt lat="46.94341" lon="2.97373">
        <ele>215</ele>
        <time>2022-02-15T02:25:36Z</time>
      </trkpt>
      <trkpt lat="46.94372" lon="2.97311">
        <ele>214</ele>
        <time>2022-02-15T02:25:45Z</time>
      </trkpt>
      <trkpt lat="46.94382" lon="2.97284">
        <ele>214</ele>
        <time>2022-02-15T02:25:49Z</time>
      </trkpt>
      <trkpt lat="46.94389" lon="2.97258">
        <ele>214</ele>
        <time>2022-02-15T02:25:52Z</time>
      </trkpt>
      <trkpt lat="46.94396" lon="2.97212">
        <ele>212</ele>
        <time>2022-02-15T02:25:58Z</time>
      </trkpt>
      <trkpt lat="46.94403" lon="2.97128">
        <ele>209</ele>
        <time>2022-02-15T02:26:08Z</time>
      </trkpt>
      <trkpt lat="46.94411" lon="2.97073">
        <ele>209</ele>
        <time>2022-02-15T02:26:15Z</time>
      </trkpt>
      <trkpt lat="46.94419" lon="2.9703">
        <ele>209</ele>
        <time>2022-02-15T02:26:20Z</time>
      </trkpt>
      <trkpt lat="46.94562" lon="2.96198">
        <ele>200</ele>
        <time>2022-02-15T02:28:05Z</time>
      </trkpt>
      <trkpt lat="46.9476" lon="2.9629">
        <ele>198</ele>
        <time>2022-02-15T02:28:42Z</time>
      </trkpt>
      <trkpt lat="46.94951" lon="2.96391">
        <ele>192</ele>
        <time>2022-02-15T02:29:18Z</time>
      </trkpt>
      <trkpt lat="46.94973" lon="2.96399">
        <ele>193</ele>
        <time>2022-02-15T02:29:22Z</time>
      </trkpt>
      <trkpt lat="46.94989" lon="2.96402">
        <ele>193</ele>
        <time>2022-02-15T02:29:25Z</time>
      </trkpt>
      <trkpt lat="46.95041" lon="2.96401">
        <ele>194</ele>
        <time>2022-02-15T02:29:34Z</time>
      </trkpt>
      <trkpt lat="46.95061" lon="2.96405">
        <ele>194</ele>
        <time>2022-02-15T02:29:37Z</time>
      </trkpt>
      <trkpt lat="46.95161" lon="2.96448">
        <ele>195</ele>
        <time>2022-02-15T02:29:56Z</time>
      </trkpt>
      <trkpt lat="46.95328" lon="2.96536">
        <ele>202</ele>
        <time>2022-02-15T02:30:28Z</time>
      </trkpt>
      <trkpt lat="46.95339" lon="2.96548">
        <ele>202</ele>
        <time>2022-02-15T02:30:30Z</time>
      </trkpt>
      <trkpt lat="46.95387" lon="2.96589">
        <ele>202</ele>
        <time>2022-02-15T02:30:40Z</time>
      </trkpt>
      <trkpt lat="46.95405" lon="2.96601">
        <ele>203</ele>
        <time>2022-02-15T02:30:43Z</time>
      </trkpt>
      <trkpt lat="46.95425" lon="2.9661">
        <ele>202</ele>
        <time>2022-02-15T02:30:47Z</time>
      </trkpt>
      <trkpt lat="46.95623" lon="2.9668">
        <ele>203</ele>
        <time>2022-02-15T02:31:23Z</time>
      </trkpt>
      <trkpt lat="46.9563" lon="2.9664">
        <ele>202</ele>
        <time>2022-02-15T02:31:28Z</time>
      </trkpt>
      <trkpt lat="46.95634" lon="2.96578">
        <ele>199</ele>
        <time>2022-02-15T02:31:36Z</time>
      </trkpt>
      <trkpt lat="46.95652" lon="2.96579">
        <ele>200</ele>
        <time>2022-02-15T02:31:39Z</time>
      </trkpt>
      <trkpt lat="46.95688" lon="2.96576">
        <ele>198</ele>
        <time>2022-02-15T02:31:46Z</time>
      </trkpt>
      <trkpt lat="46.95761" lon="2.96562">
        <ele>194</ele>
        <time>2022-02-15T02:31:59Z</time>
      </trkpt>
      <trkpt lat="46.96077" lon="2.96521">
        <ele>188</ele>
        <time>2022-02-15T02:32:55Z</time>
      </trkpt>
      <trkpt lat="46.96102" lon="2.96517">
        <ele>188</ele>
        <time>2022-02-15T02:33:00Z</time>
      </trkpt>
      <trkpt lat="46.96156" lon="2.96493">
        <ele>188</ele>
        <time>2022-02-15T02:33:10Z</time>
      </trkpt>
      <trkpt lat="46.96183" lon="2.96484">
        <ele>187</ele>
        <time>2022-02-15T02:33:15Z</time>
      </trkpt>
      <trkpt lat="46.96216" lon="2.96478">
        <ele>187</ele>
        <time>2022-02-15T02:33:20Z</time>
      </trkpt>
      <trkpt lat="46.96583" lon="2.96446">
        <ele>183</ele>
        <time>2022-02-15T02:34:26Z</time>
      </trkpt>
      <trkpt lat="46.96735" lon="2.96444">
        <ele>180</ele>
        <time>2022-02-15T02:34:53Z</time>
      </trkpt>
      <trkpt lat="46.9675" lon="2.96439">
        <ele>180</ele>
        <time>2022-02-15T02:34:56Z</time>
      </trkpt>
      <trkpt lat="46.96765" lon="2.96423">
        <ele>179</ele>
        <time>2022-02-15T02:34:59Z</time>
      </trkpt>
      <trkpt lat="46.96847" lon="2.96443">
        <ele>179</ele>
        <time>2022-02-15T02:35:14Z</time>
      </trkpt>
      <trkpt lat="46.96925" lon="2.96467">
        <ele>182</ele>
        <time>2022-02-15T02:35:28Z</time>
      </trkpt>
      <trkpt lat="46.96968" lon="2.96478">
        <ele>186</ele>
        <time>2022-02-15T02:35:36Z</time>
      </trkpt>
      <trkpt lat="46.97362" lon="2.96554">
        <ele>187</ele>
        <time>2022-02-15T02:36:46Z</time>
      </trkpt>
      <trkpt lat="46.97404" lon="2.96574">
        <ele>186</ele>
        <time>2022-02-15T02:36:54Z</time>
      </trkpt>
      <trkpt lat="46.97414" lon="2.96576">
        <ele>186</ele>
        <time>2022-02-15T02:36:56Z</time>
      </trkpt>
      <trkpt lat="46.97443" lon="2.9657">
        <ele>185</ele>
        <time>2022-02-15T02:37:01Z</time>
      </trkpt>
      <trkpt lat="46.97568" lon="2.96595">
        <ele>181</ele>
        <time>2022-02-15T02:37:24Z</time>
      </trkpt>
      <trkpt lat="46.97616" lon="2.96601">
        <ele>180</ele>
        <time>2022-02-15T02:37:32Z</time>
      </trkpt>
      <trkpt lat="46.97645" lon="2.96612">
        <ele>180</ele>
        <time>2022-02-15T02:37:38Z</time>
      </trkpt>
      <trkpt lat="46.97671" lon="2.96625">
        <ele>179</ele>
        <time>2022-02-15T02:37:43Z</time>
      </trkpt>
      <trkpt lat="46.97685" lon="2.96636">
        <ele>179</ele>
        <time>2022-02-15T02:37:45Z</time>
      </trkpt>
      <trkpt lat="46.97692" lon="2.96646">
        <ele>179</ele>
        <time>2022-02-15T02:37:47Z</time>
      </trkpt>
      <trkpt lat="46.97699" lon="2.96631">
        <ele>178</ele>
        <time>2022-02-15T02:37:49Z</time>
      </trkpt>
      <trkpt lat="46.97708" lon="2.96623">
        <ele>178</ele>
        <time>2022-02-15T02:37:51Z</time>
      </trkpt>
      <trkpt lat="46.97732" lon="2.96618">
        <ele>177</ele>
        <time>2022-02-15T02:37:55Z</time>
      </trkpt>
      <trkpt lat="46.97761" lon="2.96602">
        <ele>177</ele>
        <time>2022-02-15T02:38:01Z</time>
      </trkpt>
      <trkpt lat="46.97851" lon="2.96527">
        <ele>176</ele>
        <time>2022-02-15T02:38:19Z</time>
      </trkpt>
      <trkpt lat="46.97862" lon="2.96519">
        <ele>176</ele>
        <time>2022-02-15T02:38:22Z</time>
      </trkpt>
      <trkpt lat="46.97873" lon="2.96513">
        <ele>177</ele>
        <time>2022-02-15T02:38:24Z</time>
      </trkpt>
      <trkpt lat="46.97886" lon="2.96512">
        <ele>177</ele>
        <time>2022-02-15T02:38:26Z</time>
      </trkpt>
      <trkpt lat="46.97901" lon="2.96516">
        <ele>178</ele>
        <time>2022-02-15T02:38:29Z</time>
      </trkpt>
      <trkpt lat="46.9798" lon="2.96552">
        <ele>181</ele>
        <time>2022-02-15T02:38:43Z</time>
      </trkpt>
      <trkpt lat="46.98003" lon="2.96565">
        <ele>182</ele>
        <time>2022-02-15T02:38:48Z</time>
      </trkpt>
      <trkpt lat="46.98037" lon="2.96591">
        <ele>184</ele>
        <time>2022-02-15T02:38:55Z</time>
      </trkpt>
      <trkpt lat="46.98165" lon="2.9665">
        <ele>188</ele>
        <time>2022-02-15T02:39:19Z</time>
      </trkpt>
      <trkpt lat="46.98306" lon="2.96709">
        <ele>191</ele>
        <time>2022-02-15T02:39:45Z</time>
      </trkpt>
      <trkpt lat="46.9844" lon="2.96733">
        <ele>192</ele>
        <time>2022-02-15T02:40:09Z</time>
      </trkpt>
      <trkpt lat="46.98611" lon="2.96756">
        <ele>195</ele>
        <time>2022-02-15T02:40:39Z</time>
      </trkpt>
      <trkpt lat="46.98711" lon="2.96759">
        <ele>195</ele>
        <time>2022-02-15T02:40:57Z</time>
      </trkpt>
      <trkpt lat="46.98775" lon="2.96753">
        <ele>193</ele>
        <time>2022-02-15T02:41:08Z</time>
      </trkpt>
      <trkpt lat="46.98804" lon="2.96763">
        <ele>192</ele>
        <time>2022-02-15T02:41:14Z</time>
      </trkpt>
      <trkpt lat="46.98833" lon="2.96781">
        <ele>190</ele>
        <time>2022-02-15T02:41:19Z</time>
      </trkpt>
      <trkpt lat="46.98905" lon="2.96842">
        <ele>185</ele>
        <time>2022-02-15T02:41:34Z</time>
      </trkpt>
      <trkpt lat="46.98938" lon="2.96895">
        <ele>183</ele>
        <time>2022-02-15T02:41:43Z</time>
      </trkpt>
      <trkpt lat="46.98974" lon="2.96937">
        <ele>182</ele>
        <time>2022-02-15T02:41:51Z</time>
      </trkpt>
      <trkpt lat="46.98993" lon="2.96943">
        <ele>182</ele>
        <time>2022-02-15T02:41:54Z</time>
      </trkpt>
      <trkpt lat="46.99013" lon="2.96944">
        <ele>182</ele>
        <time>2022-02-15T02:41:58Z</time>
      </trkpt>
      <trkpt lat="46.99057" lon="2.96936">
        <ele>181</ele>
        <time>2022-02-15T02:42:06Z</time>
      </trkpt>
      <trkpt lat="46.99071" lon="2.96923">
        <ele>182</ele>
        <time>2022-02-15T02:42:09Z</time>
      </trkpt>
      <trkpt lat="46.99085" lon="2.96903">
        <ele>182</ele>
        <time>2022-02-15T02:42:12Z</time>
      </trkpt>
      <trkpt lat="46.99101" lon="2.96867">
        <ele>183</ele>
        <time>2022-02-15T02:42:18Z</time>
      </trkpt>
      <trkpt lat="46.99128" lon="2.96784">
        <ele>184</ele>
        <time>2022-02-15T02:42:29Z</time>
      </trkpt>
      <trkpt lat="46.99146" lon="2.96759">
        <ele>184</ele>
        <time>2022-02-15T02:42:33Z</time>
      </trkpt>
      <trkpt lat="46.99169" lon="2.9674">
        <ele>184</ele>
        <time>2022-02-15T02:42:38Z</time>
      </trkpt>
      <trkpt lat="46.99193" lon="2.9673">
        <ele>185</ele>
        <time>2022-02-15T02:42:42Z</time>
      </trkpt>
      <trkpt lat="46.9922" lon="2.96731">
        <ele>186</ele>
        <time>2022-02-15T02:42:47Z</time>
      </trkpt>
      <trkpt lat="46.99337" lon="2.96745">
        <ele>191</ele>
        <time>2022-02-15T02:43:08Z</time>
      </trkpt>
      <trkpt lat="46.99361" lon="2.96739">
        <ele>190</ele>
        <time>2022-02-15T02:43:12Z</time>
      </trkpt>
      <trkpt lat="46.99382" lon="2.96727">
        <ele>190</ele>
        <time>2022-02-15T02:43:16Z</time>
      </trkpt>
      <trkpt lat="46.994" lon="2.96713">
        <ele>189</ele>
        <time>2022-02-15T02:43:20Z</time>
      </trkpt>
      <trkpt lat="46.99415" lon="2.96694">
        <ele>188</ele>
        <time>2022-02-15T02:43:23Z</time>
      </trkpt>
      <trkpt lat="46.99437" lon="2.96654">
        <ele>186</ele>
        <time>2022-02-15T02:43:30Z</time>
      </trkpt>
      <trkpt lat="46.99458" lon="2.96624">
        <ele>185</ele>
        <time>2022-02-15T02:43:35Z</time>
      </trkpt>
      <trkpt lat="46.99491" lon="2.96604">
        <ele>182</ele>
        <time>2022-02-15T02:43:41Z</time>
      </trkpt>
      <trkpt lat="46.99524" lon="2.96595">
        <ele>181</ele>
        <time>2022-02-15T02:43:47Z</time>
      </trkpt>
      <trkpt lat="46.9955" lon="2.96595">
        <ele>181</ele>
        <time>2022-02-15T02:43:52Z</time>
      </trkpt>
      <trkpt lat="46.99585" lon="2.96599">
        <ele>181</ele>
        <time>2022-02-15T02:43:58Z</time>
      </trkpt>
      <trkpt lat="46.99598" lon="2.96603">
        <ele>182</ele>
        <time>2022-02-15T02:44:00Z</time>
      </trkpt>
      <trkpt lat="46.99612" lon="2.96613">
        <ele>183</ele>
        <time>2022-02-15T02:44:03Z</time>
      </trkpt>
      <trkpt lat="46.99629" lon="2.96632">
        <ele>183</ele>
        <time>2022-02-15T02:44:07Z</time>
      </trkpt>
      <trkpt lat="46.99918" lon="2.97164">
        <ele>183</ele>
        <time>2022-02-15T02:45:30Z</time>
      </trkpt>
      <trkpt lat="47.00015" lon="2.97349">
        <ele>180</ele>
        <time>2022-02-15T02:45:58Z</time>
      </trkpt>
      <trkpt lat="47.00071" lon="2.97449">
        <ele>178</ele>
        <time>2022-02-15T02:46:14Z</time>
      </trkpt>
      <trkpt lat="47.00094" lon="2.97479">
        <ele>176</ele>
        <time>2022-02-15T02:46:19Z</time>
      </trkpt>
      <trkpt lat="47.00113" lon="2.97496">
        <ele>174</ele>
        <time>2022-02-15T02:46:23Z</time>
      </trkpt>
      <trkpt lat="47.00132" lon="2.97508">
        <ele>174</ele>
        <time>2022-02-15T02:46:27Z</time>
      </trkpt>
      <trkpt lat="47.00182" lon="2.97524">
        <ele>173</ele>
        <time>2022-02-15T02:46:36Z</time>
      </trkpt>
      <trkpt lat="47.00275" lon="2.97546">
        <ele>177</ele>
        <time>2022-02-15T02:46:53Z</time>
      </trkpt>
      <trkpt lat="47.00498" lon="2.97604">
        <ele>180</ele>
        <time>2022-02-15T02:47:33Z</time>
      </trkpt>
      <trkpt lat="47.00777" lon="2.97654">
        <ele>175</ele>
        <time>2022-02-15T02:48:23Z</time>
      </trkpt>
      <trkpt lat="47.00812" lon="2.97659">
        <ele>175</ele>
        <time>2022-02-15T02:48:29Z</time>
      </trkpt>
      <trkpt lat="47.00857" lon="2.97658">
        <ele>175</ele>
        <time>2022-02-15T02:48:37Z</time>
      </trkpt>
      <trkpt lat="47.00876" lon="2.97652">
        <ele>174</ele>
        <time>2022-02-15T02:48:41Z</time>
      </trkpt>
      <trkpt lat="47.00889" lon="2.97645">
        <ele>174</ele>
        <time>2022-02-15T02:48:43Z</time>
      </trkpt>
      <trkpt lat="47.0098" lon="2.97583">
        <ele>175</ele>
        <time>2022-02-15T02:49:01Z</time>
      </trkpt>
      <trkpt lat="47.01015" lon="2.97573">
        <ele>176</ele>
        <time>2022-02-15T02:49:07Z</time>
      </trkpt>
      <trkpt lat="47.01205" lon="2.97525">
        <ele>178</ele>
        <time>2022-02-15T02:49:42Z</time>
      </trkpt>
      <trkpt lat="47.01339" lon="2.97496">
        <ele>179</ele>
        <time>2022-02-15T02:50:06Z</time>
      </trkpt>
      <trkpt lat="47.01498" lon="2.97459">
        <ele>180</ele>
        <time>2022-02-15T02:50:34Z</time>
      </trkpt>
      <trkpt lat="47.01529" lon="2.97445">
        <ele>179</ele>
        <time>2022-02-15T02:50:40Z</time>
      </trkpt>
      <trkpt lat="47.01557" lon="2.97426">
        <ele>177</ele>
        <time>2022-02-15T02:50:46Z</time>
      </trkpt>
      <trkpt lat="47.01632" lon="2.97351">
        <ele>174</ele>
        <time>2022-02-15T02:51:02Z</time>
      </trkpt>
      <trkpt lat="47.01795" lon="2.97167">
        <ele>181</ele>
        <time>2022-02-15T02:51:38Z</time>
      </trkpt>
      <trkpt lat="47.01906" lon="2.97068">
        <ele>185</ele>
        <time>2022-02-15T02:52:01Z</time>
      </trkpt>
      <trkpt lat="47.02008" lon="2.96957">
        <ele>189</ele>
        <time>2022-02-15T02:52:24Z</time>
      </trkpt>
      <trkpt lat="47.02049" lon="2.96896">
        <ele>191</ele>
        <time>2022-02-15T02:52:34Z</time>
      </trkpt>
      <trkpt lat="47.02075" lon="2.9683">
        <ele>193</ele>
        <time>2022-02-15T02:52:44Z</time>
      </trkpt>
      <trkpt lat="47.02096" lon="2.96787">
        <ele>195</ele>
        <time>2022-02-15T02:52:50Z</time>
      </trkpt>
      <trkpt lat="47.02117" lon="2.96724">
        <ele>196</ele>
        <time>2022-02-15T02:52:59Z</time>
      </trkpt>
      <trkpt lat="47.02189" lon="2.96849">
        <ele>195</ele>
        <time>2022-02-15T02:53:18Z</time>
      </trkpt>
      <trkpt lat="47.02214" lon="2.96871">
        <ele>195</ele>
        <time>2022-02-15T02:53:24Z</time>
      </trkpt>
      <trkpt lat="47.02327" lon="2.9692">
        <ele>190</ele>
        <time>2022-02-15T02:53:45Z</time>
      </trkpt>
      <trkpt lat="47.02337" lon="2.96965">
        <ele>190</ele>
        <time>2022-02-15T02:53:50Z</time>
      </trkpt>
      <trkpt lat="47.02345" lon="2.96976">
        <ele>190</ele>
        <time>2022-02-15T02:53:52Z</time>
      </trkpt>
      <trkpt lat="47.02413" lon="2.97053">
        <ele>188</ele>
        <time>2022-02-15T02:54:08Z</time>
      </trkpt>
      <trkpt lat="47.02613" lon="2.9729">
        <ele>176</ele>
        <time>2022-02-15T02:54:53Z</time>
      </trkpt>
      <trkpt lat="47.02629" lon="2.97303">
        <ele>175</ele>
        <time>2022-02-15T02:54:57Z</time>
      </trkpt>
      <trkpt lat="47.02655" lon="2.97316">
        <ele>174</ele>
        <time>2022-02-15T02:55:01Z</time>
      </trkpt>
      <trkpt lat="47.02671" lon="2.9732">
        <ele>173</ele>
        <time>2022-02-15T02:55:04Z</time>
      </trkpt>
      <trkpt lat="47.02688" lon="2.97322">
        <ele>173</ele>
        <time>2022-02-15T02:55:07Z</time>
      </trkpt>
      <trkpt lat="47.02716" lon="2.97318">
        <ele>172</ele>
        <time>2022-02-15T02:55:12Z</time>
      </trkpt>
      <trkpt lat="47.0276" lon="2.97307">
        <ele>171</ele>
        <time>2022-02-15T02:55:20Z</time>
      </trkpt>
      <trkpt lat="47.02787" lon="2.97308">
        <ele>171</ele>
        <time>2022-02-15T02:55:25Z</time>
      </trkpt>
      <trkpt lat="47.02803" lon="2.97315">
        <ele>170</ele>
        <time>2022-02-15T02:55:28Z</time>
      </trkpt>
      <trkpt lat="47.0282" lon="2.97326">
        <ele>170</ele>
        <time>2022-02-15T02:55:31Z</time>
      </trkpt>
      <trkpt lat="47.02881" lon="2.97392">
        <ele>169</ele>
        <time>2022-02-15T02:55:45Z</time>
      </trkpt>
      <trkpt lat="47.03008" lon="2.97519">
        <ele>171</ele>
        <time>2022-02-15T02:56:12Z</time>
      </trkpt>
      <trkpt lat="47.0303" lon="2.97539">
        <ele>171</ele>
        <time>2022-02-15T02:56:17Z</time>
      </trkpt>
      <trkpt lat="47.03052" lon="2.97556">
        <ele>171</ele>
        <time>2022-02-15T02:56:21Z</time>
      </trkpt>
      <trkpt lat="47.03074" lon="2.97568">
        <ele>171</ele>
        <time>2022-02-15T02:56:25Z</time>
      </trkpt>
      <trkpt lat="47.03105" lon="2.97577">
        <ele>171</ele>
        <time>2022-02-15T02:56:31Z</time>
      </trkpt>
      <trkpt lat="47.0366" lon="2.97704">
        <ele>172</ele>
        <time>2022-02-15T02:58:11Z</time>
      </trkpt>
      <trkpt lat="47.03689" lon="2.97717">
        <ele>172</ele>
        <time>2022-02-15T02:58:16Z</time>
      </trkpt>
      <trkpt lat="47.03738" lon="2.97748">
        <ele>172</ele>
        <time>2022-02-15T02:58:26Z</time>
      </trkpt>
      <trkpt lat="47.03778" lon="2.97764">
        <ele>171</ele>
        <time>2022-02-15T02:58:33Z</time>
      </trkpt>
      <trkpt lat="47.03993" lon="2.97811">
        <ele>168</ele>
        <time>2022-02-15T02:59:12Z</time>
      </trkpt>
      <trkpt lat="47.04005" lon="2.97811">
        <ele>168</ele>
        <time>2022-02-15T02:59:14Z</time>
      </trkpt>
      <trkpt lat="47.04019" lon="2.97808">
        <ele>168</ele>
        <time>2022-02-15T02:59:17Z</time>
      </trkpt>
      <trkpt lat="47.04063" lon="2.97786">
        <ele>170</ele>
        <time>2022-02-15T02:59:25Z</time>
      </trkpt>
      <trkpt lat="47.04081" lon="2.9778">
        <ele>171</ele>
        <time>2022-02-15T02:59:28Z</time>
      </trkpt>
      <trkpt lat="47.04097" lon="2.9778">
        <ele>171</ele>
        <time>2022-02-15T02:59:31Z</time>
      </trkpt>
      <trkpt lat="47.04112" lon="2.97785">
        <ele>171</ele>
        <time>2022-02-15T02:59:34Z</time>
      </trkpt>
      <trkpt lat="47.04123" lon="2.97791">
        <ele>171</ele>
        <time>2022-02-15T02:59:36Z</time>
      </trkpt>
      <trkpt lat="47.04134" lon="2.97802">
        <ele>170</ele>
        <time>2022-02-15T02:59:38Z</time>
      </trkpt>
      <trkpt lat="47.0415" lon="2.97825">
        <ele>170</ele>
        <time>2022-02-15T02:59:42Z</time>
      </trkpt>
      <trkpt lat="47.0429" lon="2.98102">
        <ele>172</ele>
        <time>2022-02-15T03:00:24Z</time>
      </trkpt>
      <trkpt lat="47.04324" lon="2.98176">
        <ele>172</ele>
        <time>2022-02-15T03:00:35Z</time>
      </trkpt>
      <trkpt lat="47.04343" lon="2.98226">
        <ele>173</ele>
        <time>2022-02-15T03:00:42Z</time>
      </trkpt>
      <trkpt lat="47.04388" lon="2.98366">
        <ele>172</ele>
        <time>2022-02-15T03:01:01Z</time>
      </trkpt>
      <trkpt lat="47.044" lon="2.98413">
        <ele>171</ele>
        <time>2022-02-15T03:01:07Z</time>
      </trkpt>
      <trkpt lat="47.04404" lon="2.98443">
        <ele>171</ele>
        <time>2022-02-15T03:01:10Z</time>
      </trkpt>
      <trkpt lat="47.04412" lon="2.98538">
        <ele>171</ele>
        <time>2022-02-15T03:01:22Z</time>
      </trkpt>
      <trkpt lat="47.04418" lon="2.98575">
        <ele>172</ele>
        <time>2022-02-15T03:01:27Z</time>
      </trkpt>
      <trkpt lat="47.04427" lon="2.98613">
        <ele>172</ele>
        <time>2022-02-15T03:01:31Z</time>
      </trkpt>
      <trkpt lat="47.04434" lon="2.98641">
        <ele>172</ele>
        <time>2022-02-15T03:01:35Z</time>
      </trkpt>
      <trkpt lat="47.04442" lon="2.98664">
        <ele>172</ele>
        <time>2022-02-15T03:01:38Z</time>
      </trkpt>
      <trkpt lat="47.04476" lon="2.98732">
        <ele>172</ele>
        <time>2022-02-15T03:01:48Z</time>
      </trkpt>
      <trkpt lat="47.04485" lon="2.98759">
        <ele>172</ele>
        <time>2022-02-15T03:01:52Z</time>
      </trkpt>
      <trkpt lat="47.04487" lon="2.98807">
        <ele>172</ele>
        <time>2022-02-15T03:01:58Z</time>
      </trkpt>
      <trkpt lat="47.04492" lon="2.98838">
        <ele>172</ele>
        <time>2022-02-15T03:02:02Z</time>
      </trkpt>
      <trkpt lat="47.04498" lon="2.98859">
        <ele>170</ele>
        <time>2022-02-15T03:02:04Z</time>
      </trkpt>
      <trkpt lat="47.0453" lon="2.9893">
        <ele>168</ele>
        <time>2022-02-15T03:02:15Z</time>
      </trkpt>
      <trkpt lat="47.04547" lon="2.98949">
        <ele>168</ele>
        <time>2022-02-15T03:02:19Z</time>
      </trkpt>
      <trkpt lat="47.04578" lon="2.98975">
        <ele>169</ele>
        <time>2022-02-15T03:02:25Z</time>
      </trkpt>
      <trkpt lat="47.0461" lon="2.98996">
        <ele>169</ele>
        <time>2022-02-15T03:02:31Z</time>
      </trkpt>
      <trkpt lat="47.04631" lon="2.99016">
        <ele>169</ele>
        <time>2022-02-15T03:02:36Z</time>
      </trkpt>
      <trkpt lat="47.04729" lon="2.99148">
        <ele>170</ele>
        <time>2022-02-15T03:02:59Z</time>
      </trkpt>
      <trkpt lat="47.04735" lon="2.9915">
        <ele>170</ele>
        <time>2022-02-15T03:03:00Z</time>
      </trkpt>
      <trkpt lat="47.04741" lon="2.99149">
        <ele>170</ele>
        <time>2022-02-15T03:03:01Z</time>
      </trkpt>
      <trkpt lat="47.04748" lon="2.99143">
        <ele>170</ele>
        <time>2022-02-15T03:03:03Z</time>
      </trkpt>
      <trkpt lat="47.04827" lon="2.99034">
        <ele>173</ele>
        <time>2022-02-15T03:03:22Z</time>
      </trkpt>
      <trkpt lat="47.0485" lon="2.99013">
        <ele>173</ele>
        <time>2022-02-15T03:03:27Z</time>
      </trkpt>
      <trkpt lat="47.04866" lon="2.99002">
        <ele>172</ele>
        <time>2022-02-15T03:03:30Z</time>
      </trkpt>
      <trkpt lat="47.05172" lon="2.98877">
        <ele>176</ele>
        <time>2022-02-15T03:04:27Z</time>
      </trkpt>
      <trkpt lat="47.05204" lon="2.98859">
        <ele>177</ele>
        <time>2022-02-15T03:04:33Z</time>
      </trkpt>
      <trkpt lat="47.05226" lon="2.98841">
        <ele>176</ele>
        <time>2022-02-15T03:04:37Z</time>
      </trkpt>
      <trkpt lat="47.0526" lon="2.98799">
        <ele>177</ele>
        <time>2022-02-15T03:04:45Z</time>
      </trkpt>
      <trkpt lat="47.05273" lon="2.98778">
        <ele>179</ele>
        <time>2022-02-15T03:04:49Z</time>
      </trkpt>
      <trkpt lat="47.05287" lon="2.98747">
        <ele>180</ele>
        <time>2022-02-15T03:04:53Z</time>
      </trkpt>
      <trkpt lat="47.05339" lon="2.98608">
        <ele>184</ele>
        <time>2022-02-15T03:05:12Z</time>
      </trkpt>
      <trkpt lat="47.05379" lon="2.98505">
        <ele>185</ele>
        <time>2022-02-15T03:05:27Z</time>
      </trkpt>
      <trkpt lat="47.05391" lon="2.98486">
        <ele>185</ele>
        <time>2022-02-15T03:05:30Z</time>
      </trkpt>
      <trkpt lat="47.05403" lon="2.98467">
        <ele>184</ele>
        <time>2022-02-15T03:05:33Z</time>
      </trkpt>
      <trkpt lat="47.05418" lon="2.98452">
        <ele>183</ele>
        <time>2022-02-15T03:05:36Z</time>
      </trkpt>
      <trkpt lat="47.05434" lon="2.9844">
        <ele>183</ele>
        <time>2022-02-15T03:05:39Z</time>
      </trkpt>
      <trkpt lat="47.05452" lon="2.98431">
        <ele>183</ele>
        <time>2022-02-15T03:05:43Z</time>
      </trkpt>
      <trkpt lat="47.0555" lon="2.98393">
        <ele>185</ele>
        <time>2022-02-15T03:06:01Z</time>
      </trkpt>
      <trkpt lat="47.05588" lon="2.98375">
        <ele>186</ele>
        <time>2022-02-15T03:06:08Z</time>
      </trkpt>
      <trkpt lat="47.05605" lon="2.98359">
        <ele>187</ele>
        <time>2022-02-15T03:06:12Z</time>
      </trkpt>
      <trkpt lat="47.05629" lon="2.98325">
        <ele>188</ele>
        <time>2022-02-15T03:06:17Z</time>
      </trkpt>
      <trkpt lat="47.05656" lon="2.98262">
        <ele>187</ele>
        <time>2022-02-15T03:06:27Z</time>
      </trkpt>
      <trkpt lat="47.05677" lon="2.98223">
        <ele>188</ele>
        <time>2022-02-15T03:06:33Z</time>
      </trkpt>
      <trkpt lat="47.05689" lon="2.98207">
        <ele>189</ele>
        <time>2022-02-15T03:06:35Z</time>
      </trkpt>
      <trkpt lat="47.05704" lon="2.98194">
        <ele>190</ele>
        <time>2022-02-15T03:06:39Z</time>
      </trkpt>
      <trkpt lat="47.0573" lon="2.98177">
        <ele>191</ele>
        <time>2022-02-15T03:06:44Z</time>
      </trkpt>
      <trkpt lat="47.05743" lon="2.98173">
        <ele>192</ele>
        <time>2022-02-15T03:06:46Z</time>
      </trkpt>
      <trkpt lat="47.06325" lon="2.98088">
        <ele>201</ele>
        <time>2022-02-15T03:08:30Z</time>
      </trkpt>
      <trkpt lat="47.06353" lon="2.98075">
        <ele>201</ele>
        <time>2022-02-15T03:08:35Z</time>
      </trkpt>
      <trkpt lat="47.06366" lon="2.98063">
        <ele>202</ele>
        <time>2022-02-15T03:08:38Z</time>
      </trkpt>
      <trkpt lat="47.06407" lon="2.98003">
        <ele>202</ele>
        <time>2022-02-15T03:08:48Z</time>
      </trkpt>
      <trkpt lat="47.06691" lon="2.9756">
        <ele>193</ele>
        <time>2022-02-15T03:10:02Z</time>
      </trkpt>
      <trkpt lat="47.06738" lon="2.97498">
        <ele>190</ele>
        <time>2022-02-15T03:10:13Z</time>
      </trkpt>
      <trkpt lat="47.06761" lon="2.97471">
        <ele>191</ele>
        <time>2022-02-15T03:10:18Z</time>
      </trkpt>
      <trkpt lat="47.0678" lon="2.97452">
        <ele>191</ele>
        <time>2022-02-15T03:10:23Z</time>
      </trkpt>
      <trkpt lat="47.06807" lon="2.97429">
        <ele>192</ele>
        <time>2022-02-15T03:10:28Z</time>
      </trkpt>
      <trkpt lat="47.07005" lon="2.97297">
        <ele>192</ele>
        <time>2022-02-15T03:11:07Z</time>
      </trkpt>
      <trkpt lat="47.07018" lon="2.97284">
        <ele>192</ele>
        <time>2022-02-15T03:11:10Z</time>
      </trkpt>
      <trkpt lat="47.07032" lon="2.97266">
        <ele>191</ele>
        <time>2022-02-15T03:11:13Z</time>
      </trkpt>
      <trkpt lat="47.07046" lon="2.97239">
        <ele>192</ele>
        <time>2022-02-15T03:11:17Z</time>
      </trkpt>
      <trkpt lat="47.07207" lon="2.96894">
        <ele>200</ele>
        <time>2022-02-15T03:12:08Z</time>
      </trkpt>
      <trkpt lat="47.07613" lon="2.96006">
        <ele>203</ele>
        <time>2022-02-15T03:14:17Z</time>
      </trkpt>
      <trkpt lat="47.07635" lon="2.95964">
        <ele>202</ele>
        <time>2022-02-15T03:14:24Z</time>
      </trkpt>
      <trkpt lat="47.077" lon="2.95862">
        <ele>202</ele>
        <time>2022-02-15T03:14:41Z</time>
      </trkpt>
      <trkpt lat="47.07716" lon="2.95828">
        <ele>203</ele>
        <time>2022-02-15T03:14:46Z</time>
      </trkpt>
      <trkpt lat="47.0773" lon="2.95788">
        <ele>203</ele>
        <time>2022-02-15T03:14:51Z</time>
      </trkpt>
      <trkpt lat="47.07785" lon="2.95422">
        <ele>201</ele>
        <time>2022-02-15T03:15:37Z</time>
      </trkpt>
      <trkpt lat="47.07915" lon="2.94962">
        <ele>189</ele>
        <time>2022-02-15T03:16:37Z</time>
      </trkpt>
      <trkpt lat="47.07929" lon="2.94931">
        <ele>188</ele>
        <time>2022-02-15T03:16:41Z</time>
      </trkpt>
      <trkpt lat="47.07941" lon="2.94912">
        <ele>187</ele>
        <time>2022-02-15T03:16:45Z</time>
      </trkpt>
      <trkpt lat="47.07953" lon="2.94901">
        <ele>186</ele>
        <time>2022-02-15T03:16:47Z</time>
      </trkpt>
      <trkpt lat="47.07968" lon="2.94894">
        <ele>186</ele>
        <time>2022-02-15T03:16:50Z</time>
      </trkpt>
      <trkpt lat="47.07988" lon="2.94893">
        <ele>186</ele>
        <time>2022-02-15T03:16:53Z</time>
      </trkpt>
      <trkpt lat="47.08034" lon="2.94899">
        <ele>185</ele>
        <time>2022-02-15T03:17:02Z</time>
      </trkpt>
      <trkpt lat="47.08136" lon="2.94922">
        <ele>185</ele>
        <time>2022-02-15T03:17:20Z</time>
      </trkpt>
      <trkpt lat="47.08192" lon="2.94927">
        <ele>184</ele>
        <time>2022-02-15T03:17:30Z</time>
      </trkpt>
      <trkpt lat="47.08241" lon="2.94924">
        <ele>182</ele>
        <time>2022-02-15T03:17:39Z</time>
      </trkpt>
      <trkpt lat="47.08305" lon="2.9491">
        <ele>182</ele>
        <time>2022-02-15T03:17:50Z</time>
      </trkpt>
      <trkpt lat="47.08332" lon="2.94898">
        <ele>182</ele>
        <time>2022-02-15T03:17:55Z</time>
      </trkpt>
      <trkpt lat="47.08405" lon="2.94838">
        <ele>182</ele>
        <time>2022-02-15T03:18:10Z</time>
      </trkpt>
      <trkpt lat="47.0842" lon="2.94829">
        <ele>182</ele>
        <time>2022-02-15T03:18:13Z</time>
      </trkpt>
      <trkpt lat="47.08436" lon="2.94826">
        <ele>182</ele>
        <time>2022-02-15T03:18:16Z</time>
      </trkpt>
      <trkpt lat="47.08499" lon="2.94825">
        <ele>182</ele>
        <time>2022-02-15T03:18:27Z</time>
      </trkpt>
      <trkpt lat="47.08521" lon="2.9482">
        <ele>182</ele>
        <time>2022-02-15T03:18:31Z</time>
      </trkpt>
      <trkpt lat="47.08533" lon="2.94815">
        <ele>182</ele>
        <time>2022-02-15T03:18:33Z</time>
      </trkpt>
      <trkpt lat="47.08561" lon="2.94797">
        <ele>181</ele>
        <time>2022-02-15T03:18:39Z</time>
      </trkpt>
      <trkpt lat="47.08641" lon="2.94723">
        <ele>182</ele>
        <time>2022-02-15T03:18:56Z</time>
      </trkpt>
      <trkpt lat="47.0866" lon="2.94702">
        <ele>183</ele>
        <time>2022-02-15T03:19:00Z</time>
      </trkpt>
      <trkpt lat="47.08732" lon="2.94611">
        <ele>185</ele>
        <time>2022-02-15T03:19:17Z</time>
      </trkpt>
      <trkpt lat="47.08804" lon="2.94556">
        <ele>186</ele>
        <time>2022-02-15T03:19:31Z</time>
      </trkpt>
      <trkpt lat="47.08869" lon="2.94487">
        <ele>184</ele>
        <time>2022-02-15T03:19:45Z</time>
      </trkpt>
      <trkpt lat="47.08892" lon="2.94467">
        <ele>183</ele>
        <time>2022-02-15T03:19:50Z</time>
      </trkpt>
      <trkpt lat="47.08928" lon="2.94448">
        <ele>182</ele>
        <time>2022-02-15T03:19:57Z</time>
      </trkpt>
      <trkpt lat="47.09085" lon="2.94398">
        <ele>183</ele>
        <time>2022-02-15T03:20:26Z</time>
      </trkpt>
      <trkpt lat="47.09292" lon="2.94346">
        <ele>180</ele>
        <time>2022-02-15T03:21:03Z</time>
      </trkpt>
      <trkpt lat="47.09312" lon="2.94342">
        <ele>180</ele>
        <time>2022-02-15T03:21:06Z</time>
      </trkpt>
      <trkpt lat="47.09359" lon="2.94337">
        <ele>179</ele>
        <time>2022-02-15T03:21:15Z</time>
      </trkpt>
      <trkpt lat="47.09385" lon="2.94321">
        <ele>179</ele>
        <time>2022-02-15T03:21:20Z</time>
      </trkpt>
      <trkpt lat="47.09396" lon="2.94311">
        <ele>179</ele>
        <time>2022-02-15T03:21:22Z</time>
      </trkpt>
      <trkpt lat="47.09457" lon="2.94227">
        <ele>178</ele>
        <time>2022-02-15T03:21:37Z</time>
      </trkpt>
      <trkpt lat="47.09475" lon="2.94206">
        <ele>178</ele>
        <time>2022-02-15T03:21:41Z</time>
      </trkpt>
      <trkpt lat="47.09536" lon="2.94154">
        <ele>178</ele>
        <time>2022-02-15T03:21:54Z</time>
      </trkpt>
      <trkpt lat="47.09591" lon="2.94115">
        <ele>178</ele>
        <time>2022-02-15T03:22:05Z</time>
      </trkpt>
      <trkpt lat="47.09601" lon="2.94105">
        <ele>178</ele>
        <time>2022-02-15T03:22:07Z</time>
      </trkpt>
      <trkpt lat="47.09621" lon="2.94079">
        <ele>178</ele>
        <time>2022-02-15T03:22:11Z</time>
      </trkpt>
      <trkpt lat="47.09666" lon="2.93999">
        <ele>179</ele>
        <time>2022-02-15T03:22:24Z</time>
      </trkpt>
      <trkpt lat="47.09695" lon="2.93955">
        <ele>179</ele>
        <time>2022-02-15T03:22:31Z</time>
      </trkpt>
      <trkpt lat="47.09712" lon="2.93935">
        <ele>179</ele>
        <time>2022-02-15T03:22:35Z</time>
      </trkpt>
      <trkpt lat="47.0973" lon="2.93917">
        <ele>180</ele>
        <time>2022-02-15T03:22:39Z</time>
      </trkpt>
      <trkpt lat="47.09913" lon="2.93774">
        <ele>185</ele>
        <time>2022-02-15T03:23:16Z</time>
      </trkpt>
      <trkpt lat="47.09948" lon="2.93738">
        <ele>186</ele>
        <time>2022-02-15T03:23:24Z</time>
      </trkpt>
      <trkpt lat="47.09958" lon="2.93721">
        <ele>186</ele>
        <time>2022-02-15T03:23:26Z</time>
      </trkpt>
      <trkpt lat="47.09965" lon="2.93705">
        <ele>186</ele>
        <time>2022-02-15T03:23:29Z</time>
      </trkpt>
      <trkpt lat="47.09971" lon="2.93679">
        <ele>186</ele>
        <time>2022-02-15T03:23:32Z</time>
      </trkpt>
      <trkpt lat="47.09997" lon="2.93502">
        <ele>186</ele>
        <time>2022-02-15T03:23:54Z</time>
      </trkpt>
      <trkpt lat="47.10002" lon="2.9348">
        <ele>186</ele>
        <time>2022-02-15T03:23:57Z</time>
      </trkpt>
      <trkpt lat="47.10011" lon="2.93448">
        <ele>185</ele>
        <time>2022-02-15T03:24:01Z</time>
      </trkpt>
      <trkpt lat="47.10023" lon="2.93416">
        <ele>184</ele>
        <time>2022-02-15T03:24:05Z</time>
      </trkpt>
      <trkpt lat="47.10038" lon="2.93386">
        <ele>182</ele>
        <time>2022-02-15T03:24:10Z</time>
      </trkpt>
      <trkpt lat="47.10047" lon="2.93371">
        <ele>181</ele>
        <time>2022-02-15T03:24:12Z</time>
      </trkpt>
      <trkpt lat="47.10053" lon="2.93368">
        <ele>181</ele>
        <time>2022-02-15T03:24:13Z</time>
      </trkpt>
      <trkpt lat="47.10062" lon="2.93367">
        <ele>180</ele>
        <time>2022-02-15T03:24:15Z</time>
      </trkpt>
      <trkpt lat="47.10072" lon="2.93369">
        <ele>180</ele>
        <time>2022-02-15T03:24:17Z</time>
      </trkpt>
      <trkpt lat="47.10111" lon="2.93399">
        <ele>178</ele>
        <time>2022-02-15T03:24:25Z</time>
      </trkpt>
      <trkpt lat="47.1046" lon="2.93587">
        <ele>179</ele>
        <time>2022-02-15T03:25:31Z</time>
      </trkpt>
      <trkpt lat="47.10494" lon="2.93604">
        <ele>178</ele>
        <time>2022-02-15T03:25:37Z</time>
      </trkpt>
      <trkpt lat="47.10521" lon="2.93614">
        <ele>178</ele>
        <time>2022-02-15T03:25:42Z</time>
      </trkpt>
      <trkpt lat="47.11236" lon="2.93809">
        <ele>171</ele>
        <time>2022-02-15T03:27:52Z</time>
      </trkpt>
      <trkpt lat="47.11304" lon="2.93821">
        <ele>172</ele>
        <time>2022-02-15T03:28:04Z</time>
      </trkpt>
      <trkpt lat="47.11371" lon="2.93811">
        <ele>174</ele>
        <time>2022-02-15T03:28:16Z</time>
      </trkpt>
      <trkpt lat="47.11618" lon="2.93758">
        <ele>172</ele>
        <time>2022-02-15T03:29:00Z</time>
      </trkpt>
      <trkpt lat="47.11641" lon="2.93756">
        <ele>171</ele>
        <time>2022-02-15T03:29:04Z</time>
      </trkpt>
      <trkpt lat="47.1166" lon="2.93756">
        <ele>171</ele>
        <time>2022-02-15T03:29:08Z</time>
      </trkpt>
      <trkpt lat="47.11927" lon="2.93799">
        <ele>170</ele>
        <time>2022-02-15T03:29:55Z</time>
      </trkpt>
      <trkpt lat="47.11945" lon="2.93797">
        <ele>171</ele>
        <time>2022-02-15T03:29:59Z</time>
      </trkpt>
      <trkpt lat="47.11962" lon="2.93789">
        <ele>172</ele>
        <time>2022-02-15T03:30:02Z</time>
      </trkpt>
      <trkpt lat="47.11979" lon="2.93776">
        <ele>172</ele>
        <time>2022-02-15T03:30:05Z</time>
      </trkpt>
      <trkpt lat="47.12034" lon="2.93719">
        <ele>171</ele>
        <time>2022-02-15T03:30:17Z</time>
      </trkpt>
      <trkpt lat="47.1206" lon="2.93698">
        <ele>171</ele>
        <time>2022-02-15T03:30:22Z</time>
      </trkpt>
      <trkpt lat="47.12071" lon="2.93693">
        <ele>172</ele>
        <time>2022-02-15T03:30:25Z</time>
      </trkpt>
      <trkpt lat="47.12109" lon="2.93683">
        <ele>172</ele>
        <time>2022-02-15T03:30:31Z</time>
      </trkpt>
      <trkpt lat="47.12261" lon="2.93661">
        <ele>172</ele>
        <time>2022-02-15T03:30:59Z</time>
      </trkpt>
      <trkpt lat="47.12294" lon="2.93654">
        <ele>172</ele>
        <time>2022-02-15T03:31:04Z</time>
      </trkpt>
      <trkpt lat="47.12312" lon="2.93647">
        <ele>172</ele>
        <time>2022-02-15T03:31:08Z</time>
      </trkpt>
      <trkpt lat="47.12341" lon="2.93628">
        <ele>172</ele>
        <time>2022-02-15T03:31:13Z</time>
      </trkpt>
      <trkpt lat="47.12415" lon="2.9355">
        <ele>172</ele>
        <time>2022-02-15T03:31:30Z</time>
      </trkpt>
      <trkpt lat="47.12437" lon="2.93533">
        <ele>173</ele>
        <time>2022-02-15T03:31:34Z</time>
      </trkpt>
      <trkpt lat="47.12448" lon="2.93528">
        <ele>173</ele>
        <time>2022-02-15T03:31:36Z</time>
      </trkpt>
      <trkpt lat="47.12455" lon="2.93527">
        <ele>173</ele>
        <time>2022-02-15T03:31:37Z</time>
      </trkpt>
      <trkpt lat="47.12467" lon="2.93529">
        <ele>174</ele>
        <time>2022-02-15T03:31:40Z</time>
      </trkpt>
      <trkpt lat="47.1253" lon="2.93563">
        <ele>177</ele>
        <time>2022-02-15T03:31:51Z</time>
      </trkpt>
      <trkpt lat="47.12539" lon="2.93564">
        <ele>177</ele>
        <time>2022-02-15T03:31:53Z</time>
      </trkpt>
      <trkpt lat="47.12548" lon="2.93562">
        <ele>178</ele>
        <time>2022-02-15T03:31:55Z</time>
      </trkpt>
      <trkpt lat="47.12566" lon="2.93552">
        <ele>179</ele>
        <time>2022-02-15T03:31:58Z</time>
      </trkpt>
      <trkpt lat="47.12575" lon="2.93541">
        <ele>179</ele>
        <time>2022-02-15T03:32:00Z</time>
      </trkpt>
      <trkpt lat="47.12581" lon="2.93529">
        <ele>180</ele>
        <time>2022-02-15T03:32:02Z</time>
      </trkpt>
      <trkpt lat="47.12608" lon="2.93425">
        <ele>179</ele>
        <time>2022-02-15T03:32:15Z</time>
      </trkpt>
      <trkpt lat="47.12615" lon="2.93408">
        <ele>179</ele>
        <time>2022-02-15T03:32:18Z</time>
      </trkpt>
      <trkpt lat="47.12622" lon="2.93396">
        <ele>178</ele>
        <time>2022-02-15T03:32:20Z</time>
      </trkpt>
      <trkpt lat="47.12628" lon="2.93391">
        <ele>178</ele>
        <time>2022-02-15T03:32:21Z</time>
      </trkpt>
      <trkpt lat="47.12642" lon="2.93394">
        <ele>178</ele>
        <time>2022-02-15T03:32:24Z</time>
      </trkpt>
      <trkpt lat="47.12697" lon="2.93425">
        <ele>179</ele>
        <time>2022-02-15T03:32:34Z</time>
      </trkpt>
      <trkpt lat="47.12713" lon="2.93428">
        <ele>179</ele>
        <time>2022-02-15T03:32:37Z</time>
      </trkpt>
      <trkpt lat="47.12771" lon="2.9343">
        <ele>179</ele>
        <time>2022-02-15T03:32:47Z</time>
      </trkpt>
      <trkpt lat="47.12833" lon="2.93408">
        <ele>179</ele>
        <time>2022-02-15T03:32:59Z</time>
      </trkpt>
      <trkpt lat="47.12839" lon="2.93404">
        <ele>178</ele>
        <time>2022-02-15T03:33:00Z</time>
      </trkpt>
      <trkpt lat="47.12844" lon="2.93395">
        <ele>178</ele>
        <time>2022-02-15T03:33:01Z</time>
      </trkpt>
      <trkpt lat="47.1286" lon="2.93326">
        <ele>175</ele>
        <time>2022-02-15T03:33:10Z</time>
      </trkpt>
      <trkpt lat="47.1287" lon="2.93314">
        <ele>174</ele>
        <time>2022-02-15T03:33:12Z</time>
      </trkpt>
      <trkpt lat="47.13083" lon="2.93228">
        <ele>169</ele>
        <time>2022-02-15T03:33:52Z</time>
      </trkpt>
      <trkpt lat="47.13172" lon="2.93196">
        <ele>170</ele>
        <time>2022-02-15T03:34:08Z</time>
      </trkpt>
      <trkpt lat="47.13192" lon="2.93194">
        <ele>170</ele>
        <time>2022-02-15T03:34:11Z</time>
      </trkpt>
      <trkpt lat="47.1321" lon="2.93199">
        <ele>170</ele>
        <time>2022-02-15T03:34:15Z</time>
      </trkpt>
      <trkpt lat="47.13225" lon="2.93207">
        <ele>170</ele>
        <time>2022-02-15T03:34:18Z</time>
      </trkpt>
      <trkpt lat="47.1344" lon="2.93363">
        <ele>170</ele>
        <time>2022-02-15T03:35:00Z</time>
      </trkpt>
      <trkpt lat="47.13459" lon="2.93372">
        <ele>170</ele>
        <time>2022-02-15T03:35:04Z</time>
      </trkpt>
      <trkpt lat="47.13543" lon="2.93396">
        <ele>169</ele>
        <time>2022-02-15T03:35:19Z</time>
      </trkpt>
      <trkpt lat="47.13563" lon="2.93406">
        <ele>169</ele>
        <time>2022-02-15T03:35:23Z</time>
      </trkpt>
      <trkpt lat="47.13581" lon="2.93421">
        <ele>169</ele>
        <time>2022-02-15T03:35:26Z</time>
      </trkpt>
      <trkpt lat="47.13598" lon="2.9344">
        <ele>169</ele>
        <time>2022-02-15T03:35:30Z</time>
      </trkpt>
      <trkpt lat="47.13648" lon="2.93513">
        <ele>171</ele>
        <time>2022-02-15T03:35:43Z</time>
      </trkpt>
      <trkpt lat="47.13667" lon="2.93532">
        <ele>171</ele>
        <time>2022-02-15T03:35:47Z</time>
      </trkpt>
      <trkpt lat="47.13687" lon="2.93546">
        <ele>171</ele>
        <time>2022-02-15T03:35:51Z</time>
      </trkpt>
      <trkpt lat="47.13786" lon="2.93588">
        <ele>168</ele>
        <time>2022-02-15T03:36:09Z</time>
      </trkpt>
      <trkpt lat="47.13823" lon="2.93598">
        <ele>166</ele>
        <time>2022-02-15T03:36:16Z</time>
      </trkpt>
      <trkpt lat="47.1384" lon="2.93597">
        <ele>166</ele>
        <time>2022-02-15T03:36:19Z</time>
      </trkpt>
      <trkpt lat="47.13857" lon="2.93593">
        <ele>166</ele>
        <time>2022-02-15T03:36:22Z</time>
      </trkpt>
      <trkpt lat="47.13882" lon="2.93578">
        <ele>167</ele>
        <time>2022-02-15T03:36:27Z</time>
      </trkpt>
      <trkpt lat="47.13925" lon="2.93539">
        <ele>167</ele>
        <time>2022-02-15T03:36:36Z</time>
      </trkpt>
      <trkpt lat="47.13947" lon="2.93512">
        <ele>167</ele>
        <time>2022-02-15T03:36:41Z</time>
      </trkpt>
      <trkpt lat="47.13996" lon="2.93435">
        <ele>168</ele>
        <time>2022-02-15T03:36:54Z</time>
      </trkpt>
      <trkpt lat="47.14135" lon="2.9321">
        <ele>173</ele>
        <time>2022-02-15T03:37:30Z</time>
      </trkpt>
      <trkpt lat="47.14152" lon="2.93192">
        <ele>173</ele>
        <time>2022-02-15T03:37:34Z</time>
      </trkpt>
      <trkpt lat="47.14176" lon="2.93174">
        <ele>173</ele>
        <time>2022-02-15T03:37:39Z</time>
      </trkpt>
      <trkpt lat="47.14228" lon="2.93147">
        <ele>174</ele>
        <time>2022-02-15T03:37:49Z</time>
      </trkpt>
      <trkpt lat="47.14255" lon="2.9313">
        <ele>174</ele>
        <time>2022-02-15T03:37:54Z</time>
      </trkpt>
      <trkpt lat="47.14407" lon="2.93004">
        <ele>173</ele>
        <time>2022-02-15T03:38:25Z</time>
      </trkpt>
      <trkpt lat="47.14667" lon="2.92795">
        <ele>170</ele>
        <time>2022-02-15T03:39:18Z</time>
      </trkpt>
      <trkpt lat="47.14711" lon="2.92768">
        <ele>169</ele>
        <time>2022-02-15T03:39:26Z</time>
      </trkpt>
      <trkpt lat="47.15014" lon="2.92603">
        <ele>167</ele>
        <time>2022-02-15T03:40:24Z</time>
      </trkpt>
      <trkpt lat="47.15145" lon="2.92542">
        <ele>166</ele>
        <time>2022-02-15T03:40:48Z</time>
      </trkpt>
      <trkpt lat="47.15267" lon="2.92471">
        <ele>167</ele>
        <time>2022-02-15T03:41:11Z</time>
      </trkpt>
      <trkpt lat="47.15376" lon="2.92404">
        <ele>170</ele>
        <time>2022-02-15T03:41:32Z</time>
      </trkpt>
      <trkpt lat="47.15396" lon="2.92397">
        <ele>170</ele>
        <time>2022-02-15T03:41:36Z</time>
      </trkpt>
      <trkpt lat="47.15441" lon="2.9239">
        <ele>171</ele>
        <time>2022-02-15T03:41:44Z</time>
      </trkpt>
      <trkpt lat="47.15448" lon="2.92387">
        <ele>172</ele>
        <time>2022-02-15T03:41:45Z</time>
      </trkpt>
      <trkpt lat="47.15455" lon="2.92381">
        <ele>172</ele>
        <time>2022-02-15T03:41:47Z</time>
      </trkpt>
      <trkpt lat="47.15464" lon="2.92371">
        <ele>172</ele>
        <time>2022-02-15T03:41:49Z</time>
      </trkpt>
      <trkpt lat="47.15469" lon="2.92358">
        <ele>172</ele>
        <time>2022-02-15T03:41:51Z</time>
      </trkpt>
      <trkpt lat="47.15475" lon="2.92328">
        <ele>173</ele>
        <time>2022-02-15T03:41:55Z</time>
      </trkpt>
      <trkpt lat="47.15475" lon="2.9231">
        <ele>173</ele>
        <time>2022-02-15T03:41:57Z</time>
      </trkpt>
      <trkpt lat="47.15454" lon="2.92203">
        <ele>171</ele>
        <time>2022-02-15T03:42:10Z</time>
      </trkpt>
      <trkpt lat="47.15456" lon="2.9217">
        <ele>170</ele>
        <time>2022-02-15T03:42:14Z</time>
      </trkpt>
      <trkpt lat="47.15461" lon="2.92149">
        <ele>170</ele>
        <time>2022-02-15T03:42:17Z</time>
      </trkpt>
      <trkpt lat="47.15468" lon="2.92134">
        <ele>169</ele>
        <time>2022-02-15T03:42:19Z</time>
      </trkpt>
      <trkpt lat="47.15476" lon="2.92123">
        <ele>169</ele>
        <time>2022-02-15T03:42:21Z</time>
      </trkpt>
      <trkpt lat="47.15486" lon="2.92114">
        <ele>168</ele>
        <time>2022-02-15T03:42:23Z</time>
      </trkpt>
      <trkpt lat="47.15498" lon="2.92113">
        <ele>168</ele>
        <time>2022-02-15T03:42:25Z</time>
      </trkpt>
      <trkpt lat="47.15526" lon="2.92119">
        <ele>168</ele>
        <time>2022-02-15T03:42:30Z</time>
      </trkpt>
      <trkpt lat="47.15534" lon="2.92119">
        <ele>167</ele>
        <time>2022-02-15T03:42:32Z</time>
      </trkpt>
      <trkpt lat="47.15535" lon="2.92105">
        <ele>166</ele>
        <time>2022-02-15T03:42:33Z</time>
      </trkpt>
      <trkpt lat="47.15539" lon="2.92093">
        <ele>166</ele>
        <time>2022-02-15T03:42:35Z</time>
      </trkpt>
      <trkpt lat="47.15545" lon="2.92079">
        <ele>165</ele>
        <time>2022-02-15T03:42:37Z</time>
      </trkpt>
      <trkpt lat="47.15573" lon="2.92014">
        <ele>166</ele>
        <time>2022-02-15T03:42:46Z</time>
      </trkpt>
      <trkpt lat="47.15583" lon="2.91991">
        <ele>166</ele>
        <time>2022-02-15T03:42:50Z</time>
      </trkpt>
      <trkpt lat="47.15587" lon="2.91972">
        <ele>166</ele>
        <time>2022-02-15T03:42:52Z</time>
      </trkpt>
      <trkpt lat="47.15586" lon="2.91957">
        <ele>166</ele>
        <time>2022-02-15T03:42:54Z</time>
      </trkpt>
      <trkpt lat="47.15571" lon="2.91886">
        <ele>167</ele>
        <time>2022-02-15T03:43:03Z</time>
      </trkpt>
      <trkpt lat="47.15597" lon="2.91871">
        <ele>166</ele>
        <time>2022-02-15T03:43:08Z</time>
      </trkpt>
      <trkpt lat="47.15619" lon="2.91861">
        <ele>166</ele>
        <time>2022-02-15T03:43:12Z</time>
      </trkpt>
      <trkpt lat="47.15623" lon="2.91857">
        <ele>166</ele>
        <time>2022-02-15T03:43:13Z</time>
      </trkpt>
      <trkpt lat="47.15642" lon="2.9182">
        <ele>166</ele>
        <time>2022-02-15T03:43:18Z</time>
      </trkpt>
      <trkpt lat="47.15712" lon="2.91697">
        <ele>167</ele>
        <time>2022-02-15T03:43:38Z</time>
      </trkpt>
      <trkpt lat="47.15742" lon="2.91656">
        <ele>167</ele>
        <time>2022-02-15T03:43:45Z</time>
      </trkpt>
      <trkpt lat="47.15838" lon="2.9154">
        <ele>168</ele>
        <time>2022-02-15T03:44:07Z</time>
      </trkpt>
      <trkpt lat="47.15906" lon="2.91466">
        <ele>167</ele>
        <time>2022-02-15T03:44:22Z</time>
      </trkpt>
      <trkpt lat="47.15919" lon="2.91454">
        <ele>167</ele>
        <time>2022-02-15T03:44:25Z</time>
      </trkpt>
      <trkpt lat="47.16146" lon="2.91362">
        <ele>164</ele>
        <time>2022-02-15T03:45:07Z</time>
      </trkpt>
      <trkpt lat="47.16177" lon="2.9134">
        <ele>163</ele>
        <time>2022-02-15T03:45:13Z</time>
      </trkpt>
      <trkpt lat="47.16449" lon="2.91098">
        <ele>164</ele>
        <time>2022-02-15T03:46:10Z</time>
      </trkpt>
      <trkpt lat="47.16475" lon="2.9108">
        <ele>165</ele>
        <time>2022-02-15T03:46:15Z</time>
      </trkpt>
      <trkpt lat="47.16506" lon="2.91072">
        <ele>165</ele>
        <time>2022-02-15T03:46:20Z</time>
      </trkpt>
      <trkpt lat="47.1666" lon="2.91053">
        <ele>168</ele>
        <time>2022-02-15T03:46:48Z</time>
      </trkpt>
      <trkpt lat="47.16757" lon="2.91044">
        <ele>169</ele>
        <time>2022-02-15T03:47:05Z</time>
      </trkpt>
      <trkpt lat="47.16794" lon="2.91021">
        <ele>169</ele>
        <time>2022-02-15T03:47:12Z</time>
      </trkpt>
      <trkpt lat="47.16823" lon="2.90967">
        <ele>169</ele>
        <time>2022-02-15T03:47:21Z</time>
      </trkpt>
      <trkpt lat="47.16975" lon="2.9057">
        <ele>167</ele>
        <time>2022-02-15T03:48:16Z</time>
      </trkpt>
      <trkpt lat="47.16994" lon="2.90507">
        <ele>164</ele>
        <time>2022-02-15T03:48:24Z</time>
      </trkpt>
      <trkpt lat="47.17004" lon="2.90444">
        <ele>162</ele>
        <time>2022-02-15T03:48:32Z</time>
      </trkpt>
      <trkpt lat="47.17025" lon="2.90369">
        <ele>161</ele>
        <time>2022-02-15T03:48:42Z</time>
      </trkpt>
      <trkpt lat="47.1705" lon="2.90293">
        <ele>163</ele>
        <time>2022-02-15T03:48:52Z</time>
      </trkpt>
      <trkpt lat="47.1708" lon="2.9023">
        <ele>163</ele>
        <time>2022-02-15T03:49:01Z</time>
      </trkpt>
      <trkpt lat="47.171" lon="2.902">
        <ele>163</ele>
        <time>2022-02-15T03:49:06Z</time>
      </trkpt>
      <trkpt lat="47.1727" lon="2.89997">
        <ele>164</ele>
        <time>2022-02-15T03:49:45Z</time>
      </trkpt>
      <trkpt lat="47.17316" lon="2.89944">
        <ele>166</ele>
        <time>2022-02-15T03:49:56Z</time>
      </trkpt>
      <trkpt lat="47.17332" lon="2.8995">
        <ele>167</ele>
        <time>2022-02-15T03:49:59Z</time>
      </trkpt>
      <trkpt lat="47.17379" lon="2.89961">
        <ele>167</ele>
        <time>2022-02-15T03:50:07Z</time>
      </trkpt>
      <trkpt lat="47.17474" lon="2.89976">
        <ele>167</ele>
        <time>2022-02-15T03:50:24Z</time>
      </trkpt>
      <trkpt lat="47.17526" lon="2.89978">
        <ele>167</ele>
        <time>2022-02-15T03:50:33Z</time>
      </trkpt>
      <trkpt lat="47.17653" lon="2.90047">
        <ele>167</ele>
        <time>2022-02-15T03:50:57Z</time>
      </trkpt>
      <trkpt lat="47.17738" lon="2.90099">
        <ele>165</ele>
        <time>2022-02-15T03:51:14Z</time>
      </trkpt>
      <trkpt lat="47.17802" lon="2.90129">
        <ele>167</ele>
        <time>2022-02-15T03:51:26Z</time>
      </trkpt>
      <trkpt lat="47.17955" lon="2.90169">
        <ele>170</ele>
        <time>2022-02-15T03:51:53Z</time>
      </trkpt>
      <trkpt lat="47.17989" lon="2.90165">
        <ele>171</ele>
        <time>2022-02-15T03:51:59Z</time>
      </trkpt>
      <trkpt lat="47.18037" lon="2.90152">
        <ele>172</ele>
        <time>2022-02-15T03:52:08Z</time>
      </trkpt>
      <trkpt lat="47.1819" lon="2.90079">
        <ele>169</ele>
        <time>2022-02-15T03:52:37Z</time>
      </trkpt>
      <trkpt lat="47.18235" lon="2.90064">
        <ele>169</ele>
        <time>2022-02-15T03:52:45Z</time>
      </trkpt>
      <trkpt lat="47.1832" lon="2.90045">
        <ele>169</ele>
        <time>2022-02-15T03:53:00Z</time>
      </trkpt>
      <trkpt lat="47.18365" lon="2.90028">
        <ele>169</ele>
        <time>2022-02-15T03:53:08Z</time>
      </trkpt>
      <trkpt lat="47.18431" lon="2.9">
        <ele>168</ele>
        <time>2022-02-15T03:53:21Z</time>
      </trkpt>
      <trkpt lat="47.18492" lon="2.8997">
        <ele>166</ele>
        <time>2022-02-15T03:53:32Z</time>
      </trkpt>
      <trkpt lat="47.18588" lon="2.89912">
        <ele>166</ele>
        <time>2022-02-15T03:53:51Z</time>
      </trkpt>
      <trkpt lat="47.18683" lon="2.89882">
        <ele>166</ele>
        <time>2022-02-15T03:54:08Z</time>
      </trkpt>
      <trkpt lat="47.18718" lon="2.89863">
        <ele>167</ele>
        <time>2022-02-15T03:54:15Z</time>
      </trkpt>
      <trkpt lat="47.1875" lon="2.89826">
        <ele>167</ele>
        <time>2022-02-15T03:54:22Z</time>
      </trkpt>
      <trkpt lat="47.18786" lon="2.89772">
        <ele>165</ele>
        <time>2022-02-15T03:54:31Z</time>
      </trkpt>
      <trkpt lat="47.18937" lon="2.89536">
        <ele>173</ele>
        <time>2022-02-15T03:55:10Z</time>
      </trkpt>
      <trkpt lat="47.18977" lon="2.89463">
        <ele>175</ele>
        <time>2022-02-15T03:55:21Z</time>
      </trkpt>
      <trkpt lat="47.1904" lon="2.89328">
        <ele>174</ele>
        <time>2022-02-15T03:55:41Z</time>
      </trkpt>
      <trkpt lat="47.19091" lon="2.89227">
        <ele>173</ele>
        <time>2022-02-15T03:55:56Z</time>
      </trkpt>
      <trkpt lat="47.19128" lon="2.89163">
        <ele>172</ele>
        <time>2022-02-15T03:56:07Z</time>
      </trkpt>
      <trkpt lat="47.19157" lon="2.89118">
        <ele>170</ele>
        <time>2022-02-15T03:56:14Z</time>
      </trkpt>
      <trkpt lat="47.19286" lon="2.88955">
        <ele>175</ele>
        <time>2022-02-15T03:56:44Z</time>
      </trkpt>
      <trkpt lat="47.19581" lon="2.88599">
        <ele>183</ele>
        <time>2022-02-15T03:57:52Z</time>
      </trkpt>
      <trkpt lat="47.19758" lon="2.88373">
        <ele>174</ele>
        <time>2022-02-15T03:58:34Z</time>
      </trkpt>
      <trkpt lat="47.2001" lon="2.88062">
        <ele>167</ele>
        <time>2022-02-15T03:59:32Z</time>
      </trkpt>
      <trkpt lat="47.20039" lon="2.88034">
        <ele>166</ele>
        <time>2022-02-15T03:59:39Z</time>
      </trkpt>
      <trkpt lat="47.20072" lon="2.88019">
        <ele>166</ele>
        <time>2022-02-15T03:59:45Z</time>
      </trkpt>
      <trkpt lat="47.20122" lon="2.88013">
        <ele>165</ele>
        <time>2022-02-15T03:59:54Z</time>
      </trkpt>
      <trkpt lat="47.20167" lon="2.88013">
        <ele>165</ele>
        <time>2022-02-15T04:00:02Z</time>
      </trkpt>
      <trkpt lat="47.20347" lon="2.88021">
        <ele>163</ele>
        <time>2022-02-15T04:00:34Z</time>
      </trkpt>
      <trkpt lat="47.20584" lon="2.88028">
        <ele>159</ele>
        <time>2022-02-15T04:01:16Z</time>
      </trkpt>
      <trkpt lat="47.20616" lon="2.88012">
        <ele>159</ele>
        <time>2022-02-15T04:01:22Z</time>
      </trkpt>
      <trkpt lat="47.20738" lon="2.87921">
        <ele>157</ele>
        <time>2022-02-15T04:01:46Z</time>
      </trkpt>
      <trkpt lat="47.20747" lon="2.87914">
        <ele>157</ele>
        <time>2022-02-15T04:01:48Z</time>
      </trkpt>
      <trkpt lat="47.20895" lon="2.87782">
        <ele>159</ele>
        <time>2022-02-15T04:02:19Z</time>
      </trkpt>
      <trkpt lat="47.20903" lon="2.87775">
        <ele>159</ele>
        <time>2022-02-15T04:02:21Z</time>
      </trkpt>
      <trkpt lat="47.21306" lon="2.87414">
        <ele>174</ele>
        <time>2022-02-15T04:03:44Z</time>
      </trkpt>
      <trkpt lat="47.21784" lon="2.86972">
        <ele>184</ele>
        <time>2022-02-15T04:05:25Z</time>
      </trkpt>
      <trkpt lat="47.21909" lon="2.86859">
        <ele>176</ele>
        <time>2022-02-15T04:05:51Z</time>
      </trkpt>
      <trkpt lat="47.21948" lon="2.86835">
        <ele>175</ele>
        <time>2022-02-15T04:05:59Z</time>
      </trkpt>
      <trkpt lat="47.21979" lon="2.86807">
        <ele>173</ele>
        <time>2022-02-15T04:06:05Z</time>
      </trkpt>
      <trkpt lat="47.22062" lon="2.86713">
        <ele>171</ele>
        <time>2022-02-15T04:06:24Z</time>
      </trkpt>
      <trkpt lat="47.22174" lon="2.86577">
        <ele>175</ele>
        <time>2022-02-15T04:06:49Z</time>
      </trkpt>
      <trkpt lat="47.22241" lon="2.865">
        <ele>177</ele>
        <time>2022-02-15T04:07:05Z</time>
      </trkpt>
      <trkpt lat="47.22278" lon="2.8647">
        <ele>175</ele>
        <time>2022-02-15T04:07:12Z</time>
      </trkpt>
      <trkpt lat="47.22323" lon="2.86425">
        <ele>170</ele>
        <time>2022-02-15T04:07:22Z</time>
      </trkpt>
      <trkpt lat="47.22467" lon="2.86311">
        <ele>164</ele>
        <time>2022-02-15T04:07:51Z</time>
      </trkpt>
      <trkpt lat="47.22518" lon="2.86281">
        <ele>162</ele>
        <time>2022-02-15T04:08:01Z</time>
      </trkpt>
      <trkpt lat="47.22648" lon="2.86213">
        <ele>162</ele>
        <time>2022-02-15T04:08:25Z</time>
      </trkpt>
      <trkpt lat="47.22695" lon="2.86178">
        <ele>162</ele>
        <time>2022-02-15T04:08:35Z</time>
      </trkpt>
      <trkpt lat="47.22807" lon="2.86092">
        <ele>163</ele>
        <time>2022-02-15T04:08:57Z</time>
      </trkpt>
      <trkpt lat="47.22898" lon="2.86026">
        <ele>165</ele>
        <time>2022-02-15T04:09:15Z</time>
      </trkpt>
      <trkpt lat="47.23015" lon="2.85922">
        <ele>172</ele>
        <time>2022-02-15T04:09:39Z</time>
      </trkpt>
      <trkpt lat="47.23044" lon="2.85894">
        <ele>173</ele>
        <time>2022-02-15T04:09:46Z</time>
      </trkpt>
      <trkpt lat="47.23039" lon="2.85839">
        <ele>172</ele>
        <time>2022-02-15T04:09:52Z</time>
      </trkpt>
      <trkpt lat="47.23037" lon="2.85763">
        <ele>172</ele>
        <time>2022-02-15T04:10:01Z</time>
      </trkpt>
      <trkpt lat="47.23111" lon="2.85744">
        <ele>171</ele>
        <time>2022-02-15T04:10:15Z</time>
      </trkpt>
      <trkpt lat="47.23185" lon="2.85715">
        <ele>168</ele>
        <time>2022-02-15T04:10:28Z</time>
      </trkpt>
      <trkpt lat="47.23285" lon="2.85683">
        <ele>165</ele>
        <time>2022-02-15T04:10:47Z</time>
      </trkpt>
      <trkpt lat="47.23419" lon="2.85632">
        <ele>163</ele>
        <time>2022-02-15T04:11:11Z</time>
      </trkpt>
      <trkpt lat="47.23424" lon="2.8563">
        <ele>163</ele>
        <time>2022-02-15T04:11:12Z</time>
      </trkpt>
      <trkpt lat="47.23473" lon="2.85612">
        <ele>163</ele>
        <time>2022-02-15T04:11:21Z</time>
      </trkpt>
      <trkpt lat="47.23539" lon="2.85591">
        <ele>162</ele>
        <time>2022-02-15T04:11:33Z</time>
      </trkpt>
      <trkpt lat="47.23589" lon="2.85571">
        <ele>161</ele>
        <time>2022-02-15T04:11:42Z</time>
      </trkpt>
      <trkpt lat="47.23687" lon="2.85515">
        <ele>162</ele>
        <time>2022-02-15T04:12:01Z</time>
      </trkpt>
      <trkpt lat="47.23767" lon="2.85467">
        <ele>165</ele>
        <time>2022-02-15T04:12:16Z</time>
      </trkpt>
      <trkpt lat="47.23819" lon="2.85432">
        <ele>166</ele>
        <time>2022-02-15T04:12:27Z</time>
      </trkpt>
      <trkpt lat="47.23835" lon="2.85424">
        <ele>166</ele>
        <time>2022-02-15T04:12:30Z</time>
      </trkpt>
      <trkpt lat="47.23991" lon="2.85379">
        <ele>170</ele>
        <time>2022-02-15T04:12:58Z</time>
      </trkpt>
      <trkpt lat="47.24058" lon="2.85352">
        <ele>172</ele>
        <time>2022-02-15T04:13:10Z</time>
      </trkpt>
      <trkpt lat="47.24176" lon="2.85291">
        <ele>174</ele>
        <time>2022-02-15T04:13:33Z</time>
      </trkpt>
      <trkpt lat="47.24189" lon="2.85281">
        <ele>173</ele>
        <time>2022-02-15T04:13:35Z</time>
      </trkpt>
      <trkpt lat="47.24208" lon="2.8526">
        <ele>171</ele>
        <time>2022-02-15T04:13:39Z</time>
      </trkpt>
      <trkpt lat="47.24285" lon="2.85165">
        <ele>169</ele>
        <time>2022-02-15T04:13:57Z</time>
      </trkpt>
      <trkpt lat="47.24382" lon="2.85035">
        <ele>175</ele>
        <time>2022-02-15T04:14:21Z</time>
      </trkpt>
      <trkpt lat="47.24644" lon="2.847">
        <ele>183</ele>
        <time>2022-02-15T04:15:22Z</time>
      </trkpt>
      <trkpt lat="47.24966" lon="2.84305">
        <ele>188</ele>
        <time>2022-02-15T04:16:37Z</time>
      </trkpt>
      <trkpt lat="47.25014" lon="2.84266">
        <ele>187</ele>
        <time>2022-02-15T04:16:47Z</time>
      </trkpt>
      <trkpt lat="47.25046" lon="2.84219">
        <ele>186</ele>
        <time>2022-02-15T04:16:55Z</time>
      </trkpt>
      <trkpt lat="47.25074" lon="2.84183">
        <ele>185</ele>
        <time>2022-02-15T04:17:01Z</time>
      </trkpt>
      <trkpt lat="47.25113" lon="2.84142">
        <ele>186</ele>
        <time>2022-02-15T04:17:10Z</time>
      </trkpt>
      <trkpt lat="47.25164" lon="2.84095">
        <ele>188</ele>
        <time>2022-02-15T04:17:21Z</time>
      </trkpt>
      <trkpt lat="47.2519" lon="2.84063">
        <ele>189</ele>
        <time>2022-02-15T04:17:27Z</time>
      </trkpt>
      <trkpt lat="47.25216" lon="2.84018">
        <ele>191</ele>
        <time>2022-02-15T04:17:34Z</time>
      </trkpt>
      <trkpt lat="47.25315" lon="2.83869">
        <ele>199</ele>
        <time>2022-02-15T04:17:59Z</time>
      </trkpt>
      <trkpt lat="47.25486" lon="2.83627">
        <ele>205</ele>
        <time>2022-02-15T04:18:41Z</time>
      </trkpt>
      <trkpt lat="47.258" lon="2.83187">
        <ele>217</ele>
        <time>2022-02-15T04:19:58Z</time>
      </trkpt>
      <trkpt lat="47.25944" lon="2.8297">
        <ele>221</ele>
        <time>2022-02-15T04:20:35Z</time>
      </trkpt>
      <trkpt lat="47.25967" lon="2.82927">
        <ele>221</ele>
        <time>2022-02-15T04:20:41Z</time>
      </trkpt>
      <trkpt lat="47.26041" lon="2.82912">
        <ele>220</ele>
        <time>2022-02-15T04:20:55Z</time>
      </trkpt>
      <trkpt lat="47.26151" lon="2.82938">
        <ele>215</ele>
        <time>2022-02-15T04:21:15Z</time>
      </trkpt>
      <trkpt lat="47.26185" lon="2.82949">
        <ele>214</ele>
        <time>2022-02-15T04:21:21Z</time>
      </trkpt>
      <trkpt lat="47.26243" lon="2.82958">
        <ele>212</ele>
        <time>2022-02-15T04:21:31Z</time>
      </trkpt>
      <trkpt lat="47.26437" lon="2.82975">
        <ele>201</ele>
        <time>2022-02-15T04:22:06Z</time>
      </trkpt>
      <trkpt lat="47.2659" lon="2.82994">
        <ele>199</ele>
        <time>2022-02-15T04:22:33Z</time>
      </trkpt>
      <trkpt lat="47.26669" lon="2.83">
        <ele>199</ele>
        <time>2022-02-15T04:22:47Z</time>
      </trkpt>
      <trkpt lat="47.26717" lon="2.82996">
        <ele>197</ele>
        <time>2022-02-15T04:22:56Z</time>
      </trkpt>
      <trkpt lat="47.26796" lon="2.8298">
        <ele>195</ele>
        <time>2022-02-15T04:23:10Z</time>
      </trkpt>
      <trkpt lat="47.26849" lon="2.82966">
        <ele>193</ele>
        <time>2022-02-15T04:23:19Z</time>
      </trkpt>
      <trkpt lat="47.26906" lon="2.82947">
        <ele>190</ele>
        <time>2022-02-15T04:23:30Z</time>
      </trkpt>
      <trkpt lat="47.26931" lon="2.82942">
        <ele>190</ele>
        <time>2022-02-15T04:23:34Z</time>
      </trkpt>
      <trkpt lat="47.2696" lon="2.8296">
        <ele>190</ele>
        <time>2022-02-15T04:23:40Z</time>
      </trkpt>
      <trkpt lat="47.26999" lon="2.82992">
        <ele>191</ele>
        <time>2022-02-15T04:23:48Z</time>
      </trkpt>
      <trkpt lat="47.2703" lon="2.83">
        <ele>190</ele>
        <time>2022-02-15T04:23:53Z</time>
      </trkpt>
      <trkpt lat="47.27204" lon="2.8297">
        <ele>183</ele>
        <time>2022-02-15T04:24:25Z</time>
      </trkpt>
      <trkpt lat="47.2743" lon="2.82927">
        <ele>185</ele>
        <time>2022-02-15T04:25:05Z</time>
      </trkpt>
      <trkpt lat="47.27507" lon="2.82917">
        <ele>182</ele>
        <time>2022-02-15T04:25:19Z</time>
      </trkpt>
      <trkpt lat="47.27609" lon="2.82912">
        <ele>179</ele>
        <time>2022-02-15T04:25:37Z</time>
      </trkpt>
      <trkpt lat="47.27735" lon="2.82927">
        <ele>179</ele>
        <time>2022-02-15T04:26:00Z</time>
      </trkpt>
      <trkpt lat="47.27869" lon="2.82958">
        <ele>175</ele>
        <time>2022-02-15T04:26:24Z</time>
      </trkpt>
      <trkpt lat="47.27903" lon="2.82955">
        <ele>172</ele>
        <time>2022-02-15T04:26:30Z</time>
      </trkpt>
      <trkpt lat="47.2804" lon="2.82928">
        <ele>169</ele>
        <time>2022-02-15T04:26:54Z</time>
      </trkpt>
      <trkpt lat="47.28058" lon="2.82921">
        <ele>169</ele>
        <time>2022-02-15T04:26:58Z</time>
      </trkpt>
      <trkpt lat="47.28072" lon="2.82911">
        <ele>169</ele>
        <time>2022-02-15T04:27:00Z</time>
      </trkpt>
      <trkpt lat="47.28084" lon="2.82899">
        <ele>169</ele>
        <time>2022-02-15T04:27:03Z</time>
      </trkpt>
      <trkpt lat="47.28097" lon="2.8288">
        <ele>169</ele>
        <time>2022-02-15T04:27:06Z</time>
      </trkpt>
      <trkpt lat="47.28281" lon="2.82517">
        <ele>170</ele>
        <time>2022-02-15T04:28:01Z</time>
      </trkpt>
      <trkpt lat="47.28318" lon="2.82449">
        <ele>174</ele>
        <time>2022-02-15T04:28:11Z</time>
      </trkpt>
      <trkpt lat="47.28345" lon="2.82415">
        <ele>175</ele>
        <time>2022-02-15T04:28:18Z</time>
      </trkpt>
      <trkpt lat="47.28384" lon="2.82376">
        <ele>175</ele>
        <time>2022-02-15T04:28:26Z</time>
      </trkpt>
      <trkpt lat="47.28437" lon="2.82346">
        <ele>175</ele>
        <time>2022-02-15T04:28:36Z</time>
      </trkpt>
      <trkpt lat="47.28507" lon="2.82316">
        <ele>177</ele>
        <time>2022-02-15T04:28:49Z</time>
      </trkpt>
      <trkpt lat="47.28547" lon="2.82295">
        <ele>180</ele>
        <time>2022-02-15T04:28:57Z</time>
      </trkpt>
      <trkpt lat="47.28555" lon="2.82288">
        <ele>180</ele>
        <time>2022-02-15T04:28:58Z</time>
      </trkpt>
      <trkpt lat="47.28621" lon="2.82257">
        <ele>182</ele>
        <time>2022-02-15T04:29:11Z</time>
      </trkpt>
      <trkpt lat="47.28667" lon="2.82228">
        <ele>184</ele>
        <time>2022-02-15T04:29:20Z</time>
      </trkpt>
      <trkpt lat="47.28843" lon="2.82093">
        <ele>187</ele>
        <time>2022-02-15T04:29:55Z</time>
      </trkpt>
      <trkpt lat="47.28888" lon="2.82067">
        <ele>186</ele>
        <time>2022-02-15T04:30:04Z</time>
      </trkpt>
      <trkpt lat="47.29082" lon="2.82013">
        <ele>188</ele>
        <time>2022-02-15T04:30:39Z</time>
      </trkpt>
      <trkpt lat="47.2923" lon="2.82018">
        <ele>187</ele>
        <time>2022-02-15T04:31:05Z</time>
      </trkpt>
      <trkpt lat="47.29339" lon="2.82013">
        <ele>192</ele>
        <time>2022-02-15T04:31:24Z</time>
      </trkpt>
      <trkpt lat="47.2955" lon="2.82028">
        <ele>198</ele>
        <time>2022-02-15T04:32:02Z</time>
      </trkpt>
      <trkpt lat="47.29661" lon="2.82054">
        <ele>205</ele>
        <time>2022-02-15T04:32:22Z</time>
      </trkpt>
      <trkpt lat="47.29993" lon="2.82138">
        <ele>206</ele>
        <time>2022-02-15T04:33:22Z</time>
      </trkpt>
      <trkpt lat="47.30087" lon="2.82183">
        <ele>209</ele>
        <time>2022-02-15T04:33:40Z</time>
      </trkpt>
      <trkpt lat="47.30172" lon="2.82234">
        <ele>209</ele>
        <time>2022-02-15T04:33:56Z</time>
      </trkpt>
      <trkpt lat="47.30247" lon="2.82269">
        <ele>209</ele>
        <time>2022-02-15T04:34:10Z</time>
      </trkpt>
      <trkpt lat="47.30603" lon="2.82421">
        <ele>215</ele>
        <time>2022-02-15T04:35:16Z</time>
      </trkpt>
      <trkpt lat="47.30816" lon="2.82546">
        <ele>218</ele>
        <time>2022-02-15T04:35:57Z</time>
      </trkpt>
      <trkpt lat="47.30917" lon="2.82627">
        <ele>222</ele>
        <time>2022-02-15T04:36:17Z</time>
      </trkpt>
      <trkpt lat="47.30992" lon="2.82685">
        <ele>227</ele>
        <time>2022-02-15T04:36:32Z</time>
      </trkpt>
      <trkpt lat="47.31051" lon="2.82743">
        <ele>229</ele>
        <time>2022-02-15T04:36:45Z</time>
      </trkpt>
      <trkpt lat="47.31081" lon="2.82762">
        <ele>230</ele>
        <time>2022-02-15T04:36:51Z</time>
      </trkpt>
      <trkpt lat="47.31129" lon="2.82762">
        <ele>227</ele>
        <time>2022-02-15T04:36:59Z</time>
      </trkpt>
      <trkpt lat="47.31174" lon="2.82764">
        <ele>224</ele>
        <time>2022-02-15T04:37:07Z</time>
      </trkpt>
      <trkpt lat="47.31249" lon="2.82786">
        <ele>221</ele>
        <time>2022-02-15T04:37:21Z</time>
      </trkpt>
      <trkpt lat="47.3131" lon="2.82814">
        <ele>223</ele>
        <time>2022-02-15T04:37:32Z</time>
      </trkpt>
      <trkpt lat="47.31401" lon="2.82842">
        <ele>231</ele>
        <time>2022-02-15T04:37:49Z</time>
      </trkpt>
      <trkpt lat="47.31454" lon="2.82867">
        <ele>237</ele>
        <time>2022-02-15T04:37:59Z</time>
      </trkpt>
      <trkpt lat="47.31484" lon="2.82902">
        <ele>240</ele>
        <time>2022-02-15T04:38:05Z</time>
      </trkpt>
      <trkpt lat="47.31526" lon="2.82938">
        <ele>244</ele>
        <time>2022-02-15T04:38:14Z</time>
      </trkpt>
      <trkpt lat="47.31576" lon="2.82977">
        <ele>250</ele>
        <time>2022-02-15T04:38:24Z</time>
      </trkpt>
      <trkpt lat="47.31617" lon="2.82994">
        <ele>254</ele>
        <time>2022-02-15T04:38:32Z</time>
      </trkpt>
      <trkpt lat="47.31659" lon="2.83007">
        <ele>259</ele>
        <time>2022-02-15T04:38:39Z</time>
      </trkpt>
      <trkpt lat="47.31686" lon="2.83013">
        <ele>260</ele>
        <time>2022-02-15T04:38:44Z</time>
      </trkpt>
      <trkpt lat="47.31717" lon="2.83016">
        <ele>261</ele>
        <time>2022-02-15T04:38:50Z</time>
      </trkpt>
      <trkpt lat="47.31788" lon="2.83017">
        <ele>260</ele>
        <time>2022-02-15T04:39:02Z</time>
      </trkpt>
      <trkpt lat="47.31833" lon="2.83028">
        <ele>258</ele>
        <time>2022-02-15T04:39:10Z</time>
      </trkpt>
      <trkpt lat="47.3187" lon="2.83078">
        <ele>253</ele>
        <time>2022-02-15T04:39:19Z</time>
      </trkpt>
      <trkpt lat="47.31903" lon="2.83108">
        <ele>250</ele>
        <time>2022-02-15T04:39:26Z</time>
      </trkpt>
      <trkpt lat="47.32059" lon="2.83187">
        <ele>236</ele>
        <time>2022-02-15T04:39:56Z</time>
      </trkpt>
      <trkpt lat="47.32116" lon="2.83234">
        <ele>234</ele>
        <time>2022-02-15T04:40:07Z</time>
      </trkpt>
      <trkpt lat="47.32171" lon="2.8326">
        <ele>230</ele>
        <time>2022-02-15T04:40:17Z</time>
      </trkpt>
      <trkpt lat="47.32217" lon="2.83286">
        <ele>228</ele>
        <time>2022-02-15T04:40:26Z</time>
      </trkpt>
      <trkpt lat="47.32289" lon="2.83314">
        <ele>223</ele>
        <time>2022-02-15T04:40:39Z</time>
      </trkpt>
      <trkpt lat="47.32331" lon="2.83324">
        <ele>219</ele>
        <time>2022-02-15T04:40:47Z</time>
      </trkpt>
      <trkpt lat="47.32377" lon="2.83361">
        <ele>215</ele>
        <time>2022-02-15T04:40:56Z</time>
      </trkpt>
      <trkpt lat="47.32406" lon="2.8338">
        <ele>212</ele>
        <time>2022-02-15T04:41:02Z</time>
      </trkpt>
      <trkpt lat="47.32434" lon="2.8341">
        <ele>211</ele>
        <time>2022-02-15T04:41:08Z</time>
      </trkpt>
      <trkpt lat="47.32513" lon="2.83449">
        <ele>210</ele>
        <time>2022-02-15T04:41:23Z</time>
      </trkpt>
      <trkpt lat="47.32564" lon="2.83471">
        <ele>216</ele>
        <time>2022-02-15T04:41:32Z</time>
      </trkpt>
      <trkpt lat="47.32566" lon="2.8348">
        <ele>217</ele>
        <time>2022-02-15T04:41:34Z</time>
      </trkpt>
      <trkpt lat="47.32573" lon="2.83504">
        <ele>219</ele>
        <time>2022-02-15T04:41:37Z</time>
      </trkpt>
      <trkpt lat="47.32588" lon="2.8353">
        <ele>222</ele>
        <time>2022-02-15T04:41:41Z</time>
      </trkpt>
      <trkpt lat="47.32599" lon="2.83553">
        <ele>224</ele>
        <time>2022-02-15T04:41:44Z</time>
      </trkpt>
      <trkpt lat="47.32616" lon="2.83597">
        <ele>228</ele>
        <time>2022-02-15T04:41:50Z</time>
      </trkpt>
      <trkpt lat="47.32641" lon="2.83646">
        <ele>233</ele>
        <time>2022-02-15T04:41:58Z</time>
      </trkpt>
      <trkpt lat="47.32667" lon="2.8368">
        <ele>240</ele>
        <time>2022-02-15T04:42:04Z</time>
      </trkpt>
      <trkpt lat="47.32696" lon="2.83731">
        <ele>248</ele>
        <time>2022-02-15T04:42:12Z</time>
      </trkpt>
      <trkpt lat="47.32702" lon="2.83736">
        <ele>249</ele>
        <time>2022-02-15T04:42:13Z</time>
      </trkpt>
      <trkpt lat="47.32726" lon="2.83732">
        <ele>254</ele>
        <time>2022-02-15T04:42:17Z</time>
      </trkpt>
      <trkpt lat="47.32776" lon="2.83712">
        <ele>261</ele>
        <time>2022-02-15T04:42:27Z</time>
      </trkpt>
      <trkpt lat="47.32789" lon="2.83713">
        <ele>264</ele>
        <time>2022-02-15T04:42:29Z</time>
      </trkpt>
      <trkpt lat="47.32801" lon="2.83722">
        <ele>267</ele>
        <time>2022-02-15T04:42:31Z</time>
      </trkpt>
      <trkpt lat="47.32797" lon="2.83747">
        <ele>269</ele>
        <time>2022-02-15T04:42:35Z</time>
      </trkpt>
      <trkpt lat="47.32796" lon="2.83758">
        <ele>269</ele>
        <time>2022-02-15T04:42:36Z</time>
      </trkpt>
      <trkpt lat="47.32799" lon="2.83767">
        <ele>270</ele>
        <time>2022-02-15T04:42:37Z</time>
      </trkpt>
      <trkpt lat="47.32835" lon="2.83815">
        <ele>277</ele>
        <time>2022-02-15T04:42:46Z</time>
      </trkpt>
      <trkpt lat="47.32897" lon="2.83889">
        <ele>284</ele>
        <time>2022-02-15T04:43:00Z</time>
      </trkpt>
      <trkpt lat="47.32959" lon="2.83926">
        <ele>292</ele>
        <time>2022-02-15T04:43:12Z</time>
      </trkpt>
      <trkpt lat="47.32968" lon="2.83926">
        <ele>293</ele>
        <time>2022-02-15T04:43:13Z</time>
      </trkpt>
      <trkpt lat="47.32995" lon="2.83912">
        <ele>296</ele>
        <time>2022-02-15T04:43:18Z</time>
      </trkpt>
      <trkpt lat="47.33003" lon="2.8391">
        <ele>297</ele>
        <time>2022-02-15T04:43:20Z</time>
      </trkpt>
      <trkpt lat="47.33012" lon="2.83911">
        <ele>298</ele>
        <time>2022-02-15T04:43:22Z</time>
      </trkpt>
      <trkpt lat="47.3303" lon="2.83919">
        <ele>300</ele>
        <time>2022-02-15T04:43:25Z</time>
      </trkpt>
      <trkpt lat="47.33078" lon="2.83929">
        <ele>304</ele>
        <time>2022-02-15T04:43:34Z</time>
      </trkpt>
      <trkpt lat="47.33081" lon="2.83884">
        <ele>302</ele>
        <time>2022-02-15T04:43:39Z</time>
      </trkpt>
      <trkpt lat="47.33089" lon="2.83855">
        <ele>300</ele>
        <time>2022-02-15T04:43:43Z</time>
      </trkpt>
      <trkpt lat="47.33066" lon="2.83847">
        <ele>299</ele>
        <time>2022-02-15T04:43:47Z</time>
      </trkpt>
      <trkpt lat="47.33061" lon="2.83836">
        <ele>298</ele>
        <time>2022-02-15T04:43:49Z</time>
      </trkpt>
      <trkpt lat="47.33056" lon="2.83815">
        <ele>296</ele>
        <time>2022-02-15T04:43:51Z</time>
      </trkpt>
      <trkpt lat="47.33043" lon="2.83817">
        <ele>295</ele>
        <time>2022-02-15T04:43:54Z</time>
      </trkpt>
      <trkpt lat="47.33033" lon="2.83813">
        <ele>294</ele>
        <time>2022-02-15T04:43:55Z</time>
      </trkpt>
      <trkpt lat="47.33051" lon="2.83705">
        <ele>284</ele>
        <time>2022-02-15T04:44:09Z</time>
      </trkpt>
      <trkpt lat="47.3306" lon="2.83648">
        <ele>278</ele>
        <time>2022-02-15T04:44:16Z</time>
      </trkpt>
      <trkpt lat="47.33043" lon="2.83629">
        <ele>276</ele>
        <time>2022-02-15T04:44:20Z</time>
      </trkpt>
      <trkpt lat="47.33038" lon="2.83611">
        <ele>274</ele>
        <time>2022-02-15T04:44:22Z</time>
      </trkpt>
      <trkpt lat="47.33026" lon="2.8361">
        <ele>274</ele>
        <time>2022-02-15T04:44:24Z</time>
      </trkpt>
      <trkpt lat="47.33024" lon="2.83598">
        <ele>272</ele>
        <time>2022-02-15T04:44:26Z</time>
      </trkpt>
      <trkpt lat="47.32991" lon="2.83572">
        <ele>269</ele>
        <time>2022-02-15T04:44:32Z</time>
      </trkpt>
      <trkpt lat="47.32984" lon="2.83556">
        <ele>267</ele>
        <time>2022-02-15T04:44:35Z</time>
      </trkpt>
      <trkpt lat="47.32968" lon="2.83438">
        <ele>254</ele>
        <time>2022-02-15T04:44:49Z</time>
      </trkpt>
      <trkpt lat="47.32971" lon="2.83422">
        <ele>252</ele>
        <time>2022-02-15T04:44:51Z</time>
      </trkpt>
      <trkpt lat="47.32925" lon="2.83349">
        <ele>247</ele>
        <time>2022-02-15T04:45:03Z</time>
      </trkpt>
      <trkpt lat="47.32929" lon="2.83341">
        <ele>246</ele>
        <time>2022-02-15T04:45:04Z</time>
      </trkpt>
      <trkpt lat="47.3293" lon="2.83336">
        <ele>245</ele>
        <time>2022-02-15T04:45:05Z</time>
      </trkpt>
      <trkpt lat="47.32943" lon="2.83336">
        <ele>245</ele>
        <time>2022-02-15T04:45:07Z</time>
      </trkpt>
      <trkpt lat="47.32943" lon="2.83329">
        <ele>244</ele>
        <time>2022-02-15T04:45:08Z</time>
      </trkpt>
      <trkpt lat="47.32941" lon="2.83315">
        <ele>243</ele>
        <time>2022-02-15T04:45:10Z</time>
      </trkpt>
      <trkpt lat="47.32923" lon="2.8323">
        <ele>242</ele>
        <time>2022-02-15T04:45:21Z</time>
      </trkpt>
      <trkpt lat="47.32927" lon="2.83168">
        <ele>243</ele>
        <time>2022-02-15T04:45:28Z</time>
      </trkpt>
      <trkpt lat="47.32942" lon="2.83094">
        <ele>241</ele>
        <time>2022-02-15T04:45:37Z</time>
      </trkpt>
      <trkpt lat="47.32947" lon="2.83043">
        <ele>242</ele>
        <time>2022-02-15T04:45:44Z</time>
      </trkpt>
      <trkpt lat="47.32946" lon="2.83014">
        <ele>243</ele>
        <time>2022-02-15T04:45:47Z</time>
      </trkpt>
      <trkpt lat="47.32941" lon="2.82942">
        <ele>245</ele>
        <time>2022-02-15T04:45:56Z</time>
      </trkpt>
      <trkpt lat="47.32937" lon="2.82915">
        <ele>247</ele>
        <time>2022-02-15T04:45:59Z</time>
      </trkpt>
      <trkpt lat="47.32925" lon="2.82869">
        <ele>248</ele>
        <time>2022-02-15T04:46:05Z</time>
      </trkpt>
      <trkpt lat="47.32896" lon="2.82784">
        <ele>250</ele>
        <time>2022-02-15T04:46:17Z</time>
      </trkpt>
      <trkpt lat="47.32826" lon="2.82539">
        <ele>246</ele>
        <time>2022-02-15T04:46:49Z</time>
      </trkpt>
      <trkpt lat="47.32757" lon="2.82241">
        <ele>241</ele>
        <time>2022-02-15T04:47:27Z</time>
      </trkpt>
      <trkpt lat="47.3272" lon="2.82094">
        <ele>239</ele>
        <time>2022-02-15T04:47:46Z</time>
      </trkpt>
      <trkpt lat="47.32706" lon="2.82051">
        <ele>238</ele>
        <time>2022-02-15T04:47:51Z</time>
      </trkpt>
      <trkpt lat="47.32669" lon="2.81962">
        <ele>239</ele>
        <time>2022-02-15T04:48:04Z</time>
      </trkpt>
      <trkpt lat="47.32644" lon="2.81855">
        <ele>235</ele>
        <time>2022-02-15T04:48:18Z</time>
      </trkpt>
      <trkpt lat="47.32637" lon="2.81816">
        <ele>233</ele>
        <time>2022-02-15T04:48:22Z</time>
      </trkpt>
      <trkpt lat="47.32636" lon="2.81804">
        <ele>232</ele>
        <time>2022-02-15T04:48:24Z</time>
      </trkpt>
      <trkpt lat="47.32641" lon="2.8171">
        <ele>225</ele>
        <time>2022-02-15T04:48:35Z</time>
      </trkpt>
      <trkpt lat="47.32641" lon="2.81651">
        <ele>221</ele>
        <time>2022-02-15T04:48:42Z</time>
      </trkpt>
      <trkpt lat="47.3264" lon="2.81632">
        <ele>219</ele>
        <time>2022-02-15T04:48:45Z</time>
      </trkpt>
      <trkpt lat="47.32633" lon="2.81594">
        <ele>216</ele>
        <time>2022-02-15T04:48:49Z</time>
      </trkpt>
      <trkpt lat="47.32623" lon="2.81558">
        <ele>215</ele>
        <time>2022-02-15T04:48:54Z</time>
      </trkpt>
      <trkpt lat="47.32577" lon="2.81461">
        <ele>212</ele>
        <time>2022-02-15T04:49:08Z</time>
      </trkpt>
      <trkpt lat="47.32568" lon="2.81434">
        <ele>211</ele>
        <time>2022-02-15T04:49:12Z</time>
      </trkpt>
      <trkpt lat="47.32566" lon="2.81419">
        <ele>210</ele>
        <time>2022-02-15T04:49:14Z</time>
      </trkpt>
      <trkpt lat="47.32567" lon="2.81385">
        <ele>210</ele>
        <time>2022-02-15T04:49:18Z</time>
      </trkpt>
      <trkpt lat="47.32593" lon="2.8123">
        <ele>218</ele>
        <time>2022-02-15T04:49:37Z</time>
      </trkpt>
      <trkpt lat="47.32596" lon="2.81208">
        <ele>219</ele>
        <time>2022-02-15T04:49:40Z</time>
      </trkpt>
      <trkpt lat="47.32596" lon="2.81173">
        <ele>221</ele>
        <time>2022-02-15T04:49:44Z</time>
      </trkpt>
      <trkpt lat="47.32594" lon="2.81152">
        <ele>222</ele>
        <time>2022-02-15T04:49:47Z</time>
      </trkpt>
      <trkpt lat="47.3259" lon="2.81103">
        <ele>223</ele>
        <time>2022-02-15T04:49:53Z</time>
      </trkpt>
      <trkpt lat="47.32585" lon="2.81075">
        <ele>224</ele>
        <time>2022-02-15T04:49:56Z</time>
      </trkpt>
      <trkpt lat="47.3258" lon="2.8106">
        <ele>224</ele>
        <time>2022-02-15T04:49:58Z</time>
      </trkpt>
      <trkpt lat="47.32547" lon="2.80969">
        <ele>231</ele>
        <time>2022-02-15T04:50:11Z</time>
      </trkpt>
      <trkpt lat="47.32522" lon="2.80894">
        <ele>234</ele>
        <time>2022-02-15T04:50:21Z</time>
      </trkpt>
      <trkpt lat="47.32516" lon="2.80866">
        <ele>234</ele>
        <time>2022-02-15T04:50:24Z</time>
      </trkpt>
      <trkpt lat="47.32515" lon="2.80695">
        <ele>244</ele>
        <time>2022-02-15T04:50:45Z</time>
      </trkpt>
      <trkpt lat="47.32512" lon="2.80663">
        <ele>246</ele>
        <time>2022-02-15T04:50:49Z</time>
      </trkpt>
      <trkpt lat="47.32504" lon="2.80611">
        <ele>249</ele>
        <time>2022-02-15T04:50:55Z</time>
      </trkpt>
      <trkpt lat="47.32502" lon="2.80587">
        <ele>251</ele>
        <time>2022-02-15T04:50:58Z</time>
      </trkpt>
      <trkpt lat="47.32488" lon="2.80348">
        <ele>271</ele>
        <time>2022-02-15T04:51:27Z</time>
      </trkpt>
      <trkpt lat="47.32489" lon="2.80314">
        <ele>274</ele>
        <time>2022-02-15T04:51:31Z</time>
      </trkpt>
      <trkpt lat="47.32485" lon="2.80281">
        <ele>276</ele>
        <time>2022-02-15T04:51:35Z</time>
      </trkpt>
      <trkpt lat="47.32434" lon="2.80065">
        <ele>298</ele>
        <time>2022-02-15T04:52:03Z</time>
      </trkpt>
      <trkpt lat="47.32399" lon="2.79906">
        <ele>309</ele>
        <time>2022-02-15T04:52:23Z</time>
      </trkpt>
      <trkpt lat="47.32389" lon="2.79855">
        <ele>313</ele>
        <time>2022-02-15T04:52:29Z</time>
      </trkpt>
      <trkpt lat="47.32359" lon="2.79557">
        <ele>327</ele>
        <time>2022-02-15T04:53:06Z</time>
      </trkpt>
      <trkpt lat="47.3235" lon="2.7943">
        <ele>332</ele>
        <time>2022-02-15T04:53:21Z</time>
      </trkpt>
      <trkpt lat="47.3235" lon="2.79356">
        <ele>337</ele>
        <time>2022-02-15T04:53:30Z</time>
      </trkpt>
      <trkpt lat="47.32361" lon="2.79279">
        <ele>341</ele>
        <time>2022-02-15T04:53:39Z</time>
      </trkpt>
      <trkpt lat="47.32416" lon="2.79051">
        <ele>358</ele>
        <time>2022-02-15T04:54:09Z</time>
      </trkpt>
      <trkpt lat="47.32431" lon="2.78962">
        <ele>360</ele>
        <time>2022-02-15T04:54:20Z</time>
      </trkpt>
      <trkpt lat="47.32432" lon="2.78949">
        <ele>361</ele>
        <time>2022-02-15T04:54:21Z</time>
      </trkpt>
      <trkpt lat="47.32431" lon="2.78942">
        <ele>361</ele>
        <time>2022-02-15T04:54:22Z</time>
      </trkpt>
      <trkpt lat="47.32418" lon="2.78913">
        <ele>361</ele>
        <time>2022-02-15T04:54:26Z</time>
      </trkpt>
      <trkpt lat="47.32412" lon="2.78884">
        <ele>361</ele>
        <time>2022-02-15T04:54:30Z</time>
      </trkpt>
      <trkpt lat="47.32414" lon="2.7887">
        <ele>361</ele>
        <time>2022-02-15T04:54:32Z</time>
      </trkpt>
      <trkpt lat="47.32421" lon="2.78855">
        <ele>361</ele>
        <time>2022-02-15T04:54:34Z</time>
      </trkpt>
      <trkpt lat="47.32446" lon="2.78813">
        <ele>361</ele>
        <time>2022-02-15T04:54:41Z</time>
      </trkpt>
      <trkpt lat="47.32462" lon="2.78775">
        <ele>361</ele>
        <time>2022-02-15T04:54:46Z</time>
      </trkpt>
      <trkpt lat="47.32477" lon="2.78703">
        <ele>360</ele>
        <time>2022-02-15T04:54:55Z</time>
      </trkpt>
      <trkpt lat="47.32521" lon="2.78437">
        <ele>354</ele>
        <time>2022-02-15T04:55:28Z</time>
      </trkpt>
      <trkpt lat="47.32607" lon="2.77937">
        <ele>354</ele>
        <time>2022-02-15T04:56:30Z</time>
      </trkpt>
      <trkpt lat="47.32612" lon="2.77901">
        <ele>356</ele>
        <time>2022-02-15T04:56:35Z</time>
      </trkpt>
      <trkpt lat="47.32604" lon="2.77852">
        <ele>357</ele>
        <time>2022-02-15T04:56:41Z</time>
      </trkpt>
      <trkpt lat="47.32596" lon="2.77814">
        <ele>359</ele>
        <time>2022-02-15T04:56:46Z</time>
      </trkpt>
      <trkpt lat="47.32586" lon="2.77788">
        <ele>359</ele>
        <time>2022-02-15T04:56:49Z</time>
      </trkpt>
      <trkpt lat="47.32558" lon="2.77744">
        <ele>360</ele>
        <time>2022-02-15T04:56:57Z</time>
      </trkpt>
      <trkpt lat="47.32366" lon="2.77481">
        <ele>354</ele>
        <time>2022-02-15T04:57:43Z</time>
      </trkpt>
      <trkpt lat="47.32285" lon="2.7734">
        <ele>348</ele>
        <time>2022-02-15T04:58:05Z</time>
      </trkpt>
      <trkpt lat="47.32244" lon="2.77294">
        <ele>345</ele>
        <time>2022-02-15T04:58:15Z</time>
      </trkpt>
      <trkpt lat="47.32181" lon="2.77236">
        <ele>342</ele>
        <time>2022-02-15T04:58:28Z</time>
      </trkpt>
      <trkpt lat="47.32145" lon="2.77188">
        <ele>342</ele>
        <time>2022-02-15T04:58:37Z</time>
      </trkpt>
      <trkpt lat="47.32096" lon="2.77139">
        <ele>345</ele>
        <time>2022-02-15T04:58:47Z</time>
      </trkpt>
      <trkpt lat="47.32045" lon="2.77115">
        <ele>346</ele>
        <time>2022-02-15T04:58:57Z</time>
      </trkpt>
      <trkpt lat="47.3197" lon="2.7707">
        <ele>346</ele>
        <time>2022-02-15T04:59:11Z</time>
      </trkpt>
      <trkpt lat="47.31916" lon="2.77018">
        <ele>346</ele>
        <time>2022-02-15T04:59:22Z</time>
      </trkpt>
      <trkpt lat="47.3171" lon="2.76654">
        <ele>350</ele>
        <time>2022-02-15T05:00:20Z</time>
      </trkpt>
      <trkpt lat="47.31681" lon="2.76589">
        <ele>351</ele>
        <time>2022-02-15T05:00:29Z</time>
      </trkpt>
      <trkpt lat="47.31666" lon="2.76509">
        <ele>353</ele>
        <time>2022-02-15T05:00:39Z</time>
      </trkpt>
      <trkpt lat="47.31654" lon="2.76427">
        <ele>356</ele>
        <time>2022-02-15T05:00:49Z</time>
      </trkpt>
      <trkpt lat="47.31653" lon="2.76401">
        <ele>356</ele>
        <time>2022-02-15T05:00:52Z</time>
      </trkpt>
      <trkpt lat="47.31653" lon="2.76375">
        <ele>357</ele>
        <time>2022-02-15T05:00:55Z</time>
      </trkpt>
      <trkpt lat="47.31661" lon="2.76241">
        <ele>358</ele>
        <time>2022-02-15T05:01:12Z</time>
      </trkpt>
      <trkpt lat="47.31642" lon="2.76166">
        <ele>358</ele>
        <time>2022-02-15T05:01:21Z</time>
      </trkpt>
      <trkpt lat="47.31599" lon="2.76019">
        <ele>359</ele>
        <time>2022-02-15T05:01:41Z</time>
      </trkpt>
      <trkpt lat="47.3158" lon="2.75832">
        <ele>356</ele>
        <time>2022-02-15T05:02:03Z</time>
      </trkpt>
      <trkpt lat="47.3158" lon="2.75627">
        <ele>356</ele>
        <time>2022-02-15T05:02:28Z</time>
      </trkpt>
      <trkpt lat="47.31574" lon="2.75575">
        <ele>357</ele>
        <time>2022-02-15T05:02:35Z</time>
      </trkpt>
      <trkpt lat="47.31558" lon="2.75534">
        <ele>357</ele>
        <time>2022-02-15T05:02:40Z</time>
      </trkpt>
      <trkpt lat="47.31538" lon="2.75508">
        <ele>356</ele>
        <time>2022-02-15T05:02:45Z</time>
      </trkpt>
      <trkpt lat="47.31457" lon="2.75429">
        <ele>354</ele>
        <time>2022-02-15T05:03:02Z</time>
      </trkpt>
      <trkpt lat="47.31284" lon="2.75276">
        <ele>355</ele>
        <time>2022-02-15T05:03:38Z</time>
      </trkpt>
      <trkpt lat="47.31239" lon="2.75233">
        <ele>355</ele>
        <time>2022-02-15T05:03:48Z</time>
      </trkpt>
      <trkpt lat="47.31117" lon="2.75122">
        <ele>356</ele>
        <time>2022-02-15T05:04:13Z</time>
      </trkpt>
      <trkpt lat="47.31108" lon="2.75111">
        <ele>356</ele>
        <time>2022-02-15T05:04:15Z</time>
      </trkpt>
      <trkpt lat="47.311" lon="2.75096">
        <ele>355</ele>
        <time>2022-02-15T05:04:18Z</time>
      </trkpt>
      <trkpt lat="47.31047" lon="2.74969">
        <ele>350</ele>
        <time>2022-02-15T05:04:36Z</time>
      </trkpt>
      <trkpt lat="47.31038" lon="2.74941">
        <ele>349</ele>
        <time>2022-02-15T05:04:39Z</time>
      </trkpt>
      <trkpt lat="47.31034" lon="2.74918">
        <ele>347</ele>
        <time>2022-02-15T05:04:42Z</time>
      </trkpt>
      <trkpt lat="47.3103" lon="2.74858">
        <ele>345</ele>
        <time>2022-02-15T05:04:49Z</time>
      </trkpt>
      <trkpt lat="47.31016" lon="2.74783">
        <ele>342</ele>
        <time>2022-02-15T05:04:59Z</time>
      </trkpt>
      <trkpt lat="47.31007" lon="2.74721">
        <ele>339</ele>
        <time>2022-02-15T05:05:06Z</time>
      </trkpt>
      <trkpt lat="47.30999" lon="2.74689">
        <ele>338</ele>
        <time>2022-02-15T05:05:11Z</time>
      </trkpt>
      <trkpt lat="47.30976" lon="2.74615">
        <ele>332</ele>
        <time>2022-02-15T05:05:20Z</time>
      </trkpt>
      <trkpt lat="47.30965" lon="2.74591">
        <ele>330</ele>
        <time>2022-02-15T05:05:24Z</time>
      </trkpt>
      <trkpt lat="47.30953" lon="2.74575">
        <ele>329</ele>
        <time>2022-02-15T05:05:27Z</time>
      </trkpt>
      <trkpt lat="47.30942" lon="2.74571">
        <ele>328</ele>
        <time>2022-02-15T05:05:29Z</time>
      </trkpt>
      <trkpt lat="47.30923" lon="2.74573">
        <ele>327</ele>
        <time>2022-02-15T05:05:32Z</time>
      </trkpt>
      <trkpt lat="47.30872" lon="2.74587">
        <ele>322</ele>
        <time>2022-02-15T05:05:41Z</time>
      </trkpt>
      <trkpt lat="47.30858" lon="2.74587">
        <ele>321</ele>
        <time>2022-02-15T05:05:44Z</time>
      </trkpt>
      <trkpt lat="47.30753" lon="2.74568">
        <ele>312</ele>
        <time>2022-02-15T05:06:03Z</time>
      </trkpt>
      <trkpt lat="47.30636" lon="2.74535">
        <ele>302</ele>
        <time>2022-02-15T05:06:24Z</time>
      </trkpt>
      <trkpt lat="47.30591" lon="2.7452">
        <ele>297</ele>
        <time>2022-02-15T05:06:32Z</time>
      </trkpt>
      <trkpt lat="47.30549" lon="2.74501">
        <ele>292</ele>
        <time>2022-02-15T05:06:40Z</time>
      </trkpt>
      <trkpt lat="47.30513" lon="2.74481">
        <ele>288</ele>
        <time>2022-02-15T05:06:47Z</time>
      </trkpt>
      <trkpt lat="47.30489" lon="2.74464">
        <ele>286</ele>
        <time>2022-02-15T05:06:52Z</time>
      </trkpt>
      <trkpt lat="47.30502" lon="2.74423">
        <ele>287</ele>
        <time>2022-02-15T05:06:57Z</time>
      </trkpt>
      <trkpt lat="47.30509" lon="2.74388">
        <ele>287</ele>
        <time>2022-02-15T05:07:01Z</time>
      </trkpt>
      <trkpt lat="47.30506" lon="2.74365">
        <ele>287</ele>
        <time>2022-02-15T05:07:04Z</time>
      </trkpt>
      <trkpt lat="47.305" lon="2.74351">
        <ele>287</ele>
        <time>2022-02-15T05:07:06Z</time>
      </trkpt>
      <trkpt lat="47.30489" lon="2.74341">
        <ele>287</ele>
        <time>2022-02-15T05:07:09Z</time>
      </trkpt>
      <trkpt lat="47.3043" lon="2.74311">
        <ele>285</ele>
        <time>2022-02-15T05:07:20Z</time>
      </trkpt>
      <trkpt lat="47.30417" lon="2.74299">
        <ele>285</ele>
        <time>2022-02-15T05:07:22Z</time>
      </trkpt>
      <trkpt lat="47.30407" lon="2.74279">
        <ele>286</ele>
        <time>2022-02-15T05:07:25Z</time>
      </trkpt>
      <trkpt lat="47.30397" lon="2.74237">
        <ele>287</ele>
        <time>2022-02-15T05:07:31Z</time>
      </trkpt>
      <trkpt lat="47.30348" lon="2.73961">
        <ele>292</ele>
        <time>2022-02-15T05:08:05Z</time>
      </trkpt>
      <trkpt lat="47.30348" lon="2.73888">
        <ele>293</ele>
        <time>2022-02-15T05:08:14Z</time>
      </trkpt>
      <trkpt lat="47.30349" lon="2.73857">
        <ele>293</ele>
        <time>2022-02-15T05:08:18Z</time>
      </trkpt>
      <trkpt lat="47.30352" lon="2.73832">
        <ele>293</ele>
        <time>2022-02-15T05:08:21Z</time>
      </trkpt>
      <trkpt lat="47.30359" lon="2.738">
        <ele>292</ele>
        <time>2022-02-15T05:08:25Z</time>
      </trkpt>
      <trkpt lat="47.30387" lon="2.7369">
        <ele>288</ele>
        <time>2022-02-15T05:08:39Z</time>
      </trkpt>
      <trkpt lat="47.30402" lon="2.73586">
        <ele>281</ele>
        <time>2022-02-15T05:08:52Z</time>
      </trkpt>
      <trkpt lat="47.30411" lon="2.73506">
        <ele>280</ele>
        <time>2022-02-15T05:09:02Z</time>
      </trkpt>
      <trkpt lat="47.30431" lon="2.73428">
        <ele>280</ele>
        <time>2022-02-15T05:09:12Z</time>
      </trkpt>
      <trkpt lat="47.3049" lon="2.73213">
        <ele>277</ele>
        <time>2022-02-15T05:09:40Z</time>
      </trkpt>
      <trkpt lat="47.30491" lon="2.73181">
        <ele>276</ele>
        <time>2022-02-15T05:09:44Z</time>
      </trkpt>
      <trkpt lat="47.30484" lon="2.73141">
        <ele>274</ele>
        <time>2022-02-15T05:09:49Z</time>
      </trkpt>
      <trkpt lat="47.30431" lon="2.7293">
        <ele>269</ele>
        <time>2022-02-15T05:10:16Z</time>
      </trkpt>
      <trkpt lat="47.30427" lon="2.72911">
        <ele>269</ele>
        <time>2022-02-15T05:10:18Z</time>
      </trkpt>
      <trkpt lat="47.30426" lon="2.72882">
        <ele>269</ele>
        <time>2022-02-15T05:10:22Z</time>
      </trkpt>
      <trkpt lat="47.30438" lon="2.72812">
        <ele>270</ele>
        <time>2022-02-15T05:10:30Z</time>
      </trkpt>
      <trkpt lat="47.305" lon="2.7254">
        <ele>266</ele>
        <time>2022-02-15T05:11:05Z</time>
      </trkpt>
      <trkpt lat="47.30516" lon="2.72486">
        <ele>265</ele>
        <time>2022-02-15T05:11:12Z</time>
      </trkpt>
      <trkpt lat="47.30562" lon="2.72363">
        <ele>264</ele>
        <time>2022-02-15T05:11:29Z</time>
      </trkpt>
      <trkpt lat="47.30573" lon="2.72325">
        <ele>264</ele>
        <time>2022-02-15T05:11:34Z</time>
      </trkpt>
      <trkpt lat="47.30576" lon="2.72307">
        <ele>263</ele>
        <time>2022-02-15T05:11:36Z</time>
      </trkpt>
      <trkpt lat="47.30577" lon="2.72275">
        <ele>263</ele>
        <time>2022-02-15T05:11:40Z</time>
      </trkpt>
      <trkpt lat="47.30563" lon="2.72156">
        <ele>266</ele>
        <time>2022-02-15T05:11:55Z</time>
      </trkpt>
      <trkpt lat="47.30553" lon="2.72106">
        <ele>267</ele>
        <time>2022-02-15T05:12:01Z</time>
      </trkpt>
      <trkpt lat="47.30457" lon="2.71689">
        <ele>258</ele>
        <time>2022-02-15T05:12:54Z</time>
      </trkpt>
      <trkpt lat="47.30447" lon="2.71641">
        <ele>256</ele>
        <time>2022-02-15T05:13:00Z</time>
      </trkpt>
      <trkpt lat="47.30444" lon="2.71615">
        <ele>255</ele>
        <time>2022-02-15T05:13:03Z</time>
      </trkpt>
      <trkpt lat="47.30445" lon="2.71573">
        <ele>253</ele>
        <time>2022-02-15T05:13:08Z</time>
      </trkpt>
      <trkpt lat="47.30448" lon="2.71551">
        <ele>252</ele>
        <time>2022-02-15T05:13:11Z</time>
      </trkpt>
      <trkpt lat="47.30478" lon="2.71397">
        <ele>245</ele>
        <time>2022-02-15T05:13:30Z</time>
      </trkpt>
      <trkpt lat="47.30482" lon="2.7137">
        <ele>244</ele>
        <time>2022-02-15T05:13:34Z</time>
      </trkpt>
      <trkpt lat="47.30484" lon="2.71347">
        <ele>243</ele>
        <time>2022-02-15T05:13:37Z</time>
      </trkpt>
      <trkpt lat="47.30477" lon="2.71282">
        <ele>243</ele>
        <time>2022-02-15T05:13:44Z</time>
      </trkpt>
      <trkpt lat="47.30457" lon="2.71155">
        <ele>242</ele>
        <time>2022-02-15T05:14:00Z</time>
      </trkpt>
      <trkpt lat="47.30453" lon="2.71131">
        <ele>241</ele>
        <time>2022-02-15T05:14:03Z</time>
      </trkpt>
      <trkpt lat="47.30419" lon="2.70911">
        <ele>239</ele>
        <time>2022-02-15T05:14:30Z</time>
      </trkpt>
      <trkpt lat="47.30399" lon="2.70787">
        <ele>241</ele>
        <time>2022-02-15T05:14:46Z</time>
      </trkpt>
      <trkpt lat="47.30392" lon="2.70682">
        <ele>245</ele>
        <time>2022-02-15T05:14:58Z</time>
      </trkpt>
      <trkpt lat="47.30403" lon="2.7059">
        <ele>248</ele>
        <time>2022-02-15T05:15:10Z</time>
      </trkpt>
      <trkpt lat="47.30435" lon="2.705">
        <ele>251</ele>
        <time>2022-02-15T05:15:22Z</time>
      </trkpt>
      <trkpt lat="47.30464" lon="2.70396">
        <ele>253</ele>
        <time>2022-02-15T05:15:36Z</time>
      </trkpt>
      <trkpt lat="47.30493" lon="2.703">
        <ele>255</ele>
        <time>2022-02-15T05:15:48Z</time>
      </trkpt>
      <trkpt lat="47.30493" lon="2.70229">
        <ele>255</ele>
        <time>2022-02-15T05:15:57Z</time>
      </trkpt>
      <trkpt lat="47.30459" lon="2.70119">
        <ele>253</ele>
        <time>2022-02-15T05:16:11Z</time>
      </trkpt>
      <trkpt lat="47.30378" lon="2.6991">
        <ele>247</ele>
        <time>2022-02-15T05:16:40Z</time>
      </trkpt>
      <trkpt lat="47.30371" lon="2.69883">
        <ele>247</ele>
        <time>2022-02-15T05:16:44Z</time>
      </trkpt>
      <trkpt lat="47.30364" lon="2.69834">
        <ele>248</ele>
        <time>2022-02-15T05:16:50Z</time>
      </trkpt>
      <trkpt lat="47.30359" lon="2.69764">
        <ele>250</ele>
        <time>2022-02-15T05:16:58Z</time>
      </trkpt>
      <trkpt lat="47.30358" lon="2.69724">
        <ele>250</ele>
        <time>2022-02-15T05:17:03Z</time>
      </trkpt>
      <trkpt lat="47.30359" lon="2.69683">
        <ele>249</ele>
        <time>2022-02-15T05:17:08Z</time>
      </trkpt>
      <trkpt lat="47.30366" lon="2.69535">
        <ele>251</ele>
        <time>2022-02-15T05:17:26Z</time>
      </trkpt>
      <trkpt lat="47.30368" lon="2.69439">
        <ele>251</ele>
        <time>2022-02-15T05:17:38Z</time>
      </trkpt>
      <trkpt lat="47.30372" lon="2.69417">
        <ele>250</ele>
        <time>2022-02-15T05:17:41Z</time>
      </trkpt>
      <trkpt lat="47.30391" lon="2.69329">
        <ele>250</ele>
        <time>2022-02-15T05:17:52Z</time>
      </trkpt>
      <trkpt lat="47.30395" lon="2.69298">
        <ele>251</ele>
        <time>2022-02-15T05:17:55Z</time>
      </trkpt>
      <trkpt lat="47.30393" lon="2.6921">
        <ele>253</ele>
        <time>2022-02-15T05:18:06Z</time>
      </trkpt>
      <trkpt lat="47.30351" lon="2.68704">
        <ele>263</ele>
        <time>2022-02-15T05:19:08Z</time>
      </trkpt>
      <trkpt lat="47.30348" lon="2.6868">
        <ele>264</ele>
        <time>2022-02-15T05:19:11Z</time>
      </trkpt>
      <trkpt lat="47.30345" lon="2.6867">
        <ele>265</ele>
        <time>2022-02-15T05:19:12Z</time>
      </trkpt>
      <trkpt lat="47.3034" lon="2.68662">
        <ele>265</ele>
        <time>2022-02-15T05:19:13Z</time>
      </trkpt>
      <trkpt lat="47.3028" lon="2.68631">
        <ele>268</ele>
        <time>2022-02-15T05:19:24Z</time>
      </trkpt>
      <trkpt lat="47.30269" lon="2.68621">
        <ele>269</ele>
        <time>2022-02-15T05:19:27Z</time>
      </trkpt>
      <trkpt lat="47.30239" lon="2.6858">
        <ele>272</ele>
        <time>2022-02-15T05:19:34Z</time>
      </trkpt>
      <trkpt lat="47.30219" lon="2.68559">
        <ele>274</ele>
        <time>2022-02-15T05:19:38Z</time>
      </trkpt>
      <trkpt lat="47.30203" lon="2.68549">
        <ele>275</ele>
        <time>2022-02-15T05:19:42Z</time>
      </trkpt>
      <trkpt lat="47.30193" lon="2.68534">
        <ele>275</ele>
        <time>2022-02-15T05:19:44Z</time>
      </trkpt>
      <trkpt lat="47.30159" lon="2.68462">
        <ele>279</ele>
        <time>2022-02-15T05:19:55Z</time>
      </trkpt>
      <trkpt lat="47.30107" lon="2.68318">
        <ele>287</ele>
        <time>2022-02-15T05:20:14Z</time>
      </trkpt>
      <trkpt lat="47.30032" lon="2.68107">
        <ele>302</ele>
        <time>2022-02-15T05:20:43Z</time>
      </trkpt>
      <trkpt lat="47.29976" lon="2.67959">
        <ele>303</ele>
        <time>2022-02-15T05:21:04Z</time>
      </trkpt>
      <trkpt lat="47.29971" lon="2.67927">
        <ele>303</ele>
        <time>2022-02-15T05:21:07Z</time>
      </trkpt>
      <trkpt lat="47.29986" lon="2.67816">
        <ele>309</ele>
        <time>2022-02-15T05:21:21Z</time>
      </trkpt>
      <trkpt lat="47.29987" lon="2.67786">
        <ele>310</ele>
        <time>2022-02-15T05:21:25Z</time>
      </trkpt>
      <trkpt lat="47.29983" lon="2.67618">
        <ele>308</ele>
        <time>2022-02-15T05:21:45Z</time>
      </trkpt>
      <trkpt lat="47.29981" lon="2.67459">
        <ele>303</ele>
        <time>2022-02-15T05:22:04Z</time>
      </trkpt>
      <trkpt lat="47.29983" lon="2.67427">
        <ele>302</ele>
        <time>2022-02-15T05:22:08Z</time>
      </trkpt>
      <trkpt lat="47.29987" lon="2.67399">
        <ele>301</ele>
        <time>2022-02-15T05:22:12Z</time>
      </trkpt>
      <trkpt lat="47.30003" lon="2.67324">
        <ele>300</ele>
        <time>2022-02-15T05:22:21Z</time>
      </trkpt>
      <trkpt lat="47.30014" lon="2.67285">
        <ele>300</ele>
        <time>2022-02-15T05:22:26Z</time>
      </trkpt>
      <trkpt lat="47.3004" lon="2.67216">
        <ele>302</ele>
        <time>2022-02-15T05:22:36Z</time>
      </trkpt>
      <trkpt lat="47.30045" lon="2.67196">
        <ele>302</ele>
        <time>2022-02-15T05:22:38Z</time>
      </trkpt>
      <trkpt lat="47.30046" lon="2.67175">
        <ele>302</ele>
        <time>2022-02-15T05:22:41Z</time>
      </trkpt>
      <trkpt lat="47.30045" lon="2.67151">
        <ele>301</ele>
        <time>2022-02-15T05:22:44Z</time>
      </trkpt>
      <trkpt lat="47.30037" lon="2.67111">
        <ele>300</ele>
        <time>2022-02-15T05:22:49Z</time>
      </trkpt>
      <trkpt lat="47.3003" lon="2.6709">
        <ele>299</ele>
        <time>2022-02-15T05:22:52Z</time>
      </trkpt>
      <trkpt lat="47.3002" lon="2.67071">
        <ele>298</ele>
        <time>2022-02-15T05:22:54Z</time>
      </trkpt>
      <trkpt lat="47.29955" lon="2.66984">
        <ele>297</ele>
        <time>2022-02-15T05:23:10Z</time>
      </trkpt>
      <trkpt lat="47.29946" lon="2.6696">
        <ele>298</ele>
        <time>2022-02-15T05:23:13Z</time>
      </trkpt>
      <trkpt lat="47.29927" lon="2.66898">
        <ele>298</ele>
        <time>2022-02-15T05:23:22Z</time>
      </trkpt>
      <trkpt lat="47.2992" lon="2.66864">
        <ele>297</ele>
        <time>2022-02-15T05:23:26Z</time>
      </trkpt>
      <trkpt lat="47.29916" lon="2.66831">
        <ele>296</ele>
        <time>2022-02-15T05:23:30Z</time>
      </trkpt>
      <trkpt lat="47.29933" lon="2.66719">
        <ele>296</ele>
        <time>2022-02-15T05:23:44Z</time>
      </trkpt>
      <trkpt lat="47.29937" lon="2.6667">
        <ele>295</ele>
        <time>2022-02-15T05:23:50Z</time>
      </trkpt>
      <trkpt lat="47.2994" lon="2.66652">
        <ele>295</ele>
        <time>2022-02-15T05:23:52Z</time>
      </trkpt>
      <trkpt lat="47.29948" lon="2.66625">
        <ele>294</ele>
        <time>2022-02-15T05:23:56Z</time>
      </trkpt>
      <trkpt lat="47.30007" lon="2.66478">
        <ele>292</ele>
        <time>2022-02-15T05:24:16Z</time>
      </trkpt>
      <trkpt lat="47.30013" lon="2.66457">
        <ele>292</ele>
        <time>2022-02-15T05:24:19Z</time>
      </trkpt>
      <trkpt lat="47.30016" lon="2.66441">
        <ele>291</ele>
        <time>2022-02-15T05:24:21Z</time>
      </trkpt>
      <trkpt lat="47.30013" lon="2.6635">
        <ele>290</ele>
        <time>2022-02-15T05:24:32Z</time>
      </trkpt>
      <trkpt lat="47.30015" lon="2.6627">
        <ele>288</ele>
        <time>2022-02-15T05:24:42Z</time>
      </trkpt>
      <trkpt lat="47.30015" lon="2.66171">
        <ele>282</ele>
        <time>2022-02-15T05:24:53Z</time>
      </trkpt>
      <trkpt lat="47.30013" lon="2.6612">
        <ele>280</ele>
        <time>2022-02-15T05:25:00Z</time>
      </trkpt>
      <trkpt lat="47.30034" lon="2.65798">
        <ele>286</ele>
        <time>2022-02-15T05:25:39Z</time>
      </trkpt>
      <trkpt lat="47.30041" lon="2.65739">
        <ele>288</ele>
        <time>2022-02-15T05:25:46Z</time>
      </trkpt>
      <trkpt lat="47.30051" lon="2.65692">
        <ele>288</ele>
        <time>2022-02-15T05:25:52Z</time>
      </trkpt>
      <trkpt lat="47.30109" lon="2.65498">
        <ele>287</ele>
        <time>2022-02-15T05:26:17Z</time>
      </trkpt>
      <trkpt lat="47.30156" lon="2.65379">
        <ele>284</ele>
        <time>2022-02-15T05:26:34Z</time>
      </trkpt>
      <trkpt lat="47.30167" lon="2.65357">
        <ele>283</ele>
        <time>2022-02-15T05:26:37Z</time>
      </trkpt>
      <trkpt lat="47.30182" lon="2.65337">
        <ele>283</ele>
        <time>2022-02-15T05:26:41Z</time>
      </trkpt>
      <trkpt lat="47.30195" lon="2.65323">
        <ele>284</ele>
        <time>2022-02-15T05:26:44Z</time>
      </trkpt>
      <trkpt lat="47.3025" lon="2.65274">
        <ele>289</ele>
        <time>2022-02-15T05:26:55Z</time>
      </trkpt>
      <trkpt lat="47.30279" lon="2.65242">
        <ele>291</ele>
        <time>2022-02-15T05:27:02Z</time>
      </trkpt>
      <trkpt lat="47.30357" lon="2.65136">
        <ele>292</ele>
        <time>2022-02-15T05:27:21Z</time>
      </trkpt>
      <trkpt lat="47.30454" lon="2.6493">
        <ele>289</ele>
        <time>2022-02-15T05:27:51Z</time>
      </trkpt>
      <trkpt lat="47.30488" lon="2.64863">
        <ele>290</ele>
        <time>2022-02-15T05:28:01Z</time>
      </trkpt>
      <trkpt lat="47.30497" lon="2.64836">
        <ele>291</ele>
        <time>2022-02-15T05:28:05Z</time>
      </trkpt>
      <trkpt lat="47.30513" lon="2.64745">
        <ele>293</ele>
        <time>2022-02-15T05:28:16Z</time>
      </trkpt>
      <trkpt lat="47.30558" lon="2.64381">
        <ele>302</ele>
        <time>2022-02-15T05:29:01Z</time>
      </trkpt>
      <trkpt lat="47.30608" lon="2.64022">
        <ele>303</ele>
        <time>2022-02-15T05:29:45Z</time>
      </trkpt>
      <trkpt lat="47.30606" lon="2.63944">
        <ele>302</ele>
        <time>2022-02-15T05:29:54Z</time>
      </trkpt>
      <trkpt lat="47.30588" lon="2.638">
        <ele>300</ele>
        <time>2022-02-15T05:30:12Z</time>
      </trkpt>
      <trkpt lat="47.30554" lon="2.63563">
        <ele>302</ele>
        <time>2022-02-15T05:30:41Z</time>
      </trkpt>
      <trkpt lat="47.3054" lon="2.63444">
        <ele>305</ele>
        <time>2022-02-15T05:30:56Z</time>
      </trkpt>
      <trkpt lat="47.30501" lon="2.63199">
        <ele>313</ele>
        <time>2022-02-15T05:31:26Z</time>
      </trkpt>
      <trkpt lat="47.30476" lon="2.63131">
        <ele>316</ele>
        <time>2022-02-15T05:31:35Z</time>
      </trkpt>
      <trkpt lat="47.3043" lon="2.63">
        <ele>323</ele>
        <time>2022-02-15T05:31:53Z</time>
      </trkpt>
      <trkpt lat="47.30401" lon="2.62929">
        <ele>327</ele>
        <time>2022-02-15T05:32:03Z</time>
      </trkpt>
      <trkpt lat="47.30388" lon="2.62875">
        <ele>330</ele>
        <time>2022-02-15T05:32:10Z</time>
      </trkpt>
      <trkpt lat="47.30383" lon="2.62839">
        <ele>332</ele>
        <time>2022-02-15T05:32:14Z</time>
      </trkpt>
      <trkpt lat="47.30382" lon="2.62799">
        <ele>335</ele>
        <time>2022-02-15T05:32:19Z</time>
      </trkpt>
      <trkpt lat="47.30384" lon="2.62757">
        <ele>338</ele>
        <time>2022-02-15T05:32:24Z</time>
      </trkpt>
      <trkpt lat="47.30424" lon="2.62527">
        <ele>341</ele>
        <time>2022-02-15T05:32:53Z</time>
      </trkpt>
      <trkpt lat="47.30451" lon="2.62397">
        <ele>345</ele>
        <time>2022-02-15T05:33:09Z</time>
      </trkpt>
      <trkpt lat="47.30471" lon="2.62281">
        <ele>348</ele>
        <time>2022-02-15T05:33:24Z</time>
      </trkpt>
      <trkpt lat="47.30483" lon="2.62217">
        <ele>350</ele>
        <time>2022-02-15T05:33:32Z</time>
      </trkpt>
      <trkpt lat="47.30486" lon="2.62192">
        <ele>351</ele>
        <time>2022-02-15T05:33:35Z</time>
      </trkpt>
      <trkpt lat="47.3048" lon="2.62156">
        <ele>352</ele>
        <time>2022-02-15T05:33:39Z</time>
      </trkpt>
      <trkpt lat="47.30464" lon="2.62132">
        <ele>354</ele>
        <time>2022-02-15T05:33:43Z</time>
      </trkpt>
      <trkpt lat="47.30433" lon="2.62097">
        <ele>357</ele>
        <time>2022-02-15T05:33:50Z</time>
      </trkpt>
      <trkpt lat="47.30415" lon="2.62081">
        <ele>358</ele>
        <time>2022-02-15T05:33:54Z</time>
      </trkpt>
      <trkpt lat="47.30387" lon="2.62076">
        <ele>359</ele>
        <time>2022-02-15T05:33:59Z</time>
      </trkpt>
      <trkpt lat="47.30351" lon="2.6208">
        <ele>361</ele>
        <time>2022-02-15T05:34:06Z</time>
      </trkpt>
      <trkpt lat="47.30318" lon="2.62063">
        <ele>364</ele>
        <time>2022-02-15T05:34:12Z</time>
      </trkpt>
      <trkpt lat="47.30274" lon="2.62021">
        <ele>368</ele>
        <time>2022-02-15T05:34:21Z</time>
      </trkpt>
      <trkpt lat="47.30096" lon="2.61865">
        <ele>372</ele>
        <time>2022-02-15T05:34:58Z</time>
      </trkpt>
      <trkpt lat="47.30008" lon="2.61784">
        <ele>376</ele>
        <time>2022-02-15T05:35:16Z</time>
      </trkpt>
      <trkpt lat="47.29918" lon="2.61685">
        <ele>384</ele>
        <time>2022-02-15T05:35:36Z</time>
      </trkpt>
      <trkpt lat="47.29868" lon="2.6157">
        <ele>386</ele>
        <time>2022-02-15T05:35:53Z</time>
      </trkpt>
      <trkpt lat="47.297" lon="2.61266">
        <ele>390</ele>
        <time>2022-02-15T05:36:40Z</time>
      </trkpt>
      <trkpt lat="47.29527" lon="2.60937">
        <ele>381</ele>
        <time>2022-02-15T05:37:30Z</time>
      </trkpt>
      <trkpt lat="47.29349" lon="2.60502">
        <ele>379</ele>
        <time>2022-02-15T05:38:32Z</time>
      </trkpt>
      <trkpt lat="47.2881" lon="2.59223">
        <ele>388</ele>
        <time>2022-02-15T05:41:34Z</time>
      </trkpt>
      <trkpt lat="47.28797" lon="2.59173">
        <ele>387</ele>
        <time>2022-02-15T05:41:40Z</time>
      </trkpt>
      <trkpt lat="47.287" lon="2.58825">
        <ele>391</ele>
        <time>2022-02-15T05:42:25Z</time>
      </trkpt>
      <trkpt lat="47.28688" lon="2.58774">
        <ele>390</ele>
        <time>2022-02-15T05:42:32Z</time>
      </trkpt>
      <trkpt lat="47.28632" lon="2.58489">
        <ele>389</ele>
        <time>2022-02-15T05:43:08Z</time>
      </trkpt>
      <trkpt lat="47.2862" lon="2.58422">
        <ele>388</ele>
        <time>2022-02-15T05:43:16Z</time>
      </trkpt>
      <trkpt lat="47.28608" lon="2.5837">
        <ele>386</ele>
        <time>2022-02-15T05:43:23Z</time>
      </trkpt>
      <trkpt lat="47.28566" lon="2.58233">
        <ele>382</ele>
        <time>2022-02-15T05:43:41Z</time>
      </trkpt>
      <trkpt lat="47.28547" lon="2.58155">
        <ele>379</ele>
        <time>2022-02-15T05:43:51Z</time>
      </trkpt>
      <trkpt lat="47.28546" lon="2.58125">
        <ele>379</ele>
        <time>2022-02-15T05:43:54Z</time>
      </trkpt>
      <trkpt lat="47.28551" lon="2.5783">
        <ele>376</ele>
        <time>2022-02-15T05:44:30Z</time>
      </trkpt>
      <trkpt lat="47.28542" lon="2.57788">
        <ele>375</ele>
        <time>2022-02-15T05:44:35Z</time>
      </trkpt>
      <trkpt lat="47.28482" lon="2.57592">
        <ele>367</ele>
        <time>2022-02-15T05:45:01Z</time>
      </trkpt>
      <trkpt lat="47.28482" lon="2.57576">
        <ele>367</ele>
        <time>2022-02-15T05:45:03Z</time>
      </trkpt>
      <trkpt lat="47.28495" lon="2.57473">
        <ele>367</ele>
        <time>2022-02-15T05:45:16Z</time>
      </trkpt>
      <trkpt lat="47.28501" lon="2.57438">
        <ele>368</ele>
        <time>2022-02-15T05:45:20Z</time>
      </trkpt>
      <trkpt lat="47.28524" lon="2.57348">
        <ele>371</ele>
        <time>2022-02-15T05:45:32Z</time>
      </trkpt>
      <trkpt lat="47.28562" lon="2.57284">
        <ele>376</ele>
        <time>2022-02-15T05:45:42Z</time>
      </trkpt>
      <trkpt lat="47.28895" lon="2.56761">
        <ele>360</ele>
        <time>2022-02-15T05:47:09Z</time>
      </trkpt>
      <trkpt lat="47.28984" lon="2.56612">
        <ele>354</ele>
        <time>2022-02-15T05:47:33Z</time>
      </trkpt>
      <trkpt lat="47.29064" lon="2.56486">
        <ele>348</ele>
        <time>2022-02-15T05:47:54Z</time>
      </trkpt>
      <trkpt lat="47.29143" lon="2.56351">
        <ele>346</ele>
        <time>2022-02-15T05:48:15Z</time>
      </trkpt>
      <trkpt lat="47.29181" lon="2.56233">
        <ele>343</ele>
        <time>2022-02-15T05:48:31Z</time>
      </trkpt>
      <trkpt lat="47.29213" lon="2.56094">
        <ele>337</ele>
        <time>2022-02-15T05:48:49Z</time>
      </trkpt>
      <trkpt lat="47.29225" lon="2.55959">
        <ele>329</ele>
        <time>2022-02-15T05:49:05Z</time>
      </trkpt>
      <trkpt lat="47.29245" lon="2.55837">
        <ele>322</ele>
        <time>2022-02-15T05:49:20Z</time>
      </trkpt>
      <trkpt lat="47.29279" lon="2.55746">
        <ele>321</ele>
        <time>2022-02-15T05:49:33Z</time>
      </trkpt>
      <trkpt lat="47.29394" lon="2.5549">
        <ele>324</ele>
        <time>2022-02-15T05:50:10Z</time>
      </trkpt>
      <trkpt lat="47.29444" lon="2.55331">
        <ele>325</ele>
        <time>2022-02-15T05:50:31Z</time>
      </trkpt>
      <trkpt lat="47.29495" lon="2.55164">
        <ele>323</ele>
        <time>2022-02-15T05:50:53Z</time>
      </trkpt>
      <trkpt lat="47.29563" lon="2.54965">
        <ele>323</ele>
        <time>2022-02-15T05:51:20Z</time>
      </trkpt>
      <trkpt lat="47.29625" lon="2.5481">
        <ele>317</ele>
        <time>2022-02-15T05:51:42Z</time>
      </trkpt>
      <trkpt lat="47.29668" lon="2.54654">
        <ele>312</ele>
        <time>2022-02-15T05:52:02Z</time>
      </trkpt>
      <trkpt lat="47.29719" lon="2.54446">
        <ele>304</ele>
        <time>2022-02-15T05:52:29Z</time>
      </trkpt>
      <trkpt lat="47.29771" lon="2.54244">
        <ele>301</ele>
        <time>2022-02-15T05:52:55Z</time>
      </trkpt>
      <trkpt lat="47.29797" lon="2.54173">
        <ele>300</ele>
        <time>2022-02-15T05:53:04Z</time>
      </trkpt>
      <trkpt lat="47.29863" lon="2.54045">
        <ele>301</ele>
        <time>2022-02-15T05:53:24Z</time>
      </trkpt>
      <trkpt lat="47.29881" lon="2.54002">
        <ele>302</ele>
        <time>2022-02-15T05:53:30Z</time>
      </trkpt>
      <trkpt lat="47.29947" lon="2.53751">
        <ele>301</ele>
        <time>2022-02-15T05:54:02Z</time>
      </trkpt>
      <trkpt lat="47.29981" lon="2.53641">
        <ele>299</ele>
        <time>2022-02-15T05:54:17Z</time>
      </trkpt>
      <trkpt lat="47.30011" lon="2.53555">
        <ele>298</ele>
        <time>2022-02-15T05:54:29Z</time>
      </trkpt>
      <trkpt lat="47.30079" lon="2.53378">
        <ele>295</ele>
        <time>2022-02-15T05:54:53Z</time>
      </trkpt>
      <trkpt lat="47.30125" lon="2.53247">
        <ele>293</ele>
        <time>2022-02-15T05:55:11Z</time>
      </trkpt>
      <trkpt lat="47.30158" lon="2.53112">
        <ele>293</ele>
        <time>2022-02-15T05:55:28Z</time>
      </trkpt>
      <trkpt lat="47.30255" lon="2.52672">
        <ele>289</ele>
        <time>2022-02-15T05:56:24Z</time>
      </trkpt>
      <trkpt lat="47.30261" lon="2.52647">
        <ele>288</ele>
        <time>2022-02-15T05:56:27Z</time>
      </trkpt>
      <trkpt lat="47.30266" lon="2.52635">
        <ele>288</ele>
        <time>2022-02-15T05:56:29Z</time>
      </trkpt>
      <trkpt lat="47.30272" lon="2.52625">
        <ele>288</ele>
        <time>2022-02-15T05:56:31Z</time>
      </trkpt>
      <trkpt lat="47.30311" lon="2.52593">
        <ele>288</ele>
        <time>2022-02-15T05:56:39Z</time>
      </trkpt>
      <trkpt lat="47.30347" lon="2.52557">
        <ele>288</ele>
        <time>2022-02-15T05:56:46Z</time>
      </trkpt>
      <trkpt lat="47.30295" lon="2.52432">
        <ele>285</ele>
        <time>2022-02-15T05:57:04Z</time>
      </trkpt>
      <trkpt lat="47.30298" lon="2.52425">
        <ele>285</ele>
        <time>2022-02-15T05:57:05Z</time>
      </trkpt>
      <trkpt lat="47.30297" lon="2.52414">
        <ele>285</ele>
        <time>2022-02-15T05:57:06Z</time>
      </trkpt>
      <trkpt lat="47.30291" lon="2.52405">
        <ele>284</ele>
        <time>2022-02-15T05:57:08Z</time>
      </trkpt>
      <trkpt lat="47.30282" lon="2.52407">
        <ele>284</ele>
        <time>2022-02-15T05:57:09Z</time>
      </trkpt>
      <trkpt lat="47.30232" lon="2.52285">
        <ele>280</ele>
        <time>2022-02-15T05:57:27Z</time>
      </trkpt>
      <trkpt lat="47.29954" lon="2.51629">
        <ele>257</ele>
        <time>2022-02-15T05:59:00Z</time>
      </trkpt>
      <trkpt lat="47.29587" lon="2.50776">
        <ele>241</ele>
        <time>2022-02-15T06:01:02Z</time>
      </trkpt>
      <trkpt lat="47.29557" lon="2.507">
        <ele>241</ele>
        <time>2022-02-15T06:01:13Z</time>
      </trkpt>
      <trkpt lat="47.29451" lon="2.50456">
        <ele>239</ele>
        <time>2022-02-15T06:01:47Z</time>
      </trkpt>
      <trkpt lat="47.29213" lon="2.49895">
        <ele>232</ele>
        <time>2022-02-15T06:03:07Z</time>
      </trkpt>
      <trkpt lat="47.29168" lon="2.4978">
        <ele>231</ele>
        <time>2022-02-15T06:03:23Z</time>
      </trkpt>
      <trkpt lat="47.29045" lon="2.49307">
        <ele>226</ele>
        <time>2022-02-15T06:04:24Z</time>
      </trkpt>
      <trkpt lat="47.29035" lon="2.49273">
        <ele>225</ele>
        <time>2022-02-15T06:04:29Z</time>
      </trkpt>
      <trkpt lat="47.29026" lon="2.49254">
        <ele>224</ele>
        <time>2022-02-15T06:04:32Z</time>
      </trkpt>
      <trkpt lat="47.29019" lon="2.49243">
        <ele>224</ele>
        <time>2022-02-15T06:04:34Z</time>
      </trkpt>
      <trkpt lat="47.28993" lon="2.4922">
        <ele>222</ele>
        <time>2022-02-15T06:04:39Z</time>
      </trkpt>
      <trkpt lat="47.28943" lon="2.49185">
        <ele>222</ele>
        <time>2022-02-15T06:04:49Z</time>
      </trkpt>
      <trkpt lat="47.28912" lon="2.49154">
        <ele>223</ele>
        <time>2022-02-15T06:04:55Z</time>
      </trkpt>
      <trkpt lat="47.28896" lon="2.49125">
        <ele>222</ele>
        <time>2022-02-15T06:05:00Z</time>
      </trkpt>
      <trkpt lat="47.28884" lon="2.49083">
        <ele>221</ele>
        <time>2022-02-15T06:05:06Z</time>
      </trkpt>
      <trkpt lat="47.28869" lon="2.49013">
        <ele>220</ele>
        <time>2022-02-15T06:05:14Z</time>
      </trkpt>
      <trkpt lat="47.28855" lon="2.48971">
        <ele>219</ele>
        <time>2022-02-15T06:05:20Z</time>
      </trkpt>
      <trkpt lat="47.28838" lon="2.48938">
        <ele>220</ele>
        <time>2022-02-15T06:05:25Z</time>
      </trkpt>
      <trkpt lat="47.28815" lon="2.48904">
        <ele>221</ele>
        <time>2022-02-15T06:05:31Z</time>
      </trkpt>
      <trkpt lat="47.28624" lon="2.48597">
        <ele>226</ele>
        <time>2022-02-15T06:06:21Z</time>
      </trkpt>
      <trkpt lat="47.28597" lon="2.48545">
        <ele>227</ele>
        <time>2022-02-15T06:06:29Z</time>
      </trkpt>
      <trkpt lat="47.28587" lon="2.4851">
        <ele>227</ele>
        <time>2022-02-15T06:06:34Z</time>
      </trkpt>
      <trkpt lat="47.28411" lon="2.47787">
        <ele>236</ele>
        <time>2022-02-15T06:08:06Z</time>
      </trkpt>
      <trkpt lat="47.28396" lon="2.47718">
        <ele>237</ele>
        <time>2022-02-15T06:08:15Z</time>
      </trkpt>
      <trkpt lat="47.28387" lon="2.47669">
        <ele>238</ele>
        <time>2022-02-15T06:08:21Z</time>
      </trkpt>
      <trkpt lat="47.28383" lon="2.47626">
        <ele>239</ele>
        <time>2022-02-15T06:08:26Z</time>
      </trkpt>
      <trkpt lat="47.28382" lon="2.47569">
        <ele>240</ele>
        <time>2022-02-15T06:08:33Z</time>
      </trkpt>
      <trkpt lat="47.28386" lon="2.47084">
        <ele>256</ele>
        <time>2022-02-15T06:09:32Z</time>
      </trkpt>
      <trkpt lat="47.28385" lon="2.46989">
        <ele>261</ele>
        <time>2022-02-15T06:09:43Z</time>
      </trkpt>
      <trkpt lat="47.28379" lon="2.46926">
        <ele>264</ele>
        <time>2022-02-15T06:09:51Z</time>
      </trkpt>
      <trkpt lat="47.28367" lon="2.4687">
        <ele>266</ele>
        <time>2022-02-15T06:09:58Z</time>
      </trkpt>
      <trkpt lat="47.28353" lon="2.46829">
        <ele>269</ele>
        <time>2022-02-15T06:10:04Z</time>
      </trkpt>
      <trkpt lat="47.2832" lon="2.46748">
        <ele>273</ele>
        <time>2022-02-15T06:10:15Z</time>
      </trkpt>
      <trkpt lat="47.28307" lon="2.46699">
        <ele>275</ele>
        <time>2022-02-15T06:10:21Z</time>
      </trkpt>
      <trkpt lat="47.28297" lon="2.46626">
        <ele>275</ele>
        <time>2022-02-15T06:10:30Z</time>
      </trkpt>
      <trkpt lat="47.28287" lon="2.46537">
        <ele>273</ele>
        <time>2022-02-15T06:10:41Z</time>
      </trkpt>
      <trkpt lat="47.28283" lon="2.46475">
        <ele>272</ele>
        <time>2022-02-15T06:10:49Z</time>
      </trkpt>
      <trkpt lat="47.28281" lon="2.46419">
        <ele>270</ele>
        <time>2022-02-15T06:10:56Z</time>
      </trkpt>
      <trkpt lat="47.2829" lon="2.46307">
        <ele>265</ele>
        <time>2022-02-15T06:11:09Z</time>
      </trkpt>
      <trkpt lat="47.2829" lon="2.46268">
        <ele>263</ele>
        <time>2022-02-15T06:11:14Z</time>
      </trkpt>
      <trkpt lat="47.28288" lon="2.46248">
        <ele>262</ele>
        <time>2022-02-15T06:11:16Z</time>
      </trkpt>
      <trkpt lat="47.28283" lon="2.46224">
        <ele>261</ele>
        <time>2022-02-15T06:11:19Z</time>
      </trkpt>
      <trkpt lat="47.28236" lon="2.46105">
        <ele>256</ele>
        <time>2022-02-15T06:11:36Z</time>
      </trkpt>
      <trkpt lat="47.28224" lon="2.46062">
        <ele>253</ele>
        <time>2022-02-15T06:11:42Z</time>
      </trkpt>
      <trkpt lat="47.28214" lon="2.46009">
        <ele>250</ele>
        <time>2022-02-15T06:11:48Z</time>
      </trkpt>
      <trkpt lat="47.28147" lon="2.45607">
        <ele>242</ele>
        <time>2022-02-15T06:12:38Z</time>
      </trkpt>
      <trkpt lat="47.28129" lon="2.45528">
        <ele>240</ele>
        <time>2022-02-15T06:12:48Z</time>
      </trkpt>
      <trkpt lat="47.28093" lon="2.45417">
        <ele>241</ele>
        <time>2022-02-15T06:13:03Z</time>
      </trkpt>
      <trkpt lat="47.27998" lon="2.45167">
        <ele>243</ele>
        <time>2022-02-15T06:13:38Z</time>
      </trkpt>
      <trkpt lat="47.27974" lon="2.45097">
        <ele>246</ele>
        <time>2022-02-15T06:13:47Z</time>
      </trkpt>
      <trkpt lat="47.27954" lon="2.45012">
        <ele>247</ele>
        <time>2022-02-15T06:13:58Z</time>
      </trkpt>
      <trkpt lat="47.27942" lon="2.44982">
        <ele>248</ele>
        <time>2022-02-15T06:14:02Z</time>
      </trkpt>
      <trkpt lat="47.27931" lon="2.44969">
        <ele>248</ele>
        <time>2022-02-15T06:14:05Z</time>
      </trkpt>
      <trkpt lat="47.27901" lon="2.44942">
        <ele>249</ele>
        <time>2022-02-15T06:14:11Z</time>
      </trkpt>
      <trkpt lat="47.27881" lon="2.44918">
        <ele>250</ele>
        <time>2022-02-15T06:14:16Z</time>
      </trkpt>
      <trkpt lat="47.27745" lon="2.44732">
        <ele>256</ele>
        <time>2022-02-15T06:14:49Z</time>
      </trkpt>
      <trkpt lat="47.27675" lon="2.44577">
        <ele>265</ele>
        <time>2022-02-15T06:15:11Z</time>
      </trkpt>
      <trkpt lat="47.27668" lon="2.44553">
        <ele>267</ele>
        <time>2022-02-15T06:15:14Z</time>
      </trkpt>
      <trkpt lat="47.27664" lon="2.44529">
        <ele>269</ele>
        <time>2022-02-15T06:15:17Z</time>
      </trkpt>
      <trkpt lat="47.27664" lon="2.44504">
        <ele>271</ele>
        <time>2022-02-15T06:15:20Z</time>
      </trkpt>
      <trkpt lat="47.27667" lon="2.44473">
        <ele>273</ele>
        <time>2022-02-15T06:15:24Z</time>
      </trkpt>
      <trkpt lat="47.27677" lon="2.44417">
        <ele>275</ele>
        <time>2022-02-15T06:15:31Z</time>
      </trkpt>
      <trkpt lat="47.27681" lon="2.44379">
        <ele>276</ele>
        <time>2022-02-15T06:15:36Z</time>
      </trkpt>
      <trkpt lat="47.27682" lon="2.44354">
        <ele>276</ele>
        <time>2022-02-15T06:15:39Z</time>
      </trkpt>
      <trkpt lat="47.2768" lon="2.44333">
        <ele>277</ele>
        <time>2022-02-15T06:15:41Z</time>
      </trkpt>
      <trkpt lat="47.27675" lon="2.44316">
        <ele>277</ele>
        <time>2022-02-15T06:15:43Z</time>
      </trkpt>
      <trkpt lat="47.27656" lon="2.44278">
        <ele>278</ele>
        <time>2022-02-15T06:15:49Z</time>
      </trkpt>
      <trkpt lat="47.27646" lon="2.44265">
        <ele>279</ele>
        <time>2022-02-15T06:15:51Z</time>
      </trkpt>
      <trkpt lat="47.27632" lon="2.44252">
        <ele>279</ele>
        <time>2022-02-15T06:15:54Z</time>
      </trkpt>
      <trkpt lat="47.27538" lon="2.44204">
        <ele>284</ele>
        <time>2022-02-15T06:16:12Z</time>
      </trkpt>
      <trkpt lat="47.27515" lon="2.44183">
        <ele>286</ele>
        <time>2022-02-15T06:16:17Z</time>
      </trkpt>
      <trkpt lat="47.27452" lon="2.4409">
        <ele>290</ele>
        <time>2022-02-15T06:16:33Z</time>
      </trkpt>
      <trkpt lat="47.2731" lon="2.4389">
        <ele>302</ele>
        <time>2022-02-15T06:17:08Z</time>
      </trkpt>
      <trkpt lat="47.27293" lon="2.4386">
        <ele>305</ele>
        <time>2022-02-15T06:17:12Z</time>
      </trkpt>
      <trkpt lat="47.2728" lon="2.43831">
        <ele>307</ele>
        <time>2022-02-15T06:17:17Z</time>
      </trkpt>
      <trkpt lat="47.26904" lon="2.42783">
        <ele>306</ele>
        <time>2022-02-15T06:19:40Z</time>
      </trkpt>
      <trkpt lat="47.2691" lon="2.42778">
        <ele>306</ele>
        <time>2022-02-15T06:19:41Z</time>
      </trkpt>
      <trkpt lat="47.26915" lon="2.42771">
        <ele>306</ele>
        <time>2022-02-15T06:19:42Z</time>
      </trkpt>
      <trkpt lat="47.26918" lon="2.42761">
        <ele>305</ele>
        <time>2022-02-15T06:19:44Z</time>
      </trkpt>
      <trkpt lat="47.26919" lon="2.42751">
        <ele>305</ele>
        <time>2022-02-15T06:19:45Z</time>
      </trkpt>
      <trkpt lat="47.26918" lon="2.42739">
        <ele>306</ele>
        <time>2022-02-15T06:19:46Z</time>
      </trkpt>
      <trkpt lat="47.26914" lon="2.42729">
        <ele>306</ele>
        <time>2022-02-15T06:19:48Z</time>
      </trkpt>
      <trkpt lat="47.26909" lon="2.42722">
        <ele>306</ele>
        <time>2022-02-15T06:19:49Z</time>
      </trkpt>
      <trkpt lat="47.26901" lon="2.42717">
        <ele>306</ele>
        <time>2022-02-15T06:19:50Z</time>
      </trkpt>
      <trkpt lat="47.26894" lon="2.42716">
        <ele>306</ele>
        <time>2022-02-15T06:19:52Z</time>
      </trkpt>
      <trkpt lat="47.26886" lon="2.42719">
        <ele>306</ele>
        <time>2022-02-15T06:19:53Z</time>
      </trkpt>
      <trkpt lat="47.26848" lon="2.42626">
        <ele>306</ele>
        <time>2022-02-15T06:20:06Z</time>
      </trkpt>
      <trkpt lat="47.26825" lon="2.42564">
        <ele>307</ele>
        <time>2022-02-15T06:20:15Z</time>
      </trkpt>
      <trkpt lat="47.267" lon="2.42217">
        <ele>299</ele>
        <time>2022-02-15T06:21:02Z</time>
      </trkpt>
      <trkpt lat="47.2669" lon="2.4218">
        <ele>298</ele>
        <time>2022-02-15T06:21:07Z</time>
      </trkpt>
      <trkpt lat="47.26682" lon="2.42135">
        <ele>295</ele>
        <time>2022-02-15T06:21:13Z</time>
      </trkpt>
      <trkpt lat="47.26682" lon="2.4208">
        <ele>292</ele>
        <time>2022-02-15T06:21:19Z</time>
      </trkpt>
      <trkpt lat="47.26685" lon="2.42043">
        <ele>291</ele>
        <time>2022-02-15T06:21:24Z</time>
      </trkpt>
      <trkpt lat="47.26693" lon="2.42004">
        <ele>290</ele>
        <time>2022-02-15T06:21:29Z</time>
      </trkpt>
      <trkpt lat="47.26897" lon="2.41349">
        <ele>265</ele>
        <time>2022-02-15T06:22:56Z</time>
      </trkpt>
      <trkpt lat="47.26907" lon="2.41306">
        <ele>262</ele>
        <time>2022-02-15T06:23:01Z</time>
      </trkpt>
      <trkpt lat="47.26911" lon="2.41267">
        <ele>259</ele>
        <time>2022-02-15T06:23:06Z</time>
      </trkpt>
      <trkpt lat="47.26911" lon="2.41247">
        <ele>257</ele>
        <time>2022-02-15T06:23:08Z</time>
      </trkpt>
      <trkpt lat="47.26909" lon="2.41225">
        <ele>256</ele>
        <time>2022-02-15T06:23:11Z</time>
      </trkpt>
      <trkpt lat="47.26899" lon="2.41187">
        <ele>254</ele>
        <time>2022-02-15T06:23:16Z</time>
      </trkpt>
      <trkpt lat="47.26889" lon="2.41154">
        <ele>252</ele>
        <time>2022-02-15T06:23:20Z</time>
      </trkpt>
      <trkpt lat="47.2649" lon="2.40231">
        <ele>220</ele>
        <time>2022-02-15T06:25:32Z</time>
      </trkpt>
      <trkpt lat="47.26283" lon="2.39741">
        <ele>221</ele>
        <time>2022-02-15T06:26:42Z</time>
      </trkpt>
      <trkpt lat="47.26148" lon="2.39435">
        <ele>220</ele>
        <time>2022-02-15T06:27:26Z</time>
      </trkpt>
      <trkpt lat="47.25949" lon="2.38971">
        <ele>220</ele>
        <time>2022-02-15T06:28:33Z</time>
      </trkpt>
      <trkpt lat="47.25893" lon="2.38834">
        <ele>213</ele>
        <time>2022-02-15T06:28:52Z</time>
      </trkpt>
      <trkpt lat="47.25885" lon="2.38821">
        <ele>213</ele>
        <time>2022-02-15T06:28:54Z</time>
      </trkpt>
      <trkpt lat="47.25072" lon="2.36938">
        <ele>229</ele>
        <time>2022-02-15T06:33:23Z</time>
      </trkpt>
      <trkpt lat="47.25078" lon="2.36927">
        <ele>229</ele>
        <time>2022-02-15T06:33:25Z</time>
      </trkpt>
      <trkpt lat="47.2508" lon="2.36916">
        <ele>228</ele>
        <time>2022-02-15T06:33:27Z</time>
      </trkpt>
      <trkpt lat="47.25079" lon="2.36903">
        <ele>228</ele>
        <time>2022-02-15T06:33:28Z</time>
      </trkpt>
      <trkpt lat="47.25074" lon="2.36893">
        <ele>229</ele>
        <time>2022-02-15T06:33:30Z</time>
      </trkpt>
      <trkpt lat="47.25067" lon="2.36886">
        <ele>229</ele>
        <time>2022-02-15T06:33:31Z</time>
      </trkpt>
      <trkpt lat="47.25058" lon="2.36885">
        <ele>230</ele>
        <time>2022-02-15T06:33:33Z</time>
      </trkpt>
      <trkpt lat="47.2505" lon="2.36889">
        <ele>230</ele>
        <time>2022-02-15T06:33:34Z</time>
      </trkpt>
      <trkpt lat="47.24802" lon="2.36319">
        <ele>237</ele>
        <time>2022-02-15T06:34:56Z</time>
      </trkpt>
      <trkpt lat="47.2416" lon="2.34834">
        <ele>278</ele>
        <time>2022-02-15T06:38:29Z</time>
      </trkpt>
      <trkpt lat="47.2394" lon="2.34316">
        <ele>275</ele>
        <time>2022-02-15T06:39:42Z</time>
      </trkpt>
      <trkpt lat="47.23725" lon="2.33816">
        <ele>277</ele>
        <time>2022-02-15T06:40:54Z</time>
      </trkpt>
      <trkpt lat="47.23462" lon="2.33192">
        <ele>273</ele>
        <time>2022-02-15T06:42:23Z</time>
      </trkpt>
      <trkpt lat="47.23449" lon="2.33167">
        <ele>272</ele>
        <time>2022-02-15T06:42:27Z</time>
      </trkpt>
      <trkpt lat="47.23434" lon="2.33149">
        <ele>271</ele>
        <time>2022-02-15T06:42:30Z</time>
      </trkpt>
      <trkpt lat="47.2324" lon="2.33022">
        <ele>268</ele>
        <time>2022-02-15T06:43:08Z</time>
      </trkpt>
      <trkpt lat="47.23211" lon="2.32999">
        <ele>268</ele>
        <time>2022-02-15T06:43:14Z</time>
      </trkpt>
      <trkpt lat="47.23186" lon="2.32971">
        <ele>268</ele>
        <time>2022-02-15T06:43:19Z</time>
      </trkpt>
      <trkpt lat="47.23065" lon="2.32796">
        <ele>260</ele>
        <time>2022-02-15T06:43:49Z</time>
      </trkpt>
      <trkpt lat="47.22859" lon="2.32483">
        <ele>234</ele>
        <time>2022-02-15T06:44:42Z</time>
      </trkpt>
      <trkpt lat="47.22795" lon="2.3239">
        <ele>228</ele>
        <time>2022-02-15T06:44:58Z</time>
      </trkpt>
      <trkpt lat="47.2277" lon="2.32371">
        <ele>226</ele>
        <time>2022-02-15T06:45:03Z</time>
      </trkpt>
      <trkpt lat="47.22744" lon="2.32359">
        <ele>225</ele>
        <time>2022-02-15T06:45:08Z</time>
      </trkpt>
      <trkpt lat="47.22675" lon="2.32342">
        <ele>223</ele>
        <time>2022-02-15T06:45:20Z</time>
      </trkpt>
      <trkpt lat="47.22658" lon="2.32335">
        <ele>222</ele>
        <time>2022-02-15T06:45:23Z</time>
      </trkpt>
      <trkpt lat="47.22644" lon="2.32327">
        <ele>221</ele>
        <time>2022-02-15T06:45:26Z</time>
      </trkpt>
      <trkpt lat="47.22627" lon="2.32306">
        <ele>220</ele>
        <time>2022-02-15T06:45:30Z</time>
      </trkpt>
      <trkpt lat="47.22616" lon="2.32286">
        <ele>220</ele>
        <time>2022-02-15T06:45:33Z</time>
      </trkpt>
      <trkpt lat="47.22541" lon="2.32071">
        <ele>211</ele>
        <time>2022-02-15T06:46:02Z</time>
      </trkpt>
      <trkpt lat="47.22504" lon="2.31969">
        <ele>208</ele>
        <time>2022-02-15T06:46:16Z</time>
      </trkpt>
      <trkpt lat="47.22501" lon="2.31966">
        <ele>208</ele>
        <time>2022-02-15T06:46:17Z</time>
      </trkpt>
      <trkpt lat="47.22504" lon="2.3194">
        <ele>208</ele>
        <time>2022-02-15T06:46:20Z</time>
      </trkpt>
      <trkpt lat="47.22499" lon="2.31923">
        <ele>207</ele>
        <time>2022-02-15T06:46:22Z</time>
      </trkpt>
      <trkpt lat="47.22482" lon="2.31902">
        <ele>206</ele>
        <time>2022-02-15T06:46:26Z</time>
      </trkpt>
      <trkpt lat="47.22455" lon="2.31861">
        <ele>205</ele>
        <time>2022-02-15T06:46:33Z</time>
      </trkpt>
      <trkpt lat="47.22351" lon="2.31495">
        <ele>193</ele>
        <time>2022-02-15T06:47:21Z</time>
      </trkpt>
      <trkpt lat="47.22149" lon="2.30808">
        <ele>196</ele>
        <time>2022-02-15T06:48:52Z</time>
      </trkpt>
      <trkpt lat="47.22133" lon="2.30766">
        <ele>196</ele>
        <time>2022-02-15T06:48:58Z</time>
      </trkpt>
      <trkpt lat="47.22117" lon="2.30738">
        <ele>197</ele>
        <time>2022-02-15T06:49:02Z</time>
      </trkpt>
      <trkpt lat="47.22081" lon="2.30701">
        <ele>199</ele>
        <time>2022-02-15T06:49:10Z</time>
      </trkpt>
      <trkpt lat="47.22" lon="2.30621">
        <ele>210</ele>
        <time>2022-02-15T06:49:27Z</time>
      </trkpt>
      <trkpt lat="47.20923" lon="2.29566">
        <ele>174</ele>
        <time>2022-02-15T06:53:17Z</time>
      </trkpt>
      <trkpt lat="47.19385" lon="2.2805">
        <ele>163</ele>
        <time>2022-02-15T06:58:47Z</time>
      </trkpt>
      <trkpt lat="47.19359" lon="2.28003">
        <ele>162</ele>
        <time>2022-02-15T06:58:54Z</time>
      </trkpt>
      <trkpt lat="47.19347" lon="2.27964">
        <ele>160</ele>
        <time>2022-02-15T06:58:59Z</time>
      </trkpt>
      <trkpt lat="47.19016" lon="2.26782">
        <ele>151</ele>
        <time>2022-02-15T07:01:34Z</time>
      </trkpt>
      <trkpt lat="47.18978" lon="2.2665">
        <ele>150</ele>
        <time>2022-02-15T07:01:51Z</time>
      </trkpt>
      <trkpt lat="47.18923" lon="2.26446">
        <ele>147</ele>
        <time>2022-02-15T07:02:18Z</time>
      </trkpt>
      <trkpt lat="47.18909" lon="2.26402">
        <ele>144</ele>
        <time>2022-02-15T07:02:23Z</time>
      </trkpt>
      <trkpt lat="47.18899" lon="2.2638">
        <ele>142</ele>
        <time>2022-02-15T07:02:27Z</time>
      </trkpt>
      <trkpt lat="47.18801" lon="2.26261">
        <ele>139</ele>
        <time>2022-02-15T07:02:49Z</time>
      </trkpt>
      <trkpt lat="47.18748" lon="2.262">
        <ele>141</ele>
        <time>2022-02-15T07:03:01Z</time>
      </trkpt>
      <trkpt lat="47.18541" lon="2.25971">
        <ele>148</ele>
        <time>2022-02-15T07:03:47Z</time>
      </trkpt>
      <trkpt lat="47.18452" lon="2.2587">
        <ele>144</ele>
        <time>2022-02-15T07:04:07Z</time>
      </trkpt>
      <trkpt lat="47.1842" lon="2.25828">
        <ele>143</ele>
        <time>2022-02-15T07:04:15Z</time>
      </trkpt>
      <trkpt lat="47.17829" lon="2.24912">
        <ele>138</ele>
        <time>2022-02-15T07:06:48Z</time>
      </trkpt>
      <trkpt lat="47.17813" lon="2.24881">
        <ele>137</ele>
        <time>2022-02-15T07:06:52Z</time>
      </trkpt>
      <trkpt lat="47.17801" lon="2.24846">
        <ele>137</ele>
        <time>2022-02-15T07:06:57Z</time>
      </trkpt>
      <trkpt lat="47.17787" lon="2.24792">
        <ele>138</ele>
        <time>2022-02-15T07:07:04Z</time>
      </trkpt>
      <trkpt lat="47.17772" lon="2.2476">
        <ele>138</ele>
        <time>2022-02-15T07:07:09Z</time>
      </trkpt>
      <trkpt lat="47.17761" lon="2.24743">
        <ele>138</ele>
        <time>2022-02-15T07:07:12Z</time>
      </trkpt>
      <trkpt lat="47.17724" lon="2.24697">
        <ele>137</ele>
        <time>2022-02-15T07:07:20Z</time>
      </trkpt>
      <trkpt lat="47.1771" lon="2.24682">
        <ele>137</ele>
        <time>2022-02-15T07:07:23Z</time>
      </trkpt>
      <trkpt lat="47.17689" lon="2.24666">
        <ele>137</ele>
        <time>2022-02-15T07:07:28Z</time>
      </trkpt>
      <trkpt lat="47.17569" lon="2.24616">
        <ele>136</ele>
        <time>2022-02-15T07:07:50Z</time>
      </trkpt>
      <trkpt lat="47.17542" lon="2.24598">
        <ele>135</ele>
        <time>2022-02-15T07:07:55Z</time>
      </trkpt>
      <trkpt lat="47.17515" lon="2.24576">
        <ele>135</ele>
        <time>2022-02-15T07:08:01Z</time>
      </trkpt>
      <trkpt lat="47.17041" lon="2.24058">
        <ele>129</ele>
        <time>2022-02-15T07:09:46Z</time>
      </trkpt>
      <trkpt lat="47.16944" lon="2.2396">
        <ele>127</ele>
        <time>2022-02-15T07:10:07Z</time>
      </trkpt>
      <trkpt lat="47.16427" lon="2.2345">
        <ele>128</ele>
        <time>2022-02-15T07:11:57Z</time>
      </trkpt>
      <trkpt lat="47.16368" lon="2.23396">
        <ele>128</ele>
        <time>2022-02-15T07:12:10Z</time>
      </trkpt>
      <trkpt lat="47.15966" lon="2.23044">
        <ele>127</ele>
        <time>2022-02-15T07:13:33Z</time>
      </trkpt>
      <trkpt lat="47.15854" lon="2.2296">
        <ele>127</ele>
        <time>2022-02-15T07:13:55Z</time>
      </trkpt>
      <trkpt lat="47.15631" lon="2.22823">
        <ele>127</ele>
        <time>2022-02-15T07:14:38Z</time>
      </trkpt>
      <trkpt lat="47.15596" lon="2.22799">
        <ele>127</ele>
        <time>2022-02-15T07:14:45Z</time>
      </trkpt>
      <trkpt lat="47.15361" lon="2.22596">
        <ele>124</ele>
        <time>2022-02-15T07:15:34Z</time>
      </trkpt>
      <trkpt lat="47.14834" lon="2.22132">
        <ele>122</ele>
        <time>2022-02-15T07:17:23Z</time>
      </trkpt>
      <trkpt lat="47.14815" lon="2.2212">
        <ele>122</ele>
        <time>2022-02-15T07:17:27Z</time>
      </trkpt>
      <trkpt lat="47.14773" lon="2.22106">
        <ele>120</ele>
        <time>2022-02-15T07:17:34Z</time>
      </trkpt>
      <trkpt lat="47.14744" lon="2.22092">
        <ele>120</ele>
        <time>2022-02-15T07:17:40Z</time>
      </trkpt>
      <trkpt lat="47.14714" lon="2.22071">
        <ele>120</ele>
        <time>2022-02-15T07:17:46Z</time>
      </trkpt>
      <trkpt lat="47.14684" lon="2.22045">
        <ele>120</ele>
        <time>2022-02-15T07:17:52Z</time>
      </trkpt>
      <trkpt lat="47.1466" lon="2.22015">
        <ele>121</ele>
        <time>2022-02-15T07:17:57Z</time>
      </trkpt>
      <trkpt lat="47.14647" lon="2.2199">
        <ele>121</ele>
        <time>2022-02-15T07:18:01Z</time>
      </trkpt>
      <trkpt lat="47.14625" lon="2.21906">
        <ele>124</ele>
        <time>2022-02-15T07:18:12Z</time>
      </trkpt>
      <trkpt lat="47.14615" lon="2.21891">
        <ele>124</ele>
        <time>2022-02-15T07:18:15Z</time>
      </trkpt>
      <trkpt lat="47.14601" lon="2.2189">
        <ele>124</ele>
        <time>2022-02-15T07:18:17Z</time>
      </trkpt>
      <trkpt lat="47.14569" lon="2.21909">
        <ele>124</ele>
        <time>2022-02-15T07:18:23Z</time>
      </trkpt>
      <trkpt lat="47.14523" lon="2.21932">
        <ele>122</ele>
        <time>2022-02-15T07:18:32Z</time>
      </trkpt>
      <trkpt lat="47.14505" lon="2.21933">
        <ele>122</ele>
        <time>2022-02-15T07:18:35Z</time>
      </trkpt>
      <trkpt lat="47.14499" lon="2.2187">
        <ele>121</ele>
        <time>2022-02-15T07:18:43Z</time>
      </trkpt>
      <trkpt lat="47.14481" lon="2.21765">
        <ele>121</ele>
        <time>2022-02-15T07:18:56Z</time>
      </trkpt>
      <trkpt lat="47.14482" lon="2.21761">
        <ele>122</ele>
        <time>2022-02-15T07:18:56Z</time>
      </trkpt>
      <trkpt lat="47.14482" lon="2.21757">
        <ele>122</ele>
        <time>2022-02-15T07:18:57Z</time>
      </trkpt>
      <trkpt lat="47.14478" lon="2.21754">
        <ele>122</ele>
        <time>2022-02-15T07:18:58Z</time>
      </trkpt>
      <trkpt lat="47.14476" lon="2.21744">
        <ele>122</ele>
        <time>2022-02-15T07:18:59Z</time>
      </trkpt>
      <trkpt lat="47.14475" lon="2.21739">
        <ele>122</ele>
        <time>2022-02-15T07:19:00Z</time>
      </trkpt>
      <trkpt lat="47.14469" lon="2.21659">
        <ele>123</ele>
        <time>2022-02-15T07:19:09Z</time>
      </trkpt>
      <trkpt lat="47.1441" lon="2.21479">
        <ele>117</ele>
        <time>2022-02-15T07:19:34Z</time>
      </trkpt>
      <trkpt lat="47.14367" lon="2.21322">
        <ele>115</ele>
        <time>2022-02-15T07:19:54Z</time>
      </trkpt>
      <trkpt lat="47.14339" lon="2.21249">
        <ele>114</ele>
        <time>2022-02-15T07:20:04Z</time>
      </trkpt>
      <trkpt lat="47.14322" lon="2.21205">
        <ele>114</ele>
        <time>2022-02-15T07:20:10Z</time>
      </trkpt>
      <trkpt lat="47.14279" lon="2.21089">
        <ele>116</ele>
        <time>2022-02-15T07:20:26Z</time>
      </trkpt>
      <trkpt lat="47.14272" lon="2.21073">
        <ele>116</ele>
        <time>2022-02-15T07:20:29Z</time>
      </trkpt>
      <trkpt lat="47.14262" lon="2.2105">
        <ele>116</ele>
        <time>2022-02-15T07:20:32Z</time>
      </trkpt>
      <trkpt lat="47.14255" lon="2.21039">
        <ele>116</ele>
        <time>2022-02-15T07:20:34Z</time>
      </trkpt>
      <trkpt lat="47.14215" lon="2.21012">
        <ele>117</ele>
        <time>2022-02-15T07:20:42Z</time>
      </trkpt>
      <trkpt lat="47.14176" lon="2.21044">
        <ele>118</ele>
        <time>2022-02-15T07:20:49Z</time>
      </trkpt>
      <trkpt lat="47.14126" lon="2.21108">
        <ele>119</ele>
        <time>2022-02-15T07:21:01Z</time>
      </trkpt>
      <trkpt lat="47.14119" lon="2.21114">
        <ele>119</ele>
        <time>2022-02-15T07:21:03Z</time>
      </trkpt>
      <trkpt lat="47.14109" lon="2.21117">
        <ele>120</ele>
        <time>2022-02-15T07:21:05Z</time>
      </trkpt>
      <trkpt lat="47.14097" lon="2.21117">
        <ele>120</ele>
        <time>2022-02-15T07:21:07Z</time>
      </trkpt>
      <trkpt lat="47.14016" lon="2.2107">
        <ele>121</ele>
        <time>2022-02-15T07:21:22Z</time>
      </trkpt>
      <trkpt lat="47.13922" lon="2.21044">
        <ele>121</ele>
        <time>2022-02-15T07:21:39Z</time>
      </trkpt>
      <trkpt lat="47.13883" lon="2.21036">
        <ele>121</ele>
        <time>2022-02-15T07:21:46Z</time>
      </trkpt>
      <trkpt lat="47.13869" lon="2.21036">
        <ele>121</ele>
        <time>2022-02-15T07:21:49Z</time>
      </trkpt>
      <trkpt lat="47.13858" lon="2.2104">
        <ele>121</ele>
        <time>2022-02-15T07:21:51Z</time>
      </trkpt>
      <trkpt lat="47.13731" lon="2.21106">
        <ele>123</ele>
        <time>2022-02-15T07:22:15Z</time>
      </trkpt>
      <trkpt lat="47.13677" lon="2.21133">
        <ele>123</ele>
        <time>2022-02-15T07:22:25Z</time>
      </trkpt>
      <trkpt lat="47.13653" lon="2.21133">
        <ele>123</ele>
        <time>2022-02-15T07:22:29Z</time>
      </trkpt>
      <trkpt lat="47.13422" lon="2.21076">
        <ele>120</ele>
        <time>2022-02-15T07:23:11Z</time>
      </trkpt>
      <trkpt lat="47.13384" lon="2.21063">
        <ele>120</ele>
        <time>2022-02-15T07:23:18Z</time>
      </trkpt>
      <trkpt lat="47.13294" lon="2.21015">
        <ele>121</ele>
        <time>2022-02-15T07:23:35Z</time>
      </trkpt>
      <trkpt lat="47.13269" lon="2.21008">
        <ele>121</ele>
        <time>2022-02-15T07:23:39Z</time>
      </trkpt>
      <trkpt lat="47.13246" lon="2.21007">
        <ele>121</ele>
        <time>2022-02-15T07:23:43Z</time>
      </trkpt>
      <trkpt lat="47.1321" lon="2.21016">
        <ele>120</ele>
        <time>2022-02-15T07:23:50Z</time>
      </trkpt>
      <trkpt lat="47.13127" lon="2.21048">
        <ele>119</ele>
        <time>2022-02-15T07:24:05Z</time>
      </trkpt>
      <trkpt lat="47.1309" lon="2.21067">
        <ele>119</ele>
        <time>2022-02-15T07:24:12Z</time>
      </trkpt>
      <trkpt lat="47.13046" lon="2.21097">
        <ele>118</ele>
        <time>2022-02-15T07:24:21Z</time>
      </trkpt>
      <trkpt lat="47.13033" lon="2.21102">
        <ele>118</ele>
        <time>2022-02-15T07:24:23Z</time>
      </trkpt>
      <trkpt lat="47.13025" lon="2.21101">
        <ele>118</ele>
        <time>2022-02-15T07:24:25Z</time>
      </trkpt>
      <trkpt lat="47.13021" lon="2.21096">
        <ele>118</ele>
        <time>2022-02-15T07:24:25Z</time>
      </trkpt>
      <trkpt lat="47.12971" lon="2.2093">
        <ele>122</ele>
        <time>2022-02-15T07:24:47Z</time>
      </trkpt>
      <trkpt lat="47.12966" lon="2.20919">
        <ele>122</ele>
        <time>2022-02-15T07:24:49Z</time>
      </trkpt>
      <trkpt lat="47.12942" lon="2.20879">
        <ele>122</ele>
        <time>2022-02-15T07:24:56Z</time>
      </trkpt>
      <trkpt lat="47.12923" lon="2.20855">
        <ele>123</ele>
        <time>2022-02-15T07:25:00Z</time>
      </trkpt>
      <trkpt lat="47.12762" lon="2.20744">
        <ele>121</ele>
        <time>2022-02-15T07:25:32Z</time>
      </trkpt>
      <trkpt lat="47.12623" lon="2.20667">
        <ele>121</ele>
        <time>2022-02-15T07:25:58Z</time>
      </trkpt>
      <trkpt lat="47.12563" lon="2.20646">
        <ele>122</ele>
        <time>2022-02-15T07:26:09Z</time>
      </trkpt>
      <trkpt lat="47.12203" lon="2.20557">
        <ele>125</ele>
        <time>2022-02-15T07:27:14Z</time>
      </trkpt>
      <trkpt lat="47.12147" lon="2.20547">
        <ele>126</ele>
        <time>2022-02-15T07:27:24Z</time>
      </trkpt>
      <trkpt lat="47.12131" lon="2.20548">
        <ele>126</ele>
        <time>2022-02-15T07:27:27Z</time>
      </trkpt>
      <trkpt lat="47.12096" lon="2.20558">
        <ele>125</ele>
        <time>2022-02-15T07:27:33Z</time>
      </trkpt>
      <trkpt lat="47.11838" lon="2.20664">
        <ele>122</ele>
        <time>2022-02-15T07:28:21Z</time>
      </trkpt>
      <trkpt lat="47.11809" lon="2.20667">
        <ele>122</ele>
        <time>2022-02-15T07:28:26Z</time>
      </trkpt>
      <trkpt lat="47.11668" lon="2.20664">
        <ele>123</ele>
        <time>2022-02-15T07:28:51Z</time>
      </trkpt>
      <trkpt lat="47.11652" lon="2.20662">
        <ele>123</ele>
        <time>2022-02-15T07:28:54Z</time>
      </trkpt>
      <trkpt lat="47.11644" lon="2.20656">
        <ele>123</ele>
        <time>2022-02-15T07:28:56Z</time>
      </trkpt>
      <trkpt lat="47.11581" lon="2.20593">
        <ele>125</ele>
        <time>2022-02-15T07:29:09Z</time>
      </trkpt>
      <trkpt lat="47.11548" lon="2.20566">
        <ele>125</ele>
        <time>2022-02-15T07:29:16Z</time>
      </trkpt>
      <trkpt lat="47.11333" lon="2.20471">
        <ele>124</ele>
        <time>2022-02-15T07:29:56Z</time>
      </trkpt>
      <trkpt lat="47.11293" lon="2.20444">
        <ele>124</ele>
        <time>2022-02-15T07:30:04Z</time>
      </trkpt>
      <trkpt lat="47.11243" lon="2.20389">
        <ele>124</ele>
        <time>2022-02-15T07:30:15Z</time>
      </trkpt>
      <trkpt lat="47.11223" lon="2.20361">
        <ele>123</ele>
        <time>2022-02-15T07:30:20Z</time>
      </trkpt>
      <trkpt lat="47.11182" lon="2.20284">
        <ele>121</ele>
        <time>2022-02-15T07:30:32Z</time>
      </trkpt>
      <trkpt lat="47.11151" lon="2.2023">
        <ele>121</ele>
        <time>2022-02-15T07:30:40Z</time>
      </trkpt>
      <trkpt lat="47.11094" lon="2.20131">
        <ele>122</ele>
        <time>2022-02-15T07:30:56Z</time>
      </trkpt>
      <trkpt lat="47.1103" lon="2.20038">
        <ele>121</ele>
        <time>2022-02-15T07:31:12Z</time>
      </trkpt>
      <trkpt lat="47.10922" lon="2.19889">
        <ele>121</ele>
        <time>2022-02-15T07:31:38Z</time>
      </trkpt>
      <trkpt lat="47.10903" lon="2.1986">
        <ele>121</ele>
        <time>2022-02-15T07:31:43Z</time>
      </trkpt>
      <trkpt lat="47.10867" lon="2.19809">
        <ele>121</ele>
        <time>2022-02-15T07:31:52Z</time>
      </trkpt>
      <trkpt lat="47.10843" lon="2.19778">
        <ele>122</ele>
        <time>2022-02-15T07:31:58Z</time>
      </trkpt>
      <trkpt lat="47.1083" lon="2.19766">
        <ele>122</ele>
        <time>2022-02-15T07:32:00Z</time>
      </trkpt>
      <trkpt lat="47.10808" lon="2.19756">
        <ele>122</ele>
        <time>2022-02-15T07:32:04Z</time>
      </trkpt>
      <trkpt lat="47.10747" lon="2.19747">
        <ele>122</ele>
        <time>2022-02-15T07:32:15Z</time>
      </trkpt>
      <trkpt lat="47.10634" lon="2.19736">
        <ele>117</ele>
        <time>2022-02-15T07:32:36Z</time>
      </trkpt>
      <trkpt lat="47.10555" lon="2.19715">
        <ele>114</ele>
        <time>2022-02-15T07:32:50Z</time>
      </trkpt>
      <trkpt lat="47.09975" lon="2.19515">
        <ele>122</ele>
        <time>2022-02-15T07:34:36Z</time>
      </trkpt>
      <trkpt lat="47.09651" lon="2.19411">
        <ele>117</ele>
        <time>2022-02-15T07:35:35Z</time>
      </trkpt>
      <trkpt lat="47.09526" lon="2.19376">
        <ele>120</ele>
        <time>2022-02-15T07:35:57Z</time>
      </trkpt>
      <trkpt lat="47.09507" lon="2.19373">
        <ele>121</ele>
        <time>2022-02-15T07:36:01Z</time>
      </trkpt>
      <trkpt lat="47.09486" lon="2.19376">
        <ele>121</ele>
        <time>2022-02-15T07:36:05Z</time>
      </trkpt>
      <trkpt lat="47.08997" lon="2.19581">
        <ele>122</ele>
        <time>2022-02-15T07:37:35Z</time>
      </trkpt>
      <trkpt lat="47.08806" lon="2.19649">
        <ele>118</ele>
        <time>2022-02-15T07:38:10Z</time>
      </trkpt>
      <trkpt lat="47.08426" lon="2.19791">
        <ele>120</ele>
        <time>2022-02-15T07:39:20Z</time>
      </trkpt>
      <trkpt lat="47.08059" lon="2.19924">
        <ele>128</ele>
        <time>2022-02-15T07:40:27Z</time>
      </trkpt>
      <trkpt lat="47.0805" lon="2.19925">
        <ele>128</ele>
        <time>2022-02-15T07:40:29Z</time>
      </trkpt>
      <trkpt lat="47.08039" lon="2.19918">
        <ele>128</ele>
        <time>2022-02-15T07:40:31Z</time>
      </trkpt>
      <trkpt lat="47.08013" lon="2.19886">
        <ele>126</ele>
        <time>2022-02-15T07:40:37Z</time>
      </trkpt>
      <trkpt lat="47.08007" lon="2.19882">
        <ele>126</ele>
        <time>2022-02-15T07:40:38Z</time>
      </trkpt>
      <trkpt lat="47.07993" lon="2.19884">
        <ele>125</ele>
        <time>2022-02-15T07:40:41Z</time>
      </trkpt>
      <trkpt lat="47.07972" lon="2.19897">
        <ele>124</ele>
        <time>2022-02-15T07:40:45Z</time>
      </trkpt>
      <trkpt lat="47.07859" lon="2.19986">
        <ele>119</ele>
        <time>2022-02-15T07:41:07Z</time>
      </trkpt>
      <trkpt lat="47.07839" lon="2.19995">
        <ele>119</ele>
        <time>2022-02-15T07:41:11Z</time>
      </trkpt>
      <trkpt lat="47.07691" lon="2.20079">
        <ele>115</ele>
        <time>2022-02-15T07:41:39Z</time>
      </trkpt>
      <trkpt lat="47.07625" lon="2.20112">
        <ele>114</ele>
        <time>2022-02-15T07:41:52Z</time>
      </trkpt>
      <trkpt lat="47.07391" lon="2.202">
        <ele>117</ele>
        <time>2022-02-15T07:42:35Z</time>
      </trkpt>
      <trkpt lat="47.06716" lon="2.20446">
        <ele>119</ele>
        <time>2022-02-15T07:44:38Z</time>
      </trkpt>
      <trkpt lat="47.06601" lon="2.20491">
        <ele>120</ele>
        <time>2022-02-15T07:45:00Z</time>
      </trkpt>
      <trkpt lat="47.0639" lon="2.20566">
        <ele>127</ele>
        <time>2022-02-15T07:45:38Z</time>
      </trkpt>
      <trkpt lat="47.06361" lon="2.20579">
        <ele>128</ele>
        <time>2022-02-15T07:45:44Z</time>
      </trkpt>
      <trkpt lat="47.06326" lon="2.20603">
        <ele>130</ele>
        <time>2022-02-15T07:45:51Z</time>
      </trkpt>
      <trkpt lat="47.0588" lon="2.20971">
        <ele>134</ele>
        <time>2022-02-15T07:47:22Z</time>
      </trkpt>
      <trkpt lat="47.05846" lon="2.20992">
        <ele>134</ele>
        <time>2022-02-15T07:47:28Z</time>
      </trkpt>
      <trkpt lat="47.05802" lon="2.21014">
        <ele>136</ele>
        <time>2022-02-15T07:47:36Z</time>
      </trkpt>
      <trkpt lat="47.0565" lon="2.2108">
        <ele>136</ele>
        <time>2022-02-15T07:48:05Z</time>
      </trkpt>
      <trkpt lat="47.05611" lon="2.21095">
        <ele>135</ele>
        <time>2022-02-15T07:48:12Z</time>
      </trkpt>
      <trkpt lat="47.05581" lon="2.21117">
        <ele>134</ele>
        <time>2022-02-15T07:48:18Z</time>
      </trkpt>
      <trkpt lat="47.05447" lon="2.21239">
        <ele>127</ele>
        <time>2022-02-15T07:48:46Z</time>
      </trkpt>
      <trkpt lat="47.05431" lon="2.21245">
        <ele>126</ele>
        <time>2022-02-15T07:48:49Z</time>
      </trkpt>
      <trkpt lat="47.05415" lon="2.21247">
        <ele>125</ele>
        <time>2022-02-15T07:48:52Z</time>
      </trkpt>
      <trkpt lat="47.05401" lon="2.21245">
        <ele>124</ele>
        <time>2022-02-15T07:48:54Z</time>
      </trkpt>
      <trkpt lat="47.05368" lon="2.21231">
        <ele>121</ele>
        <time>2022-02-15T07:49:00Z</time>
      </trkpt>
      <trkpt lat="47.05282" lon="2.21185">
        <ele>116</ele>
        <time>2022-02-15T07:49:17Z</time>
      </trkpt>
      <trkpt lat="47.05255" lon="2.21176">
        <ele>115</ele>
        <time>2022-02-15T07:49:21Z</time>
      </trkpt>
      <trkpt lat="47.05246" lon="2.21176">
        <ele>115</ele>
        <time>2022-02-15T07:49:23Z</time>
      </trkpt>
      <trkpt lat="47.05213" lon="2.21177">
        <ele>116</ele>
        <time>2022-02-15T07:49:29Z</time>
      </trkpt>
      <trkpt lat="47.04908" lon="2.21202">
        <ele>120</ele>
        <time>2022-02-15T07:50:23Z</time>
      </trkpt>
      <trkpt lat="47.04876" lon="2.212">
        <ele>120</ele>
        <time>2022-02-15T07:50:29Z</time>
      </trkpt>
      <trkpt lat="47.04842" lon="2.21193">
        <ele>119</ele>
        <time>2022-02-15T07:50:35Z</time>
      </trkpt>
      <trkpt lat="47.04611" lon="2.21129">
        <ele>126</ele>
        <time>2022-02-15T07:51:17Z</time>
      </trkpt>
      <trkpt lat="47.04581" lon="2.2113">
        <ele>127</ele>
        <time>2022-02-15T07:51:22Z</time>
      </trkpt>
      <trkpt lat="47.04532" lon="2.21151">
        <ele>127</ele>
        <time>2022-02-15T07:51:31Z</time>
      </trkpt>
      <trkpt lat="47.04285" lon="2.21278">
        <ele>135</ele>
        <time>2022-02-15T07:52:18Z</time>
      </trkpt>
      <trkpt lat="47.0426" lon="2.21297">
        <ele>134</ele>
        <time>2022-02-15T07:52:23Z</time>
      </trkpt>
      <trkpt lat="47.04122" lon="2.2142">
        <ele>137</ele>
        <time>2022-02-15T07:52:52Z</time>
      </trkpt>
      <trkpt lat="47.04091" lon="2.2145">
        <ele>138</ele>
        <time>2022-02-15T07:52:58Z</time>
      </trkpt>
      <trkpt lat="47.04049" lon="2.21483">
        <ele>139</ele>
        <time>2022-02-15T07:53:07Z</time>
      </trkpt>
      <trkpt lat="47.03941" lon="2.21547">
        <ele>141</ele>
        <time>2022-02-15T07:53:27Z</time>
      </trkpt>
      <trkpt lat="47.0386" lon="2.21599">
        <ele>140</ele>
        <time>2022-02-15T07:53:43Z</time>
      </trkpt>
      <trkpt lat="47.03843" lon="2.21618">
        <ele>140</ele>
        <time>2022-02-15T07:53:47Z</time>
      </trkpt>
      <trkpt lat="47.03813" lon="2.21703">
        <ele>142</ele>
        <time>2022-02-15T07:53:59Z</time>
      </trkpt>
      <trkpt lat="47.03788" lon="2.21743">
        <ele>142</ele>
        <time>2022-02-15T07:54:05Z</time>
      </trkpt>
      <trkpt lat="47.03754" lon="2.2178">
        <ele>142</ele>
        <time>2022-02-15T07:54:13Z</time>
      </trkpt>
      <trkpt lat="47.03673" lon="2.21844">
        <ele>143</ele>
        <time>2022-02-15T07:54:29Z</time>
      </trkpt>
      <trkpt lat="47.03649" lon="2.21872">
        <ele>143</ele>
        <time>2022-02-15T07:54:35Z</time>
      </trkpt>
      <trkpt lat="47.03582" lon="2.21964">
        <ele>144</ele>
        <time>2022-02-15T07:54:51Z</time>
      </trkpt>
      <trkpt lat="47.03551" lon="2.22003">
        <ele>143</ele>
        <time>2022-02-15T07:54:58Z</time>
      </trkpt>
      <trkpt lat="47.03478" lon="2.22073">
        <ele>139</ele>
        <time>2022-02-15T07:55:14Z</time>
      </trkpt>
      <trkpt lat="47.03456" lon="2.22105">
        <ele>139</ele>
        <time>2022-02-15T07:55:19Z</time>
      </trkpt>
      <trkpt lat="47.03426" lon="2.22145">
        <ele>138</ele>
        <time>2022-02-15T07:55:26Z</time>
      </trkpt>
      <trkpt lat="47.03284" lon="2.22297">
        <ele>132</ele>
        <time>2022-02-15T07:55:58Z</time>
      </trkpt>
      <trkpt lat="47.0325" lon="2.22326">
        <ele>130</ele>
        <time>2022-02-15T07:56:05Z</time>
      </trkpt>
      <trkpt lat="47.03213" lon="2.22348">
        <ele>129</ele>
        <time>2022-02-15T07:56:12Z</time>
      </trkpt>
      <trkpt lat="47.03151" lon="2.2237">
        <ele>127</ele>
        <time>2022-02-15T07:56:23Z</time>
      </trkpt>
      <trkpt lat="47.03136" lon="2.22374">
        <ele>126</ele>
        <time>2022-02-15T07:56:26Z</time>
      </trkpt>
      <trkpt lat="47.03099" lon="2.22376">
        <ele>124</ele>
        <time>2022-02-15T07:56:32Z</time>
      </trkpt>
      <trkpt lat="47.03067" lon="2.22371">
        <ele>123</ele>
        <time>2022-02-15T07:56:38Z</time>
      </trkpt>
      <trkpt lat="47.03018" lon="2.22359">
        <ele>122</ele>
        <time>2022-02-15T07:56:47Z</time>
      </trkpt>
      <trkpt lat="47.02925" lon="2.22374">
        <ele>125</ele>
        <time>2022-02-15T07:57:04Z</time>
      </trkpt>
      <trkpt lat="47.02908" lon="2.22316">
        <ele>124</ele>
        <time>2022-02-15T07:57:11Z</time>
      </trkpt>
      <trkpt lat="47.02902" lon="2.22279">
        <ele>122</ele>
        <time>2022-02-15T07:57:16Z</time>
      </trkpt>
      <trkpt lat="47.02847" lon="2.22272">
        <ele>123</ele>
        <time>2022-02-15T07:57:26Z</time>
      </trkpt>
      <trkpt lat="47.02749" lon="2.22285">
        <ele>122</ele>
        <time>2022-02-15T07:57:43Z</time>
      </trkpt>
      <trkpt lat="47.02688" lon="2.22285">
        <ele>123</ele>
        <time>2022-02-15T07:57:54Z</time>
      </trkpt>
      <trkpt lat="47.02583" lon="2.22292">
        <ele>126</ele>
        <time>2022-02-15T07:58:13Z</time>
      </trkpt>
      <trkpt lat="47.02457" lon="2.22295">
        <ele>129</ele>
        <time>2022-02-15T07:58:35Z</time>
      </trkpt>
      <trkpt lat="47.0244" lon="2.22292">
        <ele>130</ele>
        <time>2022-02-15T07:58:38Z</time>
      </trkpt>
      <trkpt lat="47.02286" lon="2.22243">
        <ele>130</ele>
        <time>2022-02-15T07:59:06Z</time>
      </trkpt>
      <trkpt lat="47.02272" lon="2.22237">
        <ele>130</ele>
        <time>2022-02-15T07:59:09Z</time>
      </trkpt>
      <trkpt lat="47.02143" lon="2.22162">
        <ele>125</ele>
        <time>2022-02-15T07:59:34Z</time>
      </trkpt>
      <trkpt lat="47.0212" lon="2.22155">
        <ele>125</ele>
        <time>2022-02-15T07:59:38Z</time>
      </trkpt>
      <trkpt lat="47.02096" lon="2.22151">
        <ele>124</ele>
        <time>2022-02-15T07:59:42Z</time>
      </trkpt>
      <trkpt lat="47.02035" lon="2.22151">
        <ele>123</ele>
        <time>2022-02-15T07:59:53Z</time>
      </trkpt>
      <trkpt lat="47.01977" lon="2.22156">
        <ele>123</ele>
        <time>2022-02-15T08:00:03Z</time>
      </trkpt>
      <trkpt lat="47.01851" lon="2.22185">
        <ele>124</ele>
        <time>2022-02-15T08:00:26Z</time>
      </trkpt>
      <trkpt lat="47.01773" lon="2.22211">
        <ele>124</ele>
        <time>2022-02-15T08:00:40Z</time>
      </trkpt>
      <trkpt lat="47.01703" lon="2.22264">
        <ele>124</ele>
        <time>2022-02-15T08:00:54Z</time>
      </trkpt>
      <trkpt lat="47.01679" lon="2.22279">
        <ele>124</ele>
        <time>2022-02-15T08:00:59Z</time>
      </trkpt>
      <trkpt lat="47.01653" lon="2.22289">
        <ele>125</ele>
        <time>2022-02-15T08:01:04Z</time>
      </trkpt>
      <trkpt lat="47.01509" lon="2.22337">
        <ele>125</ele>
        <time>2022-02-15T08:01:30Z</time>
      </trkpt>
      <trkpt lat="47.01463" lon="2.22362">
        <ele>125</ele>
        <time>2022-02-15T08:01:39Z</time>
      </trkpt>
      <trkpt lat="47.01423" lon="2.22392">
        <ele>124</ele>
        <time>2022-02-15T08:01:47Z</time>
      </trkpt>
      <trkpt lat="47.01131" lon="2.22675">
        <ele>129</ele>
        <time>2022-02-15T08:02:49Z</time>
      </trkpt>
      <trkpt lat="47.01099" lon="2.22704">
        <ele>130</ele>
        <time>2022-02-15T08:02:56Z</time>
      </trkpt>
      <trkpt lat="47.01051" lon="2.22729">
        <ele>131</ele>
        <time>2022-02-15T08:03:05Z</time>
      </trkpt>
      <trkpt lat="47.00715" lon="2.22856">
        <ele>131</ele>
        <time>2022-02-15T08:04:06Z</time>
      </trkpt>
      <trkpt lat="47.00656" lon="2.22882">
        <ele>130</ele>
        <time>2022-02-15T08:04:17Z</time>
      </trkpt>
      <trkpt lat="47.00626" lon="2.22901">
        <ele>131</ele>
        <time>2022-02-15T08:04:23Z</time>
      </trkpt>
      <trkpt lat="47.00599" lon="2.22924">
        <ele>131</ele>
        <time>2022-02-15T08:04:29Z</time>
      </trkpt>
      <trkpt lat="47.00574" lon="2.22938">
        <ele>131</ele>
        <time>2022-02-15T08:04:33Z</time>
      </trkpt>
      <trkpt lat="47.00541" lon="2.22945">
        <ele>132</ele>
        <time>2022-02-15T08:04:39Z</time>
      </trkpt>
      <trkpt lat="47.00516" lon="2.22944">
        <ele>133</ele>
        <time>2022-02-15T08:04:44Z</time>
      </trkpt>
      <trkpt lat="47.00491" lon="2.22957">
        <ele>134</ele>
        <time>2022-02-15T08:04:49Z</time>
      </trkpt>
      <trkpt lat="47.00463" lon="2.22984">
        <ele>135</ele>
        <time>2022-02-15T08:04:54Z</time>
      </trkpt>
      <trkpt lat="47.00429" lon="2.23037">
        <ele>138</ele>
        <time>2022-02-15T08:05:03Z</time>
      </trkpt>
      <trkpt lat="47.00389" lon="2.23107">
        <ele>138</ele>
        <time>2022-02-15T08:05:14Z</time>
      </trkpt>
      <trkpt lat="47.00361" lon="2.23168">
        <ele>138</ele>
        <time>2022-02-15T08:05:23Z</time>
      </trkpt>
      <trkpt lat="47.00224" lon="2.23573">
        <ele>132</ele>
        <time>2022-02-15T08:06:18Z</time>
      </trkpt>
      <trkpt lat="47.00208" lon="2.23628">
        <ele>132</ele>
        <time>2022-02-15T08:06:25Z</time>
      </trkpt>
      <trkpt lat="47.00167" lon="2.2381">
        <ele>130</ele>
        <time>2022-02-15T08:06:49Z</time>
      </trkpt>
      <trkpt lat="47.00153" lon="2.23855">
        <ele>130</ele>
        <time>2022-02-15T08:06:55Z</time>
      </trkpt>
      <trkpt lat="47.00136" lon="2.23884">
        <ele>131</ele>
        <time>2022-02-15T08:06:59Z</time>
      </trkpt>
      <trkpt lat="47.00119" lon="2.23904">
        <ele>131</ele>
        <time>2022-02-15T08:07:03Z</time>
      </trkpt>
      <trkpt lat="46.99652" lon="2.24288">
        <ele>136</ele>
        <time>2022-02-15T08:08:38Z</time>
      </trkpt>
      <trkpt lat="46.99628" lon="2.24313">
        <ele>136</ele>
        <time>2022-02-15T08:08:44Z</time>
      </trkpt>
      <trkpt lat="46.99614" lon="2.24343">
        <ele>135</ele>
        <time>2022-02-15T08:08:48Z</time>
      </trkpt>
      <trkpt lat="46.99538" lon="2.24558">
        <ele>132</ele>
        <time>2022-02-15T08:09:18Z</time>
      </trkpt>
      <trkpt lat="46.99491" lon="2.24639">
        <ele>133</ele>
        <time>2022-02-15T08:09:30Z</time>
      </trkpt>
      <trkpt lat="46.99418" lon="2.24757">
        <ele>135</ele>
        <time>2022-02-15T08:09:50Z</time>
      </trkpt>
      <trkpt lat="46.99331" lon="2.24693">
        <ele>133</ele>
        <time>2022-02-15T08:10:07Z</time>
      </trkpt>
      <trkpt lat="46.99323" lon="2.24687">
        <ele>133</ele>
        <time>2022-02-15T08:10:09Z</time>
      </trkpt>
      <trkpt lat="46.99318" lon="2.24689">
        <ele>133</ele>
        <time>2022-02-15T08:10:10Z</time>
      </trkpt>
      <trkpt lat="46.99239" lon="2.24512">
        <ele>127</ele>
        <time>2022-02-15T08:10:35Z</time>
      </trkpt>
      <trkpt lat="46.99201" lon="2.24549">
        <ele>126</ele>
        <time>2022-02-15T08:10:43Z</time>
      </trkpt>
      <trkpt lat="46.99186" lon="2.24587">
        <ele>127</ele>
        <time>2022-02-15T08:10:49Z</time>
      </trkpt>
      <trkpt lat="46.99178" lon="2.24597">
        <ele>127</ele>
        <time>2022-02-15T08:10:51Z</time>
      </trkpt>
      <trkpt lat="46.99118" lon="2.24662">
        <ele>129</ele>
        <time>2022-02-15T08:11:04Z</time>
      </trkpt>
      <trkpt lat="46.9911" lon="2.2467">
        <ele>130</ele>
        <time>2022-02-15T08:11:06Z</time>
      </trkpt>
      <trkpt lat="46.99011" lon="2.24708">
        <ele>129</ele>
        <time>2022-02-15T08:11:24Z</time>
      </trkpt>
      <trkpt lat="46.98982" lon="2.24716">
        <ele>129</ele>
        <time>2022-02-15T08:11:29Z</time>
      </trkpt>
      <trkpt lat="46.98859" lon="2.24772">
        <ele>127</ele>
        <time>2022-02-15T08:11:52Z</time>
      </trkpt>
      <trkpt lat="46.98839" lon="2.24783">
        <ele>127</ele>
        <time>2022-02-15T08:11:56Z</time>
      </trkpt>
      <trkpt lat="46.98805" lon="2.24808">
        <ele>127</ele>
        <time>2022-02-15T08:12:03Z</time>
      </trkpt>
      <trkpt lat="46.98776" lon="2.24834">
        <ele>127</ele>
        <time>2022-02-15T08:12:09Z</time>
      </trkpt>
      <trkpt lat="46.98697" lon="2.24918">
        <ele>131</ele>
        <time>2022-02-15T08:12:26Z</time>
      </trkpt>
      <trkpt lat="46.98635" lon="2.24973">
        <ele>129</ele>
        <time>2022-02-15T08:12:39Z</time>
      </trkpt>
      <trkpt lat="46.98604" lon="2.24996">
        <ele>127</ele>
        <time>2022-02-15T08:12:45Z</time>
      </trkpt>
      <trkpt lat="46.9855" lon="2.25025">
        <ele>126</ele>
        <time>2022-02-15T08:12:55Z</time>
      </trkpt>
      <trkpt lat="46.98353" lon="2.25152">
        <ele>126</ele>
        <time>2022-02-15T08:13:34Z</time>
      </trkpt>
      <trkpt lat="46.98339" lon="2.25165">
        <ele>126</ele>
        <time>2022-02-15T08:13:36Z</time>
      </trkpt>
      <trkpt lat="46.98328" lon="2.25179">
        <ele>127</ele>
        <time>2022-02-15T08:13:39Z</time>
      </trkpt>
      <trkpt lat="46.98292" lon="2.25235">
        <ele>128</ele>
        <time>2022-02-15T08:13:48Z</time>
      </trkpt>
      <trkpt lat="46.98267" lon="2.2526">
        <ele>128</ele>
        <time>2022-02-15T08:13:54Z</time>
      </trkpt>
      <trkpt lat="46.98244" lon="2.25272">
        <ele>128</ele>
        <time>2022-02-15T08:13:58Z</time>
      </trkpt>
      <trkpt lat="46.9822" lon="2.2528">
        <ele>128</ele>
        <time>2022-02-15T08:14:03Z</time>
      </trkpt>
      <trkpt lat="46.9818" lon="2.25287">
        <ele>129</ele>
        <time>2022-02-15T08:14:10Z</time>
      </trkpt>
      <trkpt lat="46.98142" lon="2.25297">
        <ele>129</ele>
        <time>2022-02-15T08:14:17Z</time>
      </trkpt>
      <trkpt lat="46.98116" lon="2.25309">
        <ele>130</ele>
        <time>2022-02-15T08:14:21Z</time>
      </trkpt>
      <trkpt lat="46.9799" lon="2.25381">
        <ele>130</ele>
        <time>2022-02-15T08:14:45Z</time>
      </trkpt>
      <trkpt lat="46.97977" lon="2.25392">
        <ele>131</ele>
        <time>2022-02-15T08:14:48Z</time>
      </trkpt>
      <trkpt lat="46.9793" lon="2.25435">
        <ele>129</ele>
        <time>2022-02-15T08:14:58Z</time>
      </trkpt>
      <trkpt lat="46.97897" lon="2.25455">
        <ele>130</ele>
        <time>2022-02-15T08:15:04Z</time>
      </trkpt>
      <trkpt lat="46.97821" lon="2.25493">
        <ele>132</ele>
        <time>2022-02-15T08:15:19Z</time>
      </trkpt>
      <trkpt lat="46.97797" lon="2.25508">
        <ele>131</ele>
        <time>2022-02-15T08:15:23Z</time>
      </trkpt>
      <trkpt lat="46.9778" lon="2.25523">
        <ele>131</ele>
        <time>2022-02-15T08:15:27Z</time>
      </trkpt>
      <trkpt lat="46.97764" lon="2.2554">
        <ele>131</ele>
        <time>2022-02-15T08:15:30Z</time>
      </trkpt>
      <trkpt lat="46.9773" lon="2.25589">
        <ele>132</ele>
        <time>2022-02-15T08:15:39Z</time>
      </trkpt>
      <trkpt lat="46.97707" lon="2.25617">
        <ele>133</ele>
        <time>2022-02-15T08:15:44Z</time>
      </trkpt>
      <trkpt lat="46.97676" lon="2.25648">
        <ele>134</ele>
        <time>2022-02-15T08:15:51Z</time>
      </trkpt>
      <trkpt lat="46.97564" lon="2.25749">
        <ele>135</ele>
        <time>2022-02-15T08:16:14Z</time>
      </trkpt>
      <trkpt lat="46.9755" lon="2.25757">
        <ele>135</ele>
        <time>2022-02-15T08:16:17Z</time>
      </trkpt>
      <trkpt lat="46.97538" lon="2.25762">
        <ele>134</ele>
        <time>2022-02-15T08:16:19Z</time>
      </trkpt>
      <trkpt lat="46.97359" lon="2.25781">
        <ele>127</ele>
        <time>2022-02-15T08:16:51Z</time>
      </trkpt>
      <trkpt lat="46.97342" lon="2.25784">
        <ele>126</ele>
        <time>2022-02-15T08:16:54Z</time>
      </trkpt>
      <trkpt lat="46.9733" lon="2.25791">
        <ele>126</ele>
        <time>2022-02-15T08:16:56Z</time>
      </trkpt>
      <trkpt lat="46.97313" lon="2.25811">
        <ele>126</ele>
        <time>2022-02-15T08:17:00Z</time>
      </trkpt>
      <trkpt lat="46.97307" lon="2.25823">
        <ele>127</ele>
        <time>2022-02-15T08:17:02Z</time>
      </trkpt>
      <trkpt lat="46.97301" lon="2.25844">
        <ele>127</ele>
        <time>2022-02-15T08:17:05Z</time>
      </trkpt>
      <trkpt lat="46.97293" lon="2.25931">
        <ele>131</ele>
        <time>2022-02-15T08:17:16Z</time>
      </trkpt>
      <trkpt lat="46.97289" lon="2.25961">
        <ele>132</ele>
        <time>2022-02-15T08:17:19Z</time>
      </trkpt>
      <trkpt lat="46.97279" lon="2.25985">
        <ele>132</ele>
        <time>2022-02-15T08:17:23Z</time>
      </trkpt>
      <trkpt lat="46.97267" lon="2.26">
        <ele>132</ele>
        <time>2022-02-15T08:17:25Z</time>
      </trkpt>
      <trkpt lat="46.97253" lon="2.26012">
        <ele>133</ele>
        <time>2022-02-15T08:17:28Z</time>
      </trkpt>
      <trkpt lat="46.97191" lon="2.26044">
        <ele>138</ele>
        <time>2022-02-15T08:17:40Z</time>
      </trkpt>
      <trkpt lat="46.97174" lon="2.26056">
        <ele>139</ele>
        <time>2022-02-15T08:17:43Z</time>
      </trkpt>
      <trkpt lat="46.9714" lon="2.26086">
        <ele>143</ele>
        <time>2022-02-15T08:17:50Z</time>
      </trkpt>
      <trkpt lat="46.97114" lon="2.26122">
        <ele>145</ele>
        <time>2022-02-15T08:17:57Z</time>
      </trkpt>
      <trkpt lat="46.96855" lon="2.26506">
        <ele>142</ele>
        <time>2022-02-15T08:19:02Z</time>
      </trkpt>
      <trkpt lat="46.96829" lon="2.26549">
        <ele>141</ele>
        <time>2022-02-15T08:19:09Z</time>
      </trkpt>
      <trkpt lat="46.96796" lon="2.26611">
        <ele>141</ele>
        <time>2022-02-15T08:19:19Z</time>
      </trkpt>
      <trkpt lat="46.96658" lon="2.26908">
        <ele>140</ele>
        <time>2022-02-15T08:20:03Z</time>
      </trkpt>
      <trkpt lat="46.9664" lon="2.2694">
        <ele>141</ele>
        <time>2022-02-15T08:20:08Z</time>
      </trkpt>
      <trkpt lat="46.96622" lon="2.26964">
        <ele>141</ele>
        <time>2022-02-15T08:20:12Z</time>
      </trkpt>
      <trkpt lat="46.96603" lon="2.26985">
        <ele>140</ele>
        <time>2022-02-15T08:20:16Z</time>
      </trkpt>
      <trkpt lat="46.96579" lon="2.27005">
        <ele>139</ele>
        <time>2022-02-15T08:20:21Z</time>
      </trkpt>
      <trkpt lat="46.96565" lon="2.27014">
        <ele>139</ele>
        <time>2022-02-15T08:20:24Z</time>
      </trkpt>
      <trkpt lat="46.96525" lon="2.27029">
        <ele>137</ele>
        <time>2022-02-15T08:20:31Z</time>
      </trkpt>
      <trkpt lat="46.96435" lon="2.27048">
        <ele>135</ele>
        <time>2022-02-15T08:20:47Z</time>
      </trkpt>
      <trkpt lat="46.96236" lon="2.27085">
        <ele>137</ele>
        <time>2022-02-15T08:21:23Z</time>
      </trkpt>
      <trkpt lat="46.96205" lon="2.27093">
        <ele>139</ele>
        <time>2022-02-15T08:21:29Z</time>
      </trkpt>
      <trkpt lat="46.96156" lon="2.27113">
        <ele>141</ele>
        <time>2022-02-15T08:21:38Z</time>
      </trkpt>
      <trkpt lat="46.96122" lon="2.27129">
        <ele>142</ele>
        <time>2022-02-15T08:21:44Z</time>
      </trkpt>
      <trkpt lat="46.96093" lon="2.27133">
        <ele>143</ele>
        <time>2022-02-15T08:21:49Z</time>
      </trkpt>
      <trkpt lat="46.95914" lon="2.27124">
        <ele>145</ele>
        <time>2022-02-15T08:22:21Z</time>
      </trkpt>
      <trkpt lat="46.95891" lon="2.27127">
        <ele>145</ele>
        <time>2022-02-15T08:22:25Z</time>
      </trkpt>
      <trkpt lat="46.95859" lon="2.27134">
        <ele>146</ele>
        <time>2022-02-15T08:22:31Z</time>
      </trkpt>
      <trkpt lat="46.95579" lon="2.27241">
        <ele>148</ele>
        <time>2022-02-15T08:23:22Z</time>
      </trkpt>
      <trkpt lat="46.95534" lon="2.27262">
        <ele>149</ele>
        <time>2022-02-15T08:23:31Z</time>
      </trkpt>
      <trkpt lat="46.95474" lon="2.27301">
        <ele>150</ele>
        <time>2022-02-15T08:23:42Z</time>
      </trkpt>
      <trkpt lat="46.95438" lon="2.27329">
        <ele>149</ele>
        <time>2022-02-15T08:23:50Z</time>
      </trkpt>
      <trkpt lat="46.95287" lon="2.27467">
        <ele>147</ele>
        <time>2022-02-15T08:24:21Z</time>
      </trkpt>
      <trkpt lat="46.95204" lon="2.27532">
        <ele>148</ele>
        <time>2022-02-15T08:24:38Z</time>
      </trkpt>
      <trkpt lat="46.9517" lon="2.27555">
        <ele>148</ele>
        <time>2022-02-15T08:24:45Z</time>
      </trkpt>
      <trkpt lat="46.94774" lon="2.27802">
        <ele>150</ele>
        <time>2022-02-15T08:26:01Z</time>
      </trkpt>
      <trkpt lat="46.94711" lon="2.27846">
        <ele>150</ele>
        <time>2022-02-15T08:26:14Z</time>
      </trkpt>
      <trkpt lat="46.94657" lon="2.27891">
        <ele>151</ele>
        <time>2022-02-15T08:26:25Z</time>
      </trkpt>
      <trkpt lat="46.94629" lon="2.27918">
        <ele>151</ele>
        <time>2022-02-15T08:26:31Z</time>
      </trkpt>
      <trkpt lat="46.94596" lon="2.27957">
        <ele>151</ele>
        <time>2022-02-15T08:26:38Z</time>
      </trkpt>
      <trkpt lat="46.94435" lon="2.28177">
        <ele>149</ele>
        <time>2022-02-15T08:27:18Z</time>
      </trkpt>
      <trkpt lat="46.94149" lon="2.28568">
        <ele>149</ele>
        <time>2022-02-15T08:28:27Z</time>
      </trkpt>
      <trkpt lat="46.94118" lon="2.28614">
        <ele>149</ele>
        <time>2022-02-15T08:28:35Z</time>
      </trkpt>
      <trkpt lat="46.94085" lon="2.28667">
        <ele>152</ele>
        <time>2022-02-15T08:28:44Z</time>
      </trkpt>
      <trkpt lat="46.9404" lon="2.28755">
        <ele>150</ele>
        <time>2022-02-15T08:28:57Z</time>
      </trkpt>
      <trkpt lat="46.93942" lon="2.28959">
        <ele>151</ele>
        <time>2022-02-15T08:29:27Z</time>
      </trkpt>
      <trkpt lat="46.93913" lon="2.2901">
        <ele>151</ele>
        <time>2022-02-15T08:29:35Z</time>
      </trkpt>
      <trkpt lat="46.93889" lon="2.29048">
        <ele>151</ele>
        <time>2022-02-15T08:29:42Z</time>
      </trkpt>
      <trkpt lat="46.93842" lon="2.29113">
        <ele>152</ele>
        <time>2022-02-15T08:29:53Z</time>
      </trkpt>
      <trkpt lat="46.93812" lon="2.29147">
        <ele>152</ele>
        <time>2022-02-15T08:30:00Z</time>
      </trkpt>
      <trkpt lat="46.9378" lon="2.2918">
        <ele>152</ele>
        <time>2022-02-15T08:30:07Z</time>
      </trkpt>
      <trkpt lat="46.93747" lon="2.29209">
        <ele>151</ele>
        <time>2022-02-15T08:30:14Z</time>
      </trkpt>
      <trkpt lat="46.93671" lon="2.29266">
        <ele>150</ele>
        <time>2022-02-15T08:30:29Z</time>
      </trkpt>
      <trkpt lat="46.93643" lon="2.29282">
        <ele>150</ele>
        <time>2022-02-15T08:30:34Z</time>
      </trkpt>
      <trkpt lat="46.93598" lon="2.29301">
        <ele>151</ele>
        <time>2022-02-15T08:30:43Z</time>
      </trkpt>
      <trkpt lat="46.93538" lon="2.29318">
        <ele>151</ele>
        <time>2022-02-15T08:30:54Z</time>
      </trkpt>
      <trkpt lat="46.93159" lon="2.29402">
        <ele>146</ele>
        <time>2022-02-15T08:32:02Z</time>
      </trkpt>
      <trkpt lat="46.92594" lon="2.29529">
        <ele>153</ele>
        <time>2022-02-15T08:33:43Z</time>
      </trkpt>
      <trkpt lat="46.92576" lon="2.29535">
        <ele>151</ele>
        <time>2022-02-15T08:33:47Z</time>
      </trkpt>
      <trkpt lat="46.92566" lon="2.29542">
        <ele>150</ele>
        <time>2022-02-15T08:33:49Z</time>
      </trkpt>
      <trkpt lat="46.92553" lon="2.29555">
        <ele>148</ele>
        <time>2022-02-15T08:33:51Z</time>
      </trkpt>
      <trkpt lat="46.92541" lon="2.2957">
        <ele>146</ele>
        <time>2022-02-15T08:33:54Z</time>
      </trkpt>
      <trkpt lat="46.92484" lon="2.29655">
        <ele>144</ele>
        <time>2022-02-15T08:34:09Z</time>
      </trkpt>
      <trkpt lat="46.92468" lon="2.29683">
        <ele>143</ele>
        <time>2022-02-15T08:34:13Z</time>
      </trkpt>
      <trkpt lat="46.92438" lon="2.29748">
        <ele>141</ele>
        <time>2022-02-15T08:34:23Z</time>
      </trkpt>
      <trkpt lat="46.92428" lon="2.29761">
        <ele>140</ele>
        <time>2022-02-15T08:34:25Z</time>
      </trkpt>
      <trkpt lat="46.92414" lon="2.29773">
        <ele>139</ele>
        <time>2022-02-15T08:34:28Z</time>
      </trkpt>
      <trkpt lat="46.92361" lon="2.29805">
        <ele>135</ele>
        <time>2022-02-15T08:34:38Z</time>
      </trkpt>
      <trkpt lat="46.92259" lon="2.29902">
        <ele>134</ele>
        <time>2022-02-15T08:35:00Z</time>
      </trkpt>
      <trkpt lat="46.92212" lon="2.29993">
        <ele>137</ele>
        <time>2022-02-15T08:35:14Z</time>
      </trkpt>
      <trkpt lat="46.92201" lon="2.3001">
        <ele>138</ele>
        <time>2022-02-15T08:35:17Z</time>
      </trkpt>
      <trkpt lat="46.92193" lon="2.30016">
        <ele>139</ele>
        <time>2022-02-15T08:35:18Z</time>
      </trkpt>
      <trkpt lat="46.92128" lon="2.30041">
        <ele>142</ele>
        <time>2022-02-15T08:35:30Z</time>
      </trkpt>
      <trkpt lat="46.92094" lon="2.30051">
        <ele>143</ele>
        <time>2022-02-15T08:35:36Z</time>
      </trkpt>
      <trkpt lat="46.92065" lon="2.30055">
        <ele>143</ele>
        <time>2022-02-15T08:35:41Z</time>
      </trkpt>
      <trkpt lat="46.91976" lon="2.30058">
        <ele>145</ele>
        <time>2022-02-15T08:35:57Z</time>
      </trkpt>
      <trkpt lat="46.9192" lon="2.30054">
        <ele>146</ele>
        <time>2022-02-15T08:36:07Z</time>
      </trkpt>
      <trkpt lat="46.91869" lon="2.30047">
        <ele>145</ele>
        <time>2022-02-15T08:36:16Z</time>
      </trkpt>
      <trkpt lat="46.91796" lon="2.30033">
        <ele>145</ele>
        <time>2022-02-15T08:36:29Z</time>
      </trkpt>
      <trkpt lat="46.91699" lon="2.30009">
        <ele>146</ele>
        <time>2022-02-15T08:36:47Z</time>
      </trkpt>
      <trkpt lat="46.91522" lon="2.29935">
        <ele>142</ele>
        <time>2022-02-15T08:37:20Z</time>
      </trkpt>
      <trkpt lat="46.91477" lon="2.29923">
        <ele>141</ele>
        <time>2022-02-15T08:37:28Z</time>
      </trkpt>
      <trkpt lat="46.91447" lon="2.29917">
        <ele>138</ele>
        <time>2022-02-15T08:37:33Z</time>
      </trkpt>
      <trkpt lat="46.91109" lon="2.29876">
        <ele>138</ele>
        <time>2022-02-15T08:38:34Z</time>
      </trkpt>
      <trkpt lat="46.9107" lon="2.29873">
        <ele>139</ele>
        <time>2022-02-15T08:38:41Z</time>
      </trkpt>
      <trkpt lat="46.91031" lon="2.29873">
        <ele>138</ele>
        <time>2022-02-15T08:38:47Z</time>
      </trkpt>
      <trkpt lat="46.90924" lon="2.29881">
        <ele>133</ele>
        <time>2022-02-15T08:39:07Z</time>
      </trkpt>
      <trkpt lat="46.90903" lon="2.29884">
        <ele>132</ele>
        <time>2022-02-15T08:39:10Z</time>
      </trkpt>
      <trkpt lat="46.90875" lon="2.29892">
        <ele>133</ele>
        <time>2022-02-15T08:39:15Z</time>
      </trkpt>
      <trkpt lat="46.90857" lon="2.299">
        <ele>133</ele>
        <time>2022-02-15T08:39:19Z</time>
      </trkpt>
      <trkpt lat="46.90759" lon="2.29954">
        <ele>137</ele>
        <time>2022-02-15T08:39:37Z</time>
      </trkpt>
      <trkpt lat="46.90611" lon="2.30048">
        <ele>138</ele>
        <time>2022-02-15T08:40:06Z</time>
      </trkpt>
      <trkpt lat="46.90421" lon="2.30189">
        <ele>141</ele>
        <time>2022-02-15T08:40:44Z</time>
      </trkpt>
      <trkpt lat="46.90376" lon="2.30216">
        <ele>141</ele>
        <time>2022-02-15T08:40:53Z</time>
      </trkpt>
      <trkpt lat="46.90319" lon="2.30244">
        <ele>138</ele>
        <time>2022-02-15T08:41:03Z</time>
      </trkpt>
      <trkpt lat="46.90294" lon="2.3026">
        <ele>136</ele>
        <time>2022-02-15T08:41:08Z</time>
      </trkpt>
      <trkpt lat="46.90182" lon="2.30343">
        <ele>137</ele>
        <time>2022-02-15T08:41:31Z</time>
      </trkpt>
      <trkpt lat="46.90058" lon="2.30422">
        <ele>138</ele>
        <time>2022-02-15T08:41:55Z</time>
      </trkpt>
      <trkpt lat="46.9003" lon="2.30437">
        <ele>139</ele>
        <time>2022-02-15T08:42:00Z</time>
      </trkpt>
      <trkpt lat="46.90007" lon="2.30446">
        <ele>139</ele>
        <time>2022-02-15T08:42:04Z</time>
      </trkpt>
      <trkpt lat="46.89945" lon="2.30464">
        <ele>139</ele>
        <time>2022-02-15T08:42:15Z</time>
      </trkpt>
      <trkpt lat="46.89849" lon="2.30476">
        <ele>137</ele>
        <time>2022-02-15T08:42:33Z</time>
      </trkpt>
      <trkpt lat="46.89828" lon="2.30482">
        <ele>138</ele>
        <time>2022-02-15T08:42:36Z</time>
      </trkpt>
      <trkpt lat="46.89818" lon="2.30491">
        <ele>139</ele>
        <time>2022-02-15T08:42:38Z</time>
      </trkpt>
      <trkpt lat="46.898" lon="2.30495">
        <ele>140</ele>
        <time>2022-02-15T08:42:42Z</time>
      </trkpt>
      <trkpt lat="46.89775" lon="2.30492">
        <ele>142</ele>
        <time>2022-02-15T08:42:46Z</time>
      </trkpt>
      <trkpt lat="46.8969" lon="2.30474">
        <ele>142</ele>
        <time>2022-02-15T08:43:01Z</time>
      </trkpt>
      <trkpt lat="46.89645" lon="2.3047">
        <ele>141</ele>
        <time>2022-02-15T08:43:09Z</time>
      </trkpt>
      <trkpt lat="46.8958" lon="2.30473">
        <ele>139</ele>
        <time>2022-02-15T08:43:21Z</time>
      </trkpt>
      <trkpt lat="46.8952" lon="2.30469">
        <ele>140</ele>
        <time>2022-02-15T08:43:32Z</time>
      </trkpt>
      <trkpt lat="46.89453" lon="2.3048">
        <ele>141</ele>
        <time>2022-02-15T08:43:44Z</time>
      </trkpt>
      <trkpt lat="46.89433" lon="2.30493">
        <ele>142</ele>
        <time>2022-02-15T08:43:48Z</time>
      </trkpt>
      <trkpt lat="46.89414" lon="2.30517">
        <ele>142</ele>
        <time>2022-02-15T08:43:52Z</time>
      </trkpt>
      <trkpt lat="46.89387" lon="2.30544">
        <ele>140</ele>
        <time>2022-02-15T08:43:58Z</time>
      </trkpt>
      <trkpt lat="46.893" lon="2.30619">
        <ele>136</ele>
        <time>2022-02-15T08:44:16Z</time>
      </trkpt>
      <trkpt lat="46.89282" lon="2.30639">
        <ele>136</ele>
        <time>2022-02-15T08:44:20Z</time>
      </trkpt>
      <trkpt lat="46.89218" lon="2.30725">
        <ele>138</ele>
        <time>2022-02-15T08:44:35Z</time>
      </trkpt>
      <trkpt lat="46.89167" lon="2.30786">
        <ele>139</ele>
        <time>2022-02-15T08:44:47Z</time>
      </trkpt>
      <trkpt lat="46.89147" lon="2.30816">
        <ele>140</ele>
        <time>2022-02-15T08:44:52Z</time>
      </trkpt>
      <trkpt lat="46.89128" lon="2.30853">
        <ele>139</ele>
        <time>2022-02-15T08:44:58Z</time>
      </trkpt>
      <trkpt lat="46.89088" lon="2.30947">
        <ele>139</ele>
        <time>2022-02-15T08:45:11Z</time>
      </trkpt>
      <trkpt lat="46.89061" lon="2.31001">
        <ele>137</ele>
        <time>2022-02-15T08:45:19Z</time>
      </trkpt>
      <trkpt lat="46.89035" lon="2.31043">
        <ele>136</ele>
        <time>2022-02-15T08:45:26Z</time>
      </trkpt>
      <trkpt lat="46.89018" lon="2.31066">
        <ele>135</ele>
        <time>2022-02-15T08:45:30Z</time>
      </trkpt>
      <trkpt lat="46.88991" lon="2.31098">
        <ele>134</ele>
        <time>2022-02-15T08:45:37Z</time>
      </trkpt>
      <trkpt lat="46.88951" lon="2.31136">
        <ele>134</ele>
        <time>2022-02-15T08:45:45Z</time>
      </trkpt>
      <trkpt lat="46.88932" lon="2.31151">
        <ele>135</ele>
        <time>2022-02-15T08:45:49Z</time>
      </trkpt>
      <trkpt lat="46.88894" lon="2.31174">
        <ele>135</ele>
        <time>2022-02-15T08:45:56Z</time>
      </trkpt>
      <trkpt lat="46.88739" lon="2.31276">
        <ele>136</ele>
        <time>2022-02-15T08:46:26Z</time>
      </trkpt>
      <trkpt lat="46.88705" lon="2.31289">
        <ele>137</ele>
        <time>2022-02-15T08:46:33Z</time>
      </trkpt>
      <trkpt lat="46.88685" lon="2.31291">
        <ele>137</ele>
        <time>2022-02-15T08:46:36Z</time>
      </trkpt>
      <trkpt lat="46.88617" lon="2.31282">
        <ele>138</ele>
        <time>2022-02-15T08:46:48Z</time>
      </trkpt>
      <trkpt lat="46.88472" lon="2.31287">
        <ele>141</ele>
        <time>2022-02-15T08:47:14Z</time>
      </trkpt>
      <trkpt lat="46.88456" lon="2.31283">
        <ele>141</ele>
        <time>2022-02-15T08:47:17Z</time>
      </trkpt>
      <trkpt lat="46.88425" lon="2.31268">
        <ele>139</ele>
        <time>2022-02-15T08:47:23Z</time>
      </trkpt>
      <trkpt lat="46.88368" lon="2.31219">
        <ele>136</ele>
        <time>2022-02-15T08:47:35Z</time>
      </trkpt>
      <trkpt lat="46.8835" lon="2.31208">
        <ele>136</ele>
        <time>2022-02-15T08:47:38Z</time>
      </trkpt>
      <trkpt lat="46.8833" lon="2.312">
        <ele>136</ele>
        <time>2022-02-15T08:47:42Z</time>
      </trkpt>
      <trkpt lat="46.88306" lon="2.31193">
        <ele>135</ele>
        <time>2022-02-15T08:47:46Z</time>
      </trkpt>
      <trkpt lat="46.88128" lon="2.31148">
        <ele>135</ele>
        <time>2022-02-15T08:48:18Z</time>
      </trkpt>
      <trkpt lat="46.88092" lon="2.31135">
        <ele>135</ele>
        <time>2022-02-15T08:48:25Z</time>
      </trkpt>
      <trkpt lat="46.87838" lon="2.31">
        <ele>132</ele>
        <time>2022-02-15T08:49:13Z</time>
      </trkpt>
      <trkpt lat="46.87813" lon="2.3099">
        <ele>133</ele>
        <time>2022-02-15T08:49:18Z</time>
      </trkpt>
      <trkpt lat="46.8779" lon="2.30982">
        <ele>134</ele>
        <time>2022-02-15T08:49:22Z</time>
      </trkpt>
      <trkpt lat="46.87763" lon="2.30979">
        <ele>135</ele>
        <time>2022-02-15T08:49:27Z</time>
      </trkpt>
      <trkpt lat="46.87739" lon="2.30978">
        <ele>136</ele>
        <time>2022-02-15T08:49:31Z</time>
      </trkpt>
      <trkpt lat="46.8754" lon="2.30992">
        <ele>140</ele>
        <time>2022-02-15T08:50:06Z</time>
      </trkpt>
      <trkpt lat="46.87517" lon="2.3099">
        <ele>139</ele>
        <time>2022-02-15T08:50:10Z</time>
      </trkpt>
      <trkpt lat="46.8749" lon="2.30982">
        <ele>139</ele>
        <time>2022-02-15T08:50:15Z</time>
      </trkpt>
      <trkpt lat="46.87386" lon="2.30921">
        <ele>140</ele>
        <time>2022-02-15T08:50:35Z</time>
      </trkpt>
      <trkpt lat="46.87362" lon="2.3091">
        <ele>142</ele>
        <time>2022-02-15T08:50:40Z</time>
      </trkpt>
      <trkpt lat="46.8734" lon="2.30905">
        <ele>144</ele>
        <time>2022-02-15T08:50:44Z</time>
      </trkpt>
      <trkpt lat="46.87209" lon="2.30885">
        <ele>143</ele>
        <time>2022-02-15T08:51:07Z</time>
      </trkpt>
      <trkpt lat="46.87134" lon="2.30892">
        <ele>141</ele>
        <time>2022-02-15T08:51:21Z</time>
      </trkpt>
      <trkpt lat="46.87093" lon="2.30894">
        <ele>141</ele>
        <time>2022-02-15T08:51:28Z</time>
      </trkpt>
      <trkpt lat="46.87067" lon="2.30892">
        <ele>140</ele>
        <time>2022-02-15T08:51:32Z</time>
      </trkpt>
      <trkpt lat="46.86996" lon="2.3088">
        <ele>139</ele>
        <time>2022-02-15T08:51:45Z</time>
      </trkpt>
      <trkpt lat="46.86969" lon="2.30881">
        <ele>140</ele>
        <time>2022-02-15T08:51:50Z</time>
      </trkpt>
      <trkpt lat="46.86932" lon="2.30888">
        <ele>141</ele>
        <time>2022-02-15T08:51:57Z</time>
      </trkpt>
      <trkpt lat="46.86917" lon="2.30891">
        <ele>141</ele>
        <time>2022-02-15T08:51:59Z</time>
      </trkpt>
      <trkpt lat="46.8689" lon="2.30902">
        <ele>141</ele>
        <time>2022-02-15T08:52:04Z</time>
      </trkpt>
      <trkpt lat="46.86745" lon="2.30977">
        <ele>143</ele>
        <time>2022-02-15T08:52:32Z</time>
      </trkpt>
      <trkpt lat="46.86648" lon="2.31043">
        <ele>143</ele>
        <time>2022-02-15T08:52:51Z</time>
      </trkpt>
      <trkpt lat="46.86627" lon="2.31055">
        <ele>142</ele>
        <time>2022-02-15T08:52:55Z</time>
      </trkpt>
      <trkpt lat="46.86564" lon="2.31085">
        <ele>140</ele>
        <time>2022-02-15T08:53:07Z</time>
      </trkpt>
      <trkpt lat="46.86512" lon="2.31118">
        <ele>140</ele>
        <time>2022-02-15T08:53:17Z</time>
      </trkpt>
      <trkpt lat="46.86438" lon="2.31172">
        <ele>140</ele>
        <time>2022-02-15T08:53:31Z</time>
      </trkpt>
      <trkpt lat="46.86395" lon="2.31211">
        <ele>141</ele>
        <time>2022-02-15T08:53:40Z</time>
      </trkpt>
      <trkpt lat="46.86366" lon="2.31244">
        <ele>141</ele>
        <time>2022-02-15T08:53:47Z</time>
      </trkpt>
      <trkpt lat="46.8631" lon="2.31323">
        <ele>140</ele>
        <time>2022-02-15T08:54:01Z</time>
      </trkpt>
      <trkpt lat="46.86314" lon="2.31329">
        <ele>140</ele>
        <time>2022-02-15T08:54:02Z</time>
      </trkpt>
      <trkpt lat="46.86321" lon="2.31361">
        <ele>143</ele>
        <time>2022-02-15T08:54:06Z</time>
      </trkpt>
      <trkpt lat="46.86323" lon="2.31385">
        <ele>144</ele>
        <time>2022-02-15T08:54:09Z</time>
      </trkpt>
      <trkpt lat="46.86323" lon="2.3143">
        <ele>147</ele>
        <time>2022-02-15T08:54:14Z</time>
      </trkpt>
      <trkpt lat="46.8632" lon="2.31471">
        <ele>148</ele>
        <time>2022-02-15T08:54:19Z</time>
      </trkpt>
      <trkpt lat="46.86316" lon="2.31493">
        <ele>149</ele>
        <time>2022-02-15T08:54:22Z</time>
      </trkpt>
      <trkpt lat="46.86288" lon="2.31624">
        <ele>157</ele>
        <time>2022-02-15T08:54:39Z</time>
      </trkpt>
      <trkpt lat="46.86285" lon="2.31653">
        <ele>158</ele>
        <time>2022-02-15T08:54:42Z</time>
      </trkpt>
      <trkpt lat="46.86287" lon="2.31682">
        <ele>159</ele>
        <time>2022-02-15T08:54:46Z</time>
      </trkpt>
      <trkpt lat="46.86296" lon="2.31721">
        <ele>159</ele>
        <time>2022-02-15T08:54:51Z</time>
      </trkpt>
      <trkpt lat="46.86306" lon="2.31745">
        <ele>159</ele>
        <time>2022-02-15T08:54:54Z</time>
      </trkpt>
      <trkpt lat="46.86366" lon="2.3184">
        <ele>161</ele>
        <time>2022-02-15T08:55:10Z</time>
      </trkpt>
      <trkpt lat="46.86371" lon="2.3185">
        <ele>161</ele>
        <time>2022-02-15T08:55:11Z</time>
      </trkpt>
      <trkpt lat="46.86374" lon="2.31861">
        <ele>161</ele>
        <time>2022-02-15T08:55:13Z</time>
      </trkpt>
      <trkpt lat="46.86374" lon="2.31869">
        <ele>161</ele>
        <time>2022-02-15T08:55:14Z</time>
      </trkpt>
      <trkpt lat="46.8637" lon="2.31885">
        <ele>161</ele>
        <time>2022-02-15T08:55:16Z</time>
      </trkpt>
      <trkpt lat="46.86345" lon="2.31927">
        <ele>162</ele>
        <time>2022-02-15T08:55:23Z</time>
      </trkpt>
      <trkpt lat="46.86334" lon="2.3194">
        <ele>162</ele>
        <time>2022-02-15T08:55:25Z</time>
      </trkpt>
      <trkpt lat="46.86321" lon="2.3195">
        <ele>162</ele>
        <time>2022-02-15T08:55:28Z</time>
      </trkpt>
      <trkpt lat="46.86301" lon="2.31962">
        <ele>163</ele>
        <time>2022-02-15T08:55:32Z</time>
      </trkpt>
      <trkpt lat="46.86244" lon="2.31982">
        <ele>164</ele>
        <time>2022-02-15T08:55:42Z</time>
      </trkpt>
      <trkpt lat="46.86238" lon="2.31987">
        <ele>164</ele>
        <time>2022-02-15T08:55:43Z</time>
      </trkpt>
      <trkpt lat="46.86235" lon="2.31993">
        <ele>164</ele>
        <time>2022-02-15T08:55:44Z</time>
      </trkpt>
      <trkpt lat="46.86233" lon="2.32004">
        <ele>164</ele>
        <time>2022-02-15T08:55:46Z</time>
      </trkpt>
      <trkpt lat="46.86234" lon="2.32017">
        <ele>163</ele>
        <time>2022-02-15T08:55:47Z</time>
      </trkpt>
      <trkpt lat="46.86245" lon="2.32134">
        <ele>163</ele>
        <time>2022-02-15T08:56:02Z</time>
      </trkpt>
      <trkpt lat="46.86243" lon="2.32166">
        <ele>163</ele>
        <time>2022-02-15T08:56:06Z</time>
      </trkpt>
      <trkpt lat="46.86189" lon="2.3214">
        <ele>162</ele>
        <time>2022-02-15T08:56:16Z</time>
      </trkpt>
      <trkpt lat="46.86162" lon="2.32135">
        <ele>162</ele>
        <time>2022-02-15T08:56:20Z</time>
      </trkpt>
      <trkpt lat="46.861" lon="2.32149">
        <ele>161</ele>
        <time>2022-02-15T08:56:32Z</time>
      </trkpt>
      <trkpt lat="46.86084" lon="2.32156">
        <ele>161</ele>
        <time>2022-02-15T08:56:35Z</time>
      </trkpt>
      <trkpt lat="46.86058" lon="2.32171">
        <ele>162</ele>
        <time>2022-02-15T08:56:40Z</time>
      </trkpt>
      <trkpt lat="46.86042" lon="2.32184">
        <ele>162</ele>
        <time>2022-02-15T08:56:43Z</time>
      </trkpt>
      <trkpt lat="46.86038" lon="2.32193">
        <ele>162</ele>
        <time>2022-02-15T08:56:44Z</time>
      </trkpt>
      <trkpt lat="46.86034" lon="2.32207">
        <ele>162</ele>
        <time>2022-02-15T08:56:46Z</time>
      </trkpt>
      <trkpt lat="46.86022" lon="2.32372">
        <ele>159</ele>
        <time>2022-02-15T08:57:06Z</time>
      </trkpt>
      <trkpt lat="46.86013" lon="2.32424">
        <ele>158</ele>
        <time>2022-02-15T08:57:13Z</time>
      </trkpt>
      <trkpt lat="46.86003" lon="2.32466">
        <ele>156</ele>
        <time>2022-02-15T08:57:18Z</time>
      </trkpt>
      <trkpt lat="46.85994" lon="2.32496">
        <ele>154</ele>
        <time>2022-02-15T08:57:22Z</time>
      </trkpt>
      <trkpt lat="46.85982" lon="2.32528">
        <ele>153</ele>
        <time>2022-02-15T08:57:27Z</time>
      </trkpt>
      <trkpt lat="46.8596" lon="2.32573">
        <ele>153</ele>
        <time>2022-02-15T08:57:33Z</time>
      </trkpt>
      <trkpt lat="46.8593" lon="2.32629">
        <ele>152</ele>
        <time>2022-02-15T08:57:42Z</time>
      </trkpt>
      <trkpt lat="46.85891" lon="2.32721">
        <ele>151</ele>
        <time>2022-02-15T08:57:55Z</time>
      </trkpt>
      <trkpt lat="46.85757" lon="2.33026">
        <ele>155</ele>
        <time>2022-02-15T08:58:39Z</time>
      </trkpt>
      <trkpt lat="46.85731" lon="2.33089">
        <ele>156</ele>
        <time>2022-02-15T08:58:48Z</time>
      </trkpt>
      <trkpt lat="46.85716" lon="2.33137">
        <ele>158</ele>
        <time>2022-02-15T08:58:55Z</time>
      </trkpt>
      <trkpt lat="46.85706" lon="2.33184">
        <ele>160</ele>
        <time>2022-02-15T08:59:01Z</time>
      </trkpt>
      <trkpt lat="46.8534" lon="2.37277">
        <ele>163</ele>
        <time>2022-02-15T09:07:23Z</time>
      </trkpt>
      <trkpt lat="46.85333" lon="2.37373">
        <ele>163</ele>
        <time>2022-02-15T09:07:35Z</time>
      </trkpt>
      <trkpt lat="46.85331" lon="2.37493">
        <ele>165</ele>
        <time>2022-02-15T09:07:49Z</time>
      </trkpt>
      <trkpt lat="46.85331" lon="2.37572">
        <ele>166</ele>
        <time>2022-02-15T09:07:59Z</time>
      </trkpt>
      <trkpt lat="46.8531" lon="2.37593">
        <ele>165</ele>
        <time>2022-02-15T09:08:03Z</time>
      </trkpt>
      <trkpt lat="46.85289" lon="2.37607">
        <ele>164</ele>
        <time>2022-02-15T09:08:07Z</time>
      </trkpt>
      <trkpt lat="46.85244" lon="2.37608">
        <ele>163</ele>
        <time>2022-02-15T09:08:15Z</time>
      </trkpt>
      <trkpt lat="46.85229" lon="2.3761">
        <ele>163</ele>
        <time>2022-02-15T09:08:18Z</time>
      </trkpt>
      <trkpt lat="46.85215" lon="2.37618">
        <ele>164</ele>
        <time>2022-02-15T09:08:21Z</time>
      </trkpt>
      <trkpt lat="46.85181" lon="2.37652">
        <ele>165</ele>
        <time>2022-02-15T09:08:28Z</time>
      </trkpt>
      <trkpt lat="46.85173" lon="2.37658">
        <ele>165</ele>
        <time>2022-02-15T09:08:30Z</time>
      </trkpt>
      <trkpt lat="46.85161" lon="2.37661">
        <ele>165</ele>
        <time>2022-02-15T09:08:32Z</time>
      </trkpt>
      <trkpt lat="46.8515" lon="2.37661">
        <ele>165</ele>
        <time>2022-02-15T09:08:34Z</time>
      </trkpt>
      <trkpt lat="46.85141" lon="2.37656">
        <ele>165</ele>
        <time>2022-02-15T09:08:36Z</time>
      </trkpt>
      <trkpt lat="46.85115" lon="2.37627">
        <ele>166</ele>
        <time>2022-02-15T09:08:41Z</time>
      </trkpt>
      <trkpt lat="46.85096" lon="2.37616">
        <ele>166</ele>
        <time>2022-02-15T09:08:45Z</time>
      </trkpt>
      <trkpt lat="46.8508" lon="2.37612">
        <ele>166</ele>
        <time>2022-02-15T09:08:48Z</time>
      </trkpt>
      <trkpt lat="46.85068" lon="2.37613">
        <ele>166</ele>
        <time>2022-02-15T09:08:50Z</time>
      </trkpt>
      <trkpt lat="46.84885" lon="2.37681">
        <ele>167</ele>
        <time>2022-02-15T09:09:24Z</time>
      </trkpt>
      <trkpt lat="46.84865" lon="2.37683">
        <ele>167</ele>
        <time>2022-02-15T09:09:27Z</time>
      </trkpt>
      <trkpt lat="46.84845" lon="2.37681">
        <ele>167</ele>
        <time>2022-02-15T09:09:31Z</time>
      </trkpt>
      <trkpt lat="46.84734" lon="2.37654">
        <ele>167</ele>
        <time>2022-02-15T09:09:51Z</time>
      </trkpt>
      <trkpt lat="46.84676" lon="2.37664">
        <ele>168</ele>
        <time>2022-02-15T09:10:01Z</time>
      </trkpt>
      <trkpt lat="46.84627" lon="2.37689">
        <ele>167</ele>
        <time>2022-02-15T09:10:10Z</time>
      </trkpt>
      <trkpt lat="46.84431" lon="2.37842">
        <ele>163</ele>
        <time>2022-02-15T09:10:50Z</time>
      </trkpt>
      <trkpt lat="46.84265" lon="2.37899">
        <ele>164</ele>
        <time>2022-02-15T09:11:20Z</time>
      </trkpt>
      <trkpt lat="46.84142" lon="2.37953">
        <ele>167</ele>
        <time>2022-02-15T09:11:43Z</time>
      </trkpt>
      <trkpt lat="46.83753" lon="2.382">
        <ele>172</ele>
        <time>2022-02-15T09:12:59Z</time>
      </trkpt>
      <trkpt lat="46.83458" lon="2.38339">
        <ele>164</ele>
        <time>2022-02-15T09:13:54Z</time>
      </trkpt>
      <trkpt lat="46.83438" lon="2.38356">
        <ele>164</ele>
        <time>2022-02-15T09:13:58Z</time>
      </trkpt>
      <trkpt lat="46.8342" lon="2.38375">
        <ele>164</ele>
        <time>2022-02-15T09:14:02Z</time>
      </trkpt>
      <trkpt lat="46.83208" lon="2.3899">
        <ele>157</ele>
        <time>2022-02-15T09:15:26Z</time>
      </trkpt>
      <trkpt lat="46.83037" lon="2.39496">
        <ele>162</ele>
        <time>2022-02-15T09:16:34Z</time>
      </trkpt>
      <trkpt lat="46.82547" lon="2.41237">
        <ele>160</ele>
        <time>2022-02-15T09:20:24Z</time>
      </trkpt>
      <trkpt lat="46.82535" lon="2.41279">
        <ele>160</ele>
        <time>2022-02-15T09:20:29Z</time>
      </trkpt>
      <trkpt lat="46.81685" lon="2.443">
        <ele>177</ele>
        <time>2022-02-15T09:27:07Z</time>
      </trkpt>
      <trkpt lat="46.81628" lon="2.44467">
        <ele>180</ele>
        <time>2022-02-15T09:27:29Z</time>
      </trkpt>
      <trkpt lat="46.81591" lon="2.44573">
        <ele>181</ele>
        <time>2022-02-15T09:27:44Z</time>
      </trkpt>
      <trkpt lat="46.81402" lon="2.45018">
        <ele>180</ele>
        <time>2022-02-15T09:28:48Z</time>
      </trkpt>
      <trkpt lat="46.81219" lon="2.45459">
        <ele>170</ele>
        <time>2022-02-15T09:29:51Z</time>
      </trkpt>
      <trkpt lat="46.812" lon="2.455">
        <ele>170</ele>
        <time>2022-02-15T09:29:57Z</time>
      </trkpt>
      <trkpt lat="46.81125" lon="2.45631">
        <ele>174</ele>
        <time>2022-02-15T09:30:17Z</time>
      </trkpt>
      <trkpt lat="46.81117" lon="2.45648">
        <ele>175</ele>
        <time>2022-02-15T09:30:20Z</time>
      </trkpt>
      <trkpt lat="46.81113" lon="2.45662">
        <ele>175</ele>
        <time>2022-02-15T09:30:22Z</time>
      </trkpt>
      <trkpt lat="46.81111" lon="2.45677">
        <ele>176</ele>
        <time>2022-02-15T09:30:24Z</time>
      </trkpt>
      <trkpt lat="46.81112" lon="2.45691">
        <ele>176</ele>
        <time>2022-02-15T09:30:25Z</time>
      </trkpt>
      <trkpt lat="46.81115" lon="2.45704">
        <ele>177</ele>
        <time>2022-02-15T09:30:27Z</time>
      </trkpt>
      <trkpt lat="46.81121" lon="2.45716">
        <ele>177</ele>
        <time>2022-02-15T09:30:29Z</time>
      </trkpt>
      <trkpt lat="46.81167" lon="2.45768">
        <ele>180</ele>
        <time>2022-02-15T09:30:39Z</time>
      </trkpt>
      <trkpt lat="46.81181" lon="2.45786">
        <ele>180</ele>
        <time>2022-02-15T09:30:42Z</time>
      </trkpt>
      <trkpt lat="46.81211" lon="2.45833">
        <ele>181</ele>
        <time>2022-02-15T09:30:50Z</time>
      </trkpt>
      <trkpt lat="46.81229" lon="2.45867">
        <ele>181</ele>
        <time>2022-02-15T09:30:56Z</time>
      </trkpt>
      <trkpt lat="46.81243" lon="2.45909">
        <ele>181</ele>
        <time>2022-02-15T09:31:01Z</time>
      </trkpt>
      <trkpt lat="46.81274" lon="2.46014">
        <ele>181</ele>
        <time>2022-02-15T09:31:15Z</time>
      </trkpt>
      <trkpt lat="46.81274" lon="2.46021">
        <ele>181</ele>
        <time>2022-02-15T09:31:16Z</time>
      </trkpt>
      <trkpt lat="46.81264" lon="2.4604">
        <ele>181</ele>
        <time>2022-02-15T09:31:19Z</time>
      </trkpt>
      <trkpt lat="46.81203" lon="2.461">
        <ele>182</ele>
        <time>2022-02-15T09:31:32Z</time>
      </trkpt>
      <trkpt lat="46.81156" lon="2.4613">
        <ele>181</ele>
        <time>2022-02-15T09:31:41Z</time>
      </trkpt>
      <trkpt lat="46.81135" lon="2.46146">
        <ele>181</ele>
        <time>2022-02-15T09:31:45Z</time>
      </trkpt>
      <trkpt lat="46.81035" lon="2.46238">
        <ele>182</ele>
        <time>2022-02-15T09:32:06Z</time>
      </trkpt>
      <trkpt lat="46.81021" lon="2.46246">
        <ele>183</ele>
        <time>2022-02-15T09:32:09Z</time>
      </trkpt>
      <trkpt lat="46.80975" lon="2.4626">
        <ele>182</ele>
        <time>2022-02-15T09:32:17Z</time>
      </trkpt>
      <trkpt lat="46.80961" lon="2.46262">
        <ele>182</ele>
        <time>2022-02-15T09:32:20Z</time>
      </trkpt>
      <trkpt lat="46.80898" lon="2.46252">
        <ele>181</ele>
        <time>2022-02-15T09:32:31Z</time>
      </trkpt>
      <trkpt lat="46.80874" lon="2.46243">
        <ele>181</ele>
        <time>2022-02-15T09:32:36Z</time>
      </trkpt>
      <trkpt lat="46.80739" lon="2.46133">
        <ele>182</ele>
        <time>2022-02-15T09:33:03Z</time>
      </trkpt>
      <trkpt lat="46.80726" lon="2.4613">
        <ele>182</ele>
        <time>2022-02-15T09:33:05Z</time>
      </trkpt>
      <trkpt lat="46.80712" lon="2.4613">
        <ele>182</ele>
        <time>2022-02-15T09:33:08Z</time>
      </trkpt>
      <trkpt lat="46.80225" lon="2.46245">
        <ele>179</ele>
        <time>2022-02-15T09:34:36Z</time>
      </trkpt>
      <trkpt lat="46.8021" lon="2.46253">
        <ele>179</ele>
        <time>2022-02-15T09:34:39Z</time>
      </trkpt>
      <trkpt lat="46.80194" lon="2.46264">
        <ele>178</ele>
        <time>2022-02-15T09:34:42Z</time>
      </trkpt>
      <trkpt lat="46.79653" lon="2.46696">
        <ele>156</ele>
        <time>2022-02-15T09:36:31Z</time>
      </trkpt>
      <trkpt lat="46.79641" lon="2.46713">
        <ele>156</ele>
        <time>2022-02-15T09:36:34Z</time>
      </trkpt>
      <trkpt lat="46.79631" lon="2.46732">
        <ele>157</ele>
        <time>2022-02-15T09:36:37Z</time>
      </trkpt>
      <trkpt lat="46.79605" lon="2.46828">
        <ele>158</ele>
        <time>2022-02-15T09:36:50Z</time>
      </trkpt>
      <trkpt lat="46.7959" lon="2.46855">
        <ele>158</ele>
        <time>2022-02-15T09:36:54Z</time>
      </trkpt>
      <trkpt lat="46.79493" lon="2.46973">
        <ele>160</ele>
        <time>2022-02-15T09:37:17Z</time>
      </trkpt>
      <trkpt lat="46.79409" lon="2.4706">
        <ele>162</ele>
        <time>2022-02-15T09:37:35Z</time>
      </trkpt>
      <trkpt lat="46.79398" lon="2.47073">
        <ele>161</ele>
        <time>2022-02-15T09:37:37Z</time>
      </trkpt>
      <trkpt lat="46.7939" lon="2.47087">
        <ele>161</ele>
        <time>2022-02-15T09:37:40Z</time>
      </trkpt>
      <trkpt lat="46.79385" lon="2.47103">
        <ele>161</ele>
        <time>2022-02-15T09:37:42Z</time>
      </trkpt>
      <trkpt lat="46.79381" lon="2.47121">
        <ele>161</ele>
        <time>2022-02-15T09:37:44Z</time>
      </trkpt>
      <trkpt lat="46.7938" lon="2.47146">
        <ele>161</ele>
        <time>2022-02-15T09:37:47Z</time>
      </trkpt>
      <trkpt lat="46.79381" lon="2.47181">
        <ele>162</ele>
        <time>2022-02-15T09:37:51Z</time>
      </trkpt>
      <trkpt lat="46.79377" lon="2.47244">
        <ele>162</ele>
        <time>2022-02-15T09:37:59Z</time>
      </trkpt>
      <trkpt lat="46.79369" lon="2.47354">
        <ele>164</ele>
        <time>2022-02-15T09:38:13Z</time>
      </trkpt>
      <trkpt lat="46.79368" lon="2.47385">
        <ele>165</ele>
        <time>2022-02-15T09:38:16Z</time>
      </trkpt>
      <trkpt lat="46.79371" lon="2.47412">
        <ele>166</ele>
        <time>2022-02-15T09:38:20Z</time>
      </trkpt>
      <trkpt lat="46.79393" lon="2.47506">
        <ele>165</ele>
        <time>2022-02-15T09:38:32Z</time>
      </trkpt>
      <trkpt lat="46.794" lon="2.47541">
        <ele>165</ele>
        <time>2022-02-15T09:38:36Z</time>
      </trkpt>
      <trkpt lat="46.79404" lon="2.47579">
        <ele>166</ele>
        <time>2022-02-15T09:38:41Z</time>
      </trkpt>
      <trkpt lat="46.79402" lon="2.4762">
        <ele>166</ele>
        <time>2022-02-15T09:38:46Z</time>
      </trkpt>
      <trkpt lat="46.79389" lon="2.47741">
        <ele>167</ele>
        <time>2022-02-15T09:39:01Z</time>
      </trkpt>
      <trkpt lat="46.79389" lon="2.47782">
        <ele>167</ele>
        <time>2022-02-15T09:39:06Z</time>
      </trkpt>
      <trkpt lat="46.79394" lon="2.47866">
        <ele>167</ele>
        <time>2022-02-15T09:39:16Z</time>
      </trkpt>
      <trkpt lat="46.79394" lon="2.47898">
        <ele>166</ele>
        <time>2022-02-15T09:39:20Z</time>
      </trkpt>
      <trkpt lat="46.79389" lon="2.4799">
        <ele>165</ele>
        <time>2022-02-15T09:39:31Z</time>
      </trkpt>
      <trkpt lat="46.79368" lon="2.48253">
        <ele>164</ele>
        <time>2022-02-15T09:40:03Z</time>
      </trkpt>
      <trkpt lat="46.79364" lon="2.48286">
        <ele>165</ele>
        <time>2022-02-15T09:40:08Z</time>
      </trkpt>
      <trkpt lat="46.7936" lon="2.48308">
        <ele>165</ele>
        <time>2022-02-15T09:40:10Z</time>
      </trkpt>
      <trkpt lat="46.79354" lon="2.48328">
        <ele>165</ele>
        <time>2022-02-15T09:40:13Z</time>
      </trkpt>
      <trkpt lat="46.79346" lon="2.48349">
        <ele>165</ele>
        <time>2022-02-15T09:40:16Z</time>
      </trkpt>
      <trkpt lat="46.79298" lon="2.48433">
        <ele>164</ele>
        <time>2022-02-15T09:40:29Z</time>
      </trkpt>
      <trkpt lat="46.79286" lon="2.48462">
        <ele>164</ele>
        <time>2022-02-15T09:40:33Z</time>
      </trkpt>
      <trkpt lat="46.79274" lon="2.48497">
        <ele>164</ele>
        <time>2022-02-15T09:40:38Z</time>
      </trkpt>
      <trkpt lat="46.79252" lon="2.48592">
        <ele>164</ele>
        <time>2022-02-15T09:40:50Z</time>
      </trkpt>
      <trkpt lat="46.79247" lon="2.48623">
        <ele>165</ele>
        <time>2022-02-15T09:40:54Z</time>
      </trkpt>
      <trkpt lat="46.79246" lon="2.48651">
        <ele>166</ele>
        <time>2022-02-15T09:40:58Z</time>
      </trkpt>
      <trkpt lat="46.79249" lon="2.48734">
        <ele>166</ele>
        <time>2022-02-15T09:41:08Z</time>
      </trkpt>
      <trkpt lat="46.79257" lon="2.48831">
        <ele>166</ele>
        <time>2022-02-15T09:41:20Z</time>
      </trkpt>
      <trkpt lat="46.79256" lon="2.48849">
        <ele>165</ele>
        <time>2022-02-15T09:41:22Z</time>
      </trkpt>
      <trkpt lat="46.79253" lon="2.48863">
        <ele>165</ele>
        <time>2022-02-15T09:41:24Z</time>
      </trkpt>
      <trkpt lat="46.79244" lon="2.48881">
        <ele>165</ele>
        <time>2022-02-15T09:41:26Z</time>
      </trkpt>
      <trkpt lat="46.79235" lon="2.48892">
        <ele>164</ele>
        <time>2022-02-15T09:41:28Z</time>
      </trkpt>
      <trkpt lat="46.79164" lon="2.48939">
        <ele>159</ele>
        <time>2022-02-15T09:41:42Z</time>
      </trkpt>
      <trkpt lat="46.79147" lon="2.48952">
        <ele>159</ele>
        <time>2022-02-15T09:41:46Z</time>
      </trkpt>
      <trkpt lat="46.7914" lon="2.48961">
        <ele>158</ele>
        <time>2022-02-15T09:41:47Z</time>
      </trkpt>
      <trkpt lat="46.7913" lon="2.48975">
        <ele>158</ele>
        <time>2022-02-15T09:41:50Z</time>
      </trkpt>
      <trkpt lat="46.7909" lon="2.49057">
        <ele>159</ele>
        <time>2022-02-15T09:42:02Z</time>
      </trkpt>
      <trkpt lat="46.79081" lon="2.49078">
        <ele>159</ele>
        <time>2022-02-15T09:42:05Z</time>
      </trkpt>
      <trkpt lat="46.79077" lon="2.49095">
        <ele>159</ele>
        <time>2022-02-15T09:42:07Z</time>
      </trkpt>
      <trkpt lat="46.79069" lon="2.49146">
        <ele>158</ele>
        <time>2022-02-15T09:42:14Z</time>
      </trkpt>
      <trkpt lat="46.79063" lon="2.4917">
        <ele>158</ele>
        <time>2022-02-15T09:42:17Z</time>
      </trkpt>
      <trkpt lat="46.79055" lon="2.49194">
        <ele>158</ele>
        <time>2022-02-15T09:42:20Z</time>
      </trkpt>
      <trkpt lat="46.78976" lon="2.49391">
        <ele>159</ele>
        <time>2022-02-15T09:42:48Z</time>
      </trkpt>
      <trkpt lat="46.78958" lon="2.49453">
        <ele>158</ele>
        <time>2022-02-15T09:42:56Z</time>
      </trkpt>
      <trkpt lat="46.78916" lon="2.49556">
        <ele>160</ele>
        <time>2022-02-15T09:43:11Z</time>
      </trkpt>
      <trkpt lat="46.78893" lon="2.49642">
        <ele>159</ele>
        <time>2022-02-15T09:43:22Z</time>
      </trkpt>
      <trkpt lat="46.78883" lon="2.49666">
        <ele>160</ele>
        <time>2022-02-15T09:43:25Z</time>
      </trkpt>
      <trkpt lat="46.7887" lon="2.49686">
        <ele>160</ele>
        <time>2022-02-15T09:43:29Z</time>
      </trkpt>
      <trkpt lat="46.78811" lon="2.49758">
        <ele>161</ele>
        <time>2022-02-15T09:43:42Z</time>
      </trkpt>
      <trkpt lat="46.78795" lon="2.49785">
        <ele>162</ele>
        <time>2022-02-15T09:43:47Z</time>
      </trkpt>
      <trkpt lat="46.78707" lon="2.50006">
        <ele>162</ele>
        <time>2022-02-15T09:44:18Z</time>
      </trkpt>
      <trkpt lat="46.78667" lon="2.50099">
        <ele>164</ele>
        <time>2022-02-15T09:44:31Z</time>
      </trkpt>
      <trkpt lat="46.78609" lon="2.502">
        <ele>166</ele>
        <time>2022-02-15T09:44:47Z</time>
      </trkpt>
      <trkpt lat="46.78581" lon="2.50262">
        <ele>167</ele>
        <time>2022-02-15T09:44:56Z</time>
      </trkpt>
      <trkpt lat="46.78573" lon="2.50274">
        <ele>167</ele>
        <time>2022-02-15T09:44:58Z</time>
      </trkpt>
      <trkpt lat="46.78564" lon="2.5028">
        <ele>167</ele>
        <time>2022-02-15T09:45:00Z</time>
      </trkpt>
      <trkpt lat="46.78554" lon="2.50281">
        <ele>167</ele>
        <time>2022-02-15T09:45:02Z</time>
      </trkpt>
      <trkpt lat="46.78532" lon="2.50277">
        <ele>167</ele>
        <time>2022-02-15T09:45:06Z</time>
      </trkpt>
      <trkpt lat="46.78523" lon="2.5028">
        <ele>167</ele>
        <time>2022-02-15T09:45:08Z</time>
      </trkpt>
      <trkpt lat="46.78514" lon="2.50286">
        <ele>167</ele>
        <time>2022-02-15T09:45:09Z</time>
      </trkpt>
      <trkpt lat="46.78506" lon="2.50298">
        <ele>167</ele>
        <time>2022-02-15T09:45:11Z</time>
      </trkpt>
      <trkpt lat="46.78434" lon="2.50525">
        <ele>173</ele>
        <time>2022-02-15T09:45:42Z</time>
      </trkpt>
      <trkpt lat="46.78427" lon="2.50548">
        <ele>173</ele>
        <time>2022-02-15T09:45:45Z</time>
      </trkpt>
      <trkpt lat="46.78418" lon="2.50568">
        <ele>172</ele>
        <time>2022-02-15T09:45:48Z</time>
      </trkpt>
      <trkpt lat="46.78409" lon="2.50578">
        <ele>172</ele>
        <time>2022-02-15T09:45:50Z</time>
      </trkpt>
      <trkpt lat="46.78396" lon="2.50587">
        <ele>172</ele>
        <time>2022-02-15T09:45:52Z</time>
      </trkpt>
      <trkpt lat="46.78371" lon="2.50601">
        <ele>171</ele>
        <time>2022-02-15T09:45:57Z</time>
      </trkpt>
      <trkpt lat="46.78312" lon="2.50569">
        <ele>172</ele>
        <time>2022-02-15T09:46:08Z</time>
      </trkpt>
      <trkpt lat="46.78306" lon="2.50559">
        <ele>172</ele>
        <time>2022-02-15T09:46:10Z</time>
      </trkpt>
      <trkpt lat="46.78233" lon="2.50473">
        <ele>173</ele>
        <time>2022-02-15T09:46:27Z</time>
      </trkpt>
      <trkpt lat="46.78187" lon="2.50423">
        <ele>173</ele>
        <time>2022-02-15T09:46:37Z</time>
      </trkpt>
      <trkpt lat="46.78146" lon="2.50385">
        <ele>173</ele>
        <time>2022-02-15T09:46:46Z</time>
      </trkpt>
      <trkpt lat="46.78055" lon="2.50504">
        <ele>178</ele>
        <time>2022-02-15T09:47:07Z</time>
      </trkpt>
      <trkpt lat="46.77689" lon="2.50923">
        <ele>196</ele>
        <time>2022-02-15T09:48:30Z</time>
      </trkpt>
      <trkpt lat="46.77626" lon="2.50993">
        <ele>197</ele>
        <time>2022-02-15T09:48:44Z</time>
      </trkpt>
      <trkpt lat="46.77578" lon="2.51046">
        <ele>198</ele>
        <time>2022-02-15T09:48:55Z</time>
      </trkpt>
      <trkpt lat="46.77542" lon="2.51073">
        <ele>198</ele>
        <time>2022-02-15T09:49:02Z</time>
      </trkpt>
      <trkpt lat="46.77519" lon="2.5108">
        <ele>199</ele>
        <time>2022-02-15T09:49:06Z</time>
      </trkpt>
      <trkpt lat="46.77482" lon="2.51087">
        <ele>199</ele>
        <time>2022-02-15T09:49:13Z</time>
      </trkpt>
      <trkpt lat="46.75984" lon="2.51247">
        <ele>218</ele>
        <time>2022-02-15T09:53:40Z</time>
      </trkpt>
      <trkpt lat="46.75922" lon="2.51243">
        <ele>220</ele>
        <time>2022-02-15T09:53:51Z</time>
      </trkpt>
      <trkpt lat="46.75739" lon="2.51196">
        <ele>220</ele>
        <time>2022-02-15T09:54:24Z</time>
      </trkpt>
      <trkpt lat="46.7529" lon="2.51055">
        <ele>236</ele>
        <time>2022-02-15T09:55:46Z</time>
      </trkpt>
      <trkpt lat="46.74402" lon="2.50782">
        <ele>259</ele>
        <time>2022-02-15T09:58:27Z</time>
      </trkpt>
      <trkpt lat="46.74371" lon="2.50771">
        <ele>257</ele>
        <time>2022-02-15T09:58:33Z</time>
      </trkpt>
      <trkpt lat="46.74354" lon="2.50761">
        <ele>256</ele>
        <time>2022-02-15T09:58:36Z</time>
      </trkpt>
      <trkpt lat="46.74343" lon="2.50747">
        <ele>255</ele>
        <time>2022-02-15T09:58:39Z</time>
      </trkpt>
      <trkpt lat="46.74333" lon="2.50731">
        <ele>254</ele>
        <time>2022-02-15T09:58:42Z</time>
      </trkpt>
      <trkpt lat="46.7429" lon="2.50735">
        <ele>251</ele>
        <time>2022-02-15T09:58:49Z</time>
      </trkpt>
      <trkpt lat="46.74267" lon="2.5071">
        <ele>250</ele>
        <time>2022-02-15T09:58:54Z</time>
      </trkpt>
      <trkpt lat="46.74173" lon="2.50678">
        <ele>238</ele>
        <time>2022-02-15T09:59:11Z</time>
      </trkpt>
      <trkpt lat="46.74054" lon="2.50653">
        <ele>219</ele>
        <time>2022-02-15T09:59:33Z</time>
      </trkpt>
      <trkpt lat="46.73975" lon="2.50655">
        <ele>208</ele>
        <time>2022-02-15T09:59:47Z</time>
      </trkpt>
      <trkpt lat="46.73903" lon="2.50667">
        <ele>198</ele>
        <time>2022-02-15T10:00:00Z</time>
      </trkpt>
      <trkpt lat="46.73884" lon="2.50675">
        <ele>196</ele>
        <time>2022-02-15T10:00:03Z</time>
      </trkpt>
      <trkpt lat="46.73675" lon="2.50802">
        <ele>183</ele>
        <time>2022-02-15T10:00:44Z</time>
      </trkpt>
      <trkpt lat="46.73669" lon="2.50802">
        <ele>183</ele>
        <time>2022-02-15T10:00:45Z</time>
      </trkpt>
      <trkpt lat="46.73666" lon="2.50799">
        <ele>182</ele>
        <time>2022-02-15T10:00:45Z</time>
      </trkpt>
      <trkpt lat="46.73657" lon="2.50818">
        <ele>183</ele>
        <time>2022-02-15T10:00:48Z</time>
      </trkpt>
      <trkpt lat="46.73647" lon="2.5081">
        <ele>181</ele>
        <time>2022-02-15T10:00:50Z</time>
      </trkpt>
      <trkpt lat="46.73571" lon="2.5073">
        <ele>175</ele>
        <time>2022-02-15T10:01:07Z</time>
      </trkpt>
      <trkpt lat="46.73397" lon="2.50542">
        <ele>168</ele>
        <time>2022-02-15T10:01:45Z</time>
      </trkpt>
      <trkpt lat="46.73356" lon="2.50501">
        <ele>167</ele>
        <time>2022-02-15T10:01:54Z</time>
      </trkpt>
      <trkpt lat="46.73211" lon="2.50345">
        <ele>164</ele>
        <time>2022-02-15T10:02:26Z</time>
      </trkpt>
      <trkpt lat="46.73085" lon="2.50221">
        <ele>160</ele>
        <time>2022-02-15T10:02:53Z</time>
      </trkpt>
      <trkpt lat="46.73009" lon="2.5015">
        <ele>159</ele>
        <time>2022-02-15T10:03:09Z</time>
      </trkpt>
      <trkpt lat="46.72995" lon="2.50139">
        <ele>159</ele>
        <time>2022-02-15T10:03:12Z</time>
      </trkpt>
      <trkpt lat="46.7301" lon="2.50044">
        <ele>158</ele>
        <time>2022-02-15T10:03:24Z</time>
      </trkpt>
      <trkpt lat="46.73013" lon="2.50004">
        <ele>157</ele>
        <time>2022-02-15T10:03:29Z</time>
      </trkpt>
      <trkpt lat="46.73013" lon="2.49935">
        <ele>157</ele>
        <time>2022-02-15T10:03:37Z</time>
      </trkpt>
      <trkpt lat="46.73004" lon="2.49856">
        <ele>157</ele>
        <time>2022-02-15T10:03:47Z</time>
      </trkpt>
      <trkpt lat="46.72989" lon="2.49783">
        <ele>156</ele>
        <time>2022-02-15T10:03:56Z</time>
      </trkpt>
      <trkpt lat="46.72973" lon="2.49731">
        <ele>156</ele>
        <time>2022-02-15T10:04:03Z</time>
      </trkpt>
      <trkpt lat="46.72965" lon="2.49691">
        <ele>156</ele>
        <time>2022-02-15T10:04:09Z</time>
      </trkpt>
      <trkpt lat="46.7297" lon="2.49683">
        <ele>156</ele>
        <time>2022-02-15T10:04:10Z</time>
      </trkpt>
      <trkpt lat="46.72968" lon="2.49672">
        <ele>156</ele>
        <time>2022-02-15T10:04:11Z</time>
      </trkpt>
      <trkpt lat="46.72964" lon="2.49668">
        <ele>156</ele>
        <time>2022-02-15T10:04:12Z</time>
      </trkpt>
      <trkpt lat="46.72961" lon="2.49667">
        <ele>156</ele>
        <time>2022-02-15T10:04:13Z</time>
      </trkpt>
      <trkpt lat="46.72956" lon="2.49671">
        <ele>156</ele>
        <time>2022-02-15T10:04:14Z</time>
      </trkpt>
      <trkpt lat="46.72951" lon="2.49659">
        <ele>156</ele>
        <time>2022-02-15T10:04:15Z</time>
      </trkpt>
      <trkpt lat="46.72889" lon="2.49449">
        <ele>154</ele>
        <time>2022-02-15T10:04:43Z</time>
      </trkpt>
      <trkpt lat="46.72882" lon="2.49402">
        <ele>153</ele>
        <time>2022-02-15T10:04:49Z</time>
      </trkpt>
      <trkpt lat="46.72875" lon="2.49404">
        <ele>153</ele>
        <time>2022-02-15T10:04:50Z</time>
      </trkpt>
      <trkpt lat="46.72857" lon="2.49337">
        <ele>154</ele>
        <time>2022-02-15T10:04:59Z</time>
      </trkpt>
      <trkpt lat="46.72875" lon="2.49404">
        <ele>153</ele>
        <time>2022-02-15T10:05:08Z</time>
      </trkpt>
      <trkpt lat="46.7287" lon="2.49405">
        <ele>153</ele>
        <time>2022-02-15T10:05:09Z</time>
      </trkpt>
      <trkpt lat="46.72841" lon="2.49298">
        <ele>154</ele>
        <time>2022-02-15T10:05:23Z</time>
      </trkpt>
      <trkpt lat="46.72809" lon="2.49172">
        <ele>152</ele>
        <time>2022-02-15T10:05:39Z</time>
      </trkpt>
      <trkpt lat="46.72804" lon="2.49149">
        <ele>151</ele>
        <time>2022-02-15T10:05:42Z</time>
      </trkpt>
      <trkpt lat="46.72778" lon="2.4898">
        <ele>150</ele>
        <time>2022-02-15T10:06:03Z</time>
      </trkpt>
      <trkpt lat="46.72772" lon="2.48936">
        <ele>151</ele>
        <time>2022-02-15T10:06:09Z</time>
      </trkpt>
      <trkpt lat="46.72767" lon="2.48914">
        <ele>152</ele>
        <time>2022-02-15T10:06:12Z</time>
      </trkpt>
      <trkpt lat="46.72758" lon="2.48897">
        <ele>152</ele>
        <time>2022-02-15T10:06:14Z</time>
      </trkpt>
      <trkpt lat="46.72732" lon="2.48872">
        <ele>153</ele>
        <time>2022-02-15T10:06:20Z</time>
      </trkpt>
      <trkpt lat="46.72712" lon="2.48861">
        <ele>153</ele>
        <time>2022-02-15T10:06:24Z</time>
      </trkpt>
      <trkpt lat="46.72707" lon="2.48854">
        <ele>153</ele>
        <time>2022-02-15T10:06:25Z</time>
      </trkpt>
      <trkpt lat="46.72703" lon="2.48845">
        <ele>153</ele>
        <time>2022-02-15T10:06:26Z</time>
      </trkpt>
      <trkpt lat="46.72635" lon="2.48895">
        <ele>153</ele>
        <time>2022-02-15T10:06:40Z</time>
      </trkpt>
      <trkpt lat="46.72621" lon="2.4889">
        <ele>153</ele>
        <time>2022-02-15T10:06:42Z</time>
      </trkpt>
      <trkpt lat="46.7262" lon="2.48886">
        <ele>153</ele>
        <time>2022-02-15T10:06:43Z</time>
      </trkpt>
      <trkpt lat="46.72612" lon="2.48882">
        <ele>153</ele>
        <time>2022-02-15T10:06:44Z</time>
      </trkpt>
      <trkpt lat="46.72608" lon="2.48885">
        <ele>153</ele>
        <time>2022-02-15T10:06:45Z</time>
      </trkpt>
      <trkpt lat="46.72591" lon="2.48876">
        <ele>153</ele>
        <time>2022-02-15T10:06:48Z</time>
      </trkpt>
      <trkpt lat="46.72408" lon="2.48585">
        <ele>153</ele>
        <time>2022-02-15T10:07:36Z</time>
      </trkpt>
      <trkpt lat="46.72338" lon="2.48479">
        <ele>153</ele>
        <time>2022-02-15T10:07:54Z</time>
      </trkpt>
      <trkpt lat="46.7233" lon="2.48462">
        <ele>153</ele>
        <time>2022-02-15T10:07:57Z</time>
      </trkpt>
      <trkpt lat="46.72326" lon="2.48447">
        <ele>154</ele>
        <time>2022-02-15T10:07:59Z</time>
      </trkpt>
      <trkpt lat="46.72333" lon="2.4844">
        <ele>154</ele>
        <time>2022-02-15T10:08:00Z</time>
      </trkpt>
      <trkpt lat="46.72334" lon="2.48434">
        <ele>154</ele>
        <time>2022-02-15T10:08:01Z</time>
      </trkpt>
      <trkpt lat="46.72333" lon="2.48427">
        <ele>154</ele>
        <time>2022-02-15T10:08:02Z</time>
      </trkpt>
      <trkpt lat="46.72328" lon="2.4842">
        <ele>154</ele>
        <time>2022-02-15T10:08:03Z</time>
      </trkpt>
      <trkpt lat="46.72322" lon="2.48419">
        <ele>154</ele>
        <time>2022-02-15T10:08:04Z</time>
      </trkpt>
      <trkpt lat="46.72319" lon="2.4842">
        <ele>154</ele>
        <time>2022-02-15T10:08:05Z</time>
      </trkpt>
      <trkpt lat="46.72315" lon="2.4843">
        <ele>154</ele>
        <time>2022-02-15T10:08:06Z</time>
      </trkpt>
      <trkpt lat="46.72306" lon="2.48426">
        <ele>154</ele>
        <time>2022-02-15T10:08:08Z</time>
      </trkpt>
      <trkpt lat="46.72294" lon="2.48411">
        <ele>155</ele>
        <time>2022-02-15T10:08:11Z</time>
      </trkpt>
      <trkpt lat="46.72267" lon="2.48362">
        <ele>156</ele>
        <time>2022-02-15T10:08:18Z</time>
      </trkpt>
      <trkpt lat="46.72206" lon="2.48258">
        <ele>163</ele>
        <time>2022-02-15T10:08:35Z</time>
      </trkpt>
      <trkpt lat="46.72048" lon="2.48004">
        <ele>177</ele>
        <time>2022-02-15T10:09:17Z</time>
      </trkpt>
      <trkpt lat="46.71995" lon="2.47937">
        <ele>180</ele>
        <time>2022-02-15T10:09:29Z</time>
      </trkpt>
      <trkpt lat="46.7195" lon="2.47894">
        <ele>181</ele>
        <time>2022-02-15T10:09:39Z</time>
      </trkpt>
      <trkpt lat="46.71914" lon="2.47868">
        <ele>183</ele>
        <time>2022-02-15T10:09:46Z</time>
      </trkpt>
      <trkpt lat="46.71859" lon="2.47844">
        <ele>185</ele>
        <time>2022-02-15T10:09:56Z</time>
      </trkpt>
      <trkpt lat="46.71824" lon="2.47835">
        <ele>186</ele>
        <time>2022-02-15T10:10:03Z</time>
      </trkpt>
      <trkpt lat="46.71761" lon="2.47825">
        <ele>186</ele>
        <time>2022-02-15T10:10:14Z</time>
      </trkpt>
      <trkpt lat="46.70433" lon="2.47823">
        <ele>189</ele>
        <time>2022-02-15T10:14:10Z</time>
      </trkpt>
      <trkpt lat="46.70282" lon="2.4782">
        <ele>181</ele>
        <time>2022-02-15T10:14:37Z</time>
      </trkpt>
      <trkpt lat="46.70194" lon="2.47823">
        <ele>178</ele>
        <time>2022-02-15T10:14:53Z</time>
      </trkpt>
      <trkpt lat="46.70167" lon="2.47828">
        <ele>178</ele>
        <time>2022-02-15T10:14:58Z</time>
      </trkpt>
      <trkpt lat="46.70144" lon="2.47836">
        <ele>178</ele>
        <time>2022-02-15T10:15:02Z</time>
      </trkpt>
      <trkpt lat="46.70123" lon="2.47847">
        <ele>177</ele>
        <time>2022-02-15T10:15:06Z</time>
      </trkpt>
      <trkpt lat="46.70102" lon="2.47863">
        <ele>177</ele>
        <time>2022-02-15T10:15:10Z</time>
      </trkpt>
      <trkpt lat="46.70086" lon="2.47879">
        <ele>178</ele>
        <time>2022-02-15T10:15:13Z</time>
      </trkpt>
      <trkpt lat="46.70059" lon="2.47912">
        <ele>178</ele>
        <time>2022-02-15T10:15:20Z</time>
      </trkpt>
      <trkpt lat="46.70025" lon="2.47942">
        <ele>178</ele>
        <time>2022-02-15T10:15:27Z</time>
      </trkpt>
      <trkpt lat="46.70005" lon="2.47953">
        <ele>177</ele>
        <time>2022-02-15T10:15:31Z</time>
      </trkpt>
      <trkpt lat="46.69984" lon="2.47959">
        <ele>177</ele>
        <time>2022-02-15T10:15:34Z</time>
      </trkpt>
      <trkpt lat="46.69961" lon="2.47964">
        <ele>177</ele>
        <time>2022-02-15T10:15:39Z</time>
      </trkpt>
      <trkpt lat="46.69936" lon="2.47964">
        <ele>176</ele>
        <time>2022-02-15T10:15:43Z</time>
      </trkpt>
      <trkpt lat="46.69543" lon="2.4794">
        <ele>182</ele>
        <time>2022-02-15T10:16:53Z</time>
      </trkpt>
      <trkpt lat="46.69524" lon="2.47937">
        <ele>183</ele>
        <time>2022-02-15T10:16:56Z</time>
      </trkpt>
      <trkpt lat="46.69509" lon="2.47931">
        <ele>184</ele>
        <time>2022-02-15T10:16:59Z</time>
      </trkpt>
      <trkpt lat="46.6949" lon="2.47916">
        <ele>184</ele>
        <time>2022-02-15T10:17:03Z</time>
      </trkpt>
      <trkpt lat="46.69481" lon="2.47906">
        <ele>184</ele>
        <time>2022-02-15T10:17:05Z</time>
      </trkpt>
      <trkpt lat="46.69467" lon="2.47885">
        <ele>184</ele>
        <time>2022-02-15T10:17:09Z</time>
      </trkpt>
      <trkpt lat="46.68913" lon="2.46957">
        <ele>168</ele>
        <time>2022-02-15T10:19:39Z</time>
      </trkpt>
      <trkpt lat="46.68892" lon="2.46919">
        <ele>168</ele>
        <time>2022-02-15T10:19:45Z</time>
      </trkpt>
      <trkpt lat="46.68832" lon="2.46791">
        <ele>167</ele>
        <time>2022-02-15T10:20:04Z</time>
      </trkpt>
      <trkpt lat="46.68824" lon="2.46774">
        <ele>167</ele>
        <time>2022-02-15T10:20:06Z</time>
      </trkpt>
      <trkpt lat="46.68781" lon="2.46679">
        <ele>167</ele>
        <time>2022-02-15T10:20:20Z</time>
      </trkpt>
      <trkpt lat="46.68771" lon="2.46663">
        <ele>167</ele>
        <time>2022-02-15T10:20:23Z</time>
      </trkpt>
      <trkpt lat="46.68759" lon="2.46648">
        <ele>167</ele>
        <time>2022-02-15T10:20:26Z</time>
      </trkpt>
      <trkpt lat="46.68735" lon="2.46628">
        <ele>167</ele>
        <time>2022-02-15T10:20:30Z</time>
      </trkpt>
      <trkpt lat="46.68615" lon="2.4656">
        <ele>167</ele>
        <time>2022-02-15T10:20:53Z</time>
      </trkpt>
      <trkpt lat="46.68126" lon="2.46252">
        <ele>176</ele>
        <time>2022-02-15T10:22:28Z</time>
      </trkpt>
      <trkpt lat="46.68103" lon="2.46241">
        <ele>176</ele>
        <time>2022-02-15T10:22:32Z</time>
      </trkpt>
      <trkpt lat="46.68081" lon="2.46234">
        <ele>176</ele>
        <time>2022-02-15T10:22:36Z</time>
      </trkpt>
      <trkpt lat="46.68038" lon="2.46226">
        <ele>177</ele>
        <time>2022-02-15T10:22:44Z</time>
      </trkpt>
      <trkpt lat="46.67946" lon="2.46226">
        <ele>178</ele>
        <time>2022-02-15T10:23:01Z</time>
      </trkpt>
      <trkpt lat="46.67923" lon="2.46224">
        <ele>178</ele>
        <time>2022-02-15T10:23:05Z</time>
      </trkpt>
      <trkpt lat="46.67877" lon="2.4621">
        <ele>177</ele>
        <time>2022-02-15T10:23:13Z</time>
      </trkpt>
      <trkpt lat="46.67844" lon="2.46192">
        <ele>176</ele>
        <time>2022-02-15T10:23:19Z</time>
      </trkpt>
      <trkpt lat="46.67821" lon="2.46174">
        <ele>177</ele>
        <time>2022-02-15T10:23:24Z</time>
      </trkpt>
      <trkpt lat="46.67774" lon="2.46129">
        <ele>179</ele>
        <time>2022-02-15T10:23:34Z</time>
      </trkpt>
      <trkpt lat="46.67715" lon="2.46069">
        <ele>180</ele>
        <time>2022-02-15T10:23:47Z</time>
      </trkpt>
      <trkpt lat="46.67674" lon="2.46026">
        <ele>180</ele>
        <time>2022-02-15T10:23:56Z</time>
      </trkpt>
      <trkpt lat="46.67644" lon="2.45992">
        <ele>181</ele>
        <time>2022-02-15T10:24:02Z</time>
      </trkpt>
      <trkpt lat="46.67613" lon="2.45944">
        <ele>183</ele>
        <time>2022-02-15T10:24:10Z</time>
      </trkpt>
      <trkpt lat="46.67589" lon="2.45894">
        <ele>183</ele>
        <time>2022-02-15T10:24:18Z</time>
      </trkpt>
      <trkpt lat="46.67573" lon="2.4585">
        <ele>184</ele>
        <time>2022-02-15T10:24:24Z</time>
      </trkpt>
      <trkpt lat="46.67519" lon="2.45662">
        <ele>190</ele>
        <time>2022-02-15T10:24:49Z</time>
      </trkpt>
      <trkpt lat="46.67501" lon="2.45621">
        <ele>191</ele>
        <time>2022-02-15T10:24:55Z</time>
      </trkpt>
      <trkpt lat="46.67488" lon="2.45604">
        <ele>191</ele>
        <time>2022-02-15T10:24:58Z</time>
      </trkpt>
      <trkpt lat="46.6746" lon="2.45582">
        <ele>193</ele>
        <time>2022-02-15T10:25:04Z</time>
      </trkpt>
      <trkpt lat="46.67373" lon="2.45538">
        <ele>197</ele>
        <time>2022-02-15T10:25:20Z</time>
      </trkpt>
      <trkpt lat="46.67357" lon="2.45532">
        <ele>198</ele>
        <time>2022-02-15T10:25:23Z</time>
      </trkpt>
      <trkpt lat="46.67324" lon="2.45528">
        <ele>200</ele>
        <time>2022-02-15T10:25:29Z</time>
      </trkpt>
      <trkpt lat="46.67299" lon="2.45535">
        <ele>202</ele>
        <time>2022-02-15T10:25:33Z</time>
      </trkpt>
      <trkpt lat="46.6727" lon="2.45549">
        <ele>204</ele>
        <time>2022-02-15T10:25:39Z</time>
      </trkpt>
      <trkpt lat="46.67185" lon="2.45595">
        <ele>209</ele>
        <time>2022-02-15T10:25:55Z</time>
      </trkpt>
      <trkpt lat="46.67166" lon="2.45604">
        <ele>210</ele>
        <time>2022-02-15T10:25:58Z</time>
      </trkpt>
      <trkpt lat="46.67148" lon="2.45608">
        <ele>209</ele>
        <time>2022-02-15T10:26:02Z</time>
      </trkpt>
      <trkpt lat="46.67121" lon="2.45602">
        <ele>209</ele>
        <time>2022-02-15T10:26:07Z</time>
      </trkpt>
      <trkpt lat="46.67105" lon="2.45591">
        <ele>208</ele>
        <time>2022-02-15T10:26:10Z</time>
      </trkpt>
      <trkpt lat="46.65637" lon="2.43855">
        <ele>223</ele>
        <time>2022-02-15T10:31:46Z</time>
      </trkpt>
      <trkpt lat="46.65593" lon="2.43804">
        <ele>224</ele>
        <time>2022-02-15T10:31:56Z</time>
      </trkpt>
      <trkpt lat="46.65556" lon="2.4378">
        <ele>225</ele>
        <time>2022-02-15T10:32:03Z</time>
      </trkpt>
      <trkpt lat="46.65557" lon="2.43772">
        <ele>225</ele>
        <time>2022-02-15T10:32:04Z</time>
      </trkpt>
      <trkpt lat="46.65557" lon="2.43767">
        <ele>225</ele>
        <time>2022-02-15T10:32:05Z</time>
      </trkpt>
      <trkpt lat="46.65553" lon="2.43761">
        <ele>225</ele>
        <time>2022-02-15T10:32:06Z</time>
      </trkpt>
      <trkpt lat="46.65547" lon="2.43759">
        <ele>225</ele>
        <time>2022-02-15T10:32:07Z</time>
      </trkpt>
      <trkpt lat="46.65542" lon="2.43764">
        <ele>225</ele>
        <time>2022-02-15T10:32:08Z</time>
      </trkpt>
      <trkpt lat="46.6553" lon="2.43747">
        <ele>225</ele>
        <time>2022-02-15T10:32:11Z</time>
      </trkpt>
      <trkpt lat="46.65518" lon="2.43723">
        <ele>225</ele>
        <time>2022-02-15T10:32:15Z</time>
      </trkpt>
      <trkpt lat="46.65508" lon="2.43711">
        <ele>225</ele>
        <time>2022-02-15T10:32:17Z</time>
      </trkpt>
      <trkpt lat="46.65379" lon="2.43584">
        <ele>223</ele>
        <time>2022-02-15T10:32:45Z</time>
      </trkpt>
      <trkpt lat="46.63545" lon="2.41743">
        <ele>219</ele>
        <time>2022-02-15T10:39:21Z</time>
      </trkpt>
      <trkpt lat="46.62645" lon="2.40837">
        <ele>224</ele>
        <time>2022-02-15T10:42:36Z</time>
      </trkpt>
      <trkpt lat="46.61946" lon="2.40142">
        <ele>237</ele>
        <time>2022-02-15T10:45:06Z</time>
      </trkpt>
      <trkpt lat="46.6183" lon="2.40037">
        <ele>239</ele>
        <time>2022-02-15T10:45:31Z</time>
      </trkpt>
      <trkpt lat="46.61716" lon="2.39952">
        <ele>236</ele>
        <time>2022-02-15T10:45:53Z</time>
      </trkpt>
      <trkpt lat="46.61423" lon="2.39728">
        <ele>227</ele>
        <time>2022-02-15T10:46:52Z</time>
      </trkpt>
      <trkpt lat="46.6133" lon="2.39671">
        <ele>222</ele>
        <time>2022-02-15T10:47:10Z</time>
      </trkpt>
      <trkpt lat="46.61251" lon="2.39638">
        <ele>218</ele>
        <time>2022-02-15T10:47:25Z</time>
      </trkpt>
      <trkpt lat="46.61221" lon="2.39613">
        <ele>218</ele>
        <time>2022-02-15T10:47:31Z</time>
      </trkpt>
      <trkpt lat="46.60955" lon="2.39304">
        <ele>226</ele>
        <time>2022-02-15T10:48:32Z</time>
      </trkpt>
      <trkpt lat="46.59728" lon="2.37893">
        <ele>226</ele>
        <time>2022-02-15T10:53:10Z</time>
      </trkpt>
      <trkpt lat="46.58869" lon="2.37095">
        <ele>229</ele>
        <time>2022-02-15T10:56:11Z</time>
      </trkpt>
      <trkpt lat="46.58821" lon="2.37052">
        <ele>226</ele>
        <time>2022-02-15T10:56:21Z</time>
      </trkpt>
      <trkpt lat="46.58774" lon="2.37025">
        <ele>225</ele>
        <time>2022-02-15T10:56:30Z</time>
      </trkpt>
      <trkpt lat="46.58251" lon="2.36876">
        <ele>225</ele>
        <time>2022-02-15T10:58:05Z</time>
      </trkpt>
      <trkpt lat="46.58051" lon="2.36912">
        <ele>230</ele>
        <time>2022-02-15T10:58:41Z</time>
      </trkpt>
      <trkpt lat="46.58032" lon="2.36909">
        <ele>230</ele>
        <time>2022-02-15T10:58:44Z</time>
      </trkpt>
      <trkpt lat="46.58005" lon="2.36897">
        <ele>231</ele>
        <time>2022-02-15T10:58:49Z</time>
      </trkpt>
      <trkpt lat="46.57991" lon="2.36887">
        <ele>231</ele>
        <time>2022-02-15T10:58:52Z</time>
      </trkpt>
      <trkpt lat="46.57979" lon="2.36875">
        <ele>231</ele>
        <time>2022-02-15T10:58:55Z</time>
      </trkpt>
      <trkpt lat="46.57967" lon="2.36857">
        <ele>232</ele>
        <time>2022-02-15T10:58:58Z</time>
      </trkpt>
      <trkpt lat="46.57953" lon="2.3683">
        <ele>233</ele>
        <time>2022-02-15T10:59:02Z</time>
      </trkpt>
      <trkpt lat="46.57889" lon="2.36445">
        <ele>227</ele>
        <time>2022-02-15T10:59:50Z</time>
      </trkpt>
      <trkpt lat="46.57811" lon="2.36249">
        <ele>226</ele>
        <time>2022-02-15T11:00:18Z</time>
      </trkpt>
      <trkpt lat="46.578" lon="2.36229">
        <ele>226</ele>
        <time>2022-02-15T11:00:21Z</time>
      </trkpt>
      <trkpt lat="46.57784" lon="2.36213">
        <ele>226</ele>
        <time>2022-02-15T11:00:25Z</time>
      </trkpt>
      <trkpt lat="46.5745" lon="2.35977">
        <ele>226</ele>
        <time>2022-02-15T11:01:31Z</time>
      </trkpt>
      <trkpt lat="46.57434" lon="2.35975">
        <ele>226</ele>
        <time>2022-02-15T11:01:33Z</time>
      </trkpt>
      <trkpt lat="46.57415" lon="2.35987">
        <ele>227</ele>
        <time>2022-02-15T11:01:37Z</time>
      </trkpt>
      <trkpt lat="46.57053" lon="2.36242">
        <ele>229</ele>
        <time>2022-02-15T11:02:49Z</time>
      </trkpt>
      <trkpt lat="46.57029" lon="2.36239">
        <ele>227</ele>
        <time>2022-02-15T11:02:53Z</time>
      </trkpt>
      <trkpt lat="46.57012" lon="2.36216">
        <ele>225</ele>
        <time>2022-02-15T11:02:57Z</time>
      </trkpt>
      <trkpt lat="46.56996" lon="2.36138">
        <ele>224</ele>
        <time>2022-02-15T11:03:07Z</time>
      </trkpt>
      <trkpt lat="46.56992" lon="2.36112">
        <ele>225</ele>
        <time>2022-02-15T11:03:10Z</time>
      </trkpt>
      <trkpt lat="46.5696" lon="2.35916">
        <ele>233</ele>
        <time>2022-02-15T11:03:35Z</time>
      </trkpt>
      <trkpt lat="46.56952" lon="2.35899">
        <ele>233</ele>
        <time>2022-02-15T11:03:38Z</time>
      </trkpt>
      <trkpt lat="46.56941" lon="2.3589">
        <ele>233</ele>
        <time>2022-02-15T11:03:40Z</time>
      </trkpt>
      <trkpt lat="46.56918" lon="2.35888">
        <ele>232</ele>
        <time>2022-02-15T11:03:44Z</time>
      </trkpt>
      <trkpt lat="46.56904" lon="2.35899">
        <ele>234</ele>
        <time>2022-02-15T11:03:47Z</time>
      </trkpt>
      <trkpt lat="46.56895" lon="2.35911">
        <ele>235</ele>
        <time>2022-02-15T11:03:49Z</time>
      </trkpt>
      <trkpt lat="46.56892" lon="2.35927">
        <ele>235</ele>
        <time>2022-02-15T11:03:51Z</time>
      </trkpt>
      <trkpt lat="46.56892" lon="2.36027">
        <ele>233</ele>
        <time>2022-02-15T11:04:03Z</time>
      </trkpt>
      <trkpt lat="46.56886" lon="2.36052">
        <ele>233</ele>
        <time>2022-02-15T11:04:06Z</time>
      </trkpt>
      <trkpt lat="46.56875" lon="2.36069">
        <ele>234</ele>
        <time>2022-02-15T11:04:09Z</time>
      </trkpt>
      <trkpt lat="46.56861" lon="2.36077">
        <ele>235</ele>
        <time>2022-02-15T11:04:12Z</time>
      </trkpt>
      <trkpt lat="46.56845" lon="2.36073">
        <ele>237</ele>
        <time>2022-02-15T11:04:15Z</time>
      </trkpt>
      <trkpt lat="46.56831" lon="2.3606">
        <ele>238</ele>
        <time>2022-02-15T11:04:18Z</time>
      </trkpt>
      <trkpt lat="46.56822" lon="2.36034">
        <ele>239</ele>
        <time>2022-02-15T11:04:21Z</time>
      </trkpt>
      <trkpt lat="46.56823" lon="2.35933">
        <ele>242</ele>
        <time>2022-02-15T11:04:34Z</time>
      </trkpt>
      <trkpt lat="46.56817" lon="2.35908">
        <ele>243</ele>
        <time>2022-02-15T11:04:37Z</time>
      </trkpt>
      <trkpt lat="46.56806" lon="2.35886">
        <ele>244</ele>
        <time>2022-02-15T11:04:40Z</time>
      </trkpt>
      <trkpt lat="46.56794" lon="2.35873">
        <ele>246</ele>
        <time>2022-02-15T11:04:43Z</time>
      </trkpt>
      <trkpt lat="46.56781" lon="2.35863">
        <ele>247</ele>
        <time>2022-02-15T11:04:46Z</time>
      </trkpt>
      <trkpt lat="46.56295" lon="2.35654">
        <ele>269</ele>
        <time>2022-02-15T11:06:16Z</time>
      </trkpt>
      <trkpt lat="46.55757" lon="2.3542">
        <ele>277</ele>
        <time>2022-02-15T11:07:56Z</time>
      </trkpt>
      <trkpt lat="46.55508" lon="2.35314">
        <ele>283</ele>
        <time>2022-02-15T11:08:42Z</time>
      </trkpt>
      <trkpt lat="46.5514" lon="2.35152">
        <ele>273</ele>
        <time>2022-02-15T11:09:50Z</time>
      </trkpt>
      <trkpt lat="46.54866" lon="2.35033">
        <ele>270</ele>
        <time>2022-02-15T11:10:41Z</time>
      </trkpt>
      <trkpt lat="46.54811" lon="2.35009">
        <ele>269</ele>
        <time>2022-02-15T11:10:51Z</time>
      </trkpt>
      <trkpt lat="46.54775" lon="2.34982">
        <ele>269</ele>
        <time>2022-02-15T11:10:58Z</time>
      </trkpt>
      <trkpt lat="46.54772" lon="2.34983">
        <ele>269</ele>
        <time>2022-02-15T11:10:59Z</time>
      </trkpt>
      <trkpt lat="46.54771" lon="2.34976">
        <ele>269</ele>
        <time>2022-02-15T11:11:00Z</time>
      </trkpt>
      <trkpt lat="46.54724" lon="2.34989">
        <ele>266</ele>
        <time>2022-02-15T11:11:08Z</time>
      </trkpt>
      <trkpt lat="46.54705" lon="2.3507">
        <ele>264</ele>
        <time>2022-02-15T11:11:19Z</time>
      </trkpt>
      <trkpt lat="46.54702" lon="2.35093">
        <ele>263</ele>
        <time>2022-02-15T11:11:22Z</time>
      </trkpt>
      <trkpt lat="46.54682" lon="2.35163">
        <ele>262</ele>
        <time>2022-02-15T11:11:31Z</time>
      </trkpt>
      <trkpt lat="46.54663" lon="2.35145">
        <ele>261</ele>
        <time>2022-02-15T11:11:35Z</time>
      </trkpt>
      <trkpt lat="46.54649" lon="2.35121">
        <ele>259</ele>
        <time>2022-02-15T11:11:39Z</time>
      </trkpt>
      <trkpt lat="46.54637" lon="2.35109">
        <ele>256</ele>
        <time>2022-02-15T11:11:42Z</time>
      </trkpt>
      <trkpt lat="46.54633" lon="2.35102">
        <ele>255</ele>
        <time>2022-02-15T11:11:43Z</time>
      </trkpt>
      <trkpt lat="46.54648" lon="2.35078">
        <ele>258</ele>
        <time>2022-02-15T11:11:47Z</time>
      </trkpt>
      <trkpt lat="46.54647" lon="2.35062">
        <ele>258</ele>
        <time>2022-02-15T11:11:49Z</time>
      </trkpt>
      <trkpt lat="46.54645" lon="2.35057">
        <ele>258</ele>
        <time>2022-02-15T11:11:49Z</time>
      </trkpt>
      <trkpt lat="46.54636" lon="2.35059">
        <ele>256</ele>
        <time>2022-02-15T11:11:51Z</time>
      </trkpt>
      <trkpt lat="46.54609" lon="2.35091">
        <ele>250</ele>
        <time>2022-02-15T11:11:57Z</time>
      </trkpt>
      <trkpt lat="46.54585" lon="2.35124">
        <ele>247</ele>
        <time>2022-02-15T11:12:03Z</time>
      </trkpt>
      <trkpt lat="46.54579" lon="2.35126">
        <ele>246</ele>
        <time>2022-02-15T11:12:04Z</time>
      </trkpt>
      <trkpt lat="46.54574" lon="2.3512">
        <ele>245</ele>
        <time>2022-02-15T11:12:05Z</time>
      </trkpt>
      <trkpt lat="46.54573" lon="2.35113">
        <ele>245</ele>
        <time>2022-02-15T11:12:06Z</time>
      </trkpt>
      <trkpt lat="46.54575" lon="2.35097">
        <ele>244</ele>
        <time>2022-02-15T11:12:08Z</time>
      </trkpt>
      <trkpt lat="46.54574" lon="2.35088">
        <ele>244</ele>
        <time>2022-02-15T11:12:09Z</time>
      </trkpt>
      <trkpt lat="46.5457" lon="2.35083">
        <ele>243</ele>
        <time>2022-02-15T11:12:10Z</time>
      </trkpt>
      <trkpt lat="46.54562" lon="2.3508">
        <ele>241</ele>
        <time>2022-02-15T11:12:12Z</time>
      </trkpt>
      <trkpt lat="46.54557" lon="2.35094">
        <ele>241</ele>
        <time>2022-02-15T11:12:14Z</time>
      </trkpt>
      <trkpt lat="46.5455" lon="2.35108">
        <ele>240</ele>
        <time>2022-02-15T11:12:16Z</time>
      </trkpt>
      <trkpt lat="46.54528" lon="2.35125">
        <ele>237</ele>
        <time>2022-02-15T11:12:20Z</time>
      </trkpt>
      <trkpt lat="46.5448" lon="2.35143">
        <ele>231</ele>
        <time>2022-02-15T11:12:29Z</time>
      </trkpt>
      <trkpt lat="46.54456" lon="2.35156">
        <ele>230</ele>
        <time>2022-02-15T11:12:33Z</time>
      </trkpt>
      <trkpt lat="46.54446" lon="2.35165">
        <ele>230</ele>
        <time>2022-02-15T11:12:36Z</time>
      </trkpt>
      <trkpt lat="46.54437" lon="2.35183">
        <ele>231</ele>
        <time>2022-02-15T11:12:38Z</time>
      </trkpt>
      <trkpt lat="46.54419" lon="2.35221">
        <ele>232</ele>
        <time>2022-02-15T11:12:44Z</time>
      </trkpt>
      <trkpt lat="46.54406" lon="2.35256">
        <ele>234</ele>
        <time>2022-02-15T11:12:49Z</time>
      </trkpt>
      <trkpt lat="46.54384" lon="2.35282">
        <ele>237</ele>
        <time>2022-02-15T11:12:54Z</time>
      </trkpt>
      <trkpt lat="46.54362" lon="2.35293">
        <ele>238</ele>
        <time>2022-02-15T11:12:58Z</time>
      </trkpt>
      <trkpt lat="46.54345" lon="2.35303">
        <ele>238</ele>
        <time>2022-02-15T11:13:01Z</time>
      </trkpt>
      <trkpt lat="46.54303" lon="2.3534">
        <ele>240</ele>
        <time>2022-02-15T11:13:10Z</time>
      </trkpt>
      <trkpt lat="46.54288" lon="2.35364">
        <ele>242</ele>
        <time>2022-02-15T11:13:14Z</time>
      </trkpt>
      <trkpt lat="46.5428" lon="2.35423">
        <ele>249</ele>
        <time>2022-02-15T11:13:21Z</time>
      </trkpt>
      <trkpt lat="46.54275" lon="2.35447">
        <ele>250</ele>
        <time>2022-02-15T11:13:24Z</time>
      </trkpt>
      <trkpt lat="46.54256" lon="2.35487">
        <ele>252</ele>
        <time>2022-02-15T11:13:30Z</time>
      </trkpt>
      <trkpt lat="46.54253" lon="2.35499">
        <ele>252</ele>
        <time>2022-02-15T11:13:32Z</time>
      </trkpt>
      <trkpt lat="46.54253" lon="2.35508">
        <ele>253</ele>
        <time>2022-02-15T11:13:33Z</time>
      </trkpt>
      <trkpt lat="46.54256" lon="2.35517">
        <ele>253</ele>
        <time>2022-02-15T11:13:34Z</time>
      </trkpt>
      <trkpt lat="46.54264" lon="2.35533">
        <ele>255</ele>
        <time>2022-02-15T11:13:37Z</time>
      </trkpt>
      <trkpt lat="46.54245" lon="2.35656">
        <ele>260</ele>
        <time>2022-02-15T11:13:52Z</time>
      </trkpt>
      <trkpt lat="46.54244" lon="2.35686">
        <ele>261</ele>
        <time>2022-02-15T11:13:56Z</time>
      </trkpt>
      <trkpt lat="46.54247" lon="2.35731">
        <ele>261</ele>
        <time>2022-02-15T11:14:01Z</time>
      </trkpt>
      <trkpt lat="46.54284" lon="2.35952">
        <ele>271</ele>
        <time>2022-02-15T11:14:29Z</time>
      </trkpt>
      <trkpt lat="46.54286" lon="2.35994">
        <ele>272</ele>
        <time>2022-02-15T11:14:34Z</time>
      </trkpt>
      <trkpt lat="46.54285" lon="2.36013">
        <ele>273</ele>
        <time>2022-02-15T11:14:37Z</time>
      </trkpt>
      <trkpt lat="46.54298" lon="2.36014">
        <ele>273</ele>
        <time>2022-02-15T11:14:39Z</time>
      </trkpt>
      <trkpt lat="46.54317" lon="2.36019">
        <ele>274</ele>
        <time>2022-02-15T11:14:42Z</time>
      </trkpt>
      <trkpt lat="46.54363" lon="2.36039">
        <ele>275</ele>
        <time>2022-02-15T11:14:51Z</time>
      </trkpt>
      <trkpt lat="46.54397" lon="2.36067">
        <ele>276</ele>
        <time>2022-02-15T11:14:58Z</time>
      </trkpt>
      <trkpt lat="46.54416" lon="2.36087">
        <ele>276</ele>
        <time>2022-02-15T11:15:02Z</time>
      </trkpt>
      <trkpt lat="46.54434" lon="2.36113">
        <ele>277</ele>
        <time>2022-02-15T11:15:07Z</time>
      </trkpt>
      <trkpt lat="46.54447" lon="2.36134">
        <ele>278</ele>
        <time>2022-02-15T11:15:10Z</time>
      </trkpt>
      <trkpt lat="46.54458" lon="2.36158">
        <ele>279</ele>
        <time>2022-02-15T11:15:14Z</time>
      </trkpt>
      <trkpt lat="46.54477" lon="2.36205">
        <ele>280</ele>
        <time>2022-02-15T11:15:20Z</time>
      </trkpt>
      <trkpt lat="46.54485" lon="2.36236">
        <ele>281</ele>
        <time>2022-02-15T11:15:24Z</time>
      </trkpt>
      <trkpt lat="46.54494" lon="2.3629">
        <ele>282</ele>
        <time>2022-02-15T11:15:31Z</time>
      </trkpt>
      <trkpt lat="46.54497" lon="2.36323">
        <ele>283</ele>
        <time>2022-02-15T11:15:35Z</time>
      </trkpt>
      <trkpt lat="46.54498" lon="2.36393">
        <ele>284</ele>
        <time>2022-02-15T11:15:44Z</time>
      </trkpt>
      <trkpt lat="46.54495" lon="2.36667">
        <ele>294</ele>
        <time>2022-02-15T11:16:17Z</time>
      </trkpt>
      <trkpt lat="46.54487" lon="2.37059">
        <ele>276</ele>
        <time>2022-02-15T11:17:05Z</time>
      </trkpt>
      <trkpt lat="46.54489" lon="2.37116">
        <ele>272</ele>
        <time>2022-02-15T11:17:12Z</time>
      </trkpt>
      <trkpt lat="46.54519" lon="2.37465">
        <ele>259</ele>
        <time>2022-02-15T11:17:55Z</time>
      </trkpt>
      <trkpt lat="46.54519" lon="2.37491">
        <ele>259</ele>
        <time>2022-02-15T11:17:58Z</time>
      </trkpt>
      <trkpt lat="46.54518" lon="2.37515">
        <ele>259</ele>
        <time>2022-02-15T11:18:01Z</time>
      </trkpt>
      <trkpt lat="46.54512" lon="2.37559">
        <ele>261</ele>
        <time>2022-02-15T11:18:07Z</time>
      </trkpt>
      <trkpt lat="46.54504" lon="2.37598">
        <ele>262</ele>
        <time>2022-02-15T11:18:12Z</time>
      </trkpt>
      <trkpt lat="46.54492" lon="2.37641">
        <ele>262</ele>
        <time>2022-02-15T11:18:18Z</time>
      </trkpt>
      <trkpt lat="46.54456" lon="2.3775">
        <ele>261</ele>
        <time>2022-02-15T11:18:32Z</time>
      </trkpt>
      <trkpt lat="46.54442" lon="2.37804">
        <ele>260</ele>
        <time>2022-02-15T11:18:39Z</time>
      </trkpt>
      <trkpt lat="46.54435" lon="2.37849">
        <ele>260</ele>
        <time>2022-02-15T11:18:45Z</time>
      </trkpt>
      <trkpt lat="46.54432" lon="2.37878">
        <ele>260</ele>
        <time>2022-02-15T11:18:49Z</time>
      </trkpt>
      <trkpt lat="46.54432" lon="2.37905">
        <ele>259</ele>
        <time>2022-02-15T11:18:52Z</time>
      </trkpt>
      <trkpt lat="46.54438" lon="2.37993">
        <ele>259</ele>
        <time>2022-02-15T11:19:03Z</time>
      </trkpt>
      <trkpt lat="46.54444" lon="2.38043">
        <ele>259</ele>
        <time>2022-02-15T11:19:09Z</time>
      </trkpt>
      <trkpt lat="46.54447" lon="2.38098">
        <ele>259</ele>
        <time>2022-02-15T11:19:16Z</time>
      </trkpt>
      <trkpt lat="46.54446" lon="2.38143">
        <ele>259</ele>
        <time>2022-02-15T11:19:21Z</time>
      </trkpt>
      <trkpt lat="46.54443" lon="2.38188">
        <ele>260</ele>
        <time>2022-02-15T11:19:27Z</time>
      </trkpt>
      <trkpt lat="46.54452" lon="2.3819">
        <ele>260</ele>
        <time>2022-02-15T11:19:28Z</time>
      </trkpt>
      <trkpt lat="46.54516" lon="2.38254">
        <ele>262</ele>
        <time>2022-02-15T11:19:42Z</time>
      </trkpt>
      <trkpt lat="46.54576" lon="2.38324">
        <ele>266</ele>
        <time>2022-02-15T11:19:56Z</time>
      </trkpt>
      <trkpt lat="46.54608" lon="2.38379">
        <ele>270</ele>
        <time>2022-02-15T11:20:05Z</time>
      </trkpt>
      <trkpt lat="46.54701" lon="2.3856">
        <ele>275</ele>
        <time>2022-02-15T11:20:32Z</time>
      </trkpt>
      <trkpt lat="46.54756" lon="2.38709">
        <ele>280</ele>
        <time>2022-02-15T11:20:53Z</time>
      </trkpt>
      <trkpt lat="46.54824" lon="2.38977">
        <ele>286</ele>
        <time>2022-02-15T11:21:28Z</time>
      </trkpt>
      <trkpt lat="46.54845" lon="2.39146">
        <ele>285</ele>
        <time>2022-02-15T11:21:49Z</time>
      </trkpt>
      <trkpt lat="46.54841" lon="2.39262">
        <ele>288</ele>
        <time>2022-02-15T11:22:03Z</time>
      </trkpt>
      <trkpt lat="46.54871" lon="2.39372">
        <ele>292</ele>
        <time>2022-02-15T11:22:18Z</time>
      </trkpt>
      <trkpt lat="46.54997" lon="2.39802">
        <ele>308</ele>
        <time>2022-02-15T11:23:15Z</time>
      </trkpt>
      <trkpt lat="46.55002" lon="2.39839">
        <ele>309</ele>
        <time>2022-02-15T11:23:19Z</time>
      </trkpt>
      <trkpt lat="46.54989" lon="2.39937">
        <ele>315</ele>
        <time>2022-02-15T11:23:32Z</time>
      </trkpt>
      <trkpt lat="46.54966" lon="2.40037">
        <ele>318</ele>
        <time>2022-02-15T11:23:45Z</time>
      </trkpt>
      <trkpt lat="46.54963" lon="2.40067">
        <ele>319</ele>
        <time>2022-02-15T11:23:48Z</time>
      </trkpt>
      <trkpt lat="46.54965" lon="2.40101">
        <ele>320</ele>
        <time>2022-02-15T11:23:52Z</time>
      </trkpt>
      <trkpt lat="46.54976" lon="2.40144">
        <ele>320</ele>
        <time>2022-02-15T11:23:58Z</time>
      </trkpt>
      <trkpt lat="46.55022" lon="2.40275">
        <ele>325</ele>
        <time>2022-02-15T11:24:16Z</time>
      </trkpt>
      <trkpt lat="46.55134" lon="2.4055">
        <ele>336</ele>
        <time>2022-02-15T11:24:55Z</time>
      </trkpt>
      <trkpt lat="46.55158" lon="2.40624">
        <ele>337</ele>
        <time>2022-02-15T11:25:05Z</time>
      </trkpt>
      <trkpt lat="46.55206" lon="2.40845">
        <ele>344</ele>
        <time>2022-02-15T11:25:34Z</time>
      </trkpt>
      <trkpt lat="46.553" lon="2.40953">
        <ele>341</ele>
        <time>2022-02-15T11:25:55Z</time>
      </trkpt>
      <trkpt lat="46.55535" lon="2.41296">
        <ele>349</ele>
        <time>2022-02-15T11:26:54Z</time>
      </trkpt>
      <trkpt lat="46.55585" lon="2.41362">
        <ele>348</ele>
        <time>2022-02-15T11:27:06Z</time>
      </trkpt>
      <trkpt lat="46.55732" lon="2.41679">
        <ele>343</ele>
        <time>2022-02-15T11:27:53Z</time>
      </trkpt>
      <trkpt lat="46.55792" lon="2.41783">
        <ele>342</ele>
        <time>2022-02-15T11:28:10Z</time>
      </trkpt>
      <trkpt lat="46.55808" lon="2.41801">
        <ele>341</ele>
        <time>2022-02-15T11:28:13Z</time>
      </trkpt>
      <trkpt lat="46.55841" lon="2.41827">
        <ele>339</ele>
        <time>2022-02-15T11:28:20Z</time>
      </trkpt>
      <trkpt lat="46.55865" lon="2.4186">
        <ele>338</ele>
        <time>2022-02-15T11:28:26Z</time>
      </trkpt>
      <trkpt lat="46.5597" lon="2.42036">
        <ele>332</ele>
        <time>2022-02-15T11:28:54Z</time>
      </trkpt>
      <trkpt lat="46.56031" lon="2.42103">
        <ele>327</ele>
        <time>2022-02-15T11:29:08Z</time>
      </trkpt>
      <trkpt lat="46.56129" lon="2.42186">
        <ele>323</ele>
        <time>2022-02-15T11:29:28Z</time>
      </trkpt>
      <trkpt lat="46.56175" lon="2.42205">
        <ele>322</ele>
        <time>2022-02-15T11:29:36Z</time>
      </trkpt>
      <trkpt lat="46.56195" lon="2.42219">
        <ele>321</ele>
        <time>2022-02-15T11:29:40Z</time>
      </trkpt>
      <trkpt lat="46.56233" lon="2.42273">
        <ele>318</ele>
        <time>2022-02-15T11:29:50Z</time>
      </trkpt>
      <trkpt lat="46.56239" lon="2.42296">
        <ele>318</ele>
        <time>2022-02-15T11:29:53Z</time>
      </trkpt>
      <trkpt lat="46.56238" lon="2.42324">
        <ele>317</ele>
        <time>2022-02-15T11:29:56Z</time>
      </trkpt>
      <trkpt lat="46.56218" lon="2.42425">
        <ele>312</ele>
        <time>2022-02-15T11:30:09Z</time>
      </trkpt>
      <trkpt lat="46.5622" lon="2.42465">
        <ele>309</ele>
        <time>2022-02-15T11:30:14Z</time>
      </trkpt>
      <trkpt lat="46.5623" lon="2.42522">
        <ele>306</ele>
        <time>2022-02-15T11:30:21Z</time>
      </trkpt>
      <trkpt lat="46.56247" lon="2.42556">
        <ele>304</ele>
        <time>2022-02-15T11:30:26Z</time>
      </trkpt>
      <trkpt lat="46.56286" lon="2.42617">
        <ele>300</ele>
        <time>2022-02-15T11:30:37Z</time>
      </trkpt>
      <trkpt lat="46.5632" lon="2.42645">
        <ele>298</ele>
        <time>2022-02-15T11:30:44Z</time>
      </trkpt>
      <trkpt lat="46.56365" lon="2.42674">
        <ele>295</ele>
        <time>2022-02-15T11:30:52Z</time>
      </trkpt>
      <trkpt lat="46.56405" lon="2.42744">
        <ele>292</ele>
        <time>2022-02-15T11:31:03Z</time>
      </trkpt>
      <trkpt lat="46.56436" lon="2.42828">
        <ele>287</ele>
        <time>2022-02-15T11:31:15Z</time>
      </trkpt>
      <trkpt lat="46.56464" lon="2.42872">
        <ele>284</ele>
        <time>2022-02-15T11:31:22Z</time>
      </trkpt>
      <trkpt lat="46.5662" lon="2.4305">
        <ele>275</ele>
        <time>2022-02-15T11:31:58Z</time>
      </trkpt>
      <trkpt lat="46.56698" lon="2.43147">
        <ele>273</ele>
        <time>2022-02-15T11:32:16Z</time>
      </trkpt>
      <trkpt lat="46.5672" lon="2.43188">
        <ele>271</ele>
        <time>2022-02-15T11:32:22Z</time>
      </trkpt>
      <trkpt lat="46.56743" lon="2.43297">
        <ele>271</ele>
        <time>2022-02-15T11:32:36Z</time>
      </trkpt>
      <trkpt lat="46.56757" lon="2.4333">
        <ele>271</ele>
        <time>2022-02-15T11:32:41Z</time>
      </trkpt>
      <trkpt lat="46.56799" lon="2.4341">
        <ele>269</ele>
        <time>2022-02-15T11:32:53Z</time>
      </trkpt>
      <trkpt lat="46.56945" lon="2.43787">
        <ele>262</ele>
        <time>2022-02-15T11:33:46Z</time>
      </trkpt>
      <trkpt lat="46.57113" lon="2.44085">
        <ele>261</ele>
        <time>2022-02-15T11:34:33Z</time>
      </trkpt>
      <trkpt lat="46.5715" lon="2.44143">
        <ele>260</ele>
        <time>2022-02-15T11:34:43Z</time>
      </trkpt>
      <trkpt lat="46.57249" lon="2.4428">
        <ele>257</ele>
        <time>2022-02-15T11:35:07Z</time>
      </trkpt>
      <trkpt lat="46.57337" lon="2.44353">
        <ele>257</ele>
        <time>2022-02-15T11:35:25Z</time>
      </trkpt>
      <trkpt lat="46.57352" lon="2.44355">
        <ele>256</ele>
        <time>2022-02-15T11:35:28Z</time>
      </trkpt>
      <trkpt lat="46.57378" lon="2.44349">
        <ele>255</ele>
        <time>2022-02-15T11:35:33Z</time>
      </trkpt>
      <trkpt lat="46.57409" lon="2.44373">
        <ele>254</ele>
        <time>2022-02-15T11:35:39Z</time>
      </trkpt>
      <trkpt lat="46.57231" lon="2.44703">
        <ele>253</ele>
        <time>2022-02-15T11:36:30Z</time>
      </trkpt>
      <trkpt lat="46.57191" lon="2.4478">
        <ele>255</ele>
        <time>2022-02-15T11:36:42Z</time>
      </trkpt>
      <trkpt lat="46.57173" lon="2.44822">
        <ele>256</ele>
        <time>2022-02-15T11:36:48Z</time>
      </trkpt>
      <trkpt lat="46.57155" lon="2.44893">
        <ele>258</ele>
        <time>2022-02-15T11:36:57Z</time>
      </trkpt>
      <trkpt lat="46.57025" lon="2.45583">
        <ele>263</ele>
        <time>2022-02-15T11:38:25Z</time>
      </trkpt>
      <trkpt lat="46.57253" lon="2.4602">
        <ele>260</ele>
        <time>2022-02-15T11:39:32Z</time>
      </trkpt>
      <trkpt lat="46.57299" lon="2.46088">
        <ele>257</ele>
        <time>2022-02-15T11:39:44Z</time>
      </trkpt>
      <trkpt lat="46.57923" lon="2.4692">
        <ele>250</ele>
        <time>2022-02-15T11:42:14Z</time>
      </trkpt>
      <trkpt lat="46.57938" lon="2.46931">
        <ele>250</ele>
        <time>2022-02-15T11:42:17Z</time>
      </trkpt>
      <trkpt lat="46.5812" lon="2.47044">
        <ele>244</ele>
        <time>2022-02-15T11:42:53Z</time>
      </trkpt>
      <trkpt lat="46.58266" lon="2.47131">
        <ele>239</ele>
        <time>2022-02-15T11:43:21Z</time>
      </trkpt>
      <trkpt lat="46.58375" lon="2.47171">
        <ele>239</ele>
        <time>2022-02-15T11:43:41Z</time>
      </trkpt>
      <trkpt lat="46.58461" lon="2.47198">
        <ele>238</ele>
        <time>2022-02-15T11:43:56Z</time>
      </trkpt>
      <trkpt lat="46.58567" lon="2.47239">
        <ele>239</ele>
        <time>2022-02-15T11:44:16Z</time>
      </trkpt>
      <trkpt lat="46.58698" lon="2.47347">
        <ele>241</ele>
        <time>2022-02-15T11:44:43Z</time>
      </trkpt>
      <trkpt lat="46.58785" lon="2.47422">
        <ele>239</ele>
        <time>2022-02-15T11:45:01Z</time>
      </trkpt>
      <trkpt lat="46.58798" lon="2.47444">
        <ele>239</ele>
        <time>2022-02-15T11:45:04Z</time>
      </trkpt>
      <trkpt lat="46.58806" lon="2.47467">
        <ele>239</ele>
        <time>2022-02-15T11:45:07Z</time>
      </trkpt>
      <trkpt lat="46.58855" lon="2.4766">
        <ele>235</ele>
        <time>2022-02-15T11:45:32Z</time>
      </trkpt>
      <trkpt lat="46.5887" lon="2.47713">
        <ele>234</ele>
        <time>2022-02-15T11:45:39Z</time>
      </trkpt>
      <trkpt lat="46.58883" lon="2.47749">
        <ele>233</ele>
        <time>2022-02-15T11:45:44Z</time>
      </trkpt>
      <trkpt lat="46.58986" lon="2.47922">
        <ele>229</ele>
        <time>2022-02-15T11:46:12Z</time>
      </trkpt>
      <trkpt lat="46.58997" lon="2.47944">
        <ele>229</ele>
        <time>2022-02-15T11:46:16Z</time>
      </trkpt>
      <trkpt lat="46.59" lon="2.47954">
        <ele>229</ele>
        <time>2022-02-15T11:46:17Z</time>
      </trkpt>
      <trkpt lat="46.5901" lon="2.48058">
        <ele>230</ele>
        <time>2022-02-15T11:46:30Z</time>
      </trkpt>
      <trkpt lat="46.59017" lon="2.48076">
        <ele>230</ele>
        <time>2022-02-15T11:46:32Z</time>
      </trkpt>
      <trkpt lat="46.59039" lon="2.48107">
        <ele>230</ele>
        <time>2022-02-15T11:46:38Z</time>
      </trkpt>
      <trkpt lat="46.59053" lon="2.4812">
        <ele>230</ele>
        <time>2022-02-15T11:46:41Z</time>
      </trkpt>
      <trkpt lat="46.59108" lon="2.48138">
        <ele>228</ele>
        <time>2022-02-15T11:46:51Z</time>
      </trkpt>
      <trkpt lat="46.59251" lon="2.48179">
        <ele>226</ele>
        <time>2022-02-15T11:47:17Z</time>
      </trkpt>
      <trkpt lat="46.59265" lon="2.48189">
        <ele>225</ele>
        <time>2022-02-15T11:47:20Z</time>
      </trkpt>
      <trkpt lat="46.59277" lon="2.48204">
        <ele>225</ele>
        <time>2022-02-15T11:47:22Z</time>
      </trkpt>
      <trkpt lat="46.59312" lon="2.48269">
        <ele>222</ele>
        <time>2022-02-15T11:47:33Z</time>
      </trkpt>
      <trkpt lat="46.59363" lon="2.48359">
        <ele>221</ele>
        <time>2022-02-15T11:47:47Z</time>
      </trkpt>
      <trkpt lat="46.5937" lon="2.48377">
        <ele>221</ele>
        <time>2022-02-15T11:47:49Z</time>
      </trkpt>
      <trkpt lat="46.59379" lon="2.4841">
        <ele>221</ele>
        <time>2022-02-15T11:47:54Z</time>
      </trkpt>
      <trkpt lat="46.59397" lon="2.48486">
        <ele>223</ele>
        <time>2022-02-15T11:48:03Z</time>
      </trkpt>
      <trkpt lat="46.59456" lon="2.4866">
        <ele>225</ele>
        <time>2022-02-15T11:48:27Z</time>
      </trkpt>
      <trkpt lat="46.59476" lon="2.48722">
        <ele>224</ele>
        <time>2022-02-15T11:48:36Z</time>
      </trkpt>
      <trkpt lat="46.59494" lon="2.48822">
        <ele>226</ele>
        <time>2022-02-15T11:48:48Z</time>
      </trkpt>
      <trkpt lat="46.59504" lon="2.48865">
        <ele>227</ele>
        <time>2022-02-15T11:48:54Z</time>
      </trkpt>
      <trkpt lat="46.59563" lon="2.49084">
        <ele>224</ele>
        <time>2022-02-15T11:49:23Z</time>
      </trkpt>
      <trkpt lat="46.59576" lon="2.4911">
        <ele>224</ele>
        <time>2022-02-15T11:49:26Z</time>
      </trkpt>
      <trkpt lat="46.596" lon="2.49135">
        <ele>224</ele>
        <time>2022-02-15T11:49:32Z</time>
      </trkpt>
      <trkpt lat="46.59621" lon="2.49149">
        <ele>224</ele>
        <time>2022-02-15T11:49:36Z</time>
      </trkpt>
      <trkpt lat="46.59639" lon="2.49157">
        <ele>224</ele>
        <time>2022-02-15T11:49:39Z</time>
      </trkpt>
      <trkpt lat="46.5974" lon="2.49199">
        <ele>226</ele>
        <time>2022-02-15T11:49:58Z</time>
      </trkpt>
      <trkpt lat="46.59755" lon="2.4921">
        <ele>226</ele>
        <time>2022-02-15T11:50:01Z</time>
      </trkpt>
      <trkpt lat="46.59764" lon="2.49221">
        <ele>226</ele>
        <time>2022-02-15T11:50:03Z</time>
      </trkpt>
      <trkpt lat="46.59776" lon="2.49238">
        <ele>226</ele>
        <time>2022-02-15T11:50:06Z</time>
      </trkpt>
      <trkpt lat="46.59794" lon="2.49272">
        <ele>225</ele>
        <time>2022-02-15T11:50:11Z</time>
      </trkpt>
      <trkpt lat="46.59822" lon="2.49321">
        <ele>224</ele>
        <time>2022-02-15T11:50:19Z</time>
      </trkpt>
      <trkpt lat="46.59854" lon="2.49363">
        <ele>223</ele>
        <time>2022-02-15T11:50:27Z</time>
      </trkpt>
      <trkpt lat="46.59862" lon="2.49376">
        <ele>223</ele>
        <time>2022-02-15T11:50:29Z</time>
      </trkpt>
      <trkpt lat="46.59865" lon="2.49388">
        <ele>223</ele>
        <time>2022-02-15T11:50:30Z</time>
      </trkpt>
      <trkpt lat="46.59867" lon="2.49404">
        <ele>224</ele>
        <time>2022-02-15T11:50:32Z</time>
      </trkpt>
      <trkpt lat="46.59864" lon="2.49478">
        <ele>226</ele>
        <time>2022-02-15T11:50:41Z</time>
      </trkpt>
      <trkpt lat="46.59871" lon="2.49518">
        <ele>227</ele>
        <time>2022-02-15T11:50:46Z</time>
      </trkpt>
      <trkpt lat="46.59871" lon="2.49542">
        <ele>227</ele>
        <time>2022-02-15T11:50:49Z</time>
      </trkpt>
      <trkpt lat="46.59875" lon="2.49575">
        <ele>227</ele>
        <time>2022-02-15T11:50:53Z</time>
      </trkpt>
      <trkpt lat="46.59908" lon="2.49593">
        <ele>227</ele>
        <time>2022-02-15T11:51:00Z</time>
      </trkpt>
      <trkpt lat="46.59908" lon="2.49598">
        <ele>227</ele>
        <time>2022-02-15T11:51:00Z</time>
      </trkpt>
      <trkpt lat="46.59925" lon="2.49675">
        <ele>223</ele>
        <time>2022-02-15T11:51:10Z</time>
      </trkpt>
      <trkpt lat="46.59933" lon="2.49745">
        <ele>220</ele>
        <time>2022-02-15T11:51:19Z</time>
      </trkpt>
      <trkpt lat="46.59942" lon="2.49835">
        <ele>217</ele>
        <time>2022-02-15T11:51:30Z</time>
      </trkpt>
      <trkpt lat="46.59943" lon="2.49866">
        <ele>216</ele>
        <time>2022-02-15T11:51:34Z</time>
      </trkpt>
      <trkpt lat="46.59943" lon="2.49914">
        <ele>213</ele>
        <time>2022-02-15T11:51:40Z</time>
      </trkpt>
      <trkpt lat="46.59929" lon="2.5003">
        <ele>209</ele>
        <time>2022-02-15T11:51:54Z</time>
      </trkpt>
      <trkpt lat="46.59926" lon="2.50088">
        <ele>207</ele>
        <time>2022-02-15T11:52:01Z</time>
      </trkpt>
      <trkpt lat="46.59942" lon="2.50178">
        <ele>208</ele>
        <time>2022-02-15T11:52:13Z</time>
      </trkpt>
      <trkpt lat="46.59944" lon="2.50189">
        <ele>208</ele>
        <time>2022-02-15T11:52:14Z</time>
      </trkpt>
      <trkpt lat="46.59955" lon="2.5024">
        <ele>209</ele>
        <time>2022-02-15T11:52:20Z</time>
      </trkpt>
      <trkpt lat="46.59972" lon="2.50282">
        <ele>208</ele>
        <time>2022-02-15T11:52:26Z</time>
      </trkpt>
      <trkpt lat="46.60022" lon="2.50377">
        <ele>211</ele>
        <time>2022-02-15T11:52:41Z</time>
      </trkpt>
      <trkpt lat="46.60274" lon="2.50883">
        <ele>233</ele>
        <time>2022-02-15T11:53:57Z</time>
      </trkpt>
      <trkpt lat="46.60296" lon="2.50924">
        <ele>234</ele>
        <time>2022-02-15T11:54:04Z</time>
      </trkpt>
      <trkpt lat="46.60328" lon="2.50986">
        <ele>236</ele>
        <time>2022-02-15T11:54:13Z</time>
      </trkpt>
      <trkpt lat="46.60357" lon="2.51046">
        <ele>236</ele>
        <time>2022-02-15T11:54:22Z</time>
      </trkpt>
      <trkpt lat="46.60363" lon="2.51075">
        <ele>236</ele>
        <time>2022-02-15T11:54:26Z</time>
      </trkpt>
      <trkpt lat="46.60363" lon="2.51092">
        <ele>236</ele>
        <time>2022-02-15T11:54:28Z</time>
      </trkpt>
      <trkpt lat="46.60323" lon="2.51383">
        <ele>235</ele>
        <time>2022-02-15T11:55:04Z</time>
      </trkpt>
      <trkpt lat="46.60313" lon="2.5148">
        <ele>233</ele>
        <time>2022-02-15T11:55:16Z</time>
      </trkpt>
      <trkpt lat="46.60312" lon="2.51516">
        <ele>233</ele>
        <time>2022-02-15T11:55:21Z</time>
      </trkpt>
      <trkpt lat="46.60317" lon="2.51545">
        <ele>233</ele>
        <time>2022-02-15T11:55:24Z</time>
      </trkpt>
      <trkpt lat="46.60329" lon="2.51587">
        <ele>232</ele>
        <time>2022-02-15T11:55:30Z</time>
      </trkpt>
      <trkpt lat="46.60492" lon="2.52004">
        <ele>229</ele>
        <time>2022-02-15T11:56:29Z</time>
      </trkpt>
      <trkpt lat="46.60561" lon="2.52189">
        <ele>226</ele>
        <time>2022-02-15T11:56:54Z</time>
      </trkpt>
      <trkpt lat="46.60574" lon="2.52238">
        <ele>225</ele>
        <time>2022-02-15T11:57:01Z</time>
      </trkpt>
      <trkpt lat="46.6061" lon="2.52414">
        <ele>227</ele>
        <time>2022-02-15T11:57:23Z</time>
      </trkpt>
      <trkpt lat="46.60623" lon="2.525">
        <ele>226</ele>
        <time>2022-02-15T11:57:34Z</time>
      </trkpt>
      <trkpt lat="46.60636" lon="2.52661">
        <ele>226</ele>
        <time>2022-02-15T11:57:54Z</time>
      </trkpt>
      <trkpt lat="46.60644" lon="2.52702">
        <ele>225</ele>
        <time>2022-02-15T11:57:59Z</time>
      </trkpt>
      <trkpt lat="46.60782" lon="2.533">
        <ele>220</ele>
        <time>2022-02-15T11:59:16Z</time>
      </trkpt>
      <trkpt lat="46.60794" lon="2.53343">
        <ele>219</ele>
        <time>2022-02-15T11:59:22Z</time>
      </trkpt>
      <trkpt lat="46.60806" lon="2.53369">
        <ele>219</ele>
        <time>2022-02-15T11:59:26Z</time>
      </trkpt>
      <trkpt lat="46.60823" lon="2.53401">
        <ele>219</ele>
        <time>2022-02-15T11:59:31Z</time>
      </trkpt>
      <trkpt lat="46.60921" lon="2.53565">
        <ele>215</ele>
        <time>2022-02-15T11:59:57Z</time>
      </trkpt>
      <trkpt lat="46.60943" lon="2.53616">
        <ele>214</ele>
        <time>2022-02-15T12:00:04Z</time>
      </trkpt>
      <trkpt lat="46.60985" lon="2.53744">
        <ele>213</ele>
        <time>2022-02-15T12:00:22Z</time>
      </trkpt>
      <trkpt lat="46.61037" lon="2.53891">
        <ele>209</ele>
        <time>2022-02-15T12:00:42Z</time>
      </trkpt>
      <trkpt lat="46.61079" lon="2.53992">
        <ele>209</ele>
        <time>2022-02-15T12:00:56Z</time>
      </trkpt>
      <trkpt lat="46.61101" lon="2.54037">
        <ele>207</ele>
        <time>2022-02-15T12:01:03Z</time>
      </trkpt>
      <trkpt lat="46.61117" lon="2.54091">
        <ele>206</ele>
        <time>2022-02-15T12:01:10Z</time>
      </trkpt>
      <trkpt lat="46.61142" lon="2.54234">
        <ele>204</ele>
        <time>2022-02-15T12:01:28Z</time>
      </trkpt>
      <trkpt lat="46.61149" lon="2.54261">
        <ele>203</ele>
        <time>2022-02-15T12:01:32Z</time>
      </trkpt>
      <trkpt lat="46.61155" lon="2.54276">
        <ele>202</ele>
        <time>2022-02-15T12:01:34Z</time>
      </trkpt>
      <trkpt lat="46.61179" lon="2.54309">
        <ele>199</ele>
        <time>2022-02-15T12:01:40Z</time>
      </trkpt>
      <trkpt lat="46.6121" lon="2.54341">
        <ele>197</ele>
        <time>2022-02-15T12:01:47Z</time>
      </trkpt>
      <trkpt lat="46.6123" lon="2.54369">
        <ele>197</ele>
        <time>2022-02-15T12:01:52Z</time>
      </trkpt>
      <trkpt lat="46.61258" lon="2.54414">
        <ele>198</ele>
        <time>2022-02-15T12:01:59Z</time>
      </trkpt>
      <trkpt lat="46.61282" lon="2.54458">
        <ele>196</ele>
        <time>2022-02-15T12:02:06Z</time>
      </trkpt>
      <trkpt lat="46.61314" lon="2.5451">
        <ele>195</ele>
        <time>2022-02-15T12:02:14Z</time>
      </trkpt>
      <trkpt lat="46.61335" lon="2.54534">
        <ele>193</ele>
        <time>2022-02-15T12:02:19Z</time>
      </trkpt>
      <trkpt lat="46.61409" lon="2.54594">
        <ele>190</ele>
        <time>2022-02-15T12:02:34Z</time>
      </trkpt>
      <trkpt lat="46.6152" lon="2.54692">
        <ele>187</ele>
        <time>2022-02-15T12:02:57Z</time>
      </trkpt>
      <trkpt lat="46.61541" lon="2.54711">
        <ele>186</ele>
        <time>2022-02-15T12:03:02Z</time>
      </trkpt>
      <trkpt lat="46.61586" lon="2.54762">
        <ele>186</ele>
        <time>2022-02-15T12:03:12Z</time>
      </trkpt>
      <trkpt lat="46.61591" lon="2.54769">
        <ele>186</ele>
        <time>2022-02-15T12:03:13Z</time>
      </trkpt>
      <trkpt lat="46.61602" lon="2.54785">
        <ele>185</ele>
        <time>2022-02-15T12:03:16Z</time>
      </trkpt>
      <trkpt lat="46.61807" lon="2.5513">
        <ele>194</ele>
        <time>2022-02-15T12:04:12Z</time>
      </trkpt>
      <trkpt lat="46.6183" lon="2.55156">
        <ele>195</ele>
        <time>2022-02-15T12:04:17Z</time>
      </trkpt>
      <trkpt lat="46.61849" lon="2.55182">
        <ele>196</ele>
        <time>2022-02-15T12:04:22Z</time>
      </trkpt>
      <trkpt lat="46.61876" lon="2.55244">
        <ele>197</ele>
        <time>2022-02-15T12:04:30Z</time>
      </trkpt>
      <trkpt lat="46.61893" lon="2.55279">
        <ele>197</ele>
        <time>2022-02-15T12:04:36Z</time>
      </trkpt>
      <trkpt lat="46.61938" lon="2.55337">
        <ele>198</ele>
        <time>2022-02-15T12:04:46Z</time>
      </trkpt>
      <trkpt lat="46.62014" lon="2.55452">
        <ele>200</ele>
        <time>2022-02-15T12:05:06Z</time>
      </trkpt>
      <trkpt lat="46.62045" lon="2.55487">
        <ele>202</ele>
        <time>2022-02-15T12:05:13Z</time>
      </trkpt>
      <trkpt lat="46.62082" lon="2.5552">
        <ele>204</ele>
        <time>2022-02-15T12:05:21Z</time>
      </trkpt>
      <trkpt lat="46.62145" lon="2.55564">
        <ele>205</ele>
        <time>2022-02-15T12:05:33Z</time>
      </trkpt>
      <trkpt lat="46.62184" lon="2.55596">
        <ele>205</ele>
        <time>2022-02-15T12:05:41Z</time>
      </trkpt>
      <trkpt lat="46.62262" lon="2.55663">
        <ele>205</ele>
        <time>2022-02-15T12:05:57Z</time>
      </trkpt>
      <trkpt lat="46.62302" lon="2.557">
        <ele>206</ele>
        <time>2022-02-15T12:06:06Z</time>
      </trkpt>
      <trkpt lat="46.62327" lon="2.55728">
        <ele>206</ele>
        <time>2022-02-15T12:06:11Z</time>
      </trkpt>
      <trkpt lat="46.6239" lon="2.5581">
        <ele>205</ele>
        <time>2022-02-15T12:06:26Z</time>
      </trkpt>
      <trkpt lat="46.62474" lon="2.55907">
        <ele>207</ele>
        <time>2022-02-15T12:06:45Z</time>
      </trkpt>
      <trkpt lat="46.62484" lon="2.55925">
        <ele>207</ele>
        <time>2022-02-15T12:06:48Z</time>
      </trkpt>
      <trkpt lat="46.62515" lon="2.55992">
        <ele>208</ele>
        <time>2022-02-15T12:06:58Z</time>
      </trkpt>
      <trkpt lat="46.62531" lon="2.56035">
        <ele>208</ele>
        <time>2022-02-15T12:07:04Z</time>
      </trkpt>
      <trkpt lat="46.62548" lon="2.5609">
        <ele>207</ele>
        <time>2022-02-15T12:07:11Z</time>
      </trkpt>
      <trkpt lat="46.62565" lon="2.56156">
        <ele>206</ele>
        <time>2022-02-15T12:07:20Z</time>
      </trkpt>
      <trkpt lat="46.62568" lon="2.56175">
        <ele>206</ele>
        <time>2022-02-15T12:07:22Z</time>
      </trkpt>
      <trkpt lat="46.62568" lon="2.56194">
        <ele>206</ele>
        <time>2022-02-15T12:07:25Z</time>
      </trkpt>
      <trkpt lat="46.62477" lon="2.56754">
        <ele>205</ele>
        <time>2022-02-15T12:08:35Z</time>
      </trkpt>
      <trkpt lat="46.62474" lon="2.56782">
        <ele>206</ele>
        <time>2022-02-15T12:08:38Z</time>
      </trkpt>
      <trkpt lat="46.62475" lon="2.56814">
        <ele>206</ele>
        <time>2022-02-15T12:08:42Z</time>
      </trkpt>
      <trkpt lat="46.62489" lon="2.56899">
        <ele>208</ele>
        <time>2022-02-15T12:08:53Z</time>
      </trkpt>
      <trkpt lat="46.62493" lon="2.5694">
        <ele>208</ele>
        <time>2022-02-15T12:08:58Z</time>
      </trkpt>
      <trkpt lat="46.62508" lon="2.57206">
        <ele>210</ele>
        <time>2022-02-15T12:09:31Z</time>
      </trkpt>
      <trkpt lat="46.62512" lon="2.57255">
        <ele>210</ele>
        <time>2022-02-15T12:09:37Z</time>
      </trkpt>
      <trkpt lat="46.62516" lon="2.5728">
        <ele>209</ele>
        <time>2022-02-15T12:09:40Z</time>
      </trkpt>
      <trkpt lat="46.62524" lon="2.57304">
        <ele>208</ele>
        <time>2022-02-15T12:09:43Z</time>
      </trkpt>
      <trkpt lat="46.62532" lon="2.57316">
        <ele>208</ele>
        <time>2022-02-15T12:09:45Z</time>
      </trkpt>
      <trkpt lat="46.62652" lon="2.57444">
        <ele>202</ele>
        <time>2022-02-15T12:10:12Z</time>
      </trkpt>
      <trkpt lat="46.62664" lon="2.57463">
        <ele>201</ele>
        <time>2022-02-15T12:10:15Z</time>
      </trkpt>
      <trkpt lat="46.62674" lon="2.57486">
        <ele>200</ele>
        <time>2022-02-15T12:10:18Z</time>
      </trkpt>
      <trkpt lat="46.62682" lon="2.57512">
        <ele>199</ele>
        <time>2022-02-15T12:10:22Z</time>
      </trkpt>
      <trkpt lat="46.6269" lon="2.57545">
        <ele>199</ele>
        <time>2022-02-15T12:10:26Z</time>
      </trkpt>
      <trkpt lat="46.62704" lon="2.57637">
        <ele>195</ele>
        <time>2022-02-15T12:10:37Z</time>
      </trkpt>
      <trkpt lat="46.62742" lon="2.57991">
        <ele>184</ele>
        <time>2022-02-15T12:11:21Z</time>
      </trkpt>
      <trkpt lat="46.62748" lon="2.58024">
        <ele>183</ele>
        <time>2022-02-15T12:11:25Z</time>
      </trkpt>
      <trkpt lat="46.6276" lon="2.58072">
        <ele>182</ele>
        <time>2022-02-15T12:11:32Z</time>
      </trkpt>
      <trkpt lat="46.62807" lon="2.58195">
        <ele>184</ele>
        <time>2022-02-15T12:11:49Z</time>
      </trkpt>
      <trkpt lat="46.62822" lon="2.5822">
        <ele>185</ele>
        <time>2022-02-15T12:11:53Z</time>
      </trkpt>
      <trkpt lat="46.62907" lon="2.58316">
        <ele>186</ele>
        <time>2022-02-15T12:12:12Z</time>
      </trkpt>
      <trkpt lat="46.6292" lon="2.58333">
        <ele>186</ele>
        <time>2022-02-15T12:12:15Z</time>
      </trkpt>
      <trkpt lat="46.62928" lon="2.58347">
        <ele>185</ele>
        <time>2022-02-15T12:12:17Z</time>
      </trkpt>
      <trkpt lat="46.62933" lon="2.58365">
        <ele>185</ele>
        <time>2022-02-15T12:12:20Z</time>
      </trkpt>
      <trkpt lat="46.62936" lon="2.58388">
        <ele>184</ele>
        <time>2022-02-15T12:12:23Z</time>
      </trkpt>
      <trkpt lat="46.62933" lon="2.58413">
        <ele>183</ele>
        <time>2022-02-15T12:12:26Z</time>
      </trkpt>
      <trkpt lat="46.62923" lon="2.58438">
        <ele>181</ele>
        <time>2022-02-15T12:12:29Z</time>
      </trkpt>
      <trkpt lat="46.62917" lon="2.58461">
        <ele>179</ele>
        <time>2022-02-15T12:12:32Z</time>
      </trkpt>
      <trkpt lat="46.62917" lon="2.58479">
        <ele>178</ele>
        <time>2022-02-15T12:12:34Z</time>
      </trkpt>
      <trkpt lat="46.6292" lon="2.58497">
        <ele>177</ele>
        <time>2022-02-15T12:12:37Z</time>
      </trkpt>
      <trkpt lat="46.62932" lon="2.58543">
        <ele>175</ele>
        <time>2022-02-15T12:12:43Z</time>
      </trkpt>
      <trkpt lat="46.62931" lon="2.58553">
        <ele>175</ele>
        <time>2022-02-15T12:12:44Z</time>
      </trkpt>
      <trkpt lat="46.62925" lon="2.58561">
        <ele>173</ele>
        <time>2022-02-15T12:12:45Z</time>
      </trkpt>
      <trkpt lat="46.62917" lon="2.58562">
        <ele>172</ele>
        <time>2022-02-15T12:12:47Z</time>
      </trkpt>
      <trkpt lat="46.62909" lon="2.58557">
        <ele>172</ele>
        <time>2022-02-15T12:12:48Z</time>
      </trkpt>
      <trkpt lat="46.62882" lon="2.58522">
        <ele>171</ele>
        <time>2022-02-15T12:12:55Z</time>
      </trkpt>
      <trkpt lat="46.62832" lon="2.5845">
        <ele>171</ele>
        <time>2022-02-15T12:13:07Z</time>
      </trkpt>
      <trkpt lat="46.62826" lon="2.58448">
        <ele>170</ele>
        <time>2022-02-15T12:13:08Z</time>
      </trkpt>
      <trkpt lat="46.62822" lon="2.58449">
        <ele>170</ele>
        <time>2022-02-15T12:13:09Z</time>
      </trkpt>
      <trkpt lat="46.62766" lon="2.58519">
        <ele>163</ele>
        <time>2022-02-15T12:13:22Z</time>
      </trkpt>
      <trkpt lat="46.62699" lon="2.58598">
        <ele>164</ele>
        <time>2022-02-15T12:13:38Z</time>
      </trkpt>
      <trkpt lat="46.62659" lon="2.58642">
        <ele>163</ele>
        <time>2022-02-15T12:13:46Z</time>
      </trkpt>
      <trkpt lat="46.62577" lon="2.58739">
        <ele>165</ele>
        <time>2022-02-15T12:14:05Z</time>
      </trkpt>
      <trkpt lat="46.6257" lon="2.58756">
        <ele>165</ele>
        <time>2022-02-15T12:14:08Z</time>
      </trkpt>
      <trkpt lat="46.62553" lon="2.58944">
        <ele>169</ele>
        <time>2022-02-15T12:14:31Z</time>
      </trkpt>
      <trkpt lat="46.6249" lon="2.58948">
        <ele>170</ele>
        <time>2022-02-15T12:14:42Z</time>
      </trkpt>
      <trkpt lat="46.62486" lon="2.5896">
        <ele>170</ele>
        <time>2022-02-15T12:14:44Z</time>
      </trkpt>
      <trkpt lat="46.62467" lon="2.58973">
        <ele>171</ele>
        <time>2022-02-15T12:14:47Z</time>
      </trkpt>
      <trkpt lat="46.62461" lon="2.5898">
        <ele>172</ele>
        <time>2022-02-15T12:14:49Z</time>
      </trkpt>
      <trkpt lat="46.62445" lon="2.59006">
        <ele>173</ele>
        <time>2022-02-15T12:14:53Z</time>
      </trkpt>
      <trkpt lat="46.62382" lon="2.59133">
        <ele>183</ele>
        <time>2022-02-15T12:15:12Z</time>
      </trkpt>
      <trkpt lat="46.62371" lon="2.5915">
        <ele>184</ele>
        <time>2022-02-15T12:15:15Z</time>
      </trkpt>
      <trkpt lat="46.62309" lon="2.59229">
        <ele>188</ele>
        <time>2022-02-15T12:15:30Z</time>
      </trkpt>
      <trkpt lat="46.62303" lon="2.59248">
        <ele>189</ele>
        <time>2022-02-15T12:15:32Z</time>
      </trkpt>
      <trkpt lat="46.62305" lon="2.5926">
        <ele>190</ele>
        <time>2022-02-15T12:15:34Z</time>
      </trkpt>
      <trkpt lat="46.62309" lon="2.5927">
        <ele>191</ele>
        <time>2022-02-15T12:15:35Z</time>
      </trkpt>
      <trkpt lat="46.6232" lon="2.59283">
        <ele>192</ele>
        <time>2022-02-15T12:15:38Z</time>
      </trkpt>
      <trkpt lat="46.62361" lon="2.59314">
        <ele>195</ele>
        <time>2022-02-15T12:15:46Z</time>
      </trkpt>
      <trkpt lat="46.62387" lon="2.59325">
        <ele>197</ele>
        <time>2022-02-15T12:15:51Z</time>
      </trkpt>
      <trkpt lat="46.62396" lon="2.59332">
        <ele>197</ele>
        <time>2022-02-15T12:15:53Z</time>
      </trkpt>
      <trkpt lat="46.62556" lon="2.59677">
        <ele>213</ele>
        <time>2022-02-15T12:16:43Z</time>
      </trkpt>
      <trkpt lat="46.62571" lon="2.59705">
        <ele>216</ele>
        <time>2022-02-15T12:16:48Z</time>
      </trkpt>
      <trkpt lat="46.62615" lon="2.59774">
        <ele>220</ele>
        <time>2022-02-15T12:16:59Z</time>
      </trkpt>
      <trkpt lat="46.62637" lon="2.59815">
        <ele>222</ele>
        <time>2022-02-15T12:17:06Z</time>
      </trkpt>
      <trkpt lat="46.62645" lon="2.59847">
        <ele>224</ele>
        <time>2022-02-15T12:17:10Z</time>
      </trkpt>
      <trkpt lat="46.62669" lon="2.59978">
        <ele>231</ele>
        <time>2022-02-15T12:17:26Z</time>
      </trkpt>
      <trkpt lat="46.62675" lon="2.60059">
        <ele>232</ele>
        <time>2022-02-15T12:17:36Z</time>
      </trkpt>
      <trkpt lat="46.62682" lon="2.60096">
        <ele>231</ele>
        <time>2022-02-15T12:17:41Z</time>
      </trkpt>
      <trkpt lat="46.62715" lon="2.60186">
        <ele>230</ele>
        <time>2022-02-15T12:17:53Z</time>
      </trkpt>
      <trkpt lat="46.62742" lon="2.60243">
        <ele>230</ele>
        <time>2022-02-15T12:18:02Z</time>
      </trkpt>
      <trkpt lat="46.62762" lon="2.60301">
        <ele>230</ele>
        <time>2022-02-15T12:18:10Z</time>
      </trkpt>
      <trkpt lat="46.62823" lon="2.60432">
        <ele>232</ele>
        <time>2022-02-15T12:18:29Z</time>
      </trkpt>
      <trkpt lat="46.62863" lon="2.60544">
        <ele>231</ele>
        <time>2022-02-15T12:18:45Z</time>
      </trkpt>
      <trkpt lat="46.62897" lon="2.60674">
        <ele>232</ele>
        <time>2022-02-15T12:19:02Z</time>
      </trkpt>
      <trkpt lat="46.62916" lon="2.60713">
        <ele>231</ele>
        <time>2022-02-15T12:19:07Z</time>
      </trkpt>
      <trkpt lat="46.63" lon="2.60853">
        <ele>229</ele>
        <time>2022-02-15T12:19:30Z</time>
      </trkpt>
      <trkpt lat="46.6303" lon="2.60898">
        <ele>228</ele>
        <time>2022-02-15T12:19:38Z</time>
      </trkpt>
      <trkpt lat="46.63064" lon="2.60964">
        <ele>227</ele>
        <time>2022-02-15T12:19:48Z</time>
      </trkpt>
      <trkpt lat="46.63119" lon="2.61058">
        <ele>226</ele>
        <time>2022-02-15T12:20:03Z</time>
      </trkpt>
      <trkpt lat="46.63133" lon="2.61088">
        <ele>226</ele>
        <time>2022-02-15T12:20:07Z</time>
      </trkpt>
      <trkpt lat="46.63192" lon="2.61231">
        <ele>233</ele>
        <time>2022-02-15T12:20:28Z</time>
      </trkpt>
      <trkpt lat="46.6334" lon="2.61431">
        <ele>239</ele>
        <time>2022-02-15T12:21:04Z</time>
      </trkpt>
      <trkpt lat="46.63617" lon="2.61882">
        <ele>242</ele>
        <time>2022-02-15T12:22:18Z</time>
      </trkpt>
      <trkpt lat="46.63646" lon="2.61946">
        <ele>243</ele>
        <time>2022-02-15T12:22:27Z</time>
      </trkpt>
      <trkpt lat="46.6386" lon="2.62336">
        <ele>251</ele>
        <time>2022-02-15T12:23:28Z</time>
      </trkpt>
      <trkpt lat="46.64067" lon="2.62752">
        <ele>260</ele>
        <time>2022-02-15T12:24:31Z</time>
      </trkpt>
      <trkpt lat="46.64148" lon="2.6293">
        <ele>260</ele>
        <time>2022-02-15T12:24:57Z</time>
      </trkpt>
      <trkpt lat="46.64457" lon="2.63564">
        <ele>259</ele>
        <time>2022-02-15T12:26:32Z</time>
      </trkpt>
      <trkpt lat="46.64483" lon="2.63625">
        <ele>259</ele>
        <time>2022-02-15T12:26:41Z</time>
      </trkpt>
      <trkpt lat="46.64531" lon="2.63727">
        <ele>258</ele>
        <time>2022-02-15T12:26:56Z</time>
      </trkpt>
      <trkpt lat="46.64676" lon="2.64252">
        <ele>233</ele>
        <time>2022-02-15T12:28:05Z</time>
      </trkpt>
      <trkpt lat="46.65912" lon="2.64805">
        <ele>202</ele>
        <time>2022-02-15T12:31:55Z</time>
      </trkpt>
      <trkpt lat="46.65907" lon="2.64961">
        <ele>204</ele>
        <time>2022-02-15T12:32:14Z</time>
      </trkpt>
      <trkpt lat="46.65916" lon="2.65047">
        <ele>205</ele>
        <time>2022-02-15T12:32:25Z</time>
      </trkpt>
      <trkpt lat="46.65923" lon="2.6508">
        <ele>205</ele>
        <time>2022-02-15T12:32:29Z</time>
      </trkpt>
      <trkpt lat="46.65938" lon="2.65128">
        <ele>205</ele>
        <time>2022-02-15T12:32:35Z</time>
      </trkpt>
      <trkpt lat="46.65943" lon="2.65176">
        <ele>205</ele>
        <time>2022-02-15T12:32:41Z</time>
      </trkpt>
      <trkpt lat="46.65947" lon="2.65231">
        <ele>206</ele>
        <time>2022-02-15T12:32:48Z</time>
      </trkpt>
      <trkpt lat="46.65981" lon="2.65458">
        <ele>211</ele>
        <time>2022-02-15T12:33:16Z</time>
      </trkpt>
      <trkpt lat="46.6598" lon="2.65526">
        <ele>213</ele>
        <time>2022-02-15T12:33:25Z</time>
      </trkpt>
      <trkpt lat="46.65984" lon="2.65609">
        <ele>215</ele>
        <time>2022-02-15T12:33:35Z</time>
      </trkpt>
      <trkpt lat="46.66008" lon="2.65627">
        <ele>218</ele>
        <time>2022-02-15T12:33:40Z</time>
      </trkpt>
      <trkpt lat="46.66021" lon="2.65646">
        <ele>221</ele>
        <time>2022-02-15T12:33:43Z</time>
      </trkpt>
      <trkpt lat="46.66024" lon="2.65667">
        <ele>222</ele>
        <time>2022-02-15T12:33:46Z</time>
      </trkpt>
      <trkpt lat="46.6602" lon="2.65719">
        <ele>222</ele>
        <time>2022-02-15T12:33:52Z</time>
      </trkpt>
      <trkpt lat="46.6602" lon="2.65761">
        <ele>222</ele>
        <time>2022-02-15T12:33:57Z</time>
      </trkpt>
      <trkpt lat="46.6605" lon="2.65887">
        <ele>222</ele>
        <time>2022-02-15T12:34:13Z</time>
      </trkpt>
      <trkpt lat="46.66088" lon="2.65982">
        <ele>224</ele>
        <time>2022-02-15T12:34:27Z</time>
      </trkpt>
      <trkpt lat="46.66092" lon="2.65984">
        <ele>225</ele>
        <time>2022-02-15T12:34:28Z</time>
      </trkpt>
      <trkpt lat="46.66098" lon="2.65983">
        <ele>225</ele>
        <time>2022-02-15T12:34:29Z</time>
      </trkpt>
      <trkpt lat="46.66128" lon="2.65959">
        <ele>229</ele>
        <time>2022-02-15T12:34:35Z</time>
      </trkpt>
      <trkpt lat="46.66217" lon="2.66174">
        <ele>229</ele>
        <time>2022-02-15T12:35:05Z</time>
      </trkpt>
      <trkpt lat="46.66166" lon="2.66269">
        <ele>228</ele>
        <time>2022-02-15T12:35:20Z</time>
      </trkpt>
      <trkpt lat="46.6613" lon="2.66492">
        <ele>230</ele>
        <time>2022-02-15T12:35:48Z</time>
      </trkpt>
      <trkpt lat="46.6609" lon="2.66779">
        <ele>231</ele>
        <time>2022-02-15T12:36:24Z</time>
      </trkpt>
      <trkpt lat="46.66094" lon="2.66957">
        <ele>234</ele>
        <time>2022-02-15T12:36:46Z</time>
      </trkpt>
      <trkpt lat="46.66141" lon="2.67117">
        <ele>236</ele>
        <time>2022-02-15T12:37:07Z</time>
      </trkpt>
      <trkpt lat="46.66118" lon="2.67174">
        <ele>237</ele>
        <time>2022-02-15T12:37:15Z</time>
      </trkpt>
      <trkpt lat="46.66091" lon="2.6728">
        <ele>238</ele>
        <time>2022-02-15T12:37:29Z</time>
      </trkpt>
      <trkpt lat="46.66061" lon="2.67553">
        <ele>236</ele>
        <time>2022-02-15T12:38:02Z</time>
      </trkpt>
      <trkpt lat="46.66064" lon="2.67845">
        <ele>233</ele>
        <time>2022-02-15T12:38:38Z</time>
      </trkpt>
      <trkpt lat="46.66063" lon="2.67868">
        <ele>234</ele>
        <time>2022-02-15T12:38:41Z</time>
      </trkpt>
      <trkpt lat="46.66059" lon="2.67888">
        <ele>234</ele>
        <time>2022-02-15T12:38:43Z</time>
      </trkpt>
      <trkpt lat="46.65967" lon="2.68129">
        <ele>237</ele>
        <time>2022-02-15T12:39:17Z</time>
      </trkpt>
      <trkpt lat="46.65954" lon="2.68165">
        <ele>238</ele>
        <time>2022-02-15T12:39:22Z</time>
      </trkpt>
      <trkpt lat="46.6592" lon="2.68428">
        <ele>243</ele>
        <time>2022-02-15T12:39:55Z</time>
      </trkpt>
      <trkpt lat="46.65922" lon="2.68449">
        <ele>243</ele>
        <time>2022-02-15T12:39:57Z</time>
      </trkpt>
      <trkpt lat="46.65926" lon="2.68463">
        <ele>242</ele>
        <time>2022-02-15T12:39:59Z</time>
      </trkpt>
      <trkpt lat="46.6598" lon="2.68623">
        <ele>236</ele>
        <time>2022-02-15T12:40:21Z</time>
      </trkpt>
      <trkpt lat="46.65984" lon="2.68646">
        <ele>236</ele>
        <time>2022-02-15T12:40:24Z</time>
      </trkpt>
      <trkpt lat="46.65982" lon="2.68673">
        <ele>235</ele>
        <time>2022-02-15T12:40:27Z</time>
      </trkpt>
      <trkpt lat="46.65953" lon="2.68761">
        <ele>233</ele>
        <time>2022-02-15T12:40:39Z</time>
      </trkpt>
      <trkpt lat="46.65947" lon="2.68781">
        <ele>233</ele>
        <time>2022-02-15T12:40:42Z</time>
      </trkpt>
      <trkpt lat="46.65941" lon="2.68808">
        <ele>232</ele>
        <time>2022-02-15T12:40:45Z</time>
      </trkpt>
      <trkpt lat="46.65915" lon="2.69051">
        <ele>226</ele>
        <time>2022-02-15T12:41:15Z</time>
      </trkpt>
      <trkpt lat="46.65915" lon="2.69077">
        <ele>225</ele>
        <time>2022-02-15T12:41:18Z</time>
      </trkpt>
      <trkpt lat="46.65917" lon="2.69099">
        <ele>225</ele>
        <time>2022-02-15T12:41:21Z</time>
      </trkpt>
      <trkpt lat="46.65942" lon="2.69236">
        <ele>222</ele>
        <time>2022-02-15T12:41:39Z</time>
      </trkpt>
      <trkpt lat="46.65938" lon="2.69239">
        <ele>222</ele>
        <time>2022-02-15T12:41:39Z</time>
      </trkpt>
      <trkpt lat="46.65935" lon="2.69245">
        <ele>222</ele>
        <time>2022-02-15T12:41:40Z</time>
      </trkpt>
      <trkpt lat="46.65935" lon="2.69251">
        <ele>222</ele>
        <time>2022-02-15T12:41:41Z</time>
      </trkpt>
      <trkpt lat="46.65937" lon="2.69258">
        <ele>222</ele>
        <time>2022-02-15T12:41:42Z</time>
      </trkpt>
      <trkpt lat="46.6594" lon="2.69262">
        <ele>222</ele>
        <time>2022-02-15T12:41:43Z</time>
      </trkpt>
      <trkpt lat="46.65945" lon="2.69264">
        <ele>222</ele>
        <time>2022-02-15T12:41:44Z</time>
      </trkpt>
      <trkpt lat="46.65948" lon="2.69263">
        <ele>222</ele>
        <time>2022-02-15T12:41:44Z</time>
      </trkpt>
      <trkpt lat="46.65954" lon="2.69256">
        <ele>222</ele>
        <time>2022-02-15T12:41:45Z</time>
      </trkpt>
      <trkpt lat="46.66062" lon="2.69332">
        <ele>220</ele>
        <time>2022-02-15T12:42:07Z</time>
      </trkpt>
      <trkpt lat="46.66085" lon="2.69347">
        <ele>219</ele>
        <time>2022-02-15T12:42:11Z</time>
      </trkpt>
      <trkpt lat="46.66095" lon="2.69522">
        <ele>214</ele>
        <time>2022-02-15T12:42:33Z</time>
      </trkpt>
      <trkpt lat="46.66094" lon="2.69542">
        <ele>214</ele>
        <time>2022-02-15T12:42:35Z</time>
      </trkpt>
      <trkpt lat="46.65927" lon="2.69939">
        <ele>222</ele>
        <time>2022-02-15T12:43:32Z</time>
      </trkpt>
      <trkpt lat="46.65896" lon="2.70007">
        <ele>224</ele>
        <time>2022-02-15T12:43:42Z</time>
      </trkpt>
      <trkpt lat="46.65885" lon="2.70024">
        <ele>225</ele>
        <time>2022-02-15T12:43:45Z</time>
      </trkpt>
      <trkpt lat="46.65867" lon="2.7004">
        <ele>226</ele>
        <time>2022-02-15T12:43:49Z</time>
      </trkpt>
      <trkpt lat="46.65537" lon="2.7022">
        <ele>235</ele>
        <time>2022-02-15T12:44:51Z</time>
      </trkpt>
      <trkpt lat="46.65238" lon="2.70315">
        <ele>231</ele>
        <time>2022-02-15T12:45:46Z</time>
      </trkpt>
      <trkpt lat="46.63942" lon="2.70698">
        <ele>245</ele>
        <time>2022-02-15T12:49:41Z</time>
      </trkpt>
      <trkpt lat="46.63237" lon="2.70866">
        <ele>259</ele>
        <time>2022-02-15T12:51:48Z</time>
      </trkpt>
      <trkpt lat="46.63215" lon="2.70863">
        <ele>259</ele>
        <time>2022-02-15T12:51:52Z</time>
      </trkpt>
      <trkpt lat="46.63201" lon="2.70857">
        <ele>259</ele>
        <time>2022-02-15T12:51:55Z</time>
      </trkpt>
      <trkpt lat="46.62568" lon="2.70244">
        <ele>277</ele>
        <time>2022-02-15T12:54:10Z</time>
      </trkpt>
      <trkpt lat="46.62537" lon="2.7022">
        <ele>275</ele>
        <time>2022-02-15T12:54:16Z</time>
      </trkpt>
      <trkpt lat="46.62509" lon="2.7022">
        <ele>275</ele>
        <time>2022-02-15T12:54:21Z</time>
      </trkpt>
      <trkpt lat="46.60247" lon="2.70602">
        <ele>291</ele>
        <time>2022-02-15T13:01:06Z</time>
      </trkpt>
      <trkpt lat="46.60233" lon="2.70609">
        <ele>291</ele>
        <time>2022-02-15T13:01:09Z</time>
      </trkpt>
      <trkpt lat="46.58635" lon="2.71608">
        <ele>342</ele>
        <time>2022-02-15T13:06:18Z</time>
      </trkpt>
      <trkpt lat="46.58592" lon="2.7163">
        <ele>342</ele>
        <time>2022-02-15T13:06:27Z</time>
      </trkpt>
      <trkpt lat="46.5853" lon="2.71654">
        <ele>339</ele>
        <time>2022-02-15T13:06:38Z</time>
      </trkpt>
      <trkpt lat="46.58483" lon="2.71662">
        <ele>336</ele>
        <time>2022-02-15T13:06:46Z</time>
      </trkpt>
      <trkpt lat="46.58038" lon="2.71641">
        <ele>355</ele>
        <time>2022-02-15T13:08:06Z</time>
      </trkpt>
      <trkpt lat="46.57209" lon="2.71765">
        <ele>348</ele>
        <time>2022-02-15T13:10:34Z</time>
      </trkpt>
      <trkpt lat="46.57202" lon="2.71772">
        <ele>347</ele>
        <time>2022-02-15T13:10:35Z</time>
      </trkpt>
      <trkpt lat="46.57172" lon="2.71759">
        <ele>347</ele>
        <time>2022-02-15T13:10:41Z</time>
      </trkpt>
      <trkpt lat="46.57074" lon="2.71787">
        <ele>343</ele>
        <time>2022-02-15T13:10:59Z</time>
      </trkpt>
      <trkpt lat="46.57061" lon="2.71785">
        <ele>343</ele>
        <time>2022-02-15T13:11:01Z</time>
      </trkpt>
      <trkpt lat="46.57045" lon="2.71815">
        <ele>342</ele>
        <time>2022-02-15T13:11:06Z</time>
      </trkpt>
      <trkpt lat="46.57083" lon="2.72061">
        <ele>335</ele>
        <time>2022-02-15T13:11:37Z</time>
      </trkpt>
      <trkpt lat="46.57081" lon="2.72078">
        <ele>334</ele>
        <time>2022-02-15T13:11:39Z</time>
      </trkpt>
      <trkpt lat="46.57072" lon="2.72092">
        <ele>334</ele>
        <time>2022-02-15T13:11:41Z</time>
      </trkpt>
      <trkpt lat="46.57055" lon="2.72101">
        <ele>333</ele>
        <time>2022-02-15T13:11:44Z</time>
      </trkpt>
      <trkpt lat="46.57043" lon="2.72099">
        <ele>333</ele>
        <time>2022-02-15T13:11:46Z</time>
      </trkpt>
      <trkpt lat="46.57014" lon="2.72084">
        <ele>331</ele>
        <time>2022-02-15T13:11:52Z</time>
      </trkpt>
      <trkpt lat="46.56986" lon="2.72092">
        <ele>329</ele>
        <time>2022-02-15T13:11:57Z</time>
      </trkpt>
      <trkpt lat="46.56834" lon="2.72218">
        <ele>322</ele>
        <time>2022-02-15T13:12:28Z</time>
      </trkpt>
      <trkpt lat="46.56502" lon="2.72356">
        <ele>310</ele>
        <time>2022-02-15T13:13:29Z</time>
      </trkpt>
      <trkpt lat="46.56437" lon="2.72381">
        <ele>309</ele>
        <time>2022-02-15T13:13:41Z</time>
      </trkpt>
      <trkpt lat="46.56423" lon="2.72393">
        <ele>309</ele>
        <time>2022-02-15T13:13:44Z</time>
      </trkpt>
      <trkpt lat="46.56414" lon="2.72409">
        <ele>308</ele>
        <time>2022-02-15T13:13:47Z</time>
      </trkpt>
      <trkpt lat="46.56408" lon="2.72434">
        <ele>307</ele>
        <time>2022-02-15T13:13:50Z</time>
      </trkpt>
      <trkpt lat="46.56411" lon="2.72577">
        <ele>304</ele>
        <time>2022-02-15T13:14:08Z</time>
      </trkpt>
      <trkpt lat="46.56437" lon="2.72617">
        <ele>303</ele>
        <time>2022-02-15T13:14:14Z</time>
      </trkpt>
      <trkpt lat="46.5648" lon="2.72714">
        <ele>302</ele>
        <time>2022-02-15T13:14:28Z</time>
      </trkpt>
      <trkpt lat="46.56503" lon="2.72855">
        <ele>300</ele>
        <time>2022-02-15T13:14:46Z</time>
      </trkpt>
      <trkpt lat="46.56495" lon="2.72882">
        <ele>300</ele>
        <time>2022-02-15T13:14:50Z</time>
      </trkpt>
      <trkpt lat="46.5647" lon="2.72901">
        <ele>304</ele>
        <time>2022-02-15T13:14:55Z</time>
      </trkpt>
      <trkpt lat="46.56449" lon="2.7289">
        <ele>307</ele>
        <time>2022-02-15T13:14:59Z</time>
      </trkpt>
      <trkpt lat="46.56352" lon="2.72706">
        <ele>306</ele>
        <time>2022-02-15T13:15:27Z</time>
      </trkpt>
      <trkpt lat="46.56313" lon="2.7268">
        <ele>307</ele>
        <time>2022-02-15T13:15:35Z</time>
      </trkpt>
      <trkpt lat="46.56245" lon="2.72683">
        <ele>318</ele>
        <time>2022-02-15T13:15:47Z</time>
      </trkpt>
      <trkpt lat="46.5623" lon="2.72665">
        <ele>319</ele>
        <time>2022-02-15T13:15:50Z</time>
      </trkpt>
      <trkpt lat="46.56228" lon="2.72616">
        <ele>313</ele>
        <time>2022-02-15T13:15:56Z</time>
      </trkpt>
      <trkpt lat="46.5622" lon="2.72596">
        <ele>312</ele>
        <time>2022-02-15T13:15:59Z</time>
      </trkpt>
      <trkpt lat="46.56176" lon="2.72558">
        <ele>314</ele>
        <time>2022-02-15T13:16:08Z</time>
      </trkpt>
      <trkpt lat="46.56145" lon="2.72549">
        <ele>314</ele>
        <time>2022-02-15T13:16:14Z</time>
      </trkpt>
      <trkpt lat="46.56014" lon="2.72619">
        <ele>325</ele>
        <time>2022-02-15T13:16:39Z</time>
      </trkpt>
      <trkpt lat="46.55984" lon="2.7262">
        <ele>327</ele>
        <time>2022-02-15T13:16:44Z</time>
      </trkpt>
      <trkpt lat="46.55893" lon="2.72565">
        <ele>330</ele>
        <time>2022-02-15T13:17:02Z</time>
      </trkpt>
      <trkpt lat="46.55874" lon="2.72569">
        <ele>330</ele>
        <time>2022-02-15T13:17:05Z</time>
      </trkpt>
      <trkpt lat="46.55858" lon="2.7259">
        <ele>331</ele>
        <time>2022-02-15T13:17:09Z</time>
      </trkpt>
      <trkpt lat="46.55855" lon="2.72784">
        <ele>333</ele>
        <time>2022-02-15T13:17:33Z</time>
      </trkpt>
      <trkpt lat="46.5586" lon="2.7343">
        <ele>333</ele>
        <time>2022-02-15T13:18:52Z</time>
      </trkpt>
      <trkpt lat="46.55849" lon="2.73479">
        <ele>332</ele>
        <time>2022-02-15T13:18:58Z</time>
      </trkpt>
      <trkpt lat="46.55836" lon="2.73503">
        <ele>331</ele>
        <time>2022-02-15T13:19:02Z</time>
      </trkpt>
      <trkpt lat="46.55591" lon="2.73763">
        <ele>343</ele>
        <time>2022-02-15T13:19:56Z</time>
      </trkpt>
      <trkpt lat="46.55561" lon="2.73762">
        <ele>345</ele>
        <time>2022-02-15T13:20:01Z</time>
      </trkpt>
      <trkpt lat="46.55279" lon="2.73601">
        <ele>355</ele>
        <time>2022-02-15T13:20:55Z</time>
      </trkpt>
      <trkpt lat="46.55241" lon="2.73596">
        <ele>356</ele>
        <time>2022-02-15T13:21:02Z</time>
      </trkpt>
      <trkpt lat="46.55189" lon="2.73617">
        <ele>358</ele>
        <time>2022-02-15T13:21:11Z</time>
      </trkpt>
      <trkpt lat="46.54642" lon="2.73947">
        <ele>349</ele>
        <time>2022-02-15T13:22:57Z</time>
      </trkpt>
      <trkpt lat="46.53828" lon="2.73519">
        <ele>319</ele>
        <time>2022-02-15T13:25:31Z</time>
      </trkpt>
      <trkpt lat="46.53807" lon="2.73505">
        <ele>320</ele>
        <time>2022-02-15T13:25:35Z</time>
      </trkpt>
      <trkpt lat="46.53784" lon="2.73483">
        <ele>321</ele>
        <time>2022-02-15T13:25:40Z</time>
      </trkpt>
      <trkpt lat="46.53709" lon="2.73405">
        <ele>322</ele>
        <time>2022-02-15T13:25:56Z</time>
      </trkpt>
      <trkpt lat="46.53375" lon="2.73166">
        <ele>315</ele>
        <time>2022-02-15T13:27:02Z</time>
      </trkpt>
      <trkpt lat="46.52872" lon="2.72802">
        <ele>300</ele>
        <time>2022-02-15T13:28:42Z</time>
      </trkpt>
      <trkpt lat="46.52742" lon="2.72672">
        <ele>298</ele>
        <time>2022-02-15T13:29:10Z</time>
      </trkpt>
      <trkpt lat="46.52707" lon="2.72641">
        <ele>299</ele>
        <time>2022-02-15T13:29:18Z</time>
      </trkpt>
      <trkpt lat="46.52598" lon="2.72551">
        <ele>300</ele>
        <time>2022-02-15T13:29:40Z</time>
      </trkpt>
      <trkpt lat="46.52546" lon="2.72505">
        <ele>299</ele>
        <time>2022-02-15T13:29:51Z</time>
      </trkpt>
      <trkpt lat="46.5235" lon="2.72316">
        <ele>293</ele>
        <time>2022-02-15T13:30:33Z</time>
      </trkpt>
      <trkpt lat="46.52168" lon="2.7216">
        <ele>287</ele>
        <time>2022-02-15T13:31:10Z</time>
      </trkpt>
      <trkpt lat="46.52021" lon="2.72014">
        <ele>279</ele>
        <time>2022-02-15T13:31:42Z</time>
      </trkpt>
      <trkpt lat="46.51943" lon="2.71897">
        <ele>276</ele>
        <time>2022-02-15T13:32:02Z</time>
      </trkpt>
      <trkpt lat="46.51927" lon="2.71876">
        <ele>275</ele>
        <time>2022-02-15T13:32:06Z</time>
      </trkpt>
      <trkpt lat="46.51907" lon="2.71854">
        <ele>274</ele>
        <time>2022-02-15T13:32:10Z</time>
      </trkpt>
      <trkpt lat="46.51855" lon="2.71807">
        <ele>274</ele>
        <time>2022-02-15T13:32:21Z</time>
      </trkpt>
      <trkpt lat="46.51813" lon="2.71777">
        <ele>273</ele>
        <time>2022-02-15T13:32:29Z</time>
      </trkpt>
      <trkpt lat="46.51777" lon="2.71758">
        <ele>272</ele>
        <time>2022-02-15T13:32:36Z</time>
      </trkpt>
      <trkpt lat="46.51727" lon="2.71738">
        <ele>271</ele>
        <time>2022-02-15T13:32:45Z</time>
      </trkpt>
      <trkpt lat="46.5169" lon="2.71728">
        <ele>268</ele>
        <time>2022-02-15T13:32:52Z</time>
      </trkpt>
      <trkpt lat="46.51553" lon="2.71722">
        <ele>260</ele>
        <time>2022-02-15T13:33:17Z</time>
      </trkpt>
      <trkpt lat="46.51535" lon="2.71718">
        <ele>259</ele>
        <time>2022-02-15T13:33:20Z</time>
      </trkpt>
      <trkpt lat="46.51514" lon="2.71704">
        <ele>257</ele>
        <time>2022-02-15T13:33:24Z</time>
      </trkpt>
      <trkpt lat="46.51431" lon="2.71622">
        <ele>253</ele>
        <time>2022-02-15T13:33:42Z</time>
      </trkpt>
      <trkpt lat="46.51403" lon="2.71589">
        <ele>251</ele>
        <time>2022-02-15T13:33:48Z</time>
      </trkpt>
      <trkpt lat="46.51347" lon="2.71504">
        <ele>248</ele>
        <time>2022-02-15T13:34:03Z</time>
      </trkpt>
      <trkpt lat="46.51327" lon="2.7148">
        <ele>247</ele>
        <time>2022-02-15T13:34:07Z</time>
      </trkpt>
      <trkpt lat="46.51314" lon="2.71474">
        <ele>246</ele>
        <time>2022-02-15T13:34:10Z</time>
      </trkpt>
      <trkpt lat="46.51297" lon="2.71475">
        <ele>245</ele>
        <time>2022-02-15T13:34:13Z</time>
      </trkpt>
      <trkpt lat="46.5129" lon="2.71478">
        <ele>245</ele>
        <time>2022-02-15T13:34:14Z</time>
      </trkpt>
      <trkpt lat="46.51256" lon="2.71505">
        <ele>242</ele>
        <time>2022-02-15T13:34:21Z</time>
      </trkpt>
      <trkpt lat="46.51237" lon="2.71512">
        <ele>240</ele>
        <time>2022-02-15T13:34:24Z</time>
      </trkpt>
      <trkpt lat="46.51221" lon="2.71512">
        <ele>239</ele>
        <time>2022-02-15T13:34:27Z</time>
      </trkpt>
      <trkpt lat="46.51186" lon="2.71504">
        <ele>236</ele>
        <time>2022-02-15T13:34:33Z</time>
      </trkpt>
      <trkpt lat="46.51168" lon="2.71504">
        <ele>235</ele>
        <time>2022-02-15T13:34:37Z</time>
      </trkpt>
      <trkpt lat="46.51152" lon="2.71507">
        <ele>232</ele>
        <time>2022-02-15T13:34:40Z</time>
      </trkpt>
      <trkpt lat="46.51125" lon="2.7152">
        <ele>227</ele>
        <time>2022-02-15T13:34:45Z</time>
      </trkpt>
      <trkpt lat="46.51116" lon="2.71522">
        <ele>226</ele>
        <time>2022-02-15T13:34:46Z</time>
      </trkpt>
      <trkpt lat="46.51104" lon="2.71519">
        <ele>224</ele>
        <time>2022-02-15T13:34:48Z</time>
      </trkpt>
      <trkpt lat="46.51091" lon="2.71509">
        <ele>223</ele>
        <time>2022-02-15T13:34:51Z</time>
      </trkpt>
      <trkpt lat="46.51085" lon="2.715">
        <ele>222</ele>
        <time>2022-02-15T13:34:53Z</time>
      </trkpt>
      <trkpt lat="46.51062" lon="2.71463">
        <ele>221</ele>
        <time>2022-02-15T13:34:59Z</time>
      </trkpt>
      <trkpt lat="46.51055" lon="2.71455">
        <ele>220</ele>
        <time>2022-02-15T13:35:00Z</time>
      </trkpt>
      <trkpt lat="46.51046" lon="2.7145">
        <ele>218</ele>
        <time>2022-02-15T13:35:02Z</time>
      </trkpt>
      <trkpt lat="46.51023" lon="2.71446">
        <ele>213</ele>
        <time>2022-02-15T13:35:06Z</time>
      </trkpt>
      <trkpt lat="46.51017" lon="2.71441">
        <ele>212</ele>
        <time>2022-02-15T13:35:07Z</time>
      </trkpt>
      <trkpt lat="46.51006" lon="2.71422">
        <ele>212</ele>
        <time>2022-02-15T13:35:10Z</time>
      </trkpt>
      <trkpt lat="46.50951" lon="2.7128">
        <ele>213</ele>
        <time>2022-02-15T13:35:30Z</time>
      </trkpt>
      <trkpt lat="46.50944" lon="2.71252">
        <ele>212</ele>
        <time>2022-02-15T13:35:34Z</time>
      </trkpt>
      <trkpt lat="46.50944" lon="2.71238">
        <ele>211</ele>
        <time>2022-02-15T13:35:36Z</time>
      </trkpt>
      <trkpt lat="46.50947" lon="2.71217">
        <ele>210</ele>
        <time>2022-02-15T13:35:38Z</time>
      </trkpt>
      <trkpt lat="46.50954" lon="2.7119">
        <ele>208</ele>
        <time>2022-02-15T13:35:42Z</time>
      </trkpt>
      <trkpt lat="46.50955" lon="2.71167">
        <ele>207</ele>
        <time>2022-02-15T13:35:45Z</time>
      </trkpt>
      <trkpt lat="46.50953" lon="2.71158">
        <ele>206</ele>
        <time>2022-02-15T13:35:46Z</time>
      </trkpt>
      <trkpt lat="46.50945" lon="2.71145">
        <ele>204</ele>
        <time>2022-02-15T13:35:48Z</time>
      </trkpt>
      <trkpt lat="46.50934" lon="2.71143">
        <ele>203</ele>
        <time>2022-02-15T13:35:50Z</time>
      </trkpt>
      <trkpt lat="46.50933" lon="2.71129">
        <ele>202</ele>
        <time>2022-02-15T13:35:52Z</time>
      </trkpt>
      <trkpt lat="46.50922" lon="2.71114">
        <ele>201</ele>
        <time>2022-02-15T13:35:54Z</time>
      </trkpt>
      <trkpt lat="46.50929" lon="2.71092">
        <ele>200</ele>
        <time>2022-02-15T13:35:57Z</time>
      </trkpt>
      <trkpt lat="46.5093" lon="2.71081">
        <ele>199</ele>
        <time>2022-02-15T13:35:59Z</time>
      </trkpt>
      <trkpt lat="46.50931" lon="2.71038">
        <ele>198</ele>
        <time>2022-02-15T13:36:04Z</time>
      </trkpt>
      <trkpt lat="46.50933" lon="2.71029">
        <ele>198</ele>
        <time>2022-02-15T13:36:05Z</time>
      </trkpt>
      <trkpt lat="46.50953" lon="2.70975">
        <ele>196</ele>
        <time>2022-02-15T13:36:13Z</time>
      </trkpt>
      <trkpt lat="46.50967" lon="2.70942">
        <ele>195</ele>
        <time>2022-02-15T13:36:17Z</time>
      </trkpt>
      <trkpt lat="46.50971" lon="2.70923">
        <ele>195</ele>
        <time>2022-02-15T13:36:20Z</time>
      </trkpt>
      <trkpt lat="46.50994" lon="2.7088">
        <ele>195</ele>
        <time>2022-02-15T13:36:26Z</time>
      </trkpt>
      <trkpt lat="46.51028" lon="2.70837">
        <ele>196</ele>
        <time>2022-02-15T13:36:34Z</time>
      </trkpt>
      <trkpt lat="46.51087" lon="2.70771">
        <ele>194</ele>
        <time>2022-02-15T13:36:48Z</time>
      </trkpt>
      <trkpt lat="46.51114" lon="2.70737">
        <ele>195</ele>
        <time>2022-02-15T13:36:54Z</time>
      </trkpt>
      <trkpt lat="46.51113" lon="2.70729">
        <ele>195</ele>
        <time>2022-02-15T13:36:55Z</time>
      </trkpt>
      <trkpt lat="46.51145" lon="2.70665">
        <ele>194</ele>
        <time>2022-02-15T13:37:05Z</time>
      </trkpt>
      <trkpt lat="46.51161" lon="2.70624">
        <ele>193</ele>
        <time>2022-02-15T13:37:10Z</time>
      </trkpt>
      <trkpt lat="46.51138" lon="2.70594">
        <ele>193</ele>
        <time>2022-02-15T13:37:16Z</time>
      </trkpt>
      <trkpt lat="46.51121" lon="2.7057">
        <ele>193</ele>
        <time>2022-02-15T13:37:20Z</time>
      </trkpt>
      <trkpt lat="46.51105" lon="2.70564">
        <ele>193</ele>
        <time>2022-02-15T13:37:23Z</time>
      </trkpt>
      <trkpt lat="46.51046" lon="2.70578">
        <ele>196</ele>
        <time>2022-02-15T13:37:34Z</time>
      </trkpt>
      <trkpt lat="46.50973" lon="2.7059">
        <ele>201</ele>
        <time>2022-02-15T13:37:47Z</time>
      </trkpt>
      <trkpt lat="46.50893" lon="2.7066">
        <ele>209</ele>
        <time>2022-02-15T13:38:03Z</time>
      </trkpt>
      <trkpt lat="46.50858" lon="2.70674">
        <ele>211</ele>
        <time>2022-02-15T13:38:10Z</time>
      </trkpt>
      <trkpt lat="46.50823" lon="2.70692">
        <ele>212</ele>
        <time>2022-02-15T13:38:17Z</time>
      </trkpt>
      <trkpt lat="46.50779" lon="2.70732">
        <ele>215</ele>
        <time>2022-02-15T13:38:26Z</time>
      </trkpt>
      <trkpt lat="46.50722" lon="2.70764">
        <ele>220</ele>
        <time>2022-02-15T13:38:37Z</time>
      </trkpt>
      <trkpt lat="46.50693" lon="2.70783">
        <ele>222</ele>
        <time>2022-02-15T13:38:42Z</time>
      </trkpt>
      <trkpt lat="46.50609" lon="2.70775">
        <ele>224</ele>
        <time>2022-02-15T13:38:57Z</time>
      </trkpt>
      <trkpt lat="46.50583" lon="2.70756">
        <ele>225</ele>
        <time>2022-02-15T13:39:02Z</time>
      </trkpt>
      <trkpt lat="46.50522" lon="2.70686">
        <ele>227</ele>
        <time>2022-02-15T13:39:16Z</time>
      </trkpt>
      <trkpt lat="46.50169" lon="2.70427">
        <ele>235</ele>
        <time>2022-02-15T13:40:27Z</time>
      </trkpt>
      <trkpt lat="46.49948" lon="2.7035">
        <ele>242</ele>
        <time>2022-02-15T13:41:07Z</time>
      </trkpt>
      <trkpt lat="46.49942" lon="2.70376">
        <ele>243</ele>
        <time>2022-02-15T13:41:10Z</time>
      </trkpt>
      <trkpt lat="46.49936" lon="2.70394">
        <ele>243</ele>
        <time>2022-02-15T13:41:13Z</time>
      </trkpt>
      <trkpt lat="46.49925" lon="2.70417">
        <ele>244</ele>
        <time>2022-02-15T13:41:16Z</time>
      </trkpt>
      <trkpt lat="46.4991" lon="2.7044">
        <ele>244</ele>
        <time>2022-02-15T13:41:20Z</time>
      </trkpt>
      <trkpt lat="46.49894" lon="2.70461">
        <ele>244</ele>
        <time>2022-02-15T13:41:24Z</time>
      </trkpt>
      <trkpt lat="46.49883" lon="2.70467">
        <ele>244</ele>
        <time>2022-02-15T13:41:26Z</time>
      </trkpt>
      <trkpt lat="46.49869" lon="2.70469">
        <ele>244</ele>
        <time>2022-02-15T13:41:29Z</time>
      </trkpt>
      <trkpt lat="46.49759" lon="2.69487">
        <ele>255</ele>
        <time>2022-02-15T13:43:30Z</time>
      </trkpt>
      <trkpt lat="46.49751" lon="2.69449">
        <ele>258</ele>
        <time>2022-02-15T13:43:35Z</time>
      </trkpt>
      <trkpt lat="46.49741" lon="2.69423">
        <ele>260</ele>
        <time>2022-02-15T13:43:39Z</time>
      </trkpt>
      <trkpt lat="46.49729" lon="2.694">
        <ele>261</ele>
        <time>2022-02-15T13:43:43Z</time>
      </trkpt>
      <trkpt lat="46.49682" lon="2.69328">
        <ele>265</ele>
        <time>2022-02-15T13:43:55Z</time>
      </trkpt>
      <trkpt lat="46.49635" lon="2.69257">
        <ele>270</ele>
        <time>2022-02-15T13:44:07Z</time>
      </trkpt>
      <trkpt lat="46.49617" lon="2.69237">
        <ele>271</ele>
        <time>2022-02-15T13:44:11Z</time>
      </trkpt>
      <trkpt lat="46.49598" lon="2.69218">
        <ele>272</ele>
        <time>2022-02-15T13:44:15Z</time>
      </trkpt>
      <trkpt lat="46.49285" lon="2.68962">
        <ele>285</ele>
        <time>2022-02-15T13:45:19Z</time>
      </trkpt>
      <trkpt lat="46.49244" lon="2.68926">
        <ele>287</ele>
        <time>2022-02-15T13:45:27Z</time>
      </trkpt>
      <trkpt lat="46.49222" lon="2.68901">
        <ele>288</ele>
        <time>2022-02-15T13:45:32Z</time>
      </trkpt>
      <trkpt lat="46.491" lon="2.6873">
        <ele>292</ele>
        <time>2022-02-15T13:46:02Z</time>
      </trkpt>
      <trkpt lat="46.48919" lon="2.68532">
        <ele>290</ele>
        <time>2022-02-15T13:46:43Z</time>
      </trkpt>
      <trkpt lat="46.48712" lon="2.68234">
        <ele>286</ele>
        <time>2022-02-15T13:47:35Z</time>
      </trkpt>
      <trkpt lat="46.48691" lon="2.68195">
        <ele>286</ele>
        <time>2022-02-15T13:47:41Z</time>
      </trkpt>
      <trkpt lat="46.48592" lon="2.67999">
        <ele>287</ele>
        <time>2022-02-15T13:48:10Z</time>
      </trkpt>
      <trkpt lat="46.48579" lon="2.67977">
        <ele>288</ele>
        <time>2022-02-15T13:48:14Z</time>
      </trkpt>
      <trkpt lat="46.48569" lon="2.67966">
        <ele>288</ele>
        <time>2022-02-15T13:48:16Z</time>
      </trkpt>
      <trkpt lat="46.4855" lon="2.67951">
        <ele>289</ele>
        <time>2022-02-15T13:48:20Z</time>
      </trkpt>
      <trkpt lat="46.48171" lon="2.67689">
        <ele>305</ele>
        <time>2022-02-15T13:49:35Z</time>
      </trkpt>
      <trkpt lat="46.48118" lon="2.67649">
        <ele>307</ele>
        <time>2022-02-15T13:49:45Z</time>
      </trkpt>
      <trkpt lat="46.48086" lon="2.67613">
        <ele>308</ele>
        <time>2022-02-15T13:49:53Z</time>
      </trkpt>
      <trkpt lat="46.47821" lon="2.67281">
        <ele>309</ele>
        <time>2022-02-15T13:50:55Z</time>
      </trkpt>
      <trkpt lat="46.47726" lon="2.67144">
        <ele>308</ele>
        <time>2022-02-15T13:51:19Z</time>
      </trkpt>
      <trkpt lat="46.47699" lon="2.67113">
        <ele>308</ele>
        <time>2022-02-15T13:51:25Z</time>
      </trkpt>
      <trkpt lat="46.47666" lon="2.67087">
        <ele>307</ele>
        <time>2022-02-15T13:51:32Z</time>
      </trkpt>
      <trkpt lat="46.47736" lon="2.66926">
        <ele>306</ele>
        <time>2022-02-15T13:51:55Z</time>
      </trkpt>
      <trkpt lat="46.47747" lon="2.66888">
        <ele>306</ele>
        <time>2022-02-15T13:52:00Z</time>
      </trkpt>
      <trkpt lat="46.47749" lon="2.66868">
        <ele>306</ele>
        <time>2022-02-15T13:52:02Z</time>
      </trkpt>
      <trkpt lat="46.47747" lon="2.66845">
        <ele>306</ele>
        <time>2022-02-15T13:52:05Z</time>
      </trkpt>
      <trkpt lat="46.4773" lon="2.66711">
        <ele>306</ele>
        <time>2022-02-15T13:52:22Z</time>
      </trkpt>
      <trkpt lat="46.47673" lon="2.66204">
        <ele>301</ele>
        <time>2022-02-15T13:53:25Z</time>
      </trkpt>
      <trkpt lat="46.47645" lon="2.65977">
        <ele>298</ele>
        <time>2022-02-15T13:53:53Z</time>
      </trkpt>
      <trkpt lat="46.47639" lon="2.65941">
        <ele>298</ele>
        <time>2022-02-15T13:53:58Z</time>
      </trkpt>
      <trkpt lat="46.4763" lon="2.65906">
        <ele>298</ele>
        <time>2022-02-15T13:54:02Z</time>
      </trkpt>
      <trkpt lat="46.4762" lon="2.65882">
        <ele>297</ele>
        <time>2022-02-15T13:54:06Z</time>
      </trkpt>
      <trkpt lat="46.47453" lon="2.65555">
        <ele>287</ele>
        <time>2022-02-15T13:54:56Z</time>
      </trkpt>
      <trkpt lat="46.47417" lon="2.65484">
        <ele>285</ele>
        <time>2022-02-15T13:55:06Z</time>
      </trkpt>
      <trkpt lat="46.47403" lon="2.65453">
        <ele>285</ele>
        <time>2022-02-15T13:55:11Z</time>
      </trkpt>
      <trkpt lat="46.47355" lon="2.65309">
        <ele>282</ele>
        <time>2022-02-15T13:55:31Z</time>
      </trkpt>
      <trkpt lat="46.47343" lon="2.65283">
        <ele>280</ele>
        <time>2022-02-15T13:55:34Z</time>
      </trkpt>
      <trkpt lat="46.47285" lon="2.65232">
        <ele>283</ele>
        <time>2022-02-15T13:55:46Z</time>
      </trkpt>
      <trkpt lat="46.47269" lon="2.65202">
        <ele>285</ele>
        <time>2022-02-15T13:55:51Z</time>
      </trkpt>
      <trkpt lat="46.47263" lon="2.65175">
        <ele>285</ele>
        <time>2022-02-15T13:55:55Z</time>
      </trkpt>
      <trkpt lat="46.4726" lon="2.65142">
        <ele>285</ele>
        <time>2022-02-15T13:55:59Z</time>
      </trkpt>
      <trkpt lat="46.47261" lon="2.64969">
        <ele>290</ele>
        <time>2022-02-15T13:56:20Z</time>
      </trkpt>
      <trkpt lat="46.47258" lon="2.64838">
        <ele>294</ele>
        <time>2022-02-15T13:56:36Z</time>
      </trkpt>
      <trkpt lat="46.47217" lon="2.64714">
        <ele>298</ele>
        <time>2022-02-15T13:56:53Z</time>
      </trkpt>
      <trkpt lat="46.47195" lon="2.64642">
        <ele>298</ele>
        <time>2022-02-15T13:57:02Z</time>
      </trkpt>
      <trkpt lat="46.47182" lon="2.6461">
        <ele>299</ele>
        <time>2022-02-15T13:57:07Z</time>
      </trkpt>
      <trkpt lat="46.47166" lon="2.64584">
        <ele>299</ele>
        <time>2022-02-15T13:57:11Z</time>
      </trkpt>
      <trkpt lat="46.46998" lon="2.64438">
        <ele>299</ele>
        <time>2022-02-15T13:57:46Z</time>
      </trkpt>
      <trkpt lat="46.46869" lon="2.64331">
        <ele>297</ele>
        <time>2022-02-15T13:58:12Z</time>
      </trkpt>
      <trkpt lat="46.46847" lon="2.64315">
        <ele>296</ele>
        <time>2022-02-15T13:58:17Z</time>
      </trkpt>
      <trkpt lat="46.46826" lon="2.64305">
        <ele>296</ele>
        <time>2022-02-15T13:58:21Z</time>
      </trkpt>
      <trkpt lat="46.46569" lon="2.64248">
        <ele>291</ele>
        <time>2022-02-15T13:59:07Z</time>
      </trkpt>
      <trkpt lat="46.46538" lon="2.64236">
        <ele>290</ele>
        <time>2022-02-15T13:59:13Z</time>
      </trkpt>
      <trkpt lat="46.46495" lon="2.64207">
        <ele>289</ele>
        <time>2022-02-15T13:59:21Z</time>
      </trkpt>
      <trkpt lat="46.46472" lon="2.64145">
        <ele>288</ele>
        <time>2022-02-15T13:59:30Z</time>
      </trkpt>
      <trkpt lat="46.46458" lon="2.64093">
        <ele>290</ele>
        <time>2022-02-15T13:59:37Z</time>
      </trkpt>
      <trkpt lat="46.46458" lon="2.63931">
        <ele>288</ele>
        <time>2022-02-15T13:59:57Z</time>
      </trkpt>
      <trkpt lat="46.46475" lon="2.63466">
        <ele>274</ele>
        <time>2022-02-15T14:00:54Z</time>
      </trkpt>
      <trkpt lat="46.46467" lon="2.63326">
        <ele>270</ele>
        <time>2022-02-15T14:01:11Z</time>
      </trkpt>
      <trkpt lat="46.46465" lon="2.63307">
        <ele>269</ele>
        <time>2022-02-15T14:01:13Z</time>
      </trkpt>
      <trkpt lat="46.46463" lon="2.63214">
        <ele>264</ele>
        <time>2022-02-15T14:01:25Z</time>
      </trkpt>
      <trkpt lat="46.46485" lon="2.6309">
        <ele>259</ele>
        <time>2022-02-15T14:01:40Z</time>
      </trkpt>
      <trkpt lat="46.4649" lon="2.6307">
        <ele>258</ele>
        <time>2022-02-15T14:01:43Z</time>
      </trkpt>
      <trkpt lat="46.46488" lon="2.63047">
        <ele>257</ele>
        <time>2022-02-15T14:01:46Z</time>
      </trkpt>
      <trkpt lat="46.46466" lon="2.62979">
        <ele>255</ele>
        <time>2022-02-15T14:01:55Z</time>
      </trkpt>
      <trkpt lat="46.46463" lon="2.62945">
        <ele>254</ele>
        <time>2022-02-15T14:01:59Z</time>
      </trkpt>
      <trkpt lat="46.46467" lon="2.62893">
        <ele>252</ele>
        <time>2022-02-15T14:02:06Z</time>
      </trkpt>
      <trkpt lat="46.46538" lon="2.62604">
        <ele>236</ele>
        <time>2022-02-15T14:02:43Z</time>
      </trkpt>
      <trkpt lat="46.4654" lon="2.6258">
        <ele>234</ele>
        <time>2022-02-15T14:02:46Z</time>
      </trkpt>
      <trkpt lat="46.46539" lon="2.62565">
        <ele>233</ele>
        <time>2022-02-15T14:02:48Z</time>
      </trkpt>
      <trkpt lat="46.46532" lon="2.62538">
        <ele>231</ele>
        <time>2022-02-15T14:02:51Z</time>
      </trkpt>
      <trkpt lat="46.46494" lon="2.62437">
        <ele>224</ele>
        <time>2022-02-15T14:03:06Z</time>
      </trkpt>
      <trkpt lat="46.46479" lon="2.62406">
        <ele>223</ele>
        <time>2022-02-15T14:03:10Z</time>
      </trkpt>
      <trkpt lat="46.46463" lon="2.62386">
        <ele>222</ele>
        <time>2022-02-15T14:03:14Z</time>
      </trkpt>
      <trkpt lat="46.46266" lon="2.62222">
        <ele>210</ele>
        <time>2022-02-15T14:03:54Z</time>
      </trkpt>
      <trkpt lat="46.46257" lon="2.62196">
        <ele>209</ele>
        <time>2022-02-15T14:03:58Z</time>
      </trkpt>
      <trkpt lat="46.46256" lon="2.62166">
        <ele>207</ele>
        <time>2022-02-15T14:04:02Z</time>
      </trkpt>
      <trkpt lat="46.46263" lon="2.62125">
        <ele>205</ele>
        <time>2022-02-15T14:04:07Z</time>
      </trkpt>
      <trkpt lat="46.4628" lon="2.62083">
        <ele>203</ele>
        <time>2022-02-15T14:04:13Z</time>
      </trkpt>
      <trkpt lat="46.46307" lon="2.62025">
        <ele>202</ele>
        <time>2022-02-15T14:04:21Z</time>
      </trkpt>
      <trkpt lat="46.46318" lon="2.61989">
        <ele>201</ele>
        <time>2022-02-15T14:04:26Z</time>
      </trkpt>
      <trkpt lat="46.46322" lon="2.61972">
        <ele>200</ele>
        <time>2022-02-15T14:04:28Z</time>
      </trkpt>
      <trkpt lat="46.46323" lon="2.61948">
        <ele>200</ele>
        <time>2022-02-15T14:04:31Z</time>
      </trkpt>
      <trkpt lat="46.46317" lon="2.61767">
        <ele>199</ele>
        <time>2022-02-15T14:04:54Z</time>
      </trkpt>
      <trkpt lat="46.46313" lon="2.61711">
        <ele>200</ele>
        <time>2022-02-15T14:05:00Z</time>
      </trkpt>
      <trkpt lat="46.46292" lon="2.61549">
        <ele>201</ele>
        <time>2022-02-15T14:05:21Z</time>
      </trkpt>
      <trkpt lat="46.46283" lon="2.61461">
        <ele>198</ele>
        <time>2022-02-15T14:05:32Z</time>
      </trkpt>
      <trkpt lat="46.46284" lon="2.61436">
        <ele>197</ele>
        <time>2022-02-15T14:05:35Z</time>
      </trkpt>
      <trkpt lat="46.46293" lon="2.6142">
        <ele>196</ele>
        <time>2022-02-15T14:05:37Z</time>
      </trkpt>
      <trkpt lat="46.46348" lon="2.61358">
        <ele>192</ele>
        <time>2022-02-15T14:05:50Z</time>
      </trkpt>
      <trkpt lat="46.46363" lon="2.61328">
        <ele>190</ele>
        <time>2022-02-15T14:05:54Z</time>
      </trkpt>
      <trkpt lat="46.4653" lon="2.60985">
        <ele>183</ele>
        <time>2022-02-15T14:06:46Z</time>
      </trkpt>
      <trkpt lat="46.46589" lon="2.60856">
        <ele>181</ele>
        <time>2022-02-15T14:07:05Z</time>
      </trkpt>
      <trkpt lat="46.46597" lon="2.60823">
        <ele>182</ele>
        <time>2022-02-15T14:07:09Z</time>
      </trkpt>
      <trkpt lat="46.466" lon="2.60756">
        <ele>181</ele>
        <time>2022-02-15T14:07:17Z</time>
      </trkpt>
      <trkpt lat="46.46605" lon="2.6064">
        <ele>179</ele>
        <time>2022-02-15T14:07:31Z</time>
      </trkpt>
      <trkpt lat="46.46601" lon="2.60614">
        <ele>179</ele>
        <time>2022-02-15T14:07:35Z</time>
      </trkpt>
      <trkpt lat="46.46589" lon="2.606">
        <ele>180</ele>
        <time>2022-02-15T14:07:37Z</time>
      </trkpt>
      <trkpt lat="46.46276" lon="2.6051">
        <ele>182</ele>
        <time>2022-02-15T14:08:34Z</time>
      </trkpt>
      <trkpt lat="46.46261" lon="2.605">
        <ele>182</ele>
        <time>2022-02-15T14:08:37Z</time>
      </trkpt>
      <trkpt lat="46.46255" lon="2.60485">
        <ele>182</ele>
        <time>2022-02-15T14:08:39Z</time>
      </trkpt>
      <trkpt lat="46.46254" lon="2.60468">
        <ele>182</ele>
        <time>2022-02-15T14:08:41Z</time>
      </trkpt>
      <trkpt lat="46.46282" lon="2.60329">
        <ele>184</ele>
        <time>2022-02-15T14:08:59Z</time>
      </trkpt>
      <trkpt lat="46.46284" lon="2.60315">
        <ele>184</ele>
        <time>2022-02-15T14:09:01Z</time>
      </trkpt>
      <trkpt lat="46.463" lon="2.60238">
        <ele>184</ele>
        <time>2022-02-15T14:09:11Z</time>
      </trkpt>
      <trkpt lat="46.463" lon="2.60222">
        <ele>185</ele>
        <time>2022-02-15T14:09:13Z</time>
      </trkpt>
      <trkpt lat="46.46297" lon="2.6021">
        <ele>185</ele>
        <time>2022-02-15T14:09:14Z</time>
      </trkpt>
      <trkpt lat="46.46245" lon="2.60047">
        <ele>188</ele>
        <time>2022-02-15T14:09:36Z</time>
      </trkpt>
      <trkpt lat="46.46243" lon="2.60016">
        <ele>189</ele>
        <time>2022-02-15T14:09:40Z</time>
      </trkpt>
      <trkpt lat="46.46247" lon="2.59943">
        <ele>190</ele>
        <time>2022-02-15T14:09:49Z</time>
      </trkpt>
      <trkpt lat="46.46245" lon="2.59904">
        <ele>191</ele>
        <time>2022-02-15T14:09:54Z</time>
      </trkpt>
      <trkpt lat="46.46232" lon="2.59807">
        <ele>191</ele>
        <time>2022-02-15T14:10:06Z</time>
      </trkpt>
      <trkpt lat="46.46184" lon="2.59506">
        <ele>199</ele>
        <time>2022-02-15T14:10:44Z</time>
      </trkpt>
      <trkpt lat="46.46154" lon="2.59402">
        <ele>198</ele>
        <time>2022-02-15T14:10:58Z</time>
      </trkpt>
      <trkpt lat="46.46097" lon="2.59171">
        <ele>202</ele>
        <time>2022-02-15T14:11:28Z</time>
      </trkpt>
      <trkpt lat="46.46083" lon="2.59081">
        <ele>205</ele>
        <time>2022-02-15T14:11:39Z</time>
      </trkpt>
      <trkpt lat="46.46044" lon="2.58853">
        <ele>216</ele>
        <time>2022-02-15T14:12:08Z</time>
      </trkpt>
      <trkpt lat="46.46029" lon="2.58737">
        <ele>216</ele>
        <time>2022-02-15T14:12:22Z</time>
      </trkpt>
      <trkpt lat="46.45975" lon="2.58571">
        <ele>215</ele>
        <time>2022-02-15T14:12:45Z</time>
      </trkpt>
      <trkpt lat="46.45952" lon="2.58509">
        <ele>213</ele>
        <time>2022-02-15T14:12:53Z</time>
      </trkpt>
      <trkpt lat="46.45893" lon="2.58388">
        <ele>212</ele>
        <time>2022-02-15T14:13:11Z</time>
      </trkpt>
      <trkpt lat="46.45881" lon="2.58336">
        <ele>212</ele>
        <time>2022-02-15T14:13:18Z</time>
      </trkpt>
      <trkpt lat="46.45841" lon="2.57928">
        <ele>217</ele>
        <time>2022-02-15T14:14:09Z</time>
      </trkpt>
      <trkpt lat="46.4577" lon="2.57557">
        <ele>227</ele>
        <time>2022-02-15T14:14:56Z</time>
      </trkpt>
      <trkpt lat="46.45751" lon="2.57306">
        <ele>240</ele>
        <time>2022-02-15T14:15:27Z</time>
      </trkpt>
      <trkpt lat="46.45734" lon="2.57242">
        <ele>244</ele>
        <time>2022-02-15T14:15:35Z</time>
      </trkpt>
      <trkpt lat="46.45684" lon="2.57124">
        <ele>251</ele>
        <time>2022-02-15T14:15:52Z</time>
      </trkpt>
      <trkpt lat="46.4567" lon="2.57082">
        <ele>254</ele>
        <time>2022-02-15T14:15:58Z</time>
      </trkpt>
      <trkpt lat="46.45639" lon="2.56887">
        <ele>262</ele>
        <time>2022-02-15T14:16:22Z</time>
      </trkpt>
      <trkpt lat="46.45636" lon="2.56835">
        <ele>264</ele>
        <time>2022-02-15T14:16:29Z</time>
      </trkpt>
      <trkpt lat="46.45639" lon="2.56806">
        <ele>265</ele>
        <time>2022-02-15T14:16:32Z</time>
      </trkpt>
      <trkpt lat="46.45744" lon="2.56209">
        <ele>267</ele>
        <time>2022-02-15T14:17:48Z</time>
      </trkpt>
      <trkpt lat="46.45758" lon="2.55952">
        <ele>262</ele>
        <time>2022-02-15T14:18:20Z</time>
      </trkpt>
      <trkpt lat="46.45749" lon="2.55895">
        <ele>262</ele>
        <time>2022-02-15T14:18:27Z</time>
      </trkpt>
      <trkpt lat="46.45741" lon="2.55865">
        <ele>262</ele>
        <time>2022-02-15T14:18:31Z</time>
      </trkpt>
      <trkpt lat="46.45724" lon="2.55818">
        <ele>261</ele>
        <time>2022-02-15T14:18:37Z</time>
      </trkpt>
      <trkpt lat="46.45771" lon="2.55819">
        <ele>260</ele>
        <time>2022-02-15T14:18:46Z</time>
      </trkpt>
      <trkpt lat="46.45777" lon="2.55783">
        <ele>259</ele>
        <time>2022-02-15T14:18:50Z</time>
      </trkpt>
      <trkpt lat="46.45778" lon="2.5576">
        <ele>259</ele>
        <time>2022-02-15T14:18:53Z</time>
      </trkpt>
      <trkpt lat="46.45734" lon="2.55564">
        <ele>256</ele>
        <time>2022-02-15T14:19:18Z</time>
      </trkpt>
      <trkpt lat="46.45732" lon="2.55556">
        <ele>256</ele>
        <time>2022-02-15T14:19:19Z</time>
      </trkpt>
      <trkpt lat="46.45716" lon="2.5552">
        <ele>254</ele>
        <time>2022-02-15T14:19:25Z</time>
      </trkpt>
      <trkpt lat="46.45687" lon="2.55443">
        <ele>251</ele>
        <time>2022-02-15T14:19:35Z</time>
      </trkpt>
      <trkpt lat="46.45667" lon="2.55385">
        <ele>249</ele>
        <time>2022-02-15T14:19:43Z</time>
      </trkpt>
      <trkpt lat="46.45522" lon="2.54981">
        <ele>259</ele>
        <time>2022-02-15T14:20:39Z</time>
      </trkpt>
      <trkpt lat="46.45491" lon="2.5489">
        <ele>261</ele>
        <time>2022-02-15T14:20:51Z</time>
      </trkpt>
      <trkpt lat="46.45466" lon="2.54843">
        <ele>262</ele>
        <time>2022-02-15T14:20:59Z</time>
      </trkpt>
      <trkpt lat="46.45426" lon="2.54794">
        <ele>264</ele>
        <time>2022-02-15T14:21:08Z</time>
      </trkpt>
      <trkpt lat="46.44958" lon="2.54321">
        <ele>278</ele>
        <time>2022-02-15T14:22:50Z</time>
      </trkpt>
      <trkpt lat="46.44926" lon="2.54273">
        <ele>279</ele>
        <time>2022-02-15T14:22:58Z</time>
      </trkpt>
      <trkpt lat="46.44457" lon="2.53411">
        <ele>266</ele>
        <time>2022-02-15T14:25:12Z</time>
      </trkpt>
      <trkpt lat="46.444" lon="2.53333">
        <ele>265</ele>
        <time>2022-02-15T14:25:26Z</time>
      </trkpt>
      <trkpt lat="46.44221" lon="2.53124">
        <ele>257</ele>
        <time>2022-02-15T14:26:07Z</time>
      </trkpt>
      <trkpt lat="46.44103" lon="2.52946">
        <ele>252</ele>
        <time>2022-02-15T14:26:38Z</time>
      </trkpt>
      <trkpt lat="46.44029" lon="2.5285">
        <ele>252</ele>
        <time>2022-02-15T14:26:55Z</time>
      </trkpt>
      <trkpt lat="46.43841" lon="2.52632">
        <ele>256</ele>
        <time>2022-02-15T14:27:38Z</time>
      </trkpt>
      <trkpt lat="46.4381" lon="2.52598">
        <ele>256</ele>
        <time>2022-02-15T14:27:45Z</time>
      </trkpt>
      <trkpt lat="46.43729" lon="2.52552">
        <ele>254</ele>
        <time>2022-02-15T14:28:00Z</time>
      </trkpt>
      <trkpt lat="46.43699" lon="2.52532">
        <ele>252</ele>
        <time>2022-02-15T14:28:06Z</time>
      </trkpt>
      <trkpt lat="46.4367" lon="2.52507">
        <ele>250</ele>
        <time>2022-02-15T14:28:12Z</time>
      </trkpt>
      <trkpt lat="46.43648" lon="2.52476">
        <ele>249</ele>
        <time>2022-02-15T14:28:18Z</time>
      </trkpt>
      <trkpt lat="46.43361" lon="2.52006">
        <ele>239</ele>
        <time>2022-02-15T14:29:35Z</time>
      </trkpt>
      <trkpt lat="46.43342" lon="2.51978">
        <ele>237</ele>
        <time>2022-02-15T14:29:40Z</time>
      </trkpt>
      <trkpt lat="46.43189" lon="2.51837">
        <ele>235</ele>
        <time>2022-02-15T14:30:12Z</time>
      </trkpt>
      <trkpt lat="46.43153" lon="2.51799">
        <ele>237</ele>
        <time>2022-02-15T14:30:20Z</time>
      </trkpt>
      <trkpt lat="46.43135" lon="2.51767">
        <ele>239</ele>
        <time>2022-02-15T14:30:25Z</time>
      </trkpt>
      <trkpt lat="46.43123" lon="2.5173">
        <ele>241</ele>
        <time>2022-02-15T14:30:30Z</time>
      </trkpt>
      <trkpt lat="46.43009" lon="2.5136">
        <ele>257</ele>
        <time>2022-02-15T14:31:19Z</time>
      </trkpt>
      <trkpt lat="46.42976" lon="2.51302">
        <ele>257</ele>
        <time>2022-02-15T14:31:29Z</time>
      </trkpt>
      <trkpt lat="46.42969" lon="2.51274">
        <ele>257</ele>
        <time>2022-02-15T14:31:32Z</time>
      </trkpt>
      <trkpt lat="46.4296" lon="2.51216">
        <ele>257</ele>
        <time>2022-02-15T14:31:40Z</time>
      </trkpt>
      <trkpt lat="46.42964" lon="2.51179">
        <ele>258</ele>
        <time>2022-02-15T14:31:44Z</time>
      </trkpt>
      <trkpt lat="46.42952" lon="2.51165">
        <ele>258</ele>
        <time>2022-02-15T14:31:47Z</time>
      </trkpt>
      <trkpt lat="46.42923" lon="2.51089">
        <ele>260</ele>
        <time>2022-02-15T14:31:58Z</time>
      </trkpt>
      <trkpt lat="46.42911" lon="2.51064">
        <ele>261</ele>
        <time>2022-02-15T14:32:01Z</time>
      </trkpt>
      <trkpt lat="46.42885" lon="2.51026">
        <ele>260</ele>
        <time>2022-02-15T14:32:08Z</time>
      </trkpt>
      <trkpt lat="46.42735" lon="2.50861">
        <ele>257</ele>
        <time>2022-02-15T14:32:41Z</time>
      </trkpt>
      <trkpt lat="46.42714" lon="2.50846">
        <ele>257</ele>
        <time>2022-02-15T14:32:46Z</time>
      </trkpt>
      <trkpt lat="46.42687" lon="2.50836">
        <ele>256</ele>
        <time>2022-02-15T14:32:51Z</time>
      </trkpt>
      <trkpt lat="46.4266" lon="2.50834">
        <ele>255</ele>
        <time>2022-02-15T14:32:55Z</time>
      </trkpt>
      <trkpt lat="46.42615" lon="2.50852">
        <ele>252</ele>
        <time>2022-02-15T14:33:04Z</time>
      </trkpt>
      <trkpt lat="46.42593" lon="2.5087">
        <ele>250</ele>
        <time>2022-02-15T14:33:08Z</time>
      </trkpt>
      <trkpt lat="46.42418" lon="2.51075">
        <ele>238</ele>
        <time>2022-02-15T14:33:48Z</time>
      </trkpt>
      <trkpt lat="46.42399" lon="2.51087">
        <ele>237</ele>
        <time>2022-02-15T14:33:52Z</time>
      </trkpt>
      <trkpt lat="46.42377" lon="2.51091">
        <ele>236</ele>
        <time>2022-02-15T14:33:56Z</time>
      </trkpt>
      <trkpt lat="46.42361" lon="2.51089">
        <ele>236</ele>
        <time>2022-02-15T14:33:59Z</time>
      </trkpt>
      <trkpt lat="46.42345" lon="2.51083">
        <ele>236</ele>
        <time>2022-02-15T14:34:02Z</time>
      </trkpt>
      <trkpt lat="46.4233" lon="2.51074">
        <ele>236</ele>
        <time>2022-02-15T14:34:05Z</time>
      </trkpt>
      <trkpt lat="46.42314" lon="2.5106">
        <ele>236</ele>
        <time>2022-02-15T14:34:08Z</time>
      </trkpt>
      <trkpt lat="46.42318" lon="2.51045">
        <ele>238</ele>
        <time>2022-02-15T14:34:10Z</time>
      </trkpt>
      <trkpt lat="46.42315" lon="2.5103">
        <ele>239</ele>
        <time>2022-02-15T14:34:12Z</time>
      </trkpt>
      <trkpt lat="46.42311" lon="2.51022">
        <ele>239</ele>
        <time>2022-02-15T14:34:13Z</time>
      </trkpt>
      <trkpt lat="46.42305" lon="2.51018">
        <ele>239</ele>
        <time>2022-02-15T14:34:14Z</time>
      </trkpt>
      <trkpt lat="46.42298" lon="2.51016">
        <ele>239</ele>
        <time>2022-02-15T14:34:15Z</time>
      </trkpt>
      <trkpt lat="46.42292" lon="2.51017">
        <ele>239</ele>
        <time>2022-02-15T14:34:16Z</time>
      </trkpt>
      <trkpt lat="46.42287" lon="2.50983">
        <ele>241</ele>
        <time>2022-02-15T14:34:21Z</time>
      </trkpt>
      <trkpt lat="46.42254" lon="2.50802">
        <ele>244</ele>
        <time>2022-02-15T14:34:44Z</time>
      </trkpt>
      <trkpt lat="46.42259" lon="2.508">
        <ele>245</ele>
        <time>2022-02-15T14:34:45Z</time>
      </trkpt>
      <trkpt lat="46.42263" lon="2.50791">
        <ele>245</ele>
        <time>2022-02-15T14:34:46Z</time>
      </trkpt>
      <trkpt lat="46.42261" lon="2.50783">
        <ele>245</ele>
        <time>2022-02-15T14:34:47Z</time>
      </trkpt>
      <trkpt lat="46.42256" lon="2.50779">
        <ele>244</ele>
        <time>2022-02-15T14:34:48Z</time>
      </trkpt>
      <trkpt lat="46.42251" lon="2.5078">
        <ele>244</ele>
        <time>2022-02-15T14:34:49Z</time>
      </trkpt>
      <trkpt lat="46.42244" lon="2.50747">
        <ele>243</ele>
        <time>2022-02-15T14:34:53Z</time>
      </trkpt>
      <trkpt lat="46.42227" lon="2.50706">
        <ele>242</ele>
        <time>2022-02-15T14:34:59Z</time>
      </trkpt>
      <trkpt lat="46.42082" lon="2.50494">
        <ele>236</ele>
        <time>2022-02-15T14:35:36Z</time>
      </trkpt>
      <trkpt lat="46.42084" lon="2.5049">
        <ele>237</ele>
        <time>2022-02-15T14:35:36Z</time>
      </trkpt>
      <trkpt lat="46.42082" lon="2.50483">
        <ele>237</ele>
        <time>2022-02-15T14:35:37Z</time>
      </trkpt>
      <trkpt lat="46.42079" lon="2.50481">
        <ele>237</ele>
        <time>2022-02-15T14:35:38Z</time>
      </trkpt>
      <trkpt lat="46.42075" lon="2.50484">
        <ele>237</ele>
        <time>2022-02-15T14:35:39Z</time>
      </trkpt>
      <trkpt lat="46.42074" lon="2.50488">
        <ele>236</ele>
        <time>2022-02-15T14:35:39Z</time>
      </trkpt>
      <trkpt lat="46.42046" lon="2.50478">
        <ele>236</ele>
        <time>2022-02-15T14:35:44Z</time>
      </trkpt>
      <trkpt lat="46.42021" lon="2.50473">
        <ele>234</ele>
        <time>2022-02-15T14:35:49Z</time>
      </trkpt>
      <trkpt lat="46.42006" lon="2.50476">
        <ele>234</ele>
        <time>2022-02-15T14:35:51Z</time>
      </trkpt>
      <trkpt lat="46.41976" lon="2.50488">
        <ele>234</ele>
        <time>2022-02-15T14:35:57Z</time>
      </trkpt>
      <trkpt lat="46.41961" lon="2.50496">
        <ele>234</ele>
        <time>2022-02-15T14:36:00Z</time>
      </trkpt>
      <trkpt lat="46.41952" lon="2.50505">
        <ele>235</ele>
        <time>2022-02-15T14:36:02Z</time>
      </trkpt>
      <trkpt lat="46.41939" lon="2.50521">
        <ele>235</ele>
        <time>2022-02-15T14:36:05Z</time>
      </trkpt>
      <trkpt lat="46.41928" lon="2.5054">
        <ele>235</ele>
        <time>2022-02-15T14:36:08Z</time>
      </trkpt>
      <trkpt lat="46.41921" lon="2.50559">
        <ele>235</ele>
        <time>2022-02-15T14:36:10Z</time>
      </trkpt>
      <trkpt lat="46.41912" lon="2.50604">
        <ele>236</ele>
        <time>2022-02-15T14:36:16Z</time>
      </trkpt>
      <trkpt lat="46.41891" lon="2.50732">
        <ele>237</ele>
        <time>2022-02-15T14:36:32Z</time>
      </trkpt>
      <trkpt lat="46.41884" lon="2.50763">
        <ele>237</ele>
        <time>2022-02-15T14:36:36Z</time>
      </trkpt>
      <trkpt lat="46.41868" lon="2.50751">
        <ele>238</ele>
        <time>2022-02-15T14:36:39Z</time>
      </trkpt>
      <trkpt lat="46.41091" lon="2.49771">
        <ele>287</ele>
        <time>2022-02-15T14:39:43Z</time>
      </trkpt>
      <trkpt lat="46.41082" lon="2.49761">
        <ele>288</ele>
        <time>2022-02-15T14:39:45Z</time>
      </trkpt>
      <trkpt lat="46.41056" lon="2.49737">
        <ele>288</ele>
        <time>2022-02-15T14:39:50Z</time>
      </trkpt>
      <trkpt lat="46.41038" lon="2.49725">
        <ele>288</ele>
        <time>2022-02-15T14:39:54Z</time>
      </trkpt>
      <trkpt lat="46.4102" lon="2.49719">
        <ele>288</ele>
        <time>2022-02-15T14:39:57Z</time>
      </trkpt>
      <trkpt lat="46.41002" lon="2.49719">
        <ele>288</ele>
        <time>2022-02-15T14:40:00Z</time>
      </trkpt>
      <trkpt lat="46.40987" lon="2.49722">
        <ele>288</ele>
        <time>2022-02-15T14:40:03Z</time>
      </trkpt>
      <trkpt lat="46.40492" lon="2.49888">
        <ele>287</ele>
        <time>2022-02-15T14:41:33Z</time>
      </trkpt>
      <trkpt lat="46.40451" lon="2.49893">
        <ele>286</ele>
        <time>2022-02-15T14:41:41Z</time>
      </trkpt>
      <trkpt lat="46.4036" lon="2.49881">
        <ele>285</ele>
        <time>2022-02-15T14:41:57Z</time>
      </trkpt>
      <trkpt lat="46.40326" lon="2.49871">
        <ele>285</ele>
        <time>2022-02-15T14:42:03Z</time>
      </trkpt>
      <trkpt lat="46.40185" lon="2.49822">
        <ele>283</ele>
        <time>2022-02-15T14:42:29Z</time>
      </trkpt>
      <trkpt lat="46.40152" lon="2.49813">
        <ele>283</ele>
        <time>2022-02-15T14:42:35Z</time>
      </trkpt>
      <trkpt lat="46.40126" lon="2.49811">
        <ele>282</ele>
        <time>2022-02-15T14:42:39Z</time>
      </trkpt>
      <trkpt lat="46.39737" lon="2.49834">
        <ele>287</ele>
        <time>2022-02-15T14:43:49Z</time>
      </trkpt>
      <trkpt lat="46.3971" lon="2.49831">
        <ele>286</ele>
        <time>2022-02-15T14:43:54Z</time>
      </trkpt>
      <trkpt lat="46.39688" lon="2.49824">
        <ele>286</ele>
        <time>2022-02-15T14:43:58Z</time>
      </trkpt>
      <trkpt lat="46.3961" lon="2.49776">
        <ele>286</ele>
        <time>2022-02-15T14:44:13Z</time>
      </trkpt>
      <trkpt lat="46.39589" lon="2.49759">
        <ele>287</ele>
        <time>2022-02-15T14:44:17Z</time>
      </trkpt>
      <trkpt lat="46.39461" lon="2.49616">
        <ele>290</ele>
        <time>2022-02-15T14:44:46Z</time>
      </trkpt>
      <trkpt lat="46.39138" lon="2.49245">
        <ele>293</ele>
        <time>2022-02-15T14:45:59Z</time>
      </trkpt>
      <trkpt lat="46.39122" lon="2.49217">
        <ele>292</ele>
        <time>2022-02-15T14:46:03Z</time>
      </trkpt>
      <trkpt lat="46.39063" lon="2.49071">
        <ele>295</ele>
        <time>2022-02-15T14:46:24Z</time>
      </trkpt>
      <trkpt lat="46.39054" lon="2.49044">
        <ele>296</ele>
        <time>2022-02-15T14:46:28Z</time>
      </trkpt>
      <trkpt lat="46.39051" lon="2.49027">
        <ele>297</ele>
        <time>2022-02-15T14:46:30Z</time>
      </trkpt>
      <trkpt lat="46.3905" lon="2.48975">
        <ele>298</ele>
        <time>2022-02-15T14:46:36Z</time>
      </trkpt>
      <trkpt lat="46.39042" lon="2.48955">
        <ele>298</ele>
        <time>2022-02-15T14:46:39Z</time>
      </trkpt>
      <trkpt lat="46.3903" lon="2.48933">
        <ele>298</ele>
        <time>2022-02-15T14:46:43Z</time>
      </trkpt>
      <trkpt lat="46.38996" lon="2.48886">
        <ele>298</ele>
        <time>2022-02-15T14:46:51Z</time>
      </trkpt>
      <trkpt lat="46.38967" lon="2.48853">
        <ele>299</ele>
        <time>2022-02-15T14:46:58Z</time>
      </trkpt>
      <trkpt lat="46.38843" lon="2.48735">
        <ele>307</ele>
        <time>2022-02-15T14:47:24Z</time>
      </trkpt>
      <trkpt lat="46.38813" lon="2.48714">
        <ele>307</ele>
        <time>2022-02-15T14:47:30Z</time>
      </trkpt>
      <trkpt lat="46.38747" lon="2.48681">
        <ele>309</ele>
        <time>2022-02-15T14:47:42Z</time>
      </trkpt>
      <trkpt lat="46.38546" lon="2.48591">
        <ele>307</ele>
        <time>2022-02-15T14:48:20Z</time>
      </trkpt>
      <trkpt lat="46.38512" lon="2.48572">
        <ele>306</ele>
        <time>2022-02-15T14:48:26Z</time>
      </trkpt>
      <trkpt lat="46.38492" lon="2.48554">
        <ele>306</ele>
        <time>2022-02-15T14:48:30Z</time>
      </trkpt>
      <trkpt lat="46.38405" lon="2.48437">
        <ele>303</ele>
        <time>2022-02-15T14:48:52Z</time>
      </trkpt>
      <trkpt lat="46.38372" lon="2.48386">
        <ele>302</ele>
        <time>2022-02-15T14:49:00Z</time>
      </trkpt>
      <trkpt lat="46.38364" lon="2.48367">
        <ele>301</ele>
        <time>2022-02-15T14:49:03Z</time>
      </trkpt>
      <trkpt lat="46.38361" lon="2.48355">
        <ele>301</ele>
        <time>2022-02-15T14:49:04Z</time>
      </trkpt>
      <trkpt lat="46.38357" lon="2.48332">
        <ele>300</ele>
        <time>2022-02-15T14:49:07Z</time>
      </trkpt>
      <trkpt lat="46.38353" lon="2.4828">
        <ele>299</ele>
        <time>2022-02-15T14:49:14Z</time>
      </trkpt>
      <trkpt lat="46.38347" lon="2.48255">
        <ele>298</ele>
        <time>2022-02-15T14:49:17Z</time>
      </trkpt>
      <trkpt lat="46.38338" lon="2.48232">
        <ele>297</ele>
        <time>2022-02-15T14:49:20Z</time>
      </trkpt>
      <trkpt lat="46.38297" lon="2.48162">
        <ele>294</ele>
        <time>2022-02-15T14:49:32Z</time>
      </trkpt>
      <trkpt lat="46.38283" lon="2.48149">
        <ele>293</ele>
        <time>2022-02-15T14:49:35Z</time>
      </trkpt>
      <trkpt lat="46.3827" lon="2.48145">
        <ele>292</ele>
        <time>2022-02-15T14:49:37Z</time>
      </trkpt>
      <trkpt lat="46.38251" lon="2.48145">
        <ele>289</ele>
        <time>2022-02-15T14:49:40Z</time>
      </trkpt>
      <trkpt lat="46.38187" lon="2.48159">
        <ele>286</ele>
        <time>2022-02-15T14:49:52Z</time>
      </trkpt>
      <trkpt lat="46.38171" lon="2.48156">
        <ele>286</ele>
        <time>2022-02-15T14:49:55Z</time>
      </trkpt>
      <trkpt lat="46.38156" lon="2.48147">
        <ele>285</ele>
        <time>2022-02-15T14:49:58Z</time>
      </trkpt>
      <trkpt lat="46.38102" lon="2.48091">
        <ele>283</ele>
        <time>2022-02-15T14:50:09Z</time>
      </trkpt>
      <trkpt lat="46.38084" lon="2.48079">
        <ele>282</ele>
        <time>2022-02-15T14:50:13Z</time>
      </trkpt>
      <trkpt lat="46.38067" lon="2.48076">
        <ele>282</ele>
        <time>2022-02-15T14:50:16Z</time>
      </trkpt>
      <trkpt lat="46.37995" lon="2.48072">
        <ele>279</ele>
        <time>2022-02-15T14:50:29Z</time>
      </trkpt>
      <trkpt lat="46.37979" lon="2.48066">
        <ele>279</ele>
        <time>2022-02-15T14:50:32Z</time>
      </trkpt>
      <trkpt lat="46.37966" lon="2.48055">
        <ele>279</ele>
        <time>2022-02-15T14:50:34Z</time>
      </trkpt>
      <trkpt lat="46.37954" lon="2.48039">
        <ele>280</ele>
        <time>2022-02-15T14:50:37Z</time>
      </trkpt>
      <trkpt lat="46.37944" lon="2.48017">
        <ele>281</ele>
        <time>2022-02-15T14:50:41Z</time>
      </trkpt>
      <trkpt lat="46.37938" lon="2.47991">
        <ele>281</ele>
        <time>2022-02-15T14:50:44Z</time>
      </trkpt>
      <trkpt lat="46.37929" lon="2.47966">
        <ele>282</ele>
        <time>2022-02-15T14:50:47Z</time>
      </trkpt>
      <trkpt lat="46.37919" lon="2.47952">
        <ele>282</ele>
        <time>2022-02-15T14:50:50Z</time>
      </trkpt>
      <trkpt lat="46.37909" lon="2.47942">
        <ele>282</ele>
        <time>2022-02-15T14:50:52Z</time>
      </trkpt>
      <trkpt lat="46.37898" lon="2.47937">
        <ele>283</ele>
        <time>2022-02-15T14:50:54Z</time>
      </trkpt>
      <trkpt lat="46.37875" lon="2.47931">
        <ele>284</ele>
        <time>2022-02-15T14:50:58Z</time>
      </trkpt>
      <trkpt lat="46.37855" lon="2.47926">
        <ele>285</ele>
        <time>2022-02-15T14:51:02Z</time>
      </trkpt>
      <trkpt lat="46.37836" lon="2.47924">
        <ele>286</ele>
        <time>2022-02-15T14:51:05Z</time>
      </trkpt>
      <trkpt lat="46.37821" lon="2.47928">
        <ele>288</ele>
        <time>2022-02-15T14:51:08Z</time>
      </trkpt>
      <trkpt lat="46.37803" lon="2.47937">
        <ele>289</ele>
        <time>2022-02-15T14:51:11Z</time>
      </trkpt>
      <trkpt lat="46.37759" lon="2.47974">
        <ele>292</ele>
        <time>2022-02-15T14:51:20Z</time>
      </trkpt>
      <trkpt lat="46.37741" lon="2.47924">
        <ele>295</ele>
        <time>2022-02-15T14:51:27Z</time>
      </trkpt>
      <trkpt lat="46.37711" lon="2.47825">
        <ele>301</ele>
        <time>2022-02-15T14:51:41Z</time>
      </trkpt>
      <trkpt lat="46.3763" lon="2.47622">
        <ele>317</ele>
        <time>2022-02-15T14:52:09Z</time>
      </trkpt>
      <trkpt lat="46.3762" lon="2.4761">
        <ele>318</ele>
        <time>2022-02-15T14:52:12Z</time>
      </trkpt>
      <trkpt lat="46.37534" lon="2.47569">
        <ele>324</ele>
        <time>2022-02-15T14:52:28Z</time>
      </trkpt>
      <trkpt lat="46.37494" lon="2.47617">
        <ele>326</ele>
        <time>2022-02-15T14:52:37Z</time>
      </trkpt>
      <trkpt lat="46.37434" lon="2.4767">
        <ele>327</ele>
        <time>2022-02-15T14:52:49Z</time>
      </trkpt>
      <trkpt lat="46.37418" lon="2.47648">
        <ele>328</ele>
        <time>2022-02-15T14:52:53Z</time>
      </trkpt>
      <trkpt lat="46.37398" lon="2.47635">
        <ele>327</ele>
        <time>2022-02-15T14:52:57Z</time>
      </trkpt>
      <trkpt lat="46.37368" lon="2.47621">
        <ele>327</ele>
        <time>2022-02-15T14:53:03Z</time>
      </trkpt>
      <trkpt lat="46.37322" lon="2.47612">
        <ele>328</ele>
        <time>2022-02-15T14:53:11Z</time>
      </trkpt>
      <trkpt lat="46.37298" lon="2.47614">
        <ele>328</ele>
        <time>2022-02-15T14:53:15Z</time>
      </trkpt>
      <trkpt lat="46.37296" lon="2.47606">
        <ele>328</ele>
        <time>2022-02-15T14:53:16Z</time>
      </trkpt>
      <trkpt lat="46.37292" lon="2.47601">
        <ele>328</ele>
        <time>2022-02-15T14:53:17Z</time>
      </trkpt>
      <trkpt lat="46.37285" lon="2.476">
        <ele>328</ele>
        <time>2022-02-15T14:53:19Z</time>
      </trkpt>
      <trkpt lat="46.3728" lon="2.47603">
        <ele>329</ele>
        <time>2022-02-15T14:53:20Z</time>
      </trkpt>
      <trkpt lat="46.37277" lon="2.4761">
        <ele>329</ele>
        <time>2022-02-15T14:53:21Z</time>
      </trkpt>
      <trkpt lat="46.37277" lon="2.4762">
        <ele>329</ele>
        <time>2022-02-15T14:53:22Z</time>
      </trkpt>
      <trkpt lat="46.3728" lon="2.47627">
        <ele>329</ele>
        <time>2022-02-15T14:53:23Z</time>
      </trkpt>
      <trkpt lat="46.37285" lon="2.47631">
        <ele>329</ele>
        <time>2022-02-15T14:53:24Z</time>
      </trkpt>
      <trkpt lat="46.37281" lon="2.47643">
        <ele>329</ele>
        <time>2022-02-15T14:53:26Z</time>
      </trkpt>
      <trkpt lat="46.37276" lon="2.47653">
        <ele>329</ele>
        <time>2022-02-15T14:53:27Z</time>
      </trkpt>
      <trkpt lat="46.37252" lon="2.47685">
        <ele>330</ele>
        <time>2022-02-15T14:53:33Z</time>
      </trkpt>
      <trkpt lat="46.37243" lon="2.47706">
        <ele>331</ele>
        <time>2022-02-15T14:53:36Z</time>
      </trkpt>
      <trkpt lat="46.37237" lon="2.47747">
        <ele>331</ele>
        <time>2022-02-15T14:53:41Z</time>
      </trkpt>
      <trkpt lat="46.37225" lon="2.47759">
        <ele>331</ele>
        <time>2022-02-15T14:53:44Z</time>
      </trkpt>
      <trkpt lat="46.37132" lon="2.47838">
        <ele>334</ele>
        <time>2022-02-15T14:54:03Z</time>
      </trkpt>
      <trkpt lat="46.36354" lon="2.48515">
        <ele>349</ele>
        <time>2022-02-15T14:56:44Z</time>
      </trkpt>
      <trkpt lat="46.36342" lon="2.48534">
        <ele>349</ele>
        <time>2022-02-15T14:56:47Z</time>
      </trkpt>
      <trkpt lat="46.36333" lon="2.48559">
        <ele>349</ele>
        <time>2022-02-15T14:56:51Z</time>
      </trkpt>
      <trkpt lat="46.36331" lon="2.48584">
        <ele>348</ele>
        <time>2022-02-15T14:56:54Z</time>
      </trkpt>
      <trkpt lat="46.36334" lon="2.48612">
        <ele>348</ele>
        <time>2022-02-15T14:56:57Z</time>
      </trkpt>
      <trkpt lat="46.36379" lon="2.48758">
        <ele>344</ele>
        <time>2022-02-15T14:57:17Z</time>
      </trkpt>
      <trkpt lat="46.36394" lon="2.48818">
        <ele>344</ele>
        <time>2022-02-15T14:57:25Z</time>
      </trkpt>
      <trkpt lat="46.36402" lon="2.48873">
        <ele>342</ele>
        <time>2022-02-15T14:57:32Z</time>
      </trkpt>
      <trkpt lat="46.36429" lon="2.49127">
        <ele>339</ele>
        <time>2022-02-15T14:58:03Z</time>
      </trkpt>
      <trkpt lat="46.36443" lon="2.49298">
        <ele>335</ele>
        <time>2022-02-15T14:58:25Z</time>
      </trkpt>
      <trkpt lat="46.36442" lon="2.49349">
        <ele>333</ele>
        <time>2022-02-15T14:58:31Z</time>
      </trkpt>
      <trkpt lat="46.36417" lon="2.49664">
        <ele>320</ele>
        <time>2022-02-15T14:59:10Z</time>
      </trkpt>
      <trkpt lat="46.36418" lon="2.49714">
        <ele>318</ele>
        <time>2022-02-15T14:59:16Z</time>
      </trkpt>
      <trkpt lat="46.36433" lon="2.49884">
        <ele>315</ele>
        <time>2022-02-15T14:59:37Z</time>
      </trkpt>
      <trkpt lat="46.36437" lon="2.49905">
        <ele>314</ele>
        <time>2022-02-15T14:59:40Z</time>
      </trkpt>
      <trkpt lat="46.36444" lon="2.49923">
        <ele>313</ele>
        <time>2022-02-15T14:59:42Z</time>
      </trkpt>
      <trkpt lat="46.36452" lon="2.49939">
        <ele>312</ele>
        <time>2022-02-15T14:59:45Z</time>
      </trkpt>
      <trkpt lat="46.3657" lon="2.5013">
        <ele>304</ele>
        <time>2022-02-15T15:00:16Z</time>
      </trkpt>
      <trkpt lat="46.3658" lon="2.5015">
        <ele>303</ele>
        <time>2022-02-15T15:00:19Z</time>
      </trkpt>
      <trkpt lat="46.36586" lon="2.50175">
        <ele>303</ele>
        <time>2022-02-15T15:00:22Z</time>
      </trkpt>
      <trkpt lat="46.36585" lon="2.502">
        <ele>303</ele>
        <time>2022-02-15T15:00:25Z</time>
      </trkpt>
      <trkpt lat="46.36577" lon="2.50242">
        <ele>303</ele>
        <time>2022-02-15T15:00:31Z</time>
      </trkpt>
      <trkpt lat="46.36485" lon="2.50693">
        <ele>296</ele>
        <time>2022-02-15T15:01:29Z</time>
      </trkpt>
      <trkpt lat="46.3647" lon="2.5077">
        <ele>292</ele>
        <time>2022-02-15T15:01:38Z</time>
      </trkpt>
      <trkpt lat="46.36469" lon="2.50804">
        <ele>290</ele>
        <time>2022-02-15T15:01:43Z</time>
      </trkpt>
      <trkpt lat="46.36476" lon="2.50894">
        <ele>285</ele>
        <time>2022-02-15T15:01:54Z</time>
      </trkpt>
      <trkpt lat="46.36484" lon="2.50966">
        <ele>281</ele>
        <time>2022-02-15T15:02:03Z</time>
      </trkpt>
      <trkpt lat="46.36518" lon="2.51152">
        <ele>271</ele>
        <time>2022-02-15T15:02:26Z</time>
      </trkpt>
      <trkpt lat="46.36535" lon="2.51201">
        <ele>267</ele>
        <time>2022-02-15T15:02:33Z</time>
      </trkpt>
      <trkpt lat="46.36777" lon="2.51712">
        <ele>240</ele>
        <time>2022-02-15T15:03:49Z</time>
      </trkpt>
      <trkpt lat="46.36789" lon="2.51745">
        <ele>239</ele>
        <time>2022-02-15T15:03:54Z</time>
      </trkpt>
      <trkpt lat="46.36799" lon="2.51779">
        <ele>237</ele>
        <time>2022-02-15T15:03:58Z</time>
      </trkpt>
      <trkpt lat="46.36826" lon="2.5191">
        <ele>234</ele>
        <time>2022-02-15T15:04:15Z</time>
      </trkpt>
      <trkpt lat="46.36843" lon="2.51944">
        <ele>234</ele>
        <time>2022-02-15T15:04:20Z</time>
      </trkpt>
      <trkpt lat="46.36849" lon="2.51967">
        <ele>233</ele>
        <time>2022-02-15T15:04:23Z</time>
      </trkpt>
      <trkpt lat="46.36849" lon="2.51976">
        <ele>233</ele>
        <time>2022-02-15T15:04:24Z</time>
      </trkpt>
      <trkpt lat="46.36844" lon="2.51993">
        <ele>232</ele>
        <time>2022-02-15T15:04:26Z</time>
      </trkpt>
      <trkpt lat="46.36825" lon="2.52084">
        <ele>229</ele>
        <time>2022-02-15T15:04:38Z</time>
      </trkpt>
      <trkpt lat="46.36806" lon="2.52119">
        <ele>228</ele>
        <time>2022-02-15T15:04:44Z</time>
      </trkpt>
      <trkpt lat="46.368" lon="2.52133">
        <ele>228</ele>
        <time>2022-02-15T15:04:46Z</time>
      </trkpt>
      <trkpt lat="46.36782" lon="2.52169">
        <ele>228</ele>
        <time>2022-02-15T15:04:51Z</time>
      </trkpt>
      <trkpt lat="46.36743" lon="2.52276">
        <ele>231</ele>
        <time>2022-02-15T15:05:06Z</time>
      </trkpt>
      <trkpt lat="46.36731" lon="2.52317">
        <ele>233</ele>
        <time>2022-02-15T15:05:11Z</time>
      </trkpt>
      <trkpt lat="46.3672" lon="2.52378">
        <ele>234</ele>
        <time>2022-02-15T15:05:19Z</time>
      </trkpt>
      <trkpt lat="46.36708" lon="2.52406">
        <ele>235</ele>
        <time>2022-02-15T15:05:23Z</time>
      </trkpt>
      <trkpt lat="46.36634" lon="2.52538">
        <ele>238</ele>
        <time>2022-02-15T15:05:44Z</time>
      </trkpt>
      <trkpt lat="46.36572" lon="2.52641">
        <ele>234</ele>
        <time>2022-02-15T15:06:01Z</time>
      </trkpt>
      <trkpt lat="46.36546" lon="2.52674">
        <ele>234</ele>
        <time>2022-02-15T15:06:07Z</time>
      </trkpt>
      <trkpt lat="46.36514" lon="2.52699">
        <ele>234</ele>
        <time>2022-02-15T15:06:14Z</time>
      </trkpt>
      <trkpt lat="46.36499" lon="2.52721">
        <ele>234</ele>
        <time>2022-02-15T15:06:17Z</time>
      </trkpt>
      <trkpt lat="46.36486" lon="2.52749">
        <ele>234</ele>
        <time>2022-02-15T15:06:21Z</time>
      </trkpt>
      <trkpt lat="46.3648" lon="2.52771">
        <ele>234</ele>
        <time>2022-02-15T15:06:24Z</time>
      </trkpt>
      <trkpt lat="46.36477" lon="2.52795">
        <ele>233</ele>
        <time>2022-02-15T15:06:27Z</time>
      </trkpt>
      <trkpt lat="46.36478" lon="2.52822">
        <ele>233</ele>
        <time>2022-02-15T15:06:31Z</time>
      </trkpt>
      <trkpt lat="46.36487" lon="2.52875">
        <ele>233</ele>
        <time>2022-02-15T15:06:37Z</time>
      </trkpt>
      <trkpt lat="46.36496" lon="2.52955">
        <ele>233</ele>
        <time>2022-02-15T15:06:47Z</time>
      </trkpt>
      <trkpt lat="46.36495" lon="2.52989">
        <ele>233</ele>
        <time>2022-02-15T15:06:51Z</time>
      </trkpt>
      <trkpt lat="46.36485" lon="2.53037">
        <ele>232</ele>
        <time>2022-02-15T15:06:58Z</time>
      </trkpt>
      <trkpt lat="46.36473" lon="2.53069">
        <ele>233</ele>
        <time>2022-02-15T15:07:02Z</time>
      </trkpt>
      <trkpt lat="46.36378" lon="2.53253">
        <ele>243</ele>
        <time>2022-02-15T15:07:30Z</time>
      </trkpt>
      <trkpt lat="46.36298" lon="2.5343">
        <ele>240</ele>
        <time>2022-02-15T15:07:56Z</time>
      </trkpt>
      <trkpt lat="46.36255" lon="2.53516">
        <ele>239</ele>
        <time>2022-02-15T15:08:09Z</time>
      </trkpt>
      <trkpt lat="46.36248" lon="2.53541">
        <ele>238</ele>
        <time>2022-02-15T15:08:13Z</time>
      </trkpt>
      <trkpt lat="46.3625" lon="2.53568">
        <ele>237</ele>
        <time>2022-02-15T15:08:16Z</time>
      </trkpt>
      <trkpt lat="46.36252" lon="2.53586">
        <ele>237</ele>
        <time>2022-02-15T15:08:18Z</time>
      </trkpt>
      <trkpt lat="46.36253" lon="2.53619">
        <ele>237</ele>
        <time>2022-02-15T15:08:22Z</time>
      </trkpt>
      <trkpt lat="46.36249" lon="2.53659">
        <ele>237</ele>
        <time>2022-02-15T15:08:27Z</time>
      </trkpt>
      <trkpt lat="46.36239" lon="2.53695">
        <ele>237</ele>
        <time>2022-02-15T15:08:32Z</time>
      </trkpt>
      <trkpt lat="46.36215" lon="2.53748">
        <ele>236</ele>
        <time>2022-02-15T15:08:40Z</time>
      </trkpt>
      <trkpt lat="46.36202" lon="2.53765">
        <ele>237</ele>
        <time>2022-02-15T15:08:43Z</time>
      </trkpt>
      <trkpt lat="46.36125" lon="2.53842">
        <ele>237</ele>
        <time>2022-02-15T15:09:00Z</time>
      </trkpt>
      <trkpt lat="46.36067" lon="2.53923">
        <ele>235</ele>
        <time>2022-02-15T15:09:14Z</time>
      </trkpt>
      <trkpt lat="46.36055" lon="2.53955">
        <ele>236</ele>
        <time>2022-02-15T15:09:18Z</time>
      </trkpt>
      <trkpt lat="46.3599" lon="2.54191">
        <ele>235</ele>
        <time>2022-02-15T15:09:50Z</time>
      </trkpt>
      <trkpt lat="46.35985" lon="2.54217">
        <ele>235</ele>
        <time>2022-02-15T15:09:53Z</time>
      </trkpt>
      <trkpt lat="46.35981" lon="2.5426">
        <ele>235</ele>
        <time>2022-02-15T15:09:58Z</time>
      </trkpt>
      <trkpt lat="46.3598" lon="2.54325">
        <ele>235</ele>
        <time>2022-02-15T15:10:06Z</time>
      </trkpt>
      <trkpt lat="46.35978" lon="2.54342">
        <ele>235</ele>
        <time>2022-02-15T15:10:08Z</time>
      </trkpt>
      <trkpt lat="46.35972" lon="2.54383">
        <ele>235</ele>
        <time>2022-02-15T15:10:13Z</time>
      </trkpt>
      <trkpt lat="46.35934" lon="2.54565">
        <ele>232</ele>
        <time>2022-02-15T15:10:37Z</time>
      </trkpt>
      <trkpt lat="46.35915" lon="2.54642">
        <ele>230</ele>
        <time>2022-02-15T15:10:47Z</time>
      </trkpt>
      <trkpt lat="46.359" lon="2.54672">
        <ele>229</ele>
        <time>2022-02-15T15:10:51Z</time>
      </trkpt>
      <trkpt lat="46.35895" lon="2.54676">
        <ele>230</ele>
        <time>2022-02-15T15:10:52Z</time>
      </trkpt>
      <trkpt lat="46.35894" lon="2.5468">
        <ele>230</ele>
        <time>2022-02-15T15:10:53Z</time>
      </trkpt>
      <trkpt lat="46.35897" lon="2.5471">
        <ele>230</ele>
        <time>2022-02-15T15:10:57Z</time>
      </trkpt>
      <trkpt lat="46.35874" lon="2.54859">
        <ele>232</ele>
        <time>2022-02-15T15:11:15Z</time>
      </trkpt>
      <trkpt lat="46.35851" lon="2.55187">
        <ele>232</ele>
        <time>2022-02-15T15:11:56Z</time>
      </trkpt>
      <trkpt lat="46.35844" lon="2.55223">
        <ele>233</ele>
        <time>2022-02-15T15:12:00Z</time>
      </trkpt>
      <trkpt lat="46.35833" lon="2.5524">
        <ele>233</ele>
        <time>2022-02-15T15:12:03Z</time>
      </trkpt>
      <trkpt lat="46.35824" lon="2.55245">
        <ele>233</ele>
        <time>2022-02-15T15:12:05Z</time>
      </trkpt>
      <trkpt lat="46.35819" lon="2.55251">
        <ele>234</ele>
        <time>2022-02-15T15:12:06Z</time>
      </trkpt>
      <trkpt lat="46.35816" lon="2.55259">
        <ele>234</ele>
        <time>2022-02-15T15:12:07Z</time>
      </trkpt>
      <trkpt lat="46.35815" lon="2.55268">
        <ele>234</ele>
        <time>2022-02-15T15:12:08Z</time>
      </trkpt>
      <trkpt lat="46.35815" lon="2.55278">
        <ele>234</ele>
        <time>2022-02-15T15:12:10Z</time>
      </trkpt>
      <trkpt lat="46.35818" lon="2.55287">
        <ele>233</ele>
        <time>2022-02-15T15:12:11Z</time>
      </trkpt>
      <trkpt lat="46.35822" lon="2.55294">
        <ele>233</ele>
        <time>2022-02-15T15:12:12Z</time>
      </trkpt>
      <trkpt lat="46.35825" lon="2.55308">
        <ele>233</ele>
        <time>2022-02-15T15:12:14Z</time>
      </trkpt>
      <trkpt lat="46.35825" lon="2.55329">
        <ele>232</ele>
        <time>2022-02-15T15:12:16Z</time>
      </trkpt>
      <trkpt lat="46.35737" lon="2.55835">
        <ele>248</ele>
        <time>2022-02-15T15:13:20Z</time>
      </trkpt>
      <trkpt lat="46.35724" lon="2.55926">
        <ele>247</ele>
        <time>2022-02-15T15:13:32Z</time>
      </trkpt>
      <trkpt lat="46.35693" lon="2.56181">
        <ele>239</ele>
        <time>2022-02-15T15:14:04Z</time>
      </trkpt>
      <trkpt lat="46.3569" lon="2.56219">
        <ele>238</ele>
        <time>2022-02-15T15:14:08Z</time>
      </trkpt>
      <trkpt lat="46.35692" lon="2.56258">
        <ele>237</ele>
        <time>2022-02-15T15:14:13Z</time>
      </trkpt>
      <trkpt lat="46.3572" lon="2.5658">
        <ele>223</ele>
        <time>2022-02-15T15:14:53Z</time>
      </trkpt>
      <trkpt lat="46.35722" lon="2.56627">
        <ele>222</ele>
        <time>2022-02-15T15:14:59Z</time>
      </trkpt>
      <trkpt lat="46.35721" lon="2.56671">
        <ele>221</ele>
        <time>2022-02-15T15:15:04Z</time>
      </trkpt>
      <trkpt lat="46.35716" lon="2.56721">
        <ele>222</ele>
        <time>2022-02-15T15:15:10Z</time>
      </trkpt>
      <trkpt lat="46.3568" lon="2.56916">
        <ele>221</ele>
        <time>2022-02-15T15:15:35Z</time>
      </trkpt>
      <trkpt lat="46.35665" lon="2.57052">
        <ele>227</ele>
        <time>2022-02-15T15:15:52Z</time>
      </trkpt>
      <trkpt lat="46.35654" lon="2.57118">
        <ele>230</ele>
        <time>2022-02-15T15:16:00Z</time>
      </trkpt>
      <trkpt lat="46.35647" lon="2.57145">
        <ele>231</ele>
        <time>2022-02-15T15:16:04Z</time>
      </trkpt>
      <trkpt lat="46.3556" lon="2.57392">
        <ele>228</ele>
        <time>2022-02-15T15:16:38Z</time>
      </trkpt>
      <trkpt lat="46.35545" lon="2.57431">
        <ele>228</ele>
        <time>2022-02-15T15:16:44Z</time>
      </trkpt>
      <trkpt lat="46.35528" lon="2.57463">
        <ele>229</ele>
        <time>2022-02-15T15:16:49Z</time>
      </trkpt>
      <trkpt lat="46.35489" lon="2.57525">
        <ele>230</ele>
        <time>2022-02-15T15:16:59Z</time>
      </trkpt>
      <trkpt lat="46.35473" lon="2.57538">
        <ele>230</ele>
        <time>2022-02-15T15:17:02Z</time>
      </trkpt>
      <trkpt lat="46.35471" lon="2.57542">
        <ele>229</ele>
        <time>2022-02-15T15:17:03Z</time>
      </trkpt>
      <trkpt lat="46.35471" lon="2.5755">
        <ele>229</ele>
        <time>2022-02-15T15:17:04Z</time>
      </trkpt>
      <trkpt lat="46.35462" lon="2.57573">
        <ele>229</ele>
        <time>2022-02-15T15:17:07Z</time>
      </trkpt>
      <trkpt lat="46.35447" lon="2.576">
        <ele>229</ele>
        <time>2022-02-15T15:17:11Z</time>
      </trkpt>
      <trkpt lat="46.3544" lon="2.57607">
        <ele>229</ele>
        <time>2022-02-15T15:17:13Z</time>
      </trkpt>
      <trkpt lat="46.35309" lon="2.57707">
        <ele>230</ele>
        <time>2022-02-15T15:17:39Z</time>
      </trkpt>
      <trkpt lat="46.35245" lon="2.57762">
        <ele>227</ele>
        <time>2022-02-15T15:17:52Z</time>
      </trkpt>
      <trkpt lat="46.35231" lon="2.57778">
        <ele>226</ele>
        <time>2022-02-15T15:17:55Z</time>
      </trkpt>
      <trkpt lat="46.35214" lon="2.57809">
        <ele>225</ele>
        <time>2022-02-15T15:18:00Z</time>
      </trkpt>
      <trkpt lat="46.35166" lon="2.57939">
        <ele>220</ele>
        <time>2022-02-15T15:18:18Z</time>
      </trkpt>
      <trkpt lat="46.35157" lon="2.57973">
        <ele>220</ele>
        <time>2022-02-15T15:18:23Z</time>
      </trkpt>
      <trkpt lat="46.35157" lon="2.5799">
        <ele>219</ele>
        <time>2022-02-15T15:18:25Z</time>
      </trkpt>
      <trkpt lat="46.35199" lon="2.58612">
        <ele>207</ele>
        <time>2022-02-15T15:19:42Z</time>
      </trkpt>
      <trkpt lat="46.35199" lon="2.58633">
        <ele>207</ele>
        <time>2022-02-15T15:19:44Z</time>
      </trkpt>
      <trkpt lat="46.35193" lon="2.58651">
        <ele>207</ele>
        <time>2022-02-15T15:19:47Z</time>
      </trkpt>
      <trkpt lat="46.35203" lon="2.58706">
        <ele>206</ele>
        <time>2022-02-15T15:19:54Z</time>
      </trkpt>
      <trkpt lat="46.35207" lon="2.58737">
        <ele>205</ele>
        <time>2022-02-15T15:19:58Z</time>
      </trkpt>
      <trkpt lat="46.35231" lon="2.59079">
        <ele>203</ele>
        <time>2022-02-15T15:20:40Z</time>
      </trkpt>
      <trkpt lat="46.35091" lon="2.59224">
        <ele>201</ele>
        <time>2022-02-15T15:21:10Z</time>
      </trkpt>
      <trkpt lat="46.35001" lon="2.59318">
        <ele>203</ele>
        <time>2022-02-15T15:21:30Z</time>
      </trkpt>
      <trkpt lat="46.34725" lon="2.59605">
        <ele>204</ele>
        <time>2022-02-15T15:22:31Z</time>
      </trkpt>
      <trkpt lat="46.34637" lon="2.59701">
        <ele>204</ele>
        <time>2022-02-15T15:22:50Z</time>
      </trkpt>
      <trkpt lat="46.34514" lon="2.59829">
        <ele>205</ele>
        <time>2022-02-15T15:23:17Z</time>
      </trkpt>
      <trkpt lat="46.34462" lon="2.59882">
        <ele>205</ele>
        <time>2022-02-15T15:23:29Z</time>
      </trkpt>
      <trkpt lat="46.34449" lon="2.59891">
        <ele>205</ele>
        <time>2022-02-15T15:23:31Z</time>
      </trkpt>
      <trkpt lat="46.34389" lon="2.59953">
        <ele>204</ele>
        <time>2022-02-15T15:23:44Z</time>
      </trkpt>
      <trkpt lat="46.34371" lon="2.59974">
        <ele>204</ele>
        <time>2022-02-15T15:23:48Z</time>
      </trkpt>
      <trkpt lat="46.34294" lon="2.60056">
        <ele>204</ele>
        <time>2022-02-15T15:24:05Z</time>
      </trkpt>
      <trkpt lat="46.34288" lon="2.60062">
        <ele>204</ele>
        <time>2022-02-15T15:24:07Z</time>
      </trkpt>
      <trkpt lat="46.34311" lon="2.60105">
        <ele>203</ele>
        <time>2022-02-15T15:24:13Z</time>
      </trkpt>
      <trkpt lat="46.34332" lon="2.60157">
        <ele>204</ele>
        <time>2022-02-15T15:24:21Z</time>
      </trkpt>
      <trkpt lat="46.34341" lon="2.60181">
        <ele>204</ele>
        <time>2022-02-15T15:24:24Z</time>
      </trkpt>
      <trkpt lat="46.3435" lon="2.60213">
        <ele>204</ele>
        <time>2022-02-15T15:24:28Z</time>
      </trkpt>
      <trkpt lat="46.3434" lon="2.60249">
        <ele>204</ele>
        <time>2022-02-15T15:24:33Z</time>
      </trkpt>
      <trkpt lat="46.34369" lon="2.60294">
        <ele>204</ele>
        <time>2022-02-15T15:24:41Z</time>
      </trkpt>
      <trkpt lat="46.34388" lon="2.60358">
        <ele>204</ele>
        <time>2022-02-15T15:24:49Z</time>
      </trkpt>
      <trkpt lat="46.34497" lon="2.60617">
        <ele>210</ele>
        <time>2022-02-15T15:25:26Z</time>
      </trkpt>
      <trkpt lat="46.3459" lon="2.60813">
        <ele>218</ele>
        <time>2022-02-15T15:25:56Z</time>
      </trkpt>
      <trkpt lat="46.34596" lon="2.6083">
        <ele>220</ele>
        <time>2022-02-15T15:25:58Z</time>
      </trkpt>
      <trkpt lat="46.34601" lon="2.6085">
        <ele>221</ele>
        <time>2022-02-15T15:26:01Z</time>
      </trkpt>
      <trkpt lat="46.34605" lon="2.60871">
        <ele>222</ele>
        <time>2022-02-15T15:26:03Z</time>
      </trkpt>
      <trkpt lat="46.34605" lon="2.6089">
        <ele>224</ele>
        <time>2022-02-15T15:26:06Z</time>
      </trkpt>
      <trkpt lat="46.34604" lon="2.6092">
        <ele>226</ele>
        <time>2022-02-15T15:26:09Z</time>
      </trkpt>
      <trkpt lat="46.34601" lon="2.60938">
        <ele>227</ele>
        <time>2022-02-15T15:26:12Z</time>
      </trkpt>
      <trkpt lat="46.34595" lon="2.60962">
        <ele>228</ele>
        <time>2022-02-15T15:26:15Z</time>
      </trkpt>
      <trkpt lat="46.34485" lon="2.61271">
        <ele>241</ele>
        <time>2022-02-15T15:26:57Z</time>
      </trkpt>
      <trkpt lat="46.34469" lon="2.61296">
        <ele>242</ele>
        <time>2022-02-15T15:27:02Z</time>
      </trkpt>
      <trkpt lat="46.34438" lon="2.61334">
        <ele>243</ele>
        <time>2022-02-15T15:27:09Z</time>
      </trkpt>
      <trkpt lat="46.34418" lon="2.61366">
        <ele>244</ele>
        <time>2022-02-15T15:27:14Z</time>
      </trkpt>
      <trkpt lat="46.34445" lon="2.61446">
        <ele>245</ele>
        <time>2022-02-15T15:27:25Z</time>
      </trkpt>
      <trkpt lat="46.3449" lon="2.61604">
        <ele>252</ele>
        <time>2022-02-15T15:27:46Z</time>
      </trkpt>
      <trkpt lat="46.34497" lon="2.61656">
        <ele>254</ele>
        <time>2022-02-15T15:27:53Z</time>
      </trkpt>
      <trkpt lat="46.34572" lon="2.62422">
        <ele>264</ele>
        <time>2022-02-15T15:29:28Z</time>
      </trkpt>
      <trkpt lat="46.34572" lon="2.62447">
        <ele>265</ele>
        <time>2022-02-15T15:29:31Z</time>
      </trkpt>
      <trkpt lat="46.34568" lon="2.6247">
        <ele>265</ele>
        <time>2022-02-15T15:29:34Z</time>
      </trkpt>
      <trkpt lat="46.34572" lon="2.62477">
        <ele>265</ele>
        <time>2022-02-15T15:29:35Z</time>
      </trkpt>
      <trkpt lat="46.34574" lon="2.62489">
        <ele>265</ele>
        <time>2022-02-15T15:29:36Z</time>
      </trkpt>
      <trkpt lat="46.34593" lon="2.62685">
        <ele>272</ele>
        <time>2022-02-15T15:30:01Z</time>
      </trkpt>
      <trkpt lat="46.34606" lon="2.628">
        <ele>275</ele>
        <time>2022-02-15T15:30:15Z</time>
      </trkpt>
      <trkpt lat="46.34616" lon="2.62899">
        <ele>279</ele>
        <time>2022-02-15T15:30:27Z</time>
      </trkpt>
      <trkpt lat="46.34621" lon="2.62927">
        <ele>280</ele>
        <time>2022-02-15T15:30:31Z</time>
      </trkpt>
      <trkpt lat="46.34647" lon="2.63215">
        <ele>298</ele>
        <time>2022-02-15T15:31:06Z</time>
      </trkpt>
      <trkpt lat="46.34647" lon="2.63228">
        <ele>299</ele>
        <time>2022-02-15T15:31:08Z</time>
      </trkpt>
      <trkpt lat="46.34638" lon="2.6325">
        <ele>300</ele>
        <time>2022-02-15T15:31:11Z</time>
      </trkpt>
      <trkpt lat="46.34631" lon="2.63259">
        <ele>302</ele>
        <time>2022-02-15T15:31:13Z</time>
      </trkpt>
      <trkpt lat="46.34567" lon="2.633">
        <ele>309</ele>
        <time>2022-02-15T15:31:25Z</time>
      </trkpt>
      <trkpt lat="46.34497" lon="2.63343">
        <ele>316</ele>
        <time>2022-02-15T15:31:39Z</time>
      </trkpt>
      <trkpt lat="46.34482" lon="2.63349">
        <ele>317</ele>
        <time>2022-02-15T15:31:41Z</time>
      </trkpt>
      <trkpt lat="46.34444" lon="2.63356">
        <ele>319</ele>
        <time>2022-02-15T15:31:48Z</time>
      </trkpt>
      <trkpt lat="46.34362" lon="2.63384">
        <ele>324</ele>
        <time>2022-02-15T15:32:03Z</time>
      </trkpt>
      <trkpt lat="46.34349" lon="2.6339">
        <ele>326</ele>
        <time>2022-02-15T15:32:06Z</time>
      </trkpt>
      <trkpt lat="46.34327" lon="2.63409">
        <ele>329</ele>
        <time>2022-02-15T15:32:10Z</time>
      </trkpt>
      <trkpt lat="46.34266" lon="2.63503">
        <ele>339</ele>
        <time>2022-02-15T15:32:26Z</time>
      </trkpt>
      <trkpt lat="46.34241" lon="2.63526">
        <ele>342</ele>
        <time>2022-02-15T15:32:31Z</time>
      </trkpt>
      <trkpt lat="46.34225" lon="2.6353">
        <ele>343</ele>
        <time>2022-02-15T15:32:34Z</time>
      </trkpt>
      <trkpt lat="46.34193" lon="2.63518">
        <ele>342</ele>
        <time>2022-02-15T15:32:40Z</time>
      </trkpt>
      <trkpt lat="46.34186" lon="2.6352">
        <ele>343</ele>
        <time>2022-02-15T15:32:41Z</time>
      </trkpt>
      <trkpt lat="46.34181" lon="2.63524">
        <ele>343</ele>
        <time>2022-02-15T15:32:42Z</time>
      </trkpt>
      <trkpt lat="46.34174" lon="2.63534">
        <ele>345</ele>
        <time>2022-02-15T15:32:44Z</time>
      </trkpt>
      <trkpt lat="46.34168" lon="2.63548">
        <ele>347</ele>
        <time>2022-02-15T15:32:46Z</time>
      </trkpt>
      <trkpt lat="46.34143" lon="2.63637">
        <ele>356</ele>
        <time>2022-02-15T15:32:58Z</time>
      </trkpt>
      <trkpt lat="46.34129" lon="2.6366">
        <ele>358</ele>
        <time>2022-02-15T15:33:02Z</time>
      </trkpt>
      <trkpt lat="46.34105" lon="2.63709">
        <ele>357</ele>
        <time>2022-02-15T15:33:09Z</time>
      </trkpt>
      <trkpt lat="46.34042" lon="2.63813">
        <ele>357</ele>
        <time>2022-02-15T15:33:26Z</time>
      </trkpt>
      <trkpt lat="46.34033" lon="2.63836">
        <ele>358</ele>
        <time>2022-02-15T15:33:29Z</time>
      </trkpt>
      <trkpt lat="46.34015" lon="2.63928">
        <ele>358</ele>
        <time>2022-02-15T15:33:41Z</time>
      </trkpt>
      <trkpt lat="46.34007" lon="2.63974">
        <ele>359</ele>
        <time>2022-02-15T15:33:47Z</time>
      </trkpt>
      <trkpt lat="46.33996" lon="2.6404">
        <ele>362</ele>
        <time>2022-02-15T15:33:55Z</time>
      </trkpt>
      <trkpt lat="46.33989" lon="2.64209">
        <ele>368</ele>
        <time>2022-02-15T15:34:16Z</time>
      </trkpt>
      <trkpt lat="46.33985" lon="2.64733">
        <ele>373</ele>
        <time>2022-02-15T15:35:21Z</time>
      </trkpt>
      <trkpt lat="46.33986" lon="2.64801">
        <ele>370</ele>
        <time>2022-02-15T15:35:29Z</time>
      </trkpt>
      <trkpt lat="46.33996" lon="2.64874">
        <ele>369</ele>
        <time>2022-02-15T15:35:38Z</time>
      </trkpt>
      <trkpt lat="46.34016" lon="2.64993">
        <ele>368</ele>
        <time>2022-02-15T15:35:53Z</time>
      </trkpt>
      <trkpt lat="46.34015" lon="2.65005">
        <ele>368</ele>
        <time>2022-02-15T15:35:55Z</time>
      </trkpt>
      <trkpt lat="46.34012" lon="2.65014">
        <ele>368</ele>
        <time>2022-02-15T15:35:56Z</time>
      </trkpt>
      <trkpt lat="46.34006" lon="2.65022">
        <ele>368</ele>
        <time>2022-02-15T15:35:57Z</time>
      </trkpt>
      <trkpt lat="46.34078" lon="2.65365">
        <ele>365</ele>
        <time>2022-02-15T15:36:41Z</time>
      </trkpt>
      <trkpt lat="46.34081" lon="2.65413">
        <ele>367</ele>
        <time>2022-02-15T15:36:47Z</time>
      </trkpt>
      <trkpt lat="46.34076" lon="2.65478">
        <ele>370</ele>
        <time>2022-02-15T15:36:55Z</time>
      </trkpt>
      <trkpt lat="46.34065" lon="2.65533">
        <ele>373</ele>
        <time>2022-02-15T15:37:02Z</time>
      </trkpt>
      <trkpt lat="46.33946" lon="2.65928">
        <ele>372</ele>
        <time>2022-02-15T15:37:55Z</time>
      </trkpt>
      <trkpt lat="46.33907" lon="2.66063">
        <ele>376</ele>
        <time>2022-02-15T15:38:13Z</time>
      </trkpt>
      <trkpt lat="46.33898" lon="2.66105">
        <ele>376</ele>
        <time>2022-02-15T15:38:19Z</time>
      </trkpt>
      <trkpt lat="46.33888" lon="2.66167">
        <ele>376</ele>
        <time>2022-02-15T15:38:26Z</time>
      </trkpt>
      <trkpt lat="46.33792" lon="2.66847">
        <ele>386</ele>
        <time>2022-02-15T15:39:52Z</time>
      </trkpt>
      <trkpt lat="46.33741" lon="2.67194">
        <ele>389</ele>
        <time>2022-02-15T15:40:35Z</time>
      </trkpt>
      <trkpt lat="46.33769" lon="2.67209">
        <ele>389</ele>
        <time>2022-02-15T15:40:41Z</time>
      </trkpt>
      <trkpt lat="46.33781" lon="2.67223">
        <ele>388</ele>
        <time>2022-02-15T15:40:43Z</time>
      </trkpt>
      <trkpt lat="46.33789" lon="2.6724">
        <ele>388</ele>
        <time>2022-02-15T15:40:46Z</time>
      </trkpt>
      <trkpt lat="46.33801" lon="2.67297">
        <ele>387</ele>
        <time>2022-02-15T15:40:53Z</time>
      </trkpt>
      <trkpt lat="46.33808" lon="2.67321">
        <ele>387</ele>
        <time>2022-02-15T15:40:56Z</time>
      </trkpt>
      <trkpt lat="46.33826" lon="2.67368">
        <ele>387</ele>
        <time>2022-02-15T15:41:03Z</time>
      </trkpt>
      <trkpt lat="46.33845" lon="2.67404">
        <ele>387</ele>
        <time>2022-02-15T15:41:08Z</time>
      </trkpt>
      <trkpt lat="46.33866" lon="2.67437">
        <ele>387</ele>
        <time>2022-02-15T15:41:14Z</time>
      </trkpt>
      <trkpt lat="46.33895" lon="2.67468">
        <ele>387</ele>
        <time>2022-02-15T15:41:20Z</time>
      </trkpt>
      <trkpt lat="46.33923" lon="2.67491">
        <ele>387</ele>
        <time>2022-02-15T15:41:26Z</time>
      </trkpt>
      <trkpt lat="46.33955" lon="2.67509">
        <ele>387</ele>
        <time>2022-02-15T15:41:32Z</time>
      </trkpt>
      <trkpt lat="46.34725" lon="2.67819">
        <ele>389</ele>
        <time>2022-02-15T15:43:54Z</time>
      </trkpt>
      <trkpt lat="46.34744" lon="2.67821">
        <ele>389</ele>
        <time>2022-02-15T15:43:58Z</time>
      </trkpt>
      <trkpt lat="46.34762" lon="2.67814">
        <ele>389</ele>
        <time>2022-02-15T15:44:01Z</time>
      </trkpt>
      <trkpt lat="46.34826" lon="2.67781">
        <ele>388</ele>
        <time>2022-02-15T15:44:13Z</time>
      </trkpt>
      <trkpt lat="46.34859" lon="2.67767">
        <ele>388</ele>
        <time>2022-02-15T15:44:19Z</time>
      </trkpt>
      <trkpt lat="46.34905" lon="2.67752">
        <ele>388</ele>
        <time>2022-02-15T15:44:28Z</time>
      </trkpt>
      <trkpt lat="46.34927" lon="2.67747">
        <ele>388</ele>
        <time>2022-02-15T15:44:32Z</time>
      </trkpt>
      <trkpt lat="46.34959" lon="2.67747">
        <ele>389</ele>
        <time>2022-02-15T15:44:37Z</time>
      </trkpt>
      <trkpt lat="46.35121" lon="2.67804">
        <ele>389</ele>
        <time>2022-02-15T15:45:07Z</time>
      </trkpt>
      <trkpt lat="46.35144" lon="2.67817">
        <ele>389</ele>
        <time>2022-02-15T15:45:11Z</time>
      </trkpt>
      <trkpt lat="46.3516" lon="2.67829">
        <ele>389</ele>
        <time>2022-02-15T15:45:15Z</time>
      </trkpt>
      <trkpt lat="46.35204" lon="2.67873">
        <ele>390</ele>
        <time>2022-02-15T15:45:24Z</time>
      </trkpt>
      <trkpt lat="46.35234" lon="2.67919">
        <ele>391</ele>
        <time>2022-02-15T15:45:32Z</time>
      </trkpt>
      <trkpt lat="46.35249" lon="2.67953">
        <ele>391</ele>
        <time>2022-02-15T15:45:37Z</time>
      </trkpt>
      <trkpt lat="46.35596" lon="2.68877">
        <ele>367</ele>
        <time>2022-02-15T15:47:46Z</time>
      </trkpt>
      <trkpt lat="46.35598" lon="2.68889">
        <ele>366</ele>
        <time>2022-02-15T15:47:48Z</time>
      </trkpt>
      <trkpt lat="46.3561" lon="2.68923">
        <ele>365</ele>
        <time>2022-02-15T15:47:52Z</time>
      </trkpt>
      <trkpt lat="46.35613" lon="2.68936">
        <ele>365</ele>
        <time>2022-02-15T15:47:54Z</time>
      </trkpt>
      <trkpt lat="46.35612" lon="2.6895">
        <ele>364</ele>
        <time>2022-02-15T15:47:56Z</time>
      </trkpt>
      <trkpt lat="46.3561" lon="2.68963">
        <ele>364</ele>
        <time>2022-02-15T15:47:57Z</time>
      </trkpt>
      <trkpt lat="46.35612" lon="2.68976">
        <ele>363</ele>
        <time>2022-02-15T15:47:59Z</time>
      </trkpt>
      <trkpt lat="46.35619" lon="2.68985">
        <ele>363</ele>
        <time>2022-02-15T15:48:01Z</time>
      </trkpt>
      <trkpt lat="46.35627" lon="2.68987">
        <ele>363</ele>
        <time>2022-02-15T15:48:02Z</time>
      </trkpt>
      <trkpt lat="46.35636" lon="2.68999">
        <ele>363</ele>
        <time>2022-02-15T15:48:04Z</time>
      </trkpt>
      <trkpt lat="46.35651" lon="2.69026">
        <ele>363</ele>
        <time>2022-02-15T15:48:09Z</time>
      </trkpt>
      <trkpt lat="46.35666" lon="2.69064">
        <ele>363</ele>
        <time>2022-02-15T15:48:14Z</time>
      </trkpt>
      <trkpt lat="46.35676" lon="2.69101">
        <ele>364</ele>
        <time>2022-02-15T15:48:19Z</time>
      </trkpt>
      <trkpt lat="46.35679" lon="2.69126">
        <ele>364</ele>
        <time>2022-02-15T15:48:22Z</time>
      </trkpt>
      <trkpt lat="46.35689" lon="2.69337">
        <ele>367</ele>
        <time>2022-02-15T15:48:48Z</time>
      </trkpt>
      <trkpt lat="46.35696" lon="2.69401">
        <ele>368</ele>
        <time>2022-02-15T15:48:56Z</time>
      </trkpt>
      <trkpt lat="46.35703" lon="2.69435">
        <ele>368</ele>
        <time>2022-02-15T15:49:00Z</time>
      </trkpt>
      <trkpt lat="46.35726" lon="2.69517">
        <ele>369</ele>
        <time>2022-02-15T15:49:11Z</time>
      </trkpt>
      <trkpt lat="46.35731" lon="2.69544">
        <ele>370</ele>
        <time>2022-02-15T15:49:14Z</time>
      </trkpt>
      <trkpt lat="46.35751" lon="2.69714">
        <ele>371</ele>
        <time>2022-02-15T15:49:36Z</time>
      </trkpt>
      <trkpt lat="46.35765" lon="2.69817">
        <ele>370</ele>
        <time>2022-02-15T15:49:49Z</time>
      </trkpt>
      <trkpt lat="46.35763" lon="2.69833">
        <ele>370</ele>
        <time>2022-02-15T15:49:51Z</time>
      </trkpt>
      <trkpt lat="46.35752" lon="2.69878">
        <ele>368</ele>
        <time>2022-02-15T15:49:56Z</time>
      </trkpt>
      <trkpt lat="46.3575" lon="2.69894">
        <ele>368</ele>
        <time>2022-02-15T15:49:58Z</time>
      </trkpt>
      <trkpt lat="46.3575" lon="2.69908">
        <ele>367</ele>
        <time>2022-02-15T15:50:00Z</time>
      </trkpt>
      <trkpt lat="46.35753" lon="2.69924">
        <ele>367</ele>
        <time>2022-02-15T15:50:02Z</time>
      </trkpt>
      <trkpt lat="46.35776" lon="2.70001">
        <ele>364</ele>
        <time>2022-02-15T15:50:12Z</time>
      </trkpt>
      <trkpt lat="46.35791" lon="2.70042">
        <ele>361</ele>
        <time>2022-02-15T15:50:18Z</time>
      </trkpt>
      <trkpt lat="46.35799" lon="2.70055">
        <ele>361</ele>
        <time>2022-02-15T15:50:20Z</time>
      </trkpt>
      <trkpt lat="46.35836" lon="2.70088">
        <ele>360</ele>
        <time>2022-02-15T15:50:28Z</time>
      </trkpt>
      <trkpt lat="46.35884" lon="2.70127">
        <ele>360</ele>
        <time>2022-02-15T15:50:38Z</time>
      </trkpt>
      <trkpt lat="46.36005" lon="2.70269">
        <ele>362</ele>
        <time>2022-02-15T15:51:06Z</time>
      </trkpt>
      <trkpt lat="46.36044" lon="2.7031">
        <ele>363</ele>
        <time>2022-02-15T15:51:14Z</time>
      </trkpt>
      <trkpt lat="46.36283" lon="2.70519">
        <ele>364</ele>
        <time>2022-02-15T15:52:04Z</time>
      </trkpt>
      <trkpt lat="46.36295" lon="2.70532">
        <ele>363</ele>
        <time>2022-02-15T15:52:06Z</time>
      </trkpt>
      <trkpt lat="46.36301" lon="2.70545">
        <ele>363</ele>
        <time>2022-02-15T15:52:08Z</time>
      </trkpt>
      <trkpt lat="46.36305" lon="2.70593">
        <ele>362</ele>
        <time>2022-02-15T15:52:14Z</time>
      </trkpt>
      <trkpt lat="46.36303" lon="2.70607">
        <ele>363</ele>
        <time>2022-02-15T15:52:16Z</time>
      </trkpt>
      <trkpt lat="46.36297" lon="2.70622">
        <ele>363</ele>
        <time>2022-02-15T15:52:18Z</time>
      </trkpt>
      <trkpt lat="46.3629" lon="2.70631">
        <ele>364</ele>
        <time>2022-02-15T15:52:20Z</time>
      </trkpt>
      <trkpt lat="46.36277" lon="2.70644">
        <ele>364</ele>
        <time>2022-02-15T15:52:23Z</time>
      </trkpt>
      <trkpt lat="46.36155" lon="2.70734">
        <ele>367</ele>
        <time>2022-02-15T15:52:47Z</time>
      </trkpt>
      <trkpt lat="46.36139" lon="2.70749">
        <ele>368</ele>
        <time>2022-02-15T15:52:50Z</time>
      </trkpt>
      <trkpt lat="46.36124" lon="2.7077">
        <ele>368</ele>
        <time>2022-02-15T15:52:54Z</time>
      </trkpt>
      <trkpt lat="46.36116" lon="2.70784">
        <ele>369</ele>
        <time>2022-02-15T15:52:56Z</time>
      </trkpt>
      <trkpt lat="46.36109" lon="2.70806">
        <ele>370</ele>
        <time>2022-02-15T15:52:59Z</time>
      </trkpt>
      <trkpt lat="46.36103" lon="2.7083">
        <ele>371</ele>
        <time>2022-02-15T15:53:02Z</time>
      </trkpt>
      <trkpt lat="46.36101" lon="2.70857">
        <ele>373</ele>
        <time>2022-02-15T15:53:06Z</time>
      </trkpt>
      <trkpt lat="46.36102" lon="2.70885">
        <ele>374</ele>
        <time>2022-02-15T15:53:09Z</time>
      </trkpt>
      <trkpt lat="46.36106" lon="2.70912">
        <ele>376</ele>
        <time>2022-02-15T15:53:13Z</time>
      </trkpt>
      <trkpt lat="46.36168" lon="2.71156">
        <ele>384</ele>
        <time>2022-02-15T15:53:45Z</time>
      </trkpt>
      <trkpt lat="46.36185" lon="2.71213">
        <ele>386</ele>
        <time>2022-02-15T15:53:52Z</time>
      </trkpt>
      <trkpt lat="46.36219" lon="2.713">
        <ele>389</ele>
        <time>2022-02-15T15:54:04Z</time>
      </trkpt>
      <trkpt lat="46.36248" lon="2.71343">
        <ele>390</ele>
        <time>2022-02-15T15:54:12Z</time>
      </trkpt>
      <trkpt lat="46.36294" lon="2.71406">
        <ele>392</ele>
        <time>2022-02-15T15:54:23Z</time>
      </trkpt>
      <trkpt lat="46.36493" lon="2.71658">
        <ele>399</ele>
        <time>2022-02-15T15:55:10Z</time>
      </trkpt>
      <trkpt lat="46.36543" lon="2.71725">
        <ele>398</ele>
        <time>2022-02-15T15:55:22Z</time>
      </trkpt>
      <trkpt lat="46.36756" lon="2.71997">
        <ele>394</ele>
        <time>2022-02-15T15:56:13Z</time>
      </trkpt>
      <trkpt lat="46.36787" lon="2.72041">
        <ele>390</ele>
        <time>2022-02-15T15:56:20Z</time>
      </trkpt>
      <trkpt lat="46.36824" lon="2.72105">
        <ele>386</ele>
        <time>2022-02-15T15:56:31Z</time>
      </trkpt>
      <trkpt lat="46.36916" lon="2.72296">
        <ele>375</ele>
        <time>2022-02-15T15:56:59Z</time>
      </trkpt>
      <trkpt lat="46.36935" lon="2.72355">
        <ele>373</ele>
        <time>2022-02-15T15:57:07Z</time>
      </trkpt>
      <trkpt lat="46.36995" lon="2.72612">
        <ele>367</ele>
        <time>2022-02-15T15:57:41Z</time>
      </trkpt>
      <trkpt lat="46.37018" lon="2.72733">
        <ele>363</ele>
        <time>2022-02-15T15:57:56Z</time>
      </trkpt>
      <trkpt lat="46.37023" lon="2.72783">
        <ele>360</ele>
        <time>2022-02-15T15:58:02Z</time>
      </trkpt>
      <trkpt lat="46.37025" lon="2.72834">
        <ele>357</ele>
        <time>2022-02-15T15:58:08Z</time>
      </trkpt>
      <trkpt lat="46.37025" lon="2.72906">
        <ele>355</ele>
        <time>2022-02-15T15:58:17Z</time>
      </trkpt>
      <trkpt lat="46.37024" lon="2.73324">
        <ele>347</ele>
        <time>2022-02-15T15:59:09Z</time>
      </trkpt>
      <trkpt lat="46.37036" lon="2.7346">
        <ele>344</ele>
        <time>2022-02-15T15:59:25Z</time>
      </trkpt>
      <trkpt lat="46.37055" lon="2.73631">
        <ele>342</ele>
        <time>2022-02-15T15:59:47Z</time>
      </trkpt>
      <trkpt lat="46.37067" lon="2.73767">
        <ele>342</ele>
        <time>2022-02-15T16:00:04Z</time>
      </trkpt>
      <trkpt lat="46.37076" lon="2.73836">
        <ele>344</ele>
        <time>2022-02-15T16:00:12Z</time>
      </trkpt>
      <trkpt lat="46.37119" lon="2.74115">
        <ele>349</ele>
        <time>2022-02-15T16:00:47Z</time>
      </trkpt>
      <trkpt lat="46.37127" lon="2.74176">
        <ele>350</ele>
        <time>2022-02-15T16:00:55Z</time>
      </trkpt>
      <trkpt lat="46.37132" lon="2.74235">
        <ele>352</ele>
        <time>2022-02-15T16:01:02Z</time>
      </trkpt>
      <trkpt lat="46.3713" lon="2.74368">
        <ele>355</ele>
        <time>2022-02-15T16:01:19Z</time>
      </trkpt>
      <trkpt lat="46.3713" lon="2.74427">
        <ele>356</ele>
        <time>2022-02-15T16:01:26Z</time>
      </trkpt>
      <trkpt lat="46.37134" lon="2.74493">
        <ele>358</ele>
        <time>2022-02-15T16:01:34Z</time>
      </trkpt>
      <trkpt lat="46.37143" lon="2.74562">
        <ele>360</ele>
        <time>2022-02-15T16:01:43Z</time>
      </trkpt>
      <trkpt lat="46.37211" lon="2.74964">
        <ele>364</ele>
        <time>2022-02-15T16:02:33Z</time>
      </trkpt>
      <trkpt lat="46.37217" lon="2.75069">
        <ele>365</ele>
        <time>2022-02-15T16:02:46Z</time>
      </trkpt>
      <trkpt lat="46.37222" lon="2.75327">
        <ele>363</ele>
        <time>2022-02-15T16:03:18Z</time>
      </trkpt>
      <trkpt lat="46.37226" lon="2.75403">
        <ele>362</ele>
        <time>2022-02-15T16:03:27Z</time>
      </trkpt>
      <trkpt lat="46.37234" lon="2.75476">
        <ele>362</ele>
        <time>2022-02-15T16:03:36Z</time>
      </trkpt>
      <trkpt lat="46.37248" lon="2.75565">
        <ele>361</ele>
        <time>2022-02-15T16:03:48Z</time>
      </trkpt>
      <trkpt lat="46.37279" lon="2.75684">
        <ele>360</ele>
        <time>2022-02-15T16:04:03Z</time>
      </trkpt>
      <trkpt lat="46.37436" lon="2.76178">
        <ele>342</ele>
        <time>2022-02-15T16:05:10Z</time>
      </trkpt>
      <trkpt lat="46.3746" lon="2.76259">
        <ele>339</ele>
        <time>2022-02-15T16:05:21Z</time>
      </trkpt>
      <trkpt lat="46.37574" lon="2.76689">
        <ele>322</ele>
        <time>2022-02-15T16:06:17Z</time>
      </trkpt>
      <trkpt lat="46.37584" lon="2.76755">
        <ele>320</ele>
        <time>2022-02-15T16:06:26Z</time>
      </trkpt>
      <trkpt lat="46.37608" lon="2.76943">
        <ele>314</ele>
        <time>2022-02-15T16:06:49Z</time>
      </trkpt>
      <trkpt lat="46.37617" lon="2.76987">
        <ele>312</ele>
        <time>2022-02-15T16:06:55Z</time>
      </trkpt>
      <trkpt lat="46.3763" lon="2.77022">
        <ele>311</ele>
        <time>2022-02-15T16:07:00Z</time>
      </trkpt>
      <trkpt lat="46.37645" lon="2.77051">
        <ele>310</ele>
        <time>2022-02-15T16:07:04Z</time>
      </trkpt>
      <trkpt lat="46.37663" lon="2.77078">
        <ele>309</ele>
        <time>2022-02-15T16:07:09Z</time>
      </trkpt>
      <trkpt lat="46.37724" lon="2.77151">
        <ele>306</ele>
        <time>2022-02-15T16:07:23Z</time>
      </trkpt>
      <trkpt lat="46.37744" lon="2.77178">
        <ele>304</ele>
        <time>2022-02-15T16:07:28Z</time>
      </trkpt>
      <trkpt lat="46.37758" lon="2.77202">
        <ele>302</ele>
        <time>2022-02-15T16:07:32Z</time>
      </trkpt>
      <trkpt lat="46.37769" lon="2.7723">
        <ele>301</ele>
        <time>2022-02-15T16:07:35Z</time>
      </trkpt>
      <trkpt lat="46.37807" lon="2.77376">
        <ele>294</ele>
        <time>2022-02-15T16:07:55Z</time>
      </trkpt>
      <trkpt lat="46.37822" lon="2.77418">
        <ele>293</ele>
        <time>2022-02-15T16:08:00Z</time>
      </trkpt>
      <trkpt lat="46.3785" lon="2.77482">
        <ele>291</ele>
        <time>2022-02-15T16:08:10Z</time>
      </trkpt>
      <trkpt lat="46.37881" lon="2.77545">
        <ele>291</ele>
        <time>2022-02-15T16:08:19Z</time>
      </trkpt>
      <trkpt lat="46.3793" lon="2.77637">
        <ele>291</ele>
        <time>2022-02-15T16:08:33Z</time>
      </trkpt>
      <trkpt lat="46.37953" lon="2.77676">
        <ele>292</ele>
        <time>2022-02-15T16:08:40Z</time>
      </trkpt>
      <trkpt lat="46.38028" lon="2.77767">
        <ele>294</ele>
        <time>2022-02-15T16:08:57Z</time>
      </trkpt>
      <trkpt lat="46.38052" lon="2.77791">
        <ele>295</ele>
        <time>2022-02-15T16:09:02Z</time>
      </trkpt>
      <trkpt lat="46.38071" lon="2.77819">
        <ele>296</ele>
        <time>2022-02-15T16:09:07Z</time>
      </trkpt>
      <trkpt lat="46.38091" lon="2.77855">
        <ele>296</ele>
        <time>2022-02-15T16:09:13Z</time>
      </trkpt>
      <trkpt lat="46.3814" lon="2.77978">
        <ele>295</ele>
        <time>2022-02-15T16:09:30Z</time>
      </trkpt>
      <trkpt lat="46.38153" lon="2.78023">
        <ele>294</ele>
        <time>2022-02-15T16:09:36Z</time>
      </trkpt>
      <trkpt lat="46.38176" lon="2.78113">
        <ele>293</ele>
        <time>2022-02-15T16:09:48Z</time>
      </trkpt>
      <trkpt lat="46.38211" lon="2.78175">
        <ele>292</ele>
        <time>2022-02-15T16:09:58Z</time>
      </trkpt>
      <trkpt lat="46.38224" lon="2.78204">
        <ele>292</ele>
        <time>2022-02-15T16:10:02Z</time>
      </trkpt>
      <trkpt lat="46.38366" lon="2.78644">
        <ele>288</ele>
        <time>2022-02-15T16:11:02Z</time>
      </trkpt>
      <trkpt lat="46.38475" lon="2.78965">
        <ele>292</ele>
        <time>2022-02-15T16:11:46Z</time>
      </trkpt>
      <trkpt lat="46.38558" lon="2.79219">
        <ele>286</ele>
        <time>2022-02-15T16:12:20Z</time>
      </trkpt>
      <trkpt lat="46.38871" lon="2.80217">
        <ele>278</ele>
        <time>2022-02-15T16:14:35Z</time>
      </trkpt>
      <trkpt lat="46.39011" lon="2.80673">
        <ele>272</ele>
        <time>2022-02-15T16:15:36Z</time>
      </trkpt>
      <trkpt lat="46.39074" lon="2.80864">
        <ele>269</ele>
        <time>2022-02-15T16:16:02Z</time>
      </trkpt>
      <trkpt lat="46.39173" lon="2.8118">
        <ele>262</ele>
        <time>2022-02-15T16:16:45Z</time>
      </trkpt>
      <trkpt lat="46.39189" lon="2.81236">
        <ele>260</ele>
        <time>2022-02-15T16:16:52Z</time>
      </trkpt>
      <trkpt lat="46.39198" lon="2.81277">
        <ele>258</ele>
        <time>2022-02-15T16:16:57Z</time>
      </trkpt>
      <trkpt lat="46.39208" lon="2.81341">
        <ele>256</ele>
        <time>2022-02-15T16:17:05Z</time>
      </trkpt>
      <trkpt lat="46.39237" lon="2.81581">
        <ele>250</ele>
        <time>2022-02-15T16:17:35Z</time>
      </trkpt>
      <trkpt lat="46.39304" lon="2.82066">
        <ele>244</ele>
        <time>2022-02-15T16:18:36Z</time>
      </trkpt>
      <trkpt lat="46.39308" lon="2.82101">
        <ele>244</ele>
        <time>2022-02-15T16:18:40Z</time>
      </trkpt>
      <trkpt lat="46.39348" lon="2.82412">
        <ele>250</ele>
        <time>2022-02-15T16:19:19Z</time>
      </trkpt>
      <trkpt lat="46.39369" lon="2.8255">
        <ele>253</ele>
        <time>2022-02-15T16:19:36Z</time>
      </trkpt>
      <trkpt lat="46.39382" lon="2.82611">
        <ele>255</ele>
        <time>2022-02-15T16:19:44Z</time>
      </trkpt>
      <trkpt lat="46.39405" lon="2.827">
        <ele>259</ele>
        <time>2022-02-15T16:19:56Z</time>
      </trkpt>
      <trkpt lat="46.3943" lon="2.82773">
        <ele>260</ele>
        <time>2022-02-15T16:20:06Z</time>
      </trkpt>
      <trkpt lat="46.39519" lon="2.83019">
        <ele>259</ele>
        <time>2022-02-15T16:20:40Z</time>
      </trkpt>
      <trkpt lat="46.39569" lon="2.83162">
        <ele>255</ele>
        <time>2022-02-15T16:21:00Z</time>
      </trkpt>
      <trkpt lat="46.39692" lon="2.83522">
        <ele>245</ele>
        <time>2022-02-15T16:21:49Z</time>
      </trkpt>
      <trkpt lat="46.39698" lon="2.83537">
        <ele>245</ele>
        <time>2022-02-15T16:21:51Z</time>
      </trkpt>
      <trkpt lat="46.39717" lon="2.83596">
        <ele>245</ele>
        <time>2022-02-15T16:21:59Z</time>
      </trkpt>
      <trkpt lat="46.39724" lon="2.83624">
        <ele>245</ele>
        <time>2022-02-15T16:22:03Z</time>
      </trkpt>
      <trkpt lat="46.39731" lon="2.83663">
        <ele>247</ele>
        <time>2022-02-15T16:22:08Z</time>
      </trkpt>
      <trkpt lat="46.39761" lon="2.83888">
        <ele>250</ele>
        <time>2022-02-15T16:22:36Z</time>
      </trkpt>
      <trkpt lat="46.39774" lon="2.83999">
        <ele>253</ele>
        <time>2022-02-15T16:22:50Z</time>
      </trkpt>
      <trkpt lat="46.39817" lon="2.84316">
        <ele>258</ele>
        <time>2022-02-15T16:23:29Z</time>
      </trkpt>
      <trkpt lat="46.39824" lon="2.84388">
        <ele>258</ele>
        <time>2022-02-15T16:23:38Z</time>
      </trkpt>
      <trkpt lat="46.39824" lon="2.84436">
        <ele>258</ele>
        <time>2022-02-15T16:23:44Z</time>
      </trkpt>
      <trkpt lat="46.39805" lon="2.84548">
        <ele>259</ele>
        <time>2022-02-15T16:23:58Z</time>
      </trkpt>
      <trkpt lat="46.39734" lon="2.85017">
        <ele>269</ele>
        <time>2022-02-15T16:24:57Z</time>
      </trkpt>
      <trkpt lat="46.39709" lon="2.85183">
        <ele>272</ele>
        <time>2022-02-15T16:25:18Z</time>
      </trkpt>
      <trkpt lat="46.39705" lon="2.85227">
        <ele>273</ele>
        <time>2022-02-15T16:25:24Z</time>
      </trkpt>
      <trkpt lat="46.39699" lon="2.85448">
        <ele>277</ele>
        <time>2022-02-15T16:25:51Z</time>
      </trkpt>
      <trkpt lat="46.39699" lon="2.85512">
        <ele>278</ele>
        <time>2022-02-15T16:25:59Z</time>
      </trkpt>
      <trkpt lat="46.39692" lon="2.85641">
        <ele>279</ele>
        <time>2022-02-15T16:26:14Z</time>
      </trkpt>
      <trkpt lat="46.39679" lon="2.85836">
        <ele>280</ele>
        <time>2022-02-15T16:26:38Z</time>
      </trkpt>
      <trkpt lat="46.39662" lon="2.86152">
        <ele>280</ele>
        <time>2022-02-15T16:27:17Z</time>
      </trkpt>
      <trkpt lat="46.3964" lon="2.8653">
        <ele>274</ele>
        <time>2022-02-15T16:28:04Z</time>
      </trkpt>
      <trkpt lat="46.39633" lon="2.86693">
        <ele>267</ele>
        <time>2022-02-15T16:28:24Z</time>
      </trkpt>
      <trkpt lat="46.39637" lon="2.86732">
        <ele>267</ele>
        <time>2022-02-15T16:28:29Z</time>
      </trkpt>
      <trkpt lat="46.39753" lon="2.87032">
        <ele>254</ele>
        <time>2022-02-15T16:29:11Z</time>
      </trkpt>
      <trkpt lat="46.39756" lon="2.8704">
        <ele>255</ele>
        <time>2022-02-15T16:29:12Z</time>
      </trkpt>
      <trkpt lat="46.39774" lon="2.87088">
        <ele>256</ele>
        <time>2022-02-15T16:29:19Z</time>
      </trkpt>
      <trkpt lat="46.39782" lon="2.8712">
        <ele>258</ele>
        <time>2022-02-15T16:29:23Z</time>
      </trkpt>
      <trkpt lat="46.39783" lon="2.87134">
        <ele>258</ele>
        <time>2022-02-15T16:29:25Z</time>
      </trkpt>
      <trkpt lat="46.39782" lon="2.87183">
        <ele>260</ele>
        <time>2022-02-15T16:29:31Z</time>
      </trkpt>
      <trkpt lat="46.39771" lon="2.87294">
        <ele>264</ele>
        <time>2022-02-15T16:29:44Z</time>
      </trkpt>
      <trkpt lat="46.39764" lon="2.87391">
        <ele>267</ele>
        <time>2022-02-15T16:29:56Z</time>
      </trkpt>
      <trkpt lat="46.39747" lon="2.88369">
        <ele>297</ele>
        <time>2022-02-15T16:31:56Z</time>
      </trkpt>
      <trkpt lat="46.39749" lon="2.88453">
        <ele>300</ele>
        <time>2022-02-15T16:32:07Z</time>
      </trkpt>
      <trkpt lat="46.39759" lon="2.88558">
        <ele>302</ele>
        <time>2022-02-15T16:32:20Z</time>
      </trkpt>
      <trkpt lat="46.39791" lon="2.88785">
        <ele>306</ele>
        <time>2022-02-15T16:32:48Z</time>
      </trkpt>
      <trkpt lat="46.39805" lon="2.8884">
        <ele>307</ele>
        <time>2022-02-15T16:32:55Z</time>
      </trkpt>
      <trkpt lat="46.39826" lon="2.88901">
        <ele>308</ele>
        <time>2022-02-15T16:33:04Z</time>
      </trkpt>
      <trkpt lat="46.39838" lon="2.88928">
        <ele>308</ele>
        <time>2022-02-15T16:33:08Z</time>
      </trkpt>
      <trkpt lat="46.39982" lon="2.89186">
        <ele>309</ele>
        <time>2022-02-15T16:33:48Z</time>
      </trkpt>
      <trkpt lat="46.40009" lon="2.89231">
        <ele>309</ele>
        <time>2022-02-15T16:33:56Z</time>
      </trkpt>
      <trkpt lat="46.40025" lon="2.8925">
        <ele>308</ele>
        <time>2022-02-15T16:33:59Z</time>
      </trkpt>
      <trkpt lat="46.40041" lon="2.89264">
        <ele>308</ele>
        <time>2022-02-15T16:34:03Z</time>
      </trkpt>
      <trkpt lat="46.40264" lon="2.89433">
        <ele>308</ele>
        <time>2022-02-15T16:34:48Z</time>
      </trkpt>
      <trkpt lat="46.40276" lon="2.89447">
        <ele>308</ele>
        <time>2022-02-15T16:34:50Z</time>
      </trkpt>
      <trkpt lat="46.40287" lon="2.89464">
        <ele>309</ele>
        <time>2022-02-15T16:34:53Z</time>
      </trkpt>
      <trkpt lat="46.40297" lon="2.89484">
        <ele>309</ele>
        <time>2022-02-15T16:34:56Z</time>
      </trkpt>
      <trkpt lat="46.40466" lon="2.89993">
        <ele>308</ele>
        <time>2022-02-15T16:36:05Z</time>
      </trkpt>
      <trkpt lat="46.40473" lon="2.9002">
        <ele>308</ele>
        <time>2022-02-15T16:36:09Z</time>
      </trkpt>
      <trkpt lat="46.4048" lon="2.90072">
        <ele>308</ele>
        <time>2022-02-15T16:36:16Z</time>
      </trkpt>
      <trkpt lat="46.40493" lon="2.90313">
        <ele>309</ele>
        <time>2022-02-15T16:36:45Z</time>
      </trkpt>
      <trkpt lat="46.40496" lon="2.90347">
        <ele>309</ele>
        <time>2022-02-15T16:36:49Z</time>
      </trkpt>
      <trkpt lat="46.40501" lon="2.90382">
        <ele>308</ele>
        <time>2022-02-15T16:36:54Z</time>
      </trkpt>
      <trkpt lat="46.406" lon="2.90897">
        <ele>307</ele>
        <time>2022-02-15T16:37:59Z</time>
      </trkpt>
      <trkpt lat="46.40604" lon="2.90929">
        <ele>306</ele>
        <time>2022-02-15T16:38:03Z</time>
      </trkpt>
      <trkpt lat="46.40604" lon="2.90951">
        <ele>306</ele>
        <time>2022-02-15T16:38:06Z</time>
      </trkpt>
      <trkpt lat="46.40595" lon="2.90996">
        <ele>306</ele>
        <time>2022-02-15T16:38:12Z</time>
      </trkpt>
      <trkpt lat="46.40585" lon="2.91021">
        <ele>307</ele>
        <time>2022-02-15T16:38:15Z</time>
      </trkpt>
      <trkpt lat="46.40563" lon="2.91061">
        <ele>308</ele>
        <time>2022-02-15T16:38:22Z</time>
      </trkpt>
      <trkpt lat="46.4055" lon="2.91089">
        <ele>309</ele>
        <time>2022-02-15T16:38:26Z</time>
      </trkpt>
      <trkpt lat="46.4054" lon="2.91118">
        <ele>311</ele>
        <time>2022-02-15T16:38:30Z</time>
      </trkpt>
      <trkpt lat="46.40533" lon="2.91167">
        <ele>313</ele>
        <time>2022-02-15T16:38:36Z</time>
      </trkpt>
      <trkpt lat="46.40528" lon="2.9123">
        <ele>315</ele>
        <time>2022-02-15T16:38:44Z</time>
      </trkpt>
      <trkpt lat="46.40517" lon="2.91293">
        <ele>317</ele>
        <time>2022-02-15T16:38:52Z</time>
      </trkpt>
      <trkpt lat="46.40507" lon="2.91335">
        <ele>318</ele>
        <time>2022-02-15T16:38:57Z</time>
      </trkpt>
      <trkpt lat="46.40492" lon="2.91379">
        <ele>319</ele>
        <time>2022-02-15T16:39:03Z</time>
      </trkpt>
      <trkpt lat="46.40378" lon="2.9165">
        <ele>328</ele>
        <time>2022-02-15T16:39:42Z</time>
      </trkpt>
      <trkpt lat="46.40361" lon="2.91702">
        <ele>329</ele>
        <time>2022-02-15T16:39:49Z</time>
      </trkpt>
      <trkpt lat="46.40346" lon="2.91758">
        <ele>330</ele>
        <time>2022-02-15T16:39:57Z</time>
      </trkpt>
      <trkpt lat="46.40341" lon="2.91788">
        <ele>330</ele>
        <time>2022-02-15T16:40:00Z</time>
      </trkpt>
      <trkpt lat="46.40334" lon="2.9184">
        <ele>330</ele>
        <time>2022-02-15T16:40:07Z</time>
      </trkpt>
      <trkpt lat="46.4033" lon="2.9189">
        <ele>331</ele>
        <time>2022-02-15T16:40:13Z</time>
      </trkpt>
      <trkpt lat="46.40329" lon="2.91938">
        <ele>332</ele>
        <time>2022-02-15T16:40:19Z</time>
      </trkpt>
      <trkpt lat="46.40329" lon="2.91981">
        <ele>333</ele>
        <time>2022-02-15T16:40:24Z</time>
      </trkpt>
      <trkpt lat="46.40332" lon="2.92036">
        <ele>333</ele>
        <time>2022-02-15T16:40:31Z</time>
      </trkpt>
      <trkpt lat="46.40418" lon="2.92858">
        <ele>343</ele>
        <time>2022-02-15T16:42:13Z</time>
      </trkpt>
      <trkpt lat="46.40421" lon="2.92896">
        <ele>343</ele>
        <time>2022-02-15T16:42:18Z</time>
      </trkpt>
      <trkpt lat="46.40421" lon="2.92926">
        <ele>344</ele>
        <time>2022-02-15T16:42:21Z</time>
      </trkpt>
      <trkpt lat="46.40419" lon="2.92956">
        <ele>344</ele>
        <time>2022-02-15T16:42:25Z</time>
      </trkpt>
      <trkpt lat="46.40409" lon="2.93011">
        <ele>345</ele>
        <time>2022-02-15T16:42:32Z</time>
      </trkpt>
      <trkpt lat="46.40385" lon="2.9312">
        <ele>346</ele>
        <time>2022-02-15T16:42:46Z</time>
      </trkpt>
      <trkpt lat="46.40304" lon="2.93456">
        <ele>347</ele>
        <time>2022-02-15T16:43:30Z</time>
      </trkpt>
      <trkpt lat="46.40289" lon="2.93522">
        <ele>347</ele>
        <time>2022-02-15T16:43:38Z</time>
      </trkpt>
      <trkpt lat="46.40284" lon="2.93558">
        <ele>348</ele>
        <time>2022-02-15T16:43:43Z</time>
      </trkpt>
      <trkpt lat="46.40275" lon="2.93856">
        <ele>353</ele>
        <time>2022-02-15T16:44:19Z</time>
      </trkpt>
      <trkpt lat="46.40274" lon="2.93908">
        <ele>354</ele>
        <time>2022-02-15T16:44:26Z</time>
      </trkpt>
      <trkpt lat="46.40276" lon="2.93951">
        <ele>355</ele>
        <time>2022-02-15T16:44:31Z</time>
      </trkpt>
      <trkpt lat="46.4028" lon="2.93979">
        <ele>355</ele>
        <time>2022-02-15T16:44:34Z</time>
      </trkpt>
      <trkpt lat="46.40287" lon="2.94027">
        <ele>354</ele>
        <time>2022-02-15T16:44:41Z</time>
      </trkpt>
      <trkpt lat="46.40307" lon="2.94139">
        <ele>352</ele>
        <time>2022-02-15T16:44:55Z</time>
      </trkpt>
      <trkpt lat="46.40318" lon="2.94207">
        <ele>351</ele>
        <time>2022-02-15T16:45:03Z</time>
      </trkpt>
      <trkpt lat="46.40324" lon="2.94277">
        <ele>351</ele>
        <time>2022-02-15T16:45:12Z</time>
      </trkpt>
      <trkpt lat="46.40324" lon="2.9431">
        <ele>353</ele>
        <time>2022-02-15T16:45:16Z</time>
      </trkpt>
      <trkpt lat="46.40321" lon="2.94363">
        <ele>354</ele>
        <time>2022-02-15T16:45:22Z</time>
      </trkpt>
      <trkpt lat="46.40317" lon="2.94402">
        <ele>355</ele>
        <time>2022-02-15T16:45:27Z</time>
      </trkpt>
      <trkpt lat="46.403" lon="2.94486">
        <ele>356</ele>
        <time>2022-02-15T16:45:38Z</time>
      </trkpt>
      <trkpt lat="46.40236" lon="2.94735">
        <ele>357</ele>
        <time>2022-02-15T16:46:11Z</time>
      </trkpt>
      <trkpt lat="46.40227" lon="2.94787">
        <ele>358</ele>
        <time>2022-02-15T16:46:17Z</time>
      </trkpt>
      <trkpt lat="46.40226" lon="2.94821">
        <ele>358</ele>
        <time>2022-02-15T16:46:21Z</time>
      </trkpt>
      <trkpt lat="46.40228" lon="2.94849">
        <ele>358</ele>
        <time>2022-02-15T16:46:25Z</time>
      </trkpt>
      <trkpt lat="46.40247" lon="2.95012">
        <ele>359</ele>
        <time>2022-02-15T16:46:45Z</time>
      </trkpt>
      <trkpt lat="46.40255" lon="2.95084">
        <ele>360</ele>
        <time>2022-02-15T16:46:54Z</time>
      </trkpt>
      <trkpt lat="46.40256" lon="2.95115">
        <ele>359</ele>
        <time>2022-02-15T16:46:58Z</time>
      </trkpt>
      <trkpt lat="46.40255" lon="2.95146">
        <ele>358</ele>
        <time>2022-02-15T16:47:02Z</time>
      </trkpt>
      <trkpt lat="46.40239" lon="2.95224">
        <ele>359</ele>
        <time>2022-02-15T16:47:12Z</time>
      </trkpt>
      <trkpt lat="46.40223" lon="2.9532">
        <ele>360</ele>
        <time>2022-02-15T16:47:24Z</time>
      </trkpt>
      <trkpt lat="46.40219" lon="2.95358">
        <ele>361</ele>
        <time>2022-02-15T16:47:29Z</time>
      </trkpt>
      <trkpt lat="46.40218" lon="2.9539">
        <ele>362</ele>
        <time>2022-02-15T16:47:32Z</time>
      </trkpt>
      <trkpt lat="46.40221" lon="2.95428">
        <ele>364</ele>
        <time>2022-02-15T16:47:37Z</time>
      </trkpt>
      <trkpt lat="46.40229" lon="2.95462">
        <ele>365</ele>
        <time>2022-02-15T16:47:42Z</time>
      </trkpt>
      <trkpt lat="46.4044" lon="2.96176">
        <ele>383</ele>
        <time>2022-02-15T16:49:17Z</time>
      </trkpt>
      <trkpt lat="46.40451" lon="2.96219">
        <ele>385</ele>
        <time>2022-02-15T16:49:23Z</time>
      </trkpt>
      <trkpt lat="46.40465" lon="2.96315">
        <ele>387</ele>
        <time>2022-02-15T16:49:35Z</time>
      </trkpt>
      <trkpt lat="46.40486" lon="2.96521">
        <ele>390</ele>
        <time>2022-02-15T16:50:00Z</time>
      </trkpt>
      <trkpt lat="46.40488" lon="2.96574">
        <ele>391</ele>
        <time>2022-02-15T16:50:07Z</time>
      </trkpt>
      <trkpt lat="46.40488" lon="2.96617">
        <ele>392</ele>
        <time>2022-02-15T16:50:12Z</time>
      </trkpt>
      <trkpt lat="46.40486" lon="2.96661">
        <ele>393</ele>
        <time>2022-02-15T16:50:17Z</time>
      </trkpt>
      <trkpt lat="46.40472" lon="2.96761">
        <ele>394</ele>
        <time>2022-02-15T16:50:30Z</time>
      </trkpt>
      <trkpt lat="46.40327" lon="2.97523">
        <ele>406</ele>
        <time>2022-02-15T16:52:07Z</time>
      </trkpt>
      <trkpt lat="46.40319" lon="2.97577">
        <ele>407</ele>
        <time>2022-02-15T16:52:14Z</time>
      </trkpt>
      <trkpt lat="46.40315" lon="2.97639">
        <ele>409</ele>
        <time>2022-02-15T16:52:21Z</time>
      </trkpt>
      <trkpt lat="46.40317" lon="2.98411">
        <ele>404</ele>
        <time>2022-02-15T16:53:56Z</time>
      </trkpt>
      <trkpt lat="46.40226" lon="2.98379">
        <ele>407</ele>
        <time>2022-02-15T16:54:13Z</time>
      </trkpt>
      <trkpt lat="46.40215" lon="2.98372">
        <ele>407</ele>
        <time>2022-02-15T16:54:15Z</time>
      </trkpt>
      <trkpt lat="46.40207" lon="2.98363">
        <ele>407</ele>
        <time>2022-02-15T16:54:17Z</time>
      </trkpt>
      <trkpt lat="46.40199" lon="2.98349">
        <ele>407</ele>
        <time>2022-02-15T16:54:19Z</time>
      </trkpt>
      <trkpt lat="46.40171" lon="2.9827">
        <ele>410</ele>
        <time>2022-02-15T16:54:30Z</time>
      </trkpt>
      <trkpt lat="46.40162" lon="2.9825">
        <ele>411</ele>
        <time>2022-02-15T16:54:33Z</time>
      </trkpt>
      <trkpt lat="46.40148" lon="2.98226">
        <ele>412</ele>
        <time>2022-02-15T16:54:36Z</time>
      </trkpt>
      <trkpt lat="46.40134" lon="2.9821">
        <ele>412</ele>
        <time>2022-02-15T16:54:40Z</time>
      </trkpt>
      <trkpt lat="46.40049" lon="2.98138">
        <ele>415</ele>
        <time>2022-02-15T16:54:57Z</time>
      </trkpt>
      <trkpt lat="46.40001" lon="2.98101">
        <ele>417</ele>
        <time>2022-02-15T16:55:07Z</time>
      </trkpt>
      <trkpt lat="46.3998" lon="2.9809">
        <ele>417</ele>
        <time>2022-02-15T16:55:11Z</time>
      </trkpt>
      <trkpt lat="46.39971" lon="2.98088">
        <ele>418</ele>
        <time>2022-02-15T16:55:12Z</time>
      </trkpt>
      <trkpt lat="46.39953" lon="2.98097">
        <ele>418</ele>
        <time>2022-02-15T16:55:16Z</time>
      </trkpt>
      <trkpt lat="46.39944" lon="2.98107">
        <ele>418</ele>
        <time>2022-02-15T16:55:18Z</time>
      </trkpt>
      <trkpt lat="46.39842" lon="2.98284">
        <ele>415</ele>
        <time>2022-02-15T16:55:46Z</time>
      </trkpt>
      <trkpt lat="46.39828" lon="2.98319">
        <ele>414</ele>
        <time>2022-02-15T16:55:51Z</time>
      </trkpt>
      <trkpt lat="46.39823" lon="2.98343">
        <ele>414</ele>
        <time>2022-02-15T16:55:54Z</time>
      </trkpt>
      <trkpt lat="46.3981" lon="2.98452">
        <ele>411</ele>
        <time>2022-02-15T16:56:08Z</time>
      </trkpt>
      <trkpt lat="46.39806" lon="2.98476">
        <ele>411</ele>
        <time>2022-02-15T16:56:11Z</time>
      </trkpt>
      <trkpt lat="46.39801" lon="2.98494">
        <ele>411</ele>
        <time>2022-02-15T16:56:13Z</time>
      </trkpt>
      <trkpt lat="46.39777" lon="2.98557">
        <ele>410</ele>
        <time>2022-02-15T16:56:22Z</time>
      </trkpt>
      <trkpt lat="46.39752" lon="2.98614">
        <ele>411</ele>
        <time>2022-02-15T16:56:30Z</time>
      </trkpt>
      <trkpt lat="46.3974" lon="2.9863">
        <ele>412</ele>
        <time>2022-02-15T16:56:33Z</time>
      </trkpt>
      <trkpt lat="46.39727" lon="2.98644">
        <ele>412</ele>
        <time>2022-02-15T16:56:36Z</time>
      </trkpt>
      <trkpt lat="46.3957" lon="2.98729">
        <ele>414</ele>
        <time>2022-02-15T16:57:06Z</time>
      </trkpt>
      <trkpt lat="46.39548" lon="2.98747">
        <ele>414</ele>
        <time>2022-02-15T16:57:10Z</time>
      </trkpt>
      <trkpt lat="46.39536" lon="2.98759">
        <ele>414</ele>
        <time>2022-02-15T16:57:13Z</time>
      </trkpt>
      <trkpt lat="46.39523" lon="2.98779">
        <ele>414</ele>
        <time>2022-02-15T16:57:16Z</time>
      </trkpt>
      <trkpt lat="46.39378" lon="2.99054">
        <ele>417</ele>
        <time>2022-02-15T16:57:59Z</time>
      </trkpt>
      <trkpt lat="46.39239" lon="2.99358">
        <ele>428</ele>
        <time>2022-02-15T16:58:44Z</time>
      </trkpt>
      <trkpt lat="46.39091" lon="2.99763">
        <ele>429</ele>
        <time>2022-02-15T16:59:40Z</time>
      </trkpt>
      <trkpt lat="46.39037" lon="2.9994">
        <ele>426</ele>
        <time>2022-02-15T17:00:04Z</time>
      </trkpt>
      <trkpt lat="46.39029" lon="2.99991">
        <ele>425</ele>
        <time>2022-02-15T17:00:10Z</time>
      </trkpt>
      <trkpt lat="46.39036" lon="3.00123">
        <ele>424</ele>
        <time>2022-02-15T17:00:26Z</time>
      </trkpt>
      <trkpt lat="46.39031" lon="3.00168">
        <ele>425</ele>
        <time>2022-02-15T17:00:32Z</time>
      </trkpt>
      <trkpt lat="46.38899" lon="3.00945">
        <ele>430</ele>
        <time>2022-02-15T17:02:10Z</time>
      </trkpt>
      <trkpt lat="46.38893" lon="3.00972">
        <ele>430</ele>
        <time>2022-02-15T17:02:14Z</time>
      </trkpt>
      <trkpt lat="46.38821" lon="3.0123">
        <ele>432</ele>
        <time>2022-02-15T17:02:48Z</time>
      </trkpt>
      <trkpt lat="46.38813" lon="3.01252">
        <ele>432</ele>
        <time>2022-02-15T17:02:51Z</time>
      </trkpt>
      <trkpt lat="46.38519" lon="3.01904">
        <ele>460</ele>
        <time>2022-02-15T17:04:26Z</time>
      </trkpt>
      <trkpt lat="46.38511" lon="3.01929">
        <ele>460</ele>
        <time>2022-02-15T17:04:30Z</time>
      </trkpt>
      <trkpt lat="46.38505" lon="3.01957">
        <ele>461</ele>
        <time>2022-02-15T17:04:33Z</time>
      </trkpt>
      <trkpt lat="46.38492" lon="3.02062">
        <ele>463</ele>
        <time>2022-02-15T17:04:46Z</time>
      </trkpt>
      <trkpt lat="46.38439" lon="3.02281">
        <ele>464</ele>
        <time>2022-02-15T17:05:15Z</time>
      </trkpt>
      <trkpt lat="46.38433" lon="3.02326">
        <ele>464</ele>
        <time>2022-02-15T17:05:21Z</time>
      </trkpt>
      <trkpt lat="46.38412" lon="3.02619">
        <ele>465</ele>
        <time>2022-02-15T17:05:57Z</time>
      </trkpt>
      <trkpt lat="46.38406" lon="3.02647">
        <ele>465</ele>
        <time>2022-02-15T17:06:00Z</time>
      </trkpt>
      <trkpt lat="46.38382" lon="3.02734">
        <ele>467</ele>
        <time>2022-02-15T17:06:12Z</time>
      </trkpt>
      <trkpt lat="46.38359" lon="3.02935">
        <ele>469</ele>
        <time>2022-02-15T17:06:37Z</time>
      </trkpt>
      <trkpt lat="46.38333" lon="3.03116">
        <ele>470</ele>
        <time>2022-02-15T17:06:59Z</time>
      </trkpt>
      <trkpt lat="46.38325" lon="3.03172">
        <ele>472</ele>
        <time>2022-02-15T17:07:07Z</time>
      </trkpt>
      <trkpt lat="46.38319" lon="3.03216">
        <ele>473</ele>
        <time>2022-02-15T17:07:12Z</time>
      </trkpt>
      <trkpt lat="46.38314" lon="3.03236">
        <ele>474</ele>
        <time>2022-02-15T17:07:15Z</time>
      </trkpt>
      <trkpt lat="46.38305" lon="3.03265">
        <ele>475</ele>
        <time>2022-02-15T17:07:19Z</time>
      </trkpt>
      <trkpt lat="46.38292" lon="3.03292">
        <ele>475</ele>
        <time>2022-02-15T17:07:23Z</time>
      </trkpt>
      <trkpt lat="46.38276" lon="3.03318">
        <ele>475</ele>
        <time>2022-02-15T17:07:27Z</time>
      </trkpt>
      <trkpt lat="46.38153" lon="3.0346">
        <ele>468</ele>
        <time>2022-02-15T17:07:55Z</time>
      </trkpt>
      <trkpt lat="46.38138" lon="3.03489">
        <ele>468</ele>
        <time>2022-02-15T17:07:59Z</time>
      </trkpt>
      <trkpt lat="46.38114" lon="3.03545">
        <ele>467</ele>
        <time>2022-02-15T17:08:07Z</time>
      </trkpt>
      <trkpt lat="46.38108" lon="3.03567">
        <ele>467</ele>
        <time>2022-02-15T17:08:10Z</time>
      </trkpt>
      <trkpt lat="46.38103" lon="3.03581">
        <ele>466</ele>
        <time>2022-02-15T17:08:12Z</time>
      </trkpt>
      <trkpt lat="46.38047" lon="3.03687">
        <ele>461</ele>
        <time>2022-02-15T17:08:29Z</time>
      </trkpt>
      <trkpt lat="46.38029" lon="3.03734">
        <ele>460</ele>
        <time>2022-02-15T17:08:35Z</time>
      </trkpt>
      <trkpt lat="46.37988" lon="3.03916">
        <ele>459</ele>
        <time>2022-02-15T17:08:59Z</time>
      </trkpt>
      <trkpt lat="46.37983" lon="3.03947">
        <ele>460</ele>
        <time>2022-02-15T17:09:03Z</time>
      </trkpt>
      <trkpt lat="46.37979" lon="3.04005">
        <ele>461</ele>
        <time>2022-02-15T17:09:10Z</time>
      </trkpt>
      <trkpt lat="46.37974" lon="3.04044">
        <ele>461</ele>
        <time>2022-02-15T17:09:15Z</time>
      </trkpt>
      <trkpt lat="46.37967" lon="3.04079">
        <ele>462</ele>
        <time>2022-02-15T17:09:19Z</time>
      </trkpt>
      <trkpt lat="46.3796" lon="3.04104">
        <ele>461</ele>
        <time>2022-02-15T17:09:22Z</time>
      </trkpt>
      <trkpt lat="46.3795" lon="3.0413">
        <ele>461</ele>
        <time>2022-02-15T17:09:26Z</time>
      </trkpt>
      <trkpt lat="46.37878" lon="3.04271">
        <ele>459</ele>
        <time>2022-02-15T17:09:48Z</time>
      </trkpt>
      <trkpt lat="46.37839" lon="3.04348">
        <ele>456</ele>
        <time>2022-02-15T17:09:59Z</time>
      </trkpt>
      <trkpt lat="46.3783" lon="3.0437">
        <ele>454</ele>
        <time>2022-02-15T17:10:02Z</time>
      </trkpt>
      <trkpt lat="46.37824" lon="3.04391">
        <ele>453</ele>
        <time>2022-02-15T17:10:05Z</time>
      </trkpt>
      <trkpt lat="46.37809" lon="3.04461">
        <ele>450</ele>
        <time>2022-02-15T17:10:14Z</time>
      </trkpt>
      <trkpt lat="46.37797" lon="3.04507">
        <ele>449</ele>
        <time>2022-02-15T17:10:20Z</time>
      </trkpt>
      <trkpt lat="46.37788" lon="3.04532">
        <ele>448</ele>
        <time>2022-02-15T17:10:24Z</time>
      </trkpt>
      <trkpt lat="46.37775" lon="3.04555">
        <ele>447</ele>
        <time>2022-02-15T17:10:27Z</time>
      </trkpt>
      <trkpt lat="46.37741" lon="3.04603">
        <ele>444</ele>
        <time>2022-02-15T17:10:36Z</time>
      </trkpt>
      <trkpt lat="46.37715" lon="3.04631">
        <ele>442</ele>
        <time>2022-02-15T17:10:42Z</time>
      </trkpt>
      <trkpt lat="46.37589" lon="3.04751">
        <ele>434</ele>
        <time>2022-02-15T17:11:08Z</time>
      </trkpt>
      <trkpt lat="46.37575" lon="3.04769">
        <ele>434</ele>
        <time>2022-02-15T17:11:12Z</time>
      </trkpt>
      <trkpt lat="46.37569" lon="3.04778">
        <ele>434</ele>
        <time>2022-02-15T17:11:13Z</time>
      </trkpt>
      <trkpt lat="46.37551" lon="3.04803">
        <ele>433</ele>
        <time>2022-02-15T17:11:18Z</time>
      </trkpt>
      <trkpt lat="46.3746" lon="3.04944">
        <ele>435</ele>
        <time>2022-02-15T17:11:41Z</time>
      </trkpt>
      <trkpt lat="46.37395" lon="3.05084">
        <ele>431</ele>
        <time>2022-02-15T17:12:02Z</time>
      </trkpt>
      <trkpt lat="46.37367" lon="3.0516">
        <ele>427</ele>
        <time>2022-02-15T17:12:13Z</time>
      </trkpt>
      <trkpt lat="46.37322" lon="3.05328">
        <ele>424</ele>
        <time>2022-02-15T17:12:35Z</time>
      </trkpt>
      <trkpt lat="46.37281" lon="3.05436">
        <ele>423</ele>
        <time>2022-02-15T17:12:50Z</time>
      </trkpt>
      <trkpt lat="46.37277" lon="3.05446">
        <ele>423</ele>
        <time>2022-02-15T17:12:51Z</time>
      </trkpt>
      <trkpt lat="46.37242" lon="3.0554">
        <ele>421</ele>
        <time>2022-02-15T17:13:05Z</time>
      </trkpt>
      <trkpt lat="46.37225" lon="3.05578">
        <ele>422</ele>
        <time>2022-02-15T17:13:10Z</time>
      </trkpt>
      <trkpt lat="46.37208" lon="3.05611">
        <ele>423</ele>
        <time>2022-02-15T17:13:15Z</time>
      </trkpt>
      <trkpt lat="46.37146" lon="3.05706">
        <ele>426</ele>
        <time>2022-02-15T17:13:31Z</time>
      </trkpt>
      <trkpt lat="46.3713" lon="3.05734">
        <ele>426</ele>
        <time>2022-02-15T17:13:36Z</time>
      </trkpt>
      <trkpt lat="46.37116" lon="3.05769">
        <ele>425</ele>
        <time>2022-02-15T17:13:41Z</time>
      </trkpt>
      <trkpt lat="46.37107" lon="3.05802">
        <ele>425</ele>
        <time>2022-02-15T17:13:45Z</time>
      </trkpt>
      <trkpt lat="46.37064" lon="3.06026">
        <ele>420</ele>
        <time>2022-02-15T17:14:14Z</time>
      </trkpt>
      <trkpt lat="46.37051" lon="3.0607">
        <ele>419</ele>
        <time>2022-02-15T17:14:19Z</time>
      </trkpt>
      <trkpt lat="46.37032" lon="3.06125">
        <ele>418</ele>
        <time>2022-02-15T17:14:27Z</time>
      </trkpt>
      <trkpt lat="46.36989" lon="3.06233">
        <ele>416</ele>
        <time>2022-02-15T17:14:42Z</time>
      </trkpt>
      <trkpt lat="46.36975" lon="3.06259">
        <ele>416</ele>
        <time>2022-02-15T17:14:46Z</time>
      </trkpt>
      <trkpt lat="46.3696" lon="3.06279">
        <ele>416</ele>
        <time>2022-02-15T17:14:50Z</time>
      </trkpt>
      <trkpt lat="46.36961" lon="3.06283">
        <ele>416</ele>
        <time>2022-02-15T17:14:50Z</time>
      </trkpt>
      <trkpt lat="46.36961" lon="3.06305">
        <ele>416</ele>
        <time>2022-02-15T17:14:53Z</time>
      </trkpt>
      <trkpt lat="46.36912" lon="3.06556">
        <ele>420</ele>
        <time>2022-02-15T17:15:25Z</time>
      </trkpt>
      <trkpt lat="46.36913" lon="3.06594">
        <ele>420</ele>
        <time>2022-02-15T17:15:30Z</time>
      </trkpt>
      <trkpt lat="46.36934" lon="3.06804">
        <ele>418</ele>
        <time>2022-02-15T17:15:56Z</time>
      </trkpt>
      <trkpt lat="46.36935" lon="3.06835">
        <ele>418</ele>
        <time>2022-02-15T17:16:00Z</time>
      </trkpt>
      <trkpt lat="46.36923" lon="3.0698">
        <ele>416</ele>
        <time>2022-02-15T17:16:18Z</time>
      </trkpt>
      <trkpt lat="46.36904" lon="3.07074">
        <ele>414</ele>
        <time>2022-02-15T17:16:30Z</time>
      </trkpt>
      <trkpt lat="46.36834" lon="3.0724">
        <ele>409</ele>
        <time>2022-02-15T17:16:54Z</time>
      </trkpt>
      <trkpt lat="46.36814" lon="3.0729">
        <ele>410</ele>
        <time>2022-02-15T17:17:01Z</time>
      </trkpt>
      <trkpt lat="46.36807" lon="3.07314">
        <ele>410</ele>
        <time>2022-02-15T17:17:04Z</time>
      </trkpt>
      <trkpt lat="46.36804" lon="3.07326">
        <ele>410</ele>
        <time>2022-02-15T17:17:05Z</time>
      </trkpt>
      <trkpt lat="46.36797" lon="3.07354">
        <ele>411</ele>
        <time>2022-02-15T17:17:09Z</time>
      </trkpt>
      <trkpt lat="46.36776" lon="3.0742">
        <ele>415</ele>
        <time>2022-02-15T17:17:18Z</time>
      </trkpt>
      <trkpt lat="46.3669" lon="3.07573">
        <ele>419</ele>
        <time>2022-02-15T17:17:42Z</time>
      </trkpt>
      <trkpt lat="46.36637" lon="3.07652">
        <ele>420</ele>
        <time>2022-02-15T17:17:56Z</time>
      </trkpt>
      <trkpt lat="46.36553" lon="3.07825">
        <ele>429</ele>
        <time>2022-02-15T17:18:22Z</time>
      </trkpt>
      <trkpt lat="46.3653" lon="3.07887">
        <ele>431</ele>
        <time>2022-02-15T17:18:30Z</time>
      </trkpt>
      <trkpt lat="46.36514" lon="3.07999">
        <ele>436</ele>
        <time>2022-02-15T17:18:44Z</time>
      </trkpt>
      <trkpt lat="46.36508" lon="3.08228">
        <ele>438</ele>
        <time>2022-02-15T17:19:13Z</time>
      </trkpt>
      <trkpt lat="46.36503" lon="3.08258">
        <ele>438</ele>
        <time>2022-02-15T17:19:16Z</time>
      </trkpt>
      <trkpt lat="46.36469" lon="3.08372">
        <ele>436</ele>
        <time>2022-02-15T17:19:32Z</time>
      </trkpt>
      <trkpt lat="46.36448" lon="3.08415">
        <ele>435</ele>
        <time>2022-02-15T17:19:38Z</time>
      </trkpt>
      <trkpt lat="46.3639" lon="3.08491">
        <ele>431</ele>
        <time>2022-02-15T17:19:52Z</time>
      </trkpt>
      <trkpt lat="46.36378" lon="3.08517">
        <ele>430</ele>
        <time>2022-02-15T17:19:56Z</time>
      </trkpt>
      <trkpt lat="46.36372" lon="3.08549">
        <ele>430</ele>
        <time>2022-02-15T17:20:00Z</time>
      </trkpt>
      <trkpt lat="46.36363" lon="3.08873">
        <ele>430</ele>
        <time>2022-02-15T17:20:40Z</time>
      </trkpt>
      <trkpt lat="46.36346" lon="3.08959">
        <ele>431</ele>
        <time>2022-02-15T17:20:51Z</time>
      </trkpt>
      <trkpt lat="46.36345" lon="3.08968">
        <ele>431</ele>
        <time>2022-02-15T17:20:52Z</time>
      </trkpt>
      <trkpt lat="46.36259" lon="3.09395">
        <ele>447</ele>
        <time>2022-02-15T17:21:46Z</time>
      </trkpt>
      <trkpt lat="46.36254" lon="3.09427">
        <ele>448</ele>
        <time>2022-02-15T17:21:50Z</time>
      </trkpt>
      <trkpt lat="46.36245" lon="3.09936">
        <ele>457</ele>
        <time>2022-02-15T17:22:53Z</time>
      </trkpt>
      <trkpt lat="46.36307" lon="3.10675">
        <ele>459</ele>
        <time>2022-02-15T17:24:24Z</time>
      </trkpt>
      <trkpt lat="46.36309" lon="3.10727">
        <ele>460</ele>
        <time>2022-02-15T17:24:31Z</time>
      </trkpt>
      <trkpt lat="46.36276" lon="3.10866">
        <ele>458</ele>
        <time>2022-02-15T17:24:49Z</time>
      </trkpt>
      <trkpt lat="46.36271" lon="3.10896">
        <ele>457</ele>
        <time>2022-02-15T17:24:53Z</time>
      </trkpt>
      <trkpt lat="46.36279" lon="3.11116">
        <ele>456</ele>
        <time>2022-02-15T17:25:20Z</time>
      </trkpt>
      <trkpt lat="46.36269" lon="3.11178">
        <ele>458</ele>
        <time>2022-02-15T17:25:27Z</time>
      </trkpt>
      <trkpt lat="46.36247" lon="3.11239">
        <ele>458</ele>
        <time>2022-02-15T17:25:36Z</time>
      </trkpt>
      <trkpt lat="46.36219" lon="3.11303">
        <ele>459</ele>
        <time>2022-02-15T17:25:45Z</time>
      </trkpt>
      <trkpt lat="46.35941" lon="3.11647">
        <ele>455</ele>
        <time>2022-02-15T17:26:50Z</time>
      </trkpt>
      <trkpt lat="46.35928" lon="3.11674">
        <ele>455</ele>
        <time>2022-02-15T17:26:54Z</time>
      </trkpt>
      <trkpt lat="46.35784" lon="3.12098">
        <ele>444</ele>
        <time>2022-02-15T17:27:52Z</time>
      </trkpt>
      <trkpt lat="46.35713" lon="3.12286">
        <ele>436</ele>
        <time>2022-02-15T17:28:19Z</time>
      </trkpt>
      <trkpt lat="46.35684" lon="3.12345">
        <ele>437</ele>
        <time>2022-02-15T17:28:28Z</time>
      </trkpt>
      <trkpt lat="46.35622" lon="3.12457">
        <ele>436</ele>
        <time>2022-02-15T17:28:45Z</time>
      </trkpt>
      <trkpt lat="46.3542" lon="3.12781">
        <ele>440</ele>
        <time>2022-02-15T17:29:39Z</time>
      </trkpt>
      <trkpt lat="46.35412" lon="3.12799">
        <ele>440</ele>
        <time>2022-02-15T17:29:41Z</time>
      </trkpt>
      <trkpt lat="46.35406" lon="3.12821">
        <ele>441</ele>
        <time>2022-02-15T17:29:44Z</time>
      </trkpt>
      <trkpt lat="46.35376" lon="3.13178">
        <ele>450</ele>
        <time>2022-02-15T17:30:28Z</time>
      </trkpt>
      <trkpt lat="46.35374" lon="3.1322">
        <ele>450</ele>
        <time>2022-02-15T17:30:34Z</time>
      </trkpt>
      <trkpt lat="46.35377" lon="3.13234">
        <ele>451</ele>
        <time>2022-02-15T17:30:35Z</time>
      </trkpt>
      <trkpt lat="46.35403" lon="3.13306">
        <ele>451</ele>
        <time>2022-02-15T17:30:45Z</time>
      </trkpt>
      <trkpt lat="46.35402" lon="3.13313">
        <ele>451</ele>
        <time>2022-02-15T17:30:46Z</time>
      </trkpt>
      <trkpt lat="46.35432" lon="3.13337">
        <ele>451</ele>
        <time>2022-02-15T17:30:52Z</time>
      </trkpt>
      <trkpt lat="46.35445" lon="3.1335">
        <ele>451</ele>
        <time>2022-02-15T17:30:55Z</time>
      </trkpt>
      <trkpt lat="46.35466" lon="3.13378">
        <ele>451</ele>
        <time>2022-02-15T17:31:00Z</time>
      </trkpt>
      <trkpt lat="46.35508" lon="3.13441">
        <ele>450</ele>
        <time>2022-02-15T17:31:11Z</time>
      </trkpt>
      <trkpt lat="46.35531" lon="3.13494">
        <ele>449</ele>
        <time>2022-02-15T17:31:19Z</time>
      </trkpt>
      <trkpt lat="46.35539" lon="3.13524">
        <ele>448</ele>
        <time>2022-02-15T17:31:23Z</time>
      </trkpt>
      <trkpt lat="46.35561" lon="3.13564">
        <ele>446</ele>
        <time>2022-02-15T17:31:29Z</time>
      </trkpt>
      <trkpt lat="46.35569" lon="3.13585">
        <ele>445</ele>
        <time>2022-02-15T17:31:32Z</time>
      </trkpt>
      <trkpt lat="46.35573" lon="3.13599">
        <ele>444</ele>
        <time>2022-02-15T17:31:34Z</time>
      </trkpt>
      <trkpt lat="46.35582" lon="3.13668">
        <ele>440</ele>
        <time>2022-02-15T17:31:42Z</time>
      </trkpt>
      <trkpt lat="46.3558" lon="3.1372">
        <ele>437</ele>
        <time>2022-02-15T17:31:49Z</time>
      </trkpt>
      <trkpt lat="46.3558" lon="3.13731">
        <ele>436</ele>
        <time>2022-02-15T17:31:50Z</time>
      </trkpt>
      <trkpt lat="46.35583" lon="3.13751">
        <ele>435</ele>
        <time>2022-02-15T17:31:53Z</time>
      </trkpt>
      <trkpt lat="46.3566" lon="3.14072">
        <ele>420</ele>
        <time>2022-02-15T17:32:34Z</time>
      </trkpt>
      <trkpt lat="46.35672" lon="3.14137">
        <ele>416</ele>
        <time>2022-02-15T17:32:43Z</time>
      </trkpt>
      <trkpt lat="46.35676" lon="3.14197">
        <ele>412</ele>
        <time>2022-02-15T17:32:50Z</time>
      </trkpt>
      <trkpt lat="46.35674" lon="3.14293">
        <ele>407</ele>
        <time>2022-02-15T17:33:02Z</time>
      </trkpt>
      <trkpt lat="46.35674" lon="3.14371">
        <ele>405</ele>
        <time>2022-02-15T17:33:11Z</time>
      </trkpt>
      <trkpt lat="46.35678" lon="3.1444">
        <ele>403</ele>
        <time>2022-02-15T17:33:20Z</time>
      </trkpt>
      <trkpt lat="46.35692" lon="3.14531">
        <ele>400</ele>
        <time>2022-02-15T17:33:31Z</time>
      </trkpt>
      <trkpt lat="46.35694" lon="3.14552">
        <ele>399</ele>
        <time>2022-02-15T17:33:34Z</time>
      </trkpt>
      <trkpt lat="46.35695" lon="3.14572">
        <ele>398</ele>
        <time>2022-02-15T17:33:36Z</time>
      </trkpt>
      <trkpt lat="46.35693" lon="3.14593">
        <ele>398</ele>
        <time>2022-02-15T17:33:39Z</time>
      </trkpt>
      <trkpt lat="46.35679" lon="3.14725">
        <ele>395</ele>
        <time>2022-02-15T17:33:55Z</time>
      </trkpt>
      <trkpt lat="46.35675" lon="3.14754">
        <ele>394</ele>
        <time>2022-02-15T17:33:59Z</time>
      </trkpt>
      <trkpt lat="46.35664" lon="3.14792">
        <ele>394</ele>
        <time>2022-02-15T17:34:04Z</time>
      </trkpt>
      <trkpt lat="46.35649" lon="3.14829">
        <ele>393</ele>
        <time>2022-02-15T17:34:09Z</time>
      </trkpt>
      <trkpt lat="46.35645" lon="3.14839">
        <ele>394</ele>
        <time>2022-02-15T17:34:11Z</time>
      </trkpt>
      <trkpt lat="46.35627" lon="3.14882">
        <ele>395</ele>
        <time>2022-02-15T17:34:17Z</time>
      </trkpt>
      <trkpt lat="46.35607" lon="3.14948">
        <ele>395</ele>
        <time>2022-02-15T17:34:26Z</time>
      </trkpt>
      <trkpt lat="46.35599" lon="3.14979">
        <ele>396</ele>
        <time>2022-02-15T17:34:30Z</time>
      </trkpt>
      <trkpt lat="46.35597" lon="3.14999">
        <ele>396</ele>
        <time>2022-02-15T17:34:32Z</time>
      </trkpt>
      <trkpt lat="46.35597" lon="3.15015">
        <ele>396</ele>
        <time>2022-02-15T17:34:34Z</time>
      </trkpt>
      <trkpt lat="46.35604" lon="3.15069">
        <ele>397</ele>
        <time>2022-02-15T17:34:41Z</time>
      </trkpt>
      <trkpt lat="46.35613" lon="3.15171">
        <ele>398</ele>
        <time>2022-02-15T17:34:54Z</time>
      </trkpt>
      <trkpt lat="46.35617" lon="3.1521">
        <ele>398</ele>
        <time>2022-02-15T17:34:59Z</time>
      </trkpt>
      <trkpt lat="46.35663" lon="3.15495">
        <ele>398</ele>
        <time>2022-02-15T17:35:35Z</time>
      </trkpt>
      <trkpt lat="46.35681" lon="3.15592">
        <ele>399</ele>
        <time>2022-02-15T17:35:47Z</time>
      </trkpt>
      <trkpt lat="46.35684" lon="3.15596">
        <ele>399</ele>
        <time>2022-02-15T17:35:48Z</time>
      </trkpt>
      <trkpt lat="46.35605" lon="3.15983">
        <ele>401</ele>
        <time>2022-02-15T17:36:37Z</time>
      </trkpt>
      <trkpt lat="46.35597" lon="3.16027">
        <ele>401</ele>
        <time>2022-02-15T17:36:43Z</time>
      </trkpt>
      <trkpt lat="46.35593" lon="3.16063">
        <ele>401</ele>
        <time>2022-02-15T17:36:47Z</time>
      </trkpt>
      <trkpt lat="46.35572" lon="3.16526">
        <ele>403</ele>
        <time>2022-02-15T17:37:44Z</time>
      </trkpt>
      <trkpt lat="46.35565" lon="3.16576">
        <ele>403</ele>
        <time>2022-02-15T17:37:50Z</time>
      </trkpt>
      <trkpt lat="46.35372" lon="3.17325">
        <ele>396</ele>
        <time>2022-02-15T17:39:29Z</time>
      </trkpt>
      <trkpt lat="46.35341" lon="3.17453">
        <ele>396</ele>
        <time>2022-02-15T17:39:45Z</time>
      </trkpt>
      <trkpt lat="46.35263" lon="3.17748">
        <ele>399</ele>
        <time>2022-02-15T17:40:24Z</time>
      </trkpt>
      <trkpt lat="46.34947" lon="3.18615">
        <ele>384</ele>
        <time>2022-02-15T17:42:25Z</time>
      </trkpt>
      <trkpt lat="46.34917" lon="3.18687">
        <ele>383</ele>
        <time>2022-02-15T17:42:35Z</time>
      </trkpt>
      <trkpt lat="46.34853" lon="3.18827">
        <ele>382</ele>
        <time>2022-02-15T17:42:55Z</time>
      </trkpt>
      <trkpt lat="46.34831" lon="3.18869">
        <ele>382</ele>
        <time>2022-02-15T17:43:02Z</time>
      </trkpt>
      <trkpt lat="46.34763" lon="3.18964">
        <ele>384</ele>
        <time>2022-02-15T17:43:19Z</time>
      </trkpt>
      <trkpt lat="46.34737" lon="3.19006">
        <ele>383</ele>
        <time>2022-02-15T17:43:26Z</time>
      </trkpt>
      <trkpt lat="46.34715" lon="3.19045">
        <ele>384</ele>
        <time>2022-02-15T17:43:32Z</time>
      </trkpt>
      <trkpt lat="46.34691" lon="3.19099">
        <ele>384</ele>
        <time>2022-02-15T17:43:40Z</time>
      </trkpt>
      <trkpt lat="46.34592" lon="3.19352">
        <ele>386</ele>
        <time>2022-02-15T17:44:15Z</time>
      </trkpt>
      <trkpt lat="46.3458" lon="3.19395">
        <ele>387</ele>
        <time>2022-02-15T17:44:21Z</time>
      </trkpt>
      <trkpt lat="46.34556" lon="3.19494">
        <ele>385</ele>
        <time>2022-02-15T17:44:34Z</time>
      </trkpt>
      <trkpt lat="46.34541" lon="3.19539">
        <ele>386</ele>
        <time>2022-02-15T17:44:40Z</time>
      </trkpt>
      <trkpt lat="46.34531" lon="3.19563">
        <ele>386</ele>
        <time>2022-02-15T17:44:44Z</time>
      </trkpt>
      <trkpt lat="46.34516" lon="3.1959">
        <ele>386</ele>
        <time>2022-02-15T17:44:48Z</time>
      </trkpt>
      <trkpt lat="46.34255" lon="3.19989">
        <ele>378</ele>
        <time>2022-02-15T17:45:55Z</time>
      </trkpt>
      <trkpt lat="46.34215" lon="3.20047">
        <ele>378</ele>
        <time>2022-02-15T17:46:05Z</time>
      </trkpt>
      <trkpt lat="46.34125" lon="3.20169">
        <ele>375</ele>
        <time>2022-02-15T17:46:27Z</time>
      </trkpt>
      <trkpt lat="46.33781" lon="3.2063">
        <ele>363</ele>
        <time>2022-02-15T17:47:51Z</time>
      </trkpt>
      <trkpt lat="46.3375" lon="3.20682">
        <ele>361</ele>
        <time>2022-02-15T17:47:59Z</time>
      </trkpt>
      <trkpt lat="46.33523" lon="3.21109">
        <ele>354</ele>
        <time>2022-02-15T17:49:05Z</time>
      </trkpt>
      <trkpt lat="46.33315" lon="3.21401">
        <ele>353</ele>
        <time>2022-02-15T17:49:57Z</time>
      </trkpt>
      <trkpt lat="46.33067" lon="3.21765">
        <ele>355</ele>
        <time>2022-02-15T17:51:00Z</time>
      </trkpt>
      <trkpt lat="46.33055" lon="3.21785">
        <ele>354</ele>
        <time>2022-02-15T17:51:03Z</time>
      </trkpt>
      <trkpt lat="46.33046" lon="3.21804">
        <ele>354</ele>
        <time>2022-02-15T17:51:06Z</time>
      </trkpt>
      <trkpt lat="46.33039" lon="3.21824">
        <ele>354</ele>
        <time>2022-02-15T17:51:09Z</time>
      </trkpt>
      <trkpt lat="46.32974" lon="3.22074">
        <ele>351</ele>
        <time>2022-02-15T17:51:41Z</time>
      </trkpt>
      <trkpt lat="46.32843" lon="3.22569">
        <ele>343</ele>
        <time>2022-02-15T17:52:47Z</time>
      </trkpt>
      <trkpt lat="46.32841" lon="3.22597">
        <ele>342</ele>
        <time>2022-02-15T17:52:50Z</time>
      </trkpt>
      <trkpt lat="46.32839" lon="3.22688">
        <ele>338</ele>
        <time>2022-02-15T17:53:01Z</time>
      </trkpt>
      <trkpt lat="46.32834" lon="3.22741">
        <ele>335</ele>
        <time>2022-02-15T17:53:08Z</time>
      </trkpt>
      <trkpt lat="46.32815" lon="3.22902">
        <ele>334</ele>
        <time>2022-02-15T17:53:28Z</time>
      </trkpt>
      <trkpt lat="46.32815" lon="3.23011">
        <ele>332</ele>
        <time>2022-02-15T17:53:41Z</time>
      </trkpt>
      <trkpt lat="46.32821" lon="3.23156">
        <ele>328</ele>
        <time>2022-02-15T17:53:59Z</time>
      </trkpt>
      <trkpt lat="46.32811" lon="3.23343">
        <ele>323</ele>
        <time>2022-02-15T17:54:22Z</time>
      </trkpt>
      <trkpt lat="46.32806" lon="3.23374">
        <ele>323</ele>
        <time>2022-02-15T17:54:26Z</time>
      </trkpt>
      <trkpt lat="46.32768" lon="3.23529">
        <ele>325</ele>
        <time>2022-02-15T17:54:46Z</time>
      </trkpt>
      <trkpt lat="46.32761" lon="3.23565">
        <ele>325</ele>
        <time>2022-02-15T17:54:51Z</time>
      </trkpt>
      <trkpt lat="46.32753" lon="3.23693">
        <ele>325</ele>
        <time>2022-02-15T17:55:07Z</time>
      </trkpt>
      <trkpt lat="46.32746" lon="3.23768">
        <ele>323</ele>
        <time>2022-02-15T17:55:16Z</time>
      </trkpt>
      <trkpt lat="46.32736" lon="3.23834">
        <ele>323</ele>
        <time>2022-02-15T17:55:24Z</time>
      </trkpt>
      <trkpt lat="46.32734" lon="3.23904">
        <ele>323</ele>
        <time>2022-02-15T17:55:33Z</time>
      </trkpt>
      <trkpt lat="46.32735" lon="3.23935">
        <ele>322</ele>
        <time>2022-02-15T17:55:37Z</time>
      </trkpt>
      <trkpt lat="46.32749" lon="3.24042">
        <ele>320</ele>
        <time>2022-02-15T17:55:50Z</time>
      </trkpt>
      <trkpt lat="46.32751" lon="3.24081">
        <ele>319</ele>
        <time>2022-02-15T17:55:55Z</time>
      </trkpt>
      <trkpt lat="46.32749" lon="3.24132">
        <ele>320</ele>
        <time>2022-02-15T17:56:01Z</time>
      </trkpt>
      <trkpt lat="46.32724" lon="3.24439">
        <ele>320</ele>
        <time>2022-02-15T17:56:39Z</time>
      </trkpt>
      <trkpt lat="46.32722" lon="3.2454">
        <ele>320</ele>
        <time>2022-02-15T17:56:52Z</time>
      </trkpt>
      <trkpt lat="46.32723" lon="3.24592">
        <ele>320</ele>
        <time>2022-02-15T17:56:58Z</time>
      </trkpt>
      <trkpt lat="46.32726" lon="3.24617">
        <ele>319</ele>
        <time>2022-02-15T17:57:01Z</time>
      </trkpt>
      <trkpt lat="46.3274" lon="3.24718">
        <ele>316</ele>
        <time>2022-02-15T17:57:14Z</time>
      </trkpt>
      <trkpt lat="46.3274" lon="3.24759">
        <ele>314</ele>
        <time>2022-02-15T17:57:19Z</time>
      </trkpt>
      <trkpt lat="46.32699" lon="3.25043">
        <ele>304</ele>
        <time>2022-02-15T17:57:54Z</time>
      </trkpt>
      <trkpt lat="46.32689" lon="3.25077">
        <ele>303</ele>
        <time>2022-02-15T17:57:59Z</time>
      </trkpt>
      <trkpt lat="46.32623" lon="3.25213">
        <ele>302</ele>
        <time>2022-02-15T17:58:19Z</time>
      </trkpt>
      <trkpt lat="46.32567" lon="3.2541">
        <ele>297</ele>
        <time>2022-02-15T17:58:46Z</time>
      </trkpt>
      <trkpt lat="46.32473" lon="3.25709">
        <ele>285</ele>
        <time>2022-02-15T17:59:26Z</time>
      </trkpt>
      <trkpt lat="46.32449" lon="3.2589">
        <ele>281</ele>
        <time>2022-02-15T17:59:49Z</time>
      </trkpt>
      <trkpt lat="46.32448" lon="3.25919">
        <ele>280</ele>
        <time>2022-02-15T17:59:52Z</time>
      </trkpt>
      <trkpt lat="46.3245" lon="3.25943">
        <ele>279</ele>
        <time>2022-02-15T17:59:55Z</time>
      </trkpt>
      <trkpt lat="46.32465" lon="3.2605">
        <ele>277</ele>
        <time>2022-02-15T18:00:09Z</time>
      </trkpt>
      <trkpt lat="46.32467" lon="3.26082">
        <ele>276</ele>
        <time>2022-02-15T18:00:12Z</time>
      </trkpt>
      <trkpt lat="46.32466" lon="3.26165">
        <ele>273</ele>
        <time>2022-02-15T18:00:23Z</time>
      </trkpt>
      <trkpt lat="46.32464" lon="3.26183">
        <ele>272</ele>
        <time>2022-02-15T18:00:25Z</time>
      </trkpt>
      <trkpt lat="46.32484" lon="3.26186">
        <ele>272</ele>
        <time>2022-02-15T18:00:28Z</time>
      </trkpt>
      <trkpt lat="46.325" lon="3.26183">
        <ele>272</ele>
        <time>2022-02-15T18:00:31Z</time>
      </trkpt>
      <trkpt lat="46.32514" lon="3.26241">
        <ele>270</ele>
        <time>2022-02-15T18:00:39Z</time>
      </trkpt>
      <trkpt lat="46.32521" lon="3.26256">
        <ele>269</ele>
        <time>2022-02-15T18:00:41Z</time>
      </trkpt>
      <trkpt lat="46.32542" lon="3.26284">
        <ele>268</ele>
        <time>2022-02-15T18:00:46Z</time>
      </trkpt>
      <trkpt lat="46.32559" lon="3.26329">
        <ele>267</ele>
        <time>2022-02-15T18:00:53Z</time>
      </trkpt>
      <trkpt lat="46.32575" lon="3.26385">
        <ele>266</ele>
        <time>2022-02-15T18:01:00Z</time>
      </trkpt>
      <trkpt lat="46.32583" lon="3.26439">
        <ele>264</ele>
        <time>2022-02-15T18:01:07Z</time>
      </trkpt>
      <trkpt lat="46.32585" lon="3.26472">
        <ele>264</ele>
        <time>2022-02-15T18:01:11Z</time>
      </trkpt>
      <trkpt lat="46.32581" lon="3.26565">
        <ele>259</ele>
        <time>2022-02-15T18:01:22Z</time>
      </trkpt>
      <trkpt lat="46.32543" lon="3.26564">
        <ele>258</ele>
        <time>2022-02-15T18:01:29Z</time>
      </trkpt>
      <trkpt lat="46.32537" lon="3.26583">
        <ele>257</ele>
        <time>2022-02-15T18:01:32Z</time>
      </trkpt>
      <trkpt lat="46.32527" lon="3.26606">
        <ele>256</ele>
        <time>2022-02-15T18:01:35Z</time>
      </trkpt>
      <trkpt lat="46.32515" lon="3.26625">
        <ele>256</ele>
        <time>2022-02-15T18:01:38Z</time>
      </trkpt>
      <trkpt lat="46.32438" lon="3.26703">
        <ele>254</ele>
        <time>2022-02-15T18:01:55Z</time>
      </trkpt>
      <trkpt lat="46.3241" lon="3.26739">
        <ele>252</ele>
        <time>2022-02-15T18:02:01Z</time>
      </trkpt>
      <trkpt lat="46.32366" lon="3.26826">
        <ele>248</ele>
        <time>2022-02-15T18:02:15Z</time>
      </trkpt>
      <trkpt lat="46.32347" lon="3.26858">
        <ele>248</ele>
        <time>2022-02-15T18:02:20Z</time>
      </trkpt>
      <trkpt lat="46.32333" lon="3.26879">
        <ele>247</ele>
        <time>2022-02-15T18:02:23Z</time>
      </trkpt>
      <trkpt lat="46.32312" lon="3.26895">
        <ele>247</ele>
        <time>2022-02-15T18:02:28Z</time>
      </trkpt>
      <trkpt lat="46.32278" lon="3.26911">
        <ele>246</ele>
        <time>2022-02-15T18:02:34Z</time>
      </trkpt>
      <trkpt lat="46.3226" lon="3.26925">
        <ele>246</ele>
        <time>2022-02-15T18:02:38Z</time>
      </trkpt>
      <trkpt lat="46.3222" lon="3.26976">
        <ele>245</ele>
        <time>2022-02-15T18:02:47Z</time>
      </trkpt>
      <trkpt lat="46.32194" lon="3.27017">
        <ele>244</ele>
        <time>2022-02-15T18:02:54Z</time>
      </trkpt>
      <trkpt lat="46.32171" lon="3.27063">
        <ele>243</ele>
        <time>2022-02-15T18:03:01Z</time>
      </trkpt>
      <trkpt lat="46.32143" lon="3.27132">
        <ele>242</ele>
        <time>2022-02-15T18:03:11Z</time>
      </trkpt>
      <trkpt lat="46.32133" lon="3.2715">
        <ele>242</ele>
        <time>2022-02-15T18:03:14Z</time>
      </trkpt>
      <trkpt lat="46.32119" lon="3.27171">
        <ele>241</ele>
        <time>2022-02-15T18:03:17Z</time>
      </trkpt>
      <trkpt lat="46.32112" lon="3.27187">
        <ele>241</ele>
        <time>2022-02-15T18:03:20Z</time>
      </trkpt>
      <trkpt lat="46.32106" lon="3.27212">
        <ele>241</ele>
        <time>2022-02-15T18:03:23Z</time>
      </trkpt>
      <trkpt lat="46.32103" lon="3.273">
        <ele>241</ele>
        <time>2022-02-15T18:03:34Z</time>
      </trkpt>
      <trkpt lat="46.32111" lon="3.27372">
        <ele>241</ele>
        <time>2022-02-15T18:03:43Z</time>
      </trkpt>
      <trkpt lat="46.32111" lon="3.27396">
        <ele>241</ele>
        <time>2022-02-15T18:03:46Z</time>
      </trkpt>
      <trkpt lat="46.32109" lon="3.27413">
        <ele>241</ele>
        <time>2022-02-15T18:03:48Z</time>
      </trkpt>
      <trkpt lat="46.321" lon="3.27431">
        <ele>241</ele>
        <time>2022-02-15T18:03:50Z</time>
      </trkpt>
      <trkpt lat="46.32056" lon="3.27487">
        <ele>241</ele>
        <time>2022-02-15T18:04:01Z</time>
      </trkpt>
      <trkpt lat="46.3201" lon="3.27566">
        <ele>241</ele>
        <time>2022-02-15T18:04:14Z</time>
      </trkpt>
      <trkpt lat="46.31994" lon="3.27586">
        <ele>241</ele>
        <time>2022-02-15T18:04:17Z</time>
      </trkpt>
      <trkpt lat="46.31979" lon="3.27599">
        <ele>242</ele>
        <time>2022-02-15T18:04:20Z</time>
      </trkpt>
      <trkpt lat="46.31878" lon="3.2765">
        <ele>246</ele>
        <time>2022-02-15T18:04:39Z</time>
      </trkpt>
      <trkpt lat="46.31859" lon="3.27667">
        <ele>247</ele>
        <time>2022-02-15T18:04:43Z</time>
      </trkpt>
      <trkpt lat="46.31649" lon="3.27885">
        <ele>246</ele>
        <time>2022-02-15T18:05:29Z</time>
      </trkpt>
      <trkpt lat="46.31604" lon="3.27936">
        <ele>247</ele>
        <time>2022-02-15T18:05:40Z</time>
      </trkpt>
      <trkpt lat="46.31564" lon="3.27985">
        <ele>247</ele>
        <time>2022-02-15T18:05:49Z</time>
      </trkpt>
      <trkpt lat="46.31395" lon="3.28262">
        <ele>247</ele>
        <time>2022-02-15T18:06:34Z</time>
      </trkpt>
      <trkpt lat="46.31385" lon="3.28272">
        <ele>248</ele>
        <time>2022-02-15T18:06:36Z</time>
      </trkpt>
      <trkpt lat="46.31309" lon="3.28326">
        <ele>248</ele>
        <time>2022-02-15T18:06:52Z</time>
      </trkpt>
      <trkpt lat="46.31292" lon="3.28341">
        <ele>248</ele>
        <time>2022-02-15T18:06:55Z</time>
      </trkpt>
      <trkpt lat="46.31262" lon="3.28375">
        <ele>249</ele>
        <time>2022-02-15T18:07:02Z</time>
      </trkpt>
      <trkpt lat="46.31231" lon="3.28442">
        <ele>248</ele>
        <time>2022-02-15T18:07:12Z</time>
      </trkpt>
      <trkpt lat="46.31226" lon="3.28463">
        <ele>248</ele>
        <time>2022-02-15T18:07:15Z</time>
      </trkpt>
      <trkpt lat="46.31204" lon="3.28737">
        <ele>246</ele>
        <time>2022-02-15T18:07:48Z</time>
      </trkpt>
      <trkpt lat="46.3107" lon="3.28756">
        <ele>244</ele>
        <time>2022-02-15T18:08:12Z</time>
      </trkpt>
      <trkpt lat="46.31049" lon="3.28766">
        <ele>243</ele>
        <time>2022-02-15T18:08:16Z</time>
      </trkpt>
      <trkpt lat="46.31028" lon="3.28782">
        <ele>243</ele>
        <time>2022-02-15T18:08:21Z</time>
      </trkpt>
      <trkpt lat="46.30997" lon="3.28833">
        <ele>242</ele>
        <time>2022-02-15T18:08:29Z</time>
      </trkpt>
      <trkpt lat="46.30992" lon="3.28844">
        <ele>242</ele>
        <time>2022-02-15T18:08:31Z</time>
      </trkpt>
      <trkpt lat="46.30985" lon="3.28858">
        <ele>242</ele>
        <time>2022-02-15T18:08:33Z</time>
      </trkpt>
      <trkpt lat="46.30941" lon="3.28931">
        <ele>241</ele>
        <time>2022-02-15T18:08:45Z</time>
      </trkpt>
      <trkpt lat="46.30898" lon="3.29006">
        <ele>239</ele>
        <time>2022-02-15T18:08:57Z</time>
      </trkpt>
      <trkpt lat="46.30886" lon="3.29031">
        <ele>240</ele>
        <time>2022-02-15T18:09:00Z</time>
      </trkpt>
      <trkpt lat="46.30874" lon="3.29067">
        <ele>239</ele>
        <time>2022-02-15T18:09:05Z</time>
      </trkpt>
      <trkpt lat="46.30809" lon="3.29299">
        <ele>235</ele>
        <time>2022-02-15T18:09:36Z</time>
      </trkpt>
      <trkpt lat="46.30801" lon="3.29314">
        <ele>235</ele>
        <time>2022-02-15T18:09:38Z</time>
      </trkpt>
      <trkpt lat="46.30795" lon="3.29318">
        <ele>235</ele>
        <time>2022-02-15T18:09:39Z</time>
      </trkpt>
      <trkpt lat="46.30781" lon="3.29323">
        <ele>235</ele>
        <time>2022-02-15T18:09:42Z</time>
      </trkpt>
      <trkpt lat="46.30774" lon="3.29322">
        <ele>235</ele>
        <time>2022-02-15T18:09:43Z</time>
      </trkpt>
      <trkpt lat="46.3073" lon="3.29302">
        <ele>236</ele>
        <time>2022-02-15T18:09:51Z</time>
      </trkpt>
      <trkpt lat="46.30724" lon="3.29301">
        <ele>236</ele>
        <time>2022-02-15T18:09:53Z</time>
      </trkpt>
      <trkpt lat="46.30718" lon="3.29302">
        <ele>235</ele>
        <time>2022-02-15T18:09:54Z</time>
      </trkpt>
      <trkpt lat="46.30712" lon="3.29307">
        <ele>235</ele>
        <time>2022-02-15T18:09:55Z</time>
      </trkpt>
      <trkpt lat="46.30707" lon="3.29316">
        <ele>235</ele>
        <time>2022-02-15T18:09:56Z</time>
      </trkpt>
      <trkpt lat="46.30666" lon="3.29428">
        <ele>236</ele>
        <time>2022-02-15T18:10:12Z</time>
      </trkpt>
      <trkpt lat="46.30637" lon="3.29507">
        <ele>236</ele>
        <time>2022-02-15T18:10:23Z</time>
      </trkpt>
      <trkpt lat="46.30625" lon="3.29539">
        <ele>236</ele>
        <time>2022-02-15T18:10:27Z</time>
      </trkpt>
      <trkpt lat="46.30579" lon="3.29669">
        <ele>237</ele>
        <time>2022-02-15T18:10:45Z</time>
      </trkpt>
      <trkpt lat="46.30562" lon="3.29701">
        <ele>236</ele>
        <time>2022-02-15T18:10:50Z</time>
      </trkpt>
      <trkpt lat="46.30557" lon="3.29704">
        <ele>236</ele>
        <time>2022-02-15T18:10:51Z</time>
      </trkpt>
      <trkpt lat="46.30553" lon="3.29711">
        <ele>236</ele>
        <time>2022-02-15T18:10:52Z</time>
      </trkpt>
      <trkpt lat="46.30551" lon="3.29721">
        <ele>236</ele>
        <time>2022-02-15T18:10:54Z</time>
      </trkpt>
      <trkpt lat="46.30554" lon="3.29732">
        <ele>236</ele>
        <time>2022-02-15T18:10:55Z</time>
      </trkpt>
      <trkpt lat="46.30521" lon="3.29817">
        <ele>236</ele>
        <time>2022-02-15T18:11:07Z</time>
      </trkpt>
      <trkpt lat="46.30515" lon="3.29823">
        <ele>236</ele>
        <time>2022-02-15T18:11:08Z</time>
      </trkpt>
      <trkpt lat="46.30495" lon="3.29823">
        <ele>236</ele>
        <time>2022-02-15T18:11:12Z</time>
      </trkpt>
      <trkpt lat="46.3042" lon="3.29811">
        <ele>235</ele>
        <time>2022-02-15T18:11:25Z</time>
      </trkpt>
      <trkpt lat="46.30413" lon="3.29812">
        <ele>235</ele>
        <time>2022-02-15T18:11:27Z</time>
      </trkpt>
      <trkpt lat="46.30405" lon="3.29816">
        <ele>235</ele>
        <time>2022-02-15T18:11:28Z</time>
      </trkpt>
      <trkpt lat="46.3038" lon="3.29839">
        <ele>235</ele>
        <time>2022-02-15T18:11:33Z</time>
      </trkpt>
      <trkpt lat="46.30383" lon="3.299">
        <ele>236</ele>
        <time>2022-02-15T18:11:41Z</time>
      </trkpt>
      <trkpt lat="46.30379" lon="3.29908">
        <ele>236</ele>
        <time>2022-02-15T18:11:42Z</time>
      </trkpt>
      <trkpt lat="46.30363" lon="3.29916">
        <ele>236</ele>
        <time>2022-02-15T18:11:45Z</time>
      </trkpt>
      <trkpt lat="46.30359" lon="3.29923">
        <ele>236</ele>
        <time>2022-02-15T18:11:46Z</time>
      </trkpt>
      <trkpt lat="46.30357" lon="3.29931">
        <ele>236</ele>
        <time>2022-02-15T18:11:47Z</time>
      </trkpt>
      <trkpt lat="46.30361" lon="3.29968">
        <ele>237</ele>
        <time>2022-02-15T18:11:52Z</time>
      </trkpt>
      <trkpt lat="46.30375" lon="3.30011">
        <ele>237</ele>
        <time>2022-02-15T18:11:58Z</time>
      </trkpt>
      <trkpt lat="46.30379" lon="3.30038">
        <ele>237</ele>
        <time>2022-02-15T18:12:01Z</time>
      </trkpt>
      <trkpt lat="46.30377" lon="3.30105">
        <ele>237</ele>
        <time>2022-02-15T18:12:09Z</time>
      </trkpt>
      <trkpt lat="46.30362" lon="3.30286">
        <ele>238</ele>
        <time>2022-02-15T18:12:32Z</time>
      </trkpt>
      <trkpt lat="46.30351" lon="3.30461">
        <ele>238</ele>
        <time>2022-02-15T18:12:53Z</time>
      </trkpt>
      <trkpt lat="46.30343" lon="3.3051">
        <ele>239</ele>
        <time>2022-02-15T18:13:00Z</time>
      </trkpt>
      <trkpt lat="46.30289" lon="3.30739">
        <ele>240</ele>
        <time>2022-02-15T18:13:29Z</time>
      </trkpt>
      <trkpt lat="46.30217" lon="3.31129">
        <ele>243</ele>
        <time>2022-02-15T18:14:19Z</time>
      </trkpt>
      <trkpt lat="46.30206" lon="3.31194">
        <ele>248</ele>
        <time>2022-02-15T18:14:27Z</time>
      </trkpt>
      <trkpt lat="46.30192" lon="3.31328">
        <ele>261</ele>
        <time>2022-02-15T18:14:44Z</time>
      </trkpt>
      <trkpt lat="46.30184" lon="3.31365">
        <ele>263</ele>
        <time>2022-02-15T18:14:49Z</time>
      </trkpt>
      <trkpt lat="46.30166" lon="3.31425">
        <ele>266</ele>
        <time>2022-02-15T18:14:57Z</time>
      </trkpt>
      <trkpt lat="46.30157" lon="3.31459">
        <ele>270</ele>
        <time>2022-02-15T18:15:01Z</time>
      </trkpt>
      <trkpt lat="46.30153" lon="3.31487">
        <ele>272</ele>
        <time>2022-02-15T18:15:05Z</time>
      </trkpt>
      <trkpt lat="46.30152" lon="3.31514">
        <ele>274</ele>
        <time>2022-02-15T18:15:08Z</time>
      </trkpt>
      <trkpt lat="46.3016" lon="3.31625">
        <ele>279</ele>
        <time>2022-02-15T18:15:22Z</time>
      </trkpt>
      <trkpt lat="46.30177" lon="3.31702">
        <ele>281</ele>
        <time>2022-02-15T18:15:32Z</time>
      </trkpt>
      <trkpt lat="46.3022" lon="3.31826">
        <ele>286</ele>
        <time>2022-02-15T18:15:49Z</time>
      </trkpt>
      <trkpt lat="46.30254" lon="3.31975">
        <ele>284</ele>
        <time>2022-02-15T18:16:08Z</time>
      </trkpt>
      <trkpt lat="46.30257" lon="3.32005">
        <ele>284</ele>
        <time>2022-02-15T18:16:12Z</time>
      </trkpt>
      <trkpt lat="46.30256" lon="3.32043">
        <ele>283</ele>
        <time>2022-02-15T18:16:16Z</time>
      </trkpt>
      <trkpt lat="46.30243" lon="3.32271">
        <ele>279</ele>
        <time>2022-02-15T18:16:44Z</time>
      </trkpt>
      <trkpt lat="46.30256" lon="3.32437">
        <ele>272</ele>
        <time>2022-02-15T18:17:05Z</time>
      </trkpt>
      <trkpt lat="46.30248" lon="3.3244">
        <ele>272</ele>
        <time>2022-02-15T18:17:06Z</time>
      </trkpt>
      <trkpt lat="46.30166" lon="3.32492">
        <ele>270</ele>
        <time>2022-02-15T18:17:22Z</time>
      </trkpt>
      <trkpt lat="46.30132" lon="3.32505">
        <ele>269</ele>
        <time>2022-02-15T18:17:29Z</time>
      </trkpt>
      <trkpt lat="46.29863" lon="3.32453">
        <ele>252</ele>
        <time>2022-02-15T18:18:17Z</time>
      </trkpt>
      <trkpt lat="46.29843" lon="3.32451">
        <ele>251</ele>
        <time>2022-02-15T18:18:20Z</time>
      </trkpt>
      <trkpt lat="46.29826" lon="3.32456">
        <ele>250</ele>
        <time>2022-02-15T18:18:24Z</time>
      </trkpt>
      <trkpt lat="46.29808" lon="3.32465">
        <ele>249</ele>
        <time>2022-02-15T18:18:27Z</time>
      </trkpt>
      <trkpt lat="46.29674" lon="3.32602">
        <ele>245</ele>
        <time>2022-02-15T18:18:56Z</time>
      </trkpt>
      <trkpt lat="46.29444" lon="3.32905">
        <ele>241</ele>
        <time>2022-02-15T18:19:51Z</time>
      </trkpt>
      <trkpt lat="46.29415" lon="3.32949">
        <ele>241</ele>
        <time>2022-02-15T18:19:59Z</time>
      </trkpt>
      <trkpt lat="46.29334" lon="3.33091">
        <ele>239</ele>
        <time>2022-02-15T18:20:22Z</time>
      </trkpt>
      <trkpt lat="46.29287" lon="3.3318">
        <ele>239</ele>
        <time>2022-02-15T18:20:35Z</time>
      </trkpt>
      <trkpt lat="46.29215" lon="3.33296">
        <ele>240</ele>
        <time>2022-02-15T18:20:55Z</time>
      </trkpt>
      <trkpt lat="46.29197" lon="3.33334">
        <ele>240</ele>
        <time>2022-02-15T18:21:00Z</time>
      </trkpt>
      <trkpt lat="46.29181" lon="3.33388">
        <ele>239</ele>
        <time>2022-02-15T18:21:07Z</time>
      </trkpt>
      <trkpt lat="46.29144" lon="3.3355">
        <ele>240</ele>
        <time>2022-02-15T18:21:28Z</time>
      </trkpt>
      <trkpt lat="46.2914" lon="3.33589">
        <ele>241</ele>
        <time>2022-02-15T18:21:33Z</time>
      </trkpt>
      <trkpt lat="46.29133" lon="3.33708">
        <ele>239</ele>
        <time>2022-02-15T18:21:48Z</time>
      </trkpt>
      <trkpt lat="46.29126" lon="3.33745">
        <ele>239</ele>
        <time>2022-02-15T18:21:53Z</time>
      </trkpt>
      <trkpt lat="46.29078" lon="3.33935">
        <ele>241</ele>
        <time>2022-02-15T18:22:18Z</time>
      </trkpt>
      <trkpt lat="46.29033" lon="3.3408">
        <ele>240</ele>
        <time>2022-02-15T18:22:37Z</time>
      </trkpt>
      <trkpt lat="46.2899" lon="3.34162">
        <ele>241</ele>
        <time>2022-02-15T18:22:50Z</time>
      </trkpt>
      <trkpt lat="46.28845" lon="3.34345">
        <ele>239</ele>
        <time>2022-02-15T18:23:24Z</time>
      </trkpt>
      <trkpt lat="46.28833" lon="3.34364">
        <ele>239</ele>
        <time>2022-02-15T18:23:27Z</time>
      </trkpt>
      <trkpt lat="46.28824" lon="3.34389">
        <ele>239</ele>
        <time>2022-02-15T18:23:31Z</time>
      </trkpt>
      <trkpt lat="46.28743" lon="3.34694">
        <ele>244</ele>
        <time>2022-02-15T18:24:11Z</time>
      </trkpt>
      <trkpt lat="46.28732" lon="3.34718">
        <ele>243</ele>
        <time>2022-02-15T18:24:14Z</time>
      </trkpt>
      <trkpt lat="46.28681" lon="3.34963">
        <ele>242</ele>
        <time>2022-02-15T18:24:46Z</time>
      </trkpt>
      <trkpt lat="46.28661" lon="3.35022">
        <ele>241</ele>
        <time>2022-02-15T18:24:54Z</time>
      </trkpt>
      <trkpt lat="46.2866" lon="3.3504">
        <ele>241</ele>
        <time>2022-02-15T18:24:56Z</time>
      </trkpt>
      <trkpt lat="46.28667" lon="3.35053">
        <ele>241</ele>
        <time>2022-02-15T18:24:58Z</time>
      </trkpt>
      <trkpt lat="46.2871" lon="3.35084">
        <ele>241</ele>
        <time>2022-02-15T18:25:07Z</time>
      </trkpt>
      <trkpt lat="46.2872" lon="3.35097">
        <ele>241</ele>
        <time>2022-02-15T18:25:09Z</time>
      </trkpt>
      <trkpt lat="46.28734" lon="3.35123">
        <ele>241</ele>
        <time>2022-02-15T18:25:13Z</time>
      </trkpt>
      <trkpt lat="46.28777" lon="3.35231">
        <ele>241</ele>
        <time>2022-02-15T18:25:28Z</time>
      </trkpt>
      <trkpt lat="46.28794" lon="3.35263">
        <ele>241</ele>
        <time>2022-02-15T18:25:33Z</time>
      </trkpt>
      <trkpt lat="46.28815" lon="3.35295">
        <ele>241</ele>
        <time>2022-02-15T18:25:39Z</time>
      </trkpt>
      <trkpt lat="46.28892" lon="3.35432">
        <ele>239</ele>
        <time>2022-02-15T18:26:00Z</time>
      </trkpt>
      <trkpt lat="46.28913" lon="3.35472">
        <ele>240</ele>
        <time>2022-02-15T18:26:07Z</time>
      </trkpt>
      <trkpt lat="46.28935" lon="3.35521">
        <ele>240</ele>
        <time>2022-02-15T18:26:14Z</time>
      </trkpt>
      <trkpt lat="46.28951" lon="3.3556">
        <ele>240</ele>
        <time>2022-02-15T18:26:19Z</time>
      </trkpt>
      <trkpt lat="46.28961" lon="3.35595">
        <ele>239</ele>
        <time>2022-02-15T18:26:24Z</time>
      </trkpt>
      <trkpt lat="46.28976" lon="3.35631">
        <ele>239</ele>
        <time>2022-02-15T18:26:29Z</time>
      </trkpt>
      <trkpt lat="46.29033" lon="3.35739">
        <ele>240</ele>
        <time>2022-02-15T18:26:46Z</time>
      </trkpt>
      <trkpt lat="46.2904" lon="3.35764">
        <ele>240</ele>
        <time>2022-02-15T18:26:49Z</time>
      </trkpt>
      <trkpt lat="46.29043" lon="3.35808">
        <ele>240</ele>
        <time>2022-02-15T18:26:55Z</time>
      </trkpt>
      <trkpt lat="46.29045" lon="3.35872">
        <ele>239</ele>
        <time>2022-02-15T18:27:03Z</time>
      </trkpt>
      <trkpt lat="46.29042" lon="3.35898">
        <ele>239</ele>
        <time>2022-02-15T18:27:06Z</time>
      </trkpt>
      <trkpt lat="46.29041" lon="3.35914">
        <ele>239</ele>
        <time>2022-02-15T18:27:08Z</time>
      </trkpt>
      <trkpt lat="46.29039" lon="3.35929">
        <ele>238</ele>
        <time>2022-02-15T18:27:10Z</time>
      </trkpt>
      <trkpt lat="46.2903" lon="3.35963">
        <ele>238</ele>
        <time>2022-02-15T18:27:14Z</time>
      </trkpt>
      <trkpt lat="46.28967" lon="3.36177">
        <ele>242</ele>
        <time>2022-02-15T18:27:43Z</time>
      </trkpt>
      <trkpt lat="46.28968" lon="3.3619">
        <ele>242</ele>
        <time>2022-02-15T18:27:44Z</time>
      </trkpt>
      <trkpt lat="46.28974" lon="3.36195">
        <ele>242</ele>
        <time>2022-02-15T18:27:46Z</time>
      </trkpt>
      <trkpt lat="46.2899" lon="3.36199">
        <ele>242</ele>
        <time>2022-02-15T18:27:48Z</time>
      </trkpt>
      <trkpt lat="46.28999" lon="3.36205">
        <ele>241</ele>
        <time>2022-02-15T18:27:50Z</time>
      </trkpt>
      <trkpt lat="46.29007" lon="3.36226">
        <ele>242</ele>
        <time>2022-02-15T18:27:53Z</time>
      </trkpt>
      <trkpt lat="46.2902" lon="3.36279">
        <ele>242</ele>
        <time>2022-02-15T18:28:00Z</time>
      </trkpt>
      <trkpt lat="46.29028" lon="3.36327">
        <ele>241</ele>
        <time>2022-02-15T18:28:06Z</time>
      </trkpt>
      <trkpt lat="46.29044" lon="3.36406">
        <ele>240</ele>
        <time>2022-02-15T18:28:16Z</time>
      </trkpt>
      <trkpt lat="46.29052" lon="3.36433">
        <ele>240</ele>
        <time>2022-02-15T18:28:20Z</time>
      </trkpt>
      <trkpt lat="46.29087" lon="3.36532">
        <ele>239</ele>
        <time>2022-02-15T18:28:34Z</time>
      </trkpt>
      <trkpt lat="46.29121" lon="3.36651">
        <ele>237</ele>
        <time>2022-02-15T18:28:49Z</time>
      </trkpt>
      <trkpt lat="46.29119" lon="3.36687">
        <ele>237</ele>
        <time>2022-02-15T18:28:54Z</time>
      </trkpt>
      <trkpt lat="46.29081" lon="3.36903">
        <ele>236</ele>
        <time>2022-02-15T18:29:21Z</time>
      </trkpt>
      <trkpt lat="46.2907" lon="3.36938">
        <ele>236</ele>
        <time>2022-02-15T18:29:26Z</time>
      </trkpt>
      <trkpt lat="46.29059" lon="3.36981">
        <ele>235</ele>
        <time>2022-02-15T18:29:32Z</time>
      </trkpt>
      <trkpt lat="46.28997" lon="3.37382">
        <ele>236</ele>
        <time>2022-02-15T18:30:22Z</time>
      </trkpt>
      <trkpt lat="46.28986" lon="3.3742">
        <ele>236</ele>
        <time>2022-02-15T18:30:27Z</time>
      </trkpt>
      <trkpt lat="46.28965" lon="3.37451">
        <ele>235</ele>
        <time>2022-02-15T18:30:33Z</time>
      </trkpt>
      <trkpt lat="46.28889" lon="3.37521">
        <ele>234</ele>
        <time>2022-02-15T18:30:49Z</time>
      </trkpt>
      <trkpt lat="46.28861" lon="3.37554">
        <ele>234</ele>
        <time>2022-02-15T18:30:55Z</time>
      </trkpt>
      <trkpt lat="46.28799" lon="3.37658">
        <ele>234</ele>
        <time>2022-02-15T18:31:12Z</time>
      </trkpt>
      <trkpt lat="46.2875" lon="3.37751">
        <ele>235</ele>
        <time>2022-02-15T18:31:26Z</time>
      </trkpt>
      <trkpt lat="46.28732" lon="3.37802">
        <ele>234</ele>
        <time>2022-02-15T18:31:33Z</time>
      </trkpt>
      <trkpt lat="46.28718" lon="3.37822">
        <ele>234</ele>
        <time>2022-02-15T18:31:37Z</time>
      </trkpt>
      <trkpt lat="46.28701" lon="3.37834">
        <ele>234</ele>
        <time>2022-02-15T18:31:40Z</time>
      </trkpt>
      <trkpt lat="46.28681" lon="3.37841">
        <ele>234</ele>
        <time>2022-02-15T18:31:44Z</time>
      </trkpt>
      <trkpt lat="46.28622" lon="3.37856">
        <ele>235</ele>
        <time>2022-02-15T18:31:55Z</time>
      </trkpt>
      <trkpt lat="46.2859" lon="3.37873">
        <ele>236</ele>
        <time>2022-02-15T18:32:01Z</time>
      </trkpt>
      <trkpt lat="46.28559" lon="3.379">
        <ele>236</ele>
        <time>2022-02-15T18:32:07Z</time>
      </trkpt>
      <trkpt lat="46.2848" lon="3.37985">
        <ele>236</ele>
        <time>2022-02-15T18:32:25Z</time>
      </trkpt>
      <trkpt lat="46.28453" lon="3.38004">
        <ele>236</ele>
        <time>2022-02-15T18:32:30Z</time>
      </trkpt>
      <trkpt lat="46.28093" lon="3.38195">
        <ele>234</ele>
        <time>2022-02-15T18:33:38Z</time>
      </trkpt>
      <trkpt lat="46.27903" lon="3.38315">
        <ele>235</ele>
        <time>2022-02-15T18:34:15Z</time>
      </trkpt>
      <trkpt lat="46.27761" lon="3.38384">
        <ele>234</ele>
        <time>2022-02-15T18:34:42Z</time>
      </trkpt>
      <trkpt lat="46.27727" lon="3.38393">
        <ele>234</ele>
        <time>2022-02-15T18:34:48Z</time>
      </trkpt>
      <trkpt lat="46.27689" lon="3.38429">
        <ele>234</ele>
        <time>2022-02-15T18:34:56Z</time>
      </trkpt>
      <trkpt lat="46.27655" lon="3.38478">
        <ele>233</ele>
        <time>2022-02-15T18:35:04Z</time>
      </trkpt>
      <trkpt lat="46.2761" lon="3.3852">
        <ele>234</ele>
        <time>2022-02-15T18:35:14Z</time>
      </trkpt>
      <trkpt lat="46.27388" lon="3.38578">
        <ele>235</ele>
        <time>2022-02-15T18:35:54Z</time>
      </trkpt>
      <trkpt lat="46.26901" lon="3.38716">
        <ele>236</ele>
        <time>2022-02-15T18:37:22Z</time>
      </trkpt>
      <trkpt lat="46.26822" lon="3.38859">
        <ele>238</ele>
        <time>2022-02-15T18:37:45Z</time>
      </trkpt>
      <trkpt lat="46.26775" lon="3.38906">
        <ele>238</ele>
        <time>2022-02-15T18:37:55Z</time>
      </trkpt>
      <trkpt lat="46.2673" lon="3.38909">
        <ele>238</ele>
        <time>2022-02-15T18:38:03Z</time>
      </trkpt>
      <trkpt lat="46.26333" lon="3.38848">
        <ele>237</ele>
        <time>2022-02-15T18:39:14Z</time>
      </trkpt>
      <trkpt lat="46.26225" lon="3.38837">
        <ele>244</ele>
        <time>2022-02-15T18:39:33Z</time>
      </trkpt>
      <trkpt lat="46.25935" lon="3.38954">
        <ele>248</ele>
        <time>2022-02-15T18:40:27Z</time>
      </trkpt>
      <trkpt lat="46.25846" lon="3.39026">
        <ele>249</ele>
        <time>2022-02-15T18:40:45Z</time>
      </trkpt>
      <trkpt lat="46.25705" lon="3.39117">
        <ele>248</ele>
        <time>2022-02-15T18:41:13Z</time>
      </trkpt>
      <trkpt lat="46.25552" lon="3.39211">
        <ele>248</ele>
        <time>2022-02-15T18:41:42Z</time>
      </trkpt>
      <trkpt lat="46.25382" lon="3.39279">
        <ele>246</ele>
        <time>2022-02-15T18:42:14Z</time>
      </trkpt>
      <trkpt lat="46.25271" lon="3.39307">
        <ele>246</ele>
        <time>2022-02-15T18:42:34Z</time>
      </trkpt>
      <trkpt lat="46.25243" lon="3.39301">
        <ele>247</ele>
        <time>2022-02-15T18:42:39Z</time>
      </trkpt>
      <trkpt lat="46.25207" lon="3.39288">
        <ele>247</ele>
        <time>2022-02-15T18:42:45Z</time>
      </trkpt>
      <trkpt lat="46.25172" lon="3.39279">
        <ele>248</ele>
        <time>2022-02-15T18:42:52Z</time>
      </trkpt>
      <trkpt lat="46.25109" lon="3.39272">
        <ele>250</ele>
        <time>2022-02-15T18:43:03Z</time>
      </trkpt>
      <trkpt lat="46.25043" lon="3.3928">
        <ele>252</ele>
        <time>2022-02-15T18:43:15Z</time>
      </trkpt>
      <trkpt lat="46.24937" lon="3.39267">
        <ele>255</ele>
        <time>2022-02-15T18:43:33Z</time>
      </trkpt>
      <trkpt lat="46.24888" lon="3.39271">
        <ele>255</ele>
        <time>2022-02-15T18:43:42Z</time>
      </trkpt>
      <trkpt lat="46.2483" lon="3.39269">
        <ele>256</ele>
        <time>2022-02-15T18:43:53Z</time>
      </trkpt>
      <trkpt lat="46.24739" lon="3.3924">
        <ele>257</ele>
        <time>2022-02-15T18:44:09Z</time>
      </trkpt>
      <trkpt lat="46.24645" lon="3.39214">
        <ele>259</ele>
        <time>2022-02-15T18:44:26Z</time>
      </trkpt>
      <trkpt lat="46.24624" lon="3.39212">
        <ele>259</ele>
        <time>2022-02-15T18:44:30Z</time>
      </trkpt>
      <trkpt lat="46.24609" lon="3.39215">
        <ele>259</ele>
        <time>2022-02-15T18:44:33Z</time>
      </trkpt>
      <trkpt lat="46.24595" lon="3.39226">
        <ele>258</ele>
        <time>2022-02-15T18:44:35Z</time>
      </trkpt>
      <trkpt lat="46.24581" lon="3.3924">
        <ele>258</ele>
        <time>2022-02-15T18:44:38Z</time>
      </trkpt>
      <trkpt lat="46.24443" lon="3.39424">
        <ele>249</ele>
        <time>2022-02-15T18:45:12Z</time>
      </trkpt>
      <trkpt lat="46.24435" lon="3.39435">
        <ele>248</ele>
        <time>2022-02-15T18:45:14Z</time>
      </trkpt>
      <trkpt lat="46.24385" lon="3.39502">
        <ele>247</ele>
        <time>2022-02-15T18:45:26Z</time>
      </trkpt>
      <trkpt lat="46.24369" lon="3.39518">
        <ele>248</ele>
        <time>2022-02-15T18:45:29Z</time>
      </trkpt>
      <trkpt lat="46.24355" lon="3.39528">
        <ele>248</ele>
        <time>2022-02-15T18:45:32Z</time>
      </trkpt>
      <trkpt lat="46.24304" lon="3.39556">
        <ele>248</ele>
        <time>2022-02-15T18:45:42Z</time>
      </trkpt>
      <trkpt lat="46.24276" lon="3.39569">
        <ele>248</ele>
        <time>2022-02-15T18:45:47Z</time>
      </trkpt>
      <trkpt lat="46.24255" lon="3.39576">
        <ele>248</ele>
        <time>2022-02-15T18:45:51Z</time>
      </trkpt>
      <trkpt lat="46.24224" lon="3.3958">
        <ele>248</ele>
        <time>2022-02-15T18:45:56Z</time>
      </trkpt>
      <trkpt lat="46.24051" lon="3.39593">
        <ele>251</ele>
        <time>2022-02-15T18:46:27Z</time>
      </trkpt>
      <trkpt lat="46.24006" lon="3.39593">
        <ele>251</ele>
        <time>2022-02-15T18:46:35Z</time>
      </trkpt>
      <trkpt lat="46.23945" lon="3.3959">
        <ele>252</ele>
        <time>2022-02-15T18:46:46Z</time>
      </trkpt>
      <trkpt lat="46.23809" lon="3.39625">
        <ele>252</ele>
        <time>2022-02-15T18:47:11Z</time>
      </trkpt>
      <trkpt lat="46.23748" lon="3.39644">
        <ele>253</ele>
        <time>2022-02-15T18:47:22Z</time>
      </trkpt>
      <trkpt lat="46.23633" lon="3.39671">
        <ele>256</ele>
        <time>2022-02-15T18:47:43Z</time>
      </trkpt>
      <trkpt lat="46.23578" lon="3.39679">
        <ele>255</ele>
        <time>2022-02-15T18:47:52Z</time>
      </trkpt>
      <trkpt lat="46.23537" lon="3.39683">
        <ele>256</ele>
        <time>2022-02-15T18:48:00Z</time>
      </trkpt>
      <trkpt lat="46.23487" lon="3.3968">
        <ele>257</ele>
        <time>2022-02-15T18:48:09Z</time>
      </trkpt>
      <trkpt lat="46.23486" lon="3.39675">
        <ele>257</ele>
        <time>2022-02-15T18:48:09Z</time>
      </trkpt>
      <trkpt lat="46.23482" lon="3.39673">
        <ele>257</ele>
        <time>2022-02-15T18:48:10Z</time>
      </trkpt>
      <trkpt lat="46.23479" lon="3.39676">
        <ele>257</ele>
        <time>2022-02-15T18:48:11Z</time>
      </trkpt>
      <trkpt lat="46.23478" lon="3.39681">
        <ele>257</ele>
        <time>2022-02-15T18:48:11Z</time>
      </trkpt>
      <trkpt lat="46.23483" lon="3.39686">
        <ele>256</ele>
        <time>2022-02-15T18:48:12Z</time>
      </trkpt>
      <trkpt lat="46.23494" lon="3.39964">
        <ele>240</ele>
        <time>2022-02-15T18:48:47Z</time>
      </trkpt>
      <trkpt lat="46.23591" lon="3.42018">
        <ele>241</ele>
        <time>2022-02-15T18:53:00Z</time>
      </trkpt>
      <trkpt lat="46.23592" lon="3.42064">
        <ele>240</ele>
        <time>2022-02-15T18:53:06Z</time>
      </trkpt>
      <trkpt lat="46.23577" lon="3.42285">
        <ele>239</ele>
        <time>2022-02-15T18:53:33Z</time>
      </trkpt>
      <trkpt lat="46.23561" lon="3.42558">
        <ele>247</ele>
        <time>2022-02-15T18:54:07Z</time>
      </trkpt>
      <trkpt lat="46.23533" lon="3.43029">
        <ele>262</ele>
        <time>2022-02-15T18:55:05Z</time>
      </trkpt>
      <trkpt lat="46.2353" lon="3.43045">
        <ele>262</ele>
        <time>2022-02-15T18:55:07Z</time>
      </trkpt>
      <trkpt lat="46.23523" lon="3.43058">
        <ele>262</ele>
        <time>2022-02-15T18:55:09Z</time>
      </trkpt>
      <trkpt lat="46.23509" lon="3.43069">
        <ele>261</ele>
        <time>2022-02-15T18:55:12Z</time>
      </trkpt>
      <trkpt lat="46.23506" lon="3.43077">
        <ele>261</ele>
        <time>2022-02-15T18:55:13Z</time>
      </trkpt>
      <trkpt lat="46.23504" lon="3.43099">
        <ele>262</ele>
        <time>2022-02-15T18:55:16Z</time>
      </trkpt>
      <trkpt lat="46.23584" lon="3.43087">
        <ele>264</ele>
        <time>2022-02-15T18:55:30Z</time>
      </trkpt>
      <trkpt lat="46.23584" lon="3.43093">
        <ele>264</ele>
        <time>2022-02-15T18:55:31Z</time>
      </trkpt>
      <trkpt lat="46.23561" lon="3.43207">
        <ele>268</ele>
        <time>2022-02-15T18:55:45Z</time>
      </trkpt>
      <trkpt lat="46.23542" lon="3.43292">
        <ele>272</ele>
        <time>2022-02-15T18:55:56Z</time>
      </trkpt>
      <trkpt lat="46.23535" lon="3.4331">
        <ele>272</ele>
        <time>2022-02-15T18:55:59Z</time>
      </trkpt>
      <trkpt lat="46.23524" lon="3.43333">
        <ele>272</ele>
        <time>2022-02-15T18:56:02Z</time>
      </trkpt>
      <trkpt lat="46.23465" lon="3.43428">
        <ele>271</ele>
        <time>2022-02-15T18:56:18Z</time>
      </trkpt>
      <trkpt lat="46.23446" lon="3.43446">
        <ele>270</ele>
        <time>2022-02-15T18:56:22Z</time>
      </trkpt>
      <trkpt lat="46.23407" lon="3.43465">
        <ele>268</ele>
        <time>2022-02-15T18:56:29Z</time>
      </trkpt>
      <trkpt lat="46.23381" lon="3.43483">
        <ele>269</ele>
        <time>2022-02-15T18:56:35Z</time>
      </trkpt>
      <trkpt lat="46.23353" lon="3.4351">
        <ele>270</ele>
        <time>2022-02-15T18:56:41Z</time>
      </trkpt>
      <trkpt lat="46.23329" lon="3.43538">
        <ele>271</ele>
        <time>2022-02-15T18:56:46Z</time>
      </trkpt>
      <trkpt lat="46.23275" lon="3.43626">
        <ele>275</ele>
        <time>2022-02-15T18:57:01Z</time>
      </trkpt>
      <trkpt lat="46.23267" lon="3.43633">
        <ele>276</ele>
        <time>2022-02-15T18:57:02Z</time>
      </trkpt>
      <trkpt lat="46.23262" lon="3.43635">
        <ele>276</ele>
        <time>2022-02-15T18:57:03Z</time>
      </trkpt>
      <trkpt lat="46.2321" lon="3.43626">
        <ele>280</ele>
        <time>2022-02-15T18:57:12Z</time>
      </trkpt>
      <trkpt lat="46.23146" lon="3.43611">
        <ele>283</ele>
        <time>2022-02-15T18:57:24Z</time>
      </trkpt>
      <trkpt lat="46.23116" lon="3.43607">
        <ele>284</ele>
        <time>2022-02-15T18:57:29Z</time>
      </trkpt>
      <trkpt lat="46.23051" lon="3.43556">
        <ele>285</ele>
        <time>2022-02-15T18:57:42Z</time>
      </trkpt>
      <trkpt lat="46.23031" lon="3.4355">
        <ele>285</ele>
        <time>2022-02-15T18:57:46Z</time>
      </trkpt>
      <trkpt lat="46.22977" lon="3.43542">
        <ele>284</ele>
        <time>2022-02-15T18:57:56Z</time>
      </trkpt>
      <trkpt lat="46.22961" lon="3.43543">
        <ele>284</ele>
        <time>2022-02-15T18:57:59Z</time>
      </trkpt>
      <trkpt lat="46.22897" lon="3.43553">
        <ele>285</ele>
        <time>2022-02-15T18:58:10Z</time>
      </trkpt>
      <trkpt lat="46.22886" lon="3.43551">
        <ele>285</ele>
        <time>2022-02-15T18:58:12Z</time>
      </trkpt>
      <trkpt lat="46.22806" lon="3.43525">
        <ele>287</ele>
        <time>2022-02-15T18:58:27Z</time>
      </trkpt>
      <trkpt lat="46.22735" lon="3.43493">
        <ele>290</ele>
        <time>2022-02-15T18:58:40Z</time>
      </trkpt>
      <trkpt lat="46.22721" lon="3.43487">
        <ele>290</ele>
        <time>2022-02-15T18:58:42Z</time>
      </trkpt>
      <trkpt lat="46.22708" lon="3.43486">
        <ele>291</ele>
        <time>2022-02-15T18:58:45Z</time>
      </trkpt>
      <trkpt lat="46.22677" lon="3.43487">
        <ele>293</ele>
        <time>2022-02-15T18:58:50Z</time>
      </trkpt>
      <trkpt lat="46.22663" lon="3.4349">
        <ele>295</ele>
        <time>2022-02-15T18:58:53Z</time>
      </trkpt>
      <trkpt lat="46.22572" lon="3.43527">
        <ele>308</ele>
        <time>2022-02-15T18:59:10Z</time>
      </trkpt>
      <trkpt lat="46.22497" lon="3.43537">
        <ele>312</ele>
        <time>2022-02-15T18:59:23Z</time>
      </trkpt>
      <trkpt lat="46.22452" lon="3.43532">
        <ele>312</ele>
        <time>2022-02-15T18:59:31Z</time>
      </trkpt>
      <trkpt lat="46.22408" lon="3.43523">
        <ele>310</ele>
        <time>2022-02-15T18:59:39Z</time>
      </trkpt>
      <trkpt lat="46.22389" lon="3.43523">
        <ele>310</ele>
        <time>2022-02-15T18:59:42Z</time>
      </trkpt>
      <trkpt lat="46.22387" lon="3.43525">
        <ele>310</ele>
        <time>2022-02-15T18:59:43Z</time>
      </trkpt>
      <trkpt lat="46.22379" lon="3.43513">
        <ele>309</ele>
        <time>2022-02-15T18:59:45Z</time>
      </trkpt>
      <trkpt lat="46.22366" lon="3.43501">
        <ele>308</ele>
        <time>2022-02-15T18:59:48Z</time>
      </trkpt>
      <trkpt lat="46.22176" lon="3.43385">
        <ele>299</ele>
        <time>2022-02-15T19:00:24Z</time>
      </trkpt>
      <trkpt lat="46.22171" lon="3.4335">
        <ele>297</ele>
        <time>2022-02-15T19:00:29Z</time>
      </trkpt>
      <trkpt lat="46.22133" lon="3.43359">
        <ele>298</ele>
        <time>2022-02-15T19:00:36Z</time>
      </trkpt>
      <trkpt lat="46.22076" lon="3.43341">
        <ele>297</ele>
        <time>2022-02-15T19:00:46Z</time>
      </trkpt>
      <trkpt lat="46.21941" lon="3.43283">
        <ele>290</ele>
        <time>2022-02-15T19:01:11Z</time>
      </trkpt>
      <trkpt lat="46.21918" lon="3.43277">
        <ele>289</ele>
        <time>2022-02-15T19:01:15Z</time>
      </trkpt>
      <trkpt lat="46.21735" lon="3.43273">
        <ele>279</ele>
        <time>2022-02-15T19:01:48Z</time>
      </trkpt>
      <trkpt lat="46.21653" lon="3.43284">
        <ele>275</ele>
        <time>2022-02-15T19:02:02Z</time>
      </trkpt>
      <trkpt lat="46.21509" lon="3.43277">
        <ele>271</ele>
        <time>2022-02-15T19:02:28Z</time>
      </trkpt>
      <trkpt lat="46.21489" lon="3.43273">
        <ele>271</ele>
        <time>2022-02-15T19:02:32Z</time>
      </trkpt>
      <trkpt lat="46.21464" lon="3.43264">
        <ele>270</ele>
        <time>2022-02-15T19:02:36Z</time>
      </trkpt>
      <trkpt lat="46.21364" lon="3.43223">
        <ele>271</ele>
        <time>2022-02-15T19:02:55Z</time>
      </trkpt>
      <trkpt lat="46.21328" lon="3.43211">
        <ele>272</ele>
        <time>2022-02-15T19:03:01Z</time>
      </trkpt>
      <trkpt lat="46.21313" lon="3.43209">
        <ele>272</ele>
        <time>2022-02-15T19:03:04Z</time>
      </trkpt>
      <trkpt lat="46.21201" lon="3.43218">
        <ele>271</ele>
        <time>2022-02-15T19:03:24Z</time>
      </trkpt>
      <trkpt lat="46.20817" lon="3.43273">
        <ele>256</ele>
        <time>2022-02-15T19:04:33Z</time>
      </trkpt>
      <trkpt lat="46.20788" lon="3.43292">
        <ele>255</ele>
        <time>2022-02-15T19:04:38Z</time>
      </trkpt>
      <trkpt lat="46.20774" lon="3.43304">
        <ele>254</ele>
        <time>2022-02-15T19:04:41Z</time>
      </trkpt>
      <trkpt lat="46.20757" lon="3.43323">
        <ele>252</ele>
        <time>2022-02-15T19:04:45Z</time>
      </trkpt>
      <trkpt lat="46.20739" lon="3.43336">
        <ele>251</ele>
        <time>2022-02-15T19:04:48Z</time>
      </trkpt>
      <trkpt lat="46.20729" lon="3.43336">
        <ele>251</ele>
        <time>2022-02-15T19:04:50Z</time>
      </trkpt>
      <trkpt lat="46.20722" lon="3.43334">
        <ele>251</ele>
        <time>2022-02-15T19:04:52Z</time>
      </trkpt>
      <trkpt lat="46.20716" lon="3.43338">
        <ele>251</ele>
        <time>2022-02-15T19:04:53Z</time>
      </trkpt>
      <trkpt lat="46.20713" lon="3.43346">
        <ele>251</ele>
        <time>2022-02-15T19:04:54Z</time>
      </trkpt>
      <trkpt lat="46.20712" lon="3.43371">
        <ele>251</ele>
        <time>2022-02-15T19:04:57Z</time>
      </trkpt>
      <trkpt lat="46.20704" lon="3.43392">
        <ele>251</ele>
        <time>2022-02-15T19:05:00Z</time>
      </trkpt>
      <trkpt lat="46.20601" lon="3.43524">
        <ele>253</ele>
        <time>2022-02-15T19:05:24Z</time>
      </trkpt>
      <trkpt lat="46.20554" lon="3.43582">
        <ele>254</ele>
        <time>2022-02-15T19:05:35Z</time>
      </trkpt>
      <trkpt lat="46.20545" lon="3.43596">
        <ele>255</ele>
        <time>2022-02-15T19:05:38Z</time>
      </trkpt>
      <trkpt lat="46.20539" lon="3.43611">
        <ele>256</ele>
        <time>2022-02-15T19:05:40Z</time>
      </trkpt>
      <trkpt lat="46.20536" lon="3.43627">
        <ele>257</ele>
        <time>2022-02-15T19:05:42Z</time>
      </trkpt>
      <trkpt lat="46.20537" lon="3.43663">
        <ele>260</ele>
        <time>2022-02-15T19:05:46Z</time>
      </trkpt>
      <trkpt lat="46.20548" lon="3.43817">
        <ele>267</ele>
        <time>2022-02-15T19:06:05Z</time>
      </trkpt>
      <trkpt lat="46.2055" lon="3.43863">
        <ele>268</ele>
        <time>2022-02-15T19:06:11Z</time>
      </trkpt>
      <trkpt lat="46.20528" lon="3.44272">
        <ele>279</ele>
        <time>2022-02-15T19:07:02Z</time>
      </trkpt>
      <trkpt lat="46.20531" lon="3.4431">
        <ele>280</ele>
        <time>2022-02-15T19:07:06Z</time>
      </trkpt>
      <trkpt lat="46.20547" lon="3.44438">
        <ele>280</ele>
        <time>2022-02-15T19:07:22Z</time>
      </trkpt>
      <trkpt lat="46.20547" lon="3.44451">
        <ele>280</ele>
        <time>2022-02-15T19:07:24Z</time>
      </trkpt>
      <trkpt lat="46.20536" lon="3.4449">
        <ele>280</ele>
        <time>2022-02-15T19:07:29Z</time>
      </trkpt>
      <trkpt lat="46.20531" lon="3.44497">
        <ele>280</ele>
        <time>2022-02-15T19:07:30Z</time>
      </trkpt>
      <trkpt lat="46.2053" lon="3.44502">
        <ele>280</ele>
        <time>2022-02-15T19:07:31Z</time>
      </trkpt>
      <trkpt lat="46.20529" lon="3.44513">
        <ele>280</ele>
        <time>2022-02-15T19:07:32Z</time>
      </trkpt>
      <trkpt lat="46.20533" lon="3.44522">
        <ele>280</ele>
        <time>2022-02-15T19:07:34Z</time>
      </trkpt>
      <trkpt lat="46.20539" lon="3.44528">
        <ele>280</ele>
        <time>2022-02-15T19:07:35Z</time>
      </trkpt>
      <trkpt lat="46.20548" lon="3.44544">
        <ele>280</ele>
        <time>2022-02-15T19:07:38Z</time>
      </trkpt>
      <trkpt lat="46.20557" lon="3.44572">
        <ele>280</ele>
        <time>2022-02-15T19:07:41Z</time>
      </trkpt>
      <trkpt lat="46.20559" lon="3.44591">
        <ele>280</ele>
        <time>2022-02-15T19:07:44Z</time>
      </trkpt>
      <trkpt lat="46.20559" lon="3.44608">
        <ele>280</ele>
        <time>2022-02-15T19:07:46Z</time>
      </trkpt>
      <trkpt lat="46.20554" lon="3.44638">
        <ele>280</ele>
        <time>2022-02-15T19:07:50Z</time>
      </trkpt>
      <trkpt lat="46.20163" lon="3.46217">
        <ele>285</ele>
        <time>2022-02-15T19:11:16Z</time>
      </trkpt>
      <trkpt lat="46.20154" lon="3.46277">
        <ele>283</ele>
        <time>2022-02-15T19:11:24Z</time>
      </trkpt>
      <trkpt lat="46.20152" lon="3.46306">
        <ele>283</ele>
        <time>2022-02-15T19:11:27Z</time>
      </trkpt>
      <trkpt lat="46.20153" lon="3.46333">
        <ele>282</ele>
        <time>2022-02-15T19:11:31Z</time>
      </trkpt>
      <trkpt lat="46.20157" lon="3.46364">
        <ele>282</ele>
        <time>2022-02-15T19:11:34Z</time>
      </trkpt>
      <trkpt lat="46.20162" lon="3.46391">
        <ele>282</ele>
        <time>2022-02-15T19:11:38Z</time>
      </trkpt>
      <trkpt lat="46.20173" lon="3.46424">
        <ele>282</ele>
        <time>2022-02-15T19:11:42Z</time>
      </trkpt>
      <trkpt lat="46.2019" lon="3.4646">
        <ele>282</ele>
        <time>2022-02-15T19:11:48Z</time>
      </trkpt>
      <trkpt lat="46.2026" lon="3.4659">
        <ele>280</ele>
        <time>2022-02-15T19:12:08Z</time>
      </trkpt>
      <trkpt lat="46.2027" lon="3.46618">
        <ele>279</ele>
        <time>2022-02-15T19:12:12Z</time>
      </trkpt>
      <trkpt lat="46.20277" lon="3.46653">
        <ele>277</ele>
        <time>2022-02-15T19:12:16Z</time>
      </trkpt>
      <trkpt lat="46.20342" lon="3.47162">
        <ele>266</ele>
        <time>2022-02-15T19:13:20Z</time>
      </trkpt>
      <trkpt lat="46.20338" lon="3.47168">
        <ele>266</ele>
        <time>2022-02-15T19:13:21Z</time>
      </trkpt>
      <trkpt lat="46.20337" lon="3.47177">
        <ele>266</ele>
        <time>2022-02-15T19:13:22Z</time>
      </trkpt>
      <trkpt lat="46.20338" lon="3.47183">
        <ele>266</ele>
        <time>2022-02-15T19:13:23Z</time>
      </trkpt>
      <trkpt lat="46.203" lon="3.47218">
        <ele>265</ele>
        <time>2022-02-15T19:13:31Z</time>
      </trkpt>
      <trkpt lat="46.20291" lon="3.47224">
        <ele>265</ele>
        <time>2022-02-15T19:13:33Z</time>
      </trkpt>
      <trkpt lat="46.20283" lon="3.47227">
        <ele>265</ele>
        <time>2022-02-15T19:13:34Z</time>
      </trkpt>
      <trkpt lat="46.20266" lon="3.47233">
        <ele>265</ele>
        <time>2022-02-15T19:13:37Z</time>
      </trkpt>
      <trkpt lat="46.20224" lon="3.47241">
        <ele>266</ele>
        <time>2022-02-15T19:13:45Z</time>
      </trkpt>
      <trkpt lat="46.20217" lon="3.47244">
        <ele>266</ele>
        <time>2022-02-15T19:13:46Z</time>
      </trkpt>
      <trkpt lat="46.20212" lon="3.4725">
        <ele>266</ele>
        <time>2022-02-15T19:13:47Z</time>
      </trkpt>
      <trkpt lat="46.20205" lon="3.47245">
        <ele>267</ele>
        <time>2022-02-15T19:13:49Z</time>
      </trkpt>
      <trkpt lat="46.20165" lon="3.47247">
        <ele>268</ele>
        <time>2022-02-15T19:13:56Z</time>
      </trkpt>
      <trkpt lat="46.20145" lon="3.47243">
        <ele>268</ele>
        <time>2022-02-15T19:14:00Z</time>
      </trkpt>
      <trkpt lat="46.2013" lon="3.47251">
        <ele>268</ele>
        <time>2022-02-15T19:14:02Z</time>
      </trkpt>
      <trkpt lat="46.20108" lon="3.47257">
        <ele>268</ele>
        <time>2022-02-15T19:14:06Z</time>
      </trkpt>
      <trkpt lat="46.20092" lon="3.4727">
        <ele>268</ele>
        <time>2022-02-15T19:14:10Z</time>
      </trkpt>
      <trkpt lat="46.20089" lon="3.47285">
        <ele>269</ele>
        <time>2022-02-15T19:14:12Z</time>
      </trkpt>
      <trkpt lat="46.20076" lon="3.47299">
        <ele>269</ele>
        <time>2022-02-15T19:14:14Z</time>
      </trkpt>
      <trkpt lat="46.20049" lon="3.47317">
        <ele>270</ele>
        <time>2022-02-15T19:14:20Z</time>
      </trkpt>
      <trkpt lat="46.2004" lon="3.47338">
        <ele>271</ele>
        <time>2022-02-15T19:14:23Z</time>
      </trkpt>
      <trkpt lat="46.20042" lon="3.47459">
        <ele>273</ele>
        <time>2022-02-15T19:14:38Z</time>
      </trkpt>
      <trkpt lat="46.20036" lon="3.47493">
        <ele>273</ele>
        <time>2022-02-15T19:14:42Z</time>
      </trkpt>
      <trkpt lat="46.20018" lon="3.47514">
        <ele>273</ele>
        <time>2022-02-15T19:14:46Z</time>
      </trkpt>
      <trkpt lat="46.19735" lon="3.47735">
        <ele>278</ele>
        <time>2022-02-15T19:15:43Z</time>
      </trkpt>
      <trkpt lat="46.19097" lon="3.48227">
        <ele>293</ele>
        <time>2022-02-15T19:17:52Z</time>
      </trkpt>
      <trkpt lat="46.19089" lon="3.48238">
        <ele>293</ele>
        <time>2022-02-15T19:17:54Z</time>
      </trkpt>
      <trkpt lat="46.19081" lon="3.48251">
        <ele>293</ele>
        <time>2022-02-15T19:17:56Z</time>
      </trkpt>
      <trkpt lat="46.19076" lon="3.48263">
        <ele>293</ele>
        <time>2022-02-15T19:17:58Z</time>
      </trkpt>
      <trkpt lat="46.19075" lon="3.48291">
        <ele>293</ele>
        <time>2022-02-15T19:18:01Z</time>
      </trkpt>
      <trkpt lat="46.19078" lon="3.48346">
        <ele>292</ele>
        <time>2022-02-15T19:18:08Z</time>
      </trkpt>
      <trkpt lat="46.19078" lon="3.48361">
        <ele>292</ele>
        <time>2022-02-15T19:18:10Z</time>
      </trkpt>
      <trkpt lat="46.19071" lon="3.48414">
        <ele>291</ele>
        <time>2022-02-15T19:18:17Z</time>
      </trkpt>
      <trkpt lat="46.19069" lon="3.48466">
        <ele>290</ele>
        <time>2022-02-15T19:18:23Z</time>
      </trkpt>
      <trkpt lat="46.19067" lon="3.48474">
        <ele>290</ele>
        <time>2022-02-15T19:18:24Z</time>
      </trkpt>
      <trkpt lat="46.19062" lon="3.48479">
        <ele>289</ele>
        <time>2022-02-15T19:18:25Z</time>
      </trkpt>
      <trkpt lat="46.19056" lon="3.48482">
        <ele>289</ele>
        <time>2022-02-15T19:18:26Z</time>
      </trkpt>
      <trkpt lat="46.1903" lon="3.48475">
        <ele>288</ele>
        <time>2022-02-15T19:18:31Z</time>
      </trkpt>
      <trkpt lat="46.19021" lon="3.48476">
        <ele>288</ele>
        <time>2022-02-15T19:18:33Z</time>
      </trkpt>
      <trkpt lat="46.19015" lon="3.48482">
        <ele>287</ele>
        <time>2022-02-15T19:18:34Z</time>
      </trkpt>
      <trkpt lat="46.18987" lon="3.48527">
        <ele>285</ele>
        <time>2022-02-15T19:18:41Z</time>
      </trkpt>
      <trkpt lat="46.18929" lon="3.48614">
        <ele>279</ele>
        <time>2022-02-15T19:18:56Z</time>
      </trkpt>
      <trkpt lat="46.18919" lon="3.48625">
        <ele>279</ele>
        <time>2022-02-15T19:18:58Z</time>
      </trkpt>
      <trkpt lat="46.18895" lon="3.48637">
        <ele>276</ele>
        <time>2022-02-15T19:19:03Z</time>
      </trkpt>
      <trkpt lat="46.18838" lon="3.48641">
        <ele>271</ele>
        <time>2022-02-15T19:19:13Z</time>
      </trkpt>
      <trkpt lat="46.18827" lon="3.48644">
        <ele>271</ele>
        <time>2022-02-15T19:19:15Z</time>
      </trkpt>
      <trkpt lat="46.18818" lon="3.48651">
        <ele>270</ele>
        <time>2022-02-15T19:19:17Z</time>
      </trkpt>
      <trkpt lat="46.18809" lon="3.48661">
        <ele>269</ele>
        <time>2022-02-15T19:19:19Z</time>
      </trkpt>
      <trkpt lat="46.18802" lon="3.48675">
        <ele>269</ele>
        <time>2022-02-15T19:19:21Z</time>
      </trkpt>
      <trkpt lat="46.1879" lon="3.48692">
        <ele>268</ele>
        <time>2022-02-15T19:19:24Z</time>
      </trkpt>
      <trkpt lat="46.18782" lon="3.48732">
        <ele>268</ele>
        <time>2022-02-15T19:19:29Z</time>
      </trkpt>
      <trkpt lat="46.18773" lon="3.48749">
        <ele>268</ele>
        <time>2022-02-15T19:19:32Z</time>
      </trkpt>
      <trkpt lat="46.18766" lon="3.48757">
        <ele>267</ele>
        <time>2022-02-15T19:19:33Z</time>
      </trkpt>
      <trkpt lat="46.18747" lon="3.48769">
        <ele>267</ele>
        <time>2022-02-15T19:19:37Z</time>
      </trkpt>
      <trkpt lat="46.18731" lon="3.48775">
        <ele>267</ele>
        <time>2022-02-15T19:19:40Z</time>
      </trkpt>
      <trkpt lat="46.17958" lon="3.49049">
        <ele>299</ele>
        <time>2022-02-15T19:22:02Z</time>
      </trkpt>
      <trkpt lat="46.17917" lon="3.4907">
        <ele>300</ele>
        <time>2022-02-15T19:22:09Z</time>
      </trkpt>
      <trkpt lat="46.17894" lon="3.49089">
        <ele>300</ele>
        <time>2022-02-15T19:22:14Z</time>
      </trkpt>
      <trkpt lat="46.17863" lon="3.49131">
        <ele>301</ele>
        <time>2022-02-15T19:22:22Z</time>
      </trkpt>
      <trkpt lat="46.17233" lon="3.50096">
        <ele>354</ele>
        <time>2022-02-15T19:25:05Z</time>
      </trkpt>
      <trkpt lat="46.17199" lon="3.50138">
        <ele>355</ele>
        <time>2022-02-15T19:25:13Z</time>
      </trkpt>
      <trkpt lat="46.1718" lon="3.50156">
        <ele>356</ele>
        <time>2022-02-15T19:25:17Z</time>
      </trkpt>
      <trkpt lat="46.16826" lon="3.50435">
        <ele>380</ele>
        <time>2022-02-15T19:26:29Z</time>
      </trkpt>
      <trkpt lat="46.16809" lon="3.50445">
        <ele>383</ele>
        <time>2022-02-15T19:26:32Z</time>
      </trkpt>
      <trkpt lat="46.16793" lon="3.50451">
        <ele>385</ele>
        <time>2022-02-15T19:26:35Z</time>
      </trkpt>
      <trkpt lat="46.16782" lon="3.50434">
        <ele>385</ele>
        <time>2022-02-15T19:26:38Z</time>
      </trkpt>
      <trkpt lat="46.16773" lon="3.5044">
        <ele>386</ele>
        <time>2022-02-15T19:26:40Z</time>
      </trkpt>
      <trkpt lat="46.16579" lon="3.50474">
        <ele>401</ele>
        <time>2022-02-15T19:27:14Z</time>
      </trkpt>
      <trkpt lat="46.16436" lon="3.5051">
        <ele>413</ele>
        <time>2022-02-15T19:27:40Z</time>
      </trkpt>
      <trkpt lat="46.16402" lon="3.50514">
        <ele>415</ele>
        <time>2022-02-15T19:27:46Z</time>
      </trkpt>
      <trkpt lat="46.16375" lon="3.50515">
        <ele>416</ele>
        <time>2022-02-15T19:27:51Z</time>
      </trkpt>
      <trkpt lat="46.16196" lon="3.50493">
        <ele>425</ele>
        <time>2022-02-15T19:28:23Z</time>
      </trkpt>
      <trkpt lat="46.16073" lon="3.50488">
        <ele>427</ele>
        <time>2022-02-15T19:28:45Z</time>
      </trkpt>
      <trkpt lat="46.16032" lon="3.50501">
        <ele>428</ele>
        <time>2022-02-15T19:28:52Z</time>
      </trkpt>
      <trkpt lat="46.16013" lon="3.50504">
        <ele>429</ele>
        <time>2022-02-15T19:28:56Z</time>
      </trkpt>
      <trkpt lat="46.15912" lon="3.50513">
        <ele>427</ele>
        <time>2022-02-15T19:29:14Z</time>
      </trkpt>
      <trkpt lat="46.15888" lon="3.50517">
        <ele>427</ele>
        <time>2022-02-15T19:29:18Z</time>
      </trkpt>
      <trkpt lat="46.15864" lon="3.50524">
        <ele>427</ele>
        <time>2022-02-15T19:29:23Z</time>
      </trkpt>
      <trkpt lat="46.158" lon="3.50548">
        <ele>429</ele>
        <time>2022-02-15T19:29:34Z</time>
      </trkpt>
      <trkpt lat="46.15782" lon="3.50554">
        <ele>430</ele>
        <time>2022-02-15T19:29:38Z</time>
      </trkpt>
      <trkpt lat="46.15765" lon="3.50556">
        <ele>430</ele>
        <time>2022-02-15T19:29:41Z</time>
      </trkpt>
      <trkpt lat="46.1575" lon="3.50557">
        <ele>431</ele>
        <time>2022-02-15T19:29:43Z</time>
      </trkpt>
      <trkpt lat="46.15679" lon="3.50547">
        <ele>431</ele>
        <time>2022-02-15T19:29:56Z</time>
      </trkpt>
      <trkpt lat="46.15665" lon="3.50547">
        <ele>432</ele>
        <time>2022-02-15T19:29:59Z</time>
      </trkpt>
      <trkpt lat="46.15494" lon="3.50603">
        <ele>435</ele>
        <time>2022-02-15T19:30:30Z</time>
      </trkpt>
      <trkpt lat="46.15477" lon="3.50612">
        <ele>435</ele>
        <time>2022-02-15T19:30:33Z</time>
      </trkpt>
      <trkpt lat="46.15463" lon="3.50623">
        <ele>435</ele>
        <time>2022-02-15T19:30:36Z</time>
      </trkpt>
      <trkpt lat="46.1545" lon="3.50638">
        <ele>435</ele>
        <time>2022-02-15T19:30:39Z</time>
      </trkpt>
      <trkpt lat="46.1544" lon="3.50654">
        <ele>435</ele>
        <time>2022-02-15T19:30:41Z</time>
      </trkpt>
      <trkpt lat="46.15429" lon="3.50679">
        <ele>435</ele>
        <time>2022-02-15T19:30:45Z</time>
      </trkpt>
      <trkpt lat="46.15424" lon="3.50699">
        <ele>435</ele>
        <time>2022-02-15T19:30:48Z</time>
      </trkpt>
      <trkpt lat="46.15418" lon="3.50826">
        <ele>438</ele>
        <time>2022-02-15T19:31:03Z</time>
      </trkpt>
      <trkpt lat="46.15416" lon="3.50846">
        <ele>439</ele>
        <time>2022-02-15T19:31:06Z</time>
      </trkpt>
      <trkpt lat="46.15411" lon="3.50864">
        <ele>440</ele>
        <time>2022-02-15T19:31:08Z</time>
      </trkpt>
      <trkpt lat="46.15394" lon="3.50921">
        <ele>442</ele>
        <time>2022-02-15T19:31:16Z</time>
      </trkpt>
      <trkpt lat="46.15268" lon="3.51285">
        <ele>465</ele>
        <time>2022-02-15T19:32:06Z</time>
      </trkpt>
      <trkpt lat="46.15234" lon="3.51396">
        <ele>471</ele>
        <time>2022-02-15T19:32:21Z</time>
      </trkpt>
      <trkpt lat="46.15203" lon="3.51452">
        <ele>474</ele>
        <time>2022-02-15T19:32:30Z</time>
      </trkpt>
      <trkpt lat="46.15179" lon="3.51517">
        <ele>475</ele>
        <time>2022-02-15T19:32:39Z</time>
      </trkpt>
      <trkpt lat="46.15146" lon="3.51594">
        <ele>476</ele>
        <time>2022-02-15T19:32:50Z</time>
      </trkpt>
      <trkpt lat="46.15094" lon="3.51677">
        <ele>479</ele>
        <time>2022-02-15T19:33:04Z</time>
      </trkpt>
      <trkpt lat="46.15086" lon="3.51683">
        <ele>479</ele>
        <time>2022-02-15T19:33:05Z</time>
      </trkpt>
      <trkpt lat="46.15079" lon="3.51684">
        <ele>479</ele>
        <time>2022-02-15T19:33:07Z</time>
      </trkpt>
      <trkpt lat="46.15071" lon="3.5168">
        <ele>479</ele>
        <time>2022-02-15T19:33:08Z</time>
      </trkpt>
      <trkpt lat="46.14849" lon="3.51544">
        <ele>476</ele>
        <time>2022-02-15T19:33:51Z</time>
      </trkpt>
      <trkpt lat="46.14846" lon="3.51545">
        <ele>476</ele>
        <time>2022-02-15T19:33:52Z</time>
      </trkpt>
      <trkpt lat="46.14899" lon="3.51792">
        <ele>471</ele>
        <time>2022-02-15T19:34:24Z</time>
      </trkpt>
      <trkpt lat="46.14907" lon="3.51825">
        <ele>471</ele>
        <time>2022-02-15T19:34:28Z</time>
      </trkpt>
      <trkpt lat="46.14919" lon="3.51859">
        <ele>470</ele>
        <time>2022-02-15T19:34:33Z</time>
      </trkpt>
      <trkpt lat="46.14972" lon="3.52">
        <ele>462</ele>
        <time>2022-02-15T19:34:52Z</time>
      </trkpt>
      <trkpt lat="46.14989" lon="3.52039">
        <ele>461</ele>
        <time>2022-02-15T19:34:58Z</time>
      </trkpt>
      <trkpt lat="46.15061" lon="3.52148">
        <ele>452</ele>
        <time>2022-02-15T19:35:17Z</time>
      </trkpt>
      <trkpt lat="46.15068" lon="3.52164">
        <ele>451</ele>
        <time>2022-02-15T19:35:19Z</time>
      </trkpt>
      <trkpt lat="46.1507" lon="3.5218">
        <ele>450</ele>
        <time>2022-02-15T19:35:21Z</time>
      </trkpt>
      <trkpt lat="46.15066" lon="3.522">
        <ele>449</ele>
        <time>2022-02-15T19:35:23Z</time>
      </trkpt>
      <trkpt lat="46.15057" lon="3.52219">
        <ele>448</ele>
        <time>2022-02-15T19:35:26Z</time>
      </trkpt>
      <trkpt lat="46.15003" lon="3.52284">
        <ele>444</ele>
        <time>2022-02-15T19:35:39Z</time>
      </trkpt>
      <trkpt lat="46.14979" lon="3.52299">
        <ele>442</ele>
        <time>2022-02-15T19:35:43Z</time>
      </trkpt>
      <trkpt lat="46.14954" lon="3.52308">
        <ele>440</ele>
        <time>2022-02-15T19:35:48Z</time>
      </trkpt>
      <trkpt lat="46.14899" lon="3.52322">
        <ele>438</ele>
        <time>2022-02-15T19:35:58Z</time>
      </trkpt>
      <trkpt lat="46.14875" lon="3.52332">
        <ele>438</ele>
        <time>2022-02-15T19:36:02Z</time>
      </trkpt>
      <trkpt lat="46.14861" lon="3.52339">
        <ele>437</ele>
        <time>2022-02-15T19:36:05Z</time>
      </trkpt>
      <trkpt lat="46.14845" lon="3.52355">
        <ele>437</ele>
        <time>2022-02-15T19:36:09Z</time>
      </trkpt>
      <trkpt lat="46.14831" lon="3.52383">
        <ele>435</ele>
        <time>2022-02-15T19:36:13Z</time>
      </trkpt>
      <trkpt lat="46.14812" lon="3.5243">
        <ele>433</ele>
        <time>2022-02-15T19:36:20Z</time>
      </trkpt>
      <trkpt lat="46.148" lon="3.52466">
        <ele>432</ele>
        <time>2022-02-15T19:36:24Z</time>
      </trkpt>
      <trkpt lat="46.14782" lon="3.52536">
        <ele>432</ele>
        <time>2022-02-15T19:36:34Z</time>
      </trkpt>
      <trkpt lat="46.14773" lon="3.5259">
        <ele>434</ele>
        <time>2022-02-15T19:36:40Z</time>
      </trkpt>
      <trkpt lat="46.14766" lon="3.52645">
        <ele>435</ele>
        <time>2022-02-15T19:36:47Z</time>
      </trkpt>
      <trkpt lat="46.14757" lon="3.528">
        <ele>435</ele>
        <time>2022-02-15T19:37:07Z</time>
      </trkpt>
      <trkpt lat="46.14739" lon="3.52956">
        <ele>432</ele>
        <time>2022-02-15T19:37:26Z</time>
      </trkpt>
      <trkpt lat="46.14692" lon="3.5333">
        <ele>425</ele>
        <time>2022-02-15T19:38:13Z</time>
      </trkpt>
      <trkpt lat="46.14681" lon="3.53393">
        <ele>426</ele>
        <time>2022-02-15T19:38:21Z</time>
      </trkpt>
      <trkpt lat="46.14607" lon="3.53682">
        <ele>432</ele>
        <time>2022-02-15T19:38:59Z</time>
      </trkpt>
      <trkpt lat="46.14595" lon="3.53736">
        <ele>434</ele>
        <time>2022-02-15T19:39:06Z</time>
      </trkpt>
      <trkpt lat="46.14528" lon="3.54106">
        <ele>432</ele>
        <time>2022-02-15T19:39:53Z</time>
      </trkpt>
      <trkpt lat="46.14527" lon="3.54141">
        <ele>431</ele>
        <time>2022-02-15T19:39:57Z</time>
      </trkpt>
      <trkpt lat="46.1453" lon="3.54167">
        <ele>430</ele>
        <time>2022-02-15T19:40:01Z</time>
      </trkpt>
      <trkpt lat="46.14534" lon="3.5419">
        <ele>431</ele>
        <time>2022-02-15T19:40:04Z</time>
      </trkpt>
      <trkpt lat="46.1454" lon="3.5421">
        <ele>431</ele>
        <time>2022-02-15T19:40:06Z</time>
      </trkpt>
      <trkpt lat="46.14584" lon="3.54315">
        <ele>436</ele>
        <time>2022-02-15T19:40:21Z</time>
      </trkpt>
      <trkpt lat="46.14644" lon="3.54466">
        <ele>440</ele>
        <time>2022-02-15T19:40:43Z</time>
      </trkpt>
      <trkpt lat="46.1465" lon="3.54487">
        <ele>440</ele>
        <time>2022-02-15T19:40:46Z</time>
      </trkpt>
      <trkpt lat="46.14657" lon="3.54531">
        <ele>441</ele>
        <time>2022-02-15T19:40:51Z</time>
      </trkpt>
      <trkpt lat="46.14659" lon="3.54558">
        <ele>441</ele>
        <time>2022-02-15T19:40:54Z</time>
      </trkpt>
      <trkpt lat="46.14658" lon="3.54576">
        <ele>442</ele>
        <time>2022-02-15T19:40:57Z</time>
      </trkpt>
      <trkpt lat="46.14641" lon="3.54719">
        <ele>449</ele>
        <time>2022-02-15T19:41:15Z</time>
      </trkpt>
      <trkpt lat="46.14612" lon="3.54935">
        <ele>460</ele>
        <time>2022-02-15T19:41:42Z</time>
      </trkpt>
      <trkpt lat="46.14608" lon="3.54985">
        <ele>460</ele>
        <time>2022-02-15T19:41:48Z</time>
      </trkpt>
      <trkpt lat="46.14617" lon="3.551">
        <ele>456</ele>
        <time>2022-02-15T19:42:02Z</time>
      </trkpt>
      <trkpt lat="46.14636" lon="3.55262">
        <ele>452</ele>
        <time>2022-02-15T19:42:22Z</time>
      </trkpt>
      <trkpt lat="46.14636" lon="3.55289">
        <ele>451</ele>
        <time>2022-02-15T19:42:26Z</time>
      </trkpt>
      <trkpt lat="46.14634" lon="3.55317">
        <ele>450</ele>
        <time>2022-02-15T19:42:29Z</time>
      </trkpt>
      <trkpt lat="46.1463" lon="3.55346">
        <ele>449</ele>
        <time>2022-02-15T19:42:33Z</time>
      </trkpt>
      <trkpt lat="46.14625" lon="3.55372">
        <ele>448</ele>
        <time>2022-02-15T19:42:36Z</time>
      </trkpt>
      <trkpt lat="46.14618" lon="3.55392">
        <ele>447</ele>
        <time>2022-02-15T19:42:39Z</time>
      </trkpt>
      <trkpt lat="46.14608" lon="3.5541">
        <ele>446</ele>
        <time>2022-02-15T19:42:42Z</time>
      </trkpt>
      <trkpt lat="46.145" lon="3.55551">
        <ele>441</ele>
        <time>2022-02-15T19:43:08Z</time>
      </trkpt>
      <trkpt lat="46.14474" lon="3.55593">
        <ele>442</ele>
        <time>2022-02-15T19:43:15Z</time>
      </trkpt>
      <trkpt lat="46.14461" lon="3.5562">
        <ele>442</ele>
        <time>2022-02-15T19:43:19Z</time>
      </trkpt>
      <trkpt lat="46.14447" lon="3.55654">
        <ele>442</ele>
        <time>2022-02-15T19:43:24Z</time>
      </trkpt>
      <trkpt lat="46.14425" lon="3.55726">
        <ele>443</ele>
        <time>2022-02-15T19:43:33Z</time>
      </trkpt>
      <trkpt lat="46.14416" lon="3.55751">
        <ele>443</ele>
        <time>2022-02-15T19:43:37Z</time>
      </trkpt>
      <trkpt lat="46.144" lon="3.55779">
        <ele>443</ele>
        <time>2022-02-15T19:43:41Z</time>
      </trkpt>
      <trkpt lat="46.14329" lon="3.55888">
        <ele>450</ele>
        <time>2022-02-15T19:44:00Z</time>
      </trkpt>
      <trkpt lat="46.14301" lon="3.55928">
        <ele>450</ele>
        <time>2022-02-15T19:44:07Z</time>
      </trkpt>
      <trkpt lat="46.14273" lon="3.55962">
        <ele>450</ele>
        <time>2022-02-15T19:44:13Z</time>
      </trkpt>
      <trkpt lat="46.14007" lon="3.56276">
        <ele>457</ele>
        <time>2022-02-15T19:45:14Z</time>
      </trkpt>
      <trkpt lat="46.14" lon="3.56287">
        <ele>458</ele>
        <time>2022-02-15T19:45:16Z</time>
      </trkpt>
      <trkpt lat="46.13964" lon="3.56387">
        <ele>458</ele>
        <time>2022-02-15T19:45:30Z</time>
      </trkpt>
      <trkpt lat="46.13801" lon="3.5676">
        <ele>450</ele>
        <time>2022-02-15T19:46:24Z</time>
      </trkpt>
      <trkpt lat="46.13788" lon="3.56797">
        <ele>450</ele>
        <time>2022-02-15T19:46:30Z</time>
      </trkpt>
      <trkpt lat="46.13781" lon="3.56824">
        <ele>450</ele>
        <time>2022-02-15T19:46:33Z</time>
      </trkpt>
      <trkpt lat="46.13777" lon="3.56848">
        <ele>450</ele>
        <time>2022-02-15T19:46:36Z</time>
      </trkpt>
      <trkpt lat="46.13776" lon="3.56872">
        <ele>450</ele>
        <time>2022-02-15T19:46:39Z</time>
      </trkpt>
      <trkpt lat="46.13781" lon="3.56974">
        <ele>450</ele>
        <time>2022-02-15T19:46:52Z</time>
      </trkpt>
      <trkpt lat="46.13785" lon="3.57013">
        <ele>450</ele>
        <time>2022-02-15T19:46:57Z</time>
      </trkpt>
      <trkpt lat="46.13814" lon="3.57165">
        <ele>446</ele>
        <time>2022-02-15T19:47:16Z</time>
      </trkpt>
      <trkpt lat="46.13818" lon="3.57191">
        <ele>446</ele>
        <time>2022-02-15T19:47:19Z</time>
      </trkpt>
      <trkpt lat="46.13818" lon="3.57217">
        <ele>445</ele>
        <time>2022-02-15T19:47:23Z</time>
      </trkpt>
      <trkpt lat="46.13808" lon="3.5741">
        <ele>442</ele>
        <time>2022-02-15T19:47:46Z</time>
      </trkpt>
      <trkpt lat="46.13805" lon="3.57437">
        <ele>442</ele>
        <time>2022-02-15T19:47:50Z</time>
      </trkpt>
      <trkpt lat="46.13801" lon="3.57455">
        <ele>443</ele>
        <time>2022-02-15T19:47:52Z</time>
      </trkpt>
      <trkpt lat="46.13795" lon="3.57471">
        <ele>443</ele>
        <time>2022-02-15T19:47:54Z</time>
      </trkpt>
      <trkpt lat="46.13783" lon="3.57489">
        <ele>444</ele>
        <time>2022-02-15T19:47:57Z</time>
      </trkpt>
      <trkpt lat="46.13564" lon="3.57729">
        <ele>452</ele>
        <time>2022-02-15T19:48:46Z</time>
      </trkpt>
      <trkpt lat="46.13557" lon="3.57743">
        <ele>453</ele>
        <time>2022-02-15T19:48:48Z</time>
      </trkpt>
      <trkpt lat="46.13553" lon="3.57759">
        <ele>454</ele>
        <time>2022-02-15T19:48:51Z</time>
      </trkpt>
      <trkpt lat="46.13551" lon="3.57778">
        <ele>455</ele>
        <time>2022-02-15T19:48:53Z</time>
      </trkpt>
      <trkpt lat="46.13562" lon="3.57954">
        <ele>455</ele>
        <time>2022-02-15T19:49:15Z</time>
      </trkpt>
      <trkpt lat="46.13561" lon="3.57985">
        <ele>454</ele>
        <time>2022-02-15T19:49:19Z</time>
      </trkpt>
      <trkpt lat="46.13557" lon="3.58014">
        <ele>454</ele>
        <time>2022-02-15T19:49:22Z</time>
      </trkpt>
      <trkpt lat="46.13503" lon="3.58249">
        <ele>445</ele>
        <time>2022-02-15T19:49:53Z</time>
      </trkpt>
      <trkpt lat="46.13494" lon="3.58282">
        <ele>443</ele>
        <time>2022-02-15T19:49:57Z</time>
      </trkpt>
      <trkpt lat="46.13484" lon="3.58304">
        <ele>441</ele>
        <time>2022-02-15T19:50:00Z</time>
      </trkpt>
      <trkpt lat="46.13423" lon="3.58425">
        <ele>439</ele>
        <time>2022-02-15T19:50:19Z</time>
      </trkpt>
      <trkpt lat="46.13408" lon="3.58452">
        <ele>440</ele>
        <time>2022-02-15T19:50:23Z</time>
      </trkpt>
      <trkpt lat="46.13394" lon="3.58471">
        <ele>440</ele>
        <time>2022-02-15T19:50:26Z</time>
      </trkpt>
      <trkpt lat="46.13382" lon="3.58482">
        <ele>440</ele>
        <time>2022-02-15T19:50:29Z</time>
      </trkpt>
      <trkpt lat="46.13154" lon="3.58654">
        <ele>443</ele>
        <time>2022-02-15T19:51:15Z</time>
      </trkpt>
      <trkpt lat="46.13141" lon="3.58667">
        <ele>443</ele>
        <time>2022-02-15T19:51:18Z</time>
      </trkpt>
      <trkpt lat="46.13133" lon="3.58681">
        <ele>442</ele>
        <time>2022-02-15T19:51:20Z</time>
      </trkpt>
      <trkpt lat="46.13123" lon="3.58699">
        <ele>442</ele>
        <time>2022-02-15T19:51:23Z</time>
      </trkpt>
      <trkpt lat="46.13117" lon="3.5872">
        <ele>441</ele>
        <time>2022-02-15T19:51:26Z</time>
      </trkpt>
      <trkpt lat="46.13115" lon="3.5874">
        <ele>441</ele>
        <time>2022-02-15T19:51:28Z</time>
      </trkpt>
      <trkpt lat="46.13115" lon="3.58762">
        <ele>441</ele>
        <time>2022-02-15T19:51:31Z</time>
      </trkpt>
      <trkpt lat="46.13119" lon="3.5878">
        <ele>440</ele>
        <time>2022-02-15T19:51:33Z</time>
      </trkpt>
      <trkpt lat="46.1325" lon="3.59145">
        <ele>450</ele>
        <time>2022-02-15T19:52:24Z</time>
      </trkpt>
      <trkpt lat="46.13259" lon="3.59176">
        <ele>450</ele>
        <time>2022-02-15T19:52:28Z</time>
      </trkpt>
      <trkpt lat="46.13312" lon="3.59427">
        <ele>446</ele>
        <time>2022-02-15T19:53:00Z</time>
      </trkpt>
      <trkpt lat="46.1333" lon="3.59481">
        <ele>448</ele>
        <time>2022-02-15T19:53:08Z</time>
      </trkpt>
      <trkpt lat="46.13341" lon="3.59502">
        <ele>448</ele>
        <time>2022-02-15T19:53:11Z</time>
      </trkpt>
      <trkpt lat="46.13358" lon="3.59528">
        <ele>448</ele>
        <time>2022-02-15T19:53:15Z</time>
      </trkpt>
      <trkpt lat="46.1346" lon="3.59683">
        <ele>458</ele>
        <time>2022-02-15T19:53:42Z</time>
      </trkpt>
      <trkpt lat="46.13687" lon="3.60061">
        <ele>461</ele>
        <time>2022-02-15T19:54:43Z</time>
      </trkpt>
      <trkpt lat="46.1371" lon="3.60105">
        <ele>462</ele>
        <time>2022-02-15T19:54:50Z</time>
      </trkpt>
      <trkpt lat="46.13713" lon="3.60121">
        <ele>462</ele>
        <time>2022-02-15T19:54:52Z</time>
      </trkpt>
      <trkpt lat="46.13714" lon="3.60138">
        <ele>462</ele>
        <time>2022-02-15T19:54:54Z</time>
      </trkpt>
      <trkpt lat="46.13711" lon="3.60153">
        <ele>462</ele>
        <time>2022-02-15T19:54:56Z</time>
      </trkpt>
      <trkpt lat="46.13705" lon="3.60169">
        <ele>462</ele>
        <time>2022-02-15T19:54:58Z</time>
      </trkpt>
      <trkpt lat="46.13453" lon="3.60609">
        <ele>471</ele>
        <time>2022-02-15T19:56:09Z</time>
      </trkpt>
      <trkpt lat="46.1335" lon="3.60786">
        <ele>476</ele>
        <time>2022-02-15T19:56:37Z</time>
      </trkpt>
      <trkpt lat="46.13332" lon="3.6082">
        <ele>476</ele>
        <time>2022-02-15T19:56:43Z</time>
      </trkpt>
      <trkpt lat="46.13323" lon="3.60847">
        <ele>475</ele>
        <time>2022-02-15T19:56:46Z</time>
      </trkpt>
      <trkpt lat="46.13307" lon="3.60902">
        <ele>472</ele>
        <time>2022-02-15T19:56:54Z</time>
      </trkpt>
      <trkpt lat="46.133" lon="3.60944">
        <ele>469</ele>
        <time>2022-02-15T19:56:59Z</time>
      </trkpt>
      <trkpt lat="46.13298" lon="3.6098">
        <ele>467</ele>
        <time>2022-02-15T19:57:03Z</time>
      </trkpt>
      <trkpt lat="46.13298" lon="3.61009">
        <ele>465</ele>
        <time>2022-02-15T19:57:07Z</time>
      </trkpt>
      <trkpt lat="46.13302" lon="3.61031">
        <ele>464</ele>
        <time>2022-02-15T19:57:10Z</time>
      </trkpt>
      <trkpt lat="46.1333" lon="3.61153">
        <ele>459</ele>
        <time>2022-02-15T19:57:26Z</time>
      </trkpt>
      <trkpt lat="46.13334" lon="3.61192">
        <ele>458</ele>
        <time>2022-02-15T19:57:30Z</time>
      </trkpt>
      <trkpt lat="46.13331" lon="3.61215">
        <ele>457</ele>
        <time>2022-02-15T19:57:33Z</time>
      </trkpt>
      <trkpt lat="46.13326" lon="3.61241">
        <ele>457</ele>
        <time>2022-02-15T19:57:37Z</time>
      </trkpt>
      <trkpt lat="46.1332" lon="3.61259">
        <ele>457</ele>
        <time>2022-02-15T19:57:39Z</time>
      </trkpt>
      <trkpt lat="46.133" lon="3.61292">
        <ele>457</ele>
        <time>2022-02-15T19:57:45Z</time>
      </trkpt>
      <trkpt lat="46.13267" lon="3.61339">
        <ele>461</ele>
        <time>2022-02-15T19:57:53Z</time>
      </trkpt>
      <trkpt lat="46.13251" lon="3.61366">
        <ele>463</ele>
        <time>2022-02-15T19:57:57Z</time>
      </trkpt>
      <trkpt lat="46.1324" lon="3.61396">
        <ele>465</ele>
        <time>2022-02-15T19:58:01Z</time>
      </trkpt>
      <trkpt lat="46.13236" lon="3.61425">
        <ele>466</ele>
        <time>2022-02-15T19:58:05Z</time>
      </trkpt>
      <trkpt lat="46.13212" lon="3.61644">
        <ele>477</ele>
        <time>2022-02-15T19:58:32Z</time>
      </trkpt>
      <trkpt lat="46.1321" lon="3.61678">
        <ele>477</ele>
        <time>2022-02-15T19:58:37Z</time>
      </trkpt>
      <trkpt lat="46.13214" lon="3.61912">
        <ele>474</ele>
        <time>2022-02-15T19:59:05Z</time>
      </trkpt>
      <trkpt lat="46.13207" lon="3.61961">
        <ele>474</ele>
        <time>2022-02-15T19:59:12Z</time>
      </trkpt>
      <trkpt lat="46.13076" lon="3.62603">
        <ele>479</ele>
        <time>2022-02-15T20:00:34Z</time>
      </trkpt>
      <trkpt lat="46.13065" lon="3.62683">
        <ele>478</ele>
        <time>2022-02-15T20:00:44Z</time>
      </trkpt>
      <trkpt lat="46.13052" lon="3.62824">
        <ele>473</ele>
        <time>2022-02-15T20:01:02Z</time>
      </trkpt>
      <trkpt lat="46.13047" lon="3.62852">
        <ele>472</ele>
        <time>2022-02-15T20:01:05Z</time>
      </trkpt>
      <trkpt lat="46.13038" lon="3.62882">
        <ele>471</ele>
        <time>2022-02-15T20:01:09Z</time>
      </trkpt>
      <trkpt lat="46.13" lon="3.62984">
        <ele>473</ele>
        <time>2022-02-15T20:01:24Z</time>
      </trkpt>
      <trkpt lat="46.12969" lon="3.63044">
        <ele>473</ele>
        <time>2022-02-15T20:01:33Z</time>
      </trkpt>
      <trkpt lat="46.12893" lon="3.63158">
        <ele>477</ele>
        <time>2022-02-15T20:01:52Z</time>
      </trkpt>
      <trkpt lat="46.12873" lon="3.63192">
        <ele>477</ele>
        <time>2022-02-15T20:01:58Z</time>
      </trkpt>
      <trkpt lat="46.12864" lon="3.63215">
        <ele>478</ele>
        <time>2022-02-15T20:02:01Z</time>
      </trkpt>
      <trkpt lat="46.12859" lon="3.63244">
        <ele>478</ele>
        <time>2022-02-15T20:02:05Z</time>
      </trkpt>
      <trkpt lat="46.1283" lon="3.63508">
        <ele>478</ele>
        <time>2022-02-15T20:02:38Z</time>
      </trkpt>
      <trkpt lat="46.128" lon="3.63762">
        <ele>485</ele>
        <time>2022-02-15T20:03:09Z</time>
      </trkpt>
      <trkpt lat="46.12799" lon="3.6378">
        <ele>485</ele>
        <time>2022-02-15T20:03:12Z</time>
      </trkpt>
      <trkpt lat="46.12801" lon="3.63812">
        <ele>485</ele>
        <time>2022-02-15T20:03:16Z</time>
      </trkpt>
      <trkpt lat="46.12862" lon="3.64116">
        <ele>483</ele>
        <time>2022-02-15T20:03:55Z</time>
      </trkpt>
      <trkpt lat="46.12864" lon="3.64137">
        <ele>483</ele>
        <time>2022-02-15T20:03:57Z</time>
      </trkpt>
      <trkpt lat="46.1286" lon="3.64176">
        <ele>482</ele>
        <time>2022-02-15T20:04:02Z</time>
      </trkpt>
      <trkpt lat="46.12843" lon="3.64217">
        <ele>482</ele>
        <time>2022-02-15T20:04:08Z</time>
      </trkpt>
      <trkpt lat="46.12812" lon="3.64268">
        <ele>480</ele>
        <time>2022-02-15T20:04:16Z</time>
      </trkpt>
      <trkpt lat="46.12754" lon="3.64344">
        <ele>475</ele>
        <time>2022-02-15T20:04:30Z</time>
      </trkpt>
      <trkpt lat="46.12738" lon="3.64367">
        <ele>472</ele>
        <time>2022-02-15T20:04:34Z</time>
      </trkpt>
      <trkpt lat="46.12729" lon="3.64386">
        <ele>471</ele>
        <time>2022-02-15T20:04:37Z</time>
      </trkpt>
      <trkpt lat="46.12725" lon="3.64408">
        <ele>470</ele>
        <time>2022-02-15T20:04:40Z</time>
      </trkpt>
      <trkpt lat="46.12729" lon="3.64463">
        <ele>467</ele>
        <time>2022-02-15T20:04:47Z</time>
      </trkpt>
      <trkpt lat="46.12728" lon="3.64484">
        <ele>466</ele>
        <time>2022-02-15T20:04:49Z</time>
      </trkpt>
      <trkpt lat="46.12722" lon="3.64498">
        <ele>465</ele>
        <time>2022-02-15T20:04:51Z</time>
      </trkpt>
      <trkpt lat="46.12711" lon="3.64511">
        <ele>464</ele>
        <time>2022-02-15T20:04:54Z</time>
      </trkpt>
      <trkpt lat="46.12698" lon="3.6452">
        <ele>464</ele>
        <time>2022-02-15T20:04:57Z</time>
      </trkpt>
      <trkpt lat="46.12578" lon="3.64573">
        <ele>458</ele>
        <time>2022-02-15T20:05:19Z</time>
      </trkpt>
      <trkpt lat="46.12532" lon="3.64615">
        <ele>453</ele>
        <time>2022-02-15T20:05:29Z</time>
      </trkpt>
      <trkpt lat="46.12509" lon="3.64648">
        <ele>452</ele>
        <time>2022-02-15T20:05:34Z</time>
      </trkpt>
      <trkpt lat="46.12498" lon="3.64667">
        <ele>452</ele>
        <time>2022-02-15T20:05:37Z</time>
      </trkpt>
      <trkpt lat="46.12444" lon="3.64781">
        <ele>443</ele>
        <time>2022-02-15T20:05:54Z</time>
      </trkpt>
      <trkpt lat="46.12433" lon="3.64797">
        <ele>442</ele>
        <time>2022-02-15T20:05:57Z</time>
      </trkpt>
      <trkpt lat="46.12383" lon="3.6484">
        <ele>436</ele>
        <time>2022-02-15T20:06:08Z</time>
      </trkpt>
      <trkpt lat="46.12372" lon="3.64851">
        <ele>435</ele>
        <time>2022-02-15T20:06:10Z</time>
      </trkpt>
      <trkpt lat="46.12363" lon="3.64867">
        <ele>434</ele>
        <time>2022-02-15T20:06:13Z</time>
      </trkpt>
      <trkpt lat="46.12355" lon="3.64901">
        <ele>433</ele>
        <time>2022-02-15T20:06:17Z</time>
      </trkpt>
      <trkpt lat="46.12332" lon="3.65179">
        <ele>420</ele>
        <time>2022-02-15T20:06:51Z</time>
      </trkpt>
      <trkpt lat="46.12326" lon="3.65203">
        <ele>418</ele>
        <time>2022-02-15T20:06:55Z</time>
      </trkpt>
      <trkpt lat="46.12322" lon="3.65214">
        <ele>417</ele>
        <time>2022-02-15T20:06:56Z</time>
      </trkpt>
      <trkpt lat="46.12308" lon="3.65232">
        <ele>416</ele>
        <time>2022-02-15T20:06:59Z</time>
      </trkpt>
      <trkpt lat="46.12287" lon="3.65245">
        <ele>414</ele>
        <time>2022-02-15T20:07:04Z</time>
      </trkpt>
      <trkpt lat="46.1222" lon="3.65266">
        <ele>408</ele>
        <time>2022-02-15T20:07:16Z</time>
      </trkpt>
      <trkpt lat="46.12196" lon="3.65277">
        <ele>406</ele>
        <time>2022-02-15T20:07:20Z</time>
      </trkpt>
      <trkpt lat="46.12179" lon="3.65292">
        <ele>404</ele>
        <time>2022-02-15T20:07:24Z</time>
      </trkpt>
      <trkpt lat="46.12142" lon="3.65336">
        <ele>401</ele>
        <time>2022-02-15T20:07:32Z</time>
      </trkpt>
      <trkpt lat="46.12129" lon="3.65361">
        <ele>400</ele>
        <time>2022-02-15T20:07:36Z</time>
      </trkpt>
      <trkpt lat="46.12122" lon="3.65383">
        <ele>398</ele>
        <time>2022-02-15T20:07:39Z</time>
      </trkpt>
      <trkpt lat="46.12118" lon="3.65412">
        <ele>397</ele>
        <time>2022-02-15T20:07:43Z</time>
      </trkpt>
      <trkpt lat="46.12113" lon="3.65526">
        <ele>395</ele>
        <time>2022-02-15T20:07:57Z</time>
      </trkpt>
      <trkpt lat="46.121" lon="3.65637">
        <ele>387</ele>
        <time>2022-02-15T20:08:11Z</time>
      </trkpt>
      <trkpt lat="46.12098" lon="3.65662">
        <ele>386</ele>
        <time>2022-02-15T20:08:14Z</time>
      </trkpt>
      <trkpt lat="46.121" lon="3.65684">
        <ele>385</ele>
        <time>2022-02-15T20:08:17Z</time>
      </trkpt>
      <trkpt lat="46.12103" lon="3.65705">
        <ele>385</ele>
        <time>2022-02-15T20:08:19Z</time>
      </trkpt>
      <trkpt lat="46.12115" lon="3.65757">
        <ele>385</ele>
        <time>2022-02-15T20:08:26Z</time>
      </trkpt>
      <trkpt lat="46.12116" lon="3.65775">
        <ele>386</ele>
        <time>2022-02-15T20:08:28Z</time>
      </trkpt>
      <trkpt lat="46.12115" lon="3.65787">
        <ele>387</ele>
        <time>2022-02-15T20:08:30Z</time>
      </trkpt>
      <trkpt lat="46.12111" lon="3.65802">
        <ele>387</ele>
        <time>2022-02-15T20:08:32Z</time>
      </trkpt>
      <trkpt lat="46.12059" lon="3.65928">
        <ele>385</ele>
        <time>2022-02-15T20:08:50Z</time>
      </trkpt>
      <trkpt lat="46.1205" lon="3.65944">
        <ele>385</ele>
        <time>2022-02-15T20:08:52Z</time>
      </trkpt>
      <trkpt lat="46.12039" lon="3.65961">
        <ele>385</ele>
        <time>2022-02-15T20:08:55Z</time>
      </trkpt>
      <trkpt lat="46.12018" lon="3.65985">
        <ele>383</ele>
        <time>2022-02-15T20:09:00Z</time>
      </trkpt>
      <trkpt lat="46.12003" lon="3.65999">
        <ele>382</ele>
        <time>2022-02-15T20:09:03Z</time>
      </trkpt>
      <trkpt lat="46.11988" lon="3.66006">
        <ele>382</ele>
        <time>2022-02-15T20:09:06Z</time>
      </trkpt>
      <trkpt lat="46.11933" lon="3.66019">
        <ele>382</ele>
        <time>2022-02-15T20:09:16Z</time>
      </trkpt>
      <trkpt lat="46.11915" lon="3.66028">
        <ele>383</ele>
        <time>2022-02-15T20:09:19Z</time>
      </trkpt>
      <trkpt lat="46.11896" lon="3.6604">
        <ele>385</ele>
        <time>2022-02-15T20:09:23Z</time>
      </trkpt>
      <trkpt lat="46.1185" lon="3.66076">
        <ele>384</ele>
        <time>2022-02-15T20:09:32Z</time>
      </trkpt>
      <trkpt lat="46.11833" lon="3.66097">
        <ele>382</ele>
        <time>2022-02-15T20:09:36Z</time>
      </trkpt>
      <trkpt lat="46.11818" lon="3.66122">
        <ele>386</ele>
        <time>2022-02-15T20:09:40Z</time>
      </trkpt>
      <trkpt lat="46.11682" lon="3.6654">
        <ele>364</ele>
        <time>2022-02-15T20:10:37Z</time>
      </trkpt>
      <trkpt lat="46.11666" lon="3.66591">
        <ele>365</ele>
        <time>2022-02-15T20:10:44Z</time>
      </trkpt>
      <trkpt lat="46.11648" lon="3.66642">
        <ele>372</ele>
        <time>2022-02-15T20:10:51Z</time>
      </trkpt>
      <trkpt lat="46.11646" lon="3.66657">
        <ele>374</ele>
        <time>2022-02-15T20:10:53Z</time>
      </trkpt>
      <trkpt lat="46.11649" lon="3.66668">
        <ele>376</ele>
        <time>2022-02-15T20:10:55Z</time>
      </trkpt>
      <trkpt lat="46.11656" lon="3.66677">
        <ele>378</ele>
        <time>2022-02-15T20:10:56Z</time>
      </trkpt>
      <trkpt lat="46.11691" lon="3.66685">
        <ele>376</ele>
        <time>2022-02-15T20:11:03Z</time>
      </trkpt>
      <trkpt lat="46.11701" lon="3.66692">
        <ele>376</ele>
        <time>2022-02-15T20:11:05Z</time>
      </trkpt>
      <trkpt lat="46.11706" lon="3.66702">
        <ele>377</ele>
        <time>2022-02-15T20:11:06Z</time>
      </trkpt>
      <trkpt lat="46.11705" lon="3.66715">
        <ele>379</ele>
        <time>2022-02-15T20:11:08Z</time>
      </trkpt>
      <trkpt lat="46.11699" lon="3.66722">
        <ele>382</ele>
        <time>2022-02-15T20:11:09Z</time>
      </trkpt>
      <trkpt lat="46.1169" lon="3.66724">
        <ele>384</ele>
        <time>2022-02-15T20:11:11Z</time>
      </trkpt>
      <trkpt lat="46.11597" lon="3.66685">
        <ele>386</ele>
        <time>2022-02-15T20:11:28Z</time>
      </trkpt>
      <trkpt lat="46.11555" lon="3.66674">
        <ele>388</ele>
        <time>2022-02-15T20:11:35Z</time>
      </trkpt>
      <trkpt lat="46.11429" lon="3.66652">
        <ele>406</ele>
        <time>2022-02-15T20:11:58Z</time>
      </trkpt>
      <trkpt lat="46.11378" lon="3.66649">
        <ele>412</ele>
        <time>2022-02-15T20:12:07Z</time>
      </trkpt>
      <trkpt lat="46.11355" lon="3.66644">
        <ele>413</ele>
        <time>2022-02-15T20:12:11Z</time>
      </trkpt>
      <trkpt lat="46.11327" lon="3.66631">
        <ele>411</ele>
        <time>2022-02-15T20:12:17Z</time>
      </trkpt>
      <trkpt lat="46.11275" lon="3.6659">
        <ele>407</ele>
        <time>2022-02-15T20:12:27Z</time>
      </trkpt>
      <trkpt lat="46.11249" lon="3.66579">
        <ele>410</ele>
        <time>2022-02-15T20:12:32Z</time>
      </trkpt>
      <trkpt lat="46.11235" lon="3.66576">
        <ele>408</ele>
        <time>2022-02-15T20:12:34Z</time>
      </trkpt>
      <trkpt lat="46.11217" lon="3.66577">
        <ele>407</ele>
        <time>2022-02-15T20:12:38Z</time>
      </trkpt>
      <trkpt lat="46.11198" lon="3.66584">
        <ele>407</ele>
        <time>2022-02-15T20:12:41Z</time>
      </trkpt>
      <trkpt lat="46.11183" lon="3.66603">
        <ele>409</ele>
        <time>2022-02-15T20:12:45Z</time>
      </trkpt>
      <trkpt lat="46.1117" lon="3.66632">
        <ele>411</ele>
        <time>2022-02-15T20:12:49Z</time>
      </trkpt>
      <trkpt lat="46.11168" lon="3.66646">
        <ele>412</ele>
        <time>2022-02-15T20:12:51Z</time>
      </trkpt>
      <trkpt lat="46.1117" lon="3.66652">
        <ele>413</ele>
        <time>2022-02-15T20:12:51Z</time>
      </trkpt>
      <trkpt lat="46.11176" lon="3.66655">
        <ele>414</ele>
        <time>2022-02-15T20:12:53Z</time>
      </trkpt>
      <trkpt lat="46.11182" lon="3.6665">
        <ele>415</ele>
        <time>2022-02-15T20:12:54Z</time>
      </trkpt>
      <trkpt lat="46.11192" lon="3.66624">
        <ele>413</ele>
        <time>2022-02-15T20:12:58Z</time>
      </trkpt>
      <trkpt lat="46.11203" lon="3.6661">
        <ele>412</ele>
        <time>2022-02-15T20:13:00Z</time>
      </trkpt>
      <trkpt lat="46.11217" lon="3.66605">
        <ele>413</ele>
        <time>2022-02-15T20:13:03Z</time>
      </trkpt>
      <trkpt lat="46.11226" lon="3.66605">
        <ele>413</ele>
        <time>2022-02-15T20:13:04Z</time>
      </trkpt>
      <trkpt lat="46.11237" lon="3.66608">
        <ele>415</ele>
        <time>2022-02-15T20:13:06Z</time>
      </trkpt>
      <trkpt lat="46.11251" lon="3.66614">
        <ele>418</ele>
        <time>2022-02-15T20:13:09Z</time>
      </trkpt>
      <trkpt lat="46.11274" lon="3.66628">
        <ele>418</ele>
        <time>2022-02-15T20:13:13Z</time>
      </trkpt>
      <trkpt lat="46.11288" lon="3.66644">
        <ele>421</ele>
        <time>2022-02-15T20:13:17Z</time>
      </trkpt>
      <trkpt lat="46.11337" lon="3.66709">
        <ele>433</ele>
        <time>2022-02-15T20:13:28Z</time>
      </trkpt>
      <trkpt lat="46.11364" lon="3.66735">
        <ele>436</ele>
        <time>2022-02-15T20:13:34Z</time>
      </trkpt>
      <trkpt lat="46.11384" lon="3.66749">
        <ele>438</ele>
        <time>2022-02-15T20:13:38Z</time>
      </trkpt>
      <trkpt lat="46.11426" lon="3.66774">
        <ele>439</ele>
        <time>2022-02-15T20:13:46Z</time>
      </trkpt>
      <trkpt lat="46.11517" lon="3.66819">
        <ele>443</ele>
        <time>2022-02-15T20:14:03Z</time>
      </trkpt>
      <trkpt lat="46.11532" lon="3.66828">
        <ele>444</ele>
        <time>2022-02-15T20:14:06Z</time>
      </trkpt>
      <trkpt lat="46.11564" lon="3.66861">
        <ele>447</ele>
        <time>2022-02-15T20:14:13Z</time>
      </trkpt>
      <trkpt lat="46.11577" lon="3.66882">
        <ele>450</ele>
        <time>2022-02-15T20:14:17Z</time>
      </trkpt>
      <trkpt lat="46.11603" lon="3.66941">
        <ele>457</ele>
        <time>2022-02-15T20:14:25Z</time>
      </trkpt>
      <trkpt lat="46.11619" lon="3.66972">
        <ele>458</ele>
        <time>2022-02-15T20:14:30Z</time>
      </trkpt>
      <trkpt lat="46.11643" lon="3.67024">
        <ele>461</ele>
        <time>2022-02-15T20:14:38Z</time>
      </trkpt>
      <trkpt lat="46.11646" lon="3.67041">
        <ele>462</ele>
        <time>2022-02-15T20:14:40Z</time>
      </trkpt>
      <trkpt lat="46.11646" lon="3.67061">
        <ele>464</ele>
        <time>2022-02-15T20:14:42Z</time>
      </trkpt>
      <trkpt lat="46.11635" lon="3.67114">
        <ele>467</ele>
        <time>2022-02-15T20:14:49Z</time>
      </trkpt>
      <trkpt lat="46.11635" lon="3.6713">
        <ele>466</ele>
        <time>2022-02-15T20:14:51Z</time>
      </trkpt>
      <trkpt lat="46.11652" lon="3.67244">
        <ele>471</ele>
        <time>2022-02-15T20:15:06Z</time>
      </trkpt>
      <trkpt lat="46.11651" lon="3.67265">
        <ele>472</ele>
        <time>2022-02-15T20:15:08Z</time>
      </trkpt>
      <trkpt lat="46.11646" lon="3.6729">
        <ele>472</ele>
        <time>2022-02-15T20:15:11Z</time>
      </trkpt>
      <trkpt lat="46.11627" lon="3.67358">
        <ele>471</ele>
        <time>2022-02-15T20:15:20Z</time>
      </trkpt>
      <trkpt lat="46.11622" lon="3.6741">
        <ele>474</ele>
        <time>2022-02-15T20:15:27Z</time>
      </trkpt>
      <trkpt lat="46.11617" lon="3.67428">
        <ele>475</ele>
        <time>2022-02-15T20:15:29Z</time>
      </trkpt>
      <trkpt lat="46.1157" lon="3.67535">
        <ele>481</ele>
        <time>2022-02-15T20:15:45Z</time>
      </trkpt>
      <trkpt lat="46.11559" lon="3.6757">
        <ele>484</ele>
        <time>2022-02-15T20:15:50Z</time>
      </trkpt>
      <trkpt lat="46.11525" lon="3.67704">
        <ele>490</ele>
        <time>2022-02-15T20:16:07Z</time>
      </trkpt>
      <trkpt lat="46.11503" lon="3.67755">
        <ele>492</ele>
        <time>2022-02-15T20:16:15Z</time>
      </trkpt>
      <trkpt lat="46.11493" lon="3.67774">
        <ele>492</ele>
        <time>2022-02-15T20:16:18Z</time>
      </trkpt>
      <trkpt lat="46.11446" lon="3.67843">
        <ele>493</ele>
        <time>2022-02-15T20:16:30Z</time>
      </trkpt>
      <trkpt lat="46.11384" lon="3.67943">
        <ele>498</ele>
        <time>2022-02-15T20:16:46Z</time>
      </trkpt>
      <trkpt lat="46.11332" lon="3.68038">
        <ele>505</ele>
        <time>2022-02-15T20:17:01Z</time>
      </trkpt>
      <trkpt lat="46.1131" lon="3.68104">
        <ele>505</ele>
        <time>2022-02-15T20:17:10Z</time>
      </trkpt>
      <trkpt lat="46.11303" lon="3.68135">
        <ele>507</ele>
        <time>2022-02-15T20:17:14Z</time>
      </trkpt>
      <trkpt lat="46.11303" lon="3.68146">
        <ele>507</ele>
        <time>2022-02-15T20:17:15Z</time>
      </trkpt>
      <trkpt lat="46.11307" lon="3.68167">
        <ele>508</ele>
        <time>2022-02-15T20:17:18Z</time>
      </trkpt>
      <trkpt lat="46.11328" lon="3.68231">
        <ele>514</ele>
        <time>2022-02-15T20:17:27Z</time>
      </trkpt>
      <trkpt lat="46.11331" lon="3.68244">
        <ele>515</ele>
        <time>2022-02-15T20:17:29Z</time>
      </trkpt>
      <trkpt lat="46.11328" lon="3.68231">
        <ele>514</ele>
        <time>2022-02-15T20:17:30Z</time>
      </trkpt>
      <trkpt lat="46.11307" lon="3.68167">
        <ele>508</ele>
        <time>2022-02-15T20:17:39Z</time>
      </trkpt>
      <trkpt lat="46.11303" lon="3.68146">
        <ele>507</ele>
        <time>2022-02-15T20:17:42Z</time>
      </trkpt>
      <trkpt lat="46.11303" lon="3.68135">
        <ele>507</ele>
        <time>2022-02-15T20:17:43Z</time>
      </trkpt>
      <trkpt lat="46.1131" lon="3.68104">
        <ele>505</ele>
        <time>2022-02-15T20:17:47Z</time>
      </trkpt>
      <trkpt lat="46.11332" lon="3.68038">
        <ele>505</ele>
        <time>2022-02-15T20:17:56Z</time>
      </trkpt>
      <trkpt lat="46.11384" lon="3.67943">
        <ele>498</ele>
        <time>2022-02-15T20:18:11Z</time>
      </trkpt>
      <trkpt lat="46.11446" lon="3.67843">
        <ele>493</ele>
        <time>2022-02-15T20:18:28Z</time>
      </trkpt>
      <trkpt lat="46.11493" lon="3.67774">
        <ele>492</ele>
        <time>2022-02-15T20:18:39Z</time>
      </trkpt>
      <trkpt lat="46.11503" lon="3.67755">
        <ele>492</ele>
        <time>2022-02-15T20:18:42Z</time>
      </trkpt>
      <trkpt lat="46.11525" lon="3.67704">
        <ele>490</ele>
        <time>2022-02-15T20:18:50Z</time>
      </trkpt>
      <trkpt lat="46.11559" lon="3.6757">
        <ele>484</ele>
        <time>2022-02-15T20:19:07Z</time>
      </trkpt>
      <trkpt lat="46.1157" lon="3.67535">
        <ele>481</ele>
        <time>2022-02-15T20:19:12Z</time>
      </trkpt>
      <trkpt lat="46.11617" lon="3.67428">
        <ele>475</ele>
        <time>2022-02-15T20:19:28Z</time>
      </trkpt>
      <trkpt lat="46.11622" lon="3.6741">
        <ele>474</ele>
        <time>2022-02-15T20:19:30Z</time>
      </trkpt>
      <trkpt lat="46.11627" lon="3.67358">
        <ele>471</ele>
        <time>2022-02-15T20:19:37Z</time>
      </trkpt>
      <trkpt lat="46.11646" lon="3.6729">
        <ele>472</ele>
        <time>2022-02-15T20:19:46Z</time>
      </trkpt>
      <trkpt lat="46.11651" lon="3.67265">
        <ele>472</ele>
        <time>2022-02-15T20:19:49Z</time>
      </trkpt>
      <trkpt lat="46.11652" lon="3.67244">
        <ele>471</ele>
        <time>2022-02-15T20:19:51Z</time>
      </trkpt>
      <trkpt lat="46.11635" lon="3.6713">
        <ele>466</ele>
        <time>2022-02-15T20:20:06Z</time>
      </trkpt>
      <trkpt lat="46.11635" lon="3.67114">
        <ele>467</ele>
        <time>2022-02-15T20:20:08Z</time>
      </trkpt>
      <trkpt lat="46.11646" lon="3.67061">
        <ele>464</ele>
        <time>2022-02-15T20:20:15Z</time>
      </trkpt>
      <trkpt lat="46.11646" lon="3.67041">
        <ele>462</ele>
        <time>2022-02-15T20:20:17Z</time>
      </trkpt>
      <trkpt lat="46.11643" lon="3.67024">
        <ele>461</ele>
        <time>2022-02-15T20:20:19Z</time>
      </trkpt>
      <trkpt lat="46.11619" lon="3.66972">
        <ele>458</ele>
        <time>2022-02-15T20:20:27Z</time>
      </trkpt>
      <trkpt lat="46.11603" lon="3.66941">
        <ele>457</ele>
        <time>2022-02-15T20:20:32Z</time>
      </trkpt>
      <trkpt lat="46.11577" lon="3.66882">
        <ele>450</ele>
        <time>2022-02-15T20:20:40Z</time>
      </trkpt>
      <trkpt lat="46.11564" lon="3.66861">
        <ele>447</ele>
        <time>2022-02-15T20:20:44Z</time>
      </trkpt>
      <trkpt lat="46.11532" lon="3.66828">
        <ele>444</ele>
        <time>2022-02-15T20:20:51Z</time>
      </trkpt>
      <trkpt lat="46.11517" lon="3.66819">
        <ele>443</ele>
        <time>2022-02-15T20:20:54Z</time>
      </trkpt>
      <trkpt lat="46.11426" lon="3.66774">
        <ele>439</ele>
        <time>2022-02-15T20:21:11Z</time>
      </trkpt>
      <trkpt lat="46.11384" lon="3.66749">
        <ele>438</ele>
        <time>2022-02-15T20:21:19Z</time>
      </trkpt>
      <trkpt lat="46.11364" lon="3.66735">
        <ele>436</ele>
        <time>2022-02-15T20:21:23Z</time>
      </trkpt>
      <trkpt lat="46.11337" lon="3.66709">
        <ele>433</ele>
        <time>2022-02-15T20:21:29Z</time>
      </trkpt>
      <trkpt lat="46.11288" lon="3.66644">
        <ele>421</ele>
        <time>2022-02-15T20:21:41Z</time>
      </trkpt>
      <trkpt lat="46.11274" lon="3.66628">
        <ele>418</ele>
        <time>2022-02-15T20:21:44Z</time>
      </trkpt>
      <trkpt lat="46.11251" lon="3.66614">
        <ele>418</ele>
        <time>2022-02-15T20:21:48Z</time>
      </trkpt>
      <trkpt lat="46.11237" lon="3.66608">
        <ele>415</ele>
        <time>2022-02-15T20:21:51Z</time>
      </trkpt>
      <trkpt lat="46.11226" lon="3.66605">
        <ele>413</ele>
        <time>2022-02-15T20:21:53Z</time>
      </trkpt>
      <trkpt lat="46.11217" lon="3.66605">
        <ele>413</ele>
        <time>2022-02-15T20:21:54Z</time>
      </trkpt>
      <trkpt lat="46.11203" lon="3.6661">
        <ele>412</ele>
        <time>2022-02-15T20:21:57Z</time>
      </trkpt>
      <trkpt lat="46.11192" lon="3.66624">
        <ele>413</ele>
        <time>2022-02-15T20:22:00Z</time>
      </trkpt>
      <trkpt lat="46.11182" lon="3.6665">
        <ele>415</ele>
        <time>2022-02-15T20:22:03Z</time>
      </trkpt>
      <trkpt lat="46.11176" lon="3.66655">
        <ele>414</ele>
        <time>2022-02-15T20:22:04Z</time>
      </trkpt>
      <trkpt lat="46.1117" lon="3.66652">
        <ele>413</ele>
        <time>2022-02-15T20:22:06Z</time>
      </trkpt>
      <trkpt lat="46.11168" lon="3.66646">
        <ele>412</ele>
        <time>2022-02-15T20:22:06Z</time>
      </trkpt>
      <trkpt lat="46.1117" lon="3.66632">
        <ele>411</ele>
        <time>2022-02-15T20:22:08Z</time>
      </trkpt>
      <trkpt lat="46.11183" lon="3.66603">
        <ele>409</ele>
        <time>2022-02-15T20:22:12Z</time>
      </trkpt>
      <trkpt lat="46.11198" lon="3.66584">
        <ele>407</ele>
        <time>2022-02-15T20:22:16Z</time>
      </trkpt>
      <trkpt lat="46.11217" lon="3.66577">
        <ele>407</ele>
        <time>2022-02-15T20:22:19Z</time>
      </trkpt>
      <trkpt lat="46.11235" lon="3.66576">
        <ele>408</ele>
        <time>2022-02-15T20:22:23Z</time>
      </trkpt>
      <trkpt lat="46.11249" lon="3.66579">
        <ele>410</ele>
        <time>2022-02-15T20:22:25Z</time>
      </trkpt>
      <trkpt lat="46.11275" lon="3.6659">
        <ele>407</ele>
        <time>2022-02-15T20:22:30Z</time>
      </trkpt>
      <trkpt lat="46.11327" lon="3.66631">
        <ele>411</ele>
        <time>2022-02-15T20:22:41Z</time>
      </trkpt>
      <trkpt lat="46.11355" lon="3.66644">
        <ele>413</ele>
        <time>2022-02-15T20:22:46Z</time>
      </trkpt>
      <trkpt lat="46.11378" lon="3.66649">
        <ele>412</ele>
        <time>2022-02-15T20:22:50Z</time>
      </trkpt>
      <trkpt lat="46.11429" lon="3.66652">
        <ele>406</ele>
        <time>2022-02-15T20:22:59Z</time>
      </trkpt>
      <trkpt lat="46.11555" lon="3.66674">
        <ele>388</ele>
        <time>2022-02-15T20:23:22Z</time>
      </trkpt>
      <trkpt lat="46.11597" lon="3.66685">
        <ele>386</ele>
        <time>2022-02-15T20:23:29Z</time>
      </trkpt>
      <trkpt lat="46.1169" lon="3.66724">
        <ele>384</ele>
        <time>2022-02-15T20:23:46Z</time>
      </trkpt>
      <trkpt lat="46.11699" lon="3.66722">
        <ele>382</ele>
        <time>2022-02-15T20:23:48Z</time>
      </trkpt>
      <trkpt lat="46.11705" lon="3.66715">
        <ele>379</ele>
        <time>2022-02-15T20:23:49Z</time>
      </trkpt>
      <trkpt lat="46.11706" lon="3.66702">
        <ele>377</ele>
        <time>2022-02-15T20:23:51Z</time>
      </trkpt>
      <trkpt lat="46.11701" lon="3.66692">
        <ele>376</ele>
        <time>2022-02-15T20:23:53Z</time>
      </trkpt>
      <trkpt lat="46.11691" lon="3.66685">
        <ele>376</ele>
        <time>2022-02-15T20:23:54Z</time>
      </trkpt>
      <trkpt lat="46.11656" lon="3.66677">
        <ele>378</ele>
        <time>2022-02-15T20:24:01Z</time>
      </trkpt>
      <trkpt lat="46.11649" lon="3.66668">
        <ele>376</ele>
        <time>2022-02-15T20:24:02Z</time>
      </trkpt>
      <trkpt lat="46.11646" lon="3.66657">
        <ele>374</ele>
        <time>2022-02-15T20:24:04Z</time>
      </trkpt>
      <trkpt lat="46.11648" lon="3.66642">
        <ele>372</ele>
        <time>2022-02-15T20:24:06Z</time>
      </trkpt>
      <trkpt lat="46.11666" lon="3.66591">
        <ele>365</ele>
        <time>2022-02-15T20:24:13Z</time>
      </trkpt>
      <trkpt lat="46.11682" lon="3.6654">
        <ele>364</ele>
        <time>2022-02-15T20:24:20Z</time>
      </trkpt>
      <trkpt lat="46.11818" lon="3.66122">
        <ele>386</ele>
        <time>2022-02-15T20:25:17Z</time>
      </trkpt>
      <trkpt lat="46.11833" lon="3.66097">
        <ele>382</ele>
        <time>2022-02-15T20:25:21Z</time>
      </trkpt>
      <trkpt lat="46.1185" lon="3.66076">
        <ele>384</ele>
        <time>2022-02-15T20:25:25Z</time>
      </trkpt>
      <trkpt lat="46.11896" lon="3.6604">
        <ele>385</ele>
        <time>2022-02-15T20:25:34Z</time>
      </trkpt>
      <trkpt lat="46.11915" lon="3.66028">
        <ele>383</ele>
        <time>2022-02-15T20:25:38Z</time>
      </trkpt>
      <trkpt lat="46.11933" lon="3.66019">
        <ele>382</ele>
        <time>2022-02-15T20:25:41Z</time>
      </trkpt>
      <trkpt lat="46.11988" lon="3.66006">
        <ele>382</ele>
        <time>2022-02-15T20:25:51Z</time>
      </trkpt>
      <trkpt lat="46.12003" lon="3.65999">
        <ele>382</ele>
        <time>2022-02-15T20:25:54Z</time>
      </trkpt>
      <trkpt lat="46.12018" lon="3.65985">
        <ele>383</ele>
        <time>2022-02-15T20:25:57Z</time>
      </trkpt>
      <trkpt lat="46.12039" lon="3.65961">
        <ele>385</ele>
        <time>2022-02-15T20:26:02Z</time>
      </trkpt>
      <trkpt lat="46.1205" lon="3.65944">
        <ele>385</ele>
        <time>2022-02-15T20:26:05Z</time>
      </trkpt>
      <trkpt lat="46.12059" lon="3.65928">
        <ele>385</ele>
        <time>2022-02-15T20:26:07Z</time>
      </trkpt>
      <trkpt lat="46.12111" lon="3.65802">
        <ele>387</ele>
        <time>2022-02-15T20:26:25Z</time>
      </trkpt>
      <trkpt lat="46.12115" lon="3.65787">
        <ele>387</ele>
        <time>2022-02-15T20:26:27Z</time>
      </trkpt>
      <trkpt lat="46.12116" lon="3.65775">
        <ele>386</ele>
        <time>2022-02-15T20:26:29Z</time>
      </trkpt>
      <trkpt lat="46.12115" lon="3.65757">
        <ele>385</ele>
        <time>2022-02-15T20:26:31Z</time>
      </trkpt>
      <trkpt lat="46.12103" lon="3.65705">
        <ele>385</ele>
        <time>2022-02-15T20:26:38Z</time>
      </trkpt>
      <trkpt lat="46.121" lon="3.65684">
        <ele>385</ele>
        <time>2022-02-15T20:26:40Z</time>
      </trkpt>
      <trkpt lat="46.12098" lon="3.65662">
        <ele>386</ele>
        <time>2022-02-15T20:26:43Z</time>
      </trkpt>
      <trkpt lat="46.121" lon="3.65637">
        <ele>387</ele>
        <time>2022-02-15T20:26:46Z</time>
      </trkpt>
      <trkpt lat="46.12113" lon="3.65526">
        <ele>395</ele>
        <time>2022-02-15T20:27:00Z</time>
      </trkpt>
      <trkpt lat="46.12118" lon="3.65412">
        <ele>397</ele>
        <time>2022-02-15T20:27:14Z</time>
      </trkpt>
      <trkpt lat="46.12122" lon="3.65383">
        <ele>398</ele>
        <time>2022-02-15T20:27:18Z</time>
      </trkpt>
      <trkpt lat="46.12129" lon="3.65361">
        <ele>400</ele>
        <time>2022-02-15T20:27:21Z</time>
      </trkpt>
      <trkpt lat="46.12142" lon="3.65336">
        <ele>401</ele>
        <time>2022-02-15T20:27:25Z</time>
      </trkpt>
      <trkpt lat="46.12179" lon="3.65292">
        <ele>404</ele>
        <time>2022-02-15T20:27:33Z</time>
      </trkpt>
      <trkpt lat="46.12196" lon="3.65277">
        <ele>406</ele>
        <time>2022-02-15T20:27:37Z</time>
      </trkpt>
      <trkpt lat="46.1222" lon="3.65266">
        <ele>408</ele>
        <time>2022-02-15T20:27:41Z</time>
      </trkpt>
      <trkpt lat="46.12287" lon="3.65245">
        <ele>414</ele>
        <time>2022-02-15T20:27:53Z</time>
      </trkpt>
      <trkpt lat="46.12308" lon="3.65232">
        <ele>416</ele>
        <time>2022-02-15T20:27:58Z</time>
      </trkpt>
      <trkpt lat="46.12322" lon="3.65214">
        <ele>417</ele>
        <time>2022-02-15T20:28:01Z</time>
      </trkpt>
      <trkpt lat="46.12326" lon="3.65203">
        <ele>418</ele>
        <time>2022-02-15T20:28:02Z</time>
      </trkpt>
      <trkpt lat="46.12332" lon="3.65179">
        <ele>420</ele>
        <time>2022-02-15T20:28:06Z</time>
      </trkpt>
      <trkpt lat="46.12355" lon="3.64901">
        <ele>433</ele>
        <time>2022-02-15T20:28:40Z</time>
      </trkpt>
      <trkpt lat="46.12363" lon="3.64867">
        <ele>434</ele>
        <time>2022-02-15T20:28:45Z</time>
      </trkpt>
      <trkpt lat="46.12372" lon="3.64851">
        <ele>435</ele>
        <time>2022-02-15T20:28:47Z</time>
      </trkpt>
      <trkpt lat="46.12383" lon="3.6484">
        <ele>436</ele>
        <time>2022-02-15T20:28:49Z</time>
      </trkpt>
      <trkpt lat="46.12433" lon="3.64797">
        <ele>442</ele>
        <time>2022-02-15T20:29:00Z</time>
      </trkpt>
      <trkpt lat="46.12444" lon="3.64781">
        <ele>443</ele>
        <time>2022-02-15T20:29:03Z</time>
      </trkpt>
      <trkpt lat="46.12498" lon="3.64667">
        <ele>452</ele>
        <time>2022-02-15T20:29:20Z</time>
      </trkpt>
      <trkpt lat="46.12509" lon="3.64648">
        <ele>452</ele>
        <time>2022-02-15T20:29:23Z</time>
      </trkpt>
      <trkpt lat="46.12532" lon="3.64615">
        <ele>453</ele>
        <time>2022-02-15T20:29:28Z</time>
      </trkpt>
      <trkpt lat="46.12578" lon="3.64573">
        <ele>458</ele>
        <time>2022-02-15T20:29:38Z</time>
      </trkpt>
      <trkpt lat="46.12698" lon="3.6452">
        <ele>464</ele>
        <time>2022-02-15T20:30:00Z</time>
      </trkpt>
      <trkpt lat="46.12711" lon="3.64511">
        <ele>464</ele>
        <time>2022-02-15T20:30:03Z</time>
      </trkpt>
      <trkpt lat="46.12722" lon="3.64498">
        <ele>465</ele>
        <time>2022-02-15T20:30:06Z</time>
      </trkpt>
      <trkpt lat="46.12728" lon="3.64484">
        <ele>466</ele>
        <time>2022-02-15T20:30:08Z</time>
      </trkpt>
      <trkpt lat="46.12729" lon="3.64463">
        <ele>467</ele>
        <time>2022-02-15T20:30:10Z</time>
      </trkpt>
      <trkpt lat="46.12725" lon="3.64408">
        <ele>470</ele>
        <time>2022-02-15T20:30:17Z</time>
      </trkpt>
      <trkpt lat="46.12729" lon="3.64386">
        <ele>471</ele>
        <time>2022-02-15T20:30:20Z</time>
      </trkpt>
      <trkpt lat="46.12738" lon="3.64367">
        <ele>472</ele>
        <time>2022-02-15T20:30:23Z</time>
      </trkpt>
      <trkpt lat="46.12754" lon="3.64344">
        <ele>475</ele>
        <time>2022-02-15T20:30:27Z</time>
      </trkpt>
      <trkpt lat="46.12812" lon="3.64268">
        <ele>480</ele>
        <time>2022-02-15T20:30:41Z</time>
      </trkpt>
      <trkpt lat="46.12843" lon="3.64217">
        <ele>482</ele>
        <time>2022-02-15T20:30:49Z</time>
      </trkpt>
      <trkpt lat="46.1286" lon="3.64176">
        <ele>482</ele>
        <time>2022-02-15T20:30:55Z</time>
      </trkpt>
      <trkpt lat="46.12864" lon="3.64137">
        <ele>483</ele>
        <time>2022-02-15T20:31:00Z</time>
      </trkpt>
      <trkpt lat="46.12862" lon="3.64116">
        <ele>483</ele>
        <time>2022-02-15T20:31:02Z</time>
      </trkpt>
      <trkpt lat="46.1283" lon="3.6396">
        <ele>485</ele>
        <time>2022-02-15T20:31:22Z</time>
      </trkpt>
      <trkpt lat="46.12984" lon="3.64077">
        <ele>487</ele>
        <time>2022-02-15T20:31:53Z</time>
      </trkpt>
      <trkpt lat="46.1314" lon="3.64161">
        <ele>489</ele>
        <time>2022-02-15T20:32:23Z</time>
      </trkpt>
      <trkpt lat="46.13213" lon="3.64247">
        <ele>493</ele>
        <time>2022-02-15T20:32:40Z</time>
      </trkpt>
      <trkpt lat="46.13261" lon="3.64266">
        <ele>496</ele>
        <time>2022-02-15T20:32:49Z</time>
      </trkpt>
      <trkpt lat="46.13377" lon="3.64261">
        <ele>501</ele>
        <time>2022-02-15T20:33:09Z</time>
      </trkpt>
      <trkpt lat="46.13407" lon="3.64264">
        <ele>500</ele>
        <time>2022-02-15T20:33:15Z</time>
      </trkpt>
      <trkpt lat="46.13462" lon="3.64275">
        <ele>498</ele>
        <time>2022-02-15T20:33:24Z</time>
      </trkpt>
      <trkpt lat="46.13528" lon="3.64297">
        <ele>495</ele>
        <time>2022-02-15T20:33:37Z</time>
      </trkpt>
      <trkpt lat="46.13596" lon="3.64333">
        <ele>492</ele>
        <time>2022-02-15T20:33:49Z</time>
      </trkpt>
      <trkpt lat="46.13617" lon="3.64341">
        <ele>491</ele>
        <time>2022-02-15T20:33:53Z</time>
      </trkpt>
      <trkpt lat="46.13699" lon="3.64354">
        <ele>486</ele>
        <time>2022-02-15T20:34:08Z</time>
      </trkpt>
      <trkpt lat="46.13756" lon="3.64371">
        <ele>485</ele>
        <time>2022-02-15T20:34:18Z</time>
      </trkpt>
      <trkpt lat="46.13921" lon="3.64444">
        <ele>477</ele>
        <time>2022-02-15T20:34:49Z</time>
      </trkpt>
      <trkpt lat="46.13937" lon="3.64454">
        <ele>476</ele>
        <time>2022-02-15T20:34:52Z</time>
      </trkpt>
      <trkpt lat="46.13952" lon="3.64467">
        <ele>474</ele>
        <time>2022-02-15T20:34:55Z</time>
      </trkpt>
      <trkpt lat="46.13959" lon="3.64478">
        <ele>474</ele>
        <time>2022-02-15T20:34:57Z</time>
      </trkpt>
      <trkpt lat="46.13975" lon="3.64513">
        <ele>472</ele>
        <time>2022-02-15T20:35:02Z</time>
      </trkpt>
      <trkpt lat="46.13981" lon="3.64536">
        <ele>471</ele>
        <time>2022-02-15T20:35:05Z</time>
      </trkpt>
      <trkpt lat="46.13982" lon="3.64558">
        <ele>470</ele>
        <time>2022-02-15T20:35:08Z</time>
      </trkpt>
      <trkpt lat="46.13978" lon="3.64611">
        <ele>466</ele>
        <time>2022-02-15T20:35:15Z</time>
      </trkpt>
      <trkpt lat="46.13958" lon="3.64683">
        <ele>462</ele>
        <time>2022-02-15T20:35:24Z</time>
      </trkpt>
      <trkpt lat="46.13954" lon="3.64718">
        <ele>461</ele>
        <time>2022-02-15T20:35:29Z</time>
      </trkpt>
      <trkpt lat="46.13955" lon="3.6475">
        <ele>459</ele>
        <time>2022-02-15T20:35:32Z</time>
      </trkpt>
      <trkpt lat="46.13958" lon="3.64786">
        <ele>458</ele>
        <time>2022-02-15T20:35:37Z</time>
      </trkpt>
      <trkpt lat="46.13968" lon="3.64818">
        <ele>457</ele>
        <time>2022-02-15T20:35:41Z</time>
      </trkpt>
      <trkpt lat="46.1398" lon="3.64849">
        <ele>457</ele>
        <time>2022-02-15T20:35:46Z</time>
      </trkpt>
      <trkpt lat="46.13998" lon="3.64875">
        <ele>458</ele>
        <time>2022-02-15T20:35:50Z</time>
      </trkpt>
      <trkpt lat="46.14015" lon="3.64896">
        <ele>459</ele>
        <time>2022-02-15T20:35:54Z</time>
      </trkpt>
      <trkpt lat="46.14046" lon="3.64921">
        <ele>459</ele>
        <time>2022-02-15T20:36:00Z</time>
      </trkpt>
      <trkpt lat="46.14063" lon="3.64927">
        <ele>459</ele>
        <time>2022-02-15T20:36:04Z</time>
      </trkpt>
      <trkpt lat="46.14077" lon="3.64929">
        <ele>458</ele>
        <time>2022-02-15T20:36:06Z</time>
      </trkpt>
      <trkpt lat="46.14086" lon="3.64942">
        <ele>458</ele>
        <time>2022-02-15T20:36:08Z</time>
      </trkpt>
      <trkpt lat="46.14118" lon="3.64956">
        <ele>460</ele>
        <time>2022-02-15T20:36:14Z</time>
      </trkpt>
      <trkpt lat="46.14255" lon="3.65">
        <ele>468</ele>
        <time>2022-02-15T20:36:39Z</time>
      </trkpt>
      <trkpt lat="46.14278" lon="3.65018">
        <ele>468</ele>
        <time>2022-02-15T20:36:44Z</time>
      </trkpt>
      <trkpt lat="46.14286" lon="3.65021">
        <ele>468</ele>
        <time>2022-02-15T20:36:45Z</time>
      </trkpt>
      <trkpt lat="46.14303" lon="3.65008">
        <ele>468</ele>
        <time>2022-02-15T20:36:49Z</time>
      </trkpt>
      <trkpt lat="46.14317" lon="3.64997">
        <ele>468</ele>
        <time>2022-02-15T20:36:52Z</time>
      </trkpt>
      <trkpt lat="46.14413" lon="3.64976">
        <ele>458</ele>
        <time>2022-02-15T20:37:09Z</time>
      </trkpt>
      <trkpt lat="46.14446" lon="3.64966">
        <ele>453</ele>
        <time>2022-02-15T20:37:15Z</time>
      </trkpt>
      <trkpt lat="46.14472" lon="3.64993">
        <ele>452</ele>
        <time>2022-02-15T20:37:21Z</time>
      </trkpt>
      <trkpt lat="46.14487" lon="3.65002">
        <ele>452</ele>
        <time>2022-02-15T20:37:24Z</time>
      </trkpt>
      <trkpt lat="46.14527" lon="3.65008">
        <ele>449</ele>
        <time>2022-02-15T20:37:31Z</time>
      </trkpt>
      <trkpt lat="46.14823" lon="3.64949">
        <ele>431</ele>
        <time>2022-02-15T20:38:24Z</time>
      </trkpt>
      <trkpt lat="46.14865" lon="3.64936">
        <ele>429</ele>
        <time>2022-02-15T20:38:31Z</time>
      </trkpt>
      <trkpt lat="46.15113" lon="3.64762">
        <ele>430</ele>
        <time>2022-02-15T20:39:21Z</time>
      </trkpt>
      <trkpt lat="46.15241" lon="3.64692">
        <ele>431</ele>
        <time>2022-02-15T20:39:45Z</time>
      </trkpt>
      <trkpt lat="46.15413" lon="3.64501">
        <ele>424</ele>
        <time>2022-02-15T20:40:24Z</time>
      </trkpt>
      <trkpt lat="46.15545" lon="3.64482">
        <ele>428</ele>
        <time>2022-02-15T20:40:47Z</time>
      </trkpt>
      <trkpt lat="46.1558" lon="3.6448">
        <ele>431</ele>
        <time>2022-02-15T20:40:53Z</time>
      </trkpt>
      <trkpt lat="46.156" lon="3.64485">
        <ele>433</ele>
        <time>2022-02-15T20:40:57Z</time>
      </trkpt>
      <trkpt lat="46.15637" lon="3.64509">
        <ele>436</ele>
        <time>2022-02-15T20:41:04Z</time>
      </trkpt>
      <trkpt lat="46.15793" lon="3.64698">
        <ele>441</ele>
        <time>2022-02-15T20:41:40Z</time>
      </trkpt>
      <trkpt lat="46.15814" lon="3.64716">
        <ele>441</ele>
        <time>2022-02-15T20:41:45Z</time>
      </trkpt>
      <trkpt lat="46.15894" lon="3.6476">
        <ele>438</ele>
        <time>2022-02-15T20:42:00Z</time>
      </trkpt>
      <trkpt lat="46.16198" lon="3.64941">
        <ele>423</ele>
        <time>2022-02-15T20:42:59Z</time>
      </trkpt>
      <trkpt lat="46.16561" lon="3.65152">
        <ele>411</ele>
        <time>2022-02-15T20:44:08Z</time>
      </trkpt>
      <trkpt lat="46.16661" lon="3.65205">
        <ele>410</ele>
        <time>2022-02-15T20:44:27Z</time>
      </trkpt>
      <trkpt lat="46.16693" lon="3.65218">
        <ele>410</ele>
        <time>2022-02-15T20:44:33Z</time>
      </trkpt>
      <trkpt lat="46.16719" lon="3.65224">
        <ele>409</ele>
        <time>2022-02-15T20:44:38Z</time>
      </trkpt>
      <trkpt lat="46.16798" lon="3.65235">
        <ele>408</ele>
        <time>2022-02-15T20:44:52Z</time>
      </trkpt>
      <trkpt lat="46.16825" lon="3.65242">
        <ele>408</ele>
        <time>2022-02-15T20:44:57Z</time>
      </trkpt>
      <trkpt lat="46.16855" lon="3.65256">
        <ele>407</ele>
        <time>2022-02-15T20:45:02Z</time>
      </trkpt>
      <trkpt lat="46.16883" lon="3.65274">
        <ele>405</ele>
        <time>2022-02-15T20:45:08Z</time>
      </trkpt>
      <trkpt lat="46.16952" lon="3.65331">
        <ele>402</ele>
        <time>2022-02-15T20:45:22Z</time>
      </trkpt>
      <trkpt lat="46.17233" lon="3.65517">
        <ele>393</ele>
        <time>2022-02-15T20:46:17Z</time>
      </trkpt>
      <trkpt lat="46.17255" lon="3.65528">
        <ele>393</ele>
        <time>2022-02-15T20:46:21Z</time>
      </trkpt>
      <trkpt lat="46.17276" lon="3.65536">
        <ele>393</ele>
        <time>2022-02-15T20:46:25Z</time>
      </trkpt>
      <trkpt lat="46.17479" lon="3.65581">
        <ele>398</ele>
        <time>2022-02-15T20:47:01Z</time>
      </trkpt>
      <trkpt lat="46.17844" lon="3.65596">
        <ele>385</ele>
        <time>2022-02-15T20:48:06Z</time>
      </trkpt>
      <trkpt lat="46.18119" lon="3.65671">
        <ele>373</ele>
        <time>2022-02-15T20:48:56Z</time>
      </trkpt>
      <trkpt lat="46.18133" lon="3.65679">
        <ele>373</ele>
        <time>2022-02-15T20:48:59Z</time>
      </trkpt>
      <trkpt lat="46.18144" lon="3.65696">
        <ele>372</ele>
        <time>2022-02-15T20:49:02Z</time>
      </trkpt>
      <trkpt lat="46.18177" lon="3.65755">
        <ele>368</ele>
        <time>2022-02-15T20:49:11Z</time>
      </trkpt>
      <trkpt lat="46.18198" lon="3.65784">
        <ele>367</ele>
        <time>2022-02-15T20:49:16Z</time>
      </trkpt>
      <trkpt lat="46.1822" lon="3.65809">
        <ele>367</ele>
        <time>2022-02-15T20:49:21Z</time>
      </trkpt>
      <trkpt lat="46.18249" lon="3.65835">
        <ele>367</ele>
        <time>2022-02-15T20:49:27Z</time>
      </trkpt>
      <trkpt lat="46.18267" lon="3.65837">
        <ele>366</ele>
        <time>2022-02-15T20:49:31Z</time>
      </trkpt>
      <trkpt lat="46.18299" lon="3.65836">
        <ele>363</ele>
        <time>2022-02-15T20:49:36Z</time>
      </trkpt>
      <trkpt lat="46.18316" lon="3.65839">
        <ele>362</ele>
        <time>2022-02-15T20:49:39Z</time>
      </trkpt>
      <trkpt lat="46.18329" lon="3.65845">
        <ele>361</ele>
        <time>2022-02-15T20:49:42Z</time>
      </trkpt>
      <trkpt lat="46.18366" lon="3.65874">
        <ele>359</ele>
        <time>2022-02-15T20:49:49Z</time>
      </trkpt>
      <trkpt lat="46.18375" lon="3.65879">
        <ele>358</ele>
        <time>2022-02-15T20:49:51Z</time>
      </trkpt>
      <trkpt lat="46.18395" lon="3.65881">
        <ele>356</ele>
        <time>2022-02-15T20:49:54Z</time>
      </trkpt>
      <trkpt lat="46.18458" lon="3.65852">
        <ele>354</ele>
        <time>2022-02-15T20:50:06Z</time>
      </trkpt>
      <trkpt lat="46.18479" lon="3.6585">
        <ele>354</ele>
        <time>2022-02-15T20:50:10Z</time>
      </trkpt>
      <trkpt lat="46.18541" lon="3.65849">
        <ele>351</ele>
        <time>2022-02-15T20:50:21Z</time>
      </trkpt>
      <trkpt lat="46.18552" lon="3.65847">
        <ele>350</ele>
        <time>2022-02-15T20:50:23Z</time>
      </trkpt>
      <trkpt lat="46.18561" lon="3.65839">
        <ele>350</ele>
        <time>2022-02-15T20:50:25Z</time>
      </trkpt>
      <trkpt lat="46.18566" lon="3.65829">
        <ele>349</ele>
        <time>2022-02-15T20:50:26Z</time>
      </trkpt>
      <trkpt lat="46.18579" lon="3.65774">
        <ele>350</ele>
        <time>2022-02-15T20:50:34Z</time>
      </trkpt>
      <trkpt lat="46.18587" lon="3.65755">
        <ele>351</ele>
        <time>2022-02-15T20:50:36Z</time>
      </trkpt>
      <trkpt lat="46.18599" lon="3.65738">
        <ele>352</ele>
        <time>2022-02-15T20:50:39Z</time>
      </trkpt>
      <trkpt lat="46.18609" lon="3.6573">
        <ele>352</ele>
        <time>2022-02-15T20:50:41Z</time>
      </trkpt>
      <trkpt lat="46.18623" lon="3.65727">
        <ele>352</ele>
        <time>2022-02-15T20:50:44Z</time>
      </trkpt>
      <trkpt lat="46.18639" lon="3.65727">
        <ele>352</ele>
        <time>2022-02-15T20:50:47Z</time>
      </trkpt>
      <trkpt lat="46.18736" lon="3.65742">
        <ele>354</ele>
        <time>2022-02-15T20:51:04Z</time>
      </trkpt>
      <trkpt lat="46.18761" lon="3.65744">
        <ele>354</ele>
        <time>2022-02-15T20:51:08Z</time>
      </trkpt>
      <trkpt lat="46.18789" lon="3.65742">
        <ele>355</ele>
        <time>2022-02-15T20:51:13Z</time>
      </trkpt>
      <trkpt lat="46.18809" lon="3.65733">
        <ele>356</ele>
        <time>2022-02-15T20:51:17Z</time>
      </trkpt>
      <trkpt lat="46.18823" lon="3.65719">
        <ele>356</ele>
        <time>2022-02-15T20:51:20Z</time>
      </trkpt>
      <trkpt lat="46.18838" lon="3.65698">
        <ele>357</ele>
        <time>2022-02-15T20:51:24Z</time>
      </trkpt>
      <trkpt lat="46.18998" lon="3.65415">
        <ele>359</ele>
        <time>2022-02-15T20:52:09Z</time>
      </trkpt>
      <trkpt lat="46.1915" lon="3.65115">
        <ele>347</ele>
        <time>2022-02-15T20:52:55Z</time>
      </trkpt>
      <trkpt lat="46.19165" lon="3.65089">
        <ele>347</ele>
        <time>2022-02-15T20:52:59Z</time>
      </trkpt>
      <trkpt lat="46.1918" lon="3.65066">
        <ele>347</ele>
        <time>2022-02-15T20:53:03Z</time>
      </trkpt>
      <trkpt lat="46.19516" lon="3.64686">
        <ele>352</ele>
        <time>2022-02-15T20:54:19Z</time>
      </trkpt>
      <trkpt lat="46.19532" lon="3.64665">
        <ele>352</ele>
        <time>2022-02-15T20:54:23Z</time>
      </trkpt>
      <trkpt lat="46.19543" lon="3.64643">
        <ele>351</ele>
        <time>2022-02-15T20:54:26Z</time>
      </trkpt>
      <trkpt lat="46.19551" lon="3.64612">
        <ele>350</ele>
        <time>2022-02-15T20:54:30Z</time>
      </trkpt>
      <trkpt lat="46.1959" lon="3.64423">
        <ele>346</ele>
        <time>2022-02-15T20:54:54Z</time>
      </trkpt>
      <trkpt lat="46.19601" lon="3.64387">
        <ele>345</ele>
        <time>2022-02-15T20:54:59Z</time>
      </trkpt>
      <trkpt lat="46.19614" lon="3.64354">
        <ele>345</ele>
        <time>2022-02-15T20:55:04Z</time>
      </trkpt>
      <trkpt lat="46.19631" lon="3.64326">
        <ele>345</ele>
        <time>2022-02-15T20:55:08Z</time>
      </trkpt>
      <trkpt lat="46.19648" lon="3.64305">
        <ele>345</ele>
        <time>2022-02-15T20:55:12Z</time>
      </trkpt>
      <trkpt lat="46.19667" lon="3.6429">
        <ele>345</ele>
        <time>2022-02-15T20:55:16Z</time>
      </trkpt>
      <trkpt lat="46.1969" lon="3.64275">
        <ele>346</ele>
        <time>2022-02-15T20:55:21Z</time>
      </trkpt>
      <trkpt lat="46.20203" lon="3.63994">
        <ele>352</ele>
        <time>2022-02-15T20:56:58Z</time>
      </trkpt>
      <trkpt lat="46.20232" lon="3.63984">
        <ele>351</ele>
        <time>2022-02-15T20:57:04Z</time>
      </trkpt>
      <trkpt lat="46.20441" lon="3.6392">
        <ele>346</ele>
        <time>2022-02-15T20:57:42Z</time>
      </trkpt>
      <trkpt lat="46.20467" lon="3.63916">
        <ele>346</ele>
        <time>2022-02-15T20:57:46Z</time>
      </trkpt>
      <trkpt lat="46.20504" lon="3.63919">
        <ele>346</ele>
        <time>2022-02-15T20:57:53Z</time>
      </trkpt>
      <trkpt lat="46.20531" lon="3.63929">
        <ele>345</ele>
        <time>2022-02-15T20:57:58Z</time>
      </trkpt>
      <trkpt lat="46.20779" lon="3.64071">
        <ele>339</ele>
        <time>2022-02-15T20:58:45Z</time>
      </trkpt>
      <trkpt lat="46.20807" lon="3.64084">
        <ele>339</ele>
        <time>2022-02-15T20:58:51Z</time>
      </trkpt>
      <trkpt lat="46.2086" lon="3.64099">
        <ele>337</ele>
        <time>2022-02-15T20:59:00Z</time>
      </trkpt>
      <trkpt lat="46.2098" lon="3.64116">
        <ele>331</ele>
        <time>2022-02-15T20:59:22Z</time>
      </trkpt>
      <trkpt lat="46.21285" lon="3.6415">
        <ele>332</ele>
        <time>2022-02-15T21:00:16Z</time>
      </trkpt>
      <trkpt lat="46.21643" lon="3.64098">
        <ele>317</ele>
        <time>2022-02-15T21:01:20Z</time>
      </trkpt>
      <trkpt lat="46.21737" lon="3.64097">
        <ele>313</ele>
        <time>2022-02-15T21:01:37Z</time>
      </trkpt>
      <trkpt lat="46.21814" lon="3.6412">
        <ele>307</ele>
        <time>2022-02-15T21:01:51Z</time>
      </trkpt>
      <trkpt lat="46.21907" lon="3.64184">
        <ele>299</ele>
        <time>2022-02-15T21:02:09Z</time>
      </trkpt>
      <trkpt lat="46.21977" lon="3.6427">
        <ele>293</ele>
        <time>2022-02-15T21:02:25Z</time>
      </trkpt>
      <trkpt lat="46.2202" lon="3.64334">
        <ele>292</ele>
        <time>2022-02-15T21:02:36Z</time>
      </trkpt>
      <trkpt lat="46.2206" lon="3.64369">
        <ele>291</ele>
        <time>2022-02-15T21:02:45Z</time>
      </trkpt>
      <trkpt lat="46.22097" lon="3.64376">
        <ele>290</ele>
        <time>2022-02-15T21:02:51Z</time>
      </trkpt>
      <trkpt lat="46.2225" lon="3.6439">
        <ele>288</ele>
        <time>2022-02-15T21:03:19Z</time>
      </trkpt>
      <trkpt lat="46.22285" lon="3.64386">
        <ele>288</ele>
        <time>2022-02-15T21:03:25Z</time>
      </trkpt>
      <trkpt lat="46.22523" lon="3.64338">
        <ele>286</ele>
        <time>2022-02-15T21:04:08Z</time>
      </trkpt>
      <trkpt lat="46.22551" lon="3.64336">
        <ele>288</ele>
        <time>2022-02-15T21:04:13Z</time>
      </trkpt>
      <trkpt lat="46.22577" lon="3.64347">
        <ele>289</ele>
        <time>2022-02-15T21:04:17Z</time>
      </trkpt>
      <trkpt lat="46.22593" lon="3.64361">
        <ele>291</ele>
        <time>2022-02-15T21:04:21Z</time>
      </trkpt>
      <trkpt lat="46.22607" lon="3.64382">
        <ele>293</ele>
        <time>2022-02-15T21:04:24Z</time>
      </trkpt>
      <trkpt lat="46.2262" lon="3.64412">
        <ele>294</ele>
        <time>2022-02-15T21:04:29Z</time>
      </trkpt>
      <trkpt lat="46.22647" lon="3.64496">
        <ele>291</ele>
        <time>2022-02-15T21:04:40Z</time>
      </trkpt>
      <trkpt lat="46.22655" lon="3.64516">
        <ele>292</ele>
        <time>2022-02-15T21:04:43Z</time>
      </trkpt>
      <trkpt lat="46.22673" lon="3.64534">
        <ele>293</ele>
        <time>2022-02-15T21:04:47Z</time>
      </trkpt>
      <trkpt lat="46.22904" lon="3.64615">
        <ele>292</ele>
        <time>2022-02-15T21:05:29Z</time>
      </trkpt>
      <trkpt lat="46.22927" lon="3.64618">
        <ele>291</ele>
        <time>2022-02-15T21:05:33Z</time>
      </trkpt>
      <trkpt lat="46.22965" lon="3.64615">
        <ele>291</ele>
        <time>2022-02-15T21:05:40Z</time>
      </trkpt>
      <trkpt lat="46.23115" lon="3.64578">
        <ele>286</ele>
        <time>2022-02-15T21:06:07Z</time>
      </trkpt>
      <trkpt lat="46.23138" lon="3.64566">
        <ele>286</ele>
        <time>2022-02-15T21:06:12Z</time>
      </trkpt>
      <trkpt lat="46.23166" lon="3.6454">
        <ele>286</ele>
        <time>2022-02-15T21:06:17Z</time>
      </trkpt>
      <trkpt lat="46.23258" lon="3.64447">
        <ele>288</ele>
        <time>2022-02-15T21:06:37Z</time>
      </trkpt>
      <trkpt lat="46.23276" lon="3.64433">
        <ele>288</ele>
        <time>2022-02-15T21:06:41Z</time>
      </trkpt>
      <trkpt lat="46.23292" lon="3.64429">
        <ele>288</ele>
        <time>2022-02-15T21:06:44Z</time>
      </trkpt>
      <trkpt lat="46.23307" lon="3.6443">
        <ele>287</ele>
        <time>2022-02-15T21:06:47Z</time>
      </trkpt>
      <trkpt lat="46.23324" lon="3.64435">
        <ele>286</ele>
        <time>2022-02-15T21:06:50Z</time>
      </trkpt>
      <trkpt lat="46.23416" lon="3.64485">
        <ele>285</ele>
        <time>2022-02-15T21:07:07Z</time>
      </trkpt>
      <trkpt lat="46.23439" lon="3.6449">
        <ele>283</ele>
        <time>2022-02-15T21:07:11Z</time>
      </trkpt>
      <trkpt lat="46.23458" lon="3.64486">
        <ele>283</ele>
        <time>2022-02-15T21:07:15Z</time>
      </trkpt>
      <trkpt lat="46.23481" lon="3.64475">
        <ele>282</ele>
        <time>2022-02-15T21:07:19Z</time>
      </trkpt>
      <trkpt lat="46.23619" lon="3.64364">
        <ele>283</ele>
        <time>2022-02-15T21:07:47Z</time>
      </trkpt>
      <trkpt lat="46.23649" lon="3.64338">
        <ele>285</ele>
        <time>2022-02-15T21:07:53Z</time>
      </trkpt>
      <trkpt lat="46.23692" lon="3.64297">
        <ele>284</ele>
        <time>2022-02-15T21:08:03Z</time>
      </trkpt>
      <trkpt lat="46.23769" lon="3.64216">
        <ele>283</ele>
        <time>2022-02-15T21:08:19Z</time>
      </trkpt>
      <trkpt lat="46.23818" lon="3.6416">
        <ele>282</ele>
        <time>2022-02-15T21:08:31Z</time>
      </trkpt>
      <trkpt lat="46.23948" lon="3.63997">
        <ele>280</ele>
        <time>2022-02-15T21:09:01Z</time>
      </trkpt>
      <trkpt lat="46.24058" lon="3.63864">
        <ele>280</ele>
        <time>2022-02-15T21:09:27Z</time>
      </trkpt>
      <trkpt lat="46.24124" lon="3.63797">
        <ele>281</ele>
        <time>2022-02-15T21:09:41Z</time>
      </trkpt>
      <trkpt lat="46.24282" lon="3.63661">
        <ele>280</ele>
        <time>2022-02-15T21:10:14Z</time>
      </trkpt>
      <trkpt lat="46.24305" lon="3.63637">
        <ele>280</ele>
        <time>2022-02-15T21:10:19Z</time>
      </trkpt>
      <trkpt lat="46.24347" lon="3.63567">
        <ele>279</ele>
        <time>2022-02-15T21:10:30Z</time>
      </trkpt>
      <trkpt lat="46.24354" lon="3.6356">
        <ele>280</ele>
        <time>2022-02-15T21:10:32Z</time>
      </trkpt>
      <trkpt lat="46.24365" lon="3.63558">
        <ele>280</ele>
        <time>2022-02-15T21:10:34Z</time>
      </trkpt>
      <trkpt lat="46.2444" lon="3.63575">
        <ele>279</ele>
        <time>2022-02-15T21:10:47Z</time>
      </trkpt>
      <trkpt lat="46.24451" lon="3.63583">
        <ele>279</ele>
        <time>2022-02-15T21:10:49Z</time>
      </trkpt>
      <trkpt lat="46.24471" lon="3.63613">
        <ele>280</ele>
        <time>2022-02-15T21:10:55Z</time>
      </trkpt>
      <trkpt lat="46.24486" lon="3.63631">
        <ele>279</ele>
        <time>2022-02-15T21:10:58Z</time>
      </trkpt>
      <trkpt lat="46.24502" lon="3.63639">
        <ele>279</ele>
        <time>2022-02-15T21:11:01Z</time>
      </trkpt>
      <trkpt lat="46.24524" lon="3.63641">
        <ele>279</ele>
        <time>2022-02-15T21:11:05Z</time>
      </trkpt>
      <trkpt lat="46.24538" lon="3.63638">
        <ele>279</ele>
        <time>2022-02-15T21:11:07Z</time>
      </trkpt>
      <trkpt lat="46.24564" lon="3.63618">
        <ele>279</ele>
        <time>2022-02-15T21:11:13Z</time>
      </trkpt>
      <trkpt lat="46.24621" lon="3.63562">
        <ele>279</ele>
        <time>2022-02-15T21:11:25Z</time>
      </trkpt>
      <trkpt lat="46.24639" lon="3.6355">
        <ele>279</ele>
        <time>2022-02-15T21:11:28Z</time>
      </trkpt>
      <trkpt lat="46.24688" lon="3.6353">
        <ele>279</ele>
        <time>2022-02-15T21:11:38Z</time>
      </trkpt>
      <trkpt lat="46.24782" lon="3.63486">
        <ele>280</ele>
        <time>2022-02-15T21:11:55Z</time>
      </trkpt>
      <trkpt lat="46.24804" lon="3.63478">
        <ele>280</ele>
        <time>2022-02-15T21:11:59Z</time>
      </trkpt>
      <trkpt lat="46.24779" lon="3.62948">
        <ele>279</ele>
        <time>2022-02-15T21:13:05Z</time>
      </trkpt>
      <trkpt lat="46.2478" lon="3.62895">
        <ele>279</ele>
        <time>2022-02-15T21:13:11Z</time>
      </trkpt>
      <trkpt lat="46.24797" lon="3.62891">
        <ele>279</ele>
        <time>2022-02-15T21:13:14Z</time>
      </trkpt>
      <trkpt lat="46.24971" lon="3.62741">
        <ele>278</ele>
        <time>2022-02-15T21:13:50Z</time>
      </trkpt>
      <trkpt lat="46.25552" lon="3.62246">
        <ele>278</ele>
        <time>2022-02-15T21:15:50Z</time>
      </trkpt>
      <trkpt lat="46.256" lon="3.62203">
        <ele>277</ele>
        <time>2022-02-15T21:16:00Z</time>
      </trkpt>
      <trkpt lat="46.25604" lon="3.62208">
        <ele>277</ele>
        <time>2022-02-15T21:16:01Z</time>
      </trkpt>
      <trkpt lat="46.25608" lon="3.62211">
        <ele>277</ele>
        <time>2022-02-15T21:16:02Z</time>
      </trkpt>
      <trkpt lat="46.25613" lon="3.62212">
        <ele>277</ele>
        <time>2022-02-15T21:16:03Z</time>
      </trkpt>
      <trkpt lat="46.25618" lon="3.62209">
        <ele>277</ele>
        <time>2022-02-15T21:16:04Z</time>
      </trkpt>
      <trkpt lat="46.25621" lon="3.62206">
        <ele>277</ele>
        <time>2022-02-15T21:16:04Z</time>
      </trkpt>
      <trkpt lat="46.25625" lon="3.62196">
        <ele>277</ele>
        <time>2022-02-15T21:16:06Z</time>
      </trkpt>
      <trkpt lat="46.25624" lon="3.62184">
        <ele>277</ele>
        <time>2022-02-15T21:16:07Z</time>
      </trkpt>
      <trkpt lat="46.25804" lon="3.62031">
        <ele>277</ele>
        <time>2022-02-15T21:16:45Z</time>
      </trkpt>
      <trkpt lat="46.25839" lon="3.61994">
        <ele>279</ele>
        <time>2022-02-15T21:16:52Z</time>
      </trkpt>
      <trkpt lat="46.2586" lon="3.61964">
        <ele>279</ele>
        <time>2022-02-15T21:16:57Z</time>
      </trkpt>
      <trkpt lat="46.25864" lon="3.61967">
        <ele>279</ele>
        <time>2022-02-15T21:16:58Z</time>
      </trkpt>
      <trkpt lat="46.2586" lon="3.61964">
        <ele>279</ele>
        <time>2022-02-15T21:16:59Z</time>
      </trkpt>
      <trkpt lat="46.25874" lon="3.61939">
        <ele>280</ele>
        <time>2022-02-15T21:17:03Z</time>
      </trkpt>
      <trkpt lat="46.25935" lon="3.61813">
        <ele>281</ele>
        <time>2022-02-15T21:17:22Z</time>
      </trkpt>
      <trkpt lat="46.25958" lon="3.61771">
        <ele>281</ele>
        <time>2022-02-15T21:17:29Z</time>
      </trkpt>
      <trkpt lat="46.25989" lon="3.61732">
        <ele>281</ele>
        <time>2022-02-15T21:17:36Z</time>
      </trkpt>
      <trkpt lat="46.26179" lon="3.61507">
        <ele>290</ele>
        <time>2022-02-15T21:18:20Z</time>
      </trkpt>
      <trkpt lat="46.26191" lon="3.61495">
        <ele>290</ele>
        <time>2022-02-15T21:18:22Z</time>
      </trkpt>
      <trkpt lat="46.26208" lon="3.61485">
        <ele>290</ele>
        <time>2022-02-15T21:18:25Z</time>
      </trkpt>
      <trkpt lat="46.26225" lon="3.6148">
        <ele>289</ele>
        <time>2022-02-15T21:18:28Z</time>
      </trkpt>
      <trkpt lat="46.26455" lon="3.61438">
        <ele>287</ele>
        <time>2022-02-15T21:19:10Z</time>
      </trkpt>
      <trkpt lat="46.26474" lon="3.61433">
        <ele>288</ele>
        <time>2022-02-15T21:19:13Z</time>
      </trkpt>
      <trkpt lat="46.26487" lon="3.61422">
        <ele>289</ele>
        <time>2022-02-15T21:19:16Z</time>
      </trkpt>
      <trkpt lat="46.26499" lon="3.61405">
        <ele>290</ele>
        <time>2022-02-15T21:19:19Z</time>
      </trkpt>
      <trkpt lat="46.26506" lon="3.6138">
        <ele>291</ele>
        <time>2022-02-15T21:19:22Z</time>
      </trkpt>
      <trkpt lat="46.26517" lon="3.61231">
        <ele>296</ele>
        <time>2022-02-15T21:19:41Z</time>
      </trkpt>
      <trkpt lat="46.26519" lon="3.61211">
        <ele>296</ele>
        <time>2022-02-15T21:19:43Z</time>
      </trkpt>
      <trkpt lat="46.26525" lon="3.61189">
        <ele>296</ele>
        <time>2022-02-15T21:19:46Z</time>
      </trkpt>
      <trkpt lat="46.26537" lon="3.61172">
        <ele>297</ele>
        <time>2022-02-15T21:19:49Z</time>
      </trkpt>
      <trkpt lat="46.27004" lon="3.60715">
        <ele>314</ele>
        <time>2022-02-15T21:21:29Z</time>
      </trkpt>
      <trkpt lat="46.27021" lon="3.60708">
        <ele>314</ele>
        <time>2022-02-15T21:21:32Z</time>
      </trkpt>
      <trkpt lat="46.2704" lon="3.60704">
        <ele>315</ele>
        <time>2022-02-15T21:21:36Z</time>
      </trkpt>
      <trkpt lat="46.27063" lon="3.60705">
        <ele>315</ele>
        <time>2022-02-15T21:21:40Z</time>
      </trkpt>
      <trkpt lat="46.27123" lon="3.60714">
        <ele>316</ele>
        <time>2022-02-15T21:21:51Z</time>
      </trkpt>
      <trkpt lat="46.27147" lon="3.6071">
        <ele>316</ele>
        <time>2022-02-15T21:21:55Z</time>
      </trkpt>
      <trkpt lat="46.27248" lon="3.60686">
        <ele>316</ele>
        <time>2022-02-15T21:22:13Z</time>
      </trkpt>
      <trkpt lat="46.27286" lon="3.60674">
        <ele>315</ele>
        <time>2022-02-15T21:22:20Z</time>
      </trkpt>
      <trkpt lat="46.27415" lon="3.60615">
        <ele>316</ele>
        <time>2022-02-15T21:22:44Z</time>
      </trkpt>
      <trkpt lat="46.27524" lon="3.60555">
        <ele>316</ele>
        <time>2022-02-15T21:23:05Z</time>
      </trkpt>
      <trkpt lat="46.27551" lon="3.60544">
        <ele>317</ele>
        <time>2022-02-15T21:23:10Z</time>
      </trkpt>
      <trkpt lat="46.27619" lon="3.60522">
        <ele>317</ele>
        <time>2022-02-15T21:23:22Z</time>
      </trkpt>
      <trkpt lat="46.27662" lon="3.60503">
        <ele>317</ele>
        <time>2022-02-15T21:23:30Z</time>
      </trkpt>
      <trkpt lat="46.27709" lon="3.60486">
        <ele>316</ele>
        <time>2022-02-15T21:23:39Z</time>
      </trkpt>
      <trkpt lat="46.27765" lon="3.60478">
        <ele>314</ele>
        <time>2022-02-15T21:23:49Z</time>
      </trkpt>
      <trkpt lat="46.27904" lon="3.60475">
        <ele>310</ele>
        <time>2022-02-15T21:24:14Z</time>
      </trkpt>
      <trkpt lat="46.27941" lon="3.60478">
        <ele>310</ele>
        <time>2022-02-15T21:24:20Z</time>
      </trkpt>
      <trkpt lat="46.28044" lon="3.60497">
        <ele>312</ele>
        <time>2022-02-15T21:24:39Z</time>
      </trkpt>
      <trkpt lat="46.28067" lon="3.60498">
        <ele>313</ele>
        <time>2022-02-15T21:24:43Z</time>
      </trkpt>
      <trkpt lat="46.2809" lon="3.60494">
        <ele>313</ele>
        <time>2022-02-15T21:24:47Z</time>
      </trkpt>
      <trkpt lat="46.28231" lon="3.60444">
        <ele>313</ele>
        <time>2022-02-15T21:25:13Z</time>
      </trkpt>
      <trkpt lat="46.28508" lon="3.60304">
        <ele>310</ele>
        <time>2022-02-15T21:26:05Z</time>
      </trkpt>
      <trkpt lat="46.28531" lon="3.60299">
        <ele>309</ele>
        <time>2022-02-15T21:26:09Z</time>
      </trkpt>
      <trkpt lat="46.28554" lon="3.60298">
        <ele>308</ele>
        <time>2022-02-15T21:26:13Z</time>
      </trkpt>
      <trkpt lat="46.28579" lon="3.60302">
        <ele>308</ele>
        <time>2022-02-15T21:26:18Z</time>
      </trkpt>
      <trkpt lat="46.28686" lon="3.60336">
        <ele>307</ele>
        <time>2022-02-15T21:26:37Z</time>
      </trkpt>
      <trkpt lat="46.28705" lon="3.6034">
        <ele>307</ele>
        <time>2022-02-15T21:26:41Z</time>
      </trkpt>
      <trkpt lat="46.28934" lon="3.6034">
        <ele>304</ele>
        <time>2022-02-15T21:27:21Z</time>
      </trkpt>
      <trkpt lat="46.29026" lon="3.60354">
        <ele>304</ele>
        <time>2022-02-15T21:27:38Z</time>
      </trkpt>
      <trkpt lat="46.29036" lon="3.60352">
        <ele>304</ele>
        <time>2022-02-15T21:27:40Z</time>
      </trkpt>
      <trkpt lat="46.29058" lon="3.60344">
        <ele>304</ele>
        <time>2022-02-15T21:27:44Z</time>
      </trkpt>
      <trkpt lat="46.29143" lon="3.60307">
        <ele>301</ele>
        <time>2022-02-15T21:27:59Z</time>
      </trkpt>
      <trkpt lat="46.29239" lon="3.60294">
        <ele>298</ele>
        <time>2022-02-15T21:28:17Z</time>
      </trkpt>
      <trkpt lat="46.29305" lon="3.6027">
        <ele>295</ele>
        <time>2022-02-15T21:28:29Z</time>
      </trkpt>
      <trkpt lat="46.29319" lon="3.60269">
        <ele>295</ele>
        <time>2022-02-15T21:28:31Z</time>
      </trkpt>
      <trkpt lat="46.29335" lon="3.60273">
        <ele>295</ele>
        <time>2022-02-15T21:28:34Z</time>
      </trkpt>
      <trkpt lat="46.29353" lon="3.60282">
        <ele>293</ele>
        <time>2022-02-15T21:28:38Z</time>
      </trkpt>
      <trkpt lat="46.29452" lon="3.60348">
        <ele>288</ele>
        <time>2022-02-15T21:28:57Z</time>
      </trkpt>
      <trkpt lat="46.29474" lon="3.60368">
        <ele>286</ele>
        <time>2022-02-15T21:29:02Z</time>
      </trkpt>
      <trkpt lat="46.29599" lon="3.60497">
        <ele>274</ele>
        <time>2022-02-15T21:29:29Z</time>
      </trkpt>
      <trkpt lat="46.29624" lon="3.60527">
        <ele>272</ele>
        <time>2022-02-15T21:29:35Z</time>
      </trkpt>
      <trkpt lat="46.29644" lon="3.60561">
        <ele>271</ele>
        <time>2022-02-15T21:29:40Z</time>
      </trkpt>
      <trkpt lat="46.29672" lon="3.60637">
        <ele>270</ele>
        <time>2022-02-15T21:29:51Z</time>
      </trkpt>
      <trkpt lat="46.2968" lon="3.60656">
        <ele>270</ele>
        <time>2022-02-15T21:29:53Z</time>
      </trkpt>
      <trkpt lat="46.29688" lon="3.6067">
        <ele>270</ele>
        <time>2022-02-15T21:29:56Z</time>
      </trkpt>
      <trkpt lat="46.29698" lon="3.60681">
        <ele>270</ele>
        <time>2022-02-15T21:29:58Z</time>
      </trkpt>
      <trkpt lat="46.29717" lon="3.60697">
        <ele>270</ele>
        <time>2022-02-15T21:30:02Z</time>
      </trkpt>
      <trkpt lat="46.29739" lon="3.60705">
        <ele>270</ele>
        <time>2022-02-15T21:30:06Z</time>
      </trkpt>
      <trkpt lat="46.29751" lon="3.60706">
        <ele>270</ele>
        <time>2022-02-15T21:30:08Z</time>
      </trkpt>
      <trkpt lat="46.29782" lon="3.60709">
        <ele>270</ele>
        <time>2022-02-15T21:30:14Z</time>
      </trkpt>
      <trkpt lat="46.29798" lon="3.60711">
        <ele>269</ele>
        <time>2022-02-15T21:30:16Z</time>
      </trkpt>
      <trkpt lat="46.29833" lon="3.60716">
        <ele>269</ele>
        <time>2022-02-15T21:30:23Z</time>
      </trkpt>
      <trkpt lat="46.29856" lon="3.60715">
        <ele>269</ele>
        <time>2022-02-15T21:30:27Z</time>
      </trkpt>
      <trkpt lat="46.29879" lon="3.60707">
        <ele>270</ele>
        <time>2022-02-15T21:30:31Z</time>
      </trkpt>
      <trkpt lat="46.29952" lon="3.60656">
        <ele>273</ele>
        <time>2022-02-15T21:30:45Z</time>
      </trkpt>
      <trkpt lat="46.30075" lon="3.60577">
        <ele>273</ele>
        <time>2022-02-15T21:31:09Z</time>
      </trkpt>
      <trkpt lat="46.30096" lon="3.60559">
        <ele>272</ele>
        <time>2022-02-15T21:31:14Z</time>
      </trkpt>
      <trkpt lat="46.30112" lon="3.60543">
        <ele>271</ele>
        <time>2022-02-15T21:31:17Z</time>
      </trkpt>
      <trkpt lat="46.30148" lon="3.60488">
        <ele>271</ele>
        <time>2022-02-15T21:31:26Z</time>
      </trkpt>
      <trkpt lat="46.30505" lon="3.59899">
        <ele>275</ele>
        <time>2022-02-15T21:33:03Z</time>
      </trkpt>
      <trkpt lat="46.30535" lon="3.59856">
        <ele>275</ele>
        <time>2022-02-15T21:33:10Z</time>
      </trkpt>
      <trkpt lat="46.30669" lon="3.59702">
        <ele>277</ele>
        <time>2022-02-15T21:33:41Z</time>
      </trkpt>
      <trkpt lat="46.30805" lon="3.59521">
        <ele>272</ele>
        <time>2022-02-15T21:34:14Z</time>
      </trkpt>
      <trkpt lat="46.30827" lon="3.59495">
        <ele>271</ele>
        <time>2022-02-15T21:34:19Z</time>
      </trkpt>
      <trkpt lat="46.30854" lon="3.59473">
        <ele>271</ele>
        <time>2022-02-15T21:34:24Z</time>
      </trkpt>
      <trkpt lat="46.3096" lon="3.59394">
        <ele>271</ele>
        <time>2022-02-15T21:34:45Z</time>
      </trkpt>
      <trkpt lat="46.30995" lon="3.59362">
        <ele>272</ele>
        <time>2022-02-15T21:34:53Z</time>
      </trkpt>
      <trkpt lat="46.31149" lon="3.59186">
        <ele>270</ele>
        <time>2022-02-15T21:35:28Z</time>
      </trkpt>
      <trkpt lat="46.31177" lon="3.59157">
        <ele>271</ele>
        <time>2022-02-15T21:35:34Z</time>
      </trkpt>
      <trkpt lat="46.312" lon="3.59142">
        <ele>271</ele>
        <time>2022-02-15T21:35:38Z</time>
      </trkpt>
      <trkpt lat="46.315" lon="3.5904">
        <ele>269</ele>
        <time>2022-02-15T21:36:33Z</time>
      </trkpt>
      <trkpt lat="46.31531" lon="3.59024">
        <ele>269</ele>
        <time>2022-02-15T21:36:39Z</time>
      </trkpt>
      <trkpt lat="46.31575" lon="3.58986">
        <ele>270</ele>
        <time>2022-02-15T21:36:48Z</time>
      </trkpt>
      <trkpt lat="46.316" lon="3.58972">
        <ele>269</ele>
        <time>2022-02-15T21:36:53Z</time>
      </trkpt>
      <trkpt lat="46.31744" lon="3.58916">
        <ele>265</ele>
        <time>2022-02-15T21:37:19Z</time>
      </trkpt>
      <trkpt lat="46.31914" lon="3.58858">
        <ele>266</ele>
        <time>2022-02-15T21:37:50Z</time>
      </trkpt>
      <trkpt lat="46.32182" lon="3.58719">
        <ele>265</ele>
        <time>2022-02-15T21:38:41Z</time>
      </trkpt>
      <trkpt lat="46.322" lon="3.58703">
        <ele>265</ele>
        <time>2022-02-15T21:38:45Z</time>
      </trkpt>
      <trkpt lat="46.32295" lon="3.58616">
        <ele>267</ele>
        <time>2022-02-15T21:39:05Z</time>
      </trkpt>
      <trkpt lat="46.32377" lon="3.58556">
        <ele>268</ele>
        <time>2022-02-15T21:39:21Z</time>
      </trkpt>
      <trkpt lat="46.32437" lon="3.58497">
        <ele>268</ele>
        <time>2022-02-15T21:39:34Z</time>
      </trkpt>
      <trkpt lat="46.32451" lon="3.5849">
        <ele>267</ele>
        <time>2022-02-15T21:39:37Z</time>
      </trkpt>
      <trkpt lat="46.32467" lon="3.58492">
        <ele>267</ele>
        <time>2022-02-15T21:39:40Z</time>
      </trkpt>
      <trkpt lat="46.32514" lon="3.58508">
        <ele>264</ele>
        <time>2022-02-15T21:39:48Z</time>
      </trkpt>
      <trkpt lat="46.32538" lon="3.58506">
        <ele>264</ele>
        <time>2022-02-15T21:39:52Z</time>
      </trkpt>
      <trkpt lat="46.32585" lon="3.58494">
        <ele>264</ele>
        <time>2022-02-15T21:40:01Z</time>
      </trkpt>
      <trkpt lat="46.32634" lon="3.58493">
        <ele>263</ele>
        <time>2022-02-15T21:40:10Z</time>
      </trkpt>
      <trkpt lat="46.32659" lon="3.58484">
        <ele>263</ele>
        <time>2022-02-15T21:40:14Z</time>
      </trkpt>
      <trkpt lat="46.32833" lon="3.58387">
        <ele>261</ele>
        <time>2022-02-15T21:40:47Z</time>
      </trkpt>
      <trkpt lat="46.32974" lon="3.5828">
        <ele>265</ele>
        <time>2022-02-15T21:41:16Z</time>
      </trkpt>
      <trkpt lat="46.33181" lon="3.58179">
        <ele>267</ele>
        <time>2022-02-15T21:41:55Z</time>
      </trkpt>
      <trkpt lat="46.33263" lon="3.58126">
        <ele>265</ele>
        <time>2022-02-15T21:42:11Z</time>
      </trkpt>
      <trkpt lat="46.33345" lon="3.58069">
        <ele>266</ele>
        <time>2022-02-15T21:42:27Z</time>
      </trkpt>
      <trkpt lat="46.33369" lon="3.58059">
        <ele>267</ele>
        <time>2022-02-15T21:42:31Z</time>
      </trkpt>
      <trkpt lat="46.3339" lon="3.58057">
        <ele>267</ele>
        <time>2022-02-15T21:42:35Z</time>
      </trkpt>
      <trkpt lat="46.33698" lon="3.58125">
        <ele>262</ele>
        <time>2022-02-15T21:43:30Z</time>
      </trkpt>
      <trkpt lat="46.33719" lon="3.58127">
        <ele>261</ele>
        <time>2022-02-15T21:43:34Z</time>
      </trkpt>
      <trkpt lat="46.33737" lon="3.58123">
        <ele>262</ele>
        <time>2022-02-15T21:43:37Z</time>
      </trkpt>
      <trkpt lat="46.33759" lon="3.58112">
        <ele>262</ele>
        <time>2022-02-15T21:43:41Z</time>
      </trkpt>
      <trkpt lat="46.33829" lon="3.58067">
        <ele>262</ele>
        <time>2022-02-15T21:43:55Z</time>
      </trkpt>
      <trkpt lat="46.33862" lon="3.58048">
        <ele>262</ele>
        <time>2022-02-15T21:44:01Z</time>
      </trkpt>
      <trkpt lat="46.33899" lon="3.5803">
        <ele>261</ele>
        <time>2022-02-15T21:44:08Z</time>
      </trkpt>
      <trkpt lat="46.33995" lon="3.57991">
        <ele>262</ele>
        <time>2022-02-15T21:44:26Z</time>
      </trkpt>
      <trkpt lat="46.34201" lon="3.57925">
        <ele>263</ele>
        <time>2022-02-15T21:45:04Z</time>
      </trkpt>
      <trkpt lat="46.34278" lon="3.5789">
        <ele>261</ele>
        <time>2022-02-15T21:45:18Z</time>
      </trkpt>
      <trkpt lat="46.34318" lon="3.57874">
        <ele>258</ele>
        <time>2022-02-15T21:45:25Z</time>
      </trkpt>
      <trkpt lat="46.3434" lon="3.57871">
        <ele>257</ele>
        <time>2022-02-15T21:45:29Z</time>
      </trkpt>
      <trkpt lat="46.34364" lon="3.57875">
        <ele>257</ele>
        <time>2022-02-15T21:45:34Z</time>
      </trkpt>
      <trkpt lat="46.34465" lon="3.57899">
        <ele>258</ele>
        <time>2022-02-15T21:45:52Z</time>
      </trkpt>
      <trkpt lat="46.34488" lon="3.579">
        <ele>258</ele>
        <time>2022-02-15T21:45:56Z</time>
      </trkpt>
      <trkpt lat="46.3451" lon="3.57897">
        <ele>259</ele>
        <time>2022-02-15T21:46:00Z</time>
      </trkpt>
      <trkpt lat="46.34615" lon="3.57861">
        <ele>262</ele>
        <time>2022-02-15T21:46:19Z</time>
      </trkpt>
      <trkpt lat="46.34642" lon="3.57856">
        <ele>261</ele>
        <time>2022-02-15T21:46:24Z</time>
      </trkpt>
      <trkpt lat="46.34829" lon="3.57842">
        <ele>257</ele>
        <time>2022-02-15T21:46:57Z</time>
      </trkpt>
      <trkpt lat="46.34848" lon="3.57845">
        <ele>256</ele>
        <time>2022-02-15T21:47:01Z</time>
      </trkpt>
      <trkpt lat="46.34868" lon="3.57854">
        <ele>255</ele>
        <time>2022-02-15T21:47:04Z</time>
      </trkpt>
      <trkpt lat="46.35005" lon="3.57934">
        <ele>251</ele>
        <time>2022-02-15T21:47:31Z</time>
      </trkpt>
      <trkpt lat="46.35016" lon="3.57938">
        <ele>251</ele>
        <time>2022-02-15T21:47:33Z</time>
      </trkpt>
      <trkpt lat="46.35031" lon="3.57939">
        <ele>251</ele>
        <time>2022-02-15T21:47:35Z</time>
      </trkpt>
      <trkpt lat="46.35048" lon="3.57935">
        <ele>251</ele>
        <time>2022-02-15T21:47:38Z</time>
      </trkpt>
      <trkpt lat="46.35197" lon="3.57872">
        <ele>250</ele>
        <time>2022-02-15T21:48:06Z</time>
      </trkpt>
      <trkpt lat="46.35218" lon="3.57866">
        <ele>250</ele>
        <time>2022-02-15T21:48:10Z</time>
      </trkpt>
      <trkpt lat="46.35394" lon="3.57861">
        <ele>250</ele>
        <time>2022-02-15T21:48:41Z</time>
      </trkpt>
      <trkpt lat="46.35451" lon="3.57856">
        <ele>249</ele>
        <time>2022-02-15T21:48:51Z</time>
      </trkpt>
      <trkpt lat="46.35508" lon="3.57832">
        <ele>249</ele>
        <time>2022-02-15T21:49:02Z</time>
      </trkpt>
      <trkpt lat="46.35629" lon="3.57778">
        <ele>250</ele>
        <time>2022-02-15T21:49:24Z</time>
      </trkpt>
      <trkpt lat="46.3575" lon="3.57705">
        <ele>253</ele>
        <time>2022-02-15T21:49:48Z</time>
      </trkpt>
      <trkpt lat="46.3579" lon="3.57683">
        <ele>255</ele>
        <time>2022-02-15T21:49:55Z</time>
      </trkpt>
      <trkpt lat="46.35825" lon="3.57676">
        <ele>256</ele>
        <time>2022-02-15T21:50:02Z</time>
      </trkpt>
      <trkpt lat="46.35911" lon="3.57672">
        <ele>258</ele>
        <time>2022-02-15T21:50:17Z</time>
      </trkpt>
      <trkpt lat="46.35955" lon="3.57675">
        <ele>260</ele>
        <time>2022-02-15T21:50:25Z</time>
      </trkpt>
      <trkpt lat="46.35992" lon="3.57686">
        <ele>260</ele>
        <time>2022-02-15T21:50:31Z</time>
      </trkpt>
      <trkpt lat="46.3633" lon="3.57853">
        <ele>255</ele>
        <time>2022-02-15T21:51:35Z</time>
      </trkpt>
      <trkpt lat="46.36386" lon="3.57875">
        <ele>253</ele>
        <time>2022-02-15T21:51:45Z</time>
      </trkpt>
      <trkpt lat="46.36597" lon="3.5795">
        <ele>251</ele>
        <time>2022-02-15T21:52:24Z</time>
      </trkpt>
      <trkpt lat="46.36664" lon="3.5797">
        <ele>252</ele>
        <time>2022-02-15T21:52:36Z</time>
      </trkpt>
      <trkpt lat="46.36721" lon="3.57993">
        <ele>251</ele>
        <time>2022-02-15T21:52:47Z</time>
      </trkpt>
      <trkpt lat="46.36904" lon="3.5806">
        <ele>249</ele>
        <time>2022-02-15T21:53:20Z</time>
      </trkpt>
      <trkpt lat="46.36942" lon="3.58071">
        <ele>249</ele>
        <time>2022-02-15T21:53:27Z</time>
      </trkpt>
      <trkpt lat="46.37297" lon="3.58118">
        <ele>252</ele>
        <time>2022-02-15T21:54:31Z</time>
      </trkpt>
      <trkpt lat="46.37335" lon="3.58142">
        <ele>251</ele>
        <time>2022-02-15T21:54:38Z</time>
      </trkpt>
      <trkpt lat="46.37463" lon="3.58248">
        <ele>249</ele>
        <time>2022-02-15T21:55:04Z</time>
      </trkpt>
      <trkpt lat="46.37537" lon="3.58306">
        <ele>247</ele>
        <time>2022-02-15T21:55:19Z</time>
      </trkpt>
      <trkpt lat="46.37568" lon="3.58324">
        <ele>247</ele>
        <time>2022-02-15T21:55:25Z</time>
      </trkpt>
      <trkpt lat="46.37629" lon="3.58337">
        <ele>248</ele>
        <time>2022-02-15T21:55:36Z</time>
      </trkpt>
      <trkpt lat="46.37659" lon="3.58339">
        <ele>249</ele>
        <time>2022-02-15T21:55:41Z</time>
      </trkpt>
      <trkpt lat="46.37681" lon="3.58336">
        <ele>249</ele>
        <time>2022-02-15T21:55:45Z</time>
      </trkpt>
      <trkpt lat="46.37727" lon="3.58321">
        <ele>250</ele>
        <time>2022-02-15T21:55:54Z</time>
      </trkpt>
      <trkpt lat="46.37753" lon="3.58319">
        <ele>251</ele>
        <time>2022-02-15T21:55:58Z</time>
      </trkpt>
      <trkpt lat="46.37777" lon="3.58323">
        <ele>250</ele>
        <time>2022-02-15T21:56:03Z</time>
      </trkpt>
      <trkpt lat="46.37841" lon="3.5834">
        <ele>250</ele>
        <time>2022-02-15T21:56:14Z</time>
      </trkpt>
      <trkpt lat="46.37902" lon="3.58364">
        <ele>249</ele>
        <time>2022-02-15T21:56:26Z</time>
      </trkpt>
      <trkpt lat="46.3793" lon="3.58367">
        <ele>249</ele>
        <time>2022-02-15T21:56:30Z</time>
      </trkpt>
      <trkpt lat="46.37963" lon="3.58358">
        <ele>249</ele>
        <time>2022-02-15T21:56:36Z</time>
      </trkpt>
      <trkpt lat="46.37983" lon="3.58345">
        <ele>250</ele>
        <time>2022-02-15T21:56:40Z</time>
      </trkpt>
      <trkpt lat="46.38008" lon="3.58322">
        <ele>252</ele>
        <time>2022-02-15T21:56:46Z</time>
      </trkpt>
      <trkpt lat="46.38027" lon="3.58309">
        <ele>253</ele>
        <time>2022-02-15T21:56:49Z</time>
      </trkpt>
      <trkpt lat="46.38049" lon="3.58303">
        <ele>253</ele>
        <time>2022-02-15T21:56:53Z</time>
      </trkpt>
      <trkpt lat="46.38218" lon="3.58295">
        <ele>255</ele>
        <time>2022-02-15T21:57:23Z</time>
      </trkpt>
      <trkpt lat="46.38238" lon="3.58298">
        <ele>255</ele>
        <time>2022-02-15T21:57:27Z</time>
      </trkpt>
      <trkpt lat="46.38258" lon="3.58305">
        <ele>255</ele>
        <time>2022-02-15T21:57:31Z</time>
      </trkpt>
      <trkpt lat="46.38276" lon="3.58315">
        <ele>255</ele>
        <time>2022-02-15T21:57:34Z</time>
      </trkpt>
      <trkpt lat="46.38298" lon="3.58333">
        <ele>254</ele>
        <time>2022-02-15T21:57:39Z</time>
      </trkpt>
      <trkpt lat="46.3865" lon="3.58662">
        <ele>249</ele>
        <time>2022-02-15T21:58:53Z</time>
      </trkpt>
      <trkpt lat="46.39781" lon="3.59706">
        <ele>246</ele>
        <time>2022-02-15T22:02:52Z</time>
      </trkpt>
      <trkpt lat="46.4023" lon="3.59946">
        <ele>246</ele>
        <time>2022-02-15T22:04:17Z</time>
      </trkpt>
      <trkpt lat="46.40257" lon="3.59965">
        <ele>247</ele>
        <time>2022-02-15T22:04:22Z</time>
      </trkpt>
      <trkpt lat="46.40414" lon="3.60087">
        <ele>253</ele>
        <time>2022-02-15T22:04:54Z</time>
      </trkpt>
      <trkpt lat="46.4059" lon="3.60209">
        <ele>250</ele>
        <time>2022-02-15T22:05:29Z</time>
      </trkpt>
      <trkpt lat="46.40882" lon="3.60407">
        <ele>245</ele>
        <time>2022-02-15T22:06:26Z</time>
      </trkpt>
      <trkpt lat="46.40912" lon="3.60433">
        <ele>244</ele>
        <time>2022-02-15T22:06:32Z</time>
      </trkpt>
      <trkpt lat="46.41447" lon="3.60935">
        <ele>250</ele>
        <time>2022-02-15T22:08:26Z</time>
      </trkpt>
      <trkpt lat="46.42637" lon="3.61889">
        <ele>239</ele>
        <time>2022-02-15T22:12:27Z</time>
      </trkpt>
      <trkpt lat="46.42675" lon="3.61912">
        <ele>240</ele>
        <time>2022-02-15T22:12:35Z</time>
      </trkpt>
      <trkpt lat="46.42718" lon="3.61932">
        <ele>244</ele>
        <time>2022-02-15T22:12:43Z</time>
      </trkpt>
      <trkpt lat="46.4322" lon="3.62126">
        <ele>243</ele>
        <time>2022-02-15T22:14:15Z</time>
      </trkpt>
      <trkpt lat="46.43277" lon="3.62152">
        <ele>244</ele>
        <time>2022-02-15T22:14:26Z</time>
      </trkpt>
      <trkpt lat="46.43368" lon="3.62202">
        <ele>245</ele>
        <time>2022-02-15T22:14:43Z</time>
      </trkpt>
      <trkpt lat="46.43476" lon="3.62272">
        <ele>244</ele>
        <time>2022-02-15T22:15:04Z</time>
      </trkpt>
      <trkpt lat="46.44419" lon="3.62919">
        <ele>233</ele>
        <time>2022-02-15T22:18:10Z</time>
      </trkpt>
      <trkpt lat="46.44469" lon="3.62964">
        <ele>233</ele>
        <time>2022-02-15T22:18:20Z</time>
      </trkpt>
      <trkpt lat="46.44488" lon="3.62977">
        <ele>234</ele>
        <time>2022-02-15T22:18:24Z</time>
      </trkpt>
      <trkpt lat="46.44584" lon="3.63024">
        <ele>235</ele>
        <time>2022-02-15T22:18:42Z</time>
      </trkpt>
      <trkpt lat="46.44642" lon="3.63031">
        <ele>234</ele>
        <time>2022-02-15T22:18:52Z</time>
      </trkpt>
      <trkpt lat="46.44658" lon="3.63037">
        <ele>234</ele>
        <time>2022-02-15T22:18:55Z</time>
      </trkpt>
      <trkpt lat="46.44737" lon="3.63091">
        <ele>233</ele>
        <time>2022-02-15T22:19:11Z</time>
      </trkpt>
      <trkpt lat="46.44887" lon="3.63186">
        <ele>233</ele>
        <time>2022-02-15T22:19:40Z</time>
      </trkpt>
      <trkpt lat="46.45235" lon="3.63364">
        <ele>235</ele>
        <time>2022-02-15T22:20:46Z</time>
      </trkpt>
      <trkpt lat="46.45726" lon="3.63611">
        <ele>233</ele>
        <time>2022-02-15T22:22:18Z</time>
      </trkpt>
      <trkpt lat="46.46738" lon="3.64114">
        <ele>235</ele>
        <time>2022-02-15T22:25:28Z</time>
      </trkpt>
      <trkpt lat="46.46786" lon="3.64146">
        <ele>235</ele>
        <time>2022-02-15T22:25:38Z</time>
      </trkpt>
      <trkpt lat="46.46844" lon="3.64196">
        <ele>234</ele>
        <time>2022-02-15T22:25:50Z</time>
      </trkpt>
      <trkpt lat="46.47054" lon="3.64412">
        <ele>238</ele>
        <time>2022-02-15T22:26:36Z</time>
      </trkpt>
      <trkpt lat="46.47371" lon="3.64744">
        <ele>230</ele>
        <time>2022-02-15T22:27:45Z</time>
      </trkpt>
      <trkpt lat="46.47382" lon="3.64755">
        <ele>230</ele>
        <time>2022-02-15T22:27:48Z</time>
      </trkpt>
      <trkpt lat="46.4752" lon="3.64899">
        <ele>231</ele>
        <time>2022-02-15T22:28:18Z</time>
      </trkpt>
      <trkpt lat="46.47541" lon="3.64802">
        <ele>236</ele>
        <time>2022-02-15T22:28:30Z</time>
      </trkpt>
      <trkpt lat="46.47552" lon="3.6473">
        <ele>238</ele>
        <time>2022-02-15T22:28:39Z</time>
      </trkpt>
      <trkpt lat="46.47568" lon="3.64671">
        <ele>239</ele>
        <time>2022-02-15T22:28:47Z</time>
      </trkpt>
      <trkpt lat="46.4757" lon="3.64629">
        <ele>240</ele>
        <time>2022-02-15T22:28:52Z</time>
      </trkpt>
      <trkpt lat="46.47562" lon="3.6423">
        <ele>242</ele>
        <time>2022-02-15T22:29:41Z</time>
      </trkpt>
      <trkpt lat="46.4756" lon="3.6401">
        <ele>246</ele>
        <time>2022-02-15T22:30:08Z</time>
      </trkpt>
      <trkpt lat="46.47557" lon="3.6392">
        <ele>249</ele>
        <time>2022-02-15T22:30:19Z</time>
      </trkpt>
      <trkpt lat="46.4756" lon="3.63913">
        <ele>249</ele>
        <time>2022-02-15T22:30:20Z</time>
      </trkpt>
      <trkpt lat="46.47526" lon="3.63849">
        <ele>249</ele>
        <time>2022-02-15T22:30:30Z</time>
      </trkpt>
      <trkpt lat="46.47519" lon="3.63827">
        <ele>249</ele>
        <time>2022-02-15T22:30:33Z</time>
      </trkpt>
      <trkpt lat="46.47517" lon="3.63816">
        <ele>249</ele>
        <time>2022-02-15T22:30:34Z</time>
      </trkpt>
      <trkpt lat="46.47517" lon="3.6379">
        <ele>249</ele>
        <time>2022-02-15T22:30:38Z</time>
      </trkpt>
      <trkpt lat="46.47521" lon="3.63732">
        <ele>248</ele>
        <time>2022-02-15T22:30:45Z</time>
      </trkpt>
      <trkpt lat="46.47525" lon="3.63709">
        <ele>247</ele>
        <time>2022-02-15T22:30:48Z</time>
      </trkpt>
      <trkpt lat="46.47534" lon="3.6369">
        <ele>247</ele>
        <time>2022-02-15T22:30:50Z</time>
      </trkpt>
      <trkpt lat="46.47557" lon="3.63656">
        <ele>246</ele>
        <time>2022-02-15T22:30:56Z</time>
      </trkpt>
      <trkpt lat="46.47534" lon="3.6369">
        <ele>247</ele>
        <time>2022-02-15T22:31:02Z</time>
      </trkpt>
      <trkpt lat="46.47525" lon="3.63709">
        <ele>247</ele>
        <time>2022-02-15T22:31:05Z</time>
      </trkpt>
      <trkpt lat="46.47521" lon="3.63732">
        <ele>248</ele>
        <time>2022-02-15T22:31:08Z</time>
      </trkpt>
      <trkpt lat="46.47517" lon="3.6379">
        <ele>249</ele>
        <time>2022-02-15T22:31:15Z</time>
      </trkpt>
      <trkpt lat="46.47519" lon="3.63827">
        <ele>249</ele>
        <time>2022-02-15T22:31:20Z</time>
      </trkpt>
      <trkpt lat="46.47526" lon="3.63849">
        <ele>249</ele>
        <time>2022-02-15T22:31:23Z</time>
      </trkpt>
      <trkpt lat="46.47604" lon="3.63995">
        <ele>247</ele>
        <time>2022-02-15T22:31:45Z</time>
      </trkpt>
      <trkpt lat="46.47622" lon="3.64026">
        <ele>247</ele>
        <time>2022-02-15T22:31:50Z</time>
      </trkpt>
      <trkpt lat="46.47737" lon="3.64244">
        <ele>245</ele>
        <time>2022-02-15T22:32:24Z</time>
      </trkpt>
      <trkpt lat="46.47758" lon="3.6429">
        <ele>245</ele>
        <time>2022-02-15T22:32:31Z</time>
      </trkpt>
      <trkpt lat="46.47762" lon="3.64301">
        <ele>245</ele>
        <time>2022-02-15T22:32:32Z</time>
      </trkpt>
      <trkpt lat="46.47765" lon="3.64343">
        <ele>245</ele>
        <time>2022-02-15T22:32:37Z</time>
      </trkpt>
      <trkpt lat="46.47727" lon="3.65014">
        <ele>230</ele>
        <time>2022-02-15T22:34:00Z</time>
      </trkpt>
      <trkpt lat="46.47708" lon="3.65384">
        <ele>226</ele>
        <time>2022-02-15T22:34:45Z</time>
      </trkpt>
      <trkpt lat="46.47704" lon="3.65447">
        <ele>226</ele>
        <time>2022-02-15T22:34:53Z</time>
      </trkpt>
      <trkpt lat="46.47702" lon="3.65463">
        <ele>226</ele>
        <time>2022-02-15T22:34:55Z</time>
      </trkpt>
      <trkpt lat="46.47696" lon="3.65488">
        <ele>225</ele>
        <time>2022-02-15T22:34:58Z</time>
      </trkpt>
      <trkpt lat="46.47686" lon="3.65512">
        <ele>225</ele>
        <time>2022-02-15T22:35:02Z</time>
      </trkpt>
      <trkpt lat="46.47669" lon="3.65536">
        <ele>225</ele>
        <time>2022-02-15T22:35:06Z</time>
      </trkpt>
      <trkpt lat="46.47589" lon="3.65627">
        <ele>226</ele>
        <time>2022-02-15T22:35:24Z</time>
      </trkpt>
      <trkpt lat="46.47573" lon="3.65652">
        <ele>226</ele>
        <time>2022-02-15T22:35:28Z</time>
      </trkpt>
      <trkpt lat="46.47564" lon="3.65671">
        <ele>226</ele>
        <time>2022-02-15T22:35:31Z</time>
      </trkpt>
      <trkpt lat="46.47551" lon="3.65709">
        <ele>228</ele>
        <time>2022-02-15T22:35:36Z</time>
      </trkpt>
      <trkpt lat="46.47542" lon="3.65747">
        <ele>231</ele>
        <time>2022-02-15T22:35:41Z</time>
      </trkpt>
      <trkpt lat="46.47542" lon="3.65778">
        <ele>234</ele>
        <time>2022-02-15T22:35:45Z</time>
      </trkpt>
      <trkpt lat="46.47552" lon="3.65815">
        <ele>236</ele>
        <time>2022-02-15T22:35:50Z</time>
      </trkpt>
      <trkpt lat="46.47572" lon="3.65864">
        <ele>238</ele>
        <time>2022-02-15T22:35:57Z</time>
      </trkpt>
      <trkpt lat="46.47585" lon="3.6588">
        <ele>238</ele>
        <time>2022-02-15T22:36:00Z</time>
      </trkpt>
      <trkpt lat="46.4762" lon="3.65895">
        <ele>239</ele>
        <time>2022-02-15T22:36:06Z</time>
      </trkpt>
      <trkpt lat="46.47636" lon="3.6591">
        <ele>240</ele>
        <time>2022-02-15T22:36:10Z</time>
      </trkpt>
      <trkpt lat="46.4766" lon="3.65942">
        <ele>243</ele>
        <time>2022-02-15T22:36:15Z</time>
      </trkpt>
      <trkpt lat="46.47693" lon="3.66006">
        <ele>244</ele>
        <time>2022-02-15T22:36:25Z</time>
      </trkpt>
      <trkpt lat="46.47712" lon="3.66053">
        <ele>245</ele>
        <time>2022-02-15T22:36:32Z</time>
      </trkpt>
      <trkpt lat="46.47723" lon="3.66092">
        <ele>246</ele>
        <time>2022-02-15T22:36:37Z</time>
      </trkpt>
      <trkpt lat="46.4772" lon="3.66118">
        <ele>247</ele>
        <time>2022-02-15T22:36:40Z</time>
      </trkpt>
      <trkpt lat="46.47715" lon="3.66139">
        <ele>248</ele>
        <time>2022-02-15T22:36:43Z</time>
      </trkpt>
      <trkpt lat="46.47701" lon="3.66153">
        <ele>249</ele>
        <time>2022-02-15T22:36:46Z</time>
      </trkpt>
      <trkpt lat="46.4767" lon="3.66171">
        <ele>250</ele>
        <time>2022-02-15T22:36:52Z</time>
      </trkpt>
      <trkpt lat="46.47536" lon="3.66229">
        <ele>251</ele>
        <time>2022-02-15T22:37:17Z</time>
      </trkpt>
      <trkpt lat="46.47465" lon="3.66251">
        <ele>255</ele>
        <time>2022-02-15T22:37:30Z</time>
      </trkpt>
      <trkpt lat="46.47439" lon="3.6629">
        <ele>256</ele>
        <time>2022-02-15T22:37:36Z</time>
      </trkpt>
      <trkpt lat="46.47381" lon="3.66388">
        <ele>255</ele>
        <time>2022-02-15T22:37:52Z</time>
      </trkpt>
      <trkpt lat="46.47304" lon="3.6644">
        <ele>253</ele>
        <time>2022-02-15T22:38:07Z</time>
      </trkpt>
      <trkpt lat="46.47238" lon="3.66456">
        <ele>253</ele>
        <time>2022-02-15T22:38:19Z</time>
      </trkpt>
      <trkpt lat="46.47221" lon="3.66464">
        <ele>254</ele>
        <time>2022-02-15T22:38:22Z</time>
      </trkpt>
      <trkpt lat="46.47206" lon="3.66478">
        <ele>254</ele>
        <time>2022-02-15T22:38:26Z</time>
      </trkpt>
      <trkpt lat="46.47196" lon="3.66499">
        <ele>254</ele>
        <time>2022-02-15T22:38:29Z</time>
      </trkpt>
      <trkpt lat="46.47189" lon="3.66521">
        <ele>254</ele>
        <time>2022-02-15T22:38:32Z</time>
      </trkpt>
      <trkpt lat="46.47182" lon="3.66556">
        <ele>254</ele>
        <time>2022-02-15T22:38:36Z</time>
      </trkpt>
      <trkpt lat="46.4718" lon="3.66585">
        <ele>253</ele>
        <time>2022-02-15T22:38:40Z</time>
      </trkpt>
      <trkpt lat="46.47179" lon="3.66617">
        <ele>254</ele>
        <time>2022-02-15T22:38:44Z</time>
      </trkpt>
      <trkpt lat="46.4722" lon="3.67013">
        <ele>261</ele>
        <time>2022-02-15T22:39:33Z</time>
      </trkpt>
      <trkpt lat="46.47226" lon="3.67124">
        <ele>264</ele>
        <time>2022-02-15T22:39:46Z</time>
      </trkpt>
      <trkpt lat="46.47217" lon="3.67294">
        <ele>265</ele>
        <time>2022-02-15T22:40:07Z</time>
      </trkpt>
      <trkpt lat="46.47115" lon="3.68106">
        <ele>271</ele>
        <time>2022-02-15T22:41:48Z</time>
      </trkpt>
      <trkpt lat="46.47115" lon="3.68124">
        <ele>271</ele>
        <time>2022-02-15T22:41:51Z</time>
      </trkpt>
      <trkpt lat="46.47118" lon="3.68139">
        <ele>271</ele>
        <time>2022-02-15T22:41:53Z</time>
      </trkpt>
      <trkpt lat="46.47173" lon="3.68345">
        <ele>272</ele>
        <time>2022-02-15T22:42:20Z</time>
      </trkpt>
      <trkpt lat="46.47178" lon="3.68374">
        <ele>271</ele>
        <time>2022-02-15T22:42:23Z</time>
      </trkpt>
      <trkpt lat="46.47221" lon="3.68806">
        <ele>265</ele>
        <time>2022-02-15T22:43:17Z</time>
      </trkpt>
      <trkpt lat="46.47225" lon="3.68824">
        <ele>265</ele>
        <time>2022-02-15T22:43:19Z</time>
      </trkpt>
      <trkpt lat="46.47232" lon="3.68843">
        <ele>265</ele>
        <time>2022-02-15T22:43:22Z</time>
      </trkpt>
      <trkpt lat="46.47411" lon="3.69215">
        <ele>256</ele>
        <time>2022-02-15T22:44:17Z</time>
      </trkpt>
      <trkpt lat="46.47425" lon="3.69254">
        <ele>256</ele>
        <time>2022-02-15T22:44:23Z</time>
      </trkpt>
      <trkpt lat="46.47432" lon="3.69287">
        <ele>255</ele>
        <time>2022-02-15T22:44:27Z</time>
      </trkpt>
      <trkpt lat="46.47447" lon="3.69501">
        <ele>252</ele>
        <time>2022-02-15T22:44:53Z</time>
      </trkpt>
      <trkpt lat="46.47454" lon="3.6954">
        <ele>253</ele>
        <time>2022-02-15T22:44:58Z</time>
      </trkpt>
      <trkpt lat="46.4747" lon="3.69592">
        <ele>253</ele>
        <time>2022-02-15T22:45:05Z</time>
      </trkpt>
      <trkpt lat="46.47499" lon="3.69667">
        <ele>255</ele>
        <time>2022-02-15T22:45:16Z</time>
      </trkpt>
      <trkpt lat="46.47504" lon="3.69692">
        <ele>253</ele>
        <time>2022-02-15T22:45:19Z</time>
      </trkpt>
      <trkpt lat="46.47502" lon="3.69716">
        <ele>253</ele>
        <time>2022-02-15T22:45:22Z</time>
      </trkpt>
      <trkpt lat="46.47499" lon="3.69731">
        <ele>252</ele>
        <time>2022-02-15T22:45:24Z</time>
      </trkpt>
      <trkpt lat="46.47491" lon="3.69749">
        <ele>251</ele>
        <time>2022-02-15T22:45:26Z</time>
      </trkpt>
      <trkpt lat="46.4727" lon="3.7004">
        <ele>238</ele>
        <time>2022-02-15T22:46:20Z</time>
      </trkpt>
      <trkpt lat="46.47261" lon="3.70056">
        <ele>238</ele>
        <time>2022-02-15T22:46:22Z</time>
      </trkpt>
      <trkpt lat="46.47259" lon="3.70082">
        <ele>240</ele>
        <time>2022-02-15T22:46:25Z</time>
      </trkpt>
      <trkpt lat="46.47262" lon="3.70109">
        <ele>243</ele>
        <time>2022-02-15T22:46:29Z</time>
      </trkpt>
      <trkpt lat="46.47264" lon="3.70126">
        <ele>245</ele>
        <time>2022-02-15T22:46:31Z</time>
      </trkpt>
      <trkpt lat="46.47267" lon="3.70138">
        <ele>246</ele>
        <time>2022-02-15T22:46:32Z</time>
      </trkpt>
      <trkpt lat="46.47274" lon="3.70154">
        <ele>248</ele>
        <time>2022-02-15T22:46:35Z</time>
      </trkpt>
      <trkpt lat="46.4738" lon="3.70254">
        <ele>245</ele>
        <time>2022-02-15T22:46:57Z</time>
      </trkpt>
      <trkpt lat="46.4739" lon="3.70284">
        <ele>244</ele>
        <time>2022-02-15T22:47:01Z</time>
      </trkpt>
      <trkpt lat="46.47395" lon="3.7032">
        <ele>245</ele>
        <time>2022-02-15T22:47:06Z</time>
      </trkpt>
      <trkpt lat="46.47412" lon="3.70873">
        <ele>253</ele>
        <time>2022-02-15T22:48:14Z</time>
      </trkpt>
      <trkpt lat="46.47464" lon="3.71207">
        <ele>256</ele>
        <time>2022-02-15T22:48:56Z</time>
      </trkpt>
      <trkpt lat="46.47484" lon="3.71323">
        <ele>258</ele>
        <time>2022-02-15T22:49:10Z</time>
      </trkpt>
      <trkpt lat="46.47493" lon="3.71365">
        <ele>259</ele>
        <time>2022-02-15T22:49:16Z</time>
      </trkpt>
      <trkpt lat="46.47528" lon="3.71474">
        <ele>259</ele>
        <time>2022-02-15T22:49:30Z</time>
      </trkpt>
      <trkpt lat="46.47534" lon="3.71499">
        <ele>260</ele>
        <time>2022-02-15T22:49:34Z</time>
      </trkpt>
      <trkpt lat="46.47537" lon="3.71523">
        <ele>260</ele>
        <time>2022-02-15T22:49:37Z</time>
      </trkpt>
      <trkpt lat="46.47566" lon="3.71866">
        <ele>267</ele>
        <time>2022-02-15T22:50:19Z</time>
      </trkpt>
      <trkpt lat="46.47564" lon="3.71963">
        <ele>265</ele>
        <time>2022-02-15T22:50:31Z</time>
      </trkpt>
      <trkpt lat="46.47565" lon="3.71981">
        <ele>265</ele>
        <time>2022-02-15T22:50:33Z</time>
      </trkpt>
      <trkpt lat="46.47568" lon="3.72003">
        <ele>264</ele>
        <time>2022-02-15T22:50:36Z</time>
      </trkpt>
      <trkpt lat="46.47583" lon="3.72063">
        <ele>264</ele>
        <time>2022-02-15T22:50:44Z</time>
      </trkpt>
      <trkpt lat="46.47586" lon="3.72082">
        <ele>264</ele>
        <time>2022-02-15T22:50:46Z</time>
      </trkpt>
      <trkpt lat="46.47586" lon="3.72105">
        <ele>263</ele>
        <time>2022-02-15T22:50:49Z</time>
      </trkpt>
      <trkpt lat="46.47558" lon="3.724">
        <ele>257</ele>
        <time>2022-02-15T22:51:25Z</time>
      </trkpt>
      <trkpt lat="46.47548" lon="3.72463">
        <ele>256</ele>
        <time>2022-02-15T22:51:33Z</time>
      </trkpt>
      <trkpt lat="46.47517" lon="3.72577">
        <ele>253</ele>
        <time>2022-02-15T22:51:48Z</time>
      </trkpt>
      <trkpt lat="46.47508" lon="3.72625">
        <ele>251</ele>
        <time>2022-02-15T22:51:54Z</time>
      </trkpt>
      <trkpt lat="46.47495" lon="3.72731">
        <ele>250</ele>
        <time>2022-02-15T22:52:07Z</time>
      </trkpt>
      <trkpt lat="46.47487" lon="3.72813">
        <ele>250</ele>
        <time>2022-02-15T22:52:18Z</time>
      </trkpt>
      <trkpt lat="46.47491" lon="3.72911">
        <ele>251</ele>
        <time>2022-02-15T22:52:30Z</time>
      </trkpt>
      <trkpt lat="46.4749" lon="3.72938">
        <ele>251</ele>
        <time>2022-02-15T22:52:33Z</time>
      </trkpt>
      <trkpt lat="46.47476" lon="3.73013">
        <ele>251</ele>
        <time>2022-02-15T22:52:43Z</time>
      </trkpt>
      <trkpt lat="46.47452" lon="3.73085">
        <ele>251</ele>
        <time>2022-02-15T22:52:52Z</time>
      </trkpt>
      <trkpt lat="46.47433" lon="3.7316">
        <ele>252</ele>
        <time>2022-02-15T22:53:02Z</time>
      </trkpt>
      <trkpt lat="46.4741" lon="3.73308">
        <ele>253</ele>
        <time>2022-02-15T22:53:21Z</time>
      </trkpt>
      <trkpt lat="46.47391" lon="3.73396">
        <ele>254</ele>
        <time>2022-02-15T22:53:32Z</time>
      </trkpt>
      <trkpt lat="46.4737" lon="3.7356">
        <ele>259</ele>
        <time>2022-02-15T22:53:52Z</time>
      </trkpt>
      <trkpt lat="46.47363" lon="3.73656">
        <ele>262</ele>
        <time>2022-02-15T22:54:04Z</time>
      </trkpt>
      <trkpt lat="46.47318" lon="3.7385">
        <ele>269</ele>
        <time>2022-02-15T22:54:29Z</time>
      </trkpt>
      <trkpt lat="46.47298" lon="3.7391">
        <ele>270</ele>
        <time>2022-02-15T22:54:38Z</time>
      </trkpt>
      <trkpt lat="46.47297" lon="3.73922">
        <ele>270</ele>
        <time>2022-02-15T22:54:39Z</time>
      </trkpt>
      <trkpt lat="46.473" lon="3.73938">
        <ele>269</ele>
        <time>2022-02-15T22:54:41Z</time>
      </trkpt>
      <trkpt lat="46.47315" lon="3.73952">
        <ele>269</ele>
        <time>2022-02-15T22:54:44Z</time>
      </trkpt>
      <trkpt lat="46.47383" lon="3.73992">
        <ele>267</ele>
        <time>2022-02-15T22:54:57Z</time>
      </trkpt>
      <trkpt lat="46.46843" lon="3.74965">
        <ele>254</ele>
        <time>2022-02-15T22:57:30Z</time>
      </trkpt>
      <trkpt lat="46.46828" lon="3.74989">
        <ele>254</ele>
        <time>2022-02-15T22:57:34Z</time>
      </trkpt>
      <trkpt lat="46.46807" lon="3.75007">
        <ele>254</ele>
        <time>2022-02-15T22:57:39Z</time>
      </trkpt>
      <trkpt lat="46.46817" lon="3.75028">
        <ele>254</ele>
        <time>2022-02-15T22:57:42Z</time>
      </trkpt>
      <trkpt lat="46.4685" lon="3.75118">
        <ele>253</ele>
        <time>2022-02-15T22:57:54Z</time>
      </trkpt>
      <trkpt lat="46.46861" lon="3.75163">
        <ele>252</ele>
        <time>2022-02-15T22:58:00Z</time>
      </trkpt>
      <trkpt lat="46.46898" lon="3.75341">
        <ele>250</ele>
        <time>2022-02-15T22:58:23Z</time>
      </trkpt>
      <trkpt lat="46.46906" lon="3.75361">
        <ele>249</ele>
        <time>2022-02-15T22:58:26Z</time>
      </trkpt>
      <trkpt lat="46.46919" lon="3.75373">
        <ele>249</ele>
        <time>2022-02-15T22:58:29Z</time>
      </trkpt>
      <trkpt lat="46.46955" lon="3.75394">
        <ele>248</ele>
        <time>2022-02-15T22:58:35Z</time>
      </trkpt>
      <trkpt lat="46.46975" lon="3.75416">
        <ele>247</ele>
        <time>2022-02-15T22:58:40Z</time>
      </trkpt>
      <trkpt lat="46.46999" lon="3.75448">
        <ele>245</ele>
        <time>2022-02-15T22:58:46Z</time>
      </trkpt>
      <trkpt lat="46.47031" lon="3.75488">
        <ele>243</ele>
        <time>2022-02-15T22:58:53Z</time>
      </trkpt>
      <trkpt lat="46.47048" lon="3.75501">
        <ele>242</ele>
        <time>2022-02-15T22:58:57Z</time>
      </trkpt>
      <trkpt lat="46.47067" lon="3.75512">
        <ele>242</ele>
        <time>2022-02-15T22:59:00Z</time>
      </trkpt>
      <trkpt lat="46.47084" lon="3.75515">
        <ele>241</ele>
        <time>2022-02-15T22:59:03Z</time>
      </trkpt>
      <trkpt lat="46.47098" lon="3.75515">
        <ele>241</ele>
        <time>2022-02-15T22:59:06Z</time>
      </trkpt>
      <trkpt lat="46.47116" lon="3.7551">
        <ele>241</ele>
        <time>2022-02-15T22:59:09Z</time>
      </trkpt>
      <trkpt lat="46.47185" lon="3.75471">
        <ele>242</ele>
        <time>2022-02-15T22:59:22Z</time>
      </trkpt>
      <trkpt lat="46.472" lon="3.75466">
        <ele>242</ele>
        <time>2022-02-15T22:59:25Z</time>
      </trkpt>
      <trkpt lat="46.47213" lon="3.75466">
        <ele>242</ele>
        <time>2022-02-15T22:59:27Z</time>
      </trkpt>
      <trkpt lat="46.47227" lon="3.75471">
        <ele>242</ele>
        <time>2022-02-15T22:59:30Z</time>
      </trkpt>
      <trkpt lat="46.47239" lon="3.7548">
        <ele>242</ele>
        <time>2022-02-15T22:59:32Z</time>
      </trkpt>
      <trkpt lat="46.47417" lon="3.75667">
        <ele>239</ele>
        <time>2022-02-15T23:00:11Z</time>
      </trkpt>
      <trkpt lat="46.47436" lon="3.75687">
        <ele>239</ele>
        <time>2022-02-15T23:00:16Z</time>
      </trkpt>
      <trkpt lat="46.47493" lon="3.75749">
        <ele>237</ele>
        <time>2022-02-15T23:00:28Z</time>
      </trkpt>
      <trkpt lat="46.47506" lon="3.75788">
        <ele>239</ele>
        <time>2022-02-15T23:00:34Z</time>
      </trkpt>
      <trkpt lat="46.4759" lon="3.75969">
        <ele>248</ele>
        <time>2022-02-15T23:01:00Z</time>
      </trkpt>
      <trkpt lat="46.47605" lon="3.76022">
        <ele>249</ele>
        <time>2022-02-15T23:01:07Z</time>
      </trkpt>
      <trkpt lat="46.47625" lon="3.76117">
        <ele>251</ele>
        <time>2022-02-15T23:01:19Z</time>
      </trkpt>
      <trkpt lat="46.47652" lon="3.76437">
        <ele>254</ele>
        <time>2022-02-15T23:01:59Z</time>
      </trkpt>
      <trkpt lat="46.4771" lon="3.76756">
        <ele>261</ele>
        <time>2022-02-15T23:02:39Z</time>
      </trkpt>
      <trkpt lat="46.47725" lon="3.76793">
        <ele>262</ele>
        <time>2022-02-15T23:02:45Z</time>
      </trkpt>
      <trkpt lat="46.47903" lon="3.77078">
        <ele>275</ele>
        <time>2022-02-15T23:03:32Z</time>
      </trkpt>
      <trkpt lat="46.47908" lon="3.77118">
        <ele>276</ele>
        <time>2022-02-15T23:03:37Z</time>
      </trkpt>
      <trkpt lat="46.47904" lon="3.77193">
        <ele>277</ele>
        <time>2022-02-15T23:03:46Z</time>
      </trkpt>
      <trkpt lat="46.47914" lon="3.77292">
        <ele>278</ele>
        <time>2022-02-15T23:03:58Z</time>
      </trkpt>
      <trkpt lat="46.47914" lon="3.77321">
        <ele>278</ele>
        <time>2022-02-15T23:04:02Z</time>
      </trkpt>
      <trkpt lat="46.47926" lon="3.77562">
        <ele>273</ele>
        <time>2022-02-15T23:04:31Z</time>
      </trkpt>
      <trkpt lat="46.47937" lon="3.77631">
        <ele>272</ele>
        <time>2022-02-15T23:04:40Z</time>
      </trkpt>
      <trkpt lat="46.47972" lon="3.77743">
        <ele>272</ele>
        <time>2022-02-15T23:04:55Z</time>
      </trkpt>
      <trkpt lat="46.48016" lon="3.77947">
        <ele>265</ele>
        <time>2022-02-15T23:05:21Z</time>
      </trkpt>
      <trkpt lat="46.4804" lon="3.78038">
        <ele>263</ele>
        <time>2022-02-15T23:05:33Z</time>
      </trkpt>
      <trkpt lat="46.48092" lon="3.78288">
        <ele>257</ele>
        <time>2022-02-15T23:06:05Z</time>
      </trkpt>
      <trkpt lat="46.48131" lon="3.78544">
        <ele>250</ele>
        <time>2022-02-15T23:06:37Z</time>
      </trkpt>
      <trkpt lat="46.48235" lon="3.78818">
        <ele>254</ele>
        <time>2022-02-15T23:07:16Z</time>
      </trkpt>
      <trkpt lat="46.48335" lon="3.78947">
        <ele>255</ele>
        <time>2022-02-15T23:07:40Z</time>
      </trkpt>
      <trkpt lat="46.48434" lon="3.79042">
        <ele>254</ele>
        <time>2022-02-15T23:08:01Z</time>
      </trkpt>
      <trkpt lat="46.48581" lon="3.79259">
        <ele>250</ele>
        <time>2022-02-15T23:08:38Z</time>
      </trkpt>
      <trkpt lat="46.48664" lon="3.79403">
        <ele>249</ele>
        <time>2022-02-15T23:09:01Z</time>
      </trkpt>
      <trkpt lat="46.48682" lon="3.7944">
        <ele>248</ele>
        <time>2022-02-15T23:09:06Z</time>
      </trkpt>
      <trkpt lat="46.48695" lon="3.79461">
        <ele>248</ele>
        <time>2022-02-15T23:09:10Z</time>
      </trkpt>
      <trkpt lat="46.48741" lon="3.79498">
        <ele>248</ele>
        <time>2022-02-15T23:09:19Z</time>
      </trkpt>
      <trkpt lat="46.48786" lon="3.79542">
        <ele>250</ele>
        <time>2022-02-15T23:09:29Z</time>
      </trkpt>
      <trkpt lat="46.48826" lon="3.79578">
        <ele>251</ele>
        <time>2022-02-15T23:09:37Z</time>
      </trkpt>
      <trkpt lat="46.48915" lon="3.79644">
        <ele>249</ele>
        <time>2022-02-15T23:09:55Z</time>
      </trkpt>
      <trkpt lat="46.49305" lon="3.79892">
        <ele>261</ele>
        <time>2022-02-15T23:11:11Z</time>
      </trkpt>
      <trkpt lat="46.49336" lon="3.79915">
        <ele>262</ele>
        <time>2022-02-15T23:11:17Z</time>
      </trkpt>
      <trkpt lat="46.49399" lon="3.79958">
        <ele>261</ele>
        <time>2022-02-15T23:11:29Z</time>
      </trkpt>
      <trkpt lat="46.49457" lon="3.80005">
        <ele>260</ele>
        <time>2022-02-15T23:11:41Z</time>
      </trkpt>
      <trkpt lat="46.4948" lon="3.80025">
        <ele>261</ele>
        <time>2022-02-15T23:11:46Z</time>
      </trkpt>
      <trkpt lat="46.49639" lon="3.80166">
        <ele>253</ele>
        <time>2022-02-15T23:12:19Z</time>
      </trkpt>
      <trkpt lat="46.49698" lon="3.80221">
        <ele>249</ele>
        <time>2022-02-15T23:12:32Z</time>
      </trkpt>
      <trkpt lat="46.49747" lon="3.80271">
        <ele>246</ele>
        <time>2022-02-15T23:12:42Z</time>
      </trkpt>
      <trkpt lat="46.49828" lon="3.80386">
        <ele>243</ele>
        <time>2022-02-15T23:13:02Z</time>
      </trkpt>
      <trkpt lat="46.49933" lon="3.80553">
        <ele>240</ele>
        <time>2022-02-15T23:13:30Z</time>
      </trkpt>
      <trkpt lat="46.49954" lon="3.80583">
        <ele>239</ele>
        <time>2022-02-15T23:13:35Z</time>
      </trkpt>
      <trkpt lat="46.49991" lon="3.80626">
        <ele>237</ele>
        <time>2022-02-15T23:13:44Z</time>
      </trkpt>
      <trkpt lat="46.50059" lon="3.80728">
        <ele>234</ele>
        <time>2022-02-15T23:14:01Z</time>
      </trkpt>
      <trkpt lat="46.50088" lon="3.80768">
        <ele>233</ele>
        <time>2022-02-15T23:14:08Z</time>
      </trkpt>
      <trkpt lat="46.50138" lon="3.80827">
        <ele>231</ele>
        <time>2022-02-15T23:14:20Z</time>
      </trkpt>
      <trkpt lat="46.50164" lon="3.8085">
        <ele>230</ele>
        <time>2022-02-15T23:14:25Z</time>
      </trkpt>
      <trkpt lat="46.50228" lon="3.80899">
        <ele>228</ele>
        <time>2022-02-15T23:14:38Z</time>
      </trkpt>
      <trkpt lat="46.5027" lon="3.80941">
        <ele>227</ele>
        <time>2022-02-15T23:14:47Z</time>
      </trkpt>
      <trkpt lat="46.50288" lon="3.80962">
        <ele>227</ele>
        <time>2022-02-15T23:14:51Z</time>
      </trkpt>
      <trkpt lat="46.50324" lon="3.81012">
        <ele>227</ele>
        <time>2022-02-15T23:15:00Z</time>
      </trkpt>
      <trkpt lat="46.5034" lon="3.81028">
        <ele>227</ele>
        <time>2022-02-15T23:15:04Z</time>
      </trkpt>
      <trkpt lat="46.5064" lon="3.81274">
        <ele>224</ele>
        <time>2022-02-15T23:16:05Z</time>
      </trkpt>
      <trkpt lat="46.50668" lon="3.81295">
        <ele>223</ele>
        <time>2022-02-15T23:16:10Z</time>
      </trkpt>
      <trkpt lat="46.50672" lon="3.81299">
        <ele>223</ele>
        <time>2022-02-15T23:16:11Z</time>
      </trkpt>
      <trkpt lat="46.50673" lon="3.81278">
        <ele>223</ele>
        <time>2022-02-15T23:16:14Z</time>
      </trkpt>
      <trkpt lat="46.50676" lon="3.81275">
        <ele>223</ele>
        <time>2022-02-15T23:16:15Z</time>
      </trkpt>
      <trkpt lat="46.5068" lon="3.81259">
        <ele>223</ele>
        <time>2022-02-15T23:16:17Z</time>
      </trkpt>
      <trkpt lat="46.50679" lon="3.81253">
        <ele>224</ele>
        <time>2022-02-15T23:16:17Z</time>
      </trkpt>
      <trkpt lat="46.50659" lon="3.81297">
        <ele>223</ele>
        <time>2022-02-15T23:16:24Z</time>
      </trkpt>
      <trkpt lat="46.50654" lon="3.81316">
        <ele>223</ele>
        <time>2022-02-15T23:16:26Z</time>
      </trkpt>
      <trkpt lat="46.50642" lon="3.81347">
        <ele>223</ele>
        <time>2022-02-15T23:16:31Z</time>
      </trkpt>
      <trkpt lat="46.50553" lon="3.81576">
        <ele>224</ele>
        <time>2022-02-15T23:17:03Z</time>
      </trkpt>
      <trkpt lat="46.50403" lon="3.81958">
        <ele>224</ele>
        <time>2022-02-15T23:17:57Z</time>
      </trkpt>
      <trkpt lat="46.50346" lon="3.82098">
        <ele>224</ele>
        <time>2022-02-15T23:18:17Z</time>
      </trkpt>
      <trkpt lat="46.50022" lon="3.82923">
        <ele>225</ele>
        <time>2022-02-15T23:20:13Z</time>
      </trkpt>
      <trkpt lat="46.50004" lon="3.82962">
        <ele>226</ele>
        <time>2022-02-15T23:20:19Z</time>
      </trkpt>
      <trkpt lat="46.49881" lon="3.832">
        <ele>226</ele>
        <time>2022-02-15T23:20:55Z</time>
      </trkpt>
      <trkpt lat="46.49568" lon="3.83788">
        <ele>226</ele>
        <time>2022-02-15T23:22:26Z</time>
      </trkpt>
      <trkpt lat="46.49526" lon="3.83865">
        <ele>224</ele>
        <time>2022-02-15T23:22:38Z</time>
      </trkpt>
      <trkpt lat="46.49515" lon="3.83883">
        <ele>223</ele>
        <time>2022-02-15T23:22:41Z</time>
      </trkpt>
      <trkpt lat="46.49506" lon="3.83894">
        <ele>223</ele>
        <time>2022-02-15T23:22:43Z</time>
      </trkpt>
      <trkpt lat="46.49485" lon="3.83934">
        <ele>222</ele>
        <time>2022-02-15T23:22:50Z</time>
      </trkpt>
      <trkpt lat="46.4948" lon="3.83939">
        <ele>223</ele>
        <time>2022-02-15T23:22:51Z</time>
      </trkpt>
      <trkpt lat="46.49472" lon="3.83954">
        <ele>223</ele>
        <time>2022-02-15T23:22:53Z</time>
      </trkpt>
      <trkpt lat="46.49465" lon="3.83982">
        <ele>224</ele>
        <time>2022-02-15T23:22:57Z</time>
      </trkpt>
      <trkpt lat="46.49424" lon="3.84061">
        <ele>226</ele>
        <time>2022-02-15T23:23:09Z</time>
      </trkpt>
      <trkpt lat="46.49387" lon="3.84141">
        <ele>226</ele>
        <time>2022-02-15T23:23:20Z</time>
      </trkpt>
      <trkpt lat="46.49369" lon="3.84174">
        <ele>226</ele>
        <time>2022-02-15T23:23:26Z</time>
      </trkpt>
      <trkpt lat="46.49349" lon="3.84206">
        <ele>226</ele>
        <time>2022-02-15T23:23:31Z</time>
      </trkpt>
      <trkpt lat="46.49322" lon="3.8426">
        <ele>225</ele>
        <time>2022-02-15T23:23:39Z</time>
      </trkpt>
      <trkpt lat="46.49079" lon="3.84812">
        <ele>232</ele>
        <time>2022-02-15T23:24:59Z</time>
      </trkpt>
      <trkpt lat="46.49046" lon="3.84877">
        <ele>231</ele>
        <time>2022-02-15T23:25:09Z</time>
      </trkpt>
      <trkpt lat="46.48994" lon="3.84963">
        <ele>229</ele>
        <time>2022-02-15T23:25:23Z</time>
      </trkpt>
      <trkpt lat="46.48972" lon="3.84993">
        <ele>229</ele>
        <time>2022-02-15T23:25:29Z</time>
      </trkpt>
      <trkpt lat="46.48922" lon="3.85053">
        <ele>228</ele>
        <time>2022-02-15T23:25:40Z</time>
      </trkpt>
      <trkpt lat="46.48756" lon="3.85218">
        <ele>227</ele>
        <time>2022-02-15T23:26:16Z</time>
      </trkpt>
      <trkpt lat="46.487" lon="3.85282">
        <ele>227</ele>
        <time>2022-02-15T23:26:29Z</time>
      </trkpt>
      <trkpt lat="46.48662" lon="3.85336">
        <ele>227</ele>
        <time>2022-02-15T23:26:38Z</time>
      </trkpt>
      <trkpt lat="46.48632" lon="3.85385">
        <ele>227</ele>
        <time>2022-02-15T23:26:46Z</time>
      </trkpt>
      <trkpt lat="46.48595" lon="3.85459">
        <ele>229</ele>
        <time>2022-02-15T23:26:57Z</time>
      </trkpt>
      <trkpt lat="46.48559" lon="3.85548">
        <ele>228</ele>
        <time>2022-02-15T23:27:10Z</time>
      </trkpt>
      <trkpt lat="46.48536" lon="3.85622">
        <ele>226</ele>
        <time>2022-02-15T23:27:20Z</time>
      </trkpt>
      <trkpt lat="46.48514" lon="3.85719">
        <ele>227</ele>
        <time>2022-02-15T23:27:32Z</time>
      </trkpt>
      <trkpt lat="46.48485" lon="3.85819">
        <ele>228</ele>
        <time>2022-02-15T23:27:46Z</time>
      </trkpt>
      <trkpt lat="46.48482" lon="3.85849">
        <ele>227</ele>
        <time>2022-02-15T23:27:49Z</time>
      </trkpt>
      <trkpt lat="46.48467" lon="3.85906">
        <ele>227</ele>
        <time>2022-02-15T23:27:57Z</time>
      </trkpt>
      <trkpt lat="46.48445" lon="3.85971">
        <ele>227</ele>
        <time>2022-02-15T23:28:06Z</time>
      </trkpt>
      <trkpt lat="46.4815" lon="3.86711">
        <ele>227</ele>
        <time>2022-02-15T23:29:51Z</time>
      </trkpt>
      <trkpt lat="46.4812" lon="3.86796">
        <ele>228</ele>
        <time>2022-02-15T23:30:02Z</time>
      </trkpt>
      <trkpt lat="46.48107" lon="3.86839">
        <ele>229</ele>
        <time>2022-02-15T23:30:08Z</time>
      </trkpt>
      <trkpt lat="46.48084" lon="3.86936">
        <ele>229</ele>
        <time>2022-02-15T23:30:21Z</time>
      </trkpt>
      <trkpt lat="46.48075" lon="3.86988">
        <ele>228</ele>
        <time>2022-02-15T23:30:27Z</time>
      </trkpt>
      <trkpt lat="46.48071" lon="3.87016">
        <ele>228</ele>
        <time>2022-02-15T23:30:31Z</time>
      </trkpt>
      <trkpt lat="46.48066" lon="3.8708">
        <ele>227</ele>
        <time>2022-02-15T23:30:39Z</time>
      </trkpt>
      <trkpt lat="46.48063" lon="3.87157">
        <ele>227</ele>
        <time>2022-02-15T23:30:48Z</time>
      </trkpt>
      <trkpt lat="46.48063" lon="3.87329">
        <ele>227</ele>
        <time>2022-02-15T23:31:09Z</time>
      </trkpt>
      <trkpt lat="46.48061" lon="3.87338">
        <ele>227</ele>
        <time>2022-02-15T23:31:10Z</time>
      </trkpt>
      <trkpt lat="46.48061" lon="3.87388">
        <ele>227</ele>
        <time>2022-02-15T23:31:16Z</time>
      </trkpt>
      <trkpt lat="46.48063" lon="3.87459">
        <ele>226</ele>
        <time>2022-02-15T23:31:25Z</time>
      </trkpt>
      <trkpt lat="46.48063" lon="3.87468">
        <ele>226</ele>
        <time>2022-02-15T23:31:26Z</time>
      </trkpt>
      <trkpt lat="46.48069" lon="3.88297">
        <ele>229</ele>
        <time>2022-02-15T23:33:08Z</time>
      </trkpt>
      <trkpt lat="46.48065" lon="3.88377">
        <ele>228</ele>
        <time>2022-02-15T23:33:18Z</time>
      </trkpt>
      <trkpt lat="46.48054" lon="3.88462">
        <ele>228</ele>
        <time>2022-02-15T23:33:28Z</time>
      </trkpt>
      <trkpt lat="46.48034" lon="3.88568">
        <ele>228</ele>
        <time>2022-02-15T23:33:42Z</time>
      </trkpt>
      <trkpt lat="46.48017" lon="3.88629">
        <ele>230</ele>
        <time>2022-02-15T23:33:50Z</time>
      </trkpt>
      <trkpt lat="46.47976" lon="3.88744">
        <ele>231</ele>
        <time>2022-02-15T23:34:06Z</time>
      </trkpt>
      <trkpt lat="46.47959" lon="3.88812">
        <ele>232</ele>
        <time>2022-02-15T23:34:14Z</time>
      </trkpt>
      <trkpt lat="46.47946" lon="3.88848">
        <ele>233</ele>
        <time>2022-02-15T23:34:19Z</time>
      </trkpt>
      <trkpt lat="46.47934" lon="3.88897">
        <ele>234</ele>
        <time>2022-02-15T23:34:26Z</time>
      </trkpt>
      <trkpt lat="46.4792" lon="3.88994">
        <ele>232</ele>
        <time>2022-02-15T23:34:38Z</time>
      </trkpt>
      <trkpt lat="46.47918" lon="3.89025">
        <ele>232</ele>
        <time>2022-02-15T23:34:42Z</time>
      </trkpt>
      <trkpt lat="46.47916" lon="3.89091">
        <ele>232</ele>
        <time>2022-02-15T23:34:50Z</time>
      </trkpt>
      <trkpt lat="46.47911" lon="3.89108">
        <ele>232</ele>
        <time>2022-02-15T23:34:52Z</time>
      </trkpt>
      <trkpt lat="46.47914" lon="3.89122">
        <ele>232</ele>
        <time>2022-02-15T23:34:54Z</time>
      </trkpt>
      <trkpt lat="46.47915" lon="3.89131">
        <ele>232</ele>
        <time>2022-02-15T23:34:55Z</time>
      </trkpt>
      <trkpt lat="46.47913" lon="3.89141">
        <ele>232</ele>
        <time>2022-02-15T23:34:56Z</time>
      </trkpt>
      <trkpt lat="46.47908" lon="3.89202">
        <ele>231</ele>
        <time>2022-02-15T23:35:04Z</time>
      </trkpt>
      <trkpt lat="46.47911" lon="3.89222">
        <ele>231</ele>
        <time>2022-02-15T23:35:06Z</time>
      </trkpt>
      <trkpt lat="46.47926" lon="3.89291">
        <ele>228</ele>
        <time>2022-02-15T23:35:15Z</time>
      </trkpt>
      <trkpt lat="46.4794" lon="3.89383">
        <ele>225</ele>
        <time>2022-02-15T23:35:27Z</time>
      </trkpt>
      <trkpt lat="46.47961" lon="3.89492">
        <ele>226</ele>
        <time>2022-02-15T23:35:41Z</time>
      </trkpt>
      <trkpt lat="46.47975" lon="3.89579">
        <ele>228</ele>
        <time>2022-02-15T23:35:52Z</time>
      </trkpt>
      <trkpt lat="46.47983" lon="3.8966">
        <ele>227</ele>
        <time>2022-02-15T23:36:02Z</time>
      </trkpt>
      <trkpt lat="46.47986" lon="3.89784">
        <ele>226</ele>
        <time>2022-02-15T23:36:17Z</time>
      </trkpt>
      <trkpt lat="46.47979" lon="3.89891">
        <ele>225</ele>
        <time>2022-02-15T23:36:30Z</time>
      </trkpt>
      <trkpt lat="46.47972" lon="3.89948">
        <ele>225</ele>
        <time>2022-02-15T23:36:37Z</time>
      </trkpt>
      <trkpt lat="46.47797" lon="3.91055">
        <ele>227</ele>
        <time>2022-02-15T23:38:56Z</time>
      </trkpt>
      <trkpt lat="46.47794" lon="3.91083">
        <ele>227</ele>
        <time>2022-02-15T23:39:00Z</time>
      </trkpt>
      <trkpt lat="46.47791" lon="3.91183">
        <ele>227</ele>
        <time>2022-02-15T23:39:12Z</time>
      </trkpt>
      <trkpt lat="46.47792" lon="3.91199">
        <ele>227</ele>
        <time>2022-02-15T23:39:14Z</time>
      </trkpt>
      <trkpt lat="46.47797" lon="3.91232">
        <ele>227</ele>
        <time>2022-02-15T23:39:18Z</time>
      </trkpt>
      <trkpt lat="46.47809" lon="3.91275">
        <ele>226</ele>
        <time>2022-02-15T23:39:24Z</time>
      </trkpt>
      <trkpt lat="46.47808" lon="3.91294">
        <ele>226</ele>
        <time>2022-02-15T23:39:26Z</time>
      </trkpt>
      <trkpt lat="46.4781" lon="3.91312">
        <ele>226</ele>
        <time>2022-02-15T23:39:28Z</time>
      </trkpt>
      <trkpt lat="46.47814" lon="3.91453">
        <ele>226</ele>
        <time>2022-02-15T23:39:46Z</time>
      </trkpt>
      <trkpt lat="46.4781" lon="3.91531">
        <ele>228</ele>
        <time>2022-02-15T23:39:55Z</time>
      </trkpt>
      <trkpt lat="46.47805" lon="3.91568">
        <ele>228</ele>
        <time>2022-02-15T23:40:00Z</time>
      </trkpt>
      <trkpt lat="46.4779" lon="3.91648">
        <ele>229</ele>
        <time>2022-02-15T23:40:10Z</time>
      </trkpt>
      <trkpt lat="46.47771" lon="3.91725">
        <ele>229</ele>
        <time>2022-02-15T23:40:20Z</time>
      </trkpt>
      <trkpt lat="46.47699" lon="3.91911">
        <ele>228</ele>
        <time>2022-02-15T23:40:46Z</time>
      </trkpt>
      <trkpt lat="46.47681" lon="3.91967">
        <ele>228</ele>
        <time>2022-02-15T23:40:54Z</time>
      </trkpt>
      <trkpt lat="46.47664" lon="3.9203">
        <ele>228</ele>
        <time>2022-02-15T23:41:02Z</time>
      </trkpt>
      <trkpt lat="46.47648" lon="3.92104">
        <ele>228</ele>
        <time>2022-02-15T23:41:12Z</time>
      </trkpt>
      <trkpt lat="46.47638" lon="3.92168">
        <ele>227</ele>
        <time>2022-02-15T23:41:20Z</time>
      </trkpt>
      <trkpt lat="46.47627" lon="3.92309">
        <ele>228</ele>
        <time>2022-02-15T23:41:37Z</time>
      </trkpt>
      <trkpt lat="46.47628" lon="3.92331">
        <ele>228</ele>
        <time>2022-02-15T23:41:40Z</time>
      </trkpt>
      <trkpt lat="46.4763" lon="3.92341">
        <ele>228</ele>
        <time>2022-02-15T23:41:41Z</time>
      </trkpt>
      <trkpt lat="46.47625" lon="3.92376">
        <ele>227</ele>
        <time>2022-02-15T23:41:45Z</time>
      </trkpt>
      <trkpt lat="46.47626" lon="3.92394">
        <ele>227</ele>
        <time>2022-02-15T23:41:48Z</time>
      </trkpt>
      <trkpt lat="46.47625" lon="3.92411">
        <ele>227</ele>
        <time>2022-02-15T23:41:50Z</time>
      </trkpt>
      <trkpt lat="46.47616" lon="3.92437">
        <ele>228</ele>
        <time>2022-02-15T23:41:53Z</time>
      </trkpt>
      <trkpt lat="46.47613" lon="3.92451">
        <ele>228</ele>
        <time>2022-02-15T23:41:55Z</time>
      </trkpt>
      <trkpt lat="46.47572" lon="3.92926">
        <ele>228</ele>
        <time>2022-02-15T23:42:54Z</time>
      </trkpt>
      <trkpt lat="46.47571" lon="3.92934">
        <ele>228</ele>
        <time>2022-02-15T23:42:55Z</time>
      </trkpt>
      <trkpt lat="46.47564" lon="3.92957">
        <ele>228</ele>
        <time>2022-02-15T23:42:58Z</time>
      </trkpt>
      <trkpt lat="46.47561" lon="3.92994">
        <ele>228</ele>
        <time>2022-02-15T23:43:02Z</time>
      </trkpt>
      <trkpt lat="46.47564" lon="3.9301">
        <ele>228</ele>
        <time>2022-02-15T23:43:04Z</time>
      </trkpt>
      <trkpt lat="46.47564" lon="3.93031">
        <ele>228</ele>
        <time>2022-02-15T23:43:07Z</time>
      </trkpt>
      <trkpt lat="46.47556" lon="3.93125">
        <ele>228</ele>
        <time>2022-02-15T23:43:18Z</time>
      </trkpt>
      <trkpt lat="46.47551" lon="3.93174">
        <ele>227</ele>
        <time>2022-02-15T23:43:25Z</time>
      </trkpt>
      <trkpt lat="46.47539" lon="3.93238">
        <ele>227</ele>
        <time>2022-02-15T23:43:33Z</time>
      </trkpt>
      <trkpt lat="46.47528" lon="3.9329">
        <ele>227</ele>
        <time>2022-02-15T23:43:39Z</time>
      </trkpt>
      <trkpt lat="46.47506" lon="3.93368">
        <ele>227</ele>
        <time>2022-02-15T23:43:50Z</time>
      </trkpt>
      <trkpt lat="46.47493" lon="3.93408">
        <ele>227</ele>
        <time>2022-02-15T23:43:55Z</time>
      </trkpt>
      <trkpt lat="46.47469" lon="3.93468">
        <ele>228</ele>
        <time>2022-02-15T23:44:04Z</time>
      </trkpt>
      <trkpt lat="46.47433" lon="3.93545">
        <ele>229</ele>
        <time>2022-02-15T23:44:15Z</time>
      </trkpt>
      <trkpt lat="46.47148" lon="3.94156">
        <ele>227</ele>
        <time>2022-02-15T23:45:45Z</time>
      </trkpt>
      <trkpt lat="46.4713" lon="3.94196">
        <ele>227</ele>
        <time>2022-02-15T23:45:51Z</time>
      </trkpt>
      <trkpt lat="46.47121" lon="3.94226">
        <ele>227</ele>
        <time>2022-02-15T23:45:55Z</time>
      </trkpt>
      <trkpt lat="46.47109" lon="3.94267">
        <ele>228</ele>
        <time>2022-02-15T23:46:01Z</time>
      </trkpt>
      <trkpt lat="46.47094" lon="3.94346">
        <ele>228</ele>
        <time>2022-02-15T23:46:11Z</time>
      </trkpt>
      <trkpt lat="46.4709" lon="3.94384">
        <ele>229</ele>
        <time>2022-02-15T23:46:15Z</time>
      </trkpt>
      <trkpt lat="46.47087" lon="3.94441">
        <ele>229</ele>
        <time>2022-02-15T23:46:22Z</time>
      </trkpt>
      <trkpt lat="46.47089" lon="3.94592">
        <ele>230</ele>
        <time>2022-02-15T23:46:41Z</time>
      </trkpt>
      <trkpt lat="46.47095" lon="3.94631">
        <ele>230</ele>
        <time>2022-02-15T23:46:46Z</time>
      </trkpt>
      <trkpt lat="46.47099" lon="3.9468">
        <ele>230</ele>
        <time>2022-02-15T23:46:52Z</time>
      </trkpt>
      <trkpt lat="46.47153" lon="3.95562">
        <ele>231</ele>
        <time>2022-02-15T23:48:40Z</time>
      </trkpt>
      <trkpt lat="46.47158" lon="3.95605">
        <ele>231</ele>
        <time>2022-02-15T23:48:46Z</time>
      </trkpt>
      <trkpt lat="46.47163" lon="3.95632">
        <ele>231</ele>
        <time>2022-02-15T23:48:49Z</time>
      </trkpt>
      <trkpt lat="46.47169" lon="3.95658">
        <ele>231</ele>
        <time>2022-02-15T23:48:53Z</time>
      </trkpt>
      <trkpt lat="46.47182" lon="3.95701">
        <ele>230</ele>
        <time>2022-02-15T23:48:58Z</time>
      </trkpt>
      <trkpt lat="46.47184" lon="3.9572">
        <ele>230</ele>
        <time>2022-02-15T23:49:01Z</time>
      </trkpt>
      <trkpt lat="46.47187" lon="3.95787">
        <ele>230</ele>
        <time>2022-02-15T23:49:09Z</time>
      </trkpt>
      <trkpt lat="46.47182" lon="3.95805">
        <ele>230</ele>
        <time>2022-02-15T23:49:11Z</time>
      </trkpt>
      <trkpt lat="46.47173" lon="3.95861">
        <ele>231</ele>
        <time>2022-02-15T23:49:18Z</time>
      </trkpt>
      <trkpt lat="46.47173" lon="3.95891">
        <ele>230</ele>
        <time>2022-02-15T23:49:22Z</time>
      </trkpt>
      <trkpt lat="46.47179" lon="3.95946">
        <ele>230</ele>
        <time>2022-02-15T23:49:29Z</time>
      </trkpt>
      <trkpt lat="46.47182" lon="3.96018">
        <ele>229</ele>
        <time>2022-02-15T23:49:38Z</time>
      </trkpt>
      <trkpt lat="46.47192" lon="3.96189">
        <ele>230</ele>
        <time>2022-02-15T23:49:59Z</time>
      </trkpt>
      <trkpt lat="46.47211" lon="3.96487">
        <ele>229</ele>
        <time>2022-02-15T23:50:35Z</time>
      </trkpt>
      <trkpt lat="46.47219" lon="3.96565">
        <ele>229</ele>
        <time>2022-02-15T23:50:45Z</time>
      </trkpt>
      <trkpt lat="46.47215" lon="3.96566">
        <ele>229</ele>
        <time>2022-02-15T23:50:46Z</time>
      </trkpt>
      <trkpt lat="46.47191" lon="3.96568">
        <ele>229</ele>
        <time>2022-02-15T23:50:50Z</time>
      </trkpt>
      <trkpt lat="46.47185" lon="3.96572">
        <ele>230</ele>
        <time>2022-02-15T23:50:51Z</time>
      </trkpt>
      <trkpt lat="46.47172" lon="3.96455">
        <ele>229</ele>
        <time>2022-02-15T23:51:06Z</time>
      </trkpt>
      <trkpt lat="46.47159" lon="3.96233">
        <ele>228</ele>
        <time>2022-02-15T23:51:33Z</time>
      </trkpt>
      <trkpt lat="46.47145" lon="3.96058">
        <ele>230</ele>
        <time>2022-02-15T23:51:55Z</time>
      </trkpt>
      <trkpt lat="46.47159" lon="3.96233">
        <ele>228</ele>
        <time>2022-02-15T23:52:16Z</time>
      </trkpt>
      <trkpt lat="46.47172" lon="3.96455">
        <ele>229</ele>
        <time>2022-02-15T23:52:44Z</time>
      </trkpt>
      <trkpt lat="46.47185" lon="3.96572">
        <ele>230</ele>
        <time>2022-02-15T23:52:58Z</time>
      </trkpt>
      <trkpt lat="46.47191" lon="3.96568">
        <ele>229</ele>
        <time>2022-02-15T23:52:59Z</time>
      </trkpt>
      <trkpt lat="46.47215" lon="3.96566">
        <ele>229</ele>
        <time>2022-02-15T23:53:04Z</time>
      </trkpt>
      <trkpt lat="46.47281" lon="3.96568">
        <ele>228</ele>
        <time>2022-02-15T23:53:15Z</time>
      </trkpt>
      <trkpt lat="46.4732" lon="3.96574">
        <ele>227</ele>
        <time>2022-02-15T23:53:22Z</time>
      </trkpt>
      <trkpt lat="46.47557" lon="3.96636">
        <ele>225</ele>
        <time>2022-02-15T23:54:05Z</time>
      </trkpt>
      <trkpt lat="46.47581" lon="3.96736">
        <ele>225</ele>
        <time>2022-02-15T23:54:18Z</time>
      </trkpt>
      <trkpt lat="46.47666" lon="3.97063">
        <ele>228</ele>
        <time>2022-02-15T23:55:01Z</time>
      </trkpt>
      <trkpt lat="46.47673" lon="3.97083">
        <ele>228</ele>
        <time>2022-02-15T23:55:04Z</time>
      </trkpt>
      <trkpt lat="46.47681" lon="3.97094">
        <ele>228</ele>
        <time>2022-02-15T23:55:06Z</time>
      </trkpt>
      <trkpt lat="46.47689" lon="3.97103">
        <ele>228</ele>
        <time>2022-02-15T23:55:07Z</time>
      </trkpt>
      <trkpt lat="46.47701" lon="3.97109">
        <ele>228</ele>
        <time>2022-02-15T23:55:10Z</time>
      </trkpt>
      <trkpt lat="46.47713" lon="3.97112">
        <ele>228</ele>
        <time>2022-02-15T23:55:12Z</time>
      </trkpt>
      <trkpt lat="46.47727" lon="3.9711">
        <ele>228</ele>
        <time>2022-02-15T23:55:14Z</time>
      </trkpt>
      <trkpt lat="46.47737" lon="3.97105">
        <ele>228</ele>
        <time>2022-02-15T23:55:16Z</time>
      </trkpt>
      <trkpt lat="46.47843" lon="3.97052">
        <ele>225</ele>
        <time>2022-02-15T23:55:36Z</time>
      </trkpt>
      <trkpt lat="46.47964" lon="3.96995">
        <ele>225</ele>
        <time>2022-02-15T23:55:59Z</time>
      </trkpt>
      <trkpt lat="46.47995" lon="3.9699">
        <ele>226</ele>
        <time>2022-02-15T23:56:04Z</time>
      </trkpt>
      <trkpt lat="46.48008" lon="3.96992">
        <ele>226</ele>
        <time>2022-02-15T23:56:07Z</time>
      </trkpt>
      <trkpt lat="46.48035" lon="3.97004">
        <ele>227</ele>
        <time>2022-02-15T23:56:12Z</time>
      </trkpt>
      <trkpt lat="46.48053" lon="3.97021">
        <ele>227</ele>
        <time>2022-02-15T23:56:16Z</time>
      </trkpt>
      <trkpt lat="46.48077" lon="3.97056">
        <ele>228</ele>
        <time>2022-02-15T23:56:22Z</time>
      </trkpt>
      <trkpt lat="46.48114" lon="3.97133">
        <ele>228</ele>
        <time>2022-02-15T23:56:33Z</time>
      </trkpt>
      <trkpt lat="46.48127" lon="3.9718">
        <ele>229</ele>
        <time>2022-02-15T23:56:39Z</time>
      </trkpt>
      <trkpt lat="46.48125" lon="3.97202">
        <ele>229</ele>
        <time>2022-02-15T23:56:42Z</time>
      </trkpt>
      <trkpt lat="46.48094" lon="3.97285">
        <ele>230</ele>
        <time>2022-02-15T23:56:54Z</time>
      </trkpt>
      <trkpt lat="46.48033" lon="3.97457">
        <ele>229</ele>
        <time>2022-02-15T23:57:17Z</time>
      </trkpt>
      <trkpt lat="46.48024" lon="3.97499">
        <ele>228</ele>
        <time>2022-02-15T23:57:23Z</time>
      </trkpt>
      <trkpt lat="46.48019" lon="3.97543">
        <ele>228</ele>
        <time>2022-02-15T23:57:28Z</time>
      </trkpt>
      <trkpt lat="46.48018" lon="3.97569">
        <ele>228</ele>
        <time>2022-02-15T23:57:31Z</time>
      </trkpt>
      <trkpt lat="46.48027" lon="3.97632">
        <ele>231</ele>
        <time>2022-02-15T23:57:39Z</time>
      </trkpt>
      <trkpt lat="46.48022" lon="3.97727">
        <ele>234</ele>
        <time>2022-02-15T23:57:51Z</time>
      </trkpt>
      <trkpt lat="46.48025" lon="3.97746">
        <ele>235</ele>
        <time>2022-02-15T23:57:53Z</time>
      </trkpt>
      <trkpt lat="46.47998" lon="3.97758">
        <ele>235</ele>
        <time>2022-02-15T23:57:58Z</time>
      </trkpt>
      <trkpt lat="46.47972" lon="3.97777">
        <ele>234</ele>
        <time>2022-02-15T23:58:03Z</time>
      </trkpt>
      <trkpt lat="46.47974" lon="3.97783">
        <ele>234</ele>
        <time>2022-02-15T23:58:04Z</time>
      </trkpt>
      <trkpt lat="46.47939" lon="3.97843">
        <ele>233</ele>
        <time>2022-02-15T23:58:14Z</time>
      </trkpt>
      <trkpt lat="46.4796" lon="3.97868">
        <ele>235</ele>
        <time>2022-02-15T23:58:19Z</time>
      </trkpt>
      <trkpt lat="46.48007" lon="3.97896">
        <ele>239</ele>
        <time>2022-02-15T23:58:28Z</time>
      </trkpt>
      <trkpt lat="46.48012" lon="3.97959">
        <ele>239</ele>
        <time>2022-02-15T23:58:36Z</time>
      </trkpt>
      <trkpt lat="46.48012" lon="3.98074">
        <ele>239</ele>
        <time>2022-02-15T23:58:50Z</time>
      </trkpt>
      <trkpt lat="46.47984" lon="3.98204">
        <ele>238</ele>
        <time>2022-02-15T23:59:06Z</time>
      </trkpt>
      <trkpt lat="46.47978" lon="3.98232">
        <ele>237</ele>
        <time>2022-02-15T23:59:10Z</time>
      </trkpt>
      <trkpt lat="46.47871" lon="3.98717">
        <ele>237</ele>
        <time>2022-02-16T00:00:12Z</time>
      </trkpt>
      <trkpt lat="46.47819" lon="3.9895">
        <ele>240</ele>
        <time>2022-02-16T00:00:42Z</time>
      </trkpt>
      <trkpt lat="46.47644" lon="4.00113">
        <ele>244</ele>
        <time>2022-02-16T00:03:08Z</time>
      </trkpt>
      <trkpt lat="46.47634" lon="4.00154">
        <ele>244</ele>
        <time>2022-02-16T00:03:14Z</time>
      </trkpt>
      <trkpt lat="46.47582" lon="4.00316">
        <ele>244</ele>
        <time>2022-02-16T00:03:35Z</time>
      </trkpt>
      <trkpt lat="46.47578" lon="4.00331">
        <ele>244</ele>
        <time>2022-02-16T00:03:37Z</time>
      </trkpt>
      <trkpt lat="46.47574" lon="4.0039">
        <ele>245</ele>
        <time>2022-02-16T00:03:45Z</time>
      </trkpt>
      <trkpt lat="46.47576" lon="4.00424">
        <ele>245</ele>
        <time>2022-02-16T00:03:49Z</time>
      </trkpt>
      <trkpt lat="46.47571" lon="4.00448">
        <ele>245</ele>
        <time>2022-02-16T00:03:52Z</time>
      </trkpt>
      <trkpt lat="46.47567" lon="4.00453">
        <ele>245</ele>
        <time>2022-02-16T00:03:53Z</time>
      </trkpt>
      <trkpt lat="46.47562" lon="4.00471">
        <ele>245</ele>
        <time>2022-02-16T00:03:55Z</time>
      </trkpt>
      <trkpt lat="46.47561" lon="4.00487">
        <ele>245</ele>
        <time>2022-02-16T00:03:57Z</time>
      </trkpt>
      <trkpt lat="46.47567" lon="4.00507">
        <ele>245</ele>
        <time>2022-02-16T00:04:00Z</time>
      </trkpt>
      <trkpt lat="46.47567" lon="4.0053">
        <ele>246</ele>
        <time>2022-02-16T00:04:03Z</time>
      </trkpt>
      <trkpt lat="46.47555" lon="4.00583">
        <ele>247</ele>
        <time>2022-02-16T00:04:10Z</time>
      </trkpt>
      <trkpt lat="46.47551" lon="4.00731">
        <ele>246</ele>
        <time>2022-02-16T00:04:28Z</time>
      </trkpt>
      <trkpt lat="46.47548" lon="4.00771">
        <ele>246</ele>
        <time>2022-02-16T00:04:33Z</time>
      </trkpt>
      <trkpt lat="46.4743" lon="4.01576">
        <ele>265</ele>
        <time>2022-02-16T00:06:13Z</time>
      </trkpt>
      <trkpt lat="46.46925" lon="4.04963">
        <ele>260</ele>
        <time>2022-02-16T00:13:18Z</time>
      </trkpt>
      <trkpt lat="46.46864" lon="4.05362">
        <ele>260</ele>
        <time>2022-02-16T00:14:08Z</time>
      </trkpt>
      <trkpt lat="46.46788" lon="4.05882">
        <ele>262</ele>
        <time>2022-02-16T00:15:13Z</time>
      </trkpt>
      <trkpt lat="46.46488" lon="4.07896">
        <ele>252</ele>
        <time>2022-02-16T00:19:26Z</time>
      </trkpt>
      <trkpt lat="46.46486" lon="4.07925">
        <ele>251</ele>
        <time>2022-02-16T00:19:29Z</time>
      </trkpt>
      <trkpt lat="46.46486" lon="4.07956">
        <ele>251</ele>
        <time>2022-02-16T00:19:33Z</time>
      </trkpt>
      <trkpt lat="46.4649" lon="4.08013">
        <ele>251</ele>
        <time>2022-02-16T00:19:40Z</time>
      </trkpt>
      <trkpt lat="46.46502" lon="4.08119">
        <ele>251</ele>
        <time>2022-02-16T00:19:53Z</time>
      </trkpt>
      <trkpt lat="46.46498" lon="4.08158">
        <ele>250</ele>
        <time>2022-02-16T00:19:58Z</time>
      </trkpt>
      <trkpt lat="46.46493" lon="4.08182">
        <ele>250</ele>
        <time>2022-02-16T00:20:01Z</time>
      </trkpt>
      <trkpt lat="46.46487" lon="4.08195">
        <ele>251</ele>
        <time>2022-02-16T00:20:03Z</time>
      </trkpt>
      <trkpt lat="46.46479" lon="4.08203">
        <ele>251</ele>
        <time>2022-02-16T00:20:05Z</time>
      </trkpt>
      <trkpt lat="46.46473" lon="4.08215">
        <ele>251</ele>
        <time>2022-02-16T00:20:07Z</time>
      </trkpt>
      <trkpt lat="46.46472" lon="4.08229">
        <ele>251</ele>
        <time>2022-02-16T00:20:09Z</time>
      </trkpt>
      <trkpt lat="46.46464" lon="4.08248">
        <ele>251</ele>
        <time>2022-02-16T00:20:11Z</time>
      </trkpt>
      <trkpt lat="46.46439" lon="4.08285">
        <ele>252</ele>
        <time>2022-02-16T00:20:18Z</time>
      </trkpt>
      <trkpt lat="46.46389" lon="4.0834">
        <ele>253</ele>
        <time>2022-02-16T00:20:29Z</time>
      </trkpt>
      <trkpt lat="46.46379" lon="4.08348">
        <ele>254</ele>
        <time>2022-02-16T00:20:31Z</time>
      </trkpt>
      <trkpt lat="46.46357" lon="4.08354">
        <ele>254</ele>
        <time>2022-02-16T00:20:35Z</time>
      </trkpt>
      <trkpt lat="46.46346" lon="4.08354">
        <ele>254</ele>
        <time>2022-02-16T00:20:37Z</time>
      </trkpt>
      <trkpt lat="46.46341" lon="4.08348">
        <ele>254</ele>
        <time>2022-02-16T00:20:38Z</time>
      </trkpt>
      <trkpt lat="46.46329" lon="4.08341">
        <ele>254</ele>
        <time>2022-02-16T00:20:40Z</time>
      </trkpt>
      <trkpt lat="46.46318" lon="4.08341">
        <ele>254</ele>
        <time>2022-02-16T00:20:42Z</time>
      </trkpt>
      <trkpt lat="46.46307" lon="4.08346">
        <ele>254</ele>
        <time>2022-02-16T00:20:44Z</time>
      </trkpt>
      <trkpt lat="46.46298" lon="4.08358">
        <ele>255</ele>
        <time>2022-02-16T00:20:46Z</time>
      </trkpt>
      <trkpt lat="46.46293" lon="4.08374">
        <ele>255</ele>
        <time>2022-02-16T00:20:49Z</time>
      </trkpt>
      <trkpt lat="46.46292" lon="4.08393">
        <ele>255</ele>
        <time>2022-02-16T00:20:51Z</time>
      </trkpt>
      <trkpt lat="46.46287" lon="4.08411">
        <ele>255</ele>
        <time>2022-02-16T00:20:53Z</time>
      </trkpt>
      <trkpt lat="46.46261" lon="4.08453">
        <ele>254</ele>
        <time>2022-02-16T00:21:00Z</time>
      </trkpt>
      <trkpt lat="46.46234" lon="4.08512">
        <ele>254</ele>
        <time>2022-02-16T00:21:09Z</time>
      </trkpt>
      <trkpt lat="46.46212" lon="4.08564">
        <ele>254</ele>
        <time>2022-02-16T00:21:16Z</time>
      </trkpt>
      <trkpt lat="46.4621" lon="4.08576">
        <ele>254</ele>
        <time>2022-02-16T00:21:18Z</time>
      </trkpt>
      <trkpt lat="46.46144" lon="4.08723">
        <ele>249</ele>
        <time>2022-02-16T00:21:39Z</time>
      </trkpt>
      <trkpt lat="46.45629" lon="4.0984">
        <ele>246</ele>
        <time>2022-02-16T00:24:24Z</time>
      </trkpt>
      <trkpt lat="46.45608" lon="4.09872">
        <ele>247</ele>
        <time>2022-02-16T00:24:30Z</time>
      </trkpt>
      <trkpt lat="46.45549" lon="4.09938">
        <ele>248</ele>
        <time>2022-02-16T00:24:43Z</time>
      </trkpt>
      <trkpt lat="46.45534" lon="4.0996">
        <ele>248</ele>
        <time>2022-02-16T00:24:47Z</time>
      </trkpt>
      <trkpt lat="46.45525" lon="4.09985">
        <ele>248</ele>
        <time>2022-02-16T00:24:50Z</time>
      </trkpt>
      <trkpt lat="46.45522" lon="4.10035">
        <ele>246</ele>
        <time>2022-02-16T00:24:56Z</time>
      </trkpt>
      <trkpt lat="46.45517" lon="4.10066">
        <ele>246</ele>
        <time>2022-02-16T00:25:00Z</time>
      </trkpt>
      <trkpt lat="46.45512" lon="4.10087">
        <ele>245</ele>
        <time>2022-02-16T00:25:03Z</time>
      </trkpt>
      <trkpt lat="46.45516" lon="4.1009">
        <ele>245</ele>
        <time>2022-02-16T00:25:04Z</time>
      </trkpt>
      <trkpt lat="46.45531" lon="4.1011">
        <ele>244</ele>
        <time>2022-02-16T00:25:07Z</time>
      </trkpt>
      <trkpt lat="46.45546" lon="4.10131">
        <ele>243</ele>
        <time>2022-02-16T00:25:11Z</time>
      </trkpt>
      <trkpt lat="46.45592" lon="4.10206">
        <ele>240</ele>
        <time>2022-02-16T00:25:23Z</time>
      </trkpt>
      <trkpt lat="46.45691" lon="4.10352">
        <ele>237</ele>
        <time>2022-02-16T00:25:48Z</time>
      </trkpt>
      <trkpt lat="46.45719" lon="4.10395">
        <ele>238</ele>
        <time>2022-02-16T00:25:56Z</time>
      </trkpt>
      <trkpt lat="46.458" lon="4.10518">
        <ele>238</ele>
        <time>2022-02-16T00:26:16Z</time>
      </trkpt>
      <trkpt lat="46.45816" lon="4.10545">
        <ele>238</ele>
        <time>2022-02-16T00:26:21Z</time>
      </trkpt>
      <trkpt lat="46.45836" lon="4.10595">
        <ele>238</ele>
        <time>2022-02-16T00:26:28Z</time>
      </trkpt>
      <trkpt lat="46.45879" lon="4.1072">
        <ele>242</ele>
        <time>2022-02-16T00:26:45Z</time>
      </trkpt>
      <trkpt lat="46.45936" lon="4.10827">
        <ele>243</ele>
        <time>2022-02-16T00:27:02Z</time>
      </trkpt>
      <trkpt lat="46.4588" lon="4.10925">
        <ele>243</ele>
        <time>2022-02-16T00:27:17Z</time>
      </trkpt>
      <trkpt lat="46.45866" lon="4.10936">
        <ele>243</ele>
        <time>2022-02-16T00:27:20Z</time>
      </trkpt>
      <trkpt lat="46.4586" lon="4.10936">
        <ele>243</ele>
        <time>2022-02-16T00:27:21Z</time>
      </trkpt>
      <trkpt lat="46.45856" lon="4.10939">
        <ele>243</ele>
        <time>2022-02-16T00:27:22Z</time>
      </trkpt>
      <trkpt lat="46.45851" lon="4.10946">
        <ele>243</ele>
        <time>2022-02-16T00:27:23Z</time>
      </trkpt>
      <trkpt lat="46.4585" lon="4.10962">
        <ele>243</ele>
        <time>2022-02-16T00:27:25Z</time>
      </trkpt>
      <trkpt lat="46.45841" lon="4.1099">
        <ele>242</ele>
        <time>2022-02-16T00:27:29Z</time>
      </trkpt>
      <trkpt lat="46.45791" lon="4.11079">
        <ele>242</ele>
        <time>2022-02-16T00:27:43Z</time>
      </trkpt>
      <trkpt lat="46.45766" lon="4.11118">
        <ele>243</ele>
        <time>2022-02-16T00:27:50Z</time>
      </trkpt>
      <trkpt lat="46.45647" lon="4.11239">
        <ele>244</ele>
        <time>2022-02-16T00:28:15Z</time>
      </trkpt>
      <trkpt lat="46.45619" lon="4.11282">
        <ele>244</ele>
        <time>2022-02-16T00:28:23Z</time>
      </trkpt>
      <trkpt lat="46.45569" lon="4.11379">
        <ele>244</ele>
        <time>2022-02-16T00:28:37Z</time>
      </trkpt>
      <trkpt lat="46.45496" lon="4.11532">
        <ele>243</ele>
        <time>2022-02-16T00:29:00Z</time>
      </trkpt>
      <trkpt lat="46.45439" lon="4.11634">
        <ele>244</ele>
        <time>2022-02-16T00:29:16Z</time>
      </trkpt>
      <trkpt lat="46.45395" lon="4.11704">
        <ele>244</ele>
        <time>2022-02-16T00:29:28Z</time>
      </trkpt>
      <trkpt lat="46.45374" lon="4.11732">
        <ele>245</ele>
        <time>2022-02-16T00:29:33Z</time>
      </trkpt>
      <trkpt lat="46.45367" lon="4.11746">
        <ele>245</ele>
        <time>2022-02-16T00:29:35Z</time>
      </trkpt>
      <trkpt lat="46.45364" lon="4.11755">
        <ele>245</ele>
        <time>2022-02-16T00:29:36Z</time>
      </trkpt>
      <trkpt lat="46.45366" lon="4.11775">
        <ele>245</ele>
        <time>2022-02-16T00:29:39Z</time>
      </trkpt>
      <trkpt lat="46.45372" lon="4.11797">
        <ele>245</ele>
        <time>2022-02-16T00:29:42Z</time>
      </trkpt>
      <trkpt lat="46.4537" lon="4.11824">
        <ele>245</ele>
        <time>2022-02-16T00:29:45Z</time>
      </trkpt>
      <trkpt lat="46.45367" lon="4.11836">
        <ele>245</ele>
        <time>2022-02-16T00:29:47Z</time>
      </trkpt>
      <trkpt lat="46.45344" lon="4.11884">
        <ele>245</ele>
        <time>2022-02-16T00:29:54Z</time>
      </trkpt>
      <trkpt lat="46.45317" lon="4.11926">
        <ele>245</ele>
        <time>2022-02-16T00:30:01Z</time>
      </trkpt>
      <trkpt lat="46.45295" lon="4.11943">
        <ele>245</ele>
        <time>2022-02-16T00:30:05Z</time>
      </trkpt>
      <trkpt lat="46.45319" lon="4.11994">
        <ele>246</ele>
        <time>2022-02-16T00:30:13Z</time>
      </trkpt>
      <trkpt lat="46.45322" lon="4.1201">
        <ele>246</ele>
        <time>2022-02-16T00:30:15Z</time>
      </trkpt>
      <trkpt lat="46.4532" lon="4.12024">
        <ele>246</ele>
        <time>2022-02-16T00:30:17Z</time>
      </trkpt>
      <trkpt lat="46.453" lon="4.12092">
        <ele>248</ele>
        <time>2022-02-16T00:30:26Z</time>
      </trkpt>
      <trkpt lat="46.45229" lon="4.12298">
        <ele>250</ele>
        <time>2022-02-16T00:30:54Z</time>
      </trkpt>
      <trkpt lat="46.45223" lon="4.1231">
        <ele>250</ele>
        <time>2022-02-16T00:30:56Z</time>
      </trkpt>
      <trkpt lat="46.45193" lon="4.12335">
        <ele>250</ele>
        <time>2022-02-16T00:31:02Z</time>
      </trkpt>
      <trkpt lat="46.45178" lon="4.12349">
        <ele>251</ele>
        <time>2022-02-16T00:31:05Z</time>
      </trkpt>
      <trkpt lat="46.45144" lon="4.12399">
        <ele>251</ele>
        <time>2022-02-16T00:31:14Z</time>
      </trkpt>
      <trkpt lat="46.4513" lon="4.12423">
        <ele>251</ele>
        <time>2022-02-16T00:31:18Z</time>
      </trkpt>
      <trkpt lat="46.45077" lon="4.12595">
        <ele>259</ele>
        <time>2022-02-16T00:31:41Z</time>
      </trkpt>
      <trkpt lat="46.45012" lon="4.12818">
        <ele>264</ele>
        <time>2022-02-16T00:32:10Z</time>
      </trkpt>
      <trkpt lat="46.4498" lon="4.12872">
        <ele>265</ele>
        <time>2022-02-16T00:32:19Z</time>
      </trkpt>
      <trkpt lat="46.44937" lon="4.1294">
        <ele>267</ele>
        <time>2022-02-16T00:32:30Z</time>
      </trkpt>
      <trkpt lat="46.44916" lon="4.12966">
        <ele>268</ele>
        <time>2022-02-16T00:32:35Z</time>
      </trkpt>
      <trkpt lat="46.4489" lon="4.13012">
        <ele>267</ele>
        <time>2022-02-16T00:32:43Z</time>
      </trkpt>
      <trkpt lat="46.44876" lon="4.1305">
        <ele>267</ele>
        <time>2022-02-16T00:32:48Z</time>
      </trkpt>
      <trkpt lat="46.4487" lon="4.13097">
        <ele>268</ele>
        <time>2022-02-16T00:32:54Z</time>
      </trkpt>
      <trkpt lat="46.44872" lon="4.13152">
        <ele>270</ele>
        <time>2022-02-16T00:33:01Z</time>
      </trkpt>
      <trkpt lat="46.44905" lon="4.13529">
        <ele>273</ele>
        <time>2022-02-16T00:33:47Z</time>
      </trkpt>
      <trkpt lat="46.4493" lon="4.13774">
        <ele>270</ele>
        <time>2022-02-16T00:34:17Z</time>
      </trkpt>
      <trkpt lat="46.44938" lon="4.13814">
        <ele>270</ele>
        <time>2022-02-16T00:34:23Z</time>
      </trkpt>
      <trkpt lat="46.44953" lon="4.13864">
        <ele>271</ele>
        <time>2022-02-16T00:34:29Z</time>
      </trkpt>
      <trkpt lat="46.44968" lon="4.13897">
        <ele>272</ele>
        <time>2022-02-16T00:34:34Z</time>
      </trkpt>
      <trkpt lat="46.44993" lon="4.13941">
        <ele>272</ele>
        <time>2022-02-16T00:34:41Z</time>
      </trkpt>
      <trkpt lat="46.45048" lon="4.14029">
        <ele>268</ele>
        <time>2022-02-16T00:34:56Z</time>
      </trkpt>
      <trkpt lat="46.45074" lon="4.14083">
        <ele>267</ele>
        <time>2022-02-16T00:35:04Z</time>
      </trkpt>
      <trkpt lat="46.45084" lon="4.1411">
        <ele>268</ele>
        <time>2022-02-16T00:35:08Z</time>
      </trkpt>
      <trkpt lat="46.45091" lon="4.14139">
        <ele>269</ele>
        <time>2022-02-16T00:35:11Z</time>
      </trkpt>
      <trkpt lat="46.45093" lon="4.14155">
        <ele>269</ele>
        <time>2022-02-16T00:35:13Z</time>
      </trkpt>
      <trkpt lat="46.45134" lon="4.14774">
        <ele>258</ele>
        <time>2022-02-16T00:36:30Z</time>
      </trkpt>
      <trkpt lat="46.45169" lon="4.15332">
        <ele>250</ele>
        <time>2022-02-16T00:37:38Z</time>
      </trkpt>
      <trkpt lat="46.45168" lon="4.15352">
        <ele>249</ele>
        <time>2022-02-16T00:37:41Z</time>
      </trkpt>
      <trkpt lat="46.45166" lon="4.15369">
        <ele>248</ele>
        <time>2022-02-16T00:37:43Z</time>
      </trkpt>
      <trkpt lat="46.45148" lon="4.15446">
        <ele>244</ele>
        <time>2022-02-16T00:37:53Z</time>
      </trkpt>
      <trkpt lat="46.45142" lon="4.15478">
        <ele>243</ele>
        <time>2022-02-16T00:37:57Z</time>
      </trkpt>
      <trkpt lat="46.45141" lon="4.15515">
        <ele>242</ele>
        <time>2022-02-16T00:38:01Z</time>
      </trkpt>
      <trkpt lat="46.4514" lon="4.15552">
        <ele>242</ele>
        <time>2022-02-16T00:38:06Z</time>
      </trkpt>
      <trkpt lat="46.45141" lon="4.15613">
        <ele>242</ele>
        <time>2022-02-16T00:38:13Z</time>
      </trkpt>
      <trkpt lat="46.4514" lon="4.15736">
        <ele>246</ele>
        <time>2022-02-16T00:38:28Z</time>
      </trkpt>
      <trkpt lat="46.45141" lon="4.1577">
        <ele>248</ele>
        <time>2022-02-16T00:38:33Z</time>
      </trkpt>
      <trkpt lat="46.45141" lon="4.15796">
        <ele>250</ele>
        <time>2022-02-16T00:38:36Z</time>
      </trkpt>
      <trkpt lat="46.45138" lon="4.15803">
        <ele>251</ele>
        <time>2022-02-16T00:38:37Z</time>
      </trkpt>
      <trkpt lat="46.45137" lon="4.15824">
        <ele>253</ele>
        <time>2022-02-16T00:38:39Z</time>
      </trkpt>
      <trkpt lat="46.45138" lon="4.15912">
        <ele>258</ele>
        <time>2022-02-16T00:38:50Z</time>
      </trkpt>
      <trkpt lat="46.45137" lon="4.16111">
        <ele>266</ele>
        <time>2022-02-16T00:39:15Z</time>
      </trkpt>
      <trkpt lat="46.45136" lon="4.16134">
        <ele>267</ele>
        <time>2022-02-16T00:39:17Z</time>
      </trkpt>
      <trkpt lat="46.4513" lon="4.1615">
        <ele>267</ele>
        <time>2022-02-16T00:39:20Z</time>
      </trkpt>
      <trkpt lat="46.45138" lon="4.16203">
        <ele>268</ele>
        <time>2022-02-16T00:39:26Z</time>
      </trkpt>
      <trkpt lat="46.4514" lon="4.16256">
        <ele>269</ele>
        <time>2022-02-16T00:39:33Z</time>
      </trkpt>
      <trkpt lat="46.45143" lon="4.16278">
        <ele>269</ele>
        <time>2022-02-16T00:39:36Z</time>
      </trkpt>
      <trkpt lat="46.45153" lon="4.16311">
        <ele>269</ele>
        <time>2022-02-16T00:39:40Z</time>
      </trkpt>
      <trkpt lat="46.45167" lon="4.16339">
        <ele>269</ele>
        <time>2022-02-16T00:39:44Z</time>
      </trkpt>
      <trkpt lat="46.45167" lon="4.16358">
        <ele>269</ele>
        <time>2022-02-16T00:39:47Z</time>
      </trkpt>
      <trkpt lat="46.4515" lon="4.16391">
        <ele>270</ele>
        <time>2022-02-16T00:39:52Z</time>
      </trkpt>
      <trkpt lat="46.45143" lon="4.16409">
        <ele>270</ele>
        <time>2022-02-16T00:39:54Z</time>
      </trkpt>
      <trkpt lat="46.4514" lon="4.16442">
        <ele>270</ele>
        <time>2022-02-16T00:39:58Z</time>
      </trkpt>
      <trkpt lat="46.45138" lon="4.17197">
        <ele>267</ele>
        <time>2022-02-16T00:41:31Z</time>
      </trkpt>
      <trkpt lat="46.45134" lon="4.17736">
        <ele>273</ele>
        <time>2022-02-16T00:42:37Z</time>
      </trkpt>
      <trkpt lat="46.45131" lon="4.17778">
        <ele>275</ele>
        <time>2022-02-16T00:42:42Z</time>
      </trkpt>
      <trkpt lat="46.45121" lon="4.17832">
        <ele>277</ele>
        <time>2022-02-16T00:42:49Z</time>
      </trkpt>
      <trkpt lat="46.45083" lon="4.17977">
        <ele>274</ele>
        <time>2022-02-16T00:43:08Z</time>
      </trkpt>
      <trkpt lat="46.44925" lon="4.18493">
        <ele>276</ele>
        <time>2022-02-16T00:44:17Z</time>
      </trkpt>
      <trkpt lat="46.44896" lon="4.18598">
        <ele>277</ele>
        <time>2022-02-16T00:44:31Z</time>
      </trkpt>
      <trkpt lat="46.44517" lon="4.19858">
        <ele>307</ele>
        <time>2022-02-16T00:47:20Z</time>
      </trkpt>
      <trkpt lat="46.44503" lon="4.19921">
        <ele>308</ele>
        <time>2022-02-16T00:47:28Z</time>
      </trkpt>
      <trkpt lat="46.44459" lon="4.2025">
        <ele>307</ele>
        <time>2022-02-16T00:48:09Z</time>
      </trkpt>
      <trkpt lat="46.44377" lon="4.20874">
        <ele>309</ele>
        <time>2022-02-16T00:49:27Z</time>
      </trkpt>
      <trkpt lat="46.44182" lon="4.22443">
        <ele>326</ele>
        <time>2022-02-16T00:52:42Z</time>
      </trkpt>
      <trkpt lat="46.44089" lon="4.23247">
        <ele>306</ele>
        <time>2022-02-16T00:54:22Z</time>
      </trkpt>
      <trkpt lat="46.44079" lon="4.23323">
        <ele>306</ele>
        <time>2022-02-16T00:54:32Z</time>
      </trkpt>
      <trkpt lat="46.43957" lon="4.23872">
        <ele>316</ele>
        <time>2022-02-16T00:55:42Z</time>
      </trkpt>
      <trkpt lat="46.43942" lon="4.23949">
        <ele>315</ele>
        <time>2022-02-16T00:55:52Z</time>
      </trkpt>
      <trkpt lat="46.43932" lon="4.24027">
        <ele>313</ele>
        <time>2022-02-16T00:56:02Z</time>
      </trkpt>
      <trkpt lat="46.43925" lon="4.2412">
        <ele>310</ele>
        <time>2022-02-16T00:56:13Z</time>
      </trkpt>
      <trkpt lat="46.43923" lon="4.2422">
        <ele>305</ele>
        <time>2022-02-16T00:56:26Z</time>
      </trkpt>
      <trkpt lat="46.43939" lon="4.24425">
        <ele>303</ele>
        <time>2022-02-16T00:56:51Z</time>
      </trkpt>
      <trkpt lat="46.43941" lon="4.24465">
        <ele>304</ele>
        <time>2022-02-16T00:56:56Z</time>
      </trkpt>
      <trkpt lat="46.43941" lon="4.24503">
        <ele>305</ele>
        <time>2022-02-16T00:57:00Z</time>
      </trkpt>
      <trkpt lat="46.43936" lon="4.2458">
        <ele>307</ele>
        <time>2022-02-16T00:57:10Z</time>
      </trkpt>
      <trkpt lat="46.43878" lon="4.25109">
        <ele>327</ele>
        <time>2022-02-16T00:58:16Z</time>
      </trkpt>
      <trkpt lat="46.43871" lon="4.25143">
        <ele>327</ele>
        <time>2022-02-16T00:58:20Z</time>
      </trkpt>
      <trkpt lat="46.43863" lon="4.25161">
        <ele>326</ele>
        <time>2022-02-16T00:58:23Z</time>
      </trkpt>
      <trkpt lat="46.43854" lon="4.25169">
        <ele>326</ele>
        <time>2022-02-16T00:58:24Z</time>
      </trkpt>
      <trkpt lat="46.4385" lon="4.25182">
        <ele>326</ele>
        <time>2022-02-16T00:58:26Z</time>
      </trkpt>
      <trkpt lat="46.43852" lon="4.25198">
        <ele>327</ele>
        <time>2022-02-16T00:58:28Z</time>
      </trkpt>
      <trkpt lat="46.43859" lon="4.25209">
        <ele>328</ele>
        <time>2022-02-16T00:58:30Z</time>
      </trkpt>
      <trkpt lat="46.43862" lon="4.25222">
        <ele>329</ele>
        <time>2022-02-16T00:58:32Z</time>
      </trkpt>
      <trkpt lat="46.43861" lon="4.2526">
        <ele>330</ele>
        <time>2022-02-16T00:58:36Z</time>
      </trkpt>
      <trkpt lat="46.43809" lon="4.25724">
        <ele>327</ele>
        <time>2022-02-16T00:59:34Z</time>
      </trkpt>
      <trkpt lat="46.43746" lon="4.26314">
        <ele>326</ele>
        <time>2022-02-16T01:00:47Z</time>
      </trkpt>
      <trkpt lat="46.43653" lon="4.27195">
        <ele>294</ele>
        <time>2022-02-16T01:02:36Z</time>
      </trkpt>
      <trkpt lat="46.43648" lon="4.27213">
        <ele>293</ele>
        <time>2022-02-16T01:02:39Z</time>
      </trkpt>
      <trkpt lat="46.43644" lon="4.27218">
        <ele>293</ele>
        <time>2022-02-16T01:02:40Z</time>
      </trkpt>
      <trkpt lat="46.43576" lon="4.27285">
        <ele>288</ele>
        <time>2022-02-16T01:02:54Z</time>
      </trkpt>
      <trkpt lat="46.43525" lon="4.27335">
        <ele>283</ele>
        <time>2022-02-16T01:03:05Z</time>
      </trkpt>
      <trkpt lat="46.43536" lon="4.27338">
        <ele>283</ele>
        <time>2022-02-16T01:03:07Z</time>
      </trkpt>
      <trkpt lat="46.43562" lon="4.27366">
        <ele>284</ele>
        <time>2022-02-16T01:03:13Z</time>
      </trkpt>
      <trkpt lat="46.43596" lon="4.27407">
        <ele>284</ele>
        <time>2022-02-16T01:03:21Z</time>
      </trkpt>
      <trkpt lat="46.4362" lon="4.27428">
        <ele>283</ele>
        <time>2022-02-16T01:03:26Z</time>
      </trkpt>
      <trkpt lat="46.43623" lon="4.27424">
        <ele>283</ele>
        <time>2022-02-16T01:03:27Z</time>
      </trkpt>
      <trkpt lat="46.43629" lon="4.27432">
        <ele>283</ele>
        <time>2022-02-16T01:03:28Z</time>
      </trkpt>
      <trkpt lat="46.43659" lon="4.27448">
        <ele>282</ele>
        <time>2022-02-16T01:03:34Z</time>
      </trkpt>
      <trkpt lat="46.43673" lon="4.27457">
        <ele>282</ele>
        <time>2022-02-16T01:03:37Z</time>
      </trkpt>
      <trkpt lat="46.43679" lon="4.27464">
        <ele>282</ele>
        <time>2022-02-16T01:03:38Z</time>
      </trkpt>
      <trkpt lat="46.43688" lon="4.2748">
        <ele>282</ele>
        <time>2022-02-16T01:03:40Z</time>
      </trkpt>
      <trkpt lat="46.43694" lon="4.27499">
        <ele>281</ele>
        <time>2022-02-16T01:03:43Z</time>
      </trkpt>
      <trkpt lat="46.43696" lon="4.27511">
        <ele>282</ele>
        <time>2022-02-16T01:03:45Z</time>
      </trkpt>
      <trkpt lat="46.437" lon="4.27563">
        <ele>283</ele>
        <time>2022-02-16T01:03:51Z</time>
      </trkpt>
      <trkpt lat="46.43704" lon="4.27599">
        <ele>284</ele>
        <time>2022-02-16T01:03:55Z</time>
      </trkpt>
      <trkpt lat="46.4374" lon="4.27701">
        <ele>284</ele>
        <time>2022-02-16T01:04:09Z</time>
      </trkpt>
      <trkpt lat="46.43742" lon="4.27713">
        <ele>284</ele>
        <time>2022-02-16T01:04:11Z</time>
      </trkpt>
      <trkpt lat="46.43741" lon="4.27717">
        <ele>284</ele>
        <time>2022-02-16T01:04:12Z</time>
      </trkpt>
      <trkpt lat="46.43685" lon="4.27772">
        <ele>283</ele>
        <time>2022-02-16T01:04:24Z</time>
      </trkpt>
      <trkpt lat="46.43667" lon="4.27782">
        <ele>283</ele>
        <time>2022-02-16T01:04:27Z</time>
      </trkpt>
      <trkpt lat="46.43638" lon="4.27793">
        <ele>284</ele>
        <time>2022-02-16T01:04:32Z</time>
      </trkpt>
      <trkpt lat="46.43633" lon="4.27795">
        <ele>284</ele>
        <time>2022-02-16T01:04:33Z</time>
      </trkpt>
      <trkpt lat="46.4363" lon="4.27801">
        <ele>284</ele>
        <time>2022-02-16T01:04:34Z</time>
      </trkpt>
      <trkpt lat="46.43631" lon="4.27813">
        <ele>283</ele>
        <time>2022-02-16T01:04:36Z</time>
      </trkpt>
      <trkpt lat="46.43638" lon="4.27865">
        <ele>283</ele>
        <time>2022-02-16T01:04:42Z</time>
      </trkpt>
      <trkpt lat="46.43633" lon="4.27867">
        <ele>283</ele>
        <time>2022-02-16T01:04:43Z</time>
      </trkpt>
      <trkpt lat="46.4363" lon="4.2787">
        <ele>283</ele>
        <time>2022-02-16T01:04:44Z</time>
      </trkpt>
      <trkpt lat="46.43621" lon="4.27886">
        <ele>283</ele>
        <time>2022-02-16T01:04:46Z</time>
      </trkpt>
      <trkpt lat="46.43668" lon="4.27952">
        <ele>283</ele>
        <time>2022-02-16T01:04:58Z</time>
      </trkpt>
      <trkpt lat="46.43713" lon="4.27989">
        <ele>284</ele>
        <time>2022-02-16T01:05:07Z</time>
      </trkpt>
      <trkpt lat="46.4372" lon="4.27999">
        <ele>284</ele>
        <time>2022-02-16T01:05:09Z</time>
      </trkpt>
      <trkpt lat="46.43728" lon="4.28023">
        <ele>285</ele>
        <time>2022-02-16T01:05:12Z</time>
      </trkpt>
      <trkpt lat="46.43731" lon="4.28039">
        <ele>286</ele>
        <time>2022-02-16T01:05:14Z</time>
      </trkpt>
      <trkpt lat="46.43732" lon="4.28057">
        <ele>287</ele>
        <time>2022-02-16T01:05:16Z</time>
      </trkpt>
      <trkpt lat="46.43722" lon="4.28108">
        <ele>289</ele>
        <time>2022-02-16T01:05:23Z</time>
      </trkpt>
      <trkpt lat="46.43718" lon="4.28146">
        <ele>292</ele>
        <time>2022-02-16T01:05:28Z</time>
      </trkpt>
      <trkpt lat="46.43721" lon="4.28295">
        <ele>297</ele>
        <time>2022-02-16T01:05:46Z</time>
      </trkpt>
      <trkpt lat="46.4374" lon="4.28415">
        <ele>299</ele>
        <time>2022-02-16T01:06:01Z</time>
      </trkpt>
      <trkpt lat="46.43978" lon="4.2983">
        <ele>308</ele>
        <time>2022-02-16T01:09:00Z</time>
      </trkpt>
      <trkpt lat="46.43999" lon="4.29951">
        <ele>304</ele>
        <time>2022-02-16T01:09:15Z</time>
      </trkpt>
      <trkpt lat="46.44007" lon="4.2999">
        <ele>303</ele>
        <time>2022-02-16T01:09:20Z</time>
      </trkpt>
      <trkpt lat="46.44011" lon="4.30025">
        <ele>304</ele>
        <time>2022-02-16T01:09:24Z</time>
      </trkpt>
      <trkpt lat="46.44011" lon="4.30046">
        <ele>304</ele>
        <time>2022-02-16T01:09:27Z</time>
      </trkpt>
      <trkpt lat="46.44006" lon="4.30059">
        <ele>304</ele>
        <time>2022-02-16T01:09:29Z</time>
      </trkpt>
      <trkpt lat="46.44005" lon="4.30068">
        <ele>304</ele>
        <time>2022-02-16T01:09:30Z</time>
      </trkpt>
      <trkpt lat="46.44006" lon="4.30077">
        <ele>304</ele>
        <time>2022-02-16T01:09:31Z</time>
      </trkpt>
      <trkpt lat="46.44009" lon="4.30084">
        <ele>304</ele>
        <time>2022-02-16T01:09:32Z</time>
      </trkpt>
      <trkpt lat="46.44014" lon="4.30091">
        <ele>304</ele>
        <time>2022-02-16T01:09:33Z</time>
      </trkpt>
      <trkpt lat="46.4402" lon="4.30094">
        <ele>304</ele>
        <time>2022-02-16T01:09:34Z</time>
      </trkpt>
      <trkpt lat="46.44029" lon="4.30122">
        <ele>305</ele>
        <time>2022-02-16T01:09:38Z</time>
      </trkpt>
      <trkpt lat="46.44042" lon="4.30207">
        <ele>307</ele>
        <time>2022-02-16T01:09:49Z</time>
      </trkpt>
      <trkpt lat="46.44079" lon="4.30423">
        <ele>316</ele>
        <time>2022-02-16T01:10:16Z</time>
      </trkpt>
      <trkpt lat="46.44106" lon="4.30608">
        <ele>320</ele>
        <time>2022-02-16T01:10:39Z</time>
      </trkpt>
      <trkpt lat="46.44108" lon="4.30644">
        <ele>320</ele>
        <time>2022-02-16T01:10:44Z</time>
      </trkpt>
      <trkpt lat="46.44112" lon="4.30711">
        <ele>320</ele>
        <time>2022-02-16T01:10:52Z</time>
      </trkpt>
      <trkpt lat="46.44118" lon="4.30755">
        <ele>320</ele>
        <time>2022-02-16T01:10:57Z</time>
      </trkpt>
      <trkpt lat="46.44133" lon="4.30823">
        <ele>320</ele>
        <time>2022-02-16T01:11:06Z</time>
      </trkpt>
      <trkpt lat="46.44159" lon="4.30911">
        <ele>322</ele>
        <time>2022-02-16T01:11:18Z</time>
      </trkpt>
      <trkpt lat="46.44174" lon="4.30982">
        <ele>319</ele>
        <time>2022-02-16T01:11:27Z</time>
      </trkpt>
      <trkpt lat="46.44217" lon="4.31249">
        <ele>315</ele>
        <time>2022-02-16T01:12:00Z</time>
      </trkpt>
      <trkpt lat="46.44209" lon="4.31256">
        <ele>315</ele>
        <time>2022-02-16T01:12:02Z</time>
      </trkpt>
      <trkpt lat="46.44206" lon="4.31267">
        <ele>315</ele>
        <time>2022-02-16T01:12:04Z</time>
      </trkpt>
      <trkpt lat="46.44207" lon="4.31277">
        <ele>315</ele>
        <time>2022-02-16T01:12:05Z</time>
      </trkpt>
      <trkpt lat="46.4421" lon="4.31283">
        <ele>315</ele>
        <time>2022-02-16T01:12:06Z</time>
      </trkpt>
      <trkpt lat="46.44219" lon="4.3129">
        <ele>315</ele>
        <time>2022-02-16T01:12:08Z</time>
      </trkpt>
      <trkpt lat="46.44224" lon="4.31289">
        <ele>315</ele>
        <time>2022-02-16T01:12:08Z</time>
      </trkpt>
      <trkpt lat="46.44308" lon="4.3178">
        <ele>324</ele>
        <time>2022-02-16T01:13:10Z</time>
      </trkpt>
      <trkpt lat="46.44667" lon="4.33917">
        <ele>308</ele>
        <time>2022-02-16T01:17:40Z</time>
      </trkpt>
      <trkpt lat="46.44738" lon="4.34353">
        <ele>308</ele>
        <time>2022-02-16T01:18:35Z</time>
      </trkpt>
      <trkpt lat="46.44951" lon="4.35735">
        <ele>316</ele>
        <time>2022-02-16T01:21:29Z</time>
      </trkpt>
      <trkpt lat="46.44997" lon="4.36047">
        <ele>324</ele>
        <time>2022-02-16T01:22:08Z</time>
      </trkpt>
      <trkpt lat="46.44997" lon="4.36114">
        <ele>322</ele>
        <time>2022-02-16T01:22:16Z</time>
      </trkpt>
      <trkpt lat="46.44972" lon="4.36339">
        <ele>311</ele>
        <time>2022-02-16T01:22:44Z</time>
      </trkpt>
      <trkpt lat="46.44969" lon="4.36371">
        <ele>309</ele>
        <time>2022-02-16T01:22:48Z</time>
      </trkpt>
      <trkpt lat="46.4497" lon="4.36401">
        <ele>307</ele>
        <time>2022-02-16T01:22:52Z</time>
      </trkpt>
      <trkpt lat="46.44979" lon="4.36455">
        <ele>306</ele>
        <time>2022-02-16T01:22:58Z</time>
      </trkpt>
      <trkpt lat="46.44989" lon="4.36482">
        <ele>306</ele>
        <time>2022-02-16T01:23:02Z</time>
      </trkpt>
      <trkpt lat="46.45006" lon="4.36516">
        <ele>307</ele>
        <time>2022-02-16T01:23:07Z</time>
      </trkpt>
      <trkpt lat="46.4501" lon="4.36527">
        <ele>307</ele>
        <time>2022-02-16T01:23:09Z</time>
      </trkpt>
      <trkpt lat="46.45012" lon="4.36548">
        <ele>307</ele>
        <time>2022-02-16T01:23:11Z</time>
      </trkpt>
      <trkpt lat="46.45011" lon="4.36554">
        <ele>307</ele>
        <time>2022-02-16T01:23:12Z</time>
      </trkpt>
      <trkpt lat="46.45013" lon="4.36566">
        <ele>308</ele>
        <time>2022-02-16T01:23:14Z</time>
      </trkpt>
      <trkpt lat="46.45019" lon="4.36575">
        <ele>308</ele>
        <time>2022-02-16T01:23:15Z</time>
      </trkpt>
      <trkpt lat="46.45022" lon="4.36577">
        <ele>308</ele>
        <time>2022-02-16T01:23:16Z</time>
      </trkpt>
      <trkpt lat="46.4503" lon="4.36577">
        <ele>309</ele>
        <time>2022-02-16T01:23:17Z</time>
      </trkpt>
      <trkpt lat="46.45042" lon="4.3658">
        <ele>310</ele>
        <time>2022-02-16T01:23:19Z</time>
      </trkpt>
      <trkpt lat="46.45049" lon="4.36585">
        <ele>310</ele>
        <time>2022-02-16T01:23:21Z</time>
      </trkpt>
      <trkpt lat="46.45117" lon="4.36675">
        <ele>313</ele>
        <time>2022-02-16T01:23:37Z</time>
      </trkpt>
      <trkpt lat="46.45127" lon="4.36694">
        <ele>314</ele>
        <time>2022-02-16T01:23:40Z</time>
      </trkpt>
      <trkpt lat="46.45135" lon="4.36727">
        <ele>315</ele>
        <time>2022-02-16T01:23:44Z</time>
      </trkpt>
      <trkpt lat="46.45143" lon="4.36735">
        <ele>315</ele>
        <time>2022-02-16T01:23:46Z</time>
      </trkpt>
      <trkpt lat="46.45147" lon="4.36745">
        <ele>315</ele>
        <time>2022-02-16T01:23:48Z</time>
      </trkpt>
      <trkpt lat="46.45154" lon="4.36776">
        <ele>315</ele>
        <time>2022-02-16T01:23:52Z</time>
      </trkpt>
      <trkpt lat="46.45158" lon="4.36841">
        <ele>314</ele>
        <time>2022-02-16T01:24:00Z</time>
      </trkpt>
      <trkpt lat="46.45146" lon="4.36984">
        <ele>318</ele>
        <time>2022-02-16T01:24:17Z</time>
      </trkpt>
      <trkpt lat="46.45146" lon="4.37015">
        <ele>318</ele>
        <time>2022-02-16T01:24:21Z</time>
      </trkpt>
      <trkpt lat="46.45149" lon="4.37057">
        <ele>318</ele>
        <time>2022-02-16T01:24:26Z</time>
      </trkpt>
      <trkpt lat="46.4517" lon="4.37214">
        <ele>321</ele>
        <time>2022-02-16T01:24:46Z</time>
      </trkpt>
      <trkpt lat="46.45186" lon="4.37326">
        <ele>327</ele>
        <time>2022-02-16T01:25:00Z</time>
      </trkpt>
      <trkpt lat="46.45193" lon="4.37356">
        <ele>328</ele>
        <time>2022-02-16T01:25:04Z</time>
      </trkpt>
      <trkpt lat="46.45197" lon="4.37368">
        <ele>328</ele>
        <time>2022-02-16T01:25:05Z</time>
      </trkpt>
      <trkpt lat="46.45286" lon="4.37517">
        <ele>330</ele>
        <time>2022-02-16T01:25:30Z</time>
      </trkpt>
      <trkpt lat="46.45728" lon="4.38234">
        <ele>331</ele>
        <time>2022-02-16T01:27:27Z</time>
      </trkpt>
      <trkpt lat="46.4671" lon="4.39821">
        <ele>391</ele>
        <time>2022-02-16T01:31:49Z</time>
      </trkpt>
      <trkpt lat="46.47025" lon="4.40323">
        <ele>379</ele>
        <time>2022-02-16T01:33:12Z</time>
      </trkpt>
      <trkpt lat="46.47418" lon="4.41067">
        <ele>409</ele>
        <time>2022-02-16T01:35:07Z</time>
      </trkpt>
      <trkpt lat="46.4757" lon="4.41365">
        <ele>410</ele>
        <time>2022-02-16T01:35:52Z</time>
      </trkpt>
      <trkpt lat="46.47755" lon="4.41721">
        <ele>404</ele>
        <time>2022-02-16T01:36:47Z</time>
      </trkpt>
      <trkpt lat="46.47765" lon="4.41751">
        <ele>404</ele>
        <time>2022-02-16T01:36:51Z</time>
      </trkpt>
      <trkpt lat="46.47807" lon="4.41963">
        <ele>396</ele>
        <time>2022-02-16T01:37:18Z</time>
      </trkpt>
      <trkpt lat="46.48069" lon="4.43295">
        <ele>378</ele>
        <time>2022-02-16T01:40:08Z</time>
      </trkpt>
      <trkpt lat="46.4812" lon="4.43569">
        <ele>374</ele>
        <time>2022-02-16T01:40:43Z</time>
      </trkpt>
      <trkpt lat="46.48137" lon="4.43642">
        <ele>375</ele>
        <time>2022-02-16T01:40:52Z</time>
      </trkpt>
      <trkpt lat="46.48153" lon="4.43725">
        <ele>376</ele>
        <time>2022-02-16T01:41:03Z</time>
      </trkpt>
      <trkpt lat="46.48181" lon="4.43863">
        <ele>380</ele>
        <time>2022-02-16T01:41:20Z</time>
      </trkpt>
      <trkpt lat="46.48187" lon="4.4389">
        <ele>381</ele>
        <time>2022-02-16T01:41:24Z</time>
      </trkpt>
      <trkpt lat="46.48195" lon="4.43906">
        <ele>382</ele>
        <time>2022-02-16T01:41:26Z</time>
      </trkpt>
      <trkpt lat="46.48251" lon="4.43969">
        <ele>382</ele>
        <time>2022-02-16T01:41:39Z</time>
      </trkpt>
      <trkpt lat="46.48277" lon="4.43996">
        <ele>383</ele>
        <time>2022-02-16T01:41:45Z</time>
      </trkpt>
      <trkpt lat="46.48275" lon="4.44009">
        <ele>383</ele>
        <time>2022-02-16T01:41:46Z</time>
      </trkpt>
      <trkpt lat="46.48329" lon="4.44285">
        <ele>382</ele>
        <time>2022-02-16T01:42:21Z</time>
      </trkpt>
      <trkpt lat="46.48355" lon="4.44425">
        <ele>383</ele>
        <time>2022-02-16T01:42:39Z</time>
      </trkpt>
      <trkpt lat="46.48355" lon="4.44458">
        <ele>382</ele>
        <time>2022-02-16T01:42:43Z</time>
      </trkpt>
      <trkpt lat="46.48351" lon="4.44487">
        <ele>382</ele>
        <time>2022-02-16T01:42:47Z</time>
      </trkpt>
      <trkpt lat="46.48235" lon="4.45006">
        <ele>390</ele>
        <time>2022-02-16T01:43:54Z</time>
      </trkpt>
      <trkpt lat="46.48227" lon="4.45062">
        <ele>391</ele>
        <time>2022-02-16T01:44:01Z</time>
      </trkpt>
      <trkpt lat="46.48225" lon="4.45097">
        <ele>392</ele>
        <time>2022-02-16T01:44:05Z</time>
      </trkpt>
      <trkpt lat="46.48223" lon="4.45214">
        <ele>395</ele>
        <time>2022-02-16T01:44:19Z</time>
      </trkpt>
      <trkpt lat="46.48225" lon="4.45266">
        <ele>397</ele>
        <time>2022-02-16T01:44:26Z</time>
      </trkpt>
      <trkpt lat="46.4823" lon="4.45309">
        <ele>399</ele>
        <time>2022-02-16T01:44:31Z</time>
      </trkpt>
      <trkpt lat="46.48235" lon="4.45331">
        <ele>400</ele>
        <time>2022-02-16T01:44:34Z</time>
      </trkpt>
      <trkpt lat="46.48303" lon="4.45562">
        <ele>407</ele>
        <time>2022-02-16T01:45:05Z</time>
      </trkpt>
      <trkpt lat="46.48344" lon="4.45825">
        <ele>418</ele>
        <time>2022-02-16T01:45:38Z</time>
      </trkpt>
      <trkpt lat="46.4835" lon="4.45884">
        <ele>420</ele>
        <time>2022-02-16T01:45:45Z</time>
      </trkpt>
      <trkpt lat="46.48348" lon="4.45911">
        <ele>421</ele>
        <time>2022-02-16T01:45:48Z</time>
      </trkpt>
      <trkpt lat="46.48342" lon="4.45936">
        <ele>423</ele>
        <time>2022-02-16T01:45:52Z</time>
      </trkpt>
      <trkpt lat="46.48282" lon="4.46158">
        <ele>429</ele>
        <time>2022-02-16T01:46:21Z</time>
      </trkpt>
      <trkpt lat="46.48269" lon="4.46215">
        <ele>430</ele>
        <time>2022-02-16T01:46:28Z</time>
      </trkpt>
      <trkpt lat="46.48268" lon="4.46256">
        <ele>430</ele>
        <time>2022-02-16T01:46:33Z</time>
      </trkpt>
      <trkpt lat="46.48276" lon="4.46357">
        <ele>430</ele>
        <time>2022-02-16T01:46:46Z</time>
      </trkpt>
      <trkpt lat="46.48279" lon="4.46408">
        <ele>432</ele>
        <time>2022-02-16T01:46:52Z</time>
      </trkpt>
      <trkpt lat="46.48279" lon="4.46486">
        <ele>434</ele>
        <time>2022-02-16T01:47:01Z</time>
      </trkpt>
      <trkpt lat="46.48276" lon="4.46543">
        <ele>434</ele>
        <time>2022-02-16T01:47:08Z</time>
      </trkpt>
      <trkpt lat="46.48271" lon="4.46564">
        <ele>435</ele>
        <time>2022-02-16T01:47:11Z</time>
      </trkpt>
      <trkpt lat="46.48265" lon="4.46582">
        <ele>436</ele>
        <time>2022-02-16T01:47:14Z</time>
      </trkpt>
      <trkpt lat="46.48236" lon="4.46643">
        <ele>435</ele>
        <time>2022-02-16T01:47:23Z</time>
      </trkpt>
      <trkpt lat="46.48225" lon="4.46671">
        <ele>434</ele>
        <time>2022-02-16T01:47:27Z</time>
      </trkpt>
      <trkpt lat="46.48222" lon="4.46687">
        <ele>435</ele>
        <time>2022-02-16T01:47:29Z</time>
      </trkpt>
      <trkpt lat="46.48223" lon="4.46705">
        <ele>434</ele>
        <time>2022-02-16T01:47:31Z</time>
      </trkpt>
      <trkpt lat="46.48228" lon="4.46723">
        <ele>434</ele>
        <time>2022-02-16T01:47:33Z</time>
      </trkpt>
      <trkpt lat="46.48235" lon="4.46737">
        <ele>433</ele>
        <time>2022-02-16T01:47:35Z</time>
      </trkpt>
      <trkpt lat="46.48256" lon="4.46768">
        <ele>431</ele>
        <time>2022-02-16T01:47:41Z</time>
      </trkpt>
      <trkpt lat="46.4839" lon="4.46947">
        <ele>425</ele>
        <time>2022-02-16T01:48:13Z</time>
      </trkpt>
      <trkpt lat="46.48408" lon="4.46967">
        <ele>426</ele>
        <time>2022-02-16T01:48:17Z</time>
      </trkpt>
      <trkpt lat="46.48467" lon="4.47016">
        <ele>422</ele>
        <time>2022-02-16T01:48:29Z</time>
      </trkpt>
      <trkpt lat="46.48645" lon="4.47154">
        <ele>416</ele>
        <time>2022-02-16T01:49:05Z</time>
      </trkpt>
      <trkpt lat="46.48694" lon="4.47194">
        <ele>415</ele>
        <time>2022-02-16T01:49:15Z</time>
      </trkpt>
      <trkpt lat="46.48708" lon="4.47208">
        <ele>414</ele>
        <time>2022-02-16T01:49:18Z</time>
      </trkpt>
      <trkpt lat="46.48782" lon="4.47304">
        <ele>416</ele>
        <time>2022-02-16T01:49:36Z</time>
      </trkpt>
      <trkpt lat="46.48805" lon="4.4733">
        <ele>417</ele>
        <time>2022-02-16T01:49:41Z</time>
      </trkpt>
      <trkpt lat="46.48841" lon="4.47361">
        <ele>418</ele>
        <time>2022-02-16T01:49:48Z</time>
      </trkpt>
      <trkpt lat="46.48858" lon="4.47373">
        <ele>418</ele>
        <time>2022-02-16T01:49:52Z</time>
      </trkpt>
      <trkpt lat="46.48875" lon="4.47382">
        <ele>418</ele>
        <time>2022-02-16T01:49:55Z</time>
      </trkpt>
      <trkpt lat="46.48892" lon="4.47387">
        <ele>418</ele>
        <time>2022-02-16T01:49:58Z</time>
      </trkpt>
      <trkpt lat="46.49021" lon="4.47414">
        <ele>413</ele>
        <time>2022-02-16T01:50:21Z</time>
      </trkpt>
      <trkpt lat="46.49037" lon="4.47425">
        <ele>413</ele>
        <time>2022-02-16T01:50:24Z</time>
      </trkpt>
      <trkpt lat="46.49045" lon="4.47422">
        <ele>414</ele>
        <time>2022-02-16T01:50:26Z</time>
      </trkpt>
      <trkpt lat="46.49055" lon="4.47423">
        <ele>414</ele>
        <time>2022-02-16T01:50:28Z</time>
      </trkpt>
      <trkpt lat="46.49196" lon="4.47463">
        <ele>422</ele>
        <time>2022-02-16T01:50:53Z</time>
      </trkpt>
      <trkpt lat="46.49207" lon="4.4747">
        <ele>423</ele>
        <time>2022-02-16T01:50:55Z</time>
      </trkpt>
      <trkpt lat="46.49219" lon="4.47481">
        <ele>424</ele>
        <time>2022-02-16T01:50:58Z</time>
      </trkpt>
      <trkpt lat="46.49238" lon="4.47512">
        <ele>426</ele>
        <time>2022-02-16T01:51:03Z</time>
      </trkpt>
      <trkpt lat="46.49284" lon="4.47618">
        <ele>432</ele>
        <time>2022-02-16T01:51:18Z</time>
      </trkpt>
      <trkpt lat="46.49288" lon="4.47638">
        <ele>433</ele>
        <time>2022-02-16T01:51:21Z</time>
      </trkpt>
      <trkpt lat="46.49295" lon="4.477">
        <ele>436</ele>
        <time>2022-02-16T01:51:29Z</time>
      </trkpt>
      <trkpt lat="46.49343" lon="4.48319">
        <ele>439</ele>
        <time>2022-02-16T01:52:45Z</time>
      </trkpt>
      <trkpt lat="46.49344" lon="4.48357">
        <ele>438</ele>
        <time>2022-02-16T01:52:50Z</time>
      </trkpt>
      <trkpt lat="46.49344" lon="4.48386">
        <ele>438</ele>
        <time>2022-02-16T01:52:53Z</time>
      </trkpt>
      <trkpt lat="46.49339" lon="4.48436">
        <ele>437</ele>
        <time>2022-02-16T01:52:59Z</time>
      </trkpt>
      <trkpt lat="46.4934" lon="4.48455">
        <ele>438</ele>
        <time>2022-02-16T01:53:02Z</time>
      </trkpt>
      <trkpt lat="46.49343" lon="4.48476">
        <ele>438</ele>
        <time>2022-02-16T01:53:04Z</time>
      </trkpt>
      <trkpt lat="46.49357" lon="4.48541">
        <ele>438</ele>
        <time>2022-02-16T01:53:13Z</time>
      </trkpt>
      <trkpt lat="46.4937" lon="4.48587">
        <ele>436</ele>
        <time>2022-02-16T01:53:19Z</time>
      </trkpt>
      <trkpt lat="46.49413" lon="4.48696">
        <ele>429</ele>
        <time>2022-02-16T01:53:34Z</time>
      </trkpt>
      <trkpt lat="46.49417" lon="4.48708">
        <ele>429</ele>
        <time>2022-02-16T01:53:36Z</time>
      </trkpt>
      <trkpt lat="46.49419" lon="4.48722">
        <ele>428</ele>
        <time>2022-02-16T01:53:37Z</time>
      </trkpt>
      <trkpt lat="46.49419" lon="4.48737">
        <ele>428</ele>
        <time>2022-02-16T01:53:39Z</time>
      </trkpt>
      <trkpt lat="46.49415" lon="4.48752">
        <ele>427</ele>
        <time>2022-02-16T01:53:41Z</time>
      </trkpt>
      <trkpt lat="46.49372" lon="4.48905">
        <ele>418</ele>
        <time>2022-02-16T01:54:02Z</time>
      </trkpt>
      <trkpt lat="46.49366" lon="4.48937">
        <ele>416</ele>
        <time>2022-02-16T01:54:06Z</time>
      </trkpt>
      <trkpt lat="46.49357" lon="4.49043">
        <ele>410</ele>
        <time>2022-02-16T01:54:19Z</time>
      </trkpt>
      <trkpt lat="46.49352" lon="4.49089">
        <ele>408</ele>
        <time>2022-02-16T01:54:24Z</time>
      </trkpt>
      <trkpt lat="46.49343" lon="4.49133">
        <ele>406</ele>
        <time>2022-02-16T01:54:30Z</time>
      </trkpt>
      <trkpt lat="46.49331" lon="4.49168">
        <ele>405</ele>
        <time>2022-02-16T01:54:35Z</time>
      </trkpt>
      <trkpt lat="46.4925" lon="4.4937">
        <ele>398</ele>
        <time>2022-02-16T01:55:03Z</time>
      </trkpt>
      <trkpt lat="46.49237" lon="4.4941">
        <ele>395</ele>
        <time>2022-02-16T01:55:09Z</time>
      </trkpt>
      <trkpt lat="46.49229" lon="4.49453">
        <ele>394</ele>
        <time>2022-02-16T01:55:14Z</time>
      </trkpt>
      <trkpt lat="46.4919" lon="4.49707">
        <ele>386</ele>
        <time>2022-02-16T01:55:46Z</time>
      </trkpt>
      <trkpt lat="46.49187" lon="4.49737">
        <ele>384</ele>
        <time>2022-02-16T01:55:50Z</time>
      </trkpt>
      <trkpt lat="46.49192" lon="4.49797">
        <ele>382</ele>
        <time>2022-02-16T01:55:57Z</time>
      </trkpt>
      <trkpt lat="46.49197" lon="4.49841">
        <ele>382</ele>
        <time>2022-02-16T01:56:03Z</time>
      </trkpt>
      <trkpt lat="46.49197" lon="4.4987">
        <ele>382</ele>
        <time>2022-02-16T01:56:06Z</time>
      </trkpt>
      <trkpt lat="46.49193" lon="4.49887">
        <ele>382</ele>
        <time>2022-02-16T01:56:09Z</time>
      </trkpt>
      <trkpt lat="46.49062" lon="4.49996">
        <ele>371</ele>
        <time>2022-02-16T01:56:35Z</time>
      </trkpt>
      <trkpt lat="46.49048" lon="4.50015">
        <ele>370</ele>
        <time>2022-02-16T01:56:39Z</time>
      </trkpt>
      <trkpt lat="46.49006" lon="4.50102">
        <ele>369</ele>
        <time>2022-02-16T01:56:52Z</time>
      </trkpt>
      <trkpt lat="46.48941" lon="4.50211">
        <ele>360</ele>
        <time>2022-02-16T01:57:09Z</time>
      </trkpt>
      <trkpt lat="46.48929" lon="4.50239">
        <ele>359</ele>
        <time>2022-02-16T01:57:13Z</time>
      </trkpt>
      <trkpt lat="46.48915" lon="4.50274">
        <ele>357</ele>
        <time>2022-02-16T01:57:18Z</time>
      </trkpt>
      <trkpt lat="46.48864" lon="4.5043">
        <ele>353</ele>
        <time>2022-02-16T01:57:40Z</time>
      </trkpt>
      <trkpt lat="46.4886" lon="4.50445">
        <ele>352</ele>
        <time>2022-02-16T01:57:42Z</time>
      </trkpt>
      <trkpt lat="46.48858" lon="4.50468">
        <ele>352</ele>
        <time>2022-02-16T01:57:44Z</time>
      </trkpt>
      <trkpt lat="46.48858" lon="4.50494">
        <ele>351</ele>
        <time>2022-02-16T01:57:48Z</time>
      </trkpt>
      <trkpt lat="46.48863" lon="4.50531">
        <ele>349</ele>
        <time>2022-02-16T01:57:52Z</time>
      </trkpt>
      <trkpt lat="46.48871" lon="4.50561">
        <ele>348</ele>
        <time>2022-02-16T01:57:56Z</time>
      </trkpt>
      <trkpt lat="46.48879" lon="4.50581">
        <ele>347</ele>
        <time>2022-02-16T01:57:59Z</time>
      </trkpt>
      <trkpt lat="46.4889" lon="4.506">
        <ele>346</ele>
        <time>2022-02-16T01:58:02Z</time>
      </trkpt>
      <trkpt lat="46.48907" lon="4.50617">
        <ele>345</ele>
        <time>2022-02-16T01:58:06Z</time>
      </trkpt>
      <trkpt lat="46.48934" lon="4.50639">
        <ele>343</ele>
        <time>2022-02-16T01:58:11Z</time>
      </trkpt>
      <trkpt lat="46.48955" lon="4.50647">
        <ele>341</ele>
        <time>2022-02-16T01:58:15Z</time>
      </trkpt>
      <trkpt lat="46.48971" lon="4.5065">
        <ele>340</ele>
        <time>2022-02-16T01:58:18Z</time>
      </trkpt>
      <trkpt lat="46.48992" lon="4.50642">
        <ele>341</ele>
        <time>2022-02-16T01:58:22Z</time>
      </trkpt>
      <trkpt lat="46.4907" lon="4.50607">
        <ele>338</ele>
        <time>2022-02-16T01:58:36Z</time>
      </trkpt>
      <trkpt lat="46.49086" lon="4.50603">
        <ele>338</ele>
        <time>2022-02-16T01:58:39Z</time>
      </trkpt>
      <trkpt lat="46.49108" lon="4.50609">
        <ele>336</ele>
        <time>2022-02-16T01:58:43Z</time>
      </trkpt>
      <trkpt lat="46.4912" lon="4.50619">
        <ele>335</ele>
        <time>2022-02-16T01:58:46Z</time>
      </trkpt>
      <trkpt lat="46.49148" lon="4.50654">
        <ele>332</ele>
        <time>2022-02-16T01:58:52Z</time>
      </trkpt>
      <trkpt lat="46.4916" lon="4.50674">
        <ele>330</ele>
        <time>2022-02-16T01:58:56Z</time>
      </trkpt>
      <trkpt lat="46.49176" lon="4.50717">
        <ele>326</ele>
        <time>2022-02-16T01:59:01Z</time>
      </trkpt>
      <trkpt lat="46.49192" lon="4.50784">
        <ele>321</ele>
        <time>2022-02-16T01:59:10Z</time>
      </trkpt>
      <trkpt lat="46.49252" lon="4.5114">
        <ele>305</ele>
        <time>2022-02-16T01:59:55Z</time>
      </trkpt>
      <trkpt lat="46.49256" lon="4.51171">
        <ele>303</ele>
        <time>2022-02-16T01:59:59Z</time>
      </trkpt>
      <trkpt lat="46.49257" lon="4.51201">
        <ele>302</ele>
        <time>2022-02-16T02:00:03Z</time>
      </trkpt>
      <trkpt lat="46.49255" lon="4.51227">
        <ele>300</ele>
        <time>2022-02-16T02:00:06Z</time>
      </trkpt>
      <trkpt lat="46.49238" lon="4.51341">
        <ele>295</ele>
        <time>2022-02-16T02:00:20Z</time>
      </trkpt>
      <trkpt lat="46.49237" lon="4.51363">
        <ele>294</ele>
        <time>2022-02-16T02:00:23Z</time>
      </trkpt>
      <trkpt lat="46.49237" lon="4.51387">
        <ele>293</ele>
        <time>2022-02-16T02:00:26Z</time>
      </trkpt>
      <trkpt lat="46.49246" lon="4.51474">
        <ele>290</ele>
        <time>2022-02-16T02:00:37Z</time>
      </trkpt>
      <trkpt lat="46.49246" lon="4.51516">
        <ele>289</ele>
        <time>2022-02-16T02:00:42Z</time>
      </trkpt>
      <trkpt lat="46.49244" lon="4.51538">
        <ele>288</ele>
        <time>2022-02-16T02:00:44Z</time>
      </trkpt>
      <trkpt lat="46.4923" lon="4.51633">
        <ele>283</ele>
        <time>2022-02-16T02:00:56Z</time>
      </trkpt>
      <trkpt lat="46.49223" lon="4.51691">
        <ele>281</ele>
        <time>2022-02-16T02:01:04Z</time>
      </trkpt>
      <trkpt lat="46.49216" lon="4.51808">
        <ele>274</ele>
        <time>2022-02-16T02:01:18Z</time>
      </trkpt>
      <trkpt lat="46.49212" lon="4.51846">
        <ele>272</ele>
        <time>2022-02-16T02:01:23Z</time>
      </trkpt>
      <trkpt lat="46.49206" lon="4.51886">
        <ele>270</ele>
        <time>2022-02-16T02:01:28Z</time>
      </trkpt>
      <trkpt lat="46.49185" lon="4.51995">
        <ele>266</ele>
        <time>2022-02-16T02:01:41Z</time>
      </trkpt>
      <trkpt lat="46.49142" lon="4.52138">
        <ele>260</ele>
        <time>2022-02-16T02:02:01Z</time>
      </trkpt>
      <trkpt lat="46.49137" lon="4.52167">
        <ele>259</ele>
        <time>2022-02-16T02:02:04Z</time>
      </trkpt>
      <trkpt lat="46.49134" lon="4.52207">
        <ele>256</ele>
        <time>2022-02-16T02:02:09Z</time>
      </trkpt>
      <trkpt lat="46.49134" lon="4.52255">
        <ele>253</ele>
        <time>2022-02-16T02:02:15Z</time>
      </trkpt>
      <trkpt lat="46.49141" lon="4.52325">
        <ele>249</ele>
        <time>2022-02-16T02:02:24Z</time>
      </trkpt>
      <trkpt lat="46.49147" lon="4.52355">
        <ele>248</ele>
        <time>2022-02-16T02:02:28Z</time>
      </trkpt>
      <trkpt lat="46.49172" lon="4.52405">
        <ele>247</ele>
        <time>2022-02-16T02:02:35Z</time>
      </trkpt>
      <trkpt lat="46.49214" lon="4.52472">
        <ele>248</ele>
        <time>2022-02-16T02:02:46Z</time>
      </trkpt>
      <trkpt lat="46.4923" lon="4.52496">
        <ele>249</ele>
        <time>2022-02-16T02:02:50Z</time>
      </trkpt>
      <trkpt lat="46.49246" lon="4.52515">
        <ele>249</ele>
        <time>2022-02-16T02:02:54Z</time>
      </trkpt>
      <trkpt lat="46.49333" lon="4.52611">
        <ele>251</ele>
        <time>2022-02-16T02:03:13Z</time>
      </trkpt>
      <trkpt lat="46.49353" lon="4.52642">
        <ele>251</ele>
        <time>2022-02-16T02:03:19Z</time>
      </trkpt>
      <trkpt lat="46.49419" lon="4.52816">
        <ele>255</ele>
        <time>2022-02-16T02:03:43Z</time>
      </trkpt>
      <trkpt lat="46.49429" lon="4.52848">
        <ele>255</ele>
        <time>2022-02-16T02:03:47Z</time>
      </trkpt>
      <trkpt lat="46.49431" lon="4.52876">
        <ele>255</ele>
        <time>2022-02-16T02:03:51Z</time>
      </trkpt>
      <trkpt lat="46.49425" lon="4.52904">
        <ele>254</ele>
        <time>2022-02-16T02:03:54Z</time>
      </trkpt>
      <trkpt lat="46.49418" lon="4.5296">
        <ele>253</ele>
        <time>2022-02-16T02:04:01Z</time>
      </trkpt>
      <trkpt lat="46.49419" lon="4.53001">
        <ele>253</ele>
        <time>2022-02-16T02:04:06Z</time>
      </trkpt>
      <trkpt lat="46.49432" lon="4.53082">
        <ele>253</ele>
        <time>2022-02-16T02:04:17Z</time>
      </trkpt>
      <trkpt lat="46.49435" lon="4.53143">
        <ele>250</ele>
        <time>2022-02-16T02:04:24Z</time>
      </trkpt>
      <trkpt lat="46.49447" lon="4.53557">
        <ele>249</ele>
        <time>2022-02-16T02:05:15Z</time>
      </trkpt>
      <trkpt lat="46.49447" lon="4.53586">
        <ele>249</ele>
        <time>2022-02-16T02:05:18Z</time>
      </trkpt>
      <trkpt lat="46.49444" lon="4.53622">
        <ele>250</ele>
        <time>2022-02-16T02:05:23Z</time>
      </trkpt>
      <trkpt lat="46.49416" lon="4.53864">
        <ele>251</ele>
        <time>2022-02-16T02:05:53Z</time>
      </trkpt>
      <trkpt lat="46.49401" lon="4.53988">
        <ele>252</ele>
        <time>2022-02-16T02:06:08Z</time>
      </trkpt>
      <trkpt lat="46.49392" lon="4.54037">
        <ele>251</ele>
        <time>2022-02-16T02:06:14Z</time>
      </trkpt>
      <trkpt lat="46.49386" lon="4.54061">
        <ele>251</ele>
        <time>2022-02-16T02:06:18Z</time>
      </trkpt>
      <trkpt lat="46.49377" lon="4.54086">
        <ele>250</ele>
        <time>2022-02-16T02:06:21Z</time>
      </trkpt>
      <trkpt lat="46.49361" lon="4.5412">
        <ele>250</ele>
        <time>2022-02-16T02:06:26Z</time>
      </trkpt>
      <trkpt lat="46.49313" lon="4.54207">
        <ele>250</ele>
        <time>2022-02-16T02:06:40Z</time>
      </trkpt>
      <trkpt lat="46.49299" lon="4.54227">
        <ele>251</ele>
        <time>2022-02-16T02:06:43Z</time>
      </trkpt>
      <trkpt lat="46.49188" lon="4.54351">
        <ele>250</ele>
        <time>2022-02-16T02:07:08Z</time>
      </trkpt>
      <trkpt lat="46.49172" lon="4.54372">
        <ele>250</ele>
        <time>2022-02-16T02:07:12Z</time>
      </trkpt>
      <trkpt lat="46.49068" lon="4.54552">
        <ele>243</ele>
        <time>2022-02-16T02:07:41Z</time>
      </trkpt>
      <trkpt lat="46.49042" lon="4.54599">
        <ele>240</ele>
        <time>2022-02-16T02:07:48Z</time>
      </trkpt>
      <trkpt lat="46.49032" lon="4.54621">
        <ele>239</ele>
        <time>2022-02-16T02:07:51Z</time>
      </trkpt>
      <trkpt lat="46.49023" lon="4.54648">
        <ele>238</ele>
        <time>2022-02-16T02:07:55Z</time>
      </trkpt>
      <trkpt lat="46.49018" lon="4.54673">
        <ele>237</ele>
        <time>2022-02-16T02:07:58Z</time>
      </trkpt>
      <trkpt lat="46.49015" lon="4.54694">
        <ele>236</ele>
        <time>2022-02-16T02:08:01Z</time>
      </trkpt>
      <trkpt lat="46.49015" lon="4.5473">
        <ele>236</ele>
        <time>2022-02-16T02:08:05Z</time>
      </trkpt>
      <trkpt lat="46.49083" lon="4.5615">
        <ele>231</ele>
        <time>2022-02-16T02:11:00Z</time>
      </trkpt>
      <trkpt lat="46.49093" lon="4.56427">
        <ele>228</ele>
        <time>2022-02-16T02:11:34Z</time>
      </trkpt>
      <trkpt lat="46.49089" lon="4.56497">
        <ele>226</ele>
        <time>2022-02-16T02:11:42Z</time>
      </trkpt>
      <trkpt lat="46.49088" lon="4.56549">
        <ele>226</ele>
        <time>2022-02-16T02:11:49Z</time>
      </trkpt>
      <trkpt lat="46.4909" lon="4.56584">
        <ele>227</ele>
        <time>2022-02-16T02:11:53Z</time>
      </trkpt>
      <trkpt lat="46.49101" lon="4.56628">
        <ele>227</ele>
        <time>2022-02-16T02:11:59Z</time>
      </trkpt>
      <trkpt lat="46.49122" lon="4.56698">
        <ele>228</ele>
        <time>2022-02-16T02:12:08Z</time>
      </trkpt>
      <trkpt lat="46.4925" lon="4.57203">
        <ele>226</ele>
        <time>2022-02-16T02:13:14Z</time>
      </trkpt>
      <trkpt lat="46.49275" lon="4.57287">
        <ele>225</ele>
        <time>2022-02-16T02:13:25Z</time>
      </trkpt>
      <trkpt lat="46.4929" lon="4.57325">
        <ele>226</ele>
        <time>2022-02-16T02:13:30Z</time>
      </trkpt>
      <trkpt lat="46.49308" lon="4.57358">
        <ele>226</ele>
        <time>2022-02-16T02:13:36Z</time>
      </trkpt>
      <trkpt lat="46.49498" lon="4.57664">
        <ele>223</ele>
        <time>2022-02-16T02:14:26Z</time>
      </trkpt>
      <trkpt lat="46.49573" lon="4.57822">
        <ele>220</ele>
        <time>2022-02-16T02:14:50Z</time>
      </trkpt>
      <trkpt lat="46.49585" lon="4.57834">
        <ele>220</ele>
        <time>2022-02-16T02:14:52Z</time>
      </trkpt>
      <trkpt lat="46.49598" lon="4.57844">
        <ele>220</ele>
        <time>2022-02-16T02:14:55Z</time>
      </trkpt>
      <trkpt lat="46.49671" lon="4.57877">
        <ele>220</ele>
        <time>2022-02-16T02:15:08Z</time>
      </trkpt>
      <trkpt lat="46.49743" lon="4.57942">
        <ele>221</ele>
        <time>2022-02-16T02:15:24Z</time>
      </trkpt>
      <trkpt lat="46.49802" lon="4.58002">
        <ele>221</ele>
        <time>2022-02-16T02:15:36Z</time>
      </trkpt>
      <trkpt lat="46.49829" lon="4.58032">
        <ele>221</ele>
        <time>2022-02-16T02:15:42Z</time>
      </trkpt>
      <trkpt lat="46.50106" lon="4.58367">
        <ele>226</ele>
        <time>2022-02-16T02:16:47Z</time>
      </trkpt>
      <trkpt lat="46.50135" lon="4.58404">
        <ele>225</ele>
        <time>2022-02-16T02:16:53Z</time>
      </trkpt>
      <trkpt lat="46.50218" lon="4.58548">
        <ele>221</ele>
        <time>2022-02-16T02:17:16Z</time>
      </trkpt>
      <trkpt lat="46.50232" lon="4.58568">
        <ele>221</ele>
        <time>2022-02-16T02:17:20Z</time>
      </trkpt>
      <trkpt lat="46.50248" lon="4.58584">
        <ele>221</ele>
        <time>2022-02-16T02:17:23Z</time>
      </trkpt>
      <trkpt lat="46.50555" lon="4.5877">
        <ele>222</ele>
        <time>2022-02-16T02:18:23Z</time>
      </trkpt>
      <trkpt lat="46.50597" lon="4.58799">
        <ele>221</ele>
        <time>2022-02-16T02:18:31Z</time>
      </trkpt>
      <trkpt lat="46.50801" lon="4.59008">
        <ele>217</ele>
        <time>2022-02-16T02:19:15Z</time>
      </trkpt>
      <trkpt lat="46.5095" lon="4.59149">
        <ele>216</ele>
        <time>2022-02-16T02:19:47Z</time>
      </trkpt>
      <trkpt lat="46.5098" lon="4.5917">
        <ele>216</ele>
        <time>2022-02-16T02:19:53Z</time>
      </trkpt>
      <trkpt lat="46.51188" lon="4.59259">
        <ele>213</ele>
        <time>2022-02-16T02:20:31Z</time>
      </trkpt>
      <trkpt lat="46.5122" lon="4.59277">
        <ele>213</ele>
        <time>2022-02-16T02:20:37Z</time>
      </trkpt>
      <trkpt lat="46.51317" lon="4.59344">
        <ele>209</ele>
        <time>2022-02-16T02:20:57Z</time>
      </trkpt>
      <trkpt lat="46.51512" lon="4.59483">
        <ele>212</ele>
        <time>2022-02-16T02:21:35Z</time>
      </trkpt>
      <trkpt lat="46.51538" lon="4.59508">
        <ele>212</ele>
        <time>2022-02-16T02:21:41Z</time>
      </trkpt>
      <trkpt lat="46.516" lon="4.59583">
        <ele>211</ele>
        <time>2022-02-16T02:21:55Z</time>
      </trkpt>
      <trkpt lat="46.51636" lon="4.59614">
        <ele>212</ele>
        <time>2022-02-16T02:22:03Z</time>
      </trkpt>
      <trkpt lat="46.5177" lon="4.5971">
        <ele>212</ele>
        <time>2022-02-16T02:22:29Z</time>
      </trkpt>
      <trkpt lat="46.51795" lon="4.5972">
        <ele>212</ele>
        <time>2022-02-16T02:22:34Z</time>
      </trkpt>
      <trkpt lat="46.51948" lon="4.5975">
        <ele>212</ele>
        <time>2022-02-16T02:23:01Z</time>
      </trkpt>
      <trkpt lat="46.51968" lon="4.59746">
        <ele>212</ele>
        <time>2022-02-16T02:23:05Z</time>
      </trkpt>
      <trkpt lat="46.52039" lon="4.59766">
        <ele>212</ele>
        <time>2022-02-16T02:23:18Z</time>
      </trkpt>
      <trkpt lat="46.52135" lon="4.59786">
        <ele>212</ele>
        <time>2022-02-16T02:23:35Z</time>
      </trkpt>
      <trkpt lat="46.52151" lon="4.59794">
        <ele>212</ele>
        <time>2022-02-16T02:23:38Z</time>
      </trkpt>
      <trkpt lat="46.52163" lon="4.59806">
        <ele>212</ele>
        <time>2022-02-16T02:23:41Z</time>
      </trkpt>
      <trkpt lat="46.52178" lon="4.59836">
        <ele>211</ele>
        <time>2022-02-16T02:23:45Z</time>
      </trkpt>
      <trkpt lat="46.52185" lon="4.59856">
        <ele>211</ele>
        <time>2022-02-16T02:23:48Z</time>
      </trkpt>
      <trkpt lat="46.52189" lon="4.59874">
        <ele>210</ele>
        <time>2022-02-16T02:23:50Z</time>
      </trkpt>
      <trkpt lat="46.52196" lon="4.59897">
        <ele>210</ele>
        <time>2022-02-16T02:23:53Z</time>
      </trkpt>
      <trkpt lat="46.52311" lon="4.60287">
        <ele>216</ele>
        <time>2022-02-16T02:24:45Z</time>
      </trkpt>
      <trkpt lat="46.52409" lon="4.60465">
        <ele>217</ele>
        <time>2022-02-16T02:25:13Z</time>
      </trkpt>
      <trkpt lat="46.52458" lon="4.60539">
        <ele>215</ele>
        <time>2022-02-16T02:25:26Z</time>
      </trkpt>
      <trkpt lat="46.52471" lon="4.60568">
        <ele>214</ele>
        <time>2022-02-16T02:25:30Z</time>
      </trkpt>
      <trkpt lat="46.52482" lon="4.60607">
        <ele>213</ele>
        <time>2022-02-16T02:25:35Z</time>
      </trkpt>
      <trkpt lat="46.52566" lon="4.60919">
        <ele>208</ele>
        <time>2022-02-16T02:26:16Z</time>
      </trkpt>
      <trkpt lat="46.52632" lon="4.61093">
        <ele>205</ele>
        <time>2022-02-16T02:26:40Z</time>
      </trkpt>
      <trkpt lat="46.52643" lon="4.61129">
        <ele>205</ele>
        <time>2022-02-16T02:26:45Z</time>
      </trkpt>
      <trkpt lat="46.52651" lon="4.61177">
        <ele>205</ele>
        <time>2022-02-16T02:26:51Z</time>
      </trkpt>
      <trkpt lat="46.52655" lon="4.61226">
        <ele>206</ele>
        <time>2022-02-16T02:26:57Z</time>
      </trkpt>
      <trkpt lat="46.52655" lon="4.6134">
        <ele>206</ele>
        <time>2022-02-16T02:27:11Z</time>
      </trkpt>
      <trkpt lat="46.52659" lon="4.61381">
        <ele>206</ele>
        <time>2022-02-16T02:27:16Z</time>
      </trkpt>
      <trkpt lat="46.5267" lon="4.61423">
        <ele>205</ele>
        <time>2022-02-16T02:27:22Z</time>
      </trkpt>
      <trkpt lat="46.52684" lon="4.6147">
        <ele>205</ele>
        <time>2022-02-16T02:27:28Z</time>
      </trkpt>
      <trkpt lat="46.52751" lon="4.61635">
        <ele>207</ele>
        <time>2022-02-16T02:27:52Z</time>
      </trkpt>
      <trkpt lat="46.52758" lon="4.61665">
        <ele>207</ele>
        <time>2022-02-16T02:27:55Z</time>
      </trkpt>
      <trkpt lat="46.52782" lon="4.61742">
        <ele>205</ele>
        <time>2022-02-16T02:28:06Z</time>
      </trkpt>
      <trkpt lat="46.52804" lon="4.61823">
        <ele>208</ele>
        <time>2022-02-16T02:28:16Z</time>
      </trkpt>
      <trkpt lat="46.52822" lon="4.61878">
        <ele>212</ele>
        <time>2022-02-16T02:28:24Z</time>
      </trkpt>
      <trkpt lat="46.52842" lon="4.61919">
        <ele>213</ele>
        <time>2022-02-16T02:28:30Z</time>
      </trkpt>
      <trkpt lat="46.5293" lon="4.62061">
        <ele>211</ele>
        <time>2022-02-16T02:28:53Z</time>
      </trkpt>
      <trkpt lat="46.53063" lon="4.62221">
        <ele>210</ele>
        <time>2022-02-16T02:29:24Z</time>
      </trkpt>
      <trkpt lat="46.531" lon="4.62276">
        <ele>211</ele>
        <time>2022-02-16T02:29:34Z</time>
      </trkpt>
      <trkpt lat="46.53297" lon="4.62648">
        <ele>215</ele>
        <time>2022-02-16T02:30:31Z</time>
      </trkpt>
      <trkpt lat="46.5331" lon="4.62666">
        <ele>215</ele>
        <time>2022-02-16T02:30:34Z</time>
      </trkpt>
      <trkpt lat="46.53345" lon="4.62725">
        <ele>217</ele>
        <time>2022-02-16T02:30:44Z</time>
      </trkpt>
      <trkpt lat="46.5337" lon="4.62764">
        <ele>220</ele>
        <time>2022-02-16T02:30:50Z</time>
      </trkpt>
      <trkpt lat="46.53395" lon="4.62798">
        <ele>223</ele>
        <time>2022-02-16T02:30:56Z</time>
      </trkpt>
      <trkpt lat="46.53421" lon="4.62829">
        <ele>225</ele>
        <time>2022-02-16T02:31:02Z</time>
      </trkpt>
      <trkpt lat="46.53453" lon="4.62858">
        <ele>225</ele>
        <time>2022-02-16T02:31:09Z</time>
      </trkpt>
      <trkpt lat="46.5349" lon="4.62889">
        <ele>226</ele>
        <time>2022-02-16T02:31:17Z</time>
      </trkpt>
      <trkpt lat="46.535" lon="4.62904">
        <ele>227</ele>
        <time>2022-02-16T02:31:19Z</time>
      </trkpt>
      <trkpt lat="46.53511" lon="4.62925">
        <ele>227</ele>
        <time>2022-02-16T02:31:22Z</time>
      </trkpt>
      <trkpt lat="46.53525" lon="4.62972">
        <ele>228</ele>
        <time>2022-02-16T02:31:29Z</time>
      </trkpt>
      <trkpt lat="46.53534" lon="4.63012">
        <ele>229</ele>
        <time>2022-02-16T02:31:34Z</time>
      </trkpt>
      <trkpt lat="46.53555" lon="4.63084">
        <ele>227</ele>
        <time>2022-02-16T02:31:43Z</time>
      </trkpt>
      <trkpt lat="46.53559" lon="4.63123">
        <ele>227</ele>
        <time>2022-02-16T02:31:48Z</time>
      </trkpt>
      <trkpt lat="46.53561" lon="4.63165">
        <ele>227</ele>
        <time>2022-02-16T02:31:53Z</time>
      </trkpt>
      <trkpt lat="46.53559" lon="4.63316">
        <ele>224</ele>
        <time>2022-02-16T02:32:12Z</time>
      </trkpt>
      <trkpt lat="46.53567" lon="4.63431">
        <ele>221</ele>
        <time>2022-02-16T02:32:26Z</time>
      </trkpt>
      <trkpt lat="46.53576" lon="4.635">
        <ele>220</ele>
        <time>2022-02-16T02:32:35Z</time>
      </trkpt>
      <trkpt lat="46.53593" lon="4.63599">
        <ele>221</ele>
        <time>2022-02-16T02:32:47Z</time>
      </trkpt>
      <trkpt lat="46.53596" lon="4.63629">
        <ele>223</ele>
        <time>2022-02-16T02:32:51Z</time>
      </trkpt>
      <trkpt lat="46.53599" lon="4.63681">
        <ele>224</ele>
        <time>2022-02-16T02:32:57Z</time>
      </trkpt>
      <trkpt lat="46.53603" lon="4.63715">
        <ele>225</ele>
        <time>2022-02-16T02:33:01Z</time>
      </trkpt>
      <trkpt lat="46.53607" lon="4.6373">
        <ele>225</ele>
        <time>2022-02-16T02:33:03Z</time>
      </trkpt>
      <trkpt lat="46.53612" lon="4.6374">
        <ele>225</ele>
        <time>2022-02-16T02:33:05Z</time>
      </trkpt>
      <trkpt lat="46.53621" lon="4.63754">
        <ele>224</ele>
        <time>2022-02-16T02:33:07Z</time>
      </trkpt>
      <trkpt lat="46.5364" lon="4.63768">
        <ele>223</ele>
        <time>2022-02-16T02:33:11Z</time>
      </trkpt>
      <trkpt lat="46.53674" lon="4.63797">
        <ele>222</ele>
        <time>2022-02-16T02:33:18Z</time>
      </trkpt>
      <trkpt lat="46.53748" lon="4.63878">
        <ele>217</ele>
        <time>2022-02-16T02:33:35Z</time>
      </trkpt>
      <trkpt lat="46.53781" lon="4.63897">
        <ele>215</ele>
        <time>2022-02-16T02:33:41Z</time>
      </trkpt>
      <trkpt lat="46.53811" lon="4.63919">
        <ele>213</ele>
        <time>2022-02-16T02:33:47Z</time>
      </trkpt>
      <trkpt lat="46.53811" lon="4.63937">
        <ele>212</ele>
        <time>2022-02-16T02:33:49Z</time>
      </trkpt>
      <trkpt lat="46.53829" lon="4.64076">
        <ele>205</ele>
        <time>2022-02-16T02:34:06Z</time>
      </trkpt>
      <trkpt lat="46.53833" lon="4.64096">
        <ele>205</ele>
        <time>2022-02-16T02:34:09Z</time>
      </trkpt>
      <trkpt lat="46.53842" lon="4.64116">
        <ele>204</ele>
        <time>2022-02-16T02:34:12Z</time>
      </trkpt>
      <trkpt lat="46.53868" lon="4.64149">
        <ele>203</ele>
        <time>2022-02-16T02:34:18Z</time>
      </trkpt>
      <trkpt lat="46.53829" lon="4.64227">
        <ele>204</ele>
        <time>2022-02-16T02:34:30Z</time>
      </trkpt>
      <trkpt lat="46.53793" lon="4.64298">
        <ele>204</ele>
        <time>2022-02-16T02:34:41Z</time>
      </trkpt>
      <trkpt lat="46.53763" lon="4.64352">
        <ele>205</ele>
        <time>2022-02-16T02:34:49Z</time>
      </trkpt>
      <trkpt lat="46.53751" lon="4.64369">
        <ele>206</ele>
        <time>2022-02-16T02:34:52Z</time>
      </trkpt>
      <trkpt lat="46.53726" lon="4.64393">
        <ele>205</ele>
        <time>2022-02-16T02:34:57Z</time>
      </trkpt>
      <trkpt lat="46.5366" lon="4.64435">
        <ele>206</ele>
        <time>2022-02-16T02:35:10Z</time>
      </trkpt>
      <trkpt lat="46.53639" lon="4.64452">
        <ele>206</ele>
        <time>2022-02-16T02:35:15Z</time>
      </trkpt>
      <trkpt lat="46.53616" lon="4.64479">
        <ele>207</ele>
        <time>2022-02-16T02:35:20Z</time>
      </trkpt>
      <trkpt lat="46.53606" lon="4.64496">
        <ele>207</ele>
        <time>2022-02-16T02:35:22Z</time>
      </trkpt>
      <trkpt lat="46.53593" lon="4.64525">
        <ele>208</ele>
        <time>2022-02-16T02:35:27Z</time>
      </trkpt>
      <trkpt lat="46.53559" lon="4.64624">
        <ele>209</ele>
        <time>2022-02-16T02:35:40Z</time>
      </trkpt>
      <trkpt lat="46.53517" lon="4.64721">
        <ele>208</ele>
        <time>2022-02-16T02:35:54Z</time>
      </trkpt>
      <trkpt lat="46.5351" lon="4.64744">
        <ele>208</ele>
        <time>2022-02-16T02:35:57Z</time>
      </trkpt>
      <trkpt lat="46.53449" lon="4.65188">
        <ele>207</ele>
        <time>2022-02-16T02:36:53Z</time>
      </trkpt>
      <trkpt lat="46.5342" lon="4.65435">
        <ele>208</ele>
        <time>2022-02-16T02:37:23Z</time>
      </trkpt>
      <trkpt lat="46.53429" lon="4.65494">
        <ele>209</ele>
        <time>2022-02-16T02:37:31Z</time>
      </trkpt>
      <trkpt lat="46.5359" lon="4.66207">
        <ele>205</ele>
        <time>2022-02-16T02:39:03Z</time>
      </trkpt>
      <trkpt lat="46.53697" lon="4.6669">
        <ele>214</ele>
        <time>2022-02-16T02:40:05Z</time>
      </trkpt>
      <trkpt lat="46.53732" lon="4.66862">
        <ele>216</ele>
        <time>2022-02-16T02:40:27Z</time>
      </trkpt>
      <trkpt lat="46.53765" lon="4.67074">
        <ele>212</ele>
        <time>2022-02-16T02:40:53Z</time>
      </trkpt>
      <trkpt lat="46.53771" lon="4.67122">
        <ele>211</ele>
        <time>2022-02-16T02:40:59Z</time>
      </trkpt>
      <trkpt lat="46.53773" lon="4.67319">
        <ele>206</ele>
        <time>2022-02-16T02:41:23Z</time>
      </trkpt>
      <trkpt lat="46.53772" lon="4.67473">
        <ele>206</ele>
        <time>2022-02-16T02:41:42Z</time>
      </trkpt>
      <trkpt lat="46.53769" lon="4.67575">
        <ele>211</ele>
        <time>2022-02-16T02:41:55Z</time>
      </trkpt>
      <trkpt lat="46.53763" lon="4.67673">
        <ele>210</ele>
        <time>2022-02-16T02:42:07Z</time>
      </trkpt>
      <trkpt lat="46.53752" lon="4.67725">
        <ele>208</ele>
        <time>2022-02-16T02:42:14Z</time>
      </trkpt>
      <trkpt lat="46.53714" lon="4.67827">
        <ele>208</ele>
        <time>2022-02-16T02:42:28Z</time>
      </trkpt>
      <trkpt lat="46.53692" lon="4.67892">
        <ele>208</ele>
        <time>2022-02-16T02:42:37Z</time>
      </trkpt>
      <trkpt lat="46.53627" lon="4.68119">
        <ele>208</ele>
        <time>2022-02-16T02:43:07Z</time>
      </trkpt>
      <trkpt lat="46.53609" lon="4.6819">
        <ele>209</ele>
        <time>2022-02-16T02:43:16Z</time>
      </trkpt>
      <trkpt lat="46.53602" lon="4.68211">
        <ele>209</ele>
        <time>2022-02-16T02:43:19Z</time>
      </trkpt>
      <trkpt lat="46.5358" lon="4.68257">
        <ele>210</ele>
        <time>2022-02-16T02:43:26Z</time>
      </trkpt>
      <trkpt lat="46.53571" lon="4.68305">
        <ele>210</ele>
        <time>2022-02-16T02:43:32Z</time>
      </trkpt>
      <trkpt lat="46.53561" lon="4.68341">
        <ele>210</ele>
        <time>2022-02-16T02:43:36Z</time>
      </trkpt>
      <trkpt lat="46.53553" lon="4.68391">
        <ele>208</ele>
        <time>2022-02-16T02:43:43Z</time>
      </trkpt>
      <trkpt lat="46.53565" lon="4.684">
        <ele>207</ele>
        <time>2022-02-16T02:43:45Z</time>
      </trkpt>
      <trkpt lat="46.53575" lon="4.68417">
        <ele>205</ele>
        <time>2022-02-16T02:43:48Z</time>
      </trkpt>
      <trkpt lat="46.53608" lon="4.68498">
        <ele>204</ele>
        <time>2022-02-16T02:43:59Z</time>
      </trkpt>
      <trkpt lat="46.53615" lon="4.68515">
        <ele>204</ele>
        <time>2022-02-16T02:44:02Z</time>
      </trkpt>
      <trkpt lat="46.53633" lon="4.68559">
        <ele>204</ele>
        <time>2022-02-16T02:44:08Z</time>
      </trkpt>
      <trkpt lat="46.53646" lon="4.68589">
        <ele>204</ele>
        <time>2022-02-16T02:44:12Z</time>
      </trkpt>
      <trkpt lat="46.5366" lon="4.6861">
        <ele>206</ele>
        <time>2022-02-16T02:44:16Z</time>
      </trkpt>
      <trkpt lat="46.53707" lon="4.68659">
        <ele>209</ele>
        <time>2022-02-16T02:44:26Z</time>
      </trkpt>
      <trkpt lat="46.5373" lon="4.68671">
        <ele>210</ele>
        <time>2022-02-16T02:44:31Z</time>
      </trkpt>
      <trkpt lat="46.53775" lon="4.68684">
        <ele>213</ele>
        <time>2022-02-16T02:44:39Z</time>
      </trkpt>
      <trkpt lat="46.538" lon="4.68685">
        <ele>214</ele>
        <time>2022-02-16T02:44:43Z</time>
      </trkpt>
      <trkpt lat="46.53832" lon="4.6868">
        <ele>215</ele>
        <time>2022-02-16T02:44:49Z</time>
      </trkpt>
      <trkpt lat="46.53886" lon="4.68663">
        <ele>214</ele>
        <time>2022-02-16T02:44:59Z</time>
      </trkpt>
      <trkpt lat="46.53918" lon="4.6865">
        <ele>213</ele>
        <time>2022-02-16T02:45:05Z</time>
      </trkpt>
      <trkpt lat="46.53943" lon="4.68648">
        <ele>213</ele>
        <time>2022-02-16T02:45:09Z</time>
      </trkpt>
      <trkpt lat="46.53971" lon="4.68651">
        <ele>213</ele>
        <time>2022-02-16T02:45:14Z</time>
      </trkpt>
      <trkpt lat="46.54056" lon="4.68674">
        <ele>212</ele>
        <time>2022-02-16T02:45:30Z</time>
      </trkpt>
      <trkpt lat="46.54076" lon="4.68674">
        <ele>211</ele>
        <time>2022-02-16T02:45:33Z</time>
      </trkpt>
      <trkpt lat="46.54134" lon="4.68668">
        <ele>212</ele>
        <time>2022-02-16T02:45:44Z</time>
      </trkpt>
      <trkpt lat="46.54159" lon="4.6867">
        <ele>213</ele>
        <time>2022-02-16T02:45:48Z</time>
      </trkpt>
      <trkpt lat="46.54205" lon="4.68685">
        <ele>214</ele>
        <time>2022-02-16T02:45:56Z</time>
      </trkpt>
      <trkpt lat="46.5427" lon="4.68712">
        <ele>217</ele>
        <time>2022-02-16T02:46:08Z</time>
      </trkpt>
      <trkpt lat="46.54284" lon="4.68716">
        <ele>217</ele>
        <time>2022-02-16T02:46:11Z</time>
      </trkpt>
      <trkpt lat="46.54293" lon="4.68716">
        <ele>217</ele>
        <time>2022-02-16T02:46:13Z</time>
      </trkpt>
      <trkpt lat="46.54333" lon="4.68707">
        <ele>216</ele>
        <time>2022-02-16T02:46:20Z</time>
      </trkpt>
      <trkpt lat="46.54459" lon="4.68642">
        <ele>214</ele>
        <time>2022-02-16T02:46:44Z</time>
      </trkpt>
      <trkpt lat="46.54516" lon="4.68616">
        <ele>213</ele>
        <time>2022-02-16T02:46:54Z</time>
      </trkpt>
      <trkpt lat="46.54623" lon="4.68585">
        <ele>215</ele>
        <time>2022-02-16T02:47:14Z</time>
      </trkpt>
      <trkpt lat="46.54628" lon="4.68605">
        <ele>216</ele>
        <time>2022-02-16T02:47:16Z</time>
      </trkpt>
      <trkpt lat="46.54677" lon="4.687">
        <ele>221</ele>
        <time>2022-02-16T02:47:31Z</time>
      </trkpt>
      <trkpt lat="46.54695" lon="4.6873">
        <ele>222</ele>
        <time>2022-02-16T02:47:36Z</time>
      </trkpt>
      <trkpt lat="46.54705" lon="4.68741">
        <ele>222</ele>
        <time>2022-02-16T02:47:38Z</time>
      </trkpt>
      <trkpt lat="46.54765" lon="4.6879">
        <ele>225</ele>
        <time>2022-02-16T02:47:50Z</time>
      </trkpt>
      <trkpt lat="46.54782" lon="4.68813">
        <ele>226</ele>
        <time>2022-02-16T02:47:54Z</time>
      </trkpt>
      <trkpt lat="46.54791" lon="4.68831">
        <ele>226</ele>
        <time>2022-02-16T02:47:57Z</time>
      </trkpt>
      <trkpt lat="46.54826" lon="4.68915">
        <ele>230</ele>
        <time>2022-02-16T02:48:09Z</time>
      </trkpt>
      <trkpt lat="46.54839" lon="4.68942">
        <ele>231</ele>
        <time>2022-02-16T02:48:13Z</time>
      </trkpt>
      <trkpt lat="46.54858" lon="4.68974">
        <ele>232</ele>
        <time>2022-02-16T02:48:18Z</time>
      </trkpt>
      <trkpt lat="46.55021" lon="4.69184">
        <ele>241</ele>
        <time>2022-02-16T02:48:57Z</time>
      </trkpt>
      <trkpt lat="46.55062" lon="4.69219">
        <ele>245</ele>
        <time>2022-02-16T02:49:05Z</time>
      </trkpt>
      <trkpt lat="46.5508" lon="4.69243">
        <ele>247</ele>
        <time>2022-02-16T02:49:10Z</time>
      </trkpt>
      <trkpt lat="46.55089" lon="4.69262">
        <ele>248</ele>
        <time>2022-02-16T02:49:12Z</time>
      </trkpt>
      <trkpt lat="46.551" lon="4.69304">
        <ele>250</ele>
        <time>2022-02-16T02:49:18Z</time>
      </trkpt>
      <trkpt lat="46.55112" lon="4.69362">
        <ele>251</ele>
        <time>2022-02-16T02:49:25Z</time>
      </trkpt>
      <trkpt lat="46.55132" lon="4.69415">
        <ele>251</ele>
        <time>2022-02-16T02:49:33Z</time>
      </trkpt>
      <trkpt lat="46.55145" lon="4.69441">
        <ele>251</ele>
        <time>2022-02-16T02:49:37Z</time>
      </trkpt>
      <trkpt lat="46.55164" lon="4.69471">
        <ele>252</ele>
        <time>2022-02-16T02:49:42Z</time>
      </trkpt>
      <trkpt lat="46.55238" lon="4.69559">
        <ele>256</ele>
        <time>2022-02-16T02:49:59Z</time>
      </trkpt>
      <trkpt lat="46.55304" lon="4.69654">
        <ele>255</ele>
        <time>2022-02-16T02:50:15Z</time>
      </trkpt>
      <trkpt lat="46.55334" lon="4.69714">
        <ele>253</ele>
        <time>2022-02-16T02:50:24Z</time>
      </trkpt>
      <trkpt lat="46.55355" lon="4.69798">
        <ele>252</ele>
        <time>2022-02-16T02:50:35Z</time>
      </trkpt>
      <trkpt lat="46.55411" lon="4.70058">
        <ele>249</ele>
        <time>2022-02-16T02:51:09Z</time>
      </trkpt>
      <trkpt lat="46.55416" lon="4.70082">
        <ele>249</ele>
        <time>2022-02-16T02:51:12Z</time>
      </trkpt>
      <trkpt lat="46.5542" lon="4.70122">
        <ele>250</ele>
        <time>2022-02-16T02:51:17Z</time>
      </trkpt>
      <trkpt lat="46.55418" lon="4.7016">
        <ele>251</ele>
        <time>2022-02-16T02:51:21Z</time>
      </trkpt>
      <trkpt lat="46.5541" lon="4.70211">
        <ele>252</ele>
        <time>2022-02-16T02:51:28Z</time>
      </trkpt>
      <trkpt lat="46.55368" lon="4.7046">
        <ele>252</ele>
        <time>2022-02-16T02:51:59Z</time>
      </trkpt>
      <trkpt lat="46.55366" lon="4.70509">
        <ele>253</ele>
        <time>2022-02-16T02:52:05Z</time>
      </trkpt>
      <trkpt lat="46.55381" lon="4.70583">
        <ele>254</ele>
        <time>2022-02-16T02:52:15Z</time>
      </trkpt>
      <trkpt lat="46.55394" lon="4.70764">
        <ele>259</ele>
        <time>2022-02-16T02:52:37Z</time>
      </trkpt>
      <trkpt lat="46.55407" lon="4.70988">
        <ele>255</ele>
        <time>2022-02-16T02:53:04Z</time>
      </trkpt>
      <trkpt lat="46.55406" lon="4.71012">
        <ele>254</ele>
        <time>2022-02-16T02:53:07Z</time>
      </trkpt>
      <trkpt lat="46.55403" lon="4.71054">
        <ele>253</ele>
        <time>2022-02-16T02:53:12Z</time>
      </trkpt>
      <trkpt lat="46.55393" lon="4.71133">
        <ele>248</ele>
        <time>2022-02-16T02:53:22Z</time>
      </trkpt>
      <trkpt lat="46.55392" lon="4.71156">
        <ele>247</ele>
        <time>2022-02-16T02:53:25Z</time>
      </trkpt>
      <trkpt lat="46.55399" lon="4.71374">
        <ele>239</ele>
        <time>2022-02-16T02:53:52Z</time>
      </trkpt>
      <trkpt lat="46.55398" lon="4.71406">
        <ele>238</ele>
        <time>2022-02-16T02:53:56Z</time>
      </trkpt>
      <trkpt lat="46.5537" lon="4.71697">
        <ele>230</ele>
        <time>2022-02-16T02:54:32Z</time>
      </trkpt>
      <trkpt lat="46.55364" lon="4.71739">
        <ele>230</ele>
        <time>2022-02-16T02:54:37Z</time>
      </trkpt>
      <trkpt lat="46.55354" lon="4.71781">
        <ele>229</ele>
        <time>2022-02-16T02:54:42Z</time>
      </trkpt>
      <trkpt lat="46.55344" lon="4.71813">
        <ele>228</ele>
        <time>2022-02-16T02:54:47Z</time>
      </trkpt>
      <trkpt lat="46.55331" lon="4.71843">
        <ele>228</ele>
        <time>2022-02-16T02:54:51Z</time>
      </trkpt>
      <trkpt lat="46.55324" lon="4.71868">
        <ele>228</ele>
        <time>2022-02-16T02:54:54Z</time>
      </trkpt>
      <trkpt lat="46.5532" lon="4.71892">
        <ele>228</ele>
        <time>2022-02-16T02:54:57Z</time>
      </trkpt>
      <trkpt lat="46.55319" lon="4.71913">
        <ele>228</ele>
        <time>2022-02-16T02:55:00Z</time>
      </trkpt>
      <trkpt lat="46.55322" lon="4.71938">
        <ele>229</ele>
        <time>2022-02-16T02:55:03Z</time>
      </trkpt>
      <trkpt lat="46.55411" lon="4.72377">
        <ele>220</ele>
        <time>2022-02-16T02:55:59Z</time>
      </trkpt>
      <trkpt lat="46.55425" lon="4.72435">
        <ele>220</ele>
        <time>2022-02-16T02:56:06Z</time>
      </trkpt>
      <trkpt lat="46.55433" lon="4.72453">
        <ele>220</ele>
        <time>2022-02-16T02:56:09Z</time>
      </trkpt>
      <trkpt lat="46.55465" lon="4.72516">
        <ele>219</ele>
        <time>2022-02-16T02:56:19Z</time>
      </trkpt>
      <trkpt lat="46.55473" lon="4.72542">
        <ele>220</ele>
        <time>2022-02-16T02:56:22Z</time>
      </trkpt>
      <trkpt lat="46.55478" lon="4.7257">
        <ele>220</ele>
        <time>2022-02-16T02:56:26Z</time>
      </trkpt>
      <trkpt lat="46.55487" lon="4.72695">
        <ele>220</ele>
        <time>2022-02-16T02:56:41Z</time>
      </trkpt>
      <trkpt lat="46.55492" lon="4.72737">
        <ele>219</ele>
        <time>2022-02-16T02:56:46Z</time>
      </trkpt>
      <trkpt lat="46.55562" lon="4.73094">
        <ele>221</ele>
        <time>2022-02-16T02:57:32Z</time>
      </trkpt>
      <trkpt lat="46.55573" lon="4.73141">
        <ele>221</ele>
        <time>2022-02-16T02:57:38Z</time>
      </trkpt>
      <trkpt lat="46.5558" lon="4.73164">
        <ele>221</ele>
        <time>2022-02-16T02:57:41Z</time>
      </trkpt>
      <trkpt lat="46.556" lon="4.73217">
        <ele>220</ele>
        <time>2022-02-16T02:57:48Z</time>
      </trkpt>
      <trkpt lat="46.55623" lon="4.73273">
        <ele>219</ele>
        <time>2022-02-16T02:57:56Z</time>
      </trkpt>
      <trkpt lat="46.55636" lon="4.73299">
        <ele>218</ele>
        <time>2022-02-16T02:58:00Z</time>
      </trkpt>
      <trkpt lat="46.55702" lon="4.73408">
        <ele>215</ele>
        <time>2022-02-16T02:58:18Z</time>
      </trkpt>
      <trkpt lat="46.55722" lon="4.73445">
        <ele>214</ele>
        <time>2022-02-16T02:58:24Z</time>
      </trkpt>
      <trkpt lat="46.55739" lon="4.73482">
        <ele>213</ele>
        <time>2022-02-16T02:58:29Z</time>
      </trkpt>
      <trkpt lat="46.55758" lon="4.7354">
        <ele>212</ele>
        <time>2022-02-16T02:58:37Z</time>
      </trkpt>
      <trkpt lat="46.55761" lon="4.73553">
        <ele>211</ele>
        <time>2022-02-16T02:58:39Z</time>
      </trkpt>
      <trkpt lat="46.55764" lon="4.73562">
        <ele>211</ele>
        <time>2022-02-16T02:58:40Z</time>
      </trkpt>
      <trkpt lat="46.55779" lon="4.73592">
        <ele>211</ele>
        <time>2022-02-16T02:58:44Z</time>
      </trkpt>
      <trkpt lat="46.55804" lon="4.73628">
        <ele>212</ele>
        <time>2022-02-16T02:58:51Z</time>
      </trkpt>
      <trkpt lat="46.55834" lon="4.73658">
        <ele>214</ele>
        <time>2022-02-16T02:58:57Z</time>
      </trkpt>
      <trkpt lat="46.559" lon="4.73709">
        <ele>210</ele>
        <time>2022-02-16T02:59:10Z</time>
      </trkpt>
      <trkpt lat="46.55917" lon="4.7373">
        <ele>209</ele>
        <time>2022-02-16T02:59:14Z</time>
      </trkpt>
      <trkpt lat="46.5593" lon="4.73753">
        <ele>209</ele>
        <time>2022-02-16T02:59:18Z</time>
      </trkpt>
      <trkpt lat="46.55943" lon="4.73788">
        <ele>210</ele>
        <time>2022-02-16T02:59:23Z</time>
      </trkpt>
      <trkpt lat="46.55951" lon="4.73818">
        <ele>211</ele>
        <time>2022-02-16T02:59:27Z</time>
      </trkpt>
      <trkpt lat="46.55979" lon="4.74002">
        <ele>213</ele>
        <time>2022-02-16T02:59:50Z</time>
      </trkpt>
      <trkpt lat="46.55985" lon="4.74022">
        <ele>213</ele>
        <time>2022-02-16T02:59:53Z</time>
      </trkpt>
      <trkpt lat="46.55992" lon="4.74038">
        <ele>214</ele>
        <time>2022-02-16T02:59:55Z</time>
      </trkpt>
      <trkpt lat="46.5601" lon="4.74066">
        <ele>216</ele>
        <time>2022-02-16T03:00:00Z</time>
      </trkpt>
      <trkpt lat="46.56235" lon="4.74298">
        <ele>216</ele>
        <time>2022-02-16T03:00:49Z</time>
      </trkpt>
      <trkpt lat="46.56628" lon="4.74698">
        <ele>209</ele>
        <time>2022-02-16T03:02:14Z</time>
      </trkpt>
      <trkpt lat="46.56647" lon="4.74716">
        <ele>209</ele>
        <time>2022-02-16T03:02:18Z</time>
      </trkpt>
      <trkpt lat="46.56673" lon="4.74724">
        <ele>209</ele>
        <time>2022-02-16T03:02:23Z</time>
      </trkpt>
      <trkpt lat="46.56768" lon="4.74742">
        <ele>214</ele>
        <time>2022-02-16T03:02:40Z</time>
      </trkpt>
      <trkpt lat="46.56734" lon="4.74828">
        <ele>208</ele>
        <time>2022-02-16T03:02:52Z</time>
      </trkpt>
      <trkpt lat="46.56731" lon="4.74837">
        <ele>207</ele>
        <time>2022-02-16T03:02:53Z</time>
      </trkpt>
      <trkpt lat="46.56693" lon="4.74933">
        <ele>204</ele>
        <time>2022-02-16T03:03:07Z</time>
      </trkpt>
      <trkpt lat="46.56691" lon="4.74939">
        <ele>204</ele>
        <time>2022-02-16T03:03:08Z</time>
      </trkpt>
      <trkpt lat="46.56573" lon="4.75241">
        <ele>212</ele>
        <time>2022-02-16T03:03:50Z</time>
      </trkpt>
      <trkpt lat="46.56558" lon="4.75287">
        <ele>214</ele>
        <time>2022-02-16T03:03:56Z</time>
      </trkpt>
      <trkpt lat="46.56552" lon="4.75323">
        <ele>214</ele>
        <time>2022-02-16T03:04:01Z</time>
      </trkpt>
      <trkpt lat="46.56548" lon="4.75369">
        <ele>214</ele>
        <time>2022-02-16T03:04:07Z</time>
      </trkpt>
      <trkpt lat="46.56537" lon="4.75628">
        <ele>217</ele>
        <time>2022-02-16T03:04:38Z</time>
      </trkpt>
      <trkpt lat="46.56476" lon="4.77236">
        <ele>204</ele>
        <time>2022-02-16T03:07:55Z</time>
      </trkpt>
      <trkpt lat="46.56476" lon="4.77256">
        <ele>204</ele>
        <time>2022-02-16T03:07:58Z</time>
      </trkpt>
      <trkpt lat="46.56472" lon="4.77366">
        <ele>203</ele>
        <time>2022-02-16T03:08:11Z</time>
      </trkpt>
      <trkpt lat="46.56471" lon="4.77381">
        <ele>204</ele>
        <time>2022-02-16T03:08:13Z</time>
      </trkpt>
      <trkpt lat="46.5639" lon="4.79613">
        <ele>270</ele>
        <time>2022-02-16T03:12:46Z</time>
      </trkpt>
      <trkpt lat="46.56371" lon="4.8023">
        <ele>309</ele>
        <time>2022-02-16T03:14:02Z</time>
      </trkpt>
      <trkpt lat="46.56372" lon="4.80287">
        <ele>316</ele>
        <time>2022-02-16T03:14:09Z</time>
      </trkpt>
      <trkpt lat="46.56378" lon="4.8033">
        <ele>322</ele>
        <time>2022-02-16T03:14:14Z</time>
      </trkpt>
      <trkpt lat="46.56387" lon="4.80371">
        <ele>329</ele>
        <time>2022-02-16T03:14:20Z</time>
      </trkpt>
      <trkpt lat="46.56457" lon="4.80533">
        <ele>343</ele>
        <time>2022-02-16T03:14:43Z</time>
      </trkpt>
      <trkpt lat="46.56475" lon="4.80586">
        <ele>348</ele>
        <time>2022-02-16T03:14:50Z</time>
      </trkpt>
      <trkpt lat="46.56483" lon="4.80635">
        <ele>351</ele>
        <time>2022-02-16T03:14:56Z</time>
      </trkpt>
      <trkpt lat="46.56484" lon="4.80708">
        <ele>357</ele>
        <time>2022-02-16T03:15:05Z</time>
      </trkpt>
      <trkpt lat="46.56486" lon="4.80735">
        <ele>358</ele>
        <time>2022-02-16T03:15:09Z</time>
      </trkpt>
      <trkpt lat="46.56491" lon="4.80773">
        <ele>361</ele>
        <time>2022-02-16T03:15:13Z</time>
      </trkpt>
      <trkpt lat="46.56497" lon="4.80798">
        <ele>363</ele>
        <time>2022-02-16T03:15:17Z</time>
      </trkpt>
      <trkpt lat="46.56535" lon="4.80917">
        <ele>371</ele>
        <time>2022-02-16T03:15:33Z</time>
      </trkpt>
      <trkpt lat="46.56557" lon="4.80998">
        <ele>374</ele>
        <time>2022-02-16T03:15:43Z</time>
      </trkpt>
      <trkpt lat="46.56576" lon="4.81084">
        <ele>377</ele>
        <time>2022-02-16T03:15:54Z</time>
      </trkpt>
      <trkpt lat="46.56601" lon="4.81179">
        <ele>384</ele>
        <time>2022-02-16T03:16:07Z</time>
      </trkpt>
      <trkpt lat="46.5661" lon="4.81208">
        <ele>386</ele>
        <time>2022-02-16T03:16:11Z</time>
      </trkpt>
      <trkpt lat="46.5662" lon="4.81226">
        <ele>387</ele>
        <time>2022-02-16T03:16:14Z</time>
      </trkpt>
      <trkpt lat="46.56631" lon="4.81241">
        <ele>388</ele>
        <time>2022-02-16T03:16:16Z</time>
      </trkpt>
      <trkpt lat="46.56672" lon="4.81277">
        <ele>390</ele>
        <time>2022-02-16T03:16:25Z</time>
      </trkpt>
      <trkpt lat="46.56682" lon="4.81289">
        <ele>392</ele>
        <time>2022-02-16T03:16:27Z</time>
      </trkpt>
      <trkpt lat="46.5669" lon="4.81306">
        <ele>393</ele>
        <time>2022-02-16T03:16:30Z</time>
      </trkpt>
      <trkpt lat="46.56726" lon="4.81421">
        <ele>403</ele>
        <time>2022-02-16T03:16:45Z</time>
      </trkpt>
      <trkpt lat="46.56742" lon="4.81456">
        <ele>405</ele>
        <time>2022-02-16T03:16:50Z</time>
      </trkpt>
      <trkpt lat="46.56758" lon="4.81485">
        <ele>408</ele>
        <time>2022-02-16T03:16:55Z</time>
      </trkpt>
      <trkpt lat="46.56771" lon="4.81502">
        <ele>410</ele>
        <time>2022-02-16T03:16:58Z</time>
      </trkpt>
      <trkpt lat="46.56787" lon="4.81518">
        <ele>411</ele>
        <time>2022-02-16T03:17:01Z</time>
      </trkpt>
      <trkpt lat="46.56997" lon="4.81686">
        <ele>422</ele>
        <time>2022-02-16T03:17:44Z</time>
      </trkpt>
      <trkpt lat="46.57233" lon="4.8188">
        <ele>414</ele>
        <time>2022-02-16T03:18:32Z</time>
      </trkpt>
      <trkpt lat="46.57242" lon="4.81889">
        <ele>414</ele>
        <time>2022-02-16T03:18:34Z</time>
      </trkpt>
      <trkpt lat="46.57248" lon="4.81903">
        <ele>413</ele>
        <time>2022-02-16T03:18:36Z</time>
      </trkpt>
      <trkpt lat="46.57249" lon="4.81921">
        <ele>412</ele>
        <time>2022-02-16T03:18:38Z</time>
      </trkpt>
      <trkpt lat="46.57246" lon="4.81934">
        <ele>412</ele>
        <time>2022-02-16T03:18:40Z</time>
      </trkpt>
      <trkpt lat="46.57237" lon="4.81947">
        <ele>410</ele>
        <time>2022-02-16T03:18:42Z</time>
      </trkpt>
      <trkpt lat="46.57224" lon="4.81959">
        <ele>408</ele>
        <time>2022-02-16T03:18:45Z</time>
      </trkpt>
      <trkpt lat="46.57189" lon="4.81979">
        <ele>402</ele>
        <time>2022-02-16T03:18:52Z</time>
      </trkpt>
      <trkpt lat="46.5715" lon="4.82005">
        <ele>395</ele>
        <time>2022-02-16T03:18:59Z</time>
      </trkpt>
      <trkpt lat="46.57136" lon="4.82023">
        <ele>393</ele>
        <time>2022-02-16T03:19:03Z</time>
      </trkpt>
      <trkpt lat="46.5712" lon="4.82049">
        <ele>392</ele>
        <time>2022-02-16T03:19:07Z</time>
      </trkpt>
      <trkpt lat="46.57107" lon="4.82073">
        <ele>390</ele>
        <time>2022-02-16T03:19:11Z</time>
      </trkpt>
      <trkpt lat="46.57099" lon="4.82101">
        <ele>388</ele>
        <time>2022-02-16T03:19:14Z</time>
      </trkpt>
      <trkpt lat="46.571" lon="4.82131">
        <ele>386</ele>
        <time>2022-02-16T03:19:18Z</time>
      </trkpt>
      <trkpt lat="46.5711" lon="4.82171">
        <ele>385</ele>
        <time>2022-02-16T03:19:23Z</time>
      </trkpt>
      <trkpt lat="46.57153" lon="4.82307">
        <ele>376</ele>
        <time>2022-02-16T03:19:42Z</time>
      </trkpt>
      <trkpt lat="46.57162" lon="4.82351">
        <ele>373</ele>
        <time>2022-02-16T03:19:47Z</time>
      </trkpt>
      <trkpt lat="46.57161" lon="4.8237">
        <ele>371</ele>
        <time>2022-02-16T03:19:50Z</time>
      </trkpt>
      <trkpt lat="46.57156" lon="4.82383">
        <ele>369</ele>
        <time>2022-02-16T03:19:51Z</time>
      </trkpt>
      <trkpt lat="46.57146" lon="4.82393">
        <ele>368</ele>
        <time>2022-02-16T03:19:54Z</time>
      </trkpt>
      <trkpt lat="46.5703" lon="4.82396">
        <ele>358</ele>
        <time>2022-02-16T03:20:14Z</time>
      </trkpt>
      <trkpt lat="46.57021" lon="4.82398">
        <ele>358</ele>
        <time>2022-02-16T03:20:16Z</time>
      </trkpt>
      <trkpt lat="46.57012" lon="4.82405">
        <ele>357</ele>
        <time>2022-02-16T03:20:18Z</time>
      </trkpt>
      <trkpt lat="46.57007" lon="4.82412">
        <ele>356</ele>
        <time>2022-02-16T03:20:19Z</time>
      </trkpt>
      <trkpt lat="46.57005" lon="4.8242">
        <ele>355</ele>
        <time>2022-02-16T03:20:20Z</time>
      </trkpt>
      <trkpt lat="46.57005" lon="4.82432">
        <ele>354</ele>
        <time>2022-02-16T03:20:21Z</time>
      </trkpt>
      <trkpt lat="46.5701" lon="4.82462">
        <ele>350</ele>
        <time>2022-02-16T03:20:25Z</time>
      </trkpt>
      <trkpt lat="46.57092" lon="4.82761">
        <ele>327</ele>
        <time>2022-02-16T03:21:04Z</time>
      </trkpt>
      <trkpt lat="46.57103" lon="4.82793">
        <ele>324</ele>
        <time>2022-02-16T03:21:09Z</time>
      </trkpt>
      <trkpt lat="46.5723" lon="4.83057">
        <ele>314</ele>
        <time>2022-02-16T03:21:48Z</time>
      </trkpt>
      <trkpt lat="46.57349" lon="4.83296">
        <ele>296</ele>
        <time>2022-02-16T03:22:24Z</time>
      </trkpt>
      <trkpt lat="46.57471" lon="4.83546">
        <ele>280</ele>
        <time>2022-02-16T03:23:02Z</time>
      </trkpt>
      <trkpt lat="46.57513" lon="4.83638">
        <ele>276</ele>
        <time>2022-02-16T03:23:15Z</time>
      </trkpt>
      <trkpt lat="46.57537" lon="4.83684">
        <ele>273</ele>
        <time>2022-02-16T03:23:22Z</time>
      </trkpt>
      <trkpt lat="46.57557" lon="4.83728">
        <ele>272</ele>
        <time>2022-02-16T03:23:29Z</time>
      </trkpt>
      <trkpt lat="46.57564" lon="4.8377">
        <ele>271</ele>
        <time>2022-02-16T03:23:34Z</time>
      </trkpt>
      <trkpt lat="46.57564" lon="4.83789">
        <ele>270</ele>
        <time>2022-02-16T03:23:36Z</time>
      </trkpt>
      <trkpt lat="46.57558" lon="4.83831">
        <ele>269</ele>
        <time>2022-02-16T03:23:42Z</time>
      </trkpt>
      <trkpt lat="46.5745" lon="4.84536">
        <ele>251</ele>
        <time>2022-02-16T03:25:10Z</time>
      </trkpt>
      <trkpt lat="46.57432" lon="4.84642">
        <ele>249</ele>
        <time>2022-02-16T03:25:23Z</time>
      </trkpt>
      <trkpt lat="46.57393" lon="4.84847">
        <ele>250</ele>
        <time>2022-02-16T03:25:49Z</time>
      </trkpt>
      <trkpt lat="46.57369" lon="4.84982">
        <ele>258</ele>
        <time>2022-02-16T03:26:07Z</time>
      </trkpt>
      <trkpt lat="46.57302" lon="4.85497">
        <ele>257</ele>
        <time>2022-02-16T03:27:11Z</time>
      </trkpt>
      <trkpt lat="46.57295" lon="4.85567">
        <ele>258</ele>
        <time>2022-02-16T03:27:19Z</time>
      </trkpt>
      <trkpt lat="46.5728" lon="4.85759">
        <ele>254</ele>
        <time>2022-02-16T03:27:43Z</time>
      </trkpt>
      <trkpt lat="46.57218" lon="4.86425">
        <ele>229</ele>
        <time>2022-02-16T03:29:05Z</time>
      </trkpt>
      <trkpt lat="46.57179" lon="4.86823">
        <ele>207</ele>
        <time>2022-02-16T03:29:54Z</time>
      </trkpt>
      <trkpt lat="46.57177" lon="4.86842">
        <ele>208</ele>
        <time>2022-02-16T03:29:57Z</time>
      </trkpt>
      <trkpt lat="46.57171" lon="4.86896">
        <ele>211</ele>
        <time>2022-02-16T03:30:03Z</time>
      </trkpt>
      <trkpt lat="46.57172" lon="4.86926">
        <ele>213</ele>
        <time>2022-02-16T03:30:07Z</time>
      </trkpt>
      <trkpt lat="46.5718" lon="4.8696">
        <ele>216</ele>
        <time>2022-02-16T03:30:11Z</time>
      </trkpt>
      <trkpt lat="46.57191" lon="4.86985">
        <ele>219</ele>
        <time>2022-02-16T03:30:15Z</time>
      </trkpt>
      <trkpt lat="46.57208" lon="4.87008">
        <ele>221</ele>
        <time>2022-02-16T03:30:19Z</time>
      </trkpt>
      <trkpt lat="46.57242" lon="4.87039">
        <ele>224</ele>
        <time>2022-02-16T03:30:26Z</time>
      </trkpt>
      <trkpt lat="46.57259" lon="4.8706">
        <ele>226</ele>
        <time>2022-02-16T03:30:30Z</time>
      </trkpt>
      <trkpt lat="46.57266" lon="4.87073">
        <ele>227</ele>
        <time>2022-02-16T03:30:32Z</time>
      </trkpt>
      <trkpt lat="46.57273" lon="4.871">
        <ele>228</ele>
        <time>2022-02-16T03:30:36Z</time>
      </trkpt>
      <trkpt lat="46.57274" lon="4.87116">
        <ele>229</ele>
        <time>2022-02-16T03:30:38Z</time>
      </trkpt>
      <trkpt lat="46.57274" lon="4.87149">
        <ele>232</ele>
        <time>2022-02-16T03:30:42Z</time>
      </trkpt>
      <trkpt lat="46.57268" lon="4.87192">
        <ele>234</ele>
        <time>2022-02-16T03:30:47Z</time>
      </trkpt>
      <trkpt lat="46.57262" lon="4.87216">
        <ele>235</ele>
        <time>2022-02-16T03:30:50Z</time>
      </trkpt>
      <trkpt lat="46.57258" lon="4.87227">
        <ele>236</ele>
        <time>2022-02-16T03:30:52Z</time>
      </trkpt>
      <trkpt lat="46.57244" lon="4.87248">
        <ele>237</ele>
        <time>2022-02-16T03:30:55Z</time>
      </trkpt>
      <trkpt lat="46.57182" lon="4.87321">
        <ele>243</ele>
        <time>2022-02-16T03:31:10Z</time>
      </trkpt>
      <trkpt lat="46.57164" lon="4.87351">
        <ele>245</ele>
        <time>2022-02-16T03:31:14Z</time>
      </trkpt>
      <trkpt lat="46.57152" lon="4.87385">
        <ele>247</ele>
        <time>2022-02-16T03:31:19Z</time>
      </trkpt>
      <trkpt lat="46.57135" lon="4.87441">
        <ele>251</ele>
        <time>2022-02-16T03:31:27Z</time>
      </trkpt>
      <trkpt lat="46.57125" lon="4.87464">
        <ele>253</ele>
        <time>2022-02-16T03:31:30Z</time>
      </trkpt>
      <trkpt lat="46.57066" lon="4.87574">
        <ele>260</ele>
        <time>2022-02-16T03:31:47Z</time>
      </trkpt>
      <trkpt lat="46.57037" lon="4.87647">
        <ele>267</ele>
        <time>2022-02-16T03:31:57Z</time>
      </trkpt>
      <trkpt lat="46.57017" lon="4.87708">
        <ele>271</ele>
        <time>2022-02-16T03:32:06Z</time>
      </trkpt>
      <trkpt lat="46.57013" lon="4.87725">
        <ele>272</ele>
        <time>2022-02-16T03:32:08Z</time>
      </trkpt>
      <trkpt lat="46.57012" lon="4.87742">
        <ele>273</ele>
        <time>2022-02-16T03:32:10Z</time>
      </trkpt>
      <trkpt lat="46.57009" lon="4.87823">
        <ele>277</ele>
        <time>2022-02-16T03:32:20Z</time>
      </trkpt>
      <trkpt lat="46.57009" lon="4.87839">
        <ele>278</ele>
        <time>2022-02-16T03:32:22Z</time>
      </trkpt>
      <trkpt lat="46.57011" lon="4.87855">
        <ele>279</ele>
        <time>2022-02-16T03:32:24Z</time>
      </trkpt>
      <trkpt lat="46.57019" lon="4.87887">
        <ele>281</ele>
        <time>2022-02-16T03:32:28Z</time>
      </trkpt>
      <trkpt lat="46.57092" lon="4.88034">
        <ele>286</ele>
        <time>2022-02-16T03:32:50Z</time>
      </trkpt>
      <trkpt lat="46.57113" lon="4.88094">
        <ele>286</ele>
        <time>2022-02-16T03:32:58Z</time>
      </trkpt>
      <trkpt lat="46.57147" lon="4.88214">
        <ele>283</ele>
        <time>2022-02-16T03:33:14Z</time>
      </trkpt>
      <trkpt lat="46.57148" lon="4.88227">
        <ele>283</ele>
        <time>2022-02-16T03:33:16Z</time>
      </trkpt>
      <trkpt lat="46.57147" lon="4.88243">
        <ele>282</ele>
        <time>2022-02-16T03:33:18Z</time>
      </trkpt>
      <trkpt lat="46.57144" lon="4.88259">
        <ele>280</ele>
        <time>2022-02-16T03:33:20Z</time>
      </trkpt>
      <trkpt lat="46.57139" lon="4.88277">
        <ele>278</ele>
        <time>2022-02-16T03:33:22Z</time>
      </trkpt>
      <trkpt lat="46.56961" lon="4.88749">
        <ele>265</ele>
        <time>2022-02-16T03:34:28Z</time>
      </trkpt>
      <trkpt lat="46.56943" lon="4.88812">
        <ele>260</ele>
        <time>2022-02-16T03:34:36Z</time>
      </trkpt>
      <trkpt lat="46.56869" lon="4.89113">
        <ele>233</ele>
        <time>2022-02-16T03:35:15Z</time>
      </trkpt>
      <trkpt lat="46.5678" lon="4.89467">
        <ele>215</ele>
        <time>2022-02-16T03:36:02Z</time>
      </trkpt>
      <trkpt lat="46.56768" lon="4.89509">
        <ele>213</ele>
        <time>2022-02-16T03:36:07Z</time>
      </trkpt>
      <trkpt lat="46.56745" lon="4.896">
        <ele>211</ele>
        <time>2022-02-16T03:36:19Z</time>
      </trkpt>
      <trkpt lat="46.5667" lon="4.89898">
        <ele>205</ele>
        <time>2022-02-16T03:36:58Z</time>
      </trkpt>
      <trkpt lat="46.56615" lon="4.90105">
        <ele>200</ele>
        <time>2022-02-16T03:37:25Z</time>
      </trkpt>
      <trkpt lat="46.56574" lon="4.90272">
        <ele>197</ele>
        <time>2022-02-16T03:37:47Z</time>
      </trkpt>
      <trkpt lat="46.56545" lon="4.90379">
        <ele>196</ele>
        <time>2022-02-16T03:38:01Z</time>
      </trkpt>
      <trkpt lat="46.5652" lon="4.9048">
        <ele>194</ele>
        <time>2022-02-16T03:38:14Z</time>
      </trkpt>
      <trkpt lat="46.56484" lon="4.90663">
        <ele>192</ele>
        <time>2022-02-16T03:38:37Z</time>
      </trkpt>
      <trkpt lat="46.56478" lon="4.90687">
        <ele>192</ele>
        <time>2022-02-16T03:38:40Z</time>
      </trkpt>
      <trkpt lat="46.56454" lon="4.90769">
        <ele>191</ele>
        <time>2022-02-16T03:38:51Z</time>
      </trkpt>
      <trkpt lat="46.56453" lon="4.90776">
        <ele>191</ele>
        <time>2022-02-16T03:38:52Z</time>
      </trkpt>
      <trkpt lat="46.56476" lon="4.9077">
        <ele>192</ele>
        <time>2022-02-16T03:38:56Z</time>
      </trkpt>
      <trkpt lat="46.56498" lon="4.90769">
        <ele>192</ele>
        <time>2022-02-16T03:39:00Z</time>
      </trkpt>
      <trkpt lat="46.56491" lon="4.90823">
        <ele>192</ele>
        <time>2022-02-16T03:39:07Z</time>
      </trkpt>
      <trkpt lat="46.56488" lon="4.90831">
        <ele>192</ele>
        <time>2022-02-16T03:39:08Z</time>
      </trkpt>
      <trkpt lat="46.56488" lon="4.90858">
        <ele>191</ele>
        <time>2022-02-16T03:39:11Z</time>
      </trkpt>
      <trkpt lat="46.56485" lon="4.90884">
        <ele>191</ele>
        <time>2022-02-16T03:39:15Z</time>
      </trkpt>
      <trkpt lat="46.56482" lon="4.90901">
        <ele>191</ele>
        <time>2022-02-16T03:39:17Z</time>
      </trkpt>
      <trkpt lat="46.56472" lon="4.90926">
        <ele>190</ele>
        <time>2022-02-16T03:39:20Z</time>
      </trkpt>
      <trkpt lat="46.56425" lon="4.91027">
        <ele>188</ele>
        <time>2022-02-16T03:39:35Z</time>
      </trkpt>
      <trkpt lat="46.56465" lon="4.9104">
        <ele>185</ele>
        <time>2022-02-16T03:39:42Z</time>
      </trkpt>
      <trkpt lat="46.56473" lon="4.91051">
        <ele>185</ele>
        <time>2022-02-16T03:39:44Z</time>
      </trkpt>
      <trkpt lat="46.56483" lon="4.91084">
        <ele>183</ele>
        <time>2022-02-16T03:39:49Z</time>
      </trkpt>
      <trkpt lat="46.56488" lon="4.91118">
        <ele>181</ele>
        <time>2022-02-16T03:39:53Z</time>
      </trkpt>
      <trkpt lat="46.56484" lon="4.91125">
        <ele>181</ele>
        <time>2022-02-16T03:39:54Z</time>
      </trkpt>
      <trkpt lat="46.56494" lon="4.91166">
        <ele>178</ele>
        <time>2022-02-16T03:39:59Z</time>
      </trkpt>
      <trkpt lat="46.56399" lon="4.9121">
        <ele>178</ele>
        <time>2022-02-16T03:40:17Z</time>
      </trkpt>
      <trkpt lat="46.56402" lon="4.91217">
        <ele>177</ele>
        <time>2022-02-16T03:40:18Z</time>
      </trkpt>
      <trkpt lat="46.56459" lon="4.91404">
        <ele>172</ele>
        <time>2022-02-16T03:40:43Z</time>
      </trkpt>
      <trkpt lat="46.56462" lon="4.91421">
        <ele>172</ele>
        <time>2022-02-16T03:40:45Z</time>
      </trkpt>
      <trkpt lat="46.56462" lon="4.91435">
        <ele>173</ele>
        <time>2022-02-16T03:40:47Z</time>
      </trkpt>
      <trkpt lat="46.5646" lon="4.91461">
        <ele>174</ele>
        <time>2022-02-16T03:40:50Z</time>
      </trkpt>
      <trkpt lat="46.56452" lon="4.91495">
        <ele>175</ele>
        <time>2022-02-16T03:40:55Z</time>
      </trkpt>
      <trkpt lat="46.56353" lon="4.91834">
        <ele>172</ele>
        <time>2022-02-16T03:41:40Z</time>
      </trkpt>
      <trkpt lat="46.56309" lon="4.91988">
        <ele>172</ele>
        <time>2022-02-16T03:42:00Z</time>
      </trkpt>
      <trkpt lat="46.56302" lon="4.92013">
        <ele>171</ele>
        <time>2022-02-16T03:42:03Z</time>
      </trkpt>
      <trkpt lat="46.56237" lon="4.92236">
        <ele>171</ele>
        <time>2022-02-16T03:42:33Z</time>
      </trkpt>
      <trkpt lat="46.56235" lon="4.92244">
        <ele>171</ele>
        <time>2022-02-16T03:42:34Z</time>
      </trkpt>
      <trkpt lat="46.56082" lon="4.92772">
        <ele>173</ele>
        <time>2022-02-16T03:43:44Z</time>
      </trkpt>
      <trkpt lat="46.56074" lon="4.92799">
        <ele>173</ele>
        <time>2022-02-16T03:43:48Z</time>
      </trkpt>
      <trkpt lat="46.56051" lon="4.92867">
        <ele>175</ele>
        <time>2022-02-16T03:43:57Z</time>
      </trkpt>
      <trkpt lat="46.56046" lon="4.92875">
        <ele>176</ele>
        <time>2022-02-16T03:43:58Z</time>
      </trkpt>
      <trkpt lat="46.5604" lon="4.92881">
        <ele>176</ele>
        <time>2022-02-16T03:44:00Z</time>
      </trkpt>
      <trkpt lat="46.5606" lon="4.92904">
        <ele>175</ele>
        <time>2022-02-16T03:44:04Z</time>
      </trkpt>
      <trkpt lat="46.56166" lon="4.92991">
        <ele>177</ele>
        <time>2022-02-16T03:44:26Z</time>
      </trkpt>
      <trkpt lat="46.56329" lon="4.93158">
        <ele>178</ele>
        <time>2022-02-16T03:45:01Z</time>
      </trkpt>
      <trkpt lat="46.56359" lon="4.93196">
        <ele>177</ele>
        <time>2022-02-16T03:45:08Z</time>
      </trkpt>
      <trkpt lat="46.56437" lon="4.93331">
        <ele>176</ele>
        <time>2022-02-16T03:45:30Z</time>
      </trkpt>
      <trkpt lat="46.56462" lon="4.93382">
        <ele>176</ele>
        <time>2022-02-16T03:45:38Z</time>
      </trkpt>
      <trkpt lat="46.5649" lon="4.93454">
        <ele>177</ele>
        <time>2022-02-16T03:45:48Z</time>
      </trkpt>
      <trkpt lat="46.5655" lon="4.93626">
        <ele>180</ele>
        <time>2022-02-16T03:46:11Z</time>
      </trkpt>
      <trkpt lat="46.5681" lon="4.94394">
        <ele>177</ele>
        <time>2022-02-16T03:47:56Z</time>
      </trkpt>
      <trkpt lat="46.56823" lon="4.94422">
        <ele>177</ele>
        <time>2022-02-16T03:48:00Z</time>
      </trkpt>
      <trkpt lat="46.56841" lon="4.94447">
        <ele>177</ele>
        <time>2022-02-16T03:48:05Z</time>
      </trkpt>
      <trkpt lat="46.56839" lon="4.94454">
        <ele>177</ele>
        <time>2022-02-16T03:48:06Z</time>
      </trkpt>
      <trkpt lat="46.56837" lon="4.94469">
        <ele>178</ele>
        <time>2022-02-16T03:48:07Z</time>
      </trkpt>
      <trkpt lat="46.56836" lon="4.94532">
        <ele>178</ele>
        <time>2022-02-16T03:48:15Z</time>
      </trkpt>
      <trkpt lat="46.56795" lon="4.9513">
        <ele>180</ele>
        <time>2022-02-16T03:49:29Z</time>
      </trkpt>
      <trkpt lat="46.56787" lon="4.95183">
        <ele>180</ele>
        <time>2022-02-16T03:49:35Z</time>
      </trkpt>
      <trkpt lat="46.56739" lon="4.95452">
        <ele>180</ele>
        <time>2022-02-16T03:50:09Z</time>
      </trkpt>
      <trkpt lat="46.56737" lon="4.95488">
        <ele>180</ele>
        <time>2022-02-16T03:50:14Z</time>
      </trkpt>
      <trkpt lat="46.56741" lon="4.95514">
        <ele>179</ele>
        <time>2022-02-16T03:50:17Z</time>
      </trkpt>
      <trkpt lat="46.5679" lon="4.95694">
        <ele>184</ele>
        <time>2022-02-16T03:50:41Z</time>
      </trkpt>
      <trkpt lat="46.56799" lon="4.95722">
        <ele>185</ele>
        <time>2022-02-16T03:50:44Z</time>
      </trkpt>
      <trkpt lat="46.56808" lon="4.95747">
        <ele>186</ele>
        <time>2022-02-16T03:50:48Z</time>
      </trkpt>
      <trkpt lat="46.56834" lon="4.95804">
        <ele>188</ele>
        <time>2022-02-16T03:50:56Z</time>
      </trkpt>
      <trkpt lat="46.56889" lon="4.95935">
        <ele>190</ele>
        <time>2022-02-16T03:51:15Z</time>
      </trkpt>
      <trkpt lat="46.569" lon="4.95969">
        <ele>190</ele>
        <time>2022-02-16T03:51:20Z</time>
      </trkpt>
      <trkpt lat="46.56903" lon="4.9599">
        <ele>190</ele>
        <time>2022-02-16T03:51:22Z</time>
      </trkpt>
      <trkpt lat="46.56918" lon="4.96498">
        <ele>195</ele>
        <time>2022-02-16T03:52:24Z</time>
      </trkpt>
      <trkpt lat="46.56924" lon="4.9658">
        <ele>195</ele>
        <time>2022-02-16T03:52:35Z</time>
      </trkpt>
      <trkpt lat="46.56981" lon="4.97266">
        <ele>196</ele>
        <time>2022-02-16T03:53:59Z</time>
      </trkpt>
      <trkpt lat="46.56998" lon="4.97489">
        <ele>197</ele>
        <time>2022-02-16T03:54:27Z</time>
      </trkpt>
      <trkpt lat="46.57044" lon="4.9804">
        <ele>194</ele>
        <time>2022-02-16T03:55:34Z</time>
      </trkpt>
      <trkpt lat="46.57078" lon="4.98491">
        <ele>195</ele>
        <time>2022-02-16T03:56:30Z</time>
      </trkpt>
      <trkpt lat="46.57073" lon="4.98568">
        <ele>194</ele>
        <time>2022-02-16T03:56:39Z</time>
      </trkpt>
      <trkpt lat="46.57074" lon="4.98588">
        <ele>194</ele>
        <time>2022-02-16T03:56:42Z</time>
      </trkpt>
      <trkpt lat="46.57083" lon="4.9862">
        <ele>194</ele>
        <time>2022-02-16T03:56:46Z</time>
      </trkpt>
      <trkpt lat="46.57113" lon="4.98695">
        <ele>195</ele>
        <time>2022-02-16T03:56:57Z</time>
      </trkpt>
      <trkpt lat="46.57118" lon="4.98714">
        <ele>195</ele>
        <time>2022-02-16T03:56:59Z</time>
      </trkpt>
      <trkpt lat="46.57121" lon="4.98743">
        <ele>195</ele>
        <time>2022-02-16T03:57:03Z</time>
      </trkpt>
      <trkpt lat="46.57125" lon="4.98882">
        <ele>195</ele>
        <time>2022-02-16T03:57:20Z</time>
      </trkpt>
      <trkpt lat="46.57125" lon="4.98924">
        <ele>196</ele>
        <time>2022-02-16T03:57:25Z</time>
      </trkpt>
      <trkpt lat="46.57113" lon="4.99255">
        <ele>198</ele>
        <time>2022-02-16T03:58:05Z</time>
      </trkpt>
      <trkpt lat="46.57115" lon="4.99294">
        <ele>198</ele>
        <time>2022-02-16T03:58:10Z</time>
      </trkpt>
      <trkpt lat="46.57134" lon="4.99443">
        <ele>195</ele>
        <time>2022-02-16T03:58:29Z</time>
      </trkpt>
      <trkpt lat="46.5714" lon="4.99475">
        <ele>194</ele>
        <time>2022-02-16T03:58:33Z</time>
      </trkpt>
      <trkpt lat="46.57171" lon="4.99605">
        <ele>186</ele>
        <time>2022-02-16T03:58:50Z</time>
      </trkpt>
      <trkpt lat="46.57269" lon="4.99939">
        <ele>175</ele>
        <time>2022-02-16T03:59:34Z</time>
      </trkpt>
      <trkpt lat="46.57287" lon="4.99986">
        <ele>175</ele>
        <time>2022-02-16T03:59:41Z</time>
      </trkpt>
      <trkpt lat="46.573" lon="5.00009">
        <ele>175</ele>
        <time>2022-02-16T03:59:44Z</time>
      </trkpt>
      <trkpt lat="46.57487" lon="5.00273">
        <ele>176</ele>
        <time>2022-02-16T04:00:31Z</time>
      </trkpt>
      <trkpt lat="46.57502" lon="5.00303">
        <ele>175</ele>
        <time>2022-02-16T04:00:35Z</time>
      </trkpt>
      <trkpt lat="46.57509" lon="5.00324">
        <ele>175</ele>
        <time>2022-02-16T04:00:38Z</time>
      </trkpt>
      <trkpt lat="46.57565" lon="5.00538">
        <ele>173</ele>
        <time>2022-02-16T04:01:06Z</time>
      </trkpt>
      <trkpt lat="46.57581" lon="5.00589">
        <ele>173</ele>
        <time>2022-02-16T04:01:13Z</time>
      </trkpt>
      <trkpt lat="46.57649" lon="5.00779">
        <ele>175</ele>
        <time>2022-02-16T04:01:39Z</time>
      </trkpt>
      <trkpt lat="46.57657" lon="5.00811">
        <ele>176</ele>
        <time>2022-02-16T04:01:43Z</time>
      </trkpt>
      <trkpt lat="46.57761" lon="5.01366">
        <ele>177</ele>
        <time>2022-02-16T04:02:54Z</time>
      </trkpt>
      <trkpt lat="46.5777" lon="5.01405">
        <ele>178</ele>
        <time>2022-02-16T04:02:59Z</time>
      </trkpt>
      <trkpt lat="46.58083" lon="5.02368">
        <ele>203</ele>
        <time>2022-02-16T04:05:09Z</time>
      </trkpt>
      <trkpt lat="46.58214" lon="5.02743">
        <ele>212</ele>
        <time>2022-02-16T04:06:00Z</time>
      </trkpt>
      <trkpt lat="46.58232" lon="5.02787">
        <ele>213</ele>
        <time>2022-02-16T04:06:07Z</time>
      </trkpt>
      <trkpt lat="46.5825" lon="5.02822">
        <ele>213</ele>
        <time>2022-02-16T04:06:12Z</time>
      </trkpt>
      <trkpt lat="46.58266" lon="5.02846">
        <ele>213</ele>
        <time>2022-02-16T04:06:16Z</time>
      </trkpt>
      <trkpt lat="46.58291" lon="5.0288">
        <ele>212</ele>
        <time>2022-02-16T04:06:22Z</time>
      </trkpt>
      <trkpt lat="46.58307" lon="5.02895">
        <ele>212</ele>
        <time>2022-02-16T04:06:26Z</time>
      </trkpt>
      <trkpt lat="46.58326" lon="5.02909">
        <ele>212</ele>
        <time>2022-02-16T04:06:29Z</time>
      </trkpt>
      <trkpt lat="46.58644" lon="5.03102">
        <ele>211</ele>
        <time>2022-02-16T04:07:31Z</time>
      </trkpt>
      <trkpt lat="46.5866" lon="5.03107">
        <ele>210</ele>
        <time>2022-02-16T04:07:34Z</time>
      </trkpt>
      <trkpt lat="46.58688" lon="5.03107">
        <ele>210</ele>
        <time>2022-02-16T04:07:39Z</time>
      </trkpt>
      <trkpt lat="46.58702" lon="5.03103">
        <ele>210</ele>
        <time>2022-02-16T04:07:41Z</time>
      </trkpt>
      <trkpt lat="46.58748" lon="5.03081">
        <ele>211</ele>
        <time>2022-02-16T04:07:50Z</time>
      </trkpt>
      <trkpt lat="46.58881" lon="5.02999">
        <ele>210</ele>
        <time>2022-02-16T04:08:15Z</time>
      </trkpt>
      <trkpt lat="46.58899" lon="5.02992">
        <ele>210</ele>
        <time>2022-02-16T04:08:19Z</time>
      </trkpt>
      <trkpt lat="46.58919" lon="5.02993">
        <ele>210</ele>
        <time>2022-02-16T04:08:22Z</time>
      </trkpt>
      <trkpt lat="46.58935" lon="5.03003">
        <ele>210</ele>
        <time>2022-02-16T04:08:25Z</time>
      </trkpt>
      <trkpt lat="46.5895" lon="5.03022">
        <ele>210</ele>
        <time>2022-02-16T04:08:29Z</time>
      </trkpt>
      <trkpt lat="46.58955" lon="5.03033">
        <ele>210</ele>
        <time>2022-02-16T04:08:31Z</time>
      </trkpt>
      <trkpt lat="46.58963" lon="5.03058">
        <ele>210</ele>
        <time>2022-02-16T04:08:34Z</time>
      </trkpt>
      <trkpt lat="46.58983" lon="5.03163">
        <ele>212</ele>
        <time>2022-02-16T04:08:47Z</time>
      </trkpt>
      <trkpt lat="46.58994" lon="5.03207">
        <ele>211</ele>
        <time>2022-02-16T04:08:53Z</time>
      </trkpt>
      <trkpt lat="46.5901" lon="5.0326">
        <ele>210</ele>
        <time>2022-02-16T04:09:00Z</time>
      </trkpt>
      <trkpt lat="46.59049" lon="5.03361">
        <ele>208</ele>
        <time>2022-02-16T04:09:14Z</time>
      </trkpt>
      <trkpt lat="46.59057" lon="5.03389">
        <ele>208</ele>
        <time>2022-02-16T04:09:18Z</time>
      </trkpt>
      <trkpt lat="46.59142" lon="5.0382">
        <ele>204</ele>
        <time>2022-02-16T04:10:13Z</time>
      </trkpt>
      <trkpt lat="46.59191" lon="5.04081">
        <ele>202</ele>
        <time>2022-02-16T04:10:46Z</time>
      </trkpt>
      <trkpt lat="46.59192" lon="5.04111">
        <ele>201</ele>
        <time>2022-02-16T04:10:49Z</time>
      </trkpt>
      <trkpt lat="46.59173" lon="5.04611">
        <ele>205</ele>
        <time>2022-02-16T04:11:51Z</time>
      </trkpt>
      <trkpt lat="46.59158" lon="5.0503">
        <ele>203</ele>
        <time>2022-02-16T04:12:42Z</time>
      </trkpt>
      <trkpt lat="46.59157" lon="5.05149">
        <ele>203</ele>
        <time>2022-02-16T04:12:57Z</time>
      </trkpt>
      <trkpt lat="46.5916" lon="5.05187">
        <ele>203</ele>
        <time>2022-02-16T04:13:01Z</time>
      </trkpt>
      <trkpt lat="46.59177" lon="5.05317">
        <ele>201</ele>
        <time>2022-02-16T04:13:17Z</time>
      </trkpt>
      <trkpt lat="46.59216" lon="5.05581">
        <ele>198</ele>
        <time>2022-02-16T04:13:50Z</time>
      </trkpt>
      <trkpt lat="46.59228" lon="5.05661">
        <ele>196</ele>
        <time>2022-02-16T04:14:00Z</time>
      </trkpt>
      <trkpt lat="46.59244" lon="5.05716">
        <ele>194</ele>
        <time>2022-02-16T04:14:08Z</time>
      </trkpt>
      <trkpt lat="46.59284" lon="5.05814">
        <ele>189</ele>
        <time>2022-02-16T04:14:22Z</time>
      </trkpt>
      <trkpt lat="46.59314" lon="5.05886">
        <ele>185</ele>
        <time>2022-02-16T04:14:32Z</time>
      </trkpt>
      <trkpt lat="46.59338" lon="5.05924">
        <ele>184</ele>
        <time>2022-02-16T04:14:38Z</time>
      </trkpt>
      <trkpt lat="46.59383" lon="5.05983">
        <ele>185</ele>
        <time>2022-02-16T04:14:49Z</time>
      </trkpt>
      <trkpt lat="46.59396" lon="5.06005">
        <ele>185</ele>
        <time>2022-02-16T04:14:53Z</time>
      </trkpt>
      <trkpt lat="46.59423" lon="5.06094">
        <ele>185</ele>
        <time>2022-02-16T04:15:05Z</time>
      </trkpt>
      <trkpt lat="46.59484" lon="5.06261">
        <ele>185</ele>
        <time>2022-02-16T04:15:28Z</time>
      </trkpt>
      <trkpt lat="46.59602" lon="5.06511">
        <ele>186</ele>
        <time>2022-02-16T04:16:05Z</time>
      </trkpt>
      <trkpt lat="46.59614" lon="5.06533">
        <ele>185</ele>
        <time>2022-02-16T04:16:08Z</time>
      </trkpt>
      <trkpt lat="46.59629" lon="5.06554">
        <ele>185</ele>
        <time>2022-02-16T04:16:12Z</time>
      </trkpt>
      <trkpt lat="46.59654" lon="5.0658">
        <ele>184</ele>
        <time>2022-02-16T04:16:17Z</time>
      </trkpt>
      <trkpt lat="46.59705" lon="5.06624">
        <ele>184</ele>
        <time>2022-02-16T04:16:28Z</time>
      </trkpt>
      <trkpt lat="46.59771" lon="5.06659">
        <ele>184</ele>
        <time>2022-02-16T04:16:40Z</time>
      </trkpt>
      <trkpt lat="46.59786" lon="5.06669">
        <ele>185</ele>
        <time>2022-02-16T04:16:43Z</time>
      </trkpt>
      <trkpt lat="46.59861" lon="5.06743">
        <ele>179</ele>
        <time>2022-02-16T04:16:59Z</time>
      </trkpt>
      <trkpt lat="46.59872" lon="5.06751">
        <ele>178</ele>
        <time>2022-02-16T04:17:02Z</time>
      </trkpt>
      <trkpt lat="46.59897" lon="5.0676">
        <ele>178</ele>
        <time>2022-02-16T04:17:06Z</time>
      </trkpt>
      <trkpt lat="46.59962" lon="5.06772">
        <ele>178</ele>
        <time>2022-02-16T04:17:18Z</time>
      </trkpt>
      <trkpt lat="46.60001" lon="5.06785">
        <ele>178</ele>
        <time>2022-02-16T04:17:25Z</time>
      </trkpt>
      <trkpt lat="46.60024" lon="5.06782">
        <ele>178</ele>
        <time>2022-02-16T04:17:29Z</time>
      </trkpt>
      <trkpt lat="46.60042" lon="5.06776">
        <ele>178</ele>
        <time>2022-02-16T04:17:32Z</time>
      </trkpt>
      <trkpt lat="46.60125" lon="5.06738">
        <ele>179</ele>
        <time>2022-02-16T04:17:48Z</time>
      </trkpt>
      <trkpt lat="46.6017" lon="5.0672">
        <ele>181</ele>
        <time>2022-02-16T04:17:56Z</time>
      </trkpt>
      <trkpt lat="46.60172" lon="5.06751">
        <ele>177</ele>
        <time>2022-02-16T04:18:00Z</time>
      </trkpt>
      <trkpt lat="46.60178" lon="5.06837">
        <ele>175</ele>
        <time>2022-02-16T04:18:11Z</time>
      </trkpt>
      <trkpt lat="46.60178" lon="5.06854">
        <ele>175</ele>
        <time>2022-02-16T04:18:13Z</time>
      </trkpt>
      <trkpt lat="46.60176" lon="5.06866">
        <ele>175</ele>
        <time>2022-02-16T04:18:14Z</time>
      </trkpt>
      <trkpt lat="46.60166" lon="5.06892">
        <ele>174</ele>
        <time>2022-02-16T04:18:18Z</time>
      </trkpt>
      <trkpt lat="46.60094" lon="5.06992">
        <ele>175</ele>
        <time>2022-02-16T04:18:35Z</time>
      </trkpt>
      <trkpt lat="46.60085" lon="5.07013">
        <ele>175</ele>
        <time>2022-02-16T04:18:39Z</time>
      </trkpt>
      <trkpt lat="46.60083" lon="5.07022">
        <ele>175</ele>
        <time>2022-02-16T04:18:40Z</time>
      </trkpt>
      <trkpt lat="46.60084" lon="5.07108">
        <ele>175</ele>
        <time>2022-02-16T04:18:50Z</time>
      </trkpt>
      <trkpt lat="46.60105" lon="5.0729">
        <ele>174</ele>
        <time>2022-02-16T04:19:13Z</time>
      </trkpt>
      <trkpt lat="46.6011" lon="5.07324">
        <ele>173</ele>
        <time>2022-02-16T04:19:17Z</time>
      </trkpt>
      <trkpt lat="46.60122" lon="5.07416">
        <ele>173</ele>
        <time>2022-02-16T04:19:28Z</time>
      </trkpt>
      <trkpt lat="46.60124" lon="5.07434">
        <ele>174</ele>
        <time>2022-02-16T04:19:31Z</time>
      </trkpt>
      <trkpt lat="46.60158" lon="5.07712">
        <ele>173</ele>
        <time>2022-02-16T04:20:05Z</time>
      </trkpt>
      <trkpt lat="46.60165" lon="5.07752">
        <ele>172</ele>
        <time>2022-02-16T04:20:10Z</time>
      </trkpt>
      <trkpt lat="46.6017" lon="5.07778">
        <ele>173</ele>
        <time>2022-02-16T04:20:14Z</time>
      </trkpt>
      <trkpt lat="46.60185" lon="5.07823">
        <ele>174</ele>
        <time>2022-02-16T04:20:20Z</time>
      </trkpt>
      <trkpt lat="46.60198" lon="5.0785">
        <ele>174</ele>
        <time>2022-02-16T04:20:24Z</time>
      </trkpt>
      <trkpt lat="46.60219" lon="5.07885">
        <ele>174</ele>
        <time>2022-02-16T04:20:29Z</time>
      </trkpt>
      <trkpt lat="46.6025" lon="5.07923">
        <ele>174</ele>
        <time>2022-02-16T04:20:37Z</time>
      </trkpt>
      <trkpt lat="46.60254" lon="5.07934">
        <ele>174</ele>
        <time>2022-02-16T04:20:38Z</time>
      </trkpt>
      <trkpt lat="46.60253" lon="5.07947">
        <ele>174</ele>
        <time>2022-02-16T04:20:40Z</time>
      </trkpt>
      <trkpt lat="46.6019" lon="5.08079">
        <ele>180</ele>
        <time>2022-02-16T04:20:59Z</time>
      </trkpt>
      <trkpt lat="46.60122" lon="5.08241">
        <ele>183</ele>
        <time>2022-02-16T04:21:23Z</time>
      </trkpt>
      <trkpt lat="46.60106" lon="5.08275">
        <ele>184</ele>
        <time>2022-02-16T04:21:28Z</time>
      </trkpt>
      <trkpt lat="46.60141" lon="5.0832">
        <ele>183</ele>
        <time>2022-02-16T04:21:36Z</time>
      </trkpt>
      <trkpt lat="46.60161" lon="5.08338">
        <ele>183</ele>
        <time>2022-02-16T04:21:40Z</time>
      </trkpt>
      <trkpt lat="46.6018" lon="5.08348">
        <ele>183</ele>
        <time>2022-02-16T04:21:44Z</time>
      </trkpt>
      <trkpt lat="46.60239" lon="5.08373">
        <ele>183</ele>
        <time>2022-02-16T04:21:55Z</time>
      </trkpt>
      <trkpt lat="46.60308" lon="5.08399">
        <ele>183</ele>
        <time>2022-02-16T04:22:07Z</time>
      </trkpt>
      <trkpt lat="46.60332" lon="5.08413">
        <ele>183</ele>
        <time>2022-02-16T04:22:12Z</time>
      </trkpt>
      <trkpt lat="46.60315" lon="5.08465">
        <ele>184</ele>
        <time>2022-02-16T04:22:19Z</time>
      </trkpt>
      <trkpt lat="46.60304" lon="5.08489">
        <ele>184</ele>
        <time>2022-02-16T04:22:22Z</time>
      </trkpt>
      <trkpt lat="46.60234" lon="5.08619">
        <ele>185</ele>
        <time>2022-02-16T04:22:43Z</time>
      </trkpt>
      <trkpt lat="46.60201" lon="5.08694">
        <ele>187</ele>
        <time>2022-02-16T04:22:54Z</time>
      </trkpt>
      <trkpt lat="46.60102" lon="5.08877">
        <ele>194</ele>
        <time>2022-02-16T04:23:22Z</time>
      </trkpt>
      <trkpt lat="46.60126" lon="5.08917">
        <ele>195</ele>
        <time>2022-02-16T04:23:29Z</time>
      </trkpt>
      <trkpt lat="46.60129" lon="5.08928">
        <ele>195</ele>
        <time>2022-02-16T04:23:30Z</time>
      </trkpt>
      <trkpt lat="46.60091" lon="5.09213">
        <ele>195</ele>
        <time>2022-02-16T04:24:05Z</time>
      </trkpt>
      <trkpt lat="46.60088" lon="5.09237">
        <ele>194</ele>
        <time>2022-02-16T04:24:08Z</time>
      </trkpt>
      <trkpt lat="46.60088" lon="5.09303">
        <ele>194</ele>
        <time>2022-02-16T04:24:16Z</time>
      </trkpt>
      <trkpt lat="46.60078" lon="5.09456">
        <ele>196</ele>
        <time>2022-02-16T04:24:35Z</time>
      </trkpt>
      <trkpt lat="46.60076" lon="5.09465">
        <ele>196</ele>
        <time>2022-02-16T04:24:36Z</time>
      </trkpt>
      <trkpt lat="46.60071" lon="5.09476">
        <ele>196</ele>
        <time>2022-02-16T04:24:38Z</time>
      </trkpt>
      <trkpt lat="46.60266" lon="5.097">
        <ele>197</ele>
        <time>2022-02-16T04:25:22Z</time>
      </trkpt>
      <trkpt lat="46.60451" lon="5.09915">
        <ele>193</ele>
        <time>2022-02-16T04:26:04Z</time>
      </trkpt>
      <trkpt lat="46.60463" lon="5.09929">
        <ele>194</ele>
        <time>2022-02-16T04:26:07Z</time>
      </trkpt>
      <trkpt lat="46.60476" lon="5.09952">
        <ele>194</ele>
        <time>2022-02-16T04:26:11Z</time>
      </trkpt>
      <trkpt lat="46.60972" lon="5.1132">
        <ele>197</ele>
        <time>2022-02-16T04:29:20Z</time>
      </trkpt>
      <trkpt lat="46.60998" lon="5.11388">
        <ele>198</ele>
        <time>2022-02-16T04:29:29Z</time>
      </trkpt>
      <trkpt lat="46.61147" lon="5.11738">
        <ele>184</ele>
        <time>2022-02-16T04:30:20Z</time>
      </trkpt>
      <trkpt lat="46.61729" lon="5.13095">
        <ele>178</ele>
        <time>2022-02-16T04:33:35Z</time>
      </trkpt>
      <trkpt lat="46.62518" lon="5.14947">
        <ele>193</ele>
        <time>2022-02-16T04:38:02Z</time>
      </trkpt>
      <trkpt lat="46.62576" lon="5.15084">
        <ele>195</ele>
        <time>2022-02-16T04:38:21Z</time>
      </trkpt>
      <trkpt lat="46.62588" lon="5.15124">
        <ele>195</ele>
        <time>2022-02-16T04:38:27Z</time>
      </trkpt>
      <trkpt lat="46.62597" lon="5.15171">
        <ele>195</ele>
        <time>2022-02-16T04:38:32Z</time>
      </trkpt>
      <trkpt lat="46.62601" lon="5.15213">
        <ele>195</ele>
        <time>2022-02-16T04:38:38Z</time>
      </trkpt>
      <trkpt lat="46.62602" lon="5.15292">
        <ele>195</ele>
        <time>2022-02-16T04:38:47Z</time>
      </trkpt>
      <trkpt lat="46.62599" lon="5.1582">
        <ele>196</ele>
        <time>2022-02-16T04:39:52Z</time>
      </trkpt>
      <trkpt lat="46.62598" lon="5.16677">
        <ele>194</ele>
        <time>2022-02-16T04:41:37Z</time>
      </trkpt>
      <trkpt lat="46.62624" lon="5.17906">
        <ele>181</ele>
        <time>2022-02-16T04:44:07Z</time>
      </trkpt>
      <trkpt lat="46.62644" lon="5.18735">
        <ele>183</ele>
        <time>2022-02-16T04:45:48Z</time>
      </trkpt>
      <trkpt lat="46.62659" lon="5.1946">
        <ele>185</ele>
        <time>2022-02-16T04:47:17Z</time>
      </trkpt>
      <trkpt lat="46.62648" lon="5.19856">
        <ele>185</ele>
        <time>2022-02-16T04:48:05Z</time>
      </trkpt>
      <trkpt lat="46.62631" lon="5.2031">
        <ele>182</ele>
        <time>2022-02-16T04:49:01Z</time>
      </trkpt>
      <trkpt lat="46.62626" lon="5.20502">
        <ele>179</ele>
        <time>2022-02-16T04:49:24Z</time>
      </trkpt>
      <trkpt lat="46.62608" lon="5.21087">
        <ele>179</ele>
        <time>2022-02-16T04:50:36Z</time>
      </trkpt>
      <trkpt lat="46.62596" lon="5.21445">
        <ele>179</ele>
        <time>2022-02-16T04:51:20Z</time>
      </trkpt>
      <trkpt lat="46.62592" lon="5.21503">
        <ele>179</ele>
        <time>2022-02-16T04:51:27Z</time>
      </trkpt>
      <trkpt lat="46.62585" lon="5.21504">
        <ele>179</ele>
        <time>2022-02-16T04:51:28Z</time>
      </trkpt>
      <trkpt lat="46.62582" lon="5.21507">
        <ele>179</ele>
        <time>2022-02-16T04:51:29Z</time>
      </trkpt>
      <trkpt lat="46.62579" lon="5.21516">
        <ele>179</ele>
        <time>2022-02-16T04:51:30Z</time>
      </trkpt>
      <trkpt lat="46.6258" lon="5.21526">
        <ele>179</ele>
        <time>2022-02-16T04:51:31Z</time>
      </trkpt>
      <trkpt lat="46.62586" lon="5.21533">
        <ele>179</ele>
        <time>2022-02-16T04:51:32Z</time>
      </trkpt>
      <trkpt lat="46.62592" lon="5.21533">
        <ele>179</ele>
        <time>2022-02-16T04:51:34Z</time>
      </trkpt>
      <trkpt lat="46.62596" lon="5.21531">
        <ele>179</ele>
        <time>2022-02-16T04:51:34Z</time>
      </trkpt>
      <trkpt lat="46.62599" lon="5.21525">
        <ele>179</ele>
        <time>2022-02-16T04:51:35Z</time>
      </trkpt>
      <trkpt lat="46.62608" lon="5.21531">
        <ele>179</ele>
        <time>2022-02-16T04:51:37Z</time>
      </trkpt>
      <trkpt lat="46.62712" lon="5.21619">
        <ele>179</ele>
        <time>2022-02-16T04:51:58Z</time>
      </trkpt>
      <trkpt lat="46.62786" lon="5.2168">
        <ele>180</ele>
        <time>2022-02-16T04:52:13Z</time>
      </trkpt>
      <trkpt lat="46.62821" lon="5.21718">
        <ele>179</ele>
        <time>2022-02-16T04:52:21Z</time>
      </trkpt>
      <trkpt lat="46.62844" lon="5.21752">
        <ele>178</ele>
        <time>2022-02-16T04:52:27Z</time>
      </trkpt>
      <trkpt lat="46.62868" lon="5.21801">
        <ele>178</ele>
        <time>2022-02-16T04:52:34Z</time>
      </trkpt>
      <trkpt lat="46.62901" lon="5.21892">
        <ele>177</ele>
        <time>2022-02-16T04:52:47Z</time>
      </trkpt>
      <trkpt lat="46.62903" lon="5.21906">
        <ele>178</ele>
        <time>2022-02-16T04:52:49Z</time>
      </trkpt>
      <trkpt lat="46.62902" lon="5.21912">
        <ele>178</ele>
        <time>2022-02-16T04:52:50Z</time>
      </trkpt>
      <trkpt lat="46.62883" lon="5.21932">
        <ele>178</ele>
        <time>2022-02-16T04:52:54Z</time>
      </trkpt>
      <trkpt lat="46.62835" lon="5.21972">
        <ele>178</ele>
        <time>2022-02-16T04:53:04Z</time>
      </trkpt>
      <trkpt lat="46.62783" lon="5.22009">
        <ele>178</ele>
        <time>2022-02-16T04:53:14Z</time>
      </trkpt>
      <trkpt lat="46.62777" lon="5.22017">
        <ele>178</ele>
        <time>2022-02-16T04:53:15Z</time>
      </trkpt>
      <trkpt lat="46.62774" lon="5.22038">
        <ele>178</ele>
        <time>2022-02-16T04:53:18Z</time>
      </trkpt>
      <trkpt lat="46.6278" lon="5.2206">
        <ele>179</ele>
        <time>2022-02-16T04:53:21Z</time>
      </trkpt>
      <trkpt lat="46.62785" lon="5.22071">
        <ele>179</ele>
        <time>2022-02-16T04:53:22Z</time>
      </trkpt>
      <trkpt lat="46.62788" lon="5.22083">
        <ele>179</ele>
        <time>2022-02-16T04:53:24Z</time>
      </trkpt>
      <trkpt lat="46.62791" lon="5.22104">
        <ele>180</ele>
        <time>2022-02-16T04:53:27Z</time>
      </trkpt>
      <trkpt lat="46.62795" lon="5.22116">
        <ele>180</ele>
        <time>2022-02-16T04:53:28Z</time>
      </trkpt>
      <trkpt lat="46.628" lon="5.22124">
        <ele>180</ele>
        <time>2022-02-16T04:53:30Z</time>
      </trkpt>
      <trkpt lat="46.62798" lon="5.22131">
        <ele>181</ele>
        <time>2022-02-16T04:53:30Z</time>
      </trkpt>
      <trkpt lat="46.628" lon="5.22143">
        <ele>181</ele>
        <time>2022-02-16T04:53:32Z</time>
      </trkpt>
      <trkpt lat="46.62803" lon="5.22146">
        <ele>181</ele>
        <time>2022-02-16T04:53:33Z</time>
      </trkpt>
      <trkpt lat="46.62809" lon="5.22148">
        <ele>181</ele>
        <time>2022-02-16T04:53:34Z</time>
      </trkpt>
      <trkpt lat="46.6284" lon="5.22278">
        <ele>183</ele>
        <time>2022-02-16T04:53:51Z</time>
      </trkpt>
      <trkpt lat="46.6284" lon="5.22291">
        <ele>183</ele>
        <time>2022-02-16T04:53:52Z</time>
      </trkpt>
      <trkpt lat="46.62835" lon="5.22299">
        <ele>183</ele>
        <time>2022-02-16T04:53:53Z</time>
      </trkpt>
      <trkpt lat="46.62804" lon="5.22316">
        <ele>182</ele>
        <time>2022-02-16T04:53:59Z</time>
      </trkpt>
      <trkpt lat="46.62817" lon="5.22413">
        <ele>182</ele>
        <time>2022-02-16T04:54:11Z</time>
      </trkpt>
      <trkpt lat="46.62834" lon="5.2259">
        <ele>179</ele>
        <time>2022-02-16T04:54:33Z</time>
      </trkpt>
      <trkpt lat="46.62835" lon="5.22599">
        <ele>179</ele>
        <time>2022-02-16T04:54:34Z</time>
      </trkpt>
      <trkpt lat="46.62837" lon="5.22614">
        <ele>179</ele>
        <time>2022-02-16T04:54:36Z</time>
      </trkpt>
      <trkpt lat="46.62855" lon="5.22784">
        <ele>179</ele>
        <time>2022-02-16T04:54:57Z</time>
      </trkpt>
      <trkpt lat="46.62859" lon="5.22788">
        <ele>179</ele>
        <time>2022-02-16T04:54:58Z</time>
      </trkpt>
      <trkpt lat="46.62887" lon="5.22788">
        <ele>180</ele>
        <time>2022-02-16T04:55:03Z</time>
      </trkpt>
      <trkpt lat="46.62962" lon="5.228">
        <ele>181</ele>
        <time>2022-02-16T04:55:17Z</time>
      </trkpt>
      <trkpt lat="46.62972" lon="5.22829">
        <ele>181</ele>
        <time>2022-02-16T04:55:20Z</time>
      </trkpt>
      <trkpt lat="46.6296" lon="5.22843">
        <ele>181</ele>
        <time>2022-02-16T04:55:23Z</time>
      </trkpt>
      <trkpt lat="46.62946" lon="5.22863">
        <ele>181</ele>
        <time>2022-02-16T04:55:27Z</time>
      </trkpt>
      <trkpt lat="46.62748" lon="5.23252">
        <ele>183</ele>
        <time>2022-02-16T04:56:26Z</time>
      </trkpt>
      <trkpt lat="46.62822" lon="5.2326">
        <ele>182</ele>
        <time>2022-02-16T04:56:39Z</time>
      </trkpt>
      <trkpt lat="46.62838" lon="5.23256">
        <ele>182</ele>
        <time>2022-02-16T04:56:42Z</time>
      </trkpt>
      <trkpt lat="46.62755" lon="5.23405">
        <ele>184</ele>
        <time>2022-02-16T04:57:05Z</time>
      </trkpt>
      <trkpt lat="46.62729" lon="5.23465">
        <ele>185</ele>
        <time>2022-02-16T04:57:14Z</time>
      </trkpt>
      <trkpt lat="46.62714" lon="5.23508">
        <ele>186</ele>
        <time>2022-02-16T04:57:20Z</time>
      </trkpt>
      <trkpt lat="46.62705" lon="5.23543">
        <ele>187</ele>
        <time>2022-02-16T04:57:25Z</time>
      </trkpt>
      <trkpt lat="46.6269" lon="5.2362">
        <ele>188</ele>
        <time>2022-02-16T04:57:34Z</time>
      </trkpt>
      <trkpt lat="46.62684" lon="5.23698">
        <ele>189</ele>
        <time>2022-02-16T04:57:44Z</time>
      </trkpt>
      <trkpt lat="46.62686" lon="5.23754">
        <ele>189</ele>
        <time>2022-02-16T04:57:51Z</time>
      </trkpt>
      <trkpt lat="46.62695" lon="5.23835">
        <ele>187</ele>
        <time>2022-02-16T04:58:01Z</time>
      </trkpt>
      <trkpt lat="46.62704" lon="5.23883">
        <ele>188</ele>
        <time>2022-02-16T04:58:07Z</time>
      </trkpt>
      <trkpt lat="46.62713" lon="5.23915">
        <ele>189</ele>
        <time>2022-02-16T04:58:11Z</time>
      </trkpt>
      <trkpt lat="46.6274" lon="5.23993">
        <ele>190</ele>
        <time>2022-02-16T04:58:22Z</time>
      </trkpt>
      <trkpt lat="46.62754" lon="5.24023">
        <ele>190</ele>
        <time>2022-02-16T04:58:26Z</time>
      </trkpt>
      <trkpt lat="46.62764" lon="5.24031">
        <ele>190</ele>
        <time>2022-02-16T04:58:28Z</time>
      </trkpt>
      <trkpt lat="46.6277" lon="5.24052">
        <ele>190</ele>
        <time>2022-02-16T04:58:31Z</time>
      </trkpt>
      <trkpt lat="46.62861" lon="5.24229">
        <ele>193</ele>
        <time>2022-02-16T04:58:58Z</time>
      </trkpt>
      <trkpt lat="46.62901" lon="5.24309">
        <ele>195</ele>
        <time>2022-02-16T04:59:10Z</time>
      </trkpt>
      <trkpt lat="46.62939" lon="5.24389">
        <ele>194</ele>
        <time>2022-02-16T04:59:22Z</time>
      </trkpt>
      <trkpt lat="46.62949" lon="5.24425">
        <ele>194</ele>
        <time>2022-02-16T04:59:27Z</time>
      </trkpt>
      <trkpt lat="46.62961" lon="5.24473">
        <ele>193</ele>
        <time>2022-02-16T04:59:33Z</time>
      </trkpt>
      <trkpt lat="46.62969" lon="5.24527">
        <ele>193</ele>
        <time>2022-02-16T04:59:40Z</time>
      </trkpt>
      <trkpt lat="46.62972" lon="5.24576">
        <ele>194</ele>
        <time>2022-02-16T04:59:46Z</time>
      </trkpt>
      <trkpt lat="46.62961" lon="5.24727">
        <ele>199</ele>
        <time>2022-02-16T05:00:04Z</time>
      </trkpt>
      <trkpt lat="46.62956" lon="5.24736">
        <ele>199</ele>
        <time>2022-02-16T05:00:06Z</time>
      </trkpt>
      <trkpt lat="46.62954" lon="5.24743">
        <ele>200</ele>
        <time>2022-02-16T05:00:07Z</time>
      </trkpt>
      <trkpt lat="46.62954" lon="5.24756">
        <ele>199</ele>
        <time>2022-02-16T05:00:08Z</time>
      </trkpt>
      <trkpt lat="46.62957" lon="5.24765">
        <ele>199</ele>
        <time>2022-02-16T05:00:09Z</time>
      </trkpt>
      <trkpt lat="46.62961" lon="5.24768">
        <ele>199</ele>
        <time>2022-02-16T05:00:10Z</time>
      </trkpt>
      <trkpt lat="46.62963" lon="5.24787">
        <ele>198</ele>
        <time>2022-02-16T05:00:13Z</time>
      </trkpt>
      <trkpt lat="46.62963" lon="5.24956">
        <ele>192</ele>
        <time>2022-02-16T05:00:33Z</time>
      </trkpt>
      <trkpt lat="46.6295" lon="5.25276">
        <ele>195</ele>
        <time>2022-02-16T05:01:12Z</time>
      </trkpt>
      <trkpt lat="46.62945" lon="5.25335">
        <ele>194</ele>
        <time>2022-02-16T05:01:20Z</time>
      </trkpt>
      <trkpt lat="46.62938" lon="5.25372">
        <ele>193</ele>
        <time>2022-02-16T05:01:24Z</time>
      </trkpt>
      <trkpt lat="46.6293" lon="5.25405">
        <ele>191</ele>
        <time>2022-02-16T05:01:29Z</time>
      </trkpt>
      <trkpt lat="46.629" lon="5.25493">
        <ele>189</ele>
        <time>2022-02-16T05:01:41Z</time>
      </trkpt>
      <trkpt lat="46.62879" lon="5.25546">
        <ele>191</ele>
        <time>2022-02-16T05:01:48Z</time>
      </trkpt>
      <trkpt lat="46.62854" lon="5.25607">
        <ele>192</ele>
        <time>2022-02-16T05:01:57Z</time>
      </trkpt>
      <trkpt lat="46.62834" lon="5.25673">
        <ele>191</ele>
        <time>2022-02-16T05:02:06Z</time>
      </trkpt>
      <trkpt lat="46.6283" lon="5.25697">
        <ele>191</ele>
        <time>2022-02-16T05:02:09Z</time>
      </trkpt>
      <trkpt lat="46.62822" lon="5.25764">
        <ele>190</ele>
        <time>2022-02-16T05:02:17Z</time>
      </trkpt>
      <trkpt lat="46.62812" lon="5.25874">
        <ele>192</ele>
        <time>2022-02-16T05:02:30Z</time>
      </trkpt>
      <trkpt lat="46.62794" lon="5.25986">
        <ele>191</ele>
        <time>2022-02-16T05:02:45Z</time>
      </trkpt>
      <trkpt lat="46.62766" lon="5.26068">
        <ele>187</ele>
        <time>2022-02-16T05:02:56Z</time>
      </trkpt>
      <trkpt lat="46.62726" lon="5.26144">
        <ele>185</ele>
        <time>2022-02-16T05:03:07Z</time>
      </trkpt>
      <trkpt lat="46.62699" lon="5.26188">
        <ele>185</ele>
        <time>2022-02-16T05:03:15Z</time>
      </trkpt>
      <trkpt lat="46.62689" lon="5.26203">
        <ele>186</ele>
        <time>2022-02-16T05:03:17Z</time>
      </trkpt>
      <trkpt lat="46.62663" lon="5.2624">
        <ele>186</ele>
        <time>2022-02-16T05:03:24Z</time>
      </trkpt>
      <trkpt lat="46.62642" lon="5.26276">
        <ele>186</ele>
        <time>2022-02-16T05:03:29Z</time>
      </trkpt>
      <trkpt lat="46.62624" lon="5.26312">
        <ele>185</ele>
        <time>2022-02-16T05:03:35Z</time>
      </trkpt>
      <trkpt lat="46.62606" lon="5.26358">
        <ele>185</ele>
        <time>2022-02-16T05:03:41Z</time>
      </trkpt>
      <trkpt lat="46.62593" lon="5.26397">
        <ele>185</ele>
        <time>2022-02-16T05:03:47Z</time>
      </trkpt>
      <trkpt lat="46.62576" lon="5.26472">
        <ele>184</ele>
        <time>2022-02-16T05:03:56Z</time>
      </trkpt>
      <trkpt lat="46.62566" lon="5.26555">
        <ele>185</ele>
        <time>2022-02-16T05:04:07Z</time>
      </trkpt>
      <trkpt lat="46.62565" lon="5.2662">
        <ele>185</ele>
        <time>2022-02-16T05:04:15Z</time>
      </trkpt>
      <trkpt lat="46.62571" lon="5.2669">
        <ele>186</ele>
        <time>2022-02-16T05:04:23Z</time>
      </trkpt>
      <trkpt lat="46.62578" lon="5.26744">
        <ele>189</ele>
        <time>2022-02-16T05:04:30Z</time>
      </trkpt>
      <trkpt lat="46.62586" lon="5.26782">
        <ele>189</ele>
        <time>2022-02-16T05:04:35Z</time>
      </trkpt>
      <trkpt lat="46.62623" lon="5.2688">
        <ele>189</ele>
        <time>2022-02-16T05:04:48Z</time>
      </trkpt>
      <trkpt lat="46.62641" lon="5.26919">
        <ele>187</ele>
        <time>2022-02-16T05:04:54Z</time>
      </trkpt>
      <trkpt lat="46.62789" lon="5.27221">
        <ele>185</ele>
        <time>2022-02-16T05:05:39Z</time>
      </trkpt>
      <trkpt lat="46.628" lon="5.2724">
        <ele>186</ele>
        <time>2022-02-16T05:05:43Z</time>
      </trkpt>
      <trkpt lat="46.62817" lon="5.27267">
        <ele>187</ele>
        <time>2022-02-16T05:05:47Z</time>
      </trkpt>
      <trkpt lat="46.62897" lon="5.27375">
        <ele>189</ele>
        <time>2022-02-16T05:06:06Z</time>
      </trkpt>
      <trkpt lat="46.62927" lon="5.27412">
        <ele>188</ele>
        <time>2022-02-16T05:06:13Z</time>
      </trkpt>
      <trkpt lat="46.62945" lon="5.2744">
        <ele>189</ele>
        <time>2022-02-16T05:06:18Z</time>
      </trkpt>
      <trkpt lat="46.62978" lon="5.27503">
        <ele>191</ele>
        <time>2022-02-16T05:06:28Z</time>
      </trkpt>
      <trkpt lat="46.62994" lon="5.2754">
        <ele>192</ele>
        <time>2022-02-16T05:06:33Z</time>
      </trkpt>
      <trkpt lat="46.6303" lon="5.27646">
        <ele>193</ele>
        <time>2022-02-16T05:06:48Z</time>
      </trkpt>
      <trkpt lat="46.63089" lon="5.27846">
        <ele>193</ele>
        <time>2022-02-16T05:07:14Z</time>
      </trkpt>
      <trkpt lat="46.63143" lon="5.2796">
        <ele>193</ele>
        <time>2022-02-16T05:07:31Z</time>
      </trkpt>
      <trkpt lat="46.63156" lon="5.27983">
        <ele>193</ele>
        <time>2022-02-16T05:07:35Z</time>
      </trkpt>
      <trkpt lat="46.63187" lon="5.28028">
        <ele>193</ele>
        <time>2022-02-16T05:07:42Z</time>
      </trkpt>
      <trkpt lat="46.63214" lon="5.28061">
        <ele>192</ele>
        <time>2022-02-16T05:07:49Z</time>
      </trkpt>
      <trkpt lat="46.63272" lon="5.28122">
        <ele>189</ele>
        <time>2022-02-16T05:08:02Z</time>
      </trkpt>
      <trkpt lat="46.63328" lon="5.28174">
        <ele>185</ele>
        <time>2022-02-16T05:08:13Z</time>
      </trkpt>
      <trkpt lat="46.63341" lon="5.28186">
        <ele>185</ele>
        <time>2022-02-16T05:08:16Z</time>
      </trkpt>
      <trkpt lat="46.6346" lon="5.28302">
        <ele>186</ele>
        <time>2022-02-16T05:08:42Z</time>
      </trkpt>
      <trkpt lat="46.63564" lon="5.28407">
        <ele>185</ele>
        <time>2022-02-16T05:09:04Z</time>
      </trkpt>
      <trkpt lat="46.63619" lon="5.28473">
        <ele>185</ele>
        <time>2022-02-16T05:09:17Z</time>
      </trkpt>
      <trkpt lat="46.63644" lon="5.28513">
        <ele>185</ele>
        <time>2022-02-16T05:09:23Z</time>
      </trkpt>
      <trkpt lat="46.63678" lon="5.28589">
        <ele>185</ele>
        <time>2022-02-16T05:09:34Z</time>
      </trkpt>
      <trkpt lat="46.63689" lon="5.28617">
        <ele>185</ele>
        <time>2022-02-16T05:09:38Z</time>
      </trkpt>
      <trkpt lat="46.63697" lon="5.28647">
        <ele>185</ele>
        <time>2022-02-16T05:09:42Z</time>
      </trkpt>
      <trkpt lat="46.63713" lon="5.28717">
        <ele>189</ele>
        <time>2022-02-16T05:09:51Z</time>
      </trkpt>
      <trkpt lat="46.63719" lon="5.28767">
        <ele>191</ele>
        <time>2022-02-16T05:09:58Z</time>
      </trkpt>
      <trkpt lat="46.63723" lon="5.28823">
        <ele>192</ele>
        <time>2022-02-16T05:10:04Z</time>
      </trkpt>
      <trkpt lat="46.63721" lon="5.28873">
        <ele>193</ele>
        <time>2022-02-16T05:10:11Z</time>
      </trkpt>
      <trkpt lat="46.63718" lon="5.28916">
        <ele>193</ele>
        <time>2022-02-16T05:10:16Z</time>
      </trkpt>
      <trkpt lat="46.63697" lon="5.29104">
        <ele>186</ele>
        <time>2022-02-16T05:10:39Z</time>
      </trkpt>
      <trkpt lat="46.63696" lon="5.29191">
        <ele>185</ele>
        <time>2022-02-16T05:10:50Z</time>
      </trkpt>
      <trkpt lat="46.63698" lon="5.29226">
        <ele>185</ele>
        <time>2022-02-16T05:10:54Z</time>
      </trkpt>
      <trkpt lat="46.63705" lon="5.29288">
        <ele>185</ele>
        <time>2022-02-16T05:11:02Z</time>
      </trkpt>
      <trkpt lat="46.63721" lon="5.29367">
        <ele>186</ele>
        <time>2022-02-16T05:11:12Z</time>
      </trkpt>
      <trkpt lat="46.63733" lon="5.29416">
        <ele>187</ele>
        <time>2022-02-16T05:11:18Z</time>
      </trkpt>
      <trkpt lat="46.63767" lon="5.29533">
        <ele>185</ele>
        <time>2022-02-16T05:11:34Z</time>
      </trkpt>
      <trkpt lat="46.63781" lon="5.29597">
        <ele>184</ele>
        <time>2022-02-16T05:11:42Z</time>
      </trkpt>
      <trkpt lat="46.63804" lon="5.29756">
        <ele>186</ele>
        <time>2022-02-16T05:12:02Z</time>
      </trkpt>
      <trkpt lat="46.63809" lon="5.29834">
        <ele>188</ele>
        <time>2022-02-16T05:12:11Z</time>
      </trkpt>
      <trkpt lat="46.63808" lon="5.29879">
        <ele>190</ele>
        <time>2022-02-16T05:12:17Z</time>
      </trkpt>
      <trkpt lat="46.63804" lon="5.29929">
        <ele>191</ele>
        <time>2022-02-16T05:12:23Z</time>
      </trkpt>
      <trkpt lat="46.63792" lon="5.29994">
        <ele>190</ele>
        <time>2022-02-16T05:12:31Z</time>
      </trkpt>
      <trkpt lat="46.6378" lon="5.30041">
        <ele>189</ele>
        <time>2022-02-16T05:12:37Z</time>
      </trkpt>
      <trkpt lat="46.63766" lon="5.30087">
        <ele>188</ele>
        <time>2022-02-16T05:12:43Z</time>
      </trkpt>
      <trkpt lat="46.63748" lon="5.30124">
        <ele>189</ele>
        <time>2022-02-16T05:12:49Z</time>
      </trkpt>
      <trkpt lat="46.63674" lon="5.30258">
        <ele>189</ele>
        <time>2022-02-16T05:13:10Z</time>
      </trkpt>
      <trkpt lat="46.63655" lon="5.30299">
        <ele>188</ele>
        <time>2022-02-16T05:13:16Z</time>
      </trkpt>
      <trkpt lat="46.63634" lon="5.30356">
        <ele>188</ele>
        <time>2022-02-16T05:13:24Z</time>
      </trkpt>
      <trkpt lat="46.63619" lon="5.304">
        <ele>188</ele>
        <time>2022-02-16T05:13:30Z</time>
      </trkpt>
      <trkpt lat="46.63609" lon="5.30442">
        <ele>188</ele>
        <time>2022-02-16T05:13:35Z</time>
      </trkpt>
      <trkpt lat="46.63598" lon="5.30503">
        <ele>187</ele>
        <time>2022-02-16T05:13:43Z</time>
      </trkpt>
      <trkpt lat="46.63592" lon="5.30544">
        <ele>186</ele>
        <time>2022-02-16T05:13:48Z</time>
      </trkpt>
      <trkpt lat="46.63588" lon="5.30625">
        <ele>187</ele>
        <time>2022-02-16T05:13:58Z</time>
      </trkpt>
      <trkpt lat="46.63589" lon="5.30698">
        <ele>188</ele>
        <time>2022-02-16T05:14:07Z</time>
      </trkpt>
      <trkpt lat="46.63594" lon="5.30753">
        <ele>188</ele>
        <time>2022-02-16T05:14:14Z</time>
      </trkpt>
      <trkpt lat="46.63658" lon="5.31228">
        <ele>186</ele>
        <time>2022-02-16T05:15:13Z</time>
      </trkpt>
      <trkpt lat="46.63664" lon="5.31264">
        <ele>186</ele>
        <time>2022-02-16T05:15:17Z</time>
      </trkpt>
      <trkpt lat="46.63673" lon="5.31302">
        <ele>187</ele>
        <time>2022-02-16T05:15:22Z</time>
      </trkpt>
      <trkpt lat="46.63686" lon="5.31348">
        <ele>188</ele>
        <time>2022-02-16T05:15:28Z</time>
      </trkpt>
      <trkpt lat="46.63713" lon="5.31423">
        <ele>188</ele>
        <time>2022-02-16T05:15:39Z</time>
      </trkpt>
      <trkpt lat="46.63831" lon="5.31711">
        <ele>189</ele>
        <time>2022-02-16T05:16:20Z</time>
      </trkpt>
      <trkpt lat="46.63849" lon="5.31748">
        <ele>189</ele>
        <time>2022-02-16T05:16:25Z</time>
      </trkpt>
      <trkpt lat="46.63867" lon="5.31782">
        <ele>188</ele>
        <time>2022-02-16T05:16:30Z</time>
      </trkpt>
      <trkpt lat="46.63886" lon="5.31812">
        <ele>188</ele>
        <time>2022-02-16T05:16:35Z</time>
      </trkpt>
      <trkpt lat="46.63909" lon="5.31845">
        <ele>188</ele>
        <time>2022-02-16T05:16:41Z</time>
      </trkpt>
      <trkpt lat="46.6395" lon="5.31889">
        <ele>187</ele>
        <time>2022-02-16T05:16:50Z</time>
      </trkpt>
      <trkpt lat="46.64052" lon="5.31985">
        <ele>188</ele>
        <time>2022-02-16T05:17:12Z</time>
      </trkpt>
      <trkpt lat="46.64085" lon="5.32027">
        <ele>189</ele>
        <time>2022-02-16T05:17:20Z</time>
      </trkpt>
      <trkpt lat="46.64106" lon="5.3206">
        <ele>190</ele>
        <time>2022-02-16T05:17:25Z</time>
      </trkpt>
      <trkpt lat="46.64137" lon="5.32121">
        <ele>190</ele>
        <time>2022-02-16T05:17:34Z</time>
      </trkpt>
      <trkpt lat="46.6415" lon="5.32155">
        <ele>190</ele>
        <time>2022-02-16T05:17:39Z</time>
      </trkpt>
      <trkpt lat="46.64168" lon="5.32208">
        <ele>188</ele>
        <time>2022-02-16T05:17:46Z</time>
      </trkpt>
      <trkpt lat="46.6418" lon="5.32267">
        <ele>188</ele>
        <time>2022-02-16T05:17:54Z</time>
      </trkpt>
      <trkpt lat="46.64189" lon="5.32338">
        <ele>189</ele>
        <time>2022-02-16T05:18:03Z</time>
      </trkpt>
      <trkpt lat="46.64212" lon="5.32666">
        <ele>189</ele>
        <time>2022-02-16T05:18:43Z</time>
      </trkpt>
      <trkpt lat="46.64223" lon="5.32796">
        <ele>187</ele>
        <time>2022-02-16T05:18:59Z</time>
      </trkpt>
      <trkpt lat="46.64228" lon="5.3284">
        <ele>188</ele>
        <time>2022-02-16T05:19:04Z</time>
      </trkpt>
      <trkpt lat="46.64236" lon="5.32888">
        <ele>187</ele>
        <time>2022-02-16T05:19:11Z</time>
      </trkpt>
      <trkpt lat="46.64248" lon="5.32947">
        <ele>187</ele>
        <time>2022-02-16T05:19:18Z</time>
      </trkpt>
      <trkpt lat="46.64293" lon="5.33146">
        <ele>188</ele>
        <time>2022-02-16T05:19:44Z</time>
      </trkpt>
      <trkpt lat="46.64301" lon="5.33197">
        <ele>189</ele>
        <time>2022-02-16T05:19:50Z</time>
      </trkpt>
      <trkpt lat="46.64305" lon="5.33245">
        <ele>189</ele>
        <time>2022-02-16T05:19:56Z</time>
      </trkpt>
      <trkpt lat="46.64307" lon="5.33286">
        <ele>189</ele>
        <time>2022-02-16T05:20:01Z</time>
      </trkpt>
      <trkpt lat="46.64306" lon="5.33334">
        <ele>189</ele>
        <time>2022-02-16T05:20:07Z</time>
      </trkpt>
      <trkpt lat="46.64302" lon="5.33391">
        <ele>190</ele>
        <time>2022-02-16T05:20:14Z</time>
      </trkpt>
      <trkpt lat="46.64297" lon="5.33436">
        <ele>190</ele>
        <time>2022-02-16T05:20:19Z</time>
      </trkpt>
      <trkpt lat="46.64268" lon="5.33615">
        <ele>188</ele>
        <time>2022-02-16T05:20:42Z</time>
      </trkpt>
      <trkpt lat="46.64256" lon="5.33705">
        <ele>188</ele>
        <time>2022-02-16T05:20:53Z</time>
      </trkpt>
      <trkpt lat="46.6425" lon="5.33805">
        <ele>188</ele>
        <time>2022-02-16T05:21:05Z</time>
      </trkpt>
      <trkpt lat="46.6425" lon="5.33843">
        <ele>188</ele>
        <time>2022-02-16T05:21:10Z</time>
      </trkpt>
      <trkpt lat="46.64253" lon="5.33917">
        <ele>189</ele>
        <time>2022-02-16T05:21:19Z</time>
      </trkpt>
      <trkpt lat="46.64256" lon="5.33956">
        <ele>189</ele>
        <time>2022-02-16T05:21:24Z</time>
      </trkpt>
      <trkpt lat="46.6427" lon="5.34055">
        <ele>190</ele>
        <time>2022-02-16T05:21:36Z</time>
      </trkpt>
      <trkpt lat="46.64309" lon="5.34232">
        <ele>193</ele>
        <time>2022-02-16T05:21:59Z</time>
      </trkpt>
      <trkpt lat="46.64336" lon="5.34338">
        <ele>194</ele>
        <time>2022-02-16T05:22:13Z</time>
      </trkpt>
      <trkpt lat="46.64347" lon="5.34373">
        <ele>195</ele>
        <time>2022-02-16T05:22:17Z</time>
      </trkpt>
      <trkpt lat="46.64382" lon="5.3447">
        <ele>195</ele>
        <time>2022-02-16T05:22:31Z</time>
      </trkpt>
      <trkpt lat="46.644" lon="5.34511">
        <ele>195</ele>
        <time>2022-02-16T05:22:37Z</time>
      </trkpt>
      <trkpt lat="46.64515" lon="5.34749">
        <ele>193</ele>
        <time>2022-02-16T05:23:12Z</time>
      </trkpt>
      <trkpt lat="46.64546" lon="5.34832">
        <ele>192</ele>
        <time>2022-02-16T05:23:24Z</time>
      </trkpt>
      <trkpt lat="46.64555" lon="5.34862">
        <ele>191</ele>
        <time>2022-02-16T05:23:28Z</time>
      </trkpt>
      <trkpt lat="46.64618" lon="5.35127">
        <ele>191</ele>
        <time>2022-02-16T05:24:02Z</time>
      </trkpt>
      <trkpt lat="46.64635" lon="5.35206">
        <ele>192</ele>
        <time>2022-02-16T05:24:12Z</time>
      </trkpt>
      <trkpt lat="46.6464" lon="5.35256">
        <ele>191</ele>
        <time>2022-02-16T05:24:18Z</time>
      </trkpt>
      <trkpt lat="46.64645" lon="5.35319">
        <ele>192</ele>
        <time>2022-02-16T05:24:26Z</time>
      </trkpt>
      <trkpt lat="46.64646" lon="5.35367">
        <ele>191</ele>
        <time>2022-02-16T05:24:32Z</time>
      </trkpt>
      <trkpt lat="46.64408" lon="5.3577">
        <ele>202</ele>
        <time>2022-02-16T05:25:37Z</time>
      </trkpt>
      <trkpt lat="46.64399" lon="5.3581">
        <ele>202</ele>
        <time>2022-02-16T05:25:42Z</time>
      </trkpt>
      <trkpt lat="46.6431" lon="5.36517">
        <ele>201</ele>
        <time>2022-02-16T05:27:10Z</time>
      </trkpt>
      <trkpt lat="46.64307" lon="5.36556">
        <ele>202</ele>
        <time>2022-02-16T05:27:15Z</time>
      </trkpt>
      <trkpt lat="46.64312" lon="5.37049">
        <ele>207</ele>
        <time>2022-02-16T05:28:15Z</time>
      </trkpt>
      <trkpt lat="46.64332" lon="5.38247">
        <ele>212</ele>
        <time>2022-02-16T05:30:41Z</time>
      </trkpt>
      <trkpt lat="46.64331" lon="5.38347">
        <ele>213</ele>
        <time>2022-02-16T05:30:53Z</time>
      </trkpt>
      <trkpt lat="46.64326" lon="5.38429">
        <ele>211</ele>
        <time>2022-02-16T05:31:04Z</time>
      </trkpt>
      <trkpt lat="46.64335" lon="5.38623">
        <ele>206</ele>
        <time>2022-02-16T05:31:27Z</time>
      </trkpt>
      <trkpt lat="46.64338" lon="5.38647">
        <ele>205</ele>
        <time>2022-02-16T05:31:30Z</time>
      </trkpt>
      <trkpt lat="46.64356" lon="5.38734">
        <ele>203</ele>
        <time>2022-02-16T05:31:41Z</time>
      </trkpt>
      <trkpt lat="46.64358" lon="5.38757">
        <ele>202</ele>
        <time>2022-02-16T05:31:44Z</time>
      </trkpt>
      <trkpt lat="46.64354" lon="5.38775">
        <ele>201</ele>
        <time>2022-02-16T05:31:46Z</time>
      </trkpt>
      <trkpt lat="46.64347" lon="5.38793">
        <ele>200</ele>
        <time>2022-02-16T05:31:49Z</time>
      </trkpt>
      <trkpt lat="46.64324" lon="5.38833">
        <ele>199</ele>
        <time>2022-02-16T05:31:55Z</time>
      </trkpt>
      <trkpt lat="46.64281" lon="5.38938">
        <ele>199</ele>
        <time>2022-02-16T05:32:10Z</time>
      </trkpt>
      <trkpt lat="46.64263" lon="5.38996">
        <ele>200</ele>
        <time>2022-02-16T05:32:18Z</time>
      </trkpt>
      <trkpt lat="46.64231" lon="5.39151">
        <ele>207</ele>
        <time>2022-02-16T05:32:38Z</time>
      </trkpt>
      <trkpt lat="46.64063" lon="5.39815">
        <ele>212</ele>
        <time>2022-02-16T05:34:04Z</time>
      </trkpt>
      <trkpt lat="46.64049" lon="5.3987">
        <ele>212</ele>
        <time>2022-02-16T05:34:11Z</time>
      </trkpt>
      <trkpt lat="46.63996" lon="5.40079">
        <ele>219</ele>
        <time>2022-02-16T05:34:39Z</time>
      </trkpt>
      <trkpt lat="46.639" lon="5.40471">
        <ele>209</ele>
        <time>2022-02-16T05:35:30Z</time>
      </trkpt>
      <trkpt lat="46.63886" lon="5.40518">
        <ele>209</ele>
        <time>2022-02-16T05:35:36Z</time>
      </trkpt>
      <trkpt lat="46.63832" lon="5.40663">
        <ele>207</ele>
        <time>2022-02-16T05:35:56Z</time>
      </trkpt>
      <trkpt lat="46.63807" lon="5.40755">
        <ele>209</ele>
        <time>2022-02-16T05:36:08Z</time>
      </trkpt>
      <trkpt lat="46.63753" lon="5.40935">
        <ele>211</ele>
        <time>2022-02-16T05:36:32Z</time>
      </trkpt>
      <trkpt lat="46.63433" lon="5.41956">
        <ele>217</ele>
        <time>2022-02-16T05:38:49Z</time>
      </trkpt>
      <trkpt lat="46.63447" lon="5.41963">
        <ele>217</ele>
        <time>2022-02-16T05:38:52Z</time>
      </trkpt>
      <trkpt lat="46.63472" lon="5.41982">
        <ele>217</ele>
        <time>2022-02-16T05:38:57Z</time>
      </trkpt>
      <trkpt lat="46.63498" lon="5.42006">
        <ele>217</ele>
        <time>2022-02-16T05:39:02Z</time>
      </trkpt>
      <trkpt lat="46.63518" lon="5.42019">
        <ele>218</ele>
        <time>2022-02-16T05:39:06Z</time>
      </trkpt>
      <trkpt lat="46.6355" lon="5.42036">
        <ele>218</ele>
        <time>2022-02-16T05:39:12Z</time>
      </trkpt>
      <trkpt lat="46.63573" lon="5.42058">
        <ele>218</ele>
        <time>2022-02-16T05:39:17Z</time>
      </trkpt>
      <trkpt lat="46.63581" lon="5.42071">
        <ele>218</ele>
        <time>2022-02-16T05:39:19Z</time>
      </trkpt>
      <trkpt lat="46.63587" lon="5.42085">
        <ele>218</ele>
        <time>2022-02-16T05:39:21Z</time>
      </trkpt>
      <trkpt lat="46.63597" lon="5.42119">
        <ele>218</ele>
        <time>2022-02-16T05:39:26Z</time>
      </trkpt>
      <trkpt lat="46.63602" lon="5.42127">
        <ele>218</ele>
        <time>2022-02-16T05:39:27Z</time>
      </trkpt>
      <trkpt lat="46.63608" lon="5.42133">
        <ele>218</ele>
        <time>2022-02-16T05:39:28Z</time>
      </trkpt>
      <trkpt lat="46.6366" lon="5.42154">
        <ele>219</ele>
        <time>2022-02-16T05:39:38Z</time>
      </trkpt>
      <trkpt lat="46.63674" lon="5.42163">
        <ele>219</ele>
        <time>2022-02-16T05:39:41Z</time>
      </trkpt>
      <trkpt lat="46.6371" lon="5.42189">
        <ele>218</ele>
        <time>2022-02-16T05:39:48Z</time>
      </trkpt>
      <trkpt lat="46.6374" lon="5.42216">
        <ele>219</ele>
        <time>2022-02-16T05:39:54Z</time>
      </trkpt>
      <trkpt lat="46.6375" lon="5.42233">
        <ele>219</ele>
        <time>2022-02-16T05:39:57Z</time>
      </trkpt>
      <trkpt lat="46.63752" lon="5.4224">
        <ele>219</ele>
        <time>2022-02-16T05:39:58Z</time>
      </trkpt>
      <trkpt lat="46.63751" lon="5.42262">
        <ele>219</ele>
        <time>2022-02-16T05:40:01Z</time>
      </trkpt>
      <trkpt lat="46.63755" lon="5.42278">
        <ele>219</ele>
        <time>2022-02-16T05:40:03Z</time>
      </trkpt>
      <trkpt lat="46.63765" lon="5.42294">
        <ele>219</ele>
        <time>2022-02-16T05:40:05Z</time>
      </trkpt>
      <trkpt lat="46.63815" lon="5.42344">
        <ele>220</ele>
        <time>2022-02-16T05:40:16Z</time>
      </trkpt>
      <trkpt lat="46.63859" lon="5.4242">
        <ele>221</ele>
        <time>2022-02-16T05:40:28Z</time>
      </trkpt>
      <trkpt lat="46.63881" lon="5.42463">
        <ele>220</ele>
        <time>2022-02-16T05:40:35Z</time>
      </trkpt>
      <trkpt lat="46.63888" lon="5.42482">
        <ele>220</ele>
        <time>2022-02-16T05:40:37Z</time>
      </trkpt>
      <trkpt lat="46.63894" lon="5.42511">
        <ele>219</ele>
        <time>2022-02-16T05:40:41Z</time>
      </trkpt>
      <trkpt lat="46.63899" lon="5.42523">
        <ele>219</ele>
        <time>2022-02-16T05:40:43Z</time>
      </trkpt>
      <trkpt lat="46.6391" lon="5.4254">
        <ele>219</ele>
        <time>2022-02-16T05:40:46Z</time>
      </trkpt>
      <trkpt lat="46.63935" lon="5.4257">
        <ele>219</ele>
        <time>2022-02-16T05:40:51Z</time>
      </trkpt>
      <trkpt lat="46.63992" lon="5.42629">
        <ele>218</ele>
        <time>2022-02-16T05:41:04Z</time>
      </trkpt>
      <trkpt lat="46.64004" lon="5.42643">
        <ele>218</ele>
        <time>2022-02-16T05:41:07Z</time>
      </trkpt>
      <trkpt lat="46.64009" lon="5.4265">
        <ele>218</ele>
        <time>2022-02-16T05:41:08Z</time>
      </trkpt>
      <trkpt lat="46.64032" lon="5.42702">
        <ele>216</ele>
        <time>2022-02-16T05:41:15Z</time>
      </trkpt>
      <trkpt lat="46.64048" lon="5.42726">
        <ele>216</ele>
        <time>2022-02-16T05:41:19Z</time>
      </trkpt>
      <trkpt lat="46.64069" lon="5.42753">
        <ele>216</ele>
        <time>2022-02-16T05:41:24Z</time>
      </trkpt>
      <trkpt lat="46.64087" lon="5.42772">
        <ele>215</ele>
        <time>2022-02-16T05:41:28Z</time>
      </trkpt>
      <trkpt lat="46.64102" lon="5.42783">
        <ele>215</ele>
        <time>2022-02-16T05:41:31Z</time>
      </trkpt>
      <trkpt lat="46.64114" lon="5.42792">
        <ele>215</ele>
        <time>2022-02-16T05:41:34Z</time>
      </trkpt>
      <trkpt lat="46.64138" lon="5.42804">
        <ele>216</ele>
        <time>2022-02-16T05:41:38Z</time>
      </trkpt>
      <trkpt lat="46.64148" lon="5.42817">
        <ele>216</ele>
        <time>2022-02-16T05:41:41Z</time>
      </trkpt>
      <trkpt lat="46.64168" lon="5.42854">
        <ele>216</ele>
        <time>2022-02-16T05:41:46Z</time>
      </trkpt>
      <trkpt lat="46.64176" lon="5.42876">
        <ele>215</ele>
        <time>2022-02-16T05:41:49Z</time>
      </trkpt>
      <trkpt lat="46.64191" lon="5.42925">
        <ele>215</ele>
        <time>2022-02-16T05:41:56Z</time>
      </trkpt>
      <trkpt lat="46.64204" lon="5.42955">
        <ele>215</ele>
        <time>2022-02-16T05:42:00Z</time>
      </trkpt>
      <trkpt lat="46.64209" lon="5.42974">
        <ele>216</ele>
        <time>2022-02-16T05:42:03Z</time>
      </trkpt>
      <trkpt lat="46.6421" lon="5.42988">
        <ele>216</ele>
        <time>2022-02-16T05:42:05Z</time>
      </trkpt>
      <trkpt lat="46.64209" lon="5.43005">
        <ele>216</ele>
        <time>2022-02-16T05:42:07Z</time>
      </trkpt>
      <trkpt lat="46.64205" lon="5.43024">
        <ele>216</ele>
        <time>2022-02-16T05:42:09Z</time>
      </trkpt>
      <trkpt lat="46.64193" lon="5.43061">
        <ele>217</ele>
        <time>2022-02-16T05:42:14Z</time>
      </trkpt>
      <trkpt lat="46.64188" lon="5.43084">
        <ele>218</ele>
        <time>2022-02-16T05:42:17Z</time>
      </trkpt>
      <trkpt lat="46.64185" lon="5.43119">
        <ele>218</ele>
        <time>2022-02-16T05:42:21Z</time>
      </trkpt>
      <trkpt lat="46.64188" lon="5.43139">
        <ele>218</ele>
        <time>2022-02-16T05:42:24Z</time>
      </trkpt>
      <trkpt lat="46.64195" lon="5.43164">
        <ele>218</ele>
        <time>2022-02-16T05:42:27Z</time>
      </trkpt>
      <trkpt lat="46.64207" lon="5.43198">
        <ele>217</ele>
        <time>2022-02-16T05:42:32Z</time>
      </trkpt>
      <trkpt lat="46.64231" lon="5.43243">
        <ele>217</ele>
        <time>2022-02-16T05:42:39Z</time>
      </trkpt>
      <trkpt lat="46.64272" lon="5.43313">
        <ele>215</ele>
        <time>2022-02-16T05:42:50Z</time>
      </trkpt>
      <trkpt lat="46.64316" lon="5.43381">
        <ele>212</ele>
        <time>2022-02-16T05:43:01Z</time>
      </trkpt>
      <trkpt lat="46.6434" lon="5.43404">
        <ele>212</ele>
        <time>2022-02-16T05:43:07Z</time>
      </trkpt>
      <trkpt lat="46.64364" lon="5.43417">
        <ele>212</ele>
        <time>2022-02-16T05:43:11Z</time>
      </trkpt>
      <trkpt lat="46.64396" lon="5.4343">
        <ele>212</ele>
        <time>2022-02-16T05:43:17Z</time>
      </trkpt>
      <trkpt lat="46.64431" lon="5.4344">
        <ele>212</ele>
        <time>2022-02-16T05:43:23Z</time>
      </trkpt>
      <trkpt lat="46.64449" lon="5.43448">
        <ele>212</ele>
        <time>2022-02-16T05:43:27Z</time>
      </trkpt>
      <trkpt lat="46.64469" lon="5.43464">
        <ele>212</ele>
        <time>2022-02-16T05:43:31Z</time>
      </trkpt>
      <trkpt lat="46.64556" lon="5.43552">
        <ele>214</ele>
        <time>2022-02-16T05:43:50Z</time>
      </trkpt>
      <trkpt lat="46.64575" lon="5.43566">
        <ele>215</ele>
        <time>2022-02-16T05:43:53Z</time>
      </trkpt>
      <trkpt lat="46.64617" lon="5.43581">
        <ele>217</ele>
        <time>2022-02-16T05:44:01Z</time>
      </trkpt>
      <trkpt lat="46.64629" lon="5.43588">
        <ele>217</ele>
        <time>2022-02-16T05:44:03Z</time>
      </trkpt>
      <trkpt lat="46.64679" lon="5.43631">
        <ele>218</ele>
        <time>2022-02-16T05:44:14Z</time>
      </trkpt>
      <trkpt lat="46.64766" lon="5.43677">
        <ele>221</ele>
        <time>2022-02-16T05:44:30Z</time>
      </trkpt>
      <trkpt lat="46.6478" lon="5.43691">
        <ele>221</ele>
        <time>2022-02-16T05:44:33Z</time>
      </trkpt>
      <trkpt lat="46.64794" lon="5.43713">
        <ele>221</ele>
        <time>2022-02-16T05:44:37Z</time>
      </trkpt>
      <trkpt lat="46.64803" lon="5.43737">
        <ele>221</ele>
        <time>2022-02-16T05:44:40Z</time>
      </trkpt>
      <trkpt lat="46.64813" lon="5.43785">
        <ele>220</ele>
        <time>2022-02-16T05:44:46Z</time>
      </trkpt>
      <trkpt lat="46.64818" lon="5.43797">
        <ele>220</ele>
        <time>2022-02-16T05:44:48Z</time>
      </trkpt>
      <trkpt lat="46.6483" lon="5.43817">
        <ele>220</ele>
        <time>2022-02-16T05:44:51Z</time>
      </trkpt>
      <trkpt lat="46.64882" lon="5.43861">
        <ele>219</ele>
        <time>2022-02-16T05:45:02Z</time>
      </trkpt>
      <trkpt lat="46.64895" lon="5.43882">
        <ele>219</ele>
        <time>2022-02-16T05:45:05Z</time>
      </trkpt>
      <trkpt lat="46.64911" lon="5.43886">
        <ele>219</ele>
        <time>2022-02-16T05:45:08Z</time>
      </trkpt>
      <trkpt lat="46.64928" lon="5.439">
        <ele>219</ele>
        <time>2022-02-16T05:45:12Z</time>
      </trkpt>
      <trkpt lat="46.64996" lon="5.43972">
        <ele>220</ele>
        <time>2022-02-16T05:45:27Z</time>
      </trkpt>
      <trkpt lat="46.6503" lon="5.44005">
        <ele>220</ele>
        <time>2022-02-16T05:45:34Z</time>
      </trkpt>
      <trkpt lat="46.65048" lon="5.44012">
        <ele>220</ele>
        <time>2022-02-16T05:45:37Z</time>
      </trkpt>
      <trkpt lat="46.6508" lon="5.44012">
        <ele>220</ele>
        <time>2022-02-16T05:45:43Z</time>
      </trkpt>
      <trkpt lat="46.65097" lon="5.44017">
        <ele>220</ele>
        <time>2022-02-16T05:45:46Z</time>
      </trkpt>
      <trkpt lat="46.65106" lon="5.44023">
        <ele>220</ele>
        <time>2022-02-16T05:45:48Z</time>
      </trkpt>
      <trkpt lat="46.65155" lon="5.44089">
        <ele>221</ele>
        <time>2022-02-16T05:46:00Z</time>
      </trkpt>
      <trkpt lat="46.65235" lon="5.44217">
        <ele>220</ele>
        <time>2022-02-16T05:46:21Z</time>
      </trkpt>
      <trkpt lat="46.65258" lon="5.44243">
        <ele>221</ele>
        <time>2022-02-16T05:46:26Z</time>
      </trkpt>
      <trkpt lat="46.65329" lon="5.44292">
        <ele>222</ele>
        <time>2022-02-16T05:46:40Z</time>
      </trkpt>
      <trkpt lat="46.65364" lon="5.44326">
        <ele>222</ele>
        <time>2022-02-16T05:46:48Z</time>
      </trkpt>
      <trkpt lat="46.6539" lon="5.44354">
        <ele>222</ele>
        <time>2022-02-16T05:46:53Z</time>
      </trkpt>
      <trkpt lat="46.65421" lon="5.44395">
        <ele>221</ele>
        <time>2022-02-16T05:47:01Z</time>
      </trkpt>
      <trkpt lat="46.65447" lon="5.4444">
        <ele>220</ele>
        <time>2022-02-16T05:47:08Z</time>
      </trkpt>
      <trkpt lat="46.65457" lon="5.4445">
        <ele>220</ele>
        <time>2022-02-16T05:47:10Z</time>
      </trkpt>
      <trkpt lat="46.65468" lon="5.4446">
        <ele>220</ele>
        <time>2022-02-16T05:47:12Z</time>
      </trkpt>
      <trkpt lat="46.6551" lon="5.44486">
        <ele>220</ele>
        <time>2022-02-16T05:47:21Z</time>
      </trkpt>
      <trkpt lat="46.65526" lon="5.44493">
        <ele>220</ele>
        <time>2022-02-16T05:47:24Z</time>
      </trkpt>
      <trkpt lat="46.65558" lon="5.44498">
        <ele>220</ele>
        <time>2022-02-16T05:47:29Z</time>
      </trkpt>
      <trkpt lat="46.65569" lon="5.44503">
        <ele>221</ele>
        <time>2022-02-16T05:47:31Z</time>
      </trkpt>
      <trkpt lat="46.65579" lon="5.44511">
        <ele>221</ele>
        <time>2022-02-16T05:47:33Z</time>
      </trkpt>
      <trkpt lat="46.6565" lon="5.4459">
        <ele>221</ele>
        <time>2022-02-16T05:47:49Z</time>
      </trkpt>
      <trkpt lat="46.65716" lon="5.44683">
        <ele>223</ele>
        <time>2022-02-16T05:48:06Z</time>
      </trkpt>
      <trkpt lat="46.65724" lon="5.447">
        <ele>224</ele>
        <time>2022-02-16T05:48:08Z</time>
      </trkpt>
      <trkpt lat="46.6573" lon="5.44724">
        <ele>224</ele>
        <time>2022-02-16T05:48:11Z</time>
      </trkpt>
      <trkpt lat="46.6574" lon="5.44791">
        <ele>223</ele>
        <time>2022-02-16T05:48:20Z</time>
      </trkpt>
      <trkpt lat="46.65758" lon="5.44858">
        <ele>222</ele>
        <time>2022-02-16T05:48:28Z</time>
      </trkpt>
      <trkpt lat="46.65763" lon="5.44883">
        <ele>222</ele>
        <time>2022-02-16T05:48:32Z</time>
      </trkpt>
      <trkpt lat="46.65766" lon="5.44957">
        <ele>223</ele>
        <time>2022-02-16T05:48:41Z</time>
      </trkpt>
      <trkpt lat="46.65769" lon="5.4499">
        <ele>223</ele>
        <time>2022-02-16T05:48:45Z</time>
      </trkpt>
      <trkpt lat="46.65773" lon="5.45009">
        <ele>223</ele>
        <time>2022-02-16T05:48:47Z</time>
      </trkpt>
      <trkpt lat="46.65781" lon="5.45025">
        <ele>223</ele>
        <time>2022-02-16T05:48:49Z</time>
      </trkpt>
      <trkpt lat="46.65871" lon="5.45121">
        <ele>223</ele>
        <time>2022-02-16T05:49:09Z</time>
      </trkpt>
      <trkpt lat="46.65904" lon="5.4517">
        <ele>224</ele>
        <time>2022-02-16T05:49:18Z</time>
      </trkpt>
      <trkpt lat="46.65921" lon="5.45188">
        <ele>224</ele>
        <time>2022-02-16T05:49:21Z</time>
      </trkpt>
      <trkpt lat="46.65966" lon="5.45231">
        <ele>224</ele>
        <time>2022-02-16T05:49:31Z</time>
      </trkpt>
      <trkpt lat="46.65976" lon="5.45246">
        <ele>223</ele>
        <time>2022-02-16T05:49:34Z</time>
      </trkpt>
      <trkpt lat="46.65984" lon="5.45262">
        <ele>223</ele>
        <time>2022-02-16T05:49:36Z</time>
      </trkpt>
      <trkpt lat="46.66" lon="5.4531">
        <ele>223</ele>
        <time>2022-02-16T05:49:43Z</time>
      </trkpt>
      <trkpt lat="46.66054" lon="5.45402">
        <ele>222</ele>
        <time>2022-02-16T05:49:57Z</time>
      </trkpt>
      <trkpt lat="46.66083" lon="5.4544">
        <ele>221</ele>
        <time>2022-02-16T05:50:04Z</time>
      </trkpt>
      <trkpt lat="46.66101" lon="5.4546">
        <ele>220</ele>
        <time>2022-02-16T05:50:08Z</time>
      </trkpt>
      <trkpt lat="46.66115" lon="5.45471">
        <ele>220</ele>
        <time>2022-02-16T05:50:11Z</time>
      </trkpt>
      <trkpt lat="46.66241" lon="5.45527">
        <ele>216</ele>
        <time>2022-02-16T05:50:35Z</time>
      </trkpt>
      <trkpt lat="46.66259" lon="5.45541">
        <ele>216</ele>
        <time>2022-02-16T05:50:38Z</time>
      </trkpt>
      <trkpt lat="46.66284" lon="5.45563">
        <ele>217</ele>
        <time>2022-02-16T05:50:43Z</time>
      </trkpt>
      <trkpt lat="46.66309" lon="5.45589">
        <ele>217</ele>
        <time>2022-02-16T05:50:49Z</time>
      </trkpt>
      <trkpt lat="46.66327" lon="5.45612">
        <ele>218</ele>
        <time>2022-02-16T05:50:53Z</time>
      </trkpt>
      <trkpt lat="46.66351" lon="5.45655">
        <ele>217</ele>
        <time>2022-02-16T05:51:00Z</time>
      </trkpt>
      <trkpt lat="46.66397" lon="5.45743">
        <ele>217</ele>
        <time>2022-02-16T05:51:13Z</time>
      </trkpt>
      <trkpt lat="46.66439" lon="5.45829">
        <ele>217</ele>
        <time>2022-02-16T05:51:26Z</time>
      </trkpt>
      <trkpt lat="46.6644" lon="5.45838">
        <ele>217</ele>
        <time>2022-02-16T05:51:27Z</time>
      </trkpt>
      <trkpt lat="46.66437" lon="5.45848">
        <ele>217</ele>
        <time>2022-02-16T05:51:29Z</time>
      </trkpt>
      <trkpt lat="46.66427" lon="5.45998">
        <ele>216</ele>
        <time>2022-02-16T05:51:47Z</time>
      </trkpt>
      <trkpt lat="46.66405" lon="5.4619">
        <ele>217</ele>
        <time>2022-02-16T05:52:11Z</time>
      </trkpt>
      <trkpt lat="46.66402" lon="5.46252">
        <ele>218</ele>
        <time>2022-02-16T05:52:18Z</time>
      </trkpt>
      <trkpt lat="46.66409" lon="5.46341">
        <ele>217</ele>
        <time>2022-02-16T05:52:29Z</time>
      </trkpt>
      <trkpt lat="46.66414" lon="5.4638">
        <ele>217</ele>
        <time>2022-02-16T05:52:34Z</time>
      </trkpt>
      <trkpt lat="46.66461" lon="5.466">
        <ele>219</ele>
        <time>2022-02-16T05:53:02Z</time>
      </trkpt>
      <trkpt lat="46.66493" lon="5.46986">
        <ele>218</ele>
        <time>2022-02-16T05:53:50Z</time>
      </trkpt>
      <trkpt lat="46.66496" lon="5.46993">
        <ele>219</ele>
        <time>2022-02-16T05:53:51Z</time>
      </trkpt>
      <trkpt lat="46.665" lon="5.46999">
        <ele>219</ele>
        <time>2022-02-16T05:53:52Z</time>
      </trkpt>
      <trkpt lat="46.66514" lon="5.47002">
        <ele>220</ele>
        <time>2022-02-16T05:53:54Z</time>
      </trkpt>
      <trkpt lat="46.66552" lon="5.47006">
        <ele>222</ele>
        <time>2022-02-16T05:54:01Z</time>
      </trkpt>
      <trkpt lat="46.6662" lon="5.47002">
        <ele>225</ele>
        <time>2022-02-16T05:54:13Z</time>
      </trkpt>
      <trkpt lat="46.66632" lon="5.46995">
        <ele>225</ele>
        <time>2022-02-16T05:54:16Z</time>
      </trkpt>
      <trkpt lat="46.66643" lon="5.46982">
        <ele>225</ele>
        <time>2022-02-16T05:54:18Z</time>
      </trkpt>
      <trkpt lat="46.66652" lon="5.46996">
        <ele>226</ele>
        <time>2022-02-16T05:54:20Z</time>
      </trkpt>
      <trkpt lat="46.66724" lon="5.47173">
        <ele>224</ele>
        <time>2022-02-16T05:54:46Z</time>
      </trkpt>
      <trkpt lat="46.66751" lon="5.47256">
        <ele>223</ele>
        <time>2022-02-16T05:54:57Z</time>
      </trkpt>
      <trkpt lat="46.66756" lon="5.4728">
        <ele>222</ele>
        <time>2022-02-16T05:55:00Z</time>
      </trkpt>
      <trkpt lat="46.66757" lon="5.47311">
        <ele>220</ele>
        <time>2022-02-16T05:55:04Z</time>
      </trkpt>
      <trkpt lat="46.66755" lon="5.47323">
        <ele>220</ele>
        <time>2022-02-16T05:55:05Z</time>
      </trkpt>
      <trkpt lat="46.6675" lon="5.47334">
        <ele>219</ele>
        <time>2022-02-16T05:55:07Z</time>
      </trkpt>
      <trkpt lat="46.66736" lon="5.47357">
        <ele>219</ele>
        <time>2022-02-16T05:55:11Z</time>
      </trkpt>
      <trkpt lat="46.66692" lon="5.47407">
        <ele>220</ele>
        <time>2022-02-16T05:55:20Z</time>
      </trkpt>
      <trkpt lat="46.66672" lon="5.47439">
        <ele>222</ele>
        <time>2022-02-16T05:55:26Z</time>
      </trkpt>
      <trkpt lat="46.66643" lon="5.47507">
        <ele>226</ele>
        <time>2022-02-16T05:55:35Z</time>
      </trkpt>
      <trkpt lat="46.66633" lon="5.47533">
        <ele>226</ele>
        <time>2022-02-16T05:55:39Z</time>
      </trkpt>
      <trkpt lat="46.66626" lon="5.47564">
        <ele>226</ele>
        <time>2022-02-16T05:55:43Z</time>
      </trkpt>
      <trkpt lat="46.66614" lon="5.47629">
        <ele>227</ele>
        <time>2022-02-16T05:55:51Z</time>
      </trkpt>
      <trkpt lat="46.66604" lon="5.47701">
        <ele>227</ele>
        <time>2022-02-16T05:56:00Z</time>
      </trkpt>
      <trkpt lat="46.66595" lon="5.47751">
        <ele>227</ele>
        <time>2022-02-16T05:56:07Z</time>
      </trkpt>
      <trkpt lat="46.66566" lon="5.47946">
        <ele>227</ele>
        <time>2022-02-16T05:56:31Z</time>
      </trkpt>
      <trkpt lat="46.66564" lon="5.47965">
        <ele>227</ele>
        <time>2022-02-16T05:56:33Z</time>
      </trkpt>
      <trkpt lat="46.6657" lon="5.47979">
        <ele>228</ele>
        <time>2022-02-16T05:56:35Z</time>
      </trkpt>
      <trkpt lat="46.66585" lon="5.47983">
        <ele>228</ele>
        <time>2022-02-16T05:56:38Z</time>
      </trkpt>
      <trkpt lat="46.66796" lon="5.48096">
        <ele>228</ele>
        <time>2022-02-16T05:57:18Z</time>
      </trkpt>
      <trkpt lat="46.66823" lon="5.48108">
        <ele>229</ele>
        <time>2022-02-16T05:57:23Z</time>
      </trkpt>
      <trkpt lat="46.66839" lon="5.48117">
        <ele>229</ele>
        <time>2022-02-16T05:57:26Z</time>
      </trkpt>
      <trkpt lat="46.66849" lon="5.48127">
        <ele>229</ele>
        <time>2022-02-16T05:57:28Z</time>
      </trkpt>
      <trkpt lat="46.66876" lon="5.48159">
        <ele>229</ele>
        <time>2022-02-16T05:57:34Z</time>
      </trkpt>
      <trkpt lat="46.66886" lon="5.48167">
        <ele>229</ele>
        <time>2022-02-16T05:57:37Z</time>
      </trkpt>
      <trkpt lat="46.66886" lon="5.48188">
        <ele>229</ele>
        <time>2022-02-16T05:57:39Z</time>
      </trkpt>
      <trkpt lat="46.66902" lon="5.48289">
        <ele>228</ele>
        <time>2022-02-16T05:57:52Z</time>
      </trkpt>
      <trkpt lat="46.66906" lon="5.48303">
        <ele>228</ele>
        <time>2022-02-16T05:57:54Z</time>
      </trkpt>
      <trkpt lat="46.66968" lon="5.48428">
        <ele>226</ele>
        <time>2022-02-16T05:58:12Z</time>
      </trkpt>
      <trkpt lat="46.66976" lon="5.48449">
        <ele>226</ele>
        <time>2022-02-16T05:58:15Z</time>
      </trkpt>
      <trkpt lat="46.66979" lon="5.48467">
        <ele>225</ele>
        <time>2022-02-16T05:58:18Z</time>
      </trkpt>
      <trkpt lat="46.67002" lon="5.48542">
        <ele>225</ele>
        <time>2022-02-16T05:58:28Z</time>
      </trkpt>
      <trkpt lat="46.67042" lon="5.48655">
        <ele>225</ele>
        <time>2022-02-16T05:58:43Z</time>
      </trkpt>
      <trkpt lat="46.67092" lon="5.48753">
        <ele>224</ele>
        <time>2022-02-16T05:58:58Z</time>
      </trkpt>
      <trkpt lat="46.671" lon="5.48774">
        <ele>224</ele>
        <time>2022-02-16T05:59:01Z</time>
      </trkpt>
      <trkpt lat="46.6714" lon="5.48904">
        <ele>225</ele>
        <time>2022-02-16T05:59:18Z</time>
      </trkpt>
      <trkpt lat="46.67164" lon="5.48991">
        <ele>225</ele>
        <time>2022-02-16T05:59:30Z</time>
      </trkpt>
      <trkpt lat="46.67174" lon="5.49006">
        <ele>226</ele>
        <time>2022-02-16T05:59:32Z</time>
      </trkpt>
      <trkpt lat="46.67178" lon="5.48989">
        <ele>226</ele>
        <time>2022-02-16T05:59:35Z</time>
      </trkpt>
      <trkpt lat="46.67201" lon="5.48921">
        <ele>228</ele>
        <time>2022-02-16T05:59:44Z</time>
      </trkpt>
      <trkpt lat="46.67207" lon="5.48928">
        <ele>228</ele>
        <time>2022-02-16T05:59:45Z</time>
      </trkpt>
      <trkpt lat="46.67218" lon="5.48946">
        <ele>229</ele>
        <time>2022-02-16T05:59:48Z</time>
      </trkpt>
      <trkpt lat="46.67227" lon="5.48971">
        <ele>229</ele>
        <time>2022-02-16T05:59:52Z</time>
      </trkpt>
      <trkpt lat="46.67232" lon="5.48976">
        <ele>230</ele>
        <time>2022-02-16T05:59:53Z</time>
      </trkpt>
      <trkpt lat="46.67237" lon="5.48986">
        <ele>230</ele>
        <time>2022-02-16T05:59:54Z</time>
      </trkpt>
      <trkpt lat="46.67246" lon="5.49014">
        <ele>231</ele>
        <time>2022-02-16T05:59:58Z</time>
      </trkpt>
      <trkpt lat="46.67254" lon="5.49073">
        <ele>231</ele>
        <time>2022-02-16T06:00:05Z</time>
      </trkpt>
      <trkpt lat="46.67262" lon="5.49107">
        <ele>231</ele>
        <time>2022-02-16T06:00:10Z</time>
      </trkpt>
      <trkpt lat="46.67269" lon="5.49128">
        <ele>231</ele>
        <time>2022-02-16T06:00:13Z</time>
      </trkpt>
      <trkpt lat="46.67294" lon="5.49182">
        <ele>232</ele>
        <time>2022-02-16T06:00:21Z</time>
      </trkpt>
      <trkpt lat="46.67341" lon="5.49265">
        <ele>234</ele>
        <time>2022-02-16T06:00:34Z</time>
      </trkpt>
      <trkpt lat="46.67375" lon="5.49332">
        <ele>236</ele>
        <time>2022-02-16T06:00:44Z</time>
      </trkpt>
      <trkpt lat="46.67387" lon="5.4936">
        <ele>236</ele>
        <time>2022-02-16T06:00:48Z</time>
      </trkpt>
      <trkpt lat="46.674" lon="5.49401">
        <ele>236</ele>
        <time>2022-02-16T06:00:53Z</time>
      </trkpt>
      <trkpt lat="46.67421" lon="5.49512">
        <ele>237</ele>
        <time>2022-02-16T06:01:07Z</time>
      </trkpt>
      <trkpt lat="46.67426" lon="5.49523">
        <ele>237</ele>
        <time>2022-02-16T06:01:09Z</time>
      </trkpt>
      <trkpt lat="46.67436" lon="5.49527">
        <ele>238</ele>
        <time>2022-02-16T06:01:11Z</time>
      </trkpt>
      <trkpt lat="46.67438" lon="5.49518">
        <ele>238</ele>
        <time>2022-02-16T06:01:12Z</time>
      </trkpt>
      <trkpt lat="46.67442" lon="5.49512">
        <ele>238</ele>
        <time>2022-02-16T06:01:13Z</time>
      </trkpt>
      <trkpt lat="46.67448" lon="5.49509">
        <ele>238</ele>
        <time>2022-02-16T06:01:14Z</time>
      </trkpt>
      <trkpt lat="46.67459" lon="5.49509">
        <ele>238</ele>
        <time>2022-02-16T06:01:16Z</time>
      </trkpt>
      <trkpt lat="46.67461" lon="5.49613">
        <ele>238</ele>
        <time>2022-02-16T06:01:29Z</time>
      </trkpt>
      <trkpt lat="46.67471" lon="5.49708">
        <ele>239</ele>
        <time>2022-02-16T06:01:41Z</time>
      </trkpt>
      <trkpt lat="46.67491" lon="5.498">
        <ele>239</ele>
        <time>2022-02-16T06:01:52Z</time>
      </trkpt>
      <trkpt lat="46.67518" lon="5.49888">
        <ele>240</ele>
        <time>2022-02-16T06:02:04Z</time>
      </trkpt>
      <trkpt lat="46.6756" lon="5.5">
        <ele>241</ele>
        <time>2022-02-16T06:02:20Z</time>
      </trkpt>
      <trkpt lat="46.6759" lon="5.50099">
        <ele>239</ele>
        <time>2022-02-16T06:02:33Z</time>
      </trkpt>
      <trkpt lat="46.67599" lon="5.50148">
        <ele>238</ele>
        <time>2022-02-16T06:02:39Z</time>
      </trkpt>
      <trkpt lat="46.67607" lon="5.50203">
        <ele>237</ele>
        <time>2022-02-16T06:02:46Z</time>
      </trkpt>
      <trkpt lat="46.67609" lon="5.50224">
        <ele>237</ele>
        <time>2022-02-16T06:02:49Z</time>
      </trkpt>
      <trkpt lat="46.67612" lon="5.50258">
        <ele>237</ele>
        <time>2022-02-16T06:02:53Z</time>
      </trkpt>
      <trkpt lat="46.67614" lon="5.50288">
        <ele>236</ele>
        <time>2022-02-16T06:02:56Z</time>
      </trkpt>
      <trkpt lat="46.67613" lon="5.50337">
        <ele>235</ele>
        <time>2022-02-16T06:03:02Z</time>
      </trkpt>
      <trkpt lat="46.67608" lon="5.50392">
        <ele>232</ele>
        <time>2022-02-16T06:03:09Z</time>
      </trkpt>
      <trkpt lat="46.67581" lon="5.50852">
        <ele>247</ele>
        <time>2022-02-16T06:04:06Z</time>
      </trkpt>
      <trkpt lat="46.67569" lon="5.51046">
        <ele>253</ele>
        <time>2022-02-16T06:04:29Z</time>
      </trkpt>
      <trkpt lat="46.67565" lon="5.51116">
        <ele>248</ele>
        <time>2022-02-16T06:04:38Z</time>
      </trkpt>
      <trkpt lat="46.6754" lon="5.51535">
        <ele>261</ele>
        <time>2022-02-16T06:05:29Z</time>
      </trkpt>
      <trkpt lat="46.6752" lon="5.51673">
        <ele>250</ele>
        <time>2022-02-16T06:05:46Z</time>
      </trkpt>
      <trkpt lat="46.67503" lon="5.51762">
        <ele>247</ele>
        <time>2022-02-16T06:05:58Z</time>
      </trkpt>
      <trkpt lat="46.67468" lon="5.51885">
        <ele>250</ele>
        <time>2022-02-16T06:06:14Z</time>
      </trkpt>
      <trkpt lat="46.67418" lon="5.52027">
        <ele>257</ele>
        <time>2022-02-16T06:06:33Z</time>
      </trkpt>
      <trkpt lat="46.67339" lon="5.5224">
        <ele>261</ele>
        <time>2022-02-16T06:07:03Z</time>
      </trkpt>
      <trkpt lat="46.67297" lon="5.52338">
        <ele>261</ele>
        <time>2022-02-16T06:07:17Z</time>
      </trkpt>
      <trkpt lat="46.67267" lon="5.52446">
        <ele>251</ele>
        <time>2022-02-16T06:07:31Z</time>
      </trkpt>
      <trkpt lat="46.67258" lon="5.52504">
        <ele>250</ele>
        <time>2022-02-16T06:07:39Z</time>
      </trkpt>
      <trkpt lat="46.6725" lon="5.52592">
        <ele>250</ele>
        <time>2022-02-16T06:07:49Z</time>
      </trkpt>
      <trkpt lat="46.67249" lon="5.52645">
        <ele>251</ele>
        <time>2022-02-16T06:07:56Z</time>
      </trkpt>
      <trkpt lat="46.6725" lon="5.52684">
        <ele>252</ele>
        <time>2022-02-16T06:08:01Z</time>
      </trkpt>
      <trkpt lat="46.67261" lon="5.52877">
        <ele>255</ele>
        <time>2022-02-16T06:08:24Z</time>
      </trkpt>
      <trkpt lat="46.67262" lon="5.52893">
        <ele>256</ele>
        <time>2022-02-16T06:08:26Z</time>
      </trkpt>
      <trkpt lat="46.67282" lon="5.53337">
        <ele>261</ele>
        <time>2022-02-16T06:09:21Z</time>
      </trkpt>
      <trkpt lat="46.67283" lon="5.53388">
        <ele>260</ele>
        <time>2022-02-16T06:09:27Z</time>
      </trkpt>
      <trkpt lat="46.67278" lon="5.53448">
        <ele>261</ele>
        <time>2022-02-16T06:09:34Z</time>
      </trkpt>
      <trkpt lat="46.67269" lon="5.53494">
        <ele>262</ele>
        <time>2022-02-16T06:09:40Z</time>
      </trkpt>
      <trkpt lat="46.67173" lon="5.5385">
        <ele>267</ele>
        <time>2022-02-16T06:10:27Z</time>
      </trkpt>
      <trkpt lat="46.67168" lon="5.5386">
        <ele>268</ele>
        <time>2022-02-16T06:10:28Z</time>
      </trkpt>
      <trkpt lat="46.67155" lon="5.53902">
        <ele>269</ele>
        <time>2022-02-16T06:10:34Z</time>
      </trkpt>
      <trkpt lat="46.67156" lon="5.53918">
        <ele>268</ele>
        <time>2022-02-16T06:10:36Z</time>
      </trkpt>
      <trkpt lat="46.67154" lon="5.5393">
        <ele>268</ele>
        <time>2022-02-16T06:10:37Z</time>
      </trkpt>
      <trkpt lat="46.67131" lon="5.5401">
        <ele>266</ele>
        <time>2022-02-16T06:10:48Z</time>
      </trkpt>
      <trkpt lat="46.67134" lon="5.54042">
        <ele>264</ele>
        <time>2022-02-16T06:10:52Z</time>
      </trkpt>
      <trkpt lat="46.67127" lon="5.54048">
        <ele>264</ele>
        <time>2022-02-16T06:10:53Z</time>
      </trkpt>
      <trkpt lat="46.67118" lon="5.54069">
        <ele>263</ele>
        <time>2022-02-16T06:10:56Z</time>
      </trkpt>
      <trkpt lat="46.67063" lon="5.54243">
        <ele>261</ele>
        <time>2022-02-16T06:11:20Z</time>
      </trkpt>
      <trkpt lat="46.6706" lon="5.54243">
        <ele>261</ele>
        <time>2022-02-16T06:11:20Z</time>
      </trkpt>
      <trkpt lat="46.67038" lon="5.54313">
        <ele>261</ele>
        <time>2022-02-16T06:11:30Z</time>
      </trkpt>
      <trkpt lat="46.6704" lon="5.54322">
        <ele>261</ele>
        <time>2022-02-16T06:11:31Z</time>
      </trkpt>
      <trkpt lat="46.67037" lon="5.54339">
        <ele>261</ele>
        <time>2022-02-16T06:11:33Z</time>
      </trkpt>
      <trkpt lat="46.67025" lon="5.54376">
        <ele>260</ele>
        <time>2022-02-16T06:11:38Z</time>
      </trkpt>
      <trkpt lat="46.67007" lon="5.5442">
        <ele>260</ele>
        <time>2022-02-16T06:11:44Z</time>
      </trkpt>
      <trkpt lat="46.67008" lon="5.54428">
        <ele>260</ele>
        <time>2022-02-16T06:11:45Z</time>
      </trkpt>
      <trkpt lat="46.67036" lon="5.5449">
        <ele>258</ele>
        <time>2022-02-16T06:11:54Z</time>
      </trkpt>
      <trkpt lat="46.67046" lon="5.54507">
        <ele>258</ele>
        <time>2022-02-16T06:11:57Z</time>
      </trkpt>
      <trkpt lat="46.6706" lon="5.54539">
        <ele>258</ele>
        <time>2022-02-16T06:12:02Z</time>
      </trkpt>
      <trkpt lat="46.67032" lon="5.54576">
        <ele>260</ele>
        <time>2022-02-16T06:12:08Z</time>
      </trkpt>
      <trkpt lat="46.66959" lon="5.54684">
        <ele>263</ele>
        <time>2022-02-16T06:12:27Z</time>
      </trkpt>
      <trkpt lat="46.66942" lon="5.54688">
        <ele>264</ele>
        <time>2022-02-16T06:12:30Z</time>
      </trkpt>
      <trkpt lat="46.6693" lon="5.54702">
        <ele>264</ele>
        <time>2022-02-16T06:12:33Z</time>
      </trkpt>
      <trkpt lat="46.66911" lon="5.54711">
        <ele>264</ele>
        <time>2022-02-16T06:12:36Z</time>
      </trkpt>
      <trkpt lat="46.66881" lon="5.54697">
        <ele>266</ele>
        <time>2022-02-16T06:12:42Z</time>
      </trkpt>
      <trkpt lat="46.66873" lon="5.54697">
        <ele>266</ele>
        <time>2022-02-16T06:12:43Z</time>
      </trkpt>
      <trkpt lat="46.66849" lon="5.54704">
        <ele>267</ele>
        <time>2022-02-16T06:12:48Z</time>
      </trkpt>
      <trkpt lat="46.66832" lon="5.5472">
        <ele>268</ele>
        <time>2022-02-16T06:12:51Z</time>
      </trkpt>
      <trkpt lat="46.66834" lon="5.54724">
        <ele>267</ele>
        <time>2022-02-16T06:12:52Z</time>
      </trkpt>
      <trkpt lat="46.66835" lon="5.54734">
        <ele>267</ele>
        <time>2022-02-16T06:12:53Z</time>
      </trkpt>
      <trkpt lat="46.66833" lon="5.54743">
        <ele>267</ele>
        <time>2022-02-16T06:12:54Z</time>
      </trkpt>
      <trkpt lat="46.66766" lon="5.54936">
        <ele>273</ele>
        <time>2022-02-16T06:13:21Z</time>
      </trkpt>
      <trkpt lat="46.66759" lon="5.54975">
        <ele>273</ele>
        <time>2022-02-16T06:13:26Z</time>
      </trkpt>
      <trkpt lat="46.66753" lon="5.55081">
        <ele>273</ele>
        <time>2022-02-16T06:13:39Z</time>
      </trkpt>
      <trkpt lat="46.66743" lon="5.55115">
        <ele>274</ele>
        <time>2022-02-16T06:13:43Z</time>
      </trkpt>
      <trkpt lat="46.66745" lon="5.55125">
        <ele>273</ele>
        <time>2022-02-16T06:13:44Z</time>
      </trkpt>
      <trkpt lat="46.66756" lon="5.55135">
        <ele>273</ele>
        <time>2022-02-16T06:13:47Z</time>
      </trkpt>
      <trkpt lat="46.66765" lon="5.55153">
        <ele>272</ele>
        <time>2022-02-16T06:13:49Z</time>
      </trkpt>
      <trkpt lat="46.66776" lon="5.55202">
        <ele>272</ele>
        <time>2022-02-16T06:13:56Z</time>
      </trkpt>
      <trkpt lat="46.66795" lon="5.55266">
        <ele>271</ele>
        <time>2022-02-16T06:14:04Z</time>
      </trkpt>
      <trkpt lat="46.6682" lon="5.5536">
        <ele>272</ele>
        <time>2022-02-16T06:14:17Z</time>
      </trkpt>
      <trkpt lat="46.66814" lon="5.55377">
        <ele>273</ele>
        <time>2022-02-16T06:14:19Z</time>
      </trkpt>
      <trkpt lat="46.66806" lon="5.55392">
        <ele>275</ele>
        <time>2022-02-16T06:14:21Z</time>
      </trkpt>
      <trkpt lat="46.6679" lon="5.5539">
        <ele>277</ele>
        <time>2022-02-16T06:14:24Z</time>
      </trkpt>
      <trkpt lat="46.66781" lon="5.55392">
        <ele>278</ele>
        <time>2022-02-16T06:14:26Z</time>
      </trkpt>
      <trkpt lat="46.66772" lon="5.55396">
        <ele>279</ele>
        <time>2022-02-16T06:14:27Z</time>
      </trkpt>
      <trkpt lat="46.66757" lon="5.55407">
        <ele>280</ele>
        <time>2022-02-16T06:14:30Z</time>
      </trkpt>
      <trkpt lat="46.66732" lon="5.55433">
        <ele>285</ele>
        <time>2022-02-16T06:14:36Z</time>
      </trkpt>
      <trkpt lat="46.66717" lon="5.55454">
        <ele>287</ele>
        <time>2022-02-16T06:14:39Z</time>
      </trkpt>
      <trkpt lat="46.66662" lon="5.55558">
        <ele>301</ele>
        <time>2022-02-16T06:14:56Z</time>
      </trkpt>
      <trkpt lat="46.66654" lon="5.5557">
        <ele>303</ele>
        <time>2022-02-16T06:14:58Z</time>
      </trkpt>
      <trkpt lat="46.66644" lon="5.55574">
        <ele>304</ele>
        <time>2022-02-16T06:14:59Z</time>
      </trkpt>
      <trkpt lat="46.66634" lon="5.55574">
        <ele>305</ele>
        <time>2022-02-16T06:15:01Z</time>
      </trkpt>
      <trkpt lat="46.66604" lon="5.55561">
        <ele>308</ele>
        <time>2022-02-16T06:15:07Z</time>
      </trkpt>
      <trkpt lat="46.66577" lon="5.55539">
        <ele>310</ele>
        <time>2022-02-16T06:15:12Z</time>
      </trkpt>
      <trkpt lat="46.6657" lon="5.55536">
        <ele>311</ele>
        <time>2022-02-16T06:15:14Z</time>
      </trkpt>
      <trkpt lat="46.66561" lon="5.55538">
        <ele>311</ele>
        <time>2022-02-16T06:15:15Z</time>
      </trkpt>
      <trkpt lat="46.66556" lon="5.55542">
        <ele>312</ele>
        <time>2022-02-16T06:15:16Z</time>
      </trkpt>
      <trkpt lat="46.66543" lon="5.55568">
        <ele>314</ele>
        <time>2022-02-16T06:15:20Z</time>
      </trkpt>
      <trkpt lat="46.66518" lon="5.55633">
        <ele>318</ele>
        <time>2022-02-16T06:15:29Z</time>
      </trkpt>
      <trkpt lat="46.66505" lon="5.55652">
        <ele>319</ele>
        <time>2022-02-16T06:15:32Z</time>
      </trkpt>
      <trkpt lat="46.66495" lon="5.55655">
        <ele>321</ele>
        <time>2022-02-16T06:15:34Z</time>
      </trkpt>
      <trkpt lat="46.66488" lon="5.55653">
        <ele>322</ele>
        <time>2022-02-16T06:15:36Z</time>
      </trkpt>
      <trkpt lat="46.66481" lon="5.55648">
        <ele>323</ele>
        <time>2022-02-16T06:15:37Z</time>
      </trkpt>
      <trkpt lat="46.66415" lon="5.55567">
        <ele>331</ele>
        <time>2022-02-16T06:15:52Z</time>
      </trkpt>
      <trkpt lat="46.66404" lon="5.55561">
        <ele>332</ele>
        <time>2022-02-16T06:15:54Z</time>
      </trkpt>
      <trkpt lat="46.66397" lon="5.5556">
        <ele>333</ele>
        <time>2022-02-16T06:15:56Z</time>
      </trkpt>
      <trkpt lat="46.66391" lon="5.55564">
        <ele>335</ele>
        <time>2022-02-16T06:15:57Z</time>
      </trkpt>
      <trkpt lat="46.66386" lon="5.55571">
        <ele>336</ele>
        <time>2022-02-16T06:15:58Z</time>
      </trkpt>
      <trkpt lat="46.66356" lon="5.55634">
        <ele>343</ele>
        <time>2022-02-16T06:16:07Z</time>
      </trkpt>
      <trkpt lat="46.66338" lon="5.55664">
        <ele>346</ele>
        <time>2022-02-16T06:16:12Z</time>
      </trkpt>
      <trkpt lat="46.66327" lon="5.55672">
        <ele>348</ele>
        <time>2022-02-16T06:16:14Z</time>
      </trkpt>
      <trkpt lat="46.66306" lon="5.55685">
        <ele>352</ele>
        <time>2022-02-16T06:16:19Z</time>
      </trkpt>
      <trkpt lat="46.66283" lon="5.55704">
        <ele>355</ele>
        <time>2022-02-16T06:16:23Z</time>
      </trkpt>
      <trkpt lat="46.66256" lon="5.55734">
        <ele>359</ele>
        <time>2022-02-16T06:16:29Z</time>
      </trkpt>
      <trkpt lat="46.6624" lon="5.55758">
        <ele>360</ele>
        <time>2022-02-16T06:16:33Z</time>
      </trkpt>
      <trkpt lat="46.66211" lon="5.55806">
        <ele>364</ele>
        <time>2022-02-16T06:16:41Z</time>
      </trkpt>
      <trkpt lat="46.66201" lon="5.55817">
        <ele>366</ele>
        <time>2022-02-16T06:16:43Z</time>
      </trkpt>
      <trkpt lat="46.66151" lon="5.5583">
        <ele>377</ele>
        <time>2022-02-16T06:16:52Z</time>
      </trkpt>
      <trkpt lat="46.66146" lon="5.55834">
        <ele>377</ele>
        <time>2022-02-16T06:16:53Z</time>
      </trkpt>
      <trkpt lat="46.66139" lon="5.55842">
        <ele>378</ele>
        <time>2022-02-16T06:16:55Z</time>
      </trkpt>
      <trkpt lat="46.66133" lon="5.55859">
        <ele>379</ele>
        <time>2022-02-16T06:16:57Z</time>
      </trkpt>
      <trkpt lat="46.6613" lon="5.55876">
        <ele>380</ele>
        <time>2022-02-16T06:17:00Z</time>
      </trkpt>
      <trkpt lat="46.66131" lon="5.55906">
        <ele>380</ele>
        <time>2022-02-16T06:17:03Z</time>
      </trkpt>
      <trkpt lat="46.66134" lon="5.55947">
        <ele>382</ele>
        <time>2022-02-16T06:17:08Z</time>
      </trkpt>
      <trkpt lat="46.66148" lon="5.56019">
        <ele>386</ele>
        <time>2022-02-16T06:17:17Z</time>
      </trkpt>
      <trkpt lat="46.66157" lon="5.56074">
        <ele>389</ele>
        <time>2022-02-16T06:17:24Z</time>
      </trkpt>
      <trkpt lat="46.66156" lon="5.56091">
        <ele>389</ele>
        <time>2022-02-16T06:17:26Z</time>
      </trkpt>
      <trkpt lat="46.66152" lon="5.56106">
        <ele>389</ele>
        <time>2022-02-16T06:17:28Z</time>
      </trkpt>
      <trkpt lat="46.66118" lon="5.56165">
        <ele>395</ele>
        <time>2022-02-16T06:17:38Z</time>
      </trkpt>
      <trkpt lat="46.66067" lon="5.56245">
        <ele>400</ele>
        <time>2022-02-16T06:17:51Z</time>
      </trkpt>
      <trkpt lat="46.66057" lon="5.56265">
        <ele>402</ele>
        <time>2022-02-16T06:17:54Z</time>
      </trkpt>
      <trkpt lat="46.66041" lon="5.56309">
        <ele>406</ele>
        <time>2022-02-16T06:18:00Z</time>
      </trkpt>
      <trkpt lat="46.66016" lon="5.56395">
        <ele>413</ele>
        <time>2022-02-16T06:18:12Z</time>
      </trkpt>
      <trkpt lat="46.66011" lon="5.56417">
        <ele>416</ele>
        <time>2022-02-16T06:18:14Z</time>
      </trkpt>
      <trkpt lat="46.66008" lon="5.56473">
        <ele>417</ele>
        <time>2022-02-16T06:18:21Z</time>
      </trkpt>
      <trkpt lat="46.66005" lon="5.56491">
        <ele>418</ele>
        <time>2022-02-16T06:18:24Z</time>
      </trkpt>
      <trkpt lat="46.65993" lon="5.56527">
        <ele>418</ele>
        <time>2022-02-16T06:18:28Z</time>
      </trkpt>
      <trkpt lat="46.65968" lon="5.56569">
        <ele>417</ele>
        <time>2022-02-16T06:18:35Z</time>
      </trkpt>
      <trkpt lat="46.65929" lon="5.56655">
        <ele>421</ele>
        <time>2022-02-16T06:18:48Z</time>
      </trkpt>
      <trkpt lat="46.65909" lon="5.56682">
        <ele>423</ele>
        <time>2022-02-16T06:18:53Z</time>
      </trkpt>
      <trkpt lat="46.65882" lon="5.56763">
        <ele>422</ele>
        <time>2022-02-16T06:19:04Z</time>
      </trkpt>
      <trkpt lat="46.65869" lon="5.56789">
        <ele>422</ele>
        <time>2022-02-16T06:19:08Z</time>
      </trkpt>
      <trkpt lat="46.65802" lon="5.5687">
        <ele>425</ele>
        <time>2022-02-16T06:19:23Z</time>
      </trkpt>
      <trkpt lat="46.65772" lon="5.56925">
        <ele>427</ele>
        <time>2022-02-16T06:19:32Z</time>
      </trkpt>
      <trkpt lat="46.65741" lon="5.5699">
        <ele>428</ele>
        <time>2022-02-16T06:19:41Z</time>
      </trkpt>
      <trkpt lat="46.65671" lon="5.5714">
        <ele>424</ele>
        <time>2022-02-16T06:20:03Z</time>
      </trkpt>
      <trkpt lat="46.6566" lon="5.57161">
        <ele>424</ele>
        <time>2022-02-16T06:20:07Z</time>
      </trkpt>
      <trkpt lat="46.65635" lon="5.57213">
        <ele>423</ele>
        <time>2022-02-16T06:20:14Z</time>
      </trkpt>
      <trkpt lat="46.65607" lon="5.57255">
        <ele>425</ele>
        <time>2022-02-16T06:20:22Z</time>
      </trkpt>
      <trkpt lat="46.65596" lon="5.57276">
        <ele>427</ele>
        <time>2022-02-16T06:20:25Z</time>
      </trkpt>
      <trkpt lat="46.65544" lon="5.57337">
        <ele>434</ele>
        <time>2022-02-16T06:20:37Z</time>
      </trkpt>
      <trkpt lat="46.65519" lon="5.57361">
        <ele>436</ele>
        <time>2022-02-16T06:20:42Z</time>
      </trkpt>
      <trkpt lat="46.65491" lon="5.57382">
        <ele>439</ele>
        <time>2022-02-16T06:20:48Z</time>
      </trkpt>
      <trkpt lat="46.65445" lon="5.57409">
        <ele>444</ele>
        <time>2022-02-16T06:20:56Z</time>
      </trkpt>
      <trkpt lat="46.65401" lon="5.57421">
        <ele>448</ele>
        <time>2022-02-16T06:21:04Z</time>
      </trkpt>
      <trkpt lat="46.65352" lon="5.57428">
        <ele>454</ele>
        <time>2022-02-16T06:21:13Z</time>
      </trkpt>
      <trkpt lat="46.65255" lon="5.57442">
        <ele>459</ele>
        <time>2022-02-16T06:21:30Z</time>
      </trkpt>
      <trkpt lat="46.65192" lon="5.57458">
        <ele>463</ele>
        <time>2022-02-16T06:21:42Z</time>
      </trkpt>
      <trkpt lat="46.65146" lon="5.57478">
        <ele>465</ele>
        <time>2022-02-16T06:21:50Z</time>
      </trkpt>
      <trkpt lat="46.65124" lon="5.5749">
        <ele>466</ele>
        <time>2022-02-16T06:21:55Z</time>
      </trkpt>
      <trkpt lat="46.65099" lon="5.57508">
        <ele>467</ele>
        <time>2022-02-16T06:22:00Z</time>
      </trkpt>
      <trkpt lat="46.65068" lon="5.57535">
        <ele>469</ele>
        <time>2022-02-16T06:22:06Z</time>
      </trkpt>
      <trkpt lat="46.6504" lon="5.57567">
        <ele>471</ele>
        <time>2022-02-16T06:22:12Z</time>
      </trkpt>
      <trkpt lat="46.65008" lon="5.57608">
        <ele>471</ele>
        <time>2022-02-16T06:22:20Z</time>
      </trkpt>
      <trkpt lat="46.64965" lon="5.57675">
        <ele>471</ele>
        <time>2022-02-16T06:22:31Z</time>
      </trkpt>
      <trkpt lat="46.64741" lon="5.58055">
        <ele>478</ele>
        <time>2022-02-16T06:23:32Z</time>
      </trkpt>
      <trkpt lat="46.64705" lon="5.58109">
        <ele>480</ele>
        <time>2022-02-16T06:23:41Z</time>
      </trkpt>
      <trkpt lat="46.64638" lon="5.58193">
        <ele>482</ele>
        <time>2022-02-16T06:23:57Z</time>
      </trkpt>
      <trkpt lat="46.64559" lon="5.58273">
        <ele>484</ele>
        <time>2022-02-16T06:24:14Z</time>
      </trkpt>
      <trkpt lat="46.64499" lon="5.58327">
        <ele>487</ele>
        <time>2022-02-16T06:24:27Z</time>
      </trkpt>
      <trkpt lat="46.64468" lon="5.58349">
        <ele>489</ele>
        <time>2022-02-16T06:24:33Z</time>
      </trkpt>
      <trkpt lat="46.64426" lon="5.58371">
        <ele>489</ele>
        <time>2022-02-16T06:24:41Z</time>
      </trkpt>
      <trkpt lat="46.64374" lon="5.58388">
        <ele>489</ele>
        <time>2022-02-16T06:24:50Z</time>
      </trkpt>
      <trkpt lat="46.63797" lon="5.58559">
        <ele>522</ele>
        <time>2022-02-16T06:26:35Z</time>
      </trkpt>
      <trkpt lat="46.63765" lon="5.58572">
        <ele>523</ele>
        <time>2022-02-16T06:26:41Z</time>
      </trkpt>
      <trkpt lat="46.63737" lon="5.58586">
        <ele>525</ele>
        <time>2022-02-16T06:26:46Z</time>
      </trkpt>
      <trkpt lat="46.63708" lon="5.58606">
        <ele>525</ele>
        <time>2022-02-16T06:26:52Z</time>
      </trkpt>
      <trkpt lat="46.63681" lon="5.58627">
        <ele>526</ele>
        <time>2022-02-16T06:26:58Z</time>
      </trkpt>
      <trkpt lat="46.63132" lon="5.59108">
        <ele>534</ele>
        <time>2022-02-16T06:28:52Z</time>
      </trkpt>
      <trkpt lat="46.63042" lon="5.59185">
        <ele>533</ele>
        <time>2022-02-16T06:29:10Z</time>
      </trkpt>
      <trkpt lat="46.62979" lon="5.59247">
        <ele>534</ele>
        <time>2022-02-16T06:29:24Z</time>
      </trkpt>
      <trkpt lat="46.62934" lon="5.59297">
        <ele>533</ele>
        <time>2022-02-16T06:29:34Z</time>
      </trkpt>
      <trkpt lat="46.62883" lon="5.59362">
        <ele>532</ele>
        <time>2022-02-16T06:29:46Z</time>
      </trkpt>
      <trkpt lat="46.62686" lon="5.59621">
        <ele>536</ele>
        <time>2022-02-16T06:30:33Z</time>
      </trkpt>
      <trkpt lat="46.62675" lon="5.59631">
        <ele>536</ele>
        <time>2022-02-16T06:30:35Z</time>
      </trkpt>
      <trkpt lat="46.62662" lon="5.59635">
        <ele>536</ele>
        <time>2022-02-16T06:30:38Z</time>
      </trkpt>
      <trkpt lat="46.62651" lon="5.59641">
        <ele>536</ele>
        <time>2022-02-16T06:30:40Z</time>
      </trkpt>
      <trkpt lat="46.62645" lon="5.59656">
        <ele>537</ele>
        <time>2022-02-16T06:30:42Z</time>
      </trkpt>
      <trkpt lat="46.62646" lon="5.59668">
        <ele>538</ele>
        <time>2022-02-16T06:30:43Z</time>
      </trkpt>
      <trkpt lat="46.62639" lon="5.59682">
        <ele>539</ele>
        <time>2022-02-16T06:30:45Z</time>
      </trkpt>
      <trkpt lat="46.62623" lon="5.59709">
        <ele>541</ele>
        <time>2022-02-16T06:30:50Z</time>
      </trkpt>
      <trkpt lat="46.62514" lon="5.59861">
        <ele>549</ele>
        <time>2022-02-16T06:31:17Z</time>
      </trkpt>
      <trkpt lat="46.62488" lon="5.59892">
        <ele>550</ele>
        <time>2022-02-16T06:31:23Z</time>
      </trkpt>
      <trkpt lat="46.62454" lon="5.59927">
        <ele>552</ele>
        <time>2022-02-16T06:31:30Z</time>
      </trkpt>
      <trkpt lat="46.62357" lon="5.60017">
        <ele>551</ele>
        <time>2022-02-16T06:31:51Z</time>
      </trkpt>
      <trkpt lat="46.62297" lon="5.60063">
        <ele>551</ele>
        <time>2022-02-16T06:32:03Z</time>
      </trkpt>
      <trkpt lat="46.6226" lon="5.60094">
        <ele>550</ele>
        <time>2022-02-16T06:32:10Z</time>
      </trkpt>
      <trkpt lat="46.62229" lon="5.60127">
        <ele>551</ele>
        <time>2022-02-16T06:32:17Z</time>
      </trkpt>
      <trkpt lat="46.62169" lon="5.60211">
        <ele>553</ele>
        <time>2022-02-16T06:32:32Z</time>
      </trkpt>
      <trkpt lat="46.62142" lon="5.60244">
        <ele>551</ele>
        <time>2022-02-16T06:32:38Z</time>
      </trkpt>
      <trkpt lat="46.62102" lon="5.60282">
        <ele>547</ele>
        <time>2022-02-16T06:32:47Z</time>
      </trkpt>
      <trkpt lat="46.61947" lon="5.60411">
        <ele>544</ele>
        <time>2022-02-16T06:33:18Z</time>
      </trkpt>
      <trkpt lat="46.61912" lon="5.60443">
        <ele>544</ele>
        <time>2022-02-16T06:33:26Z</time>
      </trkpt>
      <trkpt lat="46.61885" lon="5.60476">
        <ele>543</ele>
        <time>2022-02-16T06:33:32Z</time>
      </trkpt>
      <trkpt lat="46.61859" lon="5.60515">
        <ele>542</ele>
        <time>2022-02-16T06:33:39Z</time>
      </trkpt>
      <trkpt lat="46.6171" lon="5.60794">
        <ele>535</ele>
        <time>2022-02-16T06:34:22Z</time>
      </trkpt>
      <trkpt lat="46.61283" lon="5.61594">
        <ele>529</ele>
        <time>2022-02-16T06:36:26Z</time>
      </trkpt>
      <trkpt lat="46.60852" lon="5.62406">
        <ele>533</ele>
        <time>2022-02-16T06:38:31Z</time>
      </trkpt>
      <trkpt lat="46.60303" lon="5.63423">
        <ele>548</ele>
        <time>2022-02-16T06:41:09Z</time>
      </trkpt>
      <trkpt lat="46.60056" lon="5.63899">
        <ele>549</ele>
        <time>2022-02-16T06:42:22Z</time>
      </trkpt>
      <trkpt lat="46.59757" lon="5.64482">
        <ele>561</ele>
        <time>2022-02-16T06:43:51Z</time>
      </trkpt>
      <trkpt lat="46.59745" lon="5.64511">
        <ele>562</ele>
        <time>2022-02-16T06:43:55Z</time>
      </trkpt>
      <trkpt lat="46.59736" lon="5.6454">
        <ele>563</ele>
        <time>2022-02-16T06:43:59Z</time>
      </trkpt>
      <trkpt lat="46.59731" lon="5.64565">
        <ele>563</ele>
        <time>2022-02-16T06:44:02Z</time>
      </trkpt>
      <trkpt lat="46.5973" lon="5.64604">
        <ele>562</ele>
        <time>2022-02-16T06:44:07Z</time>
      </trkpt>
      <trkpt lat="46.59731" lon="5.64618">
        <ele>562</ele>
        <time>2022-02-16T06:44:09Z</time>
      </trkpt>
      <trkpt lat="46.59735" lon="5.64646">
        <ele>561</ele>
        <time>2022-02-16T06:44:12Z</time>
      </trkpt>
      <trkpt lat="46.59744" lon="5.64677">
        <ele>560</ele>
        <time>2022-02-16T06:44:16Z</time>
      </trkpt>
      <trkpt lat="46.59759" lon="5.64708">
        <ele>559</ele>
        <time>2022-02-16T06:44:21Z</time>
      </trkpt>
      <trkpt lat="46.59836" lon="5.64827">
        <ele>553</ele>
        <time>2022-02-16T06:44:41Z</time>
      </trkpt>
      <trkpt lat="46.5985" lon="5.64853">
        <ele>552</ele>
        <time>2022-02-16T06:44:45Z</time>
      </trkpt>
      <trkpt lat="46.5987" lon="5.64898">
        <ele>549</ele>
        <time>2022-02-16T06:44:52Z</time>
      </trkpt>
      <trkpt lat="46.60002" lon="5.65213">
        <ele>541</ele>
        <time>2022-02-16T06:45:37Z</time>
      </trkpt>
      <trkpt lat="46.6001" lon="5.65238">
        <ele>540</ele>
        <time>2022-02-16T06:45:40Z</time>
      </trkpt>
      <trkpt lat="46.60015" lon="5.65264">
        <ele>540</ele>
        <time>2022-02-16T06:45:43Z</time>
      </trkpt>
      <trkpt lat="46.60019" lon="5.65294">
        <ele>539</ele>
        <time>2022-02-16T06:45:47Z</time>
      </trkpt>
      <trkpt lat="46.60021" lon="5.65327">
        <ele>538</ele>
        <time>2022-02-16T06:45:51Z</time>
      </trkpt>
      <trkpt lat="46.60017" lon="5.65401">
        <ele>534</ele>
        <time>2022-02-16T06:46:00Z</time>
      </trkpt>
      <trkpt lat="46.59992" lon="5.65834">
        <ele>527</ele>
        <time>2022-02-16T06:46:53Z</time>
      </trkpt>
      <trkpt lat="46.59988" lon="5.65875">
        <ele>525</ele>
        <time>2022-02-16T06:46:58Z</time>
      </trkpt>
      <trkpt lat="46.59979" lon="5.6593">
        <ele>523</ele>
        <time>2022-02-16T06:47:05Z</time>
      </trkpt>
      <trkpt lat="46.59948" lon="5.66048">
        <ele>519</ele>
        <time>2022-02-16T06:47:21Z</time>
      </trkpt>
      <trkpt lat="46.59933" lon="5.66087">
        <ele>516</ele>
        <time>2022-02-16T06:47:26Z</time>
      </trkpt>
      <trkpt lat="46.59912" lon="5.66134">
        <ele>510</ele>
        <time>2022-02-16T06:47:33Z</time>
      </trkpt>
      <trkpt lat="46.59898" lon="5.66171">
        <ele>506</ele>
        <time>2022-02-16T06:47:38Z</time>
      </trkpt>
      <trkpt lat="46.59886" lon="5.66212">
        <ele>505</ele>
        <time>2022-02-16T06:47:44Z</time>
      </trkpt>
      <trkpt lat="46.59877" lon="5.66255">
        <ele>504</ele>
        <time>2022-02-16T06:47:49Z</time>
      </trkpt>
      <trkpt lat="46.59869" lon="5.66362">
        <ele>507</ele>
        <time>2022-02-16T06:48:02Z</time>
      </trkpt>
      <trkpt lat="46.59867" lon="5.6638">
        <ele>508</ele>
        <time>2022-02-16T06:48:05Z</time>
      </trkpt>
      <trkpt lat="46.5986" lon="5.66412">
        <ele>509</ele>
        <time>2022-02-16T06:48:09Z</time>
      </trkpt>
      <trkpt lat="46.59854" lon="5.66429">
        <ele>509</ele>
        <time>2022-02-16T06:48:11Z</time>
      </trkpt>
      <trkpt lat="46.5981" lon="5.66514">
        <ele>505</ele>
        <time>2022-02-16T06:48:24Z</time>
      </trkpt>
      <trkpt lat="46.59784" lon="5.6655">
        <ele>505</ele>
        <time>2022-02-16T06:48:30Z</time>
      </trkpt>
      <trkpt lat="46.59766" lon="5.6657">
        <ele>503</ele>
        <time>2022-02-16T06:48:34Z</time>
      </trkpt>
      <trkpt lat="46.59753" lon="5.6658">
        <ele>502</ele>
        <time>2022-02-16T06:48:37Z</time>
      </trkpt>
      <trkpt lat="46.59669" lon="5.66632">
        <ele>501</ele>
        <time>2022-02-16T06:48:53Z</time>
      </trkpt>
      <trkpt lat="46.59494" lon="5.66735">
        <ele>487</ele>
        <time>2022-02-16T06:49:27Z</time>
      </trkpt>
      <trkpt lat="46.59471" lon="5.66753">
        <ele>483</ele>
        <time>2022-02-16T06:49:32Z</time>
      </trkpt>
      <trkpt lat="46.59445" lon="5.66785">
        <ele>479</ele>
        <time>2022-02-16T06:49:38Z</time>
      </trkpt>
      <trkpt lat="46.59393" lon="5.6687">
        <ele>471</ele>
        <time>2022-02-16T06:49:51Z</time>
      </trkpt>
      <trkpt lat="46.59381" lon="5.66898">
        <ele>470</ele>
        <time>2022-02-16T06:49:56Z</time>
      </trkpt>
      <trkpt lat="46.59375" lon="5.66919">
        <ele>469</ele>
        <time>2022-02-16T06:49:58Z</time>
      </trkpt>
      <trkpt lat="46.59373" lon="5.66938">
        <ele>469</ele>
        <time>2022-02-16T06:50:01Z</time>
      </trkpt>
      <trkpt lat="46.59372" lon="5.66958">
        <ele>468</ele>
        <time>2022-02-16T06:50:03Z</time>
      </trkpt>
      <trkpt lat="46.59376" lon="5.67178">
        <ele>464</ele>
        <time>2022-02-16T06:50:30Z</time>
      </trkpt>
      <trkpt lat="46.59374" lon="5.67211">
        <ele>464</ele>
        <time>2022-02-16T06:50:34Z</time>
      </trkpt>
      <trkpt lat="46.5937" lon="5.67245">
        <ele>464</ele>
        <time>2022-02-16T06:50:38Z</time>
      </trkpt>
      <trkpt lat="46.5936" lon="5.67283">
        <ele>465</ele>
        <time>2022-02-16T06:50:43Z</time>
      </trkpt>
      <trkpt lat="46.5932" lon="5.67407">
        <ele>467</ele>
        <time>2022-02-16T06:51:00Z</time>
      </trkpt>
      <trkpt lat="46.59307" lon="5.67473">
        <ele>467</ele>
        <time>2022-02-16T06:51:08Z</time>
      </trkpt>
      <trkpt lat="46.59292" lon="5.67594">
        <ele>465</ele>
        <time>2022-02-16T06:51:23Z</time>
      </trkpt>
      <trkpt lat="46.59247" lon="5.67778">
        <ele>461</ele>
        <time>2022-02-16T06:51:47Z</time>
      </trkpt>
      <trkpt lat="46.59234" lon="5.67824">
        <ele>461</ele>
        <time>2022-02-16T06:51:53Z</time>
      </trkpt>
      <trkpt lat="46.59208" lon="5.67878">
        <ele>461</ele>
        <time>2022-02-16T06:52:01Z</time>
      </trkpt>
      <trkpt lat="46.59135" lon="5.67989">
        <ele>459</ele>
        <time>2022-02-16T06:52:20Z</time>
      </trkpt>
      <trkpt lat="46.59109" lon="5.68039">
        <ele>461</ele>
        <time>2022-02-16T06:52:28Z</time>
      </trkpt>
      <trkpt lat="46.59085" lon="5.68105">
        <ele>462</ele>
        <time>2022-02-16T06:52:37Z</time>
      </trkpt>
      <trkpt lat="46.5897" lon="5.68409">
        <ele>451</ele>
        <time>2022-02-16T06:53:19Z</time>
      </trkpt>
      <trkpt lat="46.58932" lon="5.68516">
        <ele>446</ele>
        <time>2022-02-16T06:53:34Z</time>
      </trkpt>
      <trkpt lat="46.58848" lon="5.68777">
        <ele>443</ele>
        <time>2022-02-16T06:54:09Z</time>
      </trkpt>
      <trkpt lat="46.58762" lon="5.69056">
        <ele>441</ele>
        <time>2022-02-16T06:54:47Z</time>
      </trkpt>
      <trkpt lat="46.58674" lon="5.69346">
        <ele>441</ele>
        <time>2022-02-16T06:55:26Z</time>
      </trkpt>
      <trkpt lat="46.58497" lon="5.6994">
        <ele>438</ele>
        <time>2022-02-16T06:56:45Z</time>
      </trkpt>
      <trkpt lat="46.58496" lon="5.69952">
        <ele>438</ele>
        <time>2022-02-16T06:56:46Z</time>
      </trkpt>
      <trkpt lat="46.585" lon="5.70016">
        <ele>437</ele>
        <time>2022-02-16T06:56:54Z</time>
      </trkpt>
      <trkpt lat="46.58509" lon="5.70111">
        <ele>440</ele>
        <time>2022-02-16T06:57:06Z</time>
      </trkpt>
      <trkpt lat="46.58515" lon="5.70147">
        <ele>441</ele>
        <time>2022-02-16T06:57:10Z</time>
      </trkpt>
      <trkpt lat="46.58519" lon="5.7016">
        <ele>442</ele>
        <time>2022-02-16T06:57:12Z</time>
      </trkpt>
      <trkpt lat="46.58527" lon="5.70174">
        <ele>443</ele>
        <time>2022-02-16T06:57:14Z</time>
      </trkpt>
      <trkpt lat="46.58543" lon="5.70186">
        <ele>444</ele>
        <time>2022-02-16T06:57:18Z</time>
      </trkpt>
      <trkpt lat="46.58576" lon="5.70199">
        <ele>445</ele>
        <time>2022-02-16T06:57:24Z</time>
      </trkpt>
      <trkpt lat="46.58587" lon="5.70208">
        <ele>446</ele>
        <time>2022-02-16T06:57:26Z</time>
      </trkpt>
      <trkpt lat="46.58595" lon="5.70221">
        <ele>448</ele>
        <time>2022-02-16T06:57:28Z</time>
      </trkpt>
      <trkpt lat="46.586" lon="5.70233">
        <ele>449</ele>
        <time>2022-02-16T06:57:30Z</time>
      </trkpt>
      <trkpt lat="46.58604" lon="5.70256">
        <ele>451</ele>
        <time>2022-02-16T06:57:33Z</time>
      </trkpt>
      <trkpt lat="46.58599" lon="5.70369">
        <ele>457</ele>
        <time>2022-02-16T06:57:46Z</time>
      </trkpt>
      <trkpt lat="46.58599" lon="5.70384">
        <ele>458</ele>
        <time>2022-02-16T06:57:48Z</time>
      </trkpt>
      <trkpt lat="46.58603" lon="5.70403">
        <ele>459</ele>
        <time>2022-02-16T06:57:51Z</time>
      </trkpt>
      <trkpt lat="46.58609" lon="5.70422">
        <ele>460</ele>
        <time>2022-02-16T06:57:53Z</time>
      </trkpt>
      <trkpt lat="46.58622" lon="5.70441">
        <ele>460</ele>
        <time>2022-02-16T06:57:57Z</time>
      </trkpt>
      <trkpt lat="46.58636" lon="5.70451">
        <ele>460</ele>
        <time>2022-02-16T06:57:59Z</time>
      </trkpt>
      <trkpt lat="46.58671" lon="5.7046">
        <ele>461</ele>
        <time>2022-02-16T06:58:06Z</time>
      </trkpt>
      <trkpt lat="46.58689" lon="5.70472">
        <ele>462</ele>
        <time>2022-02-16T06:58:09Z</time>
      </trkpt>
      <trkpt lat="46.58699" lon="5.70484">
        <ele>462</ele>
        <time>2022-02-16T06:58:11Z</time>
      </trkpt>
      <trkpt lat="46.58775" lon="5.70621">
        <ele>464</ele>
        <time>2022-02-16T06:58:33Z</time>
      </trkpt>
      <trkpt lat="46.58795" lon="5.70648">
        <ele>465</ele>
        <time>2022-02-16T06:58:38Z</time>
      </trkpt>
      <trkpt lat="46.58813" lon="5.70667">
        <ele>466</ele>
        <time>2022-02-16T06:58:42Z</time>
      </trkpt>
      <trkpt lat="46.58872" lon="5.70716">
        <ele>466</ele>
        <time>2022-02-16T06:58:54Z</time>
      </trkpt>
      <trkpt lat="46.58884" lon="5.70731">
        <ele>467</ele>
        <time>2022-02-16T06:58:57Z</time>
      </trkpt>
      <trkpt lat="46.58902" lon="5.70757">
        <ele>468</ele>
        <time>2022-02-16T06:59:01Z</time>
      </trkpt>
      <trkpt lat="46.58917" lon="5.70785">
        <ele>468</ele>
        <time>2022-02-16T06:59:06Z</time>
      </trkpt>
      <trkpt lat="46.58926" lon="5.70809">
        <ele>469</ele>
        <time>2022-02-16T06:59:09Z</time>
      </trkpt>
      <trkpt lat="46.58936" lon="5.70843">
        <ele>469</ele>
        <time>2022-02-16T06:59:13Z</time>
      </trkpt>
      <trkpt lat="46.58941" lon="5.7088">
        <ele>470</ele>
        <time>2022-02-16T06:59:18Z</time>
      </trkpt>
      <trkpt lat="46.58943" lon="5.70905">
        <ele>470</ele>
        <time>2022-02-16T06:59:21Z</time>
      </trkpt>
      <trkpt lat="46.58943" lon="5.71642">
        <ele>474</ele>
        <time>2022-02-16T07:00:51Z</time>
      </trkpt>
      <trkpt lat="46.58939" lon="5.71821">
        <ele>474</ele>
        <time>2022-02-16T07:01:13Z</time>
      </trkpt>
      <trkpt lat="46.58938" lon="5.71944">
        <ele>475</ele>
        <time>2022-02-16T07:01:28Z</time>
      </trkpt>
      <trkpt lat="46.58938" lon="5.72063">
        <ele>476</ele>
        <time>2022-02-16T07:01:43Z</time>
      </trkpt>
      <trkpt lat="46.58942" lon="5.72226">
        <ele>477</ele>
        <time>2022-02-16T07:02:03Z</time>
      </trkpt>
      <trkpt lat="46.58944" lon="5.72144">
        <ele>477</ele>
        <time>2022-02-16T07:02:13Z</time>
      </trkpt>
      <trkpt lat="46.58946" lon="5.71942">
        <ele>475</ele>
        <time>2022-02-16T07:02:37Z</time>
      </trkpt>
      <trkpt lat="46.58938" lon="5.71944">
        <ele>475</ele>
        <time>2022-02-16T07:02:39Z</time>
      </trkpt>
      <trkpt lat="46.58938" lon="5.72063">
        <ele>476</ele>
        <time>2022-02-16T07:02:53Z</time>
      </trkpt>
      <trkpt lat="46.58942" lon="5.72226">
        <ele>477</ele>
        <time>2022-02-16T07:03:13Z</time>
      </trkpt>
      <trkpt lat="46.5894" lon="5.73017">
        <ele>482</ele>
        <time>2022-02-16T07:04:50Z</time>
      </trkpt>
      <trkpt lat="46.58938" lon="5.73129">
        <ele>484</ele>
        <time>2022-02-16T07:05:04Z</time>
      </trkpt>
      <trkpt lat="46.58931" lon="5.73181">
        <ele>485</ele>
        <time>2022-02-16T07:05:10Z</time>
      </trkpt>
      <trkpt lat="46.58922" lon="5.73214">
        <ele>486</ele>
        <time>2022-02-16T07:05:15Z</time>
      </trkpt>
      <trkpt lat="46.58911" lon="5.73245">
        <ele>488</ele>
        <time>2022-02-16T07:05:19Z</time>
      </trkpt>
      <trkpt lat="46.58848" lon="5.73406">
        <ele>499</ele>
        <time>2022-02-16T07:05:42Z</time>
      </trkpt>
      <trkpt lat="46.58827" lon="5.73471">
        <ele>500</ele>
        <time>2022-02-16T07:05:50Z</time>
      </trkpt>
      <trkpt lat="46.58753" lon="5.73733">
        <ele>513</ele>
        <time>2022-02-16T07:06:25Z</time>
      </trkpt>
      <trkpt lat="46.58741" lon="5.73767">
        <ele>514</ele>
        <time>2022-02-16T07:06:30Z</time>
      </trkpt>
      <trkpt lat="46.58725" lon="5.73808">
        <ele>516</ele>
        <time>2022-02-16T07:06:35Z</time>
      </trkpt>
      <trkpt lat="46.58701" lon="5.73855">
        <ele>517</ele>
        <time>2022-02-16T07:06:43Z</time>
      </trkpt>
      <trkpt lat="46.58683" lon="5.73885">
        <ele>517</ele>
        <time>2022-02-16T07:06:47Z</time>
      </trkpt>
      <trkpt lat="46.58633" lon="5.73976">
        <ele>519</ele>
        <time>2022-02-16T07:07:02Z</time>
      </trkpt>
      <trkpt lat="46.58623" lon="5.73992">
        <ele>519</ele>
        <time>2022-02-16T07:07:04Z</time>
      </trkpt>
      <trkpt lat="46.58606" lon="5.74002">
        <ele>519</ele>
        <time>2022-02-16T07:07:08Z</time>
      </trkpt>
      <trkpt lat="46.58602" lon="5.74018">
        <ele>519</ele>
        <time>2022-02-16T07:07:10Z</time>
      </trkpt>
      <trkpt lat="46.58593" lon="5.7404">
        <ele>520</ele>
        <time>2022-02-16T07:07:13Z</time>
      </trkpt>
      <trkpt lat="46.58568" lon="5.74086">
        <ele>522</ele>
        <time>2022-02-16T07:07:20Z</time>
      </trkpt>
    </trkseg>
  </trk>
</gpx>